<?xml version="1.0" encoding="UTF-8" standalone="no" ?>
<gpx xmlns="http://www.topografix.com/GPX/1/1" xmlns:xsi="http://www.w3.org/2001/XMLSchema-instance" xsi:schemaLocation="http://www.topografix.com/GPX/1/1 http://www.topografix.com/GPX/1/1/gpx.xsd" version="1.1" creator="VisuGPX - https://www.visugpx.com">
  <metadata>
    <name>Chemin de halage canal Brest à Nantes</name>
    <desc><![CDATA[Carhaix-plougher
le pelem , Kerangall]]></desc>
  </metadata>
  <trk>
    <name><![CDATA[Chemin de halage canal Brest à Nantes_1]]></name>
    <trkseg>
      <trkpt lat="48.25332" lon="-3.54279">
        <ele>93.3</ele>
        <time>2022-06-12T09:42:06Z</time>
      </trkpt>
      <trkpt lat="48.25334" lon="-3.54268">
        <ele>93.3</ele>
        <time>2022-06-12T09:42:07Z</time>
      </trkpt>
      <trkpt lat="48.25335" lon="-3.54269">
        <ele>93.3</ele>
        <time>2022-06-12T09:42:08Z</time>
      </trkpt>
      <trkpt lat="48.25337" lon="-3.54264">
        <ele>93.3</ele>
        <time>2022-06-12T09:42:10Z</time>
      </trkpt>
      <trkpt lat="48.25338" lon="-3.5426">
        <ele>93.3</ele>
        <time>2022-06-12T09:42:11Z</time>
      </trkpt>
      <trkpt lat="48.25338" lon="-3.5426">
        <ele>93.3</ele>
        <time>2022-06-12T09:42:12Z</time>
      </trkpt>
      <trkpt lat="48.25338" lon="-3.5426">
        <ele>93.3</ele>
        <time>2022-06-12T09:42:13Z</time>
      </trkpt>
      <trkpt lat="48.25338" lon="-3.5426">
        <ele>93.3</ele>
        <time>2022-06-12T09:42:14Z</time>
      </trkpt>
      <trkpt lat="48.25338" lon="-3.5426">
        <ele>93.3</ele>
        <time>2022-06-12T09:42:15Z</time>
      </trkpt>
      <trkpt lat="48.25338" lon="-3.5426">
        <ele>93.3</ele>
        <time>2022-06-12T09:42:16Z</time>
      </trkpt>
      <trkpt lat="48.25338" lon="-3.5426">
        <ele>93.3</ele>
        <time>2022-06-12T09:42:17Z</time>
      </trkpt>
      <trkpt lat="48.25338" lon="-3.5426">
        <ele>93.3</ele>
        <time>2022-06-12T09:42:18Z</time>
      </trkpt>
      <trkpt lat="48.25338" lon="-3.5426">
        <ele>93.3</ele>
        <time>2022-06-12T09:42:19Z</time>
      </trkpt>
      <trkpt lat="48.25338" lon="-3.5426">
        <ele>93.3</ele>
        <time>2022-06-12T09:42:20Z</time>
      </trkpt>
      <trkpt lat="48.25338" lon="-3.5426">
        <ele>93.3</ele>
        <time>2022-06-12T09:42:21Z</time>
      </trkpt>
      <trkpt lat="48.25338" lon="-3.5426">
        <ele>93.3</ele>
        <time>2022-06-12T09:42:22Z</time>
      </trkpt>
      <trkpt lat="48.25338" lon="-3.5426">
        <ele>93.3</ele>
        <time>2022-06-12T09:42:23Z</time>
      </trkpt>
      <trkpt lat="48.25338" lon="-3.5426">
        <ele>93.3</ele>
        <time>2022-06-12T09:42:24Z</time>
      </trkpt>
      <trkpt lat="48.25338" lon="-3.5426">
        <ele>93.3</ele>
        <time>2022-06-12T09:42:25Z</time>
      </trkpt>
      <trkpt lat="48.25338" lon="-3.5426">
        <ele>93.3</ele>
        <time>2022-06-12T09:42:26Z</time>
      </trkpt>
      <trkpt lat="48.25338" lon="-3.5426">
        <ele>93.3</ele>
        <time>2022-06-12T09:42:27Z</time>
      </trkpt>
      <trkpt lat="48.25338" lon="-3.5426">
        <ele>93.3</ele>
        <time>2022-06-12T09:42:28Z</time>
      </trkpt>
      <trkpt lat="48.25338" lon="-3.5426">
        <ele>93.3</ele>
        <time>2022-06-12T09:42:29Z</time>
      </trkpt>
      <trkpt lat="48.25338" lon="-3.5426">
        <ele>93.3</ele>
        <time>2022-06-12T09:42:30Z</time>
      </trkpt>
      <trkpt lat="48.25338" lon="-3.5426">
        <ele>93.3</ele>
        <time>2022-06-12T09:42:31Z</time>
      </trkpt>
      <trkpt lat="48.25338" lon="-3.5426">
        <ele>93.3</ele>
        <time>2022-06-12T09:42:32Z</time>
      </trkpt>
      <trkpt lat="48.25338" lon="-3.5426">
        <ele>93.3</ele>
        <time>2022-06-12T09:42:33Z</time>
      </trkpt>
      <trkpt lat="48.25338" lon="-3.5426">
        <ele>93.3</ele>
        <time>2022-06-12T09:42:34Z</time>
      </trkpt>
      <trkpt lat="48.25338" lon="-3.5426">
        <ele>93.3</ele>
        <time>2022-06-12T09:42:35Z</time>
      </trkpt>
      <trkpt lat="48.25338" lon="-3.5426">
        <ele>93.3</ele>
        <time>2022-06-12T09:42:36Z</time>
      </trkpt>
      <trkpt lat="48.25338" lon="-3.5426">
        <ele>93.3</ele>
        <time>2022-06-12T09:42:37Z</time>
      </trkpt>
      <trkpt lat="48.25338" lon="-3.5426">
        <ele>93.3</ele>
        <time>2022-06-12T09:42:38Z</time>
      </trkpt>
      <trkpt lat="48.25338" lon="-3.5426">
        <ele>93.3</ele>
        <time>2022-06-12T09:42:39Z</time>
      </trkpt>
      <trkpt lat="48.25338" lon="-3.5426">
        <ele>93.3</ele>
        <time>2022-06-12T09:42:40Z</time>
      </trkpt>
      <trkpt lat="48.25338" lon="-3.5426">
        <ele>93.3</ele>
        <time>2022-06-12T09:42:41Z</time>
      </trkpt>
      <trkpt lat="48.25338" lon="-3.5426">
        <ele>93.3</ele>
        <time>2022-06-12T09:42:42Z</time>
      </trkpt>
      <trkpt lat="48.25338" lon="-3.5426">
        <ele>93.3</ele>
        <time>2022-06-12T09:42:43Z</time>
      </trkpt>
      <trkpt lat="48.25338" lon="-3.5426">
        <ele>93.3</ele>
        <time>2022-06-12T09:42:44Z</time>
      </trkpt>
      <trkpt lat="48.25338" lon="-3.5426">
        <ele>93.3</ele>
        <time>2022-06-12T09:42:45Z</time>
      </trkpt>
      <trkpt lat="48.25338" lon="-3.5426">
        <ele>93.3</ele>
        <time>2022-06-12T09:42:46Z</time>
      </trkpt>
      <trkpt lat="48.25338" lon="-3.5426">
        <ele>93.3</ele>
        <time>2022-06-12T09:42:47Z</time>
      </trkpt>
      <trkpt lat="48.25338" lon="-3.5426">
        <ele>93.3</ele>
        <time>2022-06-12T09:42:48Z</time>
      </trkpt>
      <trkpt lat="48.25338" lon="-3.5426">
        <ele>93.3</ele>
        <time>2022-06-12T09:42:49Z</time>
      </trkpt>
      <trkpt lat="48.25338" lon="-3.5426">
        <ele>93.3</ele>
        <time>2022-06-12T09:42:50Z</time>
      </trkpt>
      <trkpt lat="48.25338" lon="-3.5426">
        <ele>93.3</ele>
        <time>2022-06-12T09:42:51Z</time>
      </trkpt>
      <trkpt lat="48.25338" lon="-3.5426">
        <ele>93.3</ele>
        <time>2022-06-12T09:42:52Z</time>
      </trkpt>
      <trkpt lat="48.25338" lon="-3.5426">
        <ele>93.3</ele>
        <time>2022-06-12T09:42:53Z</time>
      </trkpt>
      <trkpt lat="48.25338" lon="-3.5426">
        <ele>93.3</ele>
        <time>2022-06-12T09:42:54Z</time>
      </trkpt>
      <trkpt lat="48.25338" lon="-3.5426">
        <ele>93.3</ele>
        <time>2022-06-12T09:42:55Z</time>
      </trkpt>
      <trkpt lat="48.25338" lon="-3.5426">
        <ele>93.3</ele>
        <time>2022-06-12T09:42:56Z</time>
      </trkpt>
      <trkpt lat="48.25338" lon="-3.5426">
        <ele>93.3</ele>
        <time>2022-06-12T09:42:57Z</time>
      </trkpt>
      <trkpt lat="48.25338" lon="-3.5426">
        <ele>93.3</ele>
        <time>2022-06-12T09:42:58Z</time>
      </trkpt>
      <trkpt lat="48.25338" lon="-3.5426">
        <ele>93.3</ele>
        <time>2022-06-12T09:42:59Z</time>
      </trkpt>
      <trkpt lat="48.25338" lon="-3.5426">
        <ele>93.3</ele>
        <time>2022-06-12T09:43:00Z</time>
      </trkpt>
      <trkpt lat="48.25338" lon="-3.5426">
        <ele>93.3</ele>
        <time>2022-06-12T09:43:01Z</time>
      </trkpt>
      <trkpt lat="48.25338" lon="-3.5426">
        <ele>93.3</ele>
        <time>2022-06-12T09:43:02Z</time>
      </trkpt>
      <trkpt lat="48.25338" lon="-3.5426">
        <ele>93.3</ele>
        <time>2022-06-12T09:43:03Z</time>
      </trkpt>
      <trkpt lat="48.25338" lon="-3.5426">
        <ele>93.3</ele>
        <time>2022-06-12T09:43:04Z</time>
      </trkpt>
      <trkpt lat="48.25338" lon="-3.5426">
        <ele>93.3</ele>
        <time>2022-06-12T09:43:05Z</time>
      </trkpt>
      <trkpt lat="48.25338" lon="-3.5426">
        <ele>93.3</ele>
        <time>2022-06-12T09:43:06Z</time>
      </trkpt>
      <trkpt lat="48.25338" lon="-3.5426">
        <ele>93.3</ele>
        <time>2022-06-12T09:43:07Z</time>
      </trkpt>
      <trkpt lat="48.25338" lon="-3.5426">
        <ele>93.3</ele>
        <time>2022-06-12T09:43:08Z</time>
      </trkpt>
      <trkpt lat="48.25338" lon="-3.5426">
        <ele>93.3</ele>
        <time>2022-06-12T09:43:09Z</time>
      </trkpt>
      <trkpt lat="48.25338" lon="-3.5426">
        <ele>93.3</ele>
        <time>2022-06-12T09:43:10Z</time>
      </trkpt>
      <trkpt lat="48.25338" lon="-3.5426">
        <ele>93.3</ele>
        <time>2022-06-12T09:43:11Z</time>
      </trkpt>
      <trkpt lat="48.25338" lon="-3.5426">
        <ele>93.3</ele>
        <time>2022-06-12T09:43:12Z</time>
      </trkpt>
      <trkpt lat="48.25338" lon="-3.5426">
        <ele>93.3</ele>
        <time>2022-06-12T09:43:13Z</time>
      </trkpt>
      <trkpt lat="48.25338" lon="-3.5426">
        <ele>93.3</ele>
        <time>2022-06-12T09:43:14Z</time>
      </trkpt>
      <trkpt lat="48.25338" lon="-3.5426">
        <ele>93.3</ele>
        <time>2022-06-12T09:43:15Z</time>
      </trkpt>
      <trkpt lat="48.25338" lon="-3.5426">
        <ele>93.3</ele>
        <time>2022-06-12T09:43:16Z</time>
      </trkpt>
      <trkpt lat="48.25338" lon="-3.5426">
        <ele>93.3</ele>
        <time>2022-06-12T09:43:17Z</time>
      </trkpt>
      <trkpt lat="48.25338" lon="-3.5426">
        <ele>93.3</ele>
        <time>2022-06-12T09:43:18Z</time>
      </trkpt>
      <trkpt lat="48.25338" lon="-3.5426">
        <ele>93.3</ele>
        <time>2022-06-12T09:43:19Z</time>
      </trkpt>
      <trkpt lat="48.25338" lon="-3.5426">
        <ele>93.3</ele>
        <time>2022-06-12T09:43:20Z</time>
      </trkpt>
      <trkpt lat="48.25338" lon="-3.5426">
        <ele>93.3</ele>
        <time>2022-06-12T09:43:21Z</time>
      </trkpt>
      <trkpt lat="48.25338" lon="-3.5426">
        <ele>93.3</ele>
        <time>2022-06-12T09:43:22Z</time>
      </trkpt>
      <trkpt lat="48.25338" lon="-3.5426">
        <ele>93.3</ele>
        <time>2022-06-12T09:43:23Z</time>
      </trkpt>
      <trkpt lat="48.25338" lon="-3.5426">
        <ele>93.3</ele>
        <time>2022-06-12T09:43:24Z</time>
      </trkpt>
      <trkpt lat="48.25338" lon="-3.5426">
        <ele>93.3</ele>
        <time>2022-06-12T09:43:25Z</time>
      </trkpt>
      <trkpt lat="48.25338" lon="-3.5426">
        <ele>93.3</ele>
        <time>2022-06-12T09:43:26Z</time>
      </trkpt>
      <trkpt lat="48.25338" lon="-3.5426">
        <ele>93.3</ele>
        <time>2022-06-12T09:43:27Z</time>
      </trkpt>
      <trkpt lat="48.25338" lon="-3.5426">
        <ele>93.3</ele>
        <time>2022-06-12T09:43:28Z</time>
      </trkpt>
      <trkpt lat="48.25338" lon="-3.5426">
        <ele>93.3</ele>
        <time>2022-06-12T09:43:29Z</time>
      </trkpt>
      <trkpt lat="48.25338" lon="-3.5426">
        <ele>93.3</ele>
        <time>2022-06-12T09:43:30Z</time>
      </trkpt>
      <trkpt lat="48.25338" lon="-3.5426">
        <ele>93.3</ele>
        <time>2022-06-12T09:43:31Z</time>
      </trkpt>
      <trkpt lat="48.25338" lon="-3.5426">
        <ele>93.3</ele>
        <time>2022-06-12T09:43:32Z</time>
      </trkpt>
      <trkpt lat="48.25338" lon="-3.5426">
        <ele>93.3</ele>
        <time>2022-06-12T09:43:33Z</time>
      </trkpt>
      <trkpt lat="48.25338" lon="-3.5426">
        <ele>93.3</ele>
        <time>2022-06-12T09:43:34Z</time>
      </trkpt>
      <trkpt lat="48.25338" lon="-3.5426">
        <ele>93.3</ele>
        <time>2022-06-12T09:43:35Z</time>
      </trkpt>
      <trkpt lat="48.25338" lon="-3.5426">
        <ele>93.3</ele>
        <time>2022-06-12T09:43:36Z</time>
      </trkpt>
      <trkpt lat="48.25338" lon="-3.5426">
        <ele>93.3</ele>
        <time>2022-06-12T09:43:37Z</time>
      </trkpt>
      <trkpt lat="48.25338" lon="-3.5426">
        <ele>93.3</ele>
        <time>2022-06-12T09:43:38Z</time>
      </trkpt>
      <trkpt lat="48.25338" lon="-3.5426">
        <ele>93.3</ele>
        <time>2022-06-12T09:43:39Z</time>
      </trkpt>
      <trkpt lat="48.25338" lon="-3.5426">
        <ele>93.3</ele>
        <time>2022-06-12T09:43:40Z</time>
      </trkpt>
      <trkpt lat="48.25338" lon="-3.5426">
        <ele>93.3</ele>
        <time>2022-06-12T09:43:41Z</time>
      </trkpt>
      <trkpt lat="48.25338" lon="-3.5426">
        <ele>93.3</ele>
        <time>2022-06-12T09:43:42Z</time>
      </trkpt>
      <trkpt lat="48.25338" lon="-3.5426">
        <ele>93.3</ele>
        <time>2022-06-12T09:43:43Z</time>
      </trkpt>
      <trkpt lat="48.25338" lon="-3.5426">
        <ele>93.3</ele>
        <time>2022-06-12T09:43:44Z</time>
      </trkpt>
      <trkpt lat="48.25338" lon="-3.5426">
        <ele>93.3</ele>
        <time>2022-06-12T09:43:45Z</time>
      </trkpt>
      <trkpt lat="48.25338" lon="-3.5426">
        <ele>93.3</ele>
        <time>2022-06-12T09:43:46Z</time>
      </trkpt>
      <trkpt lat="48.25338" lon="-3.5426">
        <ele>93.3</ele>
        <time>2022-06-12T09:43:47Z</time>
      </trkpt>
      <trkpt lat="48.25338" lon="-3.5426">
        <ele>93.3</ele>
        <time>2022-06-12T09:43:48Z</time>
      </trkpt>
      <trkpt lat="48.25338" lon="-3.5426">
        <ele>93.3</ele>
        <time>2022-06-12T09:43:49Z</time>
      </trkpt>
      <trkpt lat="48.25338" lon="-3.5426">
        <ele>93.3</ele>
        <time>2022-06-12T09:43:50Z</time>
      </trkpt>
      <trkpt lat="48.25338" lon="-3.5426">
        <ele>93.3</ele>
        <time>2022-06-12T09:43:51Z</time>
      </trkpt>
      <trkpt lat="48.25338" lon="-3.5426">
        <ele>93.3</ele>
        <time>2022-06-12T09:43:52Z</time>
      </trkpt>
      <trkpt lat="48.25338" lon="-3.5426">
        <ele>93.3</ele>
        <time>2022-06-12T09:43:53Z</time>
      </trkpt>
      <trkpt lat="48.25338" lon="-3.5426">
        <ele>93.3</ele>
        <time>2022-06-12T09:43:54Z</time>
      </trkpt>
      <trkpt lat="48.25338" lon="-3.5426">
        <ele>93.3</ele>
        <time>2022-06-12T09:43:55Z</time>
      </trkpt>
      <trkpt lat="48.25338" lon="-3.5426">
        <ele>93.3</ele>
        <time>2022-06-12T09:43:56Z</time>
      </trkpt>
      <trkpt lat="48.25338" lon="-3.5426">
        <ele>93.3</ele>
        <time>2022-06-12T09:43:57Z</time>
      </trkpt>
      <trkpt lat="48.25338" lon="-3.5426">
        <ele>93.3</ele>
        <time>2022-06-12T09:43:58Z</time>
      </trkpt>
      <trkpt lat="48.25338" lon="-3.5426">
        <ele>93.3</ele>
        <time>2022-06-12T09:43:59Z</time>
      </trkpt>
      <trkpt lat="48.25338" lon="-3.5426">
        <ele>93.3</ele>
        <time>2022-06-12T09:44:00Z</time>
      </trkpt>
      <trkpt lat="48.25338" lon="-3.5426">
        <ele>93.3</ele>
        <time>2022-06-12T09:44:01Z</time>
      </trkpt>
      <trkpt lat="48.25338" lon="-3.5426">
        <ele>93.3</ele>
        <time>2022-06-12T09:44:02Z</time>
      </trkpt>
      <trkpt lat="48.25338" lon="-3.5426">
        <ele>93.3</ele>
        <time>2022-06-12T09:44:03Z</time>
      </trkpt>
      <trkpt lat="48.25338" lon="-3.5426">
        <ele>93.3</ele>
        <time>2022-06-12T09:44:04Z</time>
      </trkpt>
      <trkpt lat="48.25338" lon="-3.5426">
        <ele>93.3</ele>
        <time>2022-06-12T09:44:05Z</time>
      </trkpt>
      <trkpt lat="48.25338" lon="-3.5426">
        <ele>93.3</ele>
        <time>2022-06-12T09:44:06Z</time>
      </trkpt>
      <trkpt lat="48.25338" lon="-3.5426">
        <ele>93.3</ele>
        <time>2022-06-12T09:44:07Z</time>
      </trkpt>
      <trkpt lat="48.25338" lon="-3.5426">
        <ele>93.3</ele>
        <time>2022-06-12T09:44:08Z</time>
      </trkpt>
      <trkpt lat="48.25338" lon="-3.5426">
        <ele>93.3</ele>
        <time>2022-06-12T09:44:09Z</time>
      </trkpt>
      <trkpt lat="48.25338" lon="-3.5426">
        <ele>93.3</ele>
        <time>2022-06-12T09:44:10Z</time>
      </trkpt>
      <trkpt lat="48.25338" lon="-3.5426">
        <ele>93.3</ele>
        <time>2022-06-12T09:44:11Z</time>
      </trkpt>
      <trkpt lat="48.25338" lon="-3.5426">
        <ele>93.3</ele>
        <time>2022-06-12T09:44:12Z</time>
      </trkpt>
      <trkpt lat="48.25338" lon="-3.5426">
        <ele>93.3</ele>
        <time>2022-06-12T09:44:13Z</time>
      </trkpt>
      <trkpt lat="48.25338" lon="-3.5426">
        <ele>93.3</ele>
        <time>2022-06-12T09:44:14Z</time>
      </trkpt>
      <trkpt lat="48.25338" lon="-3.5426">
        <ele>93.3</ele>
        <time>2022-06-12T09:44:15Z</time>
      </trkpt>
      <trkpt lat="48.25338" lon="-3.5426">
        <ele>93.3</ele>
        <time>2022-06-12T09:44:16Z</time>
      </trkpt>
      <trkpt lat="48.25338" lon="-3.5426">
        <ele>93.3</ele>
        <time>2022-06-12T09:44:17Z</time>
      </trkpt>
      <trkpt lat="48.25338" lon="-3.5426">
        <ele>93.3</ele>
        <time>2022-06-12T09:44:18Z</time>
      </trkpt>
      <trkpt lat="48.25338" lon="-3.5426">
        <ele>93.3</ele>
        <time>2022-06-12T09:44:19Z</time>
      </trkpt>
      <trkpt lat="48.25338" lon="-3.5426">
        <ele>93.3</ele>
        <time>2022-06-12T09:44:20Z</time>
      </trkpt>
      <trkpt lat="48.25338" lon="-3.5426">
        <ele>93.3</ele>
        <time>2022-06-12T09:44:21Z</time>
      </trkpt>
      <trkpt lat="48.25338" lon="-3.5426">
        <ele>93.3</ele>
        <time>2022-06-12T09:44:22Z</time>
      </trkpt>
      <trkpt lat="48.25338" lon="-3.5426">
        <ele>93.3</ele>
        <time>2022-06-12T09:44:23Z</time>
      </trkpt>
      <trkpt lat="48.25338" lon="-3.5426">
        <ele>93.3</ele>
        <time>2022-06-12T09:44:24Z</time>
      </trkpt>
      <trkpt lat="48.25338" lon="-3.5426">
        <ele>93.3</ele>
        <time>2022-06-12T09:44:25Z</time>
      </trkpt>
      <trkpt lat="48.25338" lon="-3.5426">
        <ele>93.3</ele>
        <time>2022-06-12T09:44:26Z</time>
      </trkpt>
      <trkpt lat="48.25338" lon="-3.5426">
        <ele>93.3</ele>
        <time>2022-06-12T09:44:28Z</time>
      </trkpt>
      <trkpt lat="48.25338" lon="-3.5426">
        <ele>93.3</ele>
        <time>2022-06-12T09:44:29Z</time>
      </trkpt>
      <trkpt lat="48.25338" lon="-3.5426">
        <ele>93.3</ele>
        <time>2022-06-12T09:44:30Z</time>
      </trkpt>
      <trkpt lat="48.25338" lon="-3.5426">
        <ele>93.3</ele>
        <time>2022-06-12T09:44:31Z</time>
      </trkpt>
      <trkpt lat="48.25338" lon="-3.5426">
        <ele>93.3</ele>
        <time>2022-06-12T09:44:32Z</time>
      </trkpt>
      <trkpt lat="48.25338" lon="-3.5426">
        <ele>93.3</ele>
        <time>2022-06-12T09:44:33Z</time>
      </trkpt>
      <trkpt lat="48.25338" lon="-3.5426">
        <ele>93.3</ele>
        <time>2022-06-12T09:44:34Z</time>
      </trkpt>
      <trkpt lat="48.25338" lon="-3.5426">
        <ele>93.3</ele>
        <time>2022-06-12T09:44:35Z</time>
      </trkpt>
      <trkpt lat="48.25338" lon="-3.5426">
        <ele>93.3</ele>
        <time>2022-06-12T09:44:36Z</time>
      </trkpt>
      <trkpt lat="48.25338" lon="-3.5426">
        <ele>93.3</ele>
        <time>2022-06-12T09:44:37Z</time>
      </trkpt>
      <trkpt lat="48.25338" lon="-3.5426">
        <ele>93.3</ele>
        <time>2022-06-12T09:44:38Z</time>
      </trkpt>
      <trkpt lat="48.25338" lon="-3.5426">
        <ele>93.3</ele>
        <time>2022-06-12T09:44:39Z</time>
      </trkpt>
      <trkpt lat="48.25338" lon="-3.5426">
        <ele>93.3</ele>
        <time>2022-06-12T09:44:40Z</time>
      </trkpt>
      <trkpt lat="48.25338" lon="-3.5426">
        <ele>93.3</ele>
        <time>2022-06-12T09:44:41Z</time>
      </trkpt>
      <trkpt lat="48.25338" lon="-3.5426">
        <ele>93.3</ele>
        <time>2022-06-12T09:44:42Z</time>
      </trkpt>
      <trkpt lat="48.25338" lon="-3.5426">
        <ele>93.3</ele>
        <time>2022-06-12T09:44:43Z</time>
      </trkpt>
      <trkpt lat="48.25338" lon="-3.5426">
        <ele>93.3</ele>
        <time>2022-06-12T09:44:44Z</time>
      </trkpt>
      <trkpt lat="48.25338" lon="-3.5426">
        <ele>93.3</ele>
        <time>2022-06-12T09:44:45Z</time>
      </trkpt>
      <trkpt lat="48.25338" lon="-3.5426">
        <ele>93.3</ele>
        <time>2022-06-12T09:44:46Z</time>
      </trkpt>
      <trkpt lat="48.25338" lon="-3.5426">
        <ele>93.3</ele>
        <time>2022-06-12T09:44:47Z</time>
      </trkpt>
      <trkpt lat="48.25338" lon="-3.5426">
        <ele>93.3</ele>
        <time>2022-06-12T09:44:48Z</time>
      </trkpt>
      <trkpt lat="48.25338" lon="-3.5426">
        <ele>93.3</ele>
        <time>2022-06-12T09:44:49Z</time>
      </trkpt>
      <trkpt lat="48.25338" lon="-3.5426">
        <ele>93.3</ele>
        <time>2022-06-12T09:44:50Z</time>
      </trkpt>
      <trkpt lat="48.25338" lon="-3.5426">
        <ele>93.3</ele>
        <time>2022-06-12T09:44:51Z</time>
      </trkpt>
      <trkpt lat="48.25338" lon="-3.5426">
        <ele>93.3</ele>
        <time>2022-06-12T09:44:52Z</time>
      </trkpt>
      <trkpt lat="48.25338" lon="-3.5426">
        <ele>93.3</ele>
        <time>2022-06-12T09:44:53Z</time>
      </trkpt>
      <trkpt lat="48.25338" lon="-3.5426">
        <ele>93.3</ele>
        <time>2022-06-12T09:44:54Z</time>
      </trkpt>
      <trkpt lat="48.25338" lon="-3.5426">
        <ele>93.3</ele>
        <time>2022-06-12T09:44:55Z</time>
      </trkpt>
      <trkpt lat="48.25338" lon="-3.5426">
        <ele>93.3</ele>
        <time>2022-06-12T09:44:56Z</time>
      </trkpt>
      <trkpt lat="48.25338" lon="-3.5426">
        <ele>93.3</ele>
        <time>2022-06-12T09:44:57Z</time>
      </trkpt>
      <trkpt lat="48.25338" lon="-3.5426">
        <ele>93.3</ele>
        <time>2022-06-12T09:44:58Z</time>
      </trkpt>
      <trkpt lat="48.25338" lon="-3.5426">
        <ele>93.3</ele>
        <time>2022-06-12T09:44:59Z</time>
      </trkpt>
      <trkpt lat="48.25338" lon="-3.5426">
        <ele>93.3</ele>
        <time>2022-06-12T09:45:00Z</time>
      </trkpt>
      <trkpt lat="48.25338" lon="-3.5426">
        <ele>93.3</ele>
        <time>2022-06-12T09:45:01Z</time>
      </trkpt>
      <trkpt lat="48.25338" lon="-3.5426">
        <ele>93.3</ele>
        <time>2022-06-12T09:45:02Z</time>
      </trkpt>
      <trkpt lat="48.25338" lon="-3.5426">
        <ele>93.3</ele>
        <time>2022-06-12T09:45:03Z</time>
      </trkpt>
      <trkpt lat="48.25338" lon="-3.5426">
        <ele>93.3</ele>
        <time>2022-06-12T09:45:04Z</time>
      </trkpt>
      <trkpt lat="48.25338" lon="-3.5426">
        <ele>93.3</ele>
        <time>2022-06-12T09:45:05Z</time>
      </trkpt>
      <trkpt lat="48.25338" lon="-3.5426">
        <ele>93.3</ele>
        <time>2022-06-12T09:45:06Z</time>
      </trkpt>
      <trkpt lat="48.25338" lon="-3.5426">
        <ele>93.3</ele>
        <time>2022-06-12T09:45:07Z</time>
      </trkpt>
      <trkpt lat="48.25338" lon="-3.5426">
        <ele>93.3</ele>
        <time>2022-06-12T09:45:08Z</time>
      </trkpt>
      <trkpt lat="48.25338" lon="-3.5426">
        <ele>93.3</ele>
        <time>2022-06-12T09:45:09Z</time>
      </trkpt>
      <trkpt lat="48.25338" lon="-3.5426">
        <ele>93.3</ele>
        <time>2022-06-12T09:45:10Z</time>
      </trkpt>
      <trkpt lat="48.25338" lon="-3.5426">
        <ele>93.3</ele>
        <time>2022-06-12T09:45:11Z</time>
      </trkpt>
      <trkpt lat="48.25338" lon="-3.5426">
        <ele>93.3</ele>
        <time>2022-06-12T09:45:12Z</time>
      </trkpt>
      <trkpt lat="48.25338" lon="-3.5426">
        <ele>93.3</ele>
        <time>2022-06-12T09:45:13Z</time>
      </trkpt>
      <trkpt lat="48.25338" lon="-3.5426">
        <ele>93.3</ele>
        <time>2022-06-12T09:45:14Z</time>
      </trkpt>
      <trkpt lat="48.25338" lon="-3.5426">
        <ele>93.3</ele>
        <time>2022-06-12T09:45:15Z</time>
      </trkpt>
      <trkpt lat="48.25338" lon="-3.5426">
        <ele>93.3</ele>
        <time>2022-06-12T09:45:16Z</time>
      </trkpt>
      <trkpt lat="48.25338" lon="-3.5426">
        <ele>93.3</ele>
        <time>2022-06-12T09:45:17Z</time>
      </trkpt>
      <trkpt lat="48.25338" lon="-3.5426">
        <ele>93.3</ele>
        <time>2022-06-12T09:45:18Z</time>
      </trkpt>
      <trkpt lat="48.25338" lon="-3.5426">
        <ele>93.3</ele>
        <time>2022-06-12T09:45:19Z</time>
      </trkpt>
      <trkpt lat="48.25338" lon="-3.5426">
        <ele>93.3</ele>
        <time>2022-06-12T09:45:21Z</time>
      </trkpt>
      <trkpt lat="48.25338" lon="-3.5426">
        <ele>93.3</ele>
        <time>2022-06-12T09:45:22Z</time>
      </trkpt>
      <trkpt lat="48.25338" lon="-3.5426">
        <ele>93.3</ele>
        <time>2022-06-12T09:45:23Z</time>
      </trkpt>
      <trkpt lat="48.25338" lon="-3.5426">
        <ele>93.3</ele>
        <time>2022-06-12T09:45:24Z</time>
      </trkpt>
      <trkpt lat="48.25338" lon="-3.5426">
        <ele>93.3</ele>
        <time>2022-06-12T09:45:25Z</time>
      </trkpt>
      <trkpt lat="48.25338" lon="-3.5426">
        <ele>93.3</ele>
        <time>2022-06-12T09:45:26Z</time>
      </trkpt>
      <trkpt lat="48.25338" lon="-3.5426">
        <ele>93.3</ele>
        <time>2022-06-12T09:45:27Z</time>
      </trkpt>
      <trkpt lat="48.25338" lon="-3.54259">
        <ele>93.3</ele>
        <time>2022-06-12T09:45:28Z</time>
      </trkpt>
      <trkpt lat="48.25339" lon="-3.54259">
        <ele>93.3</ele>
        <time>2022-06-12T09:45:29Z</time>
      </trkpt>
      <trkpt lat="48.25339" lon="-3.54259">
        <ele>93.3</ele>
        <time>2022-06-12T09:45:30Z</time>
      </trkpt>
      <trkpt lat="48.25339" lon="-3.54259">
        <ele>93.3</ele>
        <time>2022-06-12T09:45:31Z</time>
      </trkpt>
      <trkpt lat="48.25339" lon="-3.5426">
        <ele>93.3</ele>
        <time>2022-06-12T09:45:32Z</time>
      </trkpt>
      <trkpt lat="48.25339" lon="-3.5426">
        <ele>93.3</ele>
        <time>2022-06-12T09:45:33Z</time>
      </trkpt>
      <trkpt lat="48.25339" lon="-3.5426">
        <ele>93.3</ele>
        <time>2022-06-12T09:45:34Z</time>
      </trkpt>
      <trkpt lat="48.25339" lon="-3.5426">
        <ele>93.3</ele>
        <time>2022-06-12T09:45:35Z</time>
      </trkpt>
      <trkpt lat="48.25338" lon="-3.54259">
        <ele>93.3</ele>
        <time>2022-06-12T09:45:36Z</time>
      </trkpt>
      <trkpt lat="48.25338" lon="-3.54259">
        <ele>93.3</ele>
        <time>2022-06-12T09:45:37Z</time>
      </trkpt>
      <trkpt lat="48.25338" lon="-3.54259">
        <ele>93.3</ele>
        <time>2022-06-12T09:45:38Z</time>
      </trkpt>
      <trkpt lat="48.25338" lon="-3.54259">
        <ele>93.3</ele>
        <time>2022-06-12T09:45:39Z</time>
      </trkpt>
      <trkpt lat="48.25338" lon="-3.54259">
        <ele>93.3</ele>
        <time>2022-06-12T09:45:40Z</time>
      </trkpt>
      <trkpt lat="48.25338" lon="-3.54259">
        <ele>93.3</ele>
        <time>2022-06-12T09:45:42Z</time>
      </trkpt>
      <trkpt lat="48.25338" lon="-3.5426">
        <ele>93.3</ele>
        <time>2022-06-12T09:45:43Z</time>
      </trkpt>
      <trkpt lat="48.25338" lon="-3.5426">
        <ele>93.4</ele>
        <time>2022-06-12T09:45:44Z</time>
      </trkpt>
      <trkpt lat="48.25338" lon="-3.5426">
        <ele>93.4</ele>
        <time>2022-06-12T09:45:45Z</time>
      </trkpt>
      <trkpt lat="48.25338" lon="-3.5426">
        <ele>93.4</ele>
        <time>2022-06-12T09:45:46Z</time>
      </trkpt>
      <trkpt lat="48.25338" lon="-3.5426">
        <ele>93.4</ele>
        <time>2022-06-12T09:45:47Z</time>
      </trkpt>
      <trkpt lat="48.25338" lon="-3.5426">
        <ele>93.4</ele>
        <time>2022-06-12T09:45:48Z</time>
      </trkpt>
      <trkpt lat="48.25338" lon="-3.5426">
        <ele>93.4</ele>
        <time>2022-06-12T09:45:49Z</time>
      </trkpt>
      <trkpt lat="48.25339" lon="-3.54259">
        <ele>93.4</ele>
        <time>2022-06-12T09:45:50Z</time>
      </trkpt>
      <trkpt lat="48.25339" lon="-3.54259">
        <ele>93.4</ele>
        <time>2022-06-12T09:45:51Z</time>
      </trkpt>
      <trkpt lat="48.25338" lon="-3.54259">
        <ele>93.4</ele>
        <time>2022-06-12T09:45:52Z</time>
      </trkpt>
      <trkpt lat="48.25338" lon="-3.54258">
        <ele>93.4</ele>
        <time>2022-06-12T09:45:53Z</time>
      </trkpt>
      <trkpt lat="48.25338" lon="-3.54258">
        <ele>93.4</ele>
        <time>2022-06-12T09:45:55Z</time>
      </trkpt>
      <trkpt lat="48.25338" lon="-3.54257">
        <ele>93.4</ele>
        <time>2022-06-12T09:45:56Z</time>
      </trkpt>
      <trkpt lat="48.25338" lon="-3.54256">
        <ele>93.4</ele>
        <time>2022-06-12T09:45:57Z</time>
      </trkpt>
      <trkpt lat="48.25337" lon="-3.54255">
        <ele>93.4</ele>
        <time>2022-06-12T09:45:58Z</time>
      </trkpt>
      <trkpt lat="48.25336" lon="-3.54252">
        <ele>93.4</ele>
        <time>2022-06-12T09:46:00Z</time>
      </trkpt>
      <trkpt lat="48.25336" lon="-3.54251">
        <ele>93.4</ele>
        <time>2022-06-12T09:46:01Z</time>
      </trkpt>
      <trkpt lat="48.25336" lon="-3.5425">
        <ele>93.4</ele>
        <time>2022-06-12T09:46:02Z</time>
      </trkpt>
      <trkpt lat="48.25336" lon="-3.54248">
        <ele>93.4</ele>
        <time>2022-06-12T09:46:03Z</time>
      </trkpt>
      <trkpt lat="48.25335" lon="-3.54247">
        <ele>93.4</ele>
        <time>2022-06-12T09:46:04Z</time>
      </trkpt>
      <trkpt lat="48.25335" lon="-3.54245">
        <ele>93.4</ele>
        <time>2022-06-12T09:46:05Z</time>
      </trkpt>
      <trkpt lat="48.25334" lon="-3.54244">
        <ele>93.4</ele>
        <time>2022-06-12T09:46:07Z</time>
      </trkpt>
      <trkpt lat="48.25334" lon="-3.54242">
        <ele>93.4</ele>
        <time>2022-06-12T09:46:08Z</time>
      </trkpt>
      <trkpt lat="48.25334" lon="-3.54241">
        <ele>93.4</ele>
        <time>2022-06-12T09:46:09Z</time>
      </trkpt>
      <trkpt lat="48.25335" lon="-3.54238">
        <ele>93.4</ele>
        <time>2022-06-12T09:46:10Z</time>
      </trkpt>
      <trkpt lat="48.25335" lon="-3.54236">
        <ele>93.4</ele>
        <time>2022-06-12T09:46:11Z</time>
      </trkpt>
      <trkpt lat="48.25335" lon="-3.54235">
        <ele>93.4</ele>
        <time>2022-06-12T09:46:12Z</time>
      </trkpt>
      <trkpt lat="48.25335" lon="-3.54233">
        <ele>93.4</ele>
        <time>2022-06-12T09:46:14Z</time>
      </trkpt>
      <trkpt lat="48.25335" lon="-3.54231">
        <ele>93.4</ele>
        <time>2022-06-12T09:46:15Z</time>
      </trkpt>
      <trkpt lat="48.25336" lon="-3.54229">
        <ele>93.4</ele>
        <time>2022-06-12T09:46:16Z</time>
      </trkpt>
      <trkpt lat="48.25337" lon="-3.54229">
        <ele>93.4</ele>
        <time>2022-06-12T09:46:17Z</time>
      </trkpt>
      <trkpt lat="48.25338" lon="-3.54227">
        <ele>93.4</ele>
        <time>2022-06-12T09:46:18Z</time>
      </trkpt>
      <trkpt lat="48.25338" lon="-3.54224">
        <ele>93.4</ele>
        <time>2022-06-12T09:46:19Z</time>
      </trkpt>
      <trkpt lat="48.25339" lon="-3.54223">
        <ele>93.4</ele>
        <time>2022-06-12T09:46:20Z</time>
      </trkpt>
      <trkpt lat="48.25339" lon="-3.54221">
        <ele>93.4</ele>
        <time>2022-06-12T09:46:22Z</time>
      </trkpt>
      <trkpt lat="48.25339" lon="-3.5422">
        <ele>93.4</ele>
        <time>2022-06-12T09:46:23Z</time>
      </trkpt>
      <trkpt lat="48.25339" lon="-3.54218">
        <ele>93.4</ele>
        <time>2022-06-12T09:46:24Z</time>
      </trkpt>
      <trkpt lat="48.25339" lon="-3.54217">
        <ele>93.4</ele>
        <time>2022-06-12T09:46:25Z</time>
      </trkpt>
      <trkpt lat="48.25339" lon="-3.54214">
        <ele>93.4</ele>
        <time>2022-06-12T09:46:26Z</time>
      </trkpt>
      <trkpt lat="48.25339" lon="-3.54212">
        <ele>93.4</ele>
        <time>2022-06-12T09:46:27Z</time>
      </trkpt>
      <trkpt lat="48.25339" lon="-3.54211">
        <ele>93.4</ele>
        <time>2022-06-12T09:46:28Z</time>
      </trkpt>
      <trkpt lat="48.25338" lon="-3.5421">
        <ele>93.3</ele>
        <time>2022-06-12T09:46:29Z</time>
      </trkpt>
      <trkpt lat="48.25337" lon="-3.54209">
        <ele>93.3</ele>
        <time>2022-06-12T09:46:31Z</time>
      </trkpt>
      <trkpt lat="48.25337" lon="-3.54207">
        <ele>93.3</ele>
        <time>2022-06-12T09:46:32Z</time>
      </trkpt>
      <trkpt lat="48.25337" lon="-3.54204">
        <ele>93.3</ele>
        <time>2022-06-12T09:46:33Z</time>
      </trkpt>
      <trkpt lat="48.25337" lon="-3.54203">
        <ele>93.3</ele>
        <time>2022-06-12T09:46:34Z</time>
      </trkpt>
      <trkpt lat="48.25337" lon="-3.54202">
        <ele>93.3</ele>
        <time>2022-06-12T09:46:35Z</time>
      </trkpt>
      <trkpt lat="48.25336" lon="-3.542">
        <ele>93.3</ele>
        <time>2022-06-12T09:46:36Z</time>
      </trkpt>
      <trkpt lat="48.25336" lon="-3.54199">
        <ele>93.3</ele>
        <time>2022-06-12T09:46:37Z</time>
      </trkpt>
      <trkpt lat="48.25336" lon="-3.54199">
        <ele>93.3</ele>
        <time>2022-06-12T09:46:38Z</time>
      </trkpt>
      <trkpt lat="48.25335" lon="-3.54197">
        <ele>93.3</ele>
        <time>2022-06-12T09:46:40Z</time>
      </trkpt>
      <trkpt lat="48.25335" lon="-3.54195">
        <ele>93.3</ele>
        <time>2022-06-12T09:46:41Z</time>
      </trkpt>
      <trkpt lat="48.25335" lon="-3.54194">
        <ele>93.3</ele>
        <time>2022-06-12T09:46:42Z</time>
      </trkpt>
      <trkpt lat="48.25334" lon="-3.5419">
        <ele>93.3</ele>
        <time>2022-06-12T09:46:44Z</time>
      </trkpt>
      <trkpt lat="48.25334" lon="-3.54187">
        <ele>93.3</ele>
        <time>2022-06-12T09:46:45Z</time>
      </trkpt>
      <trkpt lat="48.25334" lon="-3.54187">
        <ele>93.3</ele>
        <time>2022-06-12T09:46:46Z</time>
      </trkpt>
      <trkpt lat="48.25334" lon="-3.54186">
        <ele>93.3</ele>
        <time>2022-06-12T09:46:47Z</time>
      </trkpt>
      <trkpt lat="48.25334" lon="-3.54186">
        <ele>93.3</ele>
        <time>2022-06-12T09:46:48Z</time>
      </trkpt>
      <trkpt lat="48.25334" lon="-3.54185">
        <ele>93.3</ele>
        <time>2022-06-12T09:46:49Z</time>
      </trkpt>
      <trkpt lat="48.25334" lon="-3.54184">
        <ele>93.3</ele>
        <time>2022-06-12T09:46:50Z</time>
      </trkpt>
      <trkpt lat="48.25335" lon="-3.54182">
        <ele>93.3</ele>
        <time>2022-06-12T09:46:51Z</time>
      </trkpt>
      <trkpt lat="48.25335" lon="-3.5418">
        <ele>93.3</ele>
        <time>2022-06-12T09:46:53Z</time>
      </trkpt>
      <trkpt lat="48.25335" lon="-3.54179">
        <ele>93.3</ele>
        <time>2022-06-12T09:46:54Z</time>
      </trkpt>
      <trkpt lat="48.25335" lon="-3.54177">
        <ele>93.3</ele>
        <time>2022-06-12T09:46:55Z</time>
      </trkpt>
      <trkpt lat="48.25336" lon="-3.54177">
        <ele>93.3</ele>
        <time>2022-06-12T09:46:56Z</time>
      </trkpt>
      <trkpt lat="48.25336" lon="-3.54176">
        <ele>93.3</ele>
        <time>2022-06-12T09:46:57Z</time>
      </trkpt>
      <trkpt lat="48.25336" lon="-3.54172">
        <ele>93.3</ele>
        <time>2022-06-12T09:46:58Z</time>
      </trkpt>
      <trkpt lat="48.25337" lon="-3.54171">
        <ele>93.3</ele>
        <time>2022-06-12T09:46:59Z</time>
      </trkpt>
      <trkpt lat="48.25337" lon="-3.5417">
        <ele>93.3</ele>
        <time>2022-06-12T09:47:00Z</time>
      </trkpt>
      <trkpt lat="48.25337" lon="-3.54168">
        <ele>93.3</ele>
        <time>2022-06-12T09:47:02Z</time>
      </trkpt>
      <trkpt lat="48.25337" lon="-3.54166">
        <ele>93.3</ele>
        <time>2022-06-12T09:47:03Z</time>
      </trkpt>
      <trkpt lat="48.25336" lon="-3.54162">
        <ele>93.3</ele>
        <time>2022-06-12T09:47:04Z</time>
      </trkpt>
      <trkpt lat="48.25335" lon="-3.54161">
        <ele>93.3</ele>
        <time>2022-06-12T09:47:05Z</time>
      </trkpt>
      <trkpt lat="48.25334" lon="-3.54158">
        <ele>93.3</ele>
        <time>2022-06-12T09:47:06Z</time>
      </trkpt>
      <trkpt lat="48.25334" lon="-3.54156">
        <ele>93.3</ele>
        <time>2022-06-12T09:47:07Z</time>
      </trkpt>
      <trkpt lat="48.25334" lon="-3.54153">
        <ele>93.3</ele>
        <time>2022-06-12T09:47:08Z</time>
      </trkpt>
      <trkpt lat="48.25334" lon="-3.5415">
        <ele>93.3</ele>
        <time>2022-06-12T09:47:09Z</time>
      </trkpt>
      <trkpt lat="48.25334" lon="-3.54148">
        <ele>93.3</ele>
        <time>2022-06-12T09:47:11Z</time>
      </trkpt>
      <trkpt lat="48.25334" lon="-3.54146">
        <ele>93.3</ele>
        <time>2022-06-12T09:47:12Z</time>
      </trkpt>
      <trkpt lat="48.25333" lon="-3.54144">
        <ele>93.3</ele>
        <time>2022-06-12T09:47:13Z</time>
      </trkpt>
      <trkpt lat="48.25333" lon="-3.54143">
        <ele>93.3</ele>
        <time>2022-06-12T09:47:14Z</time>
      </trkpt>
      <trkpt lat="48.25333" lon="-3.54142">
        <ele>93.3</ele>
        <time>2022-06-12T09:47:15Z</time>
      </trkpt>
      <trkpt lat="48.25333" lon="-3.54138">
        <ele>93.3</ele>
        <time>2022-06-12T09:47:16Z</time>
      </trkpt>
      <trkpt lat="48.25333" lon="-3.54137">
        <ele>93.3</ele>
        <time>2022-06-12T09:47:17Z</time>
      </trkpt>
      <trkpt lat="48.25333" lon="-3.54136">
        <ele>93.3</ele>
        <time>2022-06-12T09:47:18Z</time>
      </trkpt>
      <trkpt lat="48.25333" lon="-3.54134">
        <ele>93.3</ele>
        <time>2022-06-12T09:47:20Z</time>
      </trkpt>
      <trkpt lat="48.25333" lon="-3.54133">
        <ele>93.2</ele>
        <time>2022-06-12T09:47:21Z</time>
      </trkpt>
      <trkpt lat="48.25333" lon="-3.54132">
        <ele>93.2</ele>
        <time>2022-06-12T09:47:22Z</time>
      </trkpt>
      <trkpt lat="48.25333" lon="-3.54133">
        <ele>93.2</ele>
        <time>2022-06-12T09:47:23Z</time>
      </trkpt>
      <trkpt lat="48.25333" lon="-3.54132">
        <ele>93.2</ele>
        <time>2022-06-12T09:47:24Z</time>
      </trkpt>
      <trkpt lat="48.25333" lon="-3.5413">
        <ele>93.2</ele>
        <time>2022-06-12T09:47:25Z</time>
      </trkpt>
      <trkpt lat="48.25333" lon="-3.54129">
        <ele>93.2</ele>
        <time>2022-06-12T09:47:26Z</time>
      </trkpt>
      <trkpt lat="48.25333" lon="-3.54127">
        <ele>93.2</ele>
        <time>2022-06-12T09:47:28Z</time>
      </trkpt>
      <trkpt lat="48.25333" lon="-3.54125">
        <ele>93.2</ele>
        <time>2022-06-12T09:47:29Z</time>
      </trkpt>
      <trkpt lat="48.25333" lon="-3.54124">
        <ele>93.2</ele>
        <time>2022-06-12T09:47:30Z</time>
      </trkpt>
      <trkpt lat="48.25333" lon="-3.54124">
        <ele>93.2</ele>
        <time>2022-06-12T09:47:31Z</time>
      </trkpt>
      <trkpt lat="48.25333" lon="-3.54122">
        <ele>93.2</ele>
        <time>2022-06-12T09:47:32Z</time>
      </trkpt>
      <trkpt lat="48.25333" lon="-3.5412">
        <ele>93.2</ele>
        <time>2022-06-12T09:47:33Z</time>
      </trkpt>
      <trkpt lat="48.25333" lon="-3.54118">
        <ele>93.2</ele>
        <time>2022-06-12T09:47:34Z</time>
      </trkpt>
      <trkpt lat="48.25332" lon="-3.54116">
        <ele>93.2</ele>
        <time>2022-06-12T09:47:35Z</time>
      </trkpt>
      <trkpt lat="48.25332" lon="-3.54114">
        <ele>93.2</ele>
        <time>2022-06-12T09:47:36Z</time>
      </trkpt>
      <trkpt lat="48.25332" lon="-3.54112">
        <ele>93.2</ele>
        <time>2022-06-12T09:47:38Z</time>
      </trkpt>
      <trkpt lat="48.25332" lon="-3.54109">
        <ele>93.2</ele>
        <time>2022-06-12T09:47:39Z</time>
      </trkpt>
      <trkpt lat="48.25332" lon="-3.54107">
        <ele>93.2</ele>
        <time>2022-06-12T09:47:40Z</time>
      </trkpt>
      <trkpt lat="48.25332" lon="-3.54105">
        <ele>93.2</ele>
        <time>2022-06-12T09:47:41Z</time>
      </trkpt>
      <trkpt lat="48.25332" lon="-3.54103">
        <ele>93.2</ele>
        <time>2022-06-12T09:47:42Z</time>
      </trkpt>
      <trkpt lat="48.25331" lon="-3.54101">
        <ele>93.2</ele>
        <time>2022-06-12T09:47:43Z</time>
      </trkpt>
      <trkpt lat="48.25331" lon="-3.54099">
        <ele>93.2</ele>
        <time>2022-06-12T09:47:44Z</time>
      </trkpt>
      <trkpt lat="48.25331" lon="-3.54096">
        <ele>93.2</ele>
        <time>2022-06-12T09:47:45Z</time>
      </trkpt>
      <trkpt lat="48.2533" lon="-3.54094">
        <ele>93.2</ele>
        <time>2022-06-12T09:47:47Z</time>
      </trkpt>
      <trkpt lat="48.2533" lon="-3.54091">
        <ele>93.2</ele>
        <time>2022-06-12T09:47:48Z</time>
      </trkpt>
      <trkpt lat="48.25329" lon="-3.54089">
        <ele>93.2</ele>
        <time>2022-06-12T09:47:49Z</time>
      </trkpt>
      <trkpt lat="48.25328" lon="-3.54085">
        <ele>93.2</ele>
        <time>2022-06-12T09:47:50Z</time>
      </trkpt>
      <trkpt lat="48.25328" lon="-3.54083">
        <ele>93.2</ele>
        <time>2022-06-12T09:47:51Z</time>
      </trkpt>
      <trkpt lat="48.25327" lon="-3.54081">
        <ele>93.1</ele>
        <time>2022-06-12T09:47:52Z</time>
      </trkpt>
      <trkpt lat="48.25327" lon="-3.54079">
        <ele>93.1</ele>
        <time>2022-06-12T09:47:53Z</time>
      </trkpt>
      <trkpt lat="48.25327" lon="-3.54078">
        <ele>93.1</ele>
        <time>2022-06-12T09:47:55Z</time>
      </trkpt>
      <trkpt lat="48.25327" lon="-3.54076">
        <ele>93.1</ele>
        <time>2022-06-12T09:47:56Z</time>
      </trkpt>
      <trkpt lat="48.25327" lon="-3.54074">
        <ele>93.1</ele>
        <time>2022-06-12T09:47:57Z</time>
      </trkpt>
      <trkpt lat="48.25327" lon="-3.54073">
        <ele>93.1</ele>
        <time>2022-06-12T09:47:58Z</time>
      </trkpt>
      <trkpt lat="48.25328" lon="-3.5407">
        <ele>93.1</ele>
        <time>2022-06-12T09:47:59Z</time>
      </trkpt>
      <trkpt lat="48.25327" lon="-3.54069">
        <ele>93.1</ele>
        <time>2022-06-12T09:48:00Z</time>
      </trkpt>
      <trkpt lat="48.25327" lon="-3.54067">
        <ele>93.1</ele>
        <time>2022-06-12T09:48:01Z</time>
      </trkpt>
      <trkpt lat="48.25327" lon="-3.54063">
        <ele>93.1</ele>
        <time>2022-06-12T09:48:02Z</time>
      </trkpt>
      <trkpt lat="48.25326" lon="-3.54061">
        <ele>93.1</ele>
        <time>2022-06-12T09:48:04Z</time>
      </trkpt>
      <trkpt lat="48.25326" lon="-3.54059">
        <ele>93.1</ele>
        <time>2022-06-12T09:48:05Z</time>
      </trkpt>
      <trkpt lat="48.25326" lon="-3.54058">
        <ele>93.1</ele>
        <time>2022-06-12T09:48:06Z</time>
      </trkpt>
      <trkpt lat="48.25326" lon="-3.54057">
        <ele>93.1</ele>
        <time>2022-06-12T09:48:07Z</time>
      </trkpt>
      <trkpt lat="48.25326" lon="-3.54054">
        <ele>93.1</ele>
        <time>2022-06-12T09:48:08Z</time>
      </trkpt>
      <trkpt lat="48.25326" lon="-3.54053">
        <ele>93.1</ele>
        <time>2022-06-12T09:48:09Z</time>
      </trkpt>
      <trkpt lat="48.25326" lon="-3.54051">
        <ele>93.1</ele>
        <time>2022-06-12T09:48:10Z</time>
      </trkpt>
      <trkpt lat="48.25325" lon="-3.54049">
        <ele>93.1</ele>
        <time>2022-06-12T09:48:12Z</time>
      </trkpt>
      <trkpt lat="48.25325" lon="-3.54047">
        <ele>93.1</ele>
        <time>2022-06-12T09:48:13Z</time>
      </trkpt>
      <trkpt lat="48.25325" lon="-3.54044">
        <ele>93</ele>
        <time>2022-06-12T09:48:14Z</time>
      </trkpt>
      <trkpt lat="48.25323" lon="-3.54042">
        <ele>93</ele>
        <time>2022-06-12T09:48:15Z</time>
      </trkpt>
      <trkpt lat="48.25323" lon="-3.54041">
        <ele>93</ele>
        <time>2022-06-12T09:48:16Z</time>
      </trkpt>
      <trkpt lat="48.25322" lon="-3.5404">
        <ele>93</ele>
        <time>2022-06-12T09:48:17Z</time>
      </trkpt>
      <trkpt lat="48.25322" lon="-3.54038">
        <ele>93</ele>
        <time>2022-06-12T09:48:18Z</time>
      </trkpt>
      <trkpt lat="48.25321" lon="-3.54036">
        <ele>93</ele>
        <time>2022-06-12T09:48:19Z</time>
      </trkpt>
      <trkpt lat="48.25321" lon="-3.54035">
        <ele>93</ele>
        <time>2022-06-12T09:48:21Z</time>
      </trkpt>
      <trkpt lat="48.25321" lon="-3.54033">
        <ele>93</ele>
        <time>2022-06-12T09:48:22Z</time>
      </trkpt>
      <trkpt lat="48.2532" lon="-3.54032">
        <ele>93</ele>
        <time>2022-06-12T09:48:23Z</time>
      </trkpt>
      <trkpt lat="48.25319" lon="-3.54033">
        <ele>93</ele>
        <time>2022-06-12T09:48:24Z</time>
      </trkpt>
      <trkpt lat="48.25319" lon="-3.54031">
        <ele>93</ele>
        <time>2022-06-12T09:48:25Z</time>
      </trkpt>
      <trkpt lat="48.25319" lon="-3.54029">
        <ele>93</ele>
        <time>2022-06-12T09:48:26Z</time>
      </trkpt>
      <trkpt lat="48.25319" lon="-3.54027">
        <ele>93</ele>
        <time>2022-06-12T09:48:27Z</time>
      </trkpt>
      <trkpt lat="48.25319" lon="-3.54026">
        <ele>93</ele>
        <time>2022-06-12T09:48:28Z</time>
      </trkpt>
      <trkpt lat="48.25319" lon="-3.54023">
        <ele>93</ele>
        <time>2022-06-12T09:48:30Z</time>
      </trkpt>
      <trkpt lat="48.25319" lon="-3.54022">
        <ele>93</ele>
        <time>2022-06-12T09:48:31Z</time>
      </trkpt>
      <trkpt lat="48.25319" lon="-3.5402">
        <ele>93</ele>
        <time>2022-06-12T09:48:32Z</time>
      </trkpt>
      <trkpt lat="48.2532" lon="-3.54019">
        <ele>93</ele>
        <time>2022-06-12T09:48:33Z</time>
      </trkpt>
      <trkpt lat="48.2532" lon="-3.54017">
        <ele>93</ele>
        <time>2022-06-12T09:48:34Z</time>
      </trkpt>
      <trkpt lat="48.2532" lon="-3.54015">
        <ele>93</ele>
        <time>2022-06-12T09:48:35Z</time>
      </trkpt>
      <trkpt lat="48.2532" lon="-3.54013">
        <ele>93</ele>
        <time>2022-06-12T09:48:36Z</time>
      </trkpt>
      <trkpt lat="48.25321" lon="-3.5401">
        <ele>93.1</ele>
        <time>2022-06-12T09:48:37Z</time>
      </trkpt>
      <trkpt lat="48.25322" lon="-3.54008">
        <ele>93.1</ele>
        <time>2022-06-12T09:48:38Z</time>
      </trkpt>
      <trkpt lat="48.25323" lon="-3.54006">
        <ele>93.1</ele>
        <time>2022-06-12T09:48:40Z</time>
      </trkpt>
      <trkpt lat="48.25324" lon="-3.54004">
        <ele>93.1</ele>
        <time>2022-06-12T09:48:41Z</time>
      </trkpt>
      <trkpt lat="48.25324" lon="-3.54002">
        <ele>93.1</ele>
        <time>2022-06-12T09:48:42Z</time>
      </trkpt>
      <trkpt lat="48.25325" lon="-3.54">
        <ele>93.1</ele>
        <time>2022-06-12T09:48:43Z</time>
      </trkpt>
      <trkpt lat="48.25325" lon="-3.53998">
        <ele>93.1</ele>
        <time>2022-06-12T09:48:44Z</time>
      </trkpt>
      <trkpt lat="48.25326" lon="-3.53996">
        <ele>93.1</ele>
        <time>2022-06-12T09:48:45Z</time>
      </trkpt>
      <trkpt lat="48.25326" lon="-3.53994">
        <ele>93.1</ele>
        <time>2022-06-12T09:48:46Z</time>
      </trkpt>
      <trkpt lat="48.25327" lon="-3.53992">
        <ele>93.1</ele>
        <time>2022-06-12T09:48:47Z</time>
      </trkpt>
      <trkpt lat="48.25327" lon="-3.53991">
        <ele>93.1</ele>
        <time>2022-06-12T09:48:48Z</time>
      </trkpt>
      <trkpt lat="48.25328" lon="-3.53988">
        <ele>93.1</ele>
        <time>2022-06-12T09:48:49Z</time>
      </trkpt>
      <trkpt lat="48.25328" lon="-3.53987">
        <ele>93.1</ele>
        <time>2022-06-12T09:48:51Z</time>
      </trkpt>
      <trkpt lat="48.25329" lon="-3.53986">
        <ele>93.1</ele>
        <time>2022-06-12T09:48:52Z</time>
      </trkpt>
      <trkpt lat="48.2533" lon="-3.53984">
        <ele>93.2</ele>
        <time>2022-06-12T09:48:53Z</time>
      </trkpt>
      <trkpt lat="48.25331" lon="-3.53982">
        <ele>93.2</ele>
        <time>2022-06-12T09:48:54Z</time>
      </trkpt>
      <trkpt lat="48.25331" lon="-3.53981">
        <ele>93.2</ele>
        <time>2022-06-12T09:48:55Z</time>
      </trkpt>
      <trkpt lat="48.25333" lon="-3.53979">
        <ele>93.2</ele>
        <time>2022-06-12T09:48:56Z</time>
      </trkpt>
      <trkpt lat="48.25334" lon="-3.53978">
        <ele>93.2</ele>
        <time>2022-06-12T09:48:57Z</time>
      </trkpt>
      <trkpt lat="48.25335" lon="-3.53976">
        <ele>93.2</ele>
        <time>2022-06-12T09:48:58Z</time>
      </trkpt>
      <trkpt lat="48.25336" lon="-3.53974">
        <ele>93.2</ele>
        <time>2022-06-12T09:48:59Z</time>
      </trkpt>
      <trkpt lat="48.25338" lon="-3.53973">
        <ele>93.2</ele>
        <time>2022-06-12T09:49:01Z</time>
      </trkpt>
      <trkpt lat="48.25339" lon="-3.53971">
        <ele>93.2</ele>
        <time>2022-06-12T09:49:02Z</time>
      </trkpt>
      <trkpt lat="48.25342" lon="-3.53971">
        <ele>93.3</ele>
        <time>2022-06-12T09:49:03Z</time>
      </trkpt>
      <trkpt lat="48.25343" lon="-3.5397">
        <ele>93.3</ele>
        <time>2022-06-12T09:49:04Z</time>
      </trkpt>
      <trkpt lat="48.25344" lon="-3.53969">
        <ele>93.3</ele>
        <time>2022-06-12T09:49:05Z</time>
      </trkpt>
      <trkpt lat="48.25345" lon="-3.53967">
        <ele>93.3</ele>
        <time>2022-06-12T09:49:06Z</time>
      </trkpt>
      <trkpt lat="48.25347" lon="-3.53966">
        <ele>93.3</ele>
        <time>2022-06-12T09:49:07Z</time>
      </trkpt>
      <trkpt lat="48.25348" lon="-3.53964">
        <ele>93.3</ele>
        <time>2022-06-12T09:49:09Z</time>
      </trkpt>
      <trkpt lat="48.25349" lon="-3.53962">
        <ele>93.3</ele>
        <time>2022-06-12T09:49:10Z</time>
      </trkpt>
      <trkpt lat="48.25351" lon="-3.53961">
        <ele>93.3</ele>
        <time>2022-06-12T09:49:11Z</time>
      </trkpt>
      <trkpt lat="48.25354" lon="-3.53959">
        <ele>93.3</ele>
        <time>2022-06-12T09:49:12Z</time>
      </trkpt>
      <trkpt lat="48.25355" lon="-3.53958">
        <ele>93.4</ele>
        <time>2022-06-12T09:49:13Z</time>
      </trkpt>
      <trkpt lat="48.25357" lon="-3.53957">
        <ele>93.4</ele>
        <time>2022-06-12T09:49:14Z</time>
      </trkpt>
      <trkpt lat="48.25358" lon="-3.53956">
        <ele>93.4</ele>
        <time>2022-06-12T09:49:15Z</time>
      </trkpt>
      <trkpt lat="48.2536" lon="-3.53956">
        <ele>93.4</ele>
        <time>2022-06-12T09:49:16Z</time>
      </trkpt>
      <trkpt lat="48.25362" lon="-3.53956">
        <ele>93.4</ele>
        <time>2022-06-12T09:49:18Z</time>
      </trkpt>
      <trkpt lat="48.25363" lon="-3.53955">
        <ele>93.4</ele>
        <time>2022-06-12T09:49:19Z</time>
      </trkpt>
      <trkpt lat="48.25364" lon="-3.53954">
        <ele>93.4</ele>
        <time>2022-06-12T09:49:20Z</time>
      </trkpt>
      <trkpt lat="48.25365" lon="-3.53953">
        <ele>93.5</ele>
        <time>2022-06-12T09:49:21Z</time>
      </trkpt>
      <trkpt lat="48.25367" lon="-3.53951">
        <ele>93.5</ele>
        <time>2022-06-12T09:49:22Z</time>
      </trkpt>
      <trkpt lat="48.25368" lon="-3.5395">
        <ele>93.5</ele>
        <time>2022-06-12T09:49:23Z</time>
      </trkpt>
      <trkpt lat="48.25369" lon="-3.53948">
        <ele>93.5</ele>
        <time>2022-06-12T09:49:24Z</time>
      </trkpt>
      <trkpt lat="48.2537" lon="-3.53947">
        <ele>93.5</ele>
        <time>2022-06-12T09:49:25Z</time>
      </trkpt>
      <trkpt lat="48.25371" lon="-3.53946">
        <ele>93.6</ele>
        <time>2022-06-12T09:49:27Z</time>
      </trkpt>
      <trkpt lat="48.25372" lon="-3.53945">
        <ele>93.6</ele>
        <time>2022-06-12T09:49:28Z</time>
      </trkpt>
      <trkpt lat="48.25374" lon="-3.53944">
        <ele>93.7</ele>
        <time>2022-06-12T09:49:29Z</time>
      </trkpt>
      <trkpt lat="48.25375" lon="-3.53943">
        <ele>93.7</ele>
        <time>2022-06-12T09:49:30Z</time>
      </trkpt>
      <trkpt lat="48.25376" lon="-3.53943">
        <ele>93.7</ele>
        <time>2022-06-12T09:49:31Z</time>
      </trkpt>
      <trkpt lat="48.25377" lon="-3.53942">
        <ele>93.7</ele>
        <time>2022-06-12T09:49:32Z</time>
      </trkpt>
      <trkpt lat="48.25378" lon="-3.53941">
        <ele>93.8</ele>
        <time>2022-06-12T09:49:33Z</time>
      </trkpt>
      <trkpt lat="48.25379" lon="-3.53941">
        <ele>93.8</ele>
        <time>2022-06-12T09:49:35Z</time>
      </trkpt>
      <trkpt lat="48.25381" lon="-3.53938">
        <ele>93.8</ele>
        <time>2022-06-12T09:49:36Z</time>
      </trkpt>
      <trkpt lat="48.25382" lon="-3.53937">
        <ele>93.9</ele>
        <time>2022-06-12T09:49:37Z</time>
      </trkpt>
      <trkpt lat="48.25383" lon="-3.53935">
        <ele>93.9</ele>
        <time>2022-06-12T09:49:39Z</time>
      </trkpt>
      <trkpt lat="48.25384" lon="-3.53934">
        <ele>94</ele>
        <time>2022-06-12T09:49:40Z</time>
      </trkpt>
      <trkpt lat="48.25384" lon="-3.53933">
        <ele>94</ele>
        <time>2022-06-12T09:49:41Z</time>
      </trkpt>
      <trkpt lat="48.25385" lon="-3.53931">
        <ele>94</ele>
        <time>2022-06-12T09:49:42Z</time>
      </trkpt>
      <trkpt lat="48.25386" lon="-3.5393">
        <ele>94.1</ele>
        <time>2022-06-12T09:49:43Z</time>
      </trkpt>
      <trkpt lat="48.25387" lon="-3.53929">
        <ele>94.1</ele>
        <time>2022-06-12T09:49:45Z</time>
      </trkpt>
      <trkpt lat="48.25387" lon="-3.53928">
        <ele>94.1</ele>
        <time>2022-06-12T09:49:46Z</time>
      </trkpt>
      <trkpt lat="48.25389" lon="-3.53926">
        <ele>94.2</ele>
        <time>2022-06-12T09:49:47Z</time>
      </trkpt>
      <trkpt lat="48.25389" lon="-3.53925">
        <ele>94.2</ele>
        <time>2022-06-12T09:49:48Z</time>
      </trkpt>
      <trkpt lat="48.2539" lon="-3.53924">
        <ele>94.2</ele>
        <time>2022-06-12T09:49:49Z</time>
      </trkpt>
      <trkpt lat="48.25391" lon="-3.53923">
        <ele>94.3</ele>
        <time>2022-06-12T09:49:50Z</time>
      </trkpt>
      <trkpt lat="48.25393" lon="-3.53922">
        <ele>94.3</ele>
        <time>2022-06-12T09:49:52Z</time>
      </trkpt>
      <trkpt lat="48.25393" lon="-3.53922">
        <ele>94.3</ele>
        <time>2022-06-12T09:49:53Z</time>
      </trkpt>
      <trkpt lat="48.25394" lon="-3.53921">
        <ele>94.3</ele>
        <time>2022-06-12T09:49:54Z</time>
      </trkpt>
      <trkpt lat="48.25395" lon="-3.53921">
        <ele>94.4</ele>
        <time>2022-06-12T09:49:55Z</time>
      </trkpt>
      <trkpt lat="48.25397" lon="-3.5392">
        <ele>94.4</ele>
        <time>2022-06-12T09:49:56Z</time>
      </trkpt>
      <trkpt lat="48.25397" lon="-3.53919">
        <ele>94.4</ele>
        <time>2022-06-12T09:49:57Z</time>
      </trkpt>
      <trkpt lat="48.25398" lon="-3.53919">
        <ele>94.4</ele>
        <time>2022-06-12T09:49:59Z</time>
      </trkpt>
      <trkpt lat="48.25399" lon="-3.53918">
        <ele>94.5</ele>
        <time>2022-06-12T09:50:00Z</time>
      </trkpt>
      <trkpt lat="48.254" lon="-3.53917">
        <ele>94.5</ele>
        <time>2022-06-12T09:50:01Z</time>
      </trkpt>
      <trkpt lat="48.25401" lon="-3.53914">
        <ele>94.5</ele>
        <time>2022-06-12T09:50:02Z</time>
      </trkpt>
      <trkpt lat="48.25402" lon="-3.53913">
        <ele>94.5</ele>
        <time>2022-06-12T09:50:03Z</time>
      </trkpt>
      <trkpt lat="48.25402" lon="-3.53912">
        <ele>94.6</ele>
        <time>2022-06-12T09:50:04Z</time>
      </trkpt>
      <trkpt lat="48.25403" lon="-3.53911">
        <ele>94.6</ele>
        <time>2022-06-12T09:50:05Z</time>
      </trkpt>
      <trkpt lat="48.25405" lon="-3.53908">
        <ele>94.6</ele>
        <time>2022-06-12T09:50:07Z</time>
      </trkpt>
      <trkpt lat="48.25405" lon="-3.53907">
        <ele>94.6</ele>
        <time>2022-06-12T09:50:08Z</time>
      </trkpt>
      <trkpt lat="48.25406" lon="-3.53906">
        <ele>94.6</ele>
        <time>2022-06-12T09:50:09Z</time>
      </trkpt>
      <trkpt lat="48.25406" lon="-3.53905">
        <ele>94.7</ele>
        <time>2022-06-12T09:50:10Z</time>
      </trkpt>
      <trkpt lat="48.25408" lon="-3.53903">
        <ele>94.7</ele>
        <time>2022-06-12T09:50:11Z</time>
      </trkpt>
      <trkpt lat="48.25409" lon="-3.53902">
        <ele>94.7</ele>
        <time>2022-06-12T09:50:12Z</time>
      </trkpt>
      <trkpt lat="48.25409" lon="-3.539">
        <ele>94.7</ele>
        <time>2022-06-12T09:50:13Z</time>
      </trkpt>
      <trkpt lat="48.2541" lon="-3.53899">
        <ele>94.7</ele>
        <time>2022-06-12T09:50:15Z</time>
      </trkpt>
      <trkpt lat="48.2541" lon="-3.53897">
        <ele>94.7</ele>
        <time>2022-06-12T09:50:16Z</time>
      </trkpt>
      <trkpt lat="48.25411" lon="-3.53895">
        <ele>94.8</ele>
        <time>2022-06-12T09:50:17Z</time>
      </trkpt>
      <trkpt lat="48.25411" lon="-3.53894">
        <ele>94.8</ele>
        <time>2022-06-12T09:50:18Z</time>
      </trkpt>
      <trkpt lat="48.25411" lon="-3.53891">
        <ele>94.8</ele>
        <time>2022-06-12T09:50:20Z</time>
      </trkpt>
      <trkpt lat="48.25411" lon="-3.5389">
        <ele>94.8</ele>
        <time>2022-06-12T09:50:21Z</time>
      </trkpt>
      <trkpt lat="48.25411" lon="-3.53888">
        <ele>94.8</ele>
        <time>2022-06-12T09:50:22Z</time>
      </trkpt>
      <trkpt lat="48.2541" lon="-3.53888">
        <ele>94.8</ele>
        <time>2022-06-12T09:50:23Z</time>
      </trkpt>
      <trkpt lat="48.2541" lon="-3.53888">
        <ele>94.8</ele>
        <time>2022-06-12T09:50:24Z</time>
      </trkpt>
      <trkpt lat="48.2541" lon="-3.53888">
        <ele>94.8</ele>
        <time>2022-06-12T09:50:25Z</time>
      </trkpt>
      <trkpt lat="48.2541" lon="-3.53888">
        <ele>94.8</ele>
        <time>2022-06-12T09:50:26Z</time>
      </trkpt>
      <trkpt lat="48.2541" lon="-3.53888">
        <ele>94.8</ele>
        <time>2022-06-12T09:50:27Z</time>
      </trkpt>
      <trkpt lat="48.2541" lon="-3.53888">
        <ele>94.8</ele>
        <time>2022-06-12T09:50:29Z</time>
      </trkpt>
      <trkpt lat="48.2541" lon="-3.53888">
        <ele>94.8</ele>
        <time>2022-06-12T09:50:30Z</time>
      </trkpt>
      <trkpt lat="48.2541" lon="-3.53887">
        <ele>94.8</ele>
        <time>2022-06-12T09:50:31Z</time>
      </trkpt>
      <trkpt lat="48.25409" lon="-3.53887">
        <ele>94.8</ele>
        <time>2022-06-12T09:50:32Z</time>
      </trkpt>
      <trkpt lat="48.25408" lon="-3.53886">
        <ele>94.8</ele>
        <time>2022-06-12T09:50:33Z</time>
      </trkpt>
      <trkpt lat="48.25407" lon="-3.53885">
        <ele>94.8</ele>
        <time>2022-06-12T09:50:34Z</time>
      </trkpt>
      <trkpt lat="48.25406" lon="-3.53884">
        <ele>94.8</ele>
        <time>2022-06-12T09:50:36Z</time>
      </trkpt>
      <trkpt lat="48.25405" lon="-3.53882">
        <ele>94.8</ele>
        <time>2022-06-12T09:50:37Z</time>
      </trkpt>
      <trkpt lat="48.25404" lon="-3.53882">
        <ele>94.8</ele>
        <time>2022-06-12T09:50:38Z</time>
      </trkpt>
      <trkpt lat="48.25403" lon="-3.53882">
        <ele>94.8</ele>
        <time>2022-06-12T09:50:39Z</time>
      </trkpt>
      <trkpt lat="48.25402" lon="-3.53882">
        <ele>94.8</ele>
        <time>2022-06-12T09:50:41Z</time>
      </trkpt>
      <trkpt lat="48.25401" lon="-3.53883">
        <ele>94.9</ele>
        <time>2022-06-12T09:50:42Z</time>
      </trkpt>
      <trkpt lat="48.254" lon="-3.53883">
        <ele>94.9</ele>
        <time>2022-06-12T09:50:43Z</time>
      </trkpt>
      <trkpt lat="48.254" lon="-3.53883">
        <ele>94.9</ele>
        <time>2022-06-12T09:50:44Z</time>
      </trkpt>
      <trkpt lat="48.25399" lon="-3.53883">
        <ele>94.9</ele>
        <time>2022-06-12T09:50:45Z</time>
      </trkpt>
      <trkpt lat="48.25399" lon="-3.53883">
        <ele>94.9</ele>
        <time>2022-06-12T09:50:46Z</time>
      </trkpt>
      <trkpt lat="48.254" lon="-3.53884">
        <ele>94.9</ele>
        <time>2022-06-12T09:50:47Z</time>
      </trkpt>
      <trkpt lat="48.254" lon="-3.53884">
        <ele>94.9</ele>
        <time>2022-06-12T09:50:48Z</time>
      </trkpt>
      <trkpt lat="48.254" lon="-3.53884">
        <ele>94.9</ele>
        <time>2022-06-12T09:50:49Z</time>
      </trkpt>
      <trkpt lat="48.254" lon="-3.53884">
        <ele>94.9</ele>
        <time>2022-06-12T09:50:50Z</time>
      </trkpt>
      <trkpt lat="48.254" lon="-3.53884">
        <ele>94.9</ele>
        <time>2022-06-12T09:50:51Z</time>
      </trkpt>
      <trkpt lat="48.254" lon="-3.53884">
        <ele>94.9</ele>
        <time>2022-06-12T09:50:52Z</time>
      </trkpt>
      <trkpt lat="48.254" lon="-3.53885">
        <ele>94.9</ele>
        <time>2022-06-12T09:50:53Z</time>
      </trkpt>
      <trkpt lat="48.254" lon="-3.53885">
        <ele>94.9</ele>
        <time>2022-06-12T09:50:54Z</time>
      </trkpt>
      <trkpt lat="48.254" lon="-3.53885">
        <ele>94.9</ele>
        <time>2022-06-12T09:50:55Z</time>
      </trkpt>
      <trkpt lat="48.254" lon="-3.53885">
        <ele>94.9</ele>
        <time>2022-06-12T09:50:56Z</time>
      </trkpt>
      <trkpt lat="48.254" lon="-3.53885">
        <ele>94.9</ele>
        <time>2022-06-12T09:50:57Z</time>
      </trkpt>
      <trkpt lat="48.254" lon="-3.53885">
        <ele>94.9</ele>
        <time>2022-06-12T09:50:58Z</time>
      </trkpt>
      <trkpt lat="48.254" lon="-3.53885">
        <ele>94.9</ele>
        <time>2022-06-12T09:50:59Z</time>
      </trkpt>
      <trkpt lat="48.254" lon="-3.53885">
        <ele>94.9</ele>
        <time>2022-06-12T09:51:00Z</time>
      </trkpt>
      <trkpt lat="48.254" lon="-3.53885">
        <ele>94.9</ele>
        <time>2022-06-12T09:51:01Z</time>
      </trkpt>
      <trkpt lat="48.25401" lon="-3.53885">
        <ele>94.9</ele>
        <time>2022-06-12T09:51:02Z</time>
      </trkpt>
      <trkpt lat="48.25402" lon="-3.53885">
        <ele>94.9</ele>
        <time>2022-06-12T09:51:03Z</time>
      </trkpt>
      <trkpt lat="48.25402" lon="-3.53885">
        <ele>94.9</ele>
        <time>2022-06-12T09:51:04Z</time>
      </trkpt>
      <trkpt lat="48.25403" lon="-3.53886">
        <ele>94.9</ele>
        <time>2022-06-12T09:51:06Z</time>
      </trkpt>
      <trkpt lat="48.25405" lon="-3.53888">
        <ele>94.9</ele>
        <time>2022-06-12T09:51:07Z</time>
      </trkpt>
      <trkpt lat="48.25407" lon="-3.53891">
        <ele>94.9</ele>
        <time>2022-06-12T09:51:08Z</time>
      </trkpt>
      <trkpt lat="48.25408" lon="-3.53893">
        <ele>94.9</ele>
        <time>2022-06-12T09:51:09Z</time>
      </trkpt>
      <trkpt lat="48.2541" lon="-3.53893">
        <ele>94.9</ele>
        <time>2022-06-12T09:51:10Z</time>
      </trkpt>
      <trkpt lat="48.25411" lon="-3.53893">
        <ele>94.9</ele>
        <time>2022-06-12T09:51:11Z</time>
      </trkpt>
      <trkpt lat="48.25413" lon="-3.53892">
        <ele>94.9</ele>
        <time>2022-06-12T09:51:13Z</time>
      </trkpt>
      <trkpt lat="48.25414" lon="-3.53891">
        <ele>94.9</ele>
        <time>2022-06-12T09:51:14Z</time>
      </trkpt>
      <trkpt lat="48.25415" lon="-3.5389">
        <ele>94.9</ele>
        <time>2022-06-12T09:51:15Z</time>
      </trkpt>
      <trkpt lat="48.25416" lon="-3.53889">
        <ele>94.9</ele>
        <time>2022-06-12T09:51:16Z</time>
      </trkpt>
      <trkpt lat="48.25418" lon="-3.53888">
        <ele>94.9</ele>
        <time>2022-06-12T09:51:17Z</time>
      </trkpt>
      <trkpt lat="48.25419" lon="-3.53887">
        <ele>94.9</ele>
        <time>2022-06-12T09:51:18Z</time>
      </trkpt>
      <trkpt lat="48.2542" lon="-3.53886">
        <ele>94.9</ele>
        <time>2022-06-12T09:51:19Z</time>
      </trkpt>
      <trkpt lat="48.25421" lon="-3.53885">
        <ele>94.9</ele>
        <time>2022-06-12T09:51:20Z</time>
      </trkpt>
      <trkpt lat="48.25423" lon="-3.53884">
        <ele>94.9</ele>
        <time>2022-06-12T09:51:22Z</time>
      </trkpt>
      <trkpt lat="48.25424" lon="-3.53883">
        <ele>94.9</ele>
        <time>2022-06-12T09:51:23Z</time>
      </trkpt>
      <trkpt lat="48.25426" lon="-3.53882">
        <ele>94.9</ele>
        <time>2022-06-12T09:51:24Z</time>
      </trkpt>
      <trkpt lat="48.25426" lon="-3.53881">
        <ele>94.8</ele>
        <time>2022-06-12T09:51:25Z</time>
      </trkpt>
      <trkpt lat="48.25427" lon="-3.5388">
        <ele>94.8</ele>
        <time>2022-06-12T09:51:26Z</time>
      </trkpt>
      <trkpt lat="48.25429" lon="-3.53879">
        <ele>94.8</ele>
        <time>2022-06-12T09:51:27Z</time>
      </trkpt>
      <trkpt lat="48.25429" lon="-3.53878">
        <ele>94.8</ele>
        <time>2022-06-12T09:51:28Z</time>
      </trkpt>
      <trkpt lat="48.2543" lon="-3.53877">
        <ele>94.8</ele>
        <time>2022-06-12T09:51:29Z</time>
      </trkpt>
      <trkpt lat="48.25431" lon="-3.53876">
        <ele>94.8</ele>
        <time>2022-06-12T09:51:31Z</time>
      </trkpt>
      <trkpt lat="48.25432" lon="-3.53874">
        <ele>94.8</ele>
        <time>2022-06-12T09:51:32Z</time>
      </trkpt>
      <trkpt lat="48.25433" lon="-3.53873">
        <ele>94.8</ele>
        <time>2022-06-12T09:51:33Z</time>
      </trkpt>
      <trkpt lat="48.25434" lon="-3.53871">
        <ele>94.8</ele>
        <time>2022-06-12T09:51:34Z</time>
      </trkpt>
      <trkpt lat="48.25435" lon="-3.53869">
        <ele>94.9</ele>
        <time>2022-06-12T09:51:35Z</time>
      </trkpt>
      <trkpt lat="48.25435" lon="-3.53867">
        <ele>94.9</ele>
        <time>2022-06-12T09:51:36Z</time>
      </trkpt>
      <trkpt lat="48.25436" lon="-3.53865">
        <ele>94.9</ele>
        <time>2022-06-12T09:51:37Z</time>
      </trkpt>
      <trkpt lat="48.25437" lon="-3.53864">
        <ele>94.9</ele>
        <time>2022-06-12T09:51:38Z</time>
      </trkpt>
      <trkpt lat="48.25438" lon="-3.53863">
        <ele>94.9</ele>
        <time>2022-06-12T09:51:39Z</time>
      </trkpt>
      <trkpt lat="48.25439" lon="-3.53862">
        <ele>94.9</ele>
        <time>2022-06-12T09:51:41Z</time>
      </trkpt>
      <trkpt lat="48.25439" lon="-3.53861">
        <ele>94.9</ele>
        <time>2022-06-12T09:51:42Z</time>
      </trkpt>
      <trkpt lat="48.2544" lon="-3.5386">
        <ele>94.9</ele>
        <time>2022-06-12T09:51:43Z</time>
      </trkpt>
      <trkpt lat="48.2544" lon="-3.53859">
        <ele>94.9</ele>
        <time>2022-06-12T09:51:44Z</time>
      </trkpt>
      <trkpt lat="48.25441" lon="-3.53858">
        <ele>94.9</ele>
        <time>2022-06-12T09:51:45Z</time>
      </trkpt>
      <trkpt lat="48.25442" lon="-3.53856">
        <ele>94.9</ele>
        <time>2022-06-12T09:51:46Z</time>
      </trkpt>
      <trkpt lat="48.25443" lon="-3.53852">
        <ele>94.9</ele>
        <time>2022-06-12T09:51:47Z</time>
      </trkpt>
      <trkpt lat="48.25444" lon="-3.53851">
        <ele>94.9</ele>
        <time>2022-06-12T09:51:49Z</time>
      </trkpt>
      <trkpt lat="48.25445" lon="-3.5385">
        <ele>94.9</ele>
        <time>2022-06-12T09:51:50Z</time>
      </trkpt>
      <trkpt lat="48.25445" lon="-3.53848">
        <ele>94.9</ele>
        <time>2022-06-12T09:51:51Z</time>
      </trkpt>
      <trkpt lat="48.25446" lon="-3.53847">
        <ele>94.9</ele>
        <time>2022-06-12T09:51:52Z</time>
      </trkpt>
      <trkpt lat="48.25447" lon="-3.53845">
        <ele>94.9</ele>
        <time>2022-06-12T09:51:53Z</time>
      </trkpt>
      <trkpt lat="48.25448" lon="-3.53844">
        <ele>94.9</ele>
        <time>2022-06-12T09:51:54Z</time>
      </trkpt>
      <trkpt lat="48.25448" lon="-3.53843">
        <ele>94.9</ele>
        <time>2022-06-12T09:51:55Z</time>
      </trkpt>
      <trkpt lat="48.25449" lon="-3.53842">
        <ele>94.9</ele>
        <time>2022-06-12T09:51:57Z</time>
      </trkpt>
      <trkpt lat="48.2545" lon="-3.53841">
        <ele>94.9</ele>
        <time>2022-06-12T09:51:58Z</time>
      </trkpt>
      <trkpt lat="48.25451" lon="-3.5384">
        <ele>94.9</ele>
        <time>2022-06-12T09:51:59Z</time>
      </trkpt>
      <trkpt lat="48.25451" lon="-3.53839">
        <ele>94.9</ele>
        <time>2022-06-12T09:52:00Z</time>
      </trkpt>
      <trkpt lat="48.25452" lon="-3.5384">
        <ele>94.9</ele>
        <time>2022-06-12T09:52:01Z</time>
      </trkpt>
      <trkpt lat="48.25453" lon="-3.5384">
        <ele>94.9</ele>
        <time>2022-06-12T09:52:02Z</time>
      </trkpt>
      <trkpt lat="48.25453" lon="-3.53841">
        <ele>94.9</ele>
        <time>2022-06-12T09:52:03Z</time>
      </trkpt>
      <trkpt lat="48.25453" lon="-3.53841">
        <ele>94.9</ele>
        <time>2022-06-12T09:52:04Z</time>
      </trkpt>
      <trkpt lat="48.25453" lon="-3.53842">
        <ele>94.9</ele>
        <time>2022-06-12T09:52:05Z</time>
      </trkpt>
      <trkpt lat="48.25452" lon="-3.53842">
        <ele>94.9</ele>
        <time>2022-06-12T09:52:06Z</time>
      </trkpt>
      <trkpt lat="48.25452" lon="-3.53842">
        <ele>94.9</ele>
        <time>2022-06-12T09:52:07Z</time>
      </trkpt>
      <trkpt lat="48.25453" lon="-3.53841">
        <ele>94.9</ele>
        <time>2022-06-12T09:52:09Z</time>
      </trkpt>
      <trkpt lat="48.25453" lon="-3.53841">
        <ele>94.9</ele>
        <time>2022-06-12T09:52:10Z</time>
      </trkpt>
      <trkpt lat="48.25454" lon="-3.53839">
        <ele>94.9</ele>
        <time>2022-06-12T09:52:11Z</time>
      </trkpt>
      <trkpt lat="48.25454" lon="-3.53839">
        <ele>94.9</ele>
        <time>2022-06-12T09:52:13Z</time>
      </trkpt>
      <trkpt lat="48.25455" lon="-3.53837">
        <ele>94.9</ele>
        <time>2022-06-12T09:52:14Z</time>
      </trkpt>
      <trkpt lat="48.25456" lon="-3.53836">
        <ele>94.9</ele>
        <time>2022-06-12T09:52:15Z</time>
      </trkpt>
      <trkpt lat="48.25458" lon="-3.53833">
        <ele>94.9</ele>
        <time>2022-06-12T09:52:16Z</time>
      </trkpt>
      <trkpt lat="48.25459" lon="-3.53831">
        <ele>94.9</ele>
        <time>2022-06-12T09:52:18Z</time>
      </trkpt>
      <trkpt lat="48.2546" lon="-3.5383">
        <ele>94.9</ele>
        <time>2022-06-12T09:52:19Z</time>
      </trkpt>
      <trkpt lat="48.25461" lon="-3.53828">
        <ele>94.9</ele>
        <time>2022-06-12T09:52:20Z</time>
      </trkpt>
      <trkpt lat="48.25462" lon="-3.53826">
        <ele>94.9</ele>
        <time>2022-06-12T09:52:21Z</time>
      </trkpt>
      <trkpt lat="48.25463" lon="-3.53823">
        <ele>94.9</ele>
        <time>2022-06-12T09:52:22Z</time>
      </trkpt>
      <trkpt lat="48.25464" lon="-3.53821">
        <ele>94.9</ele>
        <time>2022-06-12T09:52:23Z</time>
      </trkpt>
      <trkpt lat="48.25465" lon="-3.5382">
        <ele>94.9</ele>
        <time>2022-06-12T09:52:24Z</time>
      </trkpt>
      <trkpt lat="48.25466" lon="-3.53818">
        <ele>94.9</ele>
        <time>2022-06-12T09:52:25Z</time>
      </trkpt>
      <trkpt lat="48.25468" lon="-3.53816">
        <ele>94.9</ele>
        <time>2022-06-12T09:52:26Z</time>
      </trkpt>
      <trkpt lat="48.25468" lon="-3.53815">
        <ele>94.9</ele>
        <time>2022-06-12T09:52:27Z</time>
      </trkpt>
      <trkpt lat="48.2547" lon="-3.53813">
        <ele>94.9</ele>
        <time>2022-06-12T09:52:28Z</time>
      </trkpt>
      <trkpt lat="48.25471" lon="-3.53812">
        <ele>94.9</ele>
        <time>2022-06-12T09:52:30Z</time>
      </trkpt>
      <trkpt lat="48.25471" lon="-3.53811">
        <ele>94.9</ele>
        <time>2022-06-12T09:52:31Z</time>
      </trkpt>
      <trkpt lat="48.25473" lon="-3.53809">
        <ele>94.9</ele>
        <time>2022-06-12T09:52:32Z</time>
      </trkpt>
      <trkpt lat="48.25473" lon="-3.53808">
        <ele>94.9</ele>
        <time>2022-06-12T09:52:33Z</time>
      </trkpt>
      <trkpt lat="48.25474" lon="-3.53806">
        <ele>94.9</ele>
        <time>2022-06-12T09:52:34Z</time>
      </trkpt>
      <trkpt lat="48.25475" lon="-3.53805">
        <ele>94.9</ele>
        <time>2022-06-12T09:52:35Z</time>
      </trkpt>
      <trkpt lat="48.25477" lon="-3.53803">
        <ele>94.9</ele>
        <time>2022-06-12T09:52:36Z</time>
      </trkpt>
      <trkpt lat="48.25477" lon="-3.53802">
        <ele>94.9</ele>
        <time>2022-06-12T09:52:37Z</time>
      </trkpt>
      <trkpt lat="48.25478" lon="-3.53801">
        <ele>94.9</ele>
        <time>2022-06-12T09:52:38Z</time>
      </trkpt>
      <trkpt lat="48.25479" lon="-3.538">
        <ele>94.9</ele>
        <time>2022-06-12T09:52:39Z</time>
      </trkpt>
      <trkpt lat="48.2548" lon="-3.53798">
        <ele>94.9</ele>
        <time>2022-06-12T09:52:41Z</time>
      </trkpt>
      <trkpt lat="48.25482" lon="-3.53797">
        <ele>94.9</ele>
        <time>2022-06-12T09:52:42Z</time>
      </trkpt>
      <trkpt lat="48.25482" lon="-3.53796">
        <ele>94.9</ele>
        <time>2022-06-12T09:52:43Z</time>
      </trkpt>
      <trkpt lat="48.25484" lon="-3.53794">
        <ele>94.9</ele>
        <time>2022-06-12T09:52:44Z</time>
      </trkpt>
      <trkpt lat="48.25485" lon="-3.53793">
        <ele>94.9</ele>
        <time>2022-06-12T09:52:45Z</time>
      </trkpt>
      <trkpt lat="48.25485" lon="-3.53792">
        <ele>94.9</ele>
        <time>2022-06-12T09:52:46Z</time>
      </trkpt>
      <trkpt lat="48.25487" lon="-3.5379">
        <ele>94.9</ele>
        <time>2022-06-12T09:52:47Z</time>
      </trkpt>
      <trkpt lat="48.25488" lon="-3.53789">
        <ele>94.9</ele>
        <time>2022-06-12T09:52:48Z</time>
      </trkpt>
      <trkpt lat="48.25489" lon="-3.53787">
        <ele>94.9</ele>
        <time>2022-06-12T09:52:49Z</time>
      </trkpt>
      <trkpt lat="48.2549" lon="-3.53786">
        <ele>94.9</ele>
        <time>2022-06-12T09:52:51Z</time>
      </trkpt>
      <trkpt lat="48.2549" lon="-3.53785">
        <ele>94.9</ele>
        <time>2022-06-12T09:52:52Z</time>
      </trkpt>
      <trkpt lat="48.25491" lon="-3.53784">
        <ele>94.9</ele>
        <time>2022-06-12T09:52:53Z</time>
      </trkpt>
      <trkpt lat="48.25492" lon="-3.53783">
        <ele>94.9</ele>
        <time>2022-06-12T09:52:54Z</time>
      </trkpt>
      <trkpt lat="48.25493" lon="-3.53782">
        <ele>94.9</ele>
        <time>2022-06-12T09:52:55Z</time>
      </trkpt>
      <trkpt lat="48.25494" lon="-3.53781">
        <ele>95</ele>
        <time>2022-06-12T09:52:56Z</time>
      </trkpt>
      <trkpt lat="48.25495" lon="-3.5378">
        <ele>95</ele>
        <time>2022-06-12T09:52:57Z</time>
      </trkpt>
      <trkpt lat="48.25495" lon="-3.53779">
        <ele>95</ele>
        <time>2022-06-12T09:52:58Z</time>
      </trkpt>
      <trkpt lat="48.25496" lon="-3.53778">
        <ele>95</ele>
        <time>2022-06-12T09:52:59Z</time>
      </trkpt>
      <trkpt lat="48.25497" lon="-3.53776">
        <ele>95</ele>
        <time>2022-06-12T09:53:00Z</time>
      </trkpt>
      <trkpt lat="48.25498" lon="-3.53775">
        <ele>95</ele>
        <time>2022-06-12T09:53:01Z</time>
      </trkpt>
      <trkpt lat="48.25498" lon="-3.53774">
        <ele>95</ele>
        <time>2022-06-12T09:53:03Z</time>
      </trkpt>
      <trkpt lat="48.25499" lon="-3.53773">
        <ele>95</ele>
        <time>2022-06-12T09:53:04Z</time>
      </trkpt>
      <trkpt lat="48.25499" lon="-3.53771">
        <ele>95</ele>
        <time>2022-06-12T09:53:05Z</time>
      </trkpt>
      <trkpt lat="48.255" lon="-3.5377">
        <ele>95</ele>
        <time>2022-06-12T09:53:06Z</time>
      </trkpt>
      <trkpt lat="48.25501" lon="-3.53769">
        <ele>95</ele>
        <time>2022-06-12T09:53:07Z</time>
      </trkpt>
      <trkpt lat="48.25502" lon="-3.53768">
        <ele>95</ele>
        <time>2022-06-12T09:53:08Z</time>
      </trkpt>
      <trkpt lat="48.25504" lon="-3.53766">
        <ele>95</ele>
        <time>2022-06-12T09:53:09Z</time>
      </trkpt>
      <trkpt lat="48.25505" lon="-3.53765">
        <ele>95.1</ele>
        <time>2022-06-12T09:53:10Z</time>
      </trkpt>
      <trkpt lat="48.25506" lon="-3.53764">
        <ele>95.1</ele>
        <time>2022-06-12T09:53:11Z</time>
      </trkpt>
      <trkpt lat="48.25507" lon="-3.53762">
        <ele>95.1</ele>
        <time>2022-06-12T09:53:13Z</time>
      </trkpt>
      <trkpt lat="48.25509" lon="-3.53761">
        <ele>95.1</ele>
        <time>2022-06-12T09:53:14Z</time>
      </trkpt>
      <trkpt lat="48.2551" lon="-3.53759">
        <ele>95.1</ele>
        <time>2022-06-12T09:53:15Z</time>
      </trkpt>
      <trkpt lat="48.25511" lon="-3.53758">
        <ele>95.1</ele>
        <time>2022-06-12T09:53:16Z</time>
      </trkpt>
      <trkpt lat="48.25512" lon="-3.53757">
        <ele>95.1</ele>
        <time>2022-06-12T09:53:17Z</time>
      </trkpt>
      <trkpt lat="48.25513" lon="-3.53755">
        <ele>95.1</ele>
        <time>2022-06-12T09:53:18Z</time>
      </trkpt>
      <trkpt lat="48.25515" lon="-3.53753">
        <ele>95.2</ele>
        <time>2022-06-12T09:53:19Z</time>
      </trkpt>
      <trkpt lat="48.25516" lon="-3.53752">
        <ele>95.2</ele>
        <time>2022-06-12T09:53:20Z</time>
      </trkpt>
      <trkpt lat="48.25516" lon="-3.53752">
        <ele>95.2</ele>
        <time>2022-06-12T09:53:21Z</time>
      </trkpt>
      <trkpt lat="48.25517" lon="-3.53751">
        <ele>95.2</ele>
        <time>2022-06-12T09:53:22Z</time>
      </trkpt>
      <trkpt lat="48.25518" lon="-3.5375">
        <ele>95.2</ele>
        <time>2022-06-12T09:53:24Z</time>
      </trkpt>
      <trkpt lat="48.25519" lon="-3.53749">
        <ele>95.2</ele>
        <time>2022-06-12T09:53:25Z</time>
      </trkpt>
      <trkpt lat="48.25521" lon="-3.53747">
        <ele>95.3</ele>
        <time>2022-06-12T09:53:26Z</time>
      </trkpt>
      <trkpt lat="48.25522" lon="-3.53746">
        <ele>95.3</ele>
        <time>2022-06-12T09:53:27Z</time>
      </trkpt>
      <trkpt lat="48.25522" lon="-3.53745">
        <ele>95.3</ele>
        <time>2022-06-12T09:53:28Z</time>
      </trkpt>
      <trkpt lat="48.25523" lon="-3.53744">
        <ele>95.3</ele>
        <time>2022-06-12T09:53:29Z</time>
      </trkpt>
      <trkpt lat="48.25524" lon="-3.53742">
        <ele>95.4</ele>
        <time>2022-06-12T09:53:30Z</time>
      </trkpt>
      <trkpt lat="48.25525" lon="-3.5374">
        <ele>95.4</ele>
        <time>2022-06-12T09:53:31Z</time>
      </trkpt>
      <trkpt lat="48.25527" lon="-3.53739">
        <ele>95.4</ele>
        <time>2022-06-12T09:53:32Z</time>
      </trkpt>
      <trkpt lat="48.25528" lon="-3.53737">
        <ele>95.5</ele>
        <time>2022-06-12T09:53:33Z</time>
      </trkpt>
      <trkpt lat="48.25529" lon="-3.53736">
        <ele>95.5</ele>
        <time>2022-06-12T09:53:35Z</time>
      </trkpt>
      <trkpt lat="48.2553" lon="-3.53734">
        <ele>95.6</ele>
        <time>2022-06-12T09:53:36Z</time>
      </trkpt>
      <trkpt lat="48.25531" lon="-3.53733">
        <ele>95.6</ele>
        <time>2022-06-12T09:53:37Z</time>
      </trkpt>
      <trkpt lat="48.25532" lon="-3.53732">
        <ele>95.6</ele>
        <time>2022-06-12T09:53:38Z</time>
      </trkpt>
      <trkpt lat="48.25533" lon="-3.5373">
        <ele>95.7</ele>
        <time>2022-06-12T09:53:39Z</time>
      </trkpt>
      <trkpt lat="48.25535" lon="-3.53729">
        <ele>95.8</ele>
        <time>2022-06-12T09:53:40Z</time>
      </trkpt>
      <trkpt lat="48.25536" lon="-3.53728">
        <ele>95.8</ele>
        <time>2022-06-12T09:53:41Z</time>
      </trkpt>
      <trkpt lat="48.25536" lon="-3.53727">
        <ele>95.8</ele>
        <time>2022-06-12T09:53:42Z</time>
      </trkpt>
      <trkpt lat="48.25537" lon="-3.53726">
        <ele>95.9</ele>
        <time>2022-06-12T09:53:43Z</time>
      </trkpt>
      <trkpt lat="48.25538" lon="-3.53725">
        <ele>95.9</ele>
        <time>2022-06-12T09:53:45Z</time>
      </trkpt>
      <trkpt lat="48.25538" lon="-3.53724">
        <ele>95.9</ele>
        <time>2022-06-12T09:53:46Z</time>
      </trkpt>
      <trkpt lat="48.25539" lon="-3.53723">
        <ele>96</ele>
        <time>2022-06-12T09:53:47Z</time>
      </trkpt>
      <trkpt lat="48.25538" lon="-3.53723">
        <ele>96</ele>
        <time>2022-06-12T09:53:48Z</time>
      </trkpt>
      <trkpt lat="48.25537" lon="-3.53722">
        <ele>96.1</ele>
        <time>2022-06-12T09:53:49Z</time>
      </trkpt>
      <trkpt lat="48.25537" lon="-3.53721">
        <ele>96.1</ele>
        <time>2022-06-12T09:53:50Z</time>
      </trkpt>
      <trkpt lat="48.25539" lon="-3.5372">
        <ele>96.2</ele>
        <time>2022-06-12T09:53:51Z</time>
      </trkpt>
      <trkpt lat="48.25539" lon="-3.53719">
        <ele>96.2</ele>
        <time>2022-06-12T09:53:52Z</time>
      </trkpt>
      <trkpt lat="48.25541" lon="-3.53717">
        <ele>96.3</ele>
        <time>2022-06-12T09:53:53Z</time>
      </trkpt>
      <trkpt lat="48.25541" lon="-3.53717">
        <ele>96.4</ele>
        <time>2022-06-12T09:53:55Z</time>
      </trkpt>
      <trkpt lat="48.25542" lon="-3.53716">
        <ele>96.4</ele>
        <time>2022-06-12T09:53:56Z</time>
      </trkpt>
      <trkpt lat="48.25544" lon="-3.53714">
        <ele>96.5</ele>
        <time>2022-06-12T09:53:57Z</time>
      </trkpt>
      <trkpt lat="48.25544" lon="-3.53713">
        <ele>96.6</ele>
        <time>2022-06-12T09:53:58Z</time>
      </trkpt>
      <trkpt lat="48.25545" lon="-3.53712">
        <ele>96.6</ele>
        <time>2022-06-12T09:53:59Z</time>
      </trkpt>
      <trkpt lat="48.25546" lon="-3.53711">
        <ele>96.7</ele>
        <time>2022-06-12T09:54:00Z</time>
      </trkpt>
      <trkpt lat="48.25546" lon="-3.5371">
        <ele>96.7</ele>
        <time>2022-06-12T09:54:02Z</time>
      </trkpt>
      <trkpt lat="48.25547" lon="-3.53709">
        <ele>96.8</ele>
        <time>2022-06-12T09:54:03Z</time>
      </trkpt>
      <trkpt lat="48.25548" lon="-3.53708">
        <ele>96.8</ele>
        <time>2022-06-12T09:54:04Z</time>
      </trkpt>
      <trkpt lat="48.25549" lon="-3.53707">
        <ele>96.9</ele>
        <time>2022-06-12T09:54:05Z</time>
      </trkpt>
      <trkpt lat="48.2555" lon="-3.53706">
        <ele>96.9</ele>
        <time>2022-06-12T09:54:06Z</time>
      </trkpt>
      <trkpt lat="48.25551" lon="-3.53705">
        <ele>97</ele>
        <time>2022-06-12T09:54:07Z</time>
      </trkpt>
      <trkpt lat="48.25552" lon="-3.53704">
        <ele>97</ele>
        <time>2022-06-12T09:54:09Z</time>
      </trkpt>
      <trkpt lat="48.25553" lon="-3.53704">
        <ele>97.1</ele>
        <time>2022-06-12T09:54:10Z</time>
      </trkpt>
      <trkpt lat="48.25553" lon="-3.53702">
        <ele>97.1</ele>
        <time>2022-06-12T09:54:11Z</time>
      </trkpt>
      <trkpt lat="48.25554" lon="-3.53701">
        <ele>97.2</ele>
        <time>2022-06-12T09:54:12Z</time>
      </trkpt>
      <trkpt lat="48.25555" lon="-3.537">
        <ele>97.2</ele>
        <time>2022-06-12T09:54:13Z</time>
      </trkpt>
      <trkpt lat="48.25555" lon="-3.53698">
        <ele>97.1</ele>
        <time>2022-06-12T09:54:15Z</time>
      </trkpt>
      <trkpt lat="48.25555" lon="-3.53698">
        <ele>97.1</ele>
        <time>2022-06-12T09:54:16Z</time>
      </trkpt>
      <trkpt lat="48.25555" lon="-3.53698">
        <ele>97.1</ele>
        <time>2022-06-12T09:54:18Z</time>
      </trkpt>
      <trkpt lat="48.25555" lon="-3.53698">
        <ele>97.1</ele>
        <time>2022-06-12T09:54:19Z</time>
      </trkpt>
      <trkpt lat="48.25555" lon="-3.53698">
        <ele>97.1</ele>
        <time>2022-06-12T09:54:22Z</time>
      </trkpt>
      <trkpt lat="48.25555" lon="-3.53698">
        <ele>97.1</ele>
        <time>2022-06-12T09:54:23Z</time>
      </trkpt>
      <trkpt lat="48.25555" lon="-3.53698">
        <ele>97.1</ele>
        <time>2022-06-12T09:54:24Z</time>
      </trkpt>
      <trkpt lat="48.25555" lon="-3.53698">
        <ele>97.1</ele>
        <time>2022-06-12T09:54:25Z</time>
      </trkpt>
      <trkpt lat="48.25555" lon="-3.53698">
        <ele>97.1</ele>
        <time>2022-06-12T09:54:26Z</time>
      </trkpt>
      <trkpt lat="48.25555" lon="-3.53698">
        <ele>97.1</ele>
        <time>2022-06-12T09:54:27Z</time>
      </trkpt>
      <trkpt lat="48.25555" lon="-3.53698">
        <ele>97.1</ele>
        <time>2022-06-12T09:54:28Z</time>
      </trkpt>
      <trkpt lat="48.25555" lon="-3.53698">
        <ele>97.1</ele>
        <time>2022-06-12T09:54:29Z</time>
      </trkpt>
      <trkpt lat="48.25555" lon="-3.53698">
        <ele>97.1</ele>
        <time>2022-06-12T09:54:30Z</time>
      </trkpt>
      <trkpt lat="48.25555" lon="-3.53698">
        <ele>97.1</ele>
        <time>2022-06-12T09:54:32Z</time>
      </trkpt>
      <trkpt lat="48.25555" lon="-3.53698">
        <ele>97.1</ele>
        <time>2022-06-12T09:54:33Z</time>
      </trkpt>
      <trkpt lat="48.25555" lon="-3.53698">
        <ele>97.1</ele>
        <time>2022-06-12T09:54:34Z</time>
      </trkpt>
      <trkpt lat="48.25555" lon="-3.53698">
        <ele>97.1</ele>
        <time>2022-06-12T09:54:35Z</time>
      </trkpt>
      <trkpt lat="48.25555" lon="-3.53698">
        <ele>97.1</ele>
        <time>2022-06-12T09:54:37Z</time>
      </trkpt>
      <trkpt lat="48.25555" lon="-3.53698">
        <ele>97.1</ele>
        <time>2022-06-12T09:54:38Z</time>
      </trkpt>
      <trkpt lat="48.25555" lon="-3.53698">
        <ele>97.1</ele>
        <time>2022-06-12T09:54:39Z</time>
      </trkpt>
      <trkpt lat="48.25555" lon="-3.53698">
        <ele>97.1</ele>
        <time>2022-06-12T09:54:40Z</time>
      </trkpt>
      <trkpt lat="48.25555" lon="-3.53698">
        <ele>97.1</ele>
        <time>2022-06-12T09:54:41Z</time>
      </trkpt>
      <trkpt lat="48.25555" lon="-3.53698">
        <ele>97.1</ele>
        <time>2022-06-12T09:54:42Z</time>
      </trkpt>
      <trkpt lat="48.25555" lon="-3.53698">
        <ele>97.1</ele>
        <time>2022-06-12T09:54:43Z</time>
      </trkpt>
      <trkpt lat="48.25555" lon="-3.53698">
        <ele>97.1</ele>
        <time>2022-06-12T09:54:44Z</time>
      </trkpt>
      <trkpt lat="48.25555" lon="-3.53698">
        <ele>97.1</ele>
        <time>2022-06-12T09:54:45Z</time>
      </trkpt>
      <trkpt lat="48.25555" lon="-3.53698">
        <ele>97.1</ele>
        <time>2022-06-12T09:54:46Z</time>
      </trkpt>
      <trkpt lat="48.25555" lon="-3.53698">
        <ele>97.1</ele>
        <time>2022-06-12T09:54:47Z</time>
      </trkpt>
      <trkpt lat="48.25555" lon="-3.53698">
        <ele>97.1</ele>
        <time>2022-06-12T09:54:48Z</time>
      </trkpt>
      <trkpt lat="48.25555" lon="-3.53698">
        <ele>97.1</ele>
        <time>2022-06-12T09:54:49Z</time>
      </trkpt>
      <trkpt lat="48.25555" lon="-3.53698">
        <ele>97.1</ele>
        <time>2022-06-12T09:54:50Z</time>
      </trkpt>
      <trkpt lat="48.25555" lon="-3.53698">
        <ele>97.1</ele>
        <time>2022-06-12T09:54:51Z</time>
      </trkpt>
      <trkpt lat="48.25554" lon="-3.53698">
        <ele>97.1</ele>
        <time>2022-06-12T09:54:52Z</time>
      </trkpt>
      <trkpt lat="48.25554" lon="-3.53698">
        <ele>97.1</ele>
        <time>2022-06-12T09:54:53Z</time>
      </trkpt>
      <trkpt lat="48.25554" lon="-3.53698">
        <ele>97.1</ele>
        <time>2022-06-12T09:54:54Z</time>
      </trkpt>
      <trkpt lat="48.25554" lon="-3.53698">
        <ele>97.1</ele>
        <time>2022-06-12T09:54:55Z</time>
      </trkpt>
      <trkpt lat="48.25554" lon="-3.53698">
        <ele>97.1</ele>
        <time>2022-06-12T09:54:56Z</time>
      </trkpt>
      <trkpt lat="48.25554" lon="-3.53698">
        <ele>97.1</ele>
        <time>2022-06-12T09:54:57Z</time>
      </trkpt>
      <trkpt lat="48.25554" lon="-3.53698">
        <ele>97.1</ele>
        <time>2022-06-12T09:54:58Z</time>
      </trkpt>
      <trkpt lat="48.25554" lon="-3.53698">
        <ele>97.1</ele>
        <time>2022-06-12T09:54:59Z</time>
      </trkpt>
      <trkpt lat="48.25554" lon="-3.53698">
        <ele>97.1</ele>
        <time>2022-06-12T09:55:00Z</time>
      </trkpt>
      <trkpt lat="48.25554" lon="-3.53698">
        <ele>97.1</ele>
        <time>2022-06-12T09:55:01Z</time>
      </trkpt>
      <trkpt lat="48.25554" lon="-3.53698">
        <ele>97.1</ele>
        <time>2022-06-12T09:55:02Z</time>
      </trkpt>
      <trkpt lat="48.25554" lon="-3.53698">
        <ele>97.1</ele>
        <time>2022-06-12T09:55:03Z</time>
      </trkpt>
      <trkpt lat="48.25554" lon="-3.53698">
        <ele>97.1</ele>
        <time>2022-06-12T09:55:04Z</time>
      </trkpt>
      <trkpt lat="48.25554" lon="-3.53698">
        <ele>97.1</ele>
        <time>2022-06-12T09:55:05Z</time>
      </trkpt>
      <trkpt lat="48.25554" lon="-3.53698">
        <ele>97.1</ele>
        <time>2022-06-12T09:55:06Z</time>
      </trkpt>
      <trkpt lat="48.25554" lon="-3.53698">
        <ele>97.1</ele>
        <time>2022-06-12T09:55:07Z</time>
      </trkpt>
      <trkpt lat="48.25554" lon="-3.53698">
        <ele>97.1</ele>
        <time>2022-06-12T09:55:08Z</time>
      </trkpt>
      <trkpt lat="48.25555" lon="-3.53699">
        <ele>97</ele>
        <time>2022-06-12T09:55:09Z</time>
      </trkpt>
      <trkpt lat="48.25556" lon="-3.53699">
        <ele>97</ele>
        <time>2022-06-12T09:55:10Z</time>
      </trkpt>
      <trkpt lat="48.25556" lon="-3.53699">
        <ele>97</ele>
        <time>2022-06-12T09:55:11Z</time>
      </trkpt>
      <trkpt lat="48.25557" lon="-3.53698">
        <ele>96.9</ele>
        <time>2022-06-12T09:55:12Z</time>
      </trkpt>
      <trkpt lat="48.25558" lon="-3.53697">
        <ele>96.9</ele>
        <time>2022-06-12T09:55:14Z</time>
      </trkpt>
      <trkpt lat="48.25559" lon="-3.53696">
        <ele>96.9</ele>
        <time>2022-06-12T09:55:15Z</time>
      </trkpt>
      <trkpt lat="48.2556" lon="-3.53696">
        <ele>96.8</ele>
        <time>2022-06-12T09:55:16Z</time>
      </trkpt>
      <trkpt lat="48.25561" lon="-3.53695">
        <ele>96.7</ele>
        <time>2022-06-12T09:55:17Z</time>
      </trkpt>
      <trkpt lat="48.25561" lon="-3.53694">
        <ele>96.7</ele>
        <time>2022-06-12T09:55:18Z</time>
      </trkpt>
      <trkpt lat="48.25562" lon="-3.53693">
        <ele>96.6</ele>
        <time>2022-06-12T09:55:19Z</time>
      </trkpt>
      <trkpt lat="48.25564" lon="-3.53692">
        <ele>96.5</ele>
        <time>2022-06-12T09:55:20Z</time>
      </trkpt>
      <trkpt lat="48.25565" lon="-3.53691">
        <ele>96.5</ele>
        <time>2022-06-12T09:55:21Z</time>
      </trkpt>
      <trkpt lat="48.25566" lon="-3.5369">
        <ele>96.4</ele>
        <time>2022-06-12T09:55:23Z</time>
      </trkpt>
      <trkpt lat="48.25567" lon="-3.53689">
        <ele>96.3</ele>
        <time>2022-06-12T09:55:24Z</time>
      </trkpt>
      <trkpt lat="48.25568" lon="-3.53688">
        <ele>96.3</ele>
        <time>2022-06-12T09:55:25Z</time>
      </trkpt>
      <trkpt lat="48.25568" lon="-3.53686">
        <ele>96.2</ele>
        <time>2022-06-12T09:55:26Z</time>
      </trkpt>
      <trkpt lat="48.25569" lon="-3.53685">
        <ele>96.2</ele>
        <time>2022-06-12T09:55:27Z</time>
      </trkpt>
      <trkpt lat="48.2557" lon="-3.53684">
        <ele>96.1</ele>
        <time>2022-06-12T09:55:28Z</time>
      </trkpt>
      <trkpt lat="48.25571" lon="-3.53682">
        <ele>96</ele>
        <time>2022-06-12T09:55:29Z</time>
      </trkpt>
      <trkpt lat="48.25572" lon="-3.53681">
        <ele>96</ele>
        <time>2022-06-12T09:55:30Z</time>
      </trkpt>
      <trkpt lat="48.25572" lon="-3.53679">
        <ele>95.9</ele>
        <time>2022-06-12T09:55:32Z</time>
      </trkpt>
      <trkpt lat="48.25574" lon="-3.53677">
        <ele>95.8</ele>
        <time>2022-06-12T09:55:33Z</time>
      </trkpt>
      <trkpt lat="48.25574" lon="-3.53676">
        <ele>95.8</ele>
        <time>2022-06-12T09:55:34Z</time>
      </trkpt>
      <trkpt lat="48.25574" lon="-3.53674">
        <ele>95.7</ele>
        <time>2022-06-12T09:55:35Z</time>
      </trkpt>
      <trkpt lat="48.25575" lon="-3.53673">
        <ele>95.7</ele>
        <time>2022-06-12T09:55:36Z</time>
      </trkpt>
      <trkpt lat="48.25576" lon="-3.53672">
        <ele>95.6</ele>
        <time>2022-06-12T09:55:37Z</time>
      </trkpt>
      <trkpt lat="48.25576" lon="-3.5367">
        <ele>95.6</ele>
        <time>2022-06-12T09:55:38Z</time>
      </trkpt>
      <trkpt lat="48.25577" lon="-3.53667">
        <ele>95.5</ele>
        <time>2022-06-12T09:55:39Z</time>
      </trkpt>
      <trkpt lat="48.25578" lon="-3.53665">
        <ele>95.5</ele>
        <time>2022-06-12T09:55:41Z</time>
      </trkpt>
      <trkpt lat="48.25578" lon="-3.53664">
        <ele>95.5</ele>
        <time>2022-06-12T09:55:42Z</time>
      </trkpt>
      <trkpt lat="48.25579" lon="-3.53662">
        <ele>95.4</ele>
        <time>2022-06-12T09:55:43Z</time>
      </trkpt>
      <trkpt lat="48.25579" lon="-3.53661">
        <ele>95.4</ele>
        <time>2022-06-12T09:55:44Z</time>
      </trkpt>
      <trkpt lat="48.25579" lon="-3.5366">
        <ele>95.4</ele>
        <time>2022-06-12T09:55:45Z</time>
      </trkpt>
      <trkpt lat="48.25579" lon="-3.53658">
        <ele>95.4</ele>
        <time>2022-06-12T09:55:46Z</time>
      </trkpt>
      <trkpt lat="48.2558" lon="-3.53657">
        <ele>95.3</ele>
        <time>2022-06-12T09:55:47Z</time>
      </trkpt>
      <trkpt lat="48.2558" lon="-3.53655">
        <ele>95.3</ele>
        <time>2022-06-12T09:55:48Z</time>
      </trkpt>
      <trkpt lat="48.25581" lon="-3.53653">
        <ele>95.3</ele>
        <time>2022-06-12T09:55:50Z</time>
      </trkpt>
      <trkpt lat="48.25581" lon="-3.5365">
        <ele>95.3</ele>
        <time>2022-06-12T09:55:51Z</time>
      </trkpt>
      <trkpt lat="48.25582" lon="-3.53649">
        <ele>95.3</ele>
        <time>2022-06-12T09:55:52Z</time>
      </trkpt>
      <trkpt lat="48.25582" lon="-3.53648">
        <ele>95.3</ele>
        <time>2022-06-12T09:55:53Z</time>
      </trkpt>
      <trkpt lat="48.25582" lon="-3.53646">
        <ele>95.3</ele>
        <time>2022-06-12T09:55:54Z</time>
      </trkpt>
      <trkpt lat="48.25583" lon="-3.53644">
        <ele>95.2</ele>
        <time>2022-06-12T09:55:55Z</time>
      </trkpt>
      <trkpt lat="48.25583" lon="-3.53643">
        <ele>95.2</ele>
        <time>2022-06-12T09:55:56Z</time>
      </trkpt>
      <trkpt lat="48.25584" lon="-3.5364">
        <ele>95.2</ele>
        <time>2022-06-12T09:55:57Z</time>
      </trkpt>
      <trkpt lat="48.25584" lon="-3.53638">
        <ele>95.2</ele>
        <time>2022-06-12T09:55:58Z</time>
      </trkpt>
      <trkpt lat="48.25584" lon="-3.53635">
        <ele>95.2</ele>
        <time>2022-06-12T09:55:59Z</time>
      </trkpt>
      <trkpt lat="48.25585" lon="-3.53634">
        <ele>95.2</ele>
        <time>2022-06-12T09:56:01Z</time>
      </trkpt>
      <trkpt lat="48.25585" lon="-3.53632">
        <ele>95.2</ele>
        <time>2022-06-12T09:56:02Z</time>
      </trkpt>
      <trkpt lat="48.25586" lon="-3.53629">
        <ele>95.2</ele>
        <time>2022-06-12T09:56:03Z</time>
      </trkpt>
      <trkpt lat="48.25586" lon="-3.53628">
        <ele>95.1</ele>
        <time>2022-06-12T09:56:04Z</time>
      </trkpt>
      <trkpt lat="48.25587" lon="-3.53627">
        <ele>95.1</ele>
        <time>2022-06-12T09:56:05Z</time>
      </trkpt>
      <trkpt lat="48.25588" lon="-3.53624">
        <ele>95.1</ele>
        <time>2022-06-12T09:56:06Z</time>
      </trkpt>
      <trkpt lat="48.25588" lon="-3.53623">
        <ele>95.1</ele>
        <time>2022-06-12T09:56:07Z</time>
      </trkpt>
      <trkpt lat="48.25588" lon="-3.53622">
        <ele>95.1</ele>
        <time>2022-06-12T09:56:08Z</time>
      </trkpt>
      <trkpt lat="48.25589" lon="-3.53619">
        <ele>95.1</ele>
        <time>2022-06-12T09:56:09Z</time>
      </trkpt>
      <trkpt lat="48.2559" lon="-3.53618">
        <ele>95.1</ele>
        <time>2022-06-12T09:56:11Z</time>
      </trkpt>
      <trkpt lat="48.2559" lon="-3.53617">
        <ele>95.1</ele>
        <time>2022-06-12T09:56:12Z</time>
      </trkpt>
      <trkpt lat="48.2559" lon="-3.53615">
        <ele>95.1</ele>
        <time>2022-06-12T09:56:13Z</time>
      </trkpt>
      <trkpt lat="48.25591" lon="-3.53612">
        <ele>95.1</ele>
        <time>2022-06-12T09:56:14Z</time>
      </trkpt>
      <trkpt lat="48.2559" lon="-3.53611">
        <ele>95.1</ele>
        <time>2022-06-12T09:56:15Z</time>
      </trkpt>
      <trkpt lat="48.2559" lon="-3.53608">
        <ele>95.1</ele>
        <time>2022-06-12T09:56:16Z</time>
      </trkpt>
      <trkpt lat="48.2559" lon="-3.53606">
        <ele>95</ele>
        <time>2022-06-12T09:56:17Z</time>
      </trkpt>
      <trkpt lat="48.2559" lon="-3.53604">
        <ele>95</ele>
        <time>2022-06-12T09:56:18Z</time>
      </trkpt>
      <trkpt lat="48.2559" lon="-3.53601">
        <ele>95</ele>
        <time>2022-06-12T09:56:19Z</time>
      </trkpt>
      <trkpt lat="48.2559" lon="-3.53599">
        <ele>95</ele>
        <time>2022-06-12T09:56:20Z</time>
      </trkpt>
      <trkpt lat="48.25589" lon="-3.53596">
        <ele>95</ele>
        <time>2022-06-12T09:56:22Z</time>
      </trkpt>
      <trkpt lat="48.25588" lon="-3.53594">
        <ele>95</ele>
        <time>2022-06-12T09:56:23Z</time>
      </trkpt>
      <trkpt lat="48.25587" lon="-3.53593">
        <ele>95</ele>
        <time>2022-06-12T09:56:24Z</time>
      </trkpt>
      <trkpt lat="48.25586" lon="-3.53589">
        <ele>95.1</ele>
        <time>2022-06-12T09:56:25Z</time>
      </trkpt>
      <trkpt lat="48.25586" lon="-3.53588">
        <ele>95.1</ele>
        <time>2022-06-12T09:56:26Z</time>
      </trkpt>
      <trkpt lat="48.25585" lon="-3.53584">
        <ele>95.1</ele>
        <time>2022-06-12T09:56:27Z</time>
      </trkpt>
      <trkpt lat="48.25585" lon="-3.53583">
        <ele>95.1</ele>
        <time>2022-06-12T09:56:28Z</time>
      </trkpt>
      <trkpt lat="48.25585" lon="-3.53581">
        <ele>95.1</ele>
        <time>2022-06-12T09:56:29Z</time>
      </trkpt>
      <trkpt lat="48.25585" lon="-3.53579">
        <ele>95.1</ele>
        <time>2022-06-12T09:56:30Z</time>
      </trkpt>
      <trkpt lat="48.25585" lon="-3.53577">
        <ele>95.1</ele>
        <time>2022-06-12T09:56:31Z</time>
      </trkpt>
      <trkpt lat="48.25585" lon="-3.53575">
        <ele>95.1</ele>
        <time>2022-06-12T09:56:32Z</time>
      </trkpt>
      <trkpt lat="48.25584" lon="-3.53572">
        <ele>95.1</ele>
        <time>2022-06-12T09:56:34Z</time>
      </trkpt>
      <trkpt lat="48.25584" lon="-3.53571">
        <ele>95.1</ele>
        <time>2022-06-12T09:56:35Z</time>
      </trkpt>
      <trkpt lat="48.25583" lon="-3.53569">
        <ele>95.1</ele>
        <time>2022-06-12T09:56:36Z</time>
      </trkpt>
      <trkpt lat="48.25583" lon="-3.53568">
        <ele>95.1</ele>
        <time>2022-06-12T09:56:37Z</time>
      </trkpt>
      <trkpt lat="48.25583" lon="-3.53566">
        <ele>95.1</ele>
        <time>2022-06-12T09:56:38Z</time>
      </trkpt>
      <trkpt lat="48.25583" lon="-3.53564">
        <ele>95.1</ele>
        <time>2022-06-12T09:56:39Z</time>
      </trkpt>
      <trkpt lat="48.25583" lon="-3.53563">
        <ele>95.1</ele>
        <time>2022-06-12T09:56:40Z</time>
      </trkpt>
      <trkpt lat="48.25583" lon="-3.53561">
        <ele>95.1</ele>
        <time>2022-06-12T09:56:42Z</time>
      </trkpt>
      <trkpt lat="48.25584" lon="-3.53561">
        <ele>95.1</ele>
        <time>2022-06-12T09:56:43Z</time>
      </trkpt>
      <trkpt lat="48.25584" lon="-3.5356">
        <ele>95.1</ele>
        <time>2022-06-12T09:56:44Z</time>
      </trkpt>
      <trkpt lat="48.25584" lon="-3.53559">
        <ele>95.1</ele>
        <time>2022-06-12T09:56:45Z</time>
      </trkpt>
      <trkpt lat="48.25585" lon="-3.53556">
        <ele>95.2</ele>
        <time>2022-06-12T09:56:47Z</time>
      </trkpt>
      <trkpt lat="48.25585" lon="-3.53555">
        <ele>95.2</ele>
        <time>2022-06-12T09:56:48Z</time>
      </trkpt>
      <trkpt lat="48.25584" lon="-3.53554">
        <ele>95.2</ele>
        <time>2022-06-12T09:56:49Z</time>
      </trkpt>
      <trkpt lat="48.25584" lon="-3.53553">
        <ele>95.2</ele>
        <time>2022-06-12T09:56:50Z</time>
      </trkpt>
      <trkpt lat="48.25584" lon="-3.53551">
        <ele>95.2</ele>
        <time>2022-06-12T09:56:51Z</time>
      </trkpt>
      <trkpt lat="48.25585" lon="-3.53549">
        <ele>95.2</ele>
        <time>2022-06-12T09:56:52Z</time>
      </trkpt>
      <trkpt lat="48.25585" lon="-3.53547">
        <ele>95.2</ele>
        <time>2022-06-12T09:56:53Z</time>
      </trkpt>
      <trkpt lat="48.25585" lon="-3.53545">
        <ele>95.2</ele>
        <time>2022-06-12T09:56:54Z</time>
      </trkpt>
      <trkpt lat="48.25585" lon="-3.53541">
        <ele>95.2</ele>
        <time>2022-06-12T09:56:55Z</time>
      </trkpt>
      <trkpt lat="48.25586" lon="-3.53539">
        <ele>95.2</ele>
        <time>2022-06-12T09:56:57Z</time>
      </trkpt>
      <trkpt lat="48.25586" lon="-3.53538">
        <ele>95.2</ele>
        <time>2022-06-12T09:56:58Z</time>
      </trkpt>
      <trkpt lat="48.25586" lon="-3.53536">
        <ele>95.2</ele>
        <time>2022-06-12T09:56:59Z</time>
      </trkpt>
      <trkpt lat="48.25586" lon="-3.53535">
        <ele>95.2</ele>
        <time>2022-06-12T09:57:00Z</time>
      </trkpt>
      <trkpt lat="48.25587" lon="-3.53532">
        <ele>95.2</ele>
        <time>2022-06-12T09:57:01Z</time>
      </trkpt>
      <trkpt lat="48.25587" lon="-3.53531">
        <ele>95.2</ele>
        <time>2022-06-12T09:57:02Z</time>
      </trkpt>
      <trkpt lat="48.25587" lon="-3.53529">
        <ele>95.2</ele>
        <time>2022-06-12T09:57:03Z</time>
      </trkpt>
      <trkpt lat="48.25587" lon="-3.53527">
        <ele>95.3</ele>
        <time>2022-06-12T09:57:04Z</time>
      </trkpt>
      <trkpt lat="48.25588" lon="-3.53523">
        <ele>95.3</ele>
        <time>2022-06-12T09:57:05Z</time>
      </trkpt>
      <trkpt lat="48.25588" lon="-3.53522">
        <ele>95.3</ele>
        <time>2022-06-12T09:57:07Z</time>
      </trkpt>
      <trkpt lat="48.25588" lon="-3.53521">
        <ele>95.3</ele>
        <time>2022-06-12T09:57:08Z</time>
      </trkpt>
      <trkpt lat="48.25588" lon="-3.53519">
        <ele>95.3</ele>
        <time>2022-06-12T09:57:09Z</time>
      </trkpt>
      <trkpt lat="48.25588" lon="-3.53518">
        <ele>95.3</ele>
        <time>2022-06-12T09:57:10Z</time>
      </trkpt>
      <trkpt lat="48.25588" lon="-3.53517">
        <ele>95.3</ele>
        <time>2022-06-12T09:57:11Z</time>
      </trkpt>
      <trkpt lat="48.25588" lon="-3.53516">
        <ele>95.3</ele>
        <time>2022-06-12T09:57:12Z</time>
      </trkpt>
      <trkpt lat="48.25588" lon="-3.53513">
        <ele>95.3</ele>
        <time>2022-06-12T09:57:13Z</time>
      </trkpt>
      <trkpt lat="48.25588" lon="-3.53512">
        <ele>95.3</ele>
        <time>2022-06-12T09:57:14Z</time>
      </trkpt>
      <trkpt lat="48.25589" lon="-3.5351">
        <ele>95.3</ele>
        <time>2022-06-12T09:57:15Z</time>
      </trkpt>
      <trkpt lat="48.25589" lon="-3.53509">
        <ele>95.3</ele>
        <time>2022-06-12T09:57:17Z</time>
      </trkpt>
      <trkpt lat="48.25589" lon="-3.53507">
        <ele>95.3</ele>
        <time>2022-06-12T09:57:18Z</time>
      </trkpt>
      <trkpt lat="48.25589" lon="-3.53506">
        <ele>95.3</ele>
        <time>2022-06-12T09:57:19Z</time>
      </trkpt>
      <trkpt lat="48.25589" lon="-3.53504">
        <ele>95.3</ele>
        <time>2022-06-12T09:57:20Z</time>
      </trkpt>
      <trkpt lat="48.25589" lon="-3.53501">
        <ele>95.3</ele>
        <time>2022-06-12T09:57:21Z</time>
      </trkpt>
      <trkpt lat="48.2559" lon="-3.53498">
        <ele>95.3</ele>
        <time>2022-06-12T09:57:22Z</time>
      </trkpt>
      <trkpt lat="48.2559" lon="-3.53497">
        <ele>95.3</ele>
        <time>2022-06-12T09:57:23Z</time>
      </trkpt>
      <trkpt lat="48.2559" lon="-3.53496">
        <ele>95.3</ele>
        <time>2022-06-12T09:57:24Z</time>
      </trkpt>
      <trkpt lat="48.2559" lon="-3.53493">
        <ele>95.4</ele>
        <time>2022-06-12T09:57:25Z</time>
      </trkpt>
      <trkpt lat="48.25591" lon="-3.53491">
        <ele>95.4</ele>
        <time>2022-06-12T09:57:26Z</time>
      </trkpt>
      <trkpt lat="48.25591" lon="-3.53488">
        <ele>95.4</ele>
        <time>2022-06-12T09:57:27Z</time>
      </trkpt>
      <trkpt lat="48.25591" lon="-3.53487">
        <ele>95.4</ele>
        <time>2022-06-12T09:57:29Z</time>
      </trkpt>
      <trkpt lat="48.25591" lon="-3.53486">
        <ele>95.4</ele>
        <time>2022-06-12T09:57:30Z</time>
      </trkpt>
      <trkpt lat="48.25592" lon="-3.53483">
        <ele>95.4</ele>
        <time>2022-06-12T09:57:31Z</time>
      </trkpt>
      <trkpt lat="48.25592" lon="-3.53481">
        <ele>95.4</ele>
        <time>2022-06-12T09:57:32Z</time>
      </trkpt>
      <trkpt lat="48.25592" lon="-3.53479">
        <ele>95.4</ele>
        <time>2022-06-12T09:57:33Z</time>
      </trkpt>
      <trkpt lat="48.25593" lon="-3.53477">
        <ele>95.4</ele>
        <time>2022-06-12T09:57:34Z</time>
      </trkpt>
      <trkpt lat="48.25593" lon="-3.53475">
        <ele>95.4</ele>
        <time>2022-06-12T09:57:35Z</time>
      </trkpt>
      <trkpt lat="48.25593" lon="-3.53472">
        <ele>95.4</ele>
        <time>2022-06-12T09:57:36Z</time>
      </trkpt>
      <trkpt lat="48.25593" lon="-3.5347">
        <ele>95.4</ele>
        <time>2022-06-12T09:57:37Z</time>
      </trkpt>
      <trkpt lat="48.25594" lon="-3.53469">
        <ele>95.4</ele>
        <time>2022-06-12T09:57:38Z</time>
      </trkpt>
      <trkpt lat="48.25594" lon="-3.53467">
        <ele>95.5</ele>
        <time>2022-06-12T09:57:40Z</time>
      </trkpt>
      <trkpt lat="48.25595" lon="-3.53463">
        <ele>95.5</ele>
        <time>2022-06-12T09:57:41Z</time>
      </trkpt>
      <trkpt lat="48.25595" lon="-3.53462">
        <ele>95.5</ele>
        <time>2022-06-12T09:57:42Z</time>
      </trkpt>
      <trkpt lat="48.25595" lon="-3.53461">
        <ele>95.5</ele>
        <time>2022-06-12T09:57:43Z</time>
      </trkpt>
      <trkpt lat="48.25595" lon="-3.53459">
        <ele>95.5</ele>
        <time>2022-06-12T09:57:44Z</time>
      </trkpt>
      <trkpt lat="48.25596" lon="-3.53458">
        <ele>95.5</ele>
        <time>2022-06-12T09:57:45Z</time>
      </trkpt>
      <trkpt lat="48.25596" lon="-3.53455">
        <ele>95.5</ele>
        <time>2022-06-12T09:57:46Z</time>
      </trkpt>
      <trkpt lat="48.25596" lon="-3.53453">
        <ele>95.5</ele>
        <time>2022-06-12T09:57:47Z</time>
      </trkpt>
      <trkpt lat="48.25597" lon="-3.5345">
        <ele>95.5</ele>
        <time>2022-06-12T09:57:48Z</time>
      </trkpt>
      <trkpt lat="48.25597" lon="-3.53448">
        <ele>95.5</ele>
        <time>2022-06-12T09:57:49Z</time>
      </trkpt>
      <trkpt lat="48.25597" lon="-3.53446">
        <ele>95.5</ele>
        <time>2022-06-12T09:57:50Z</time>
      </trkpt>
      <trkpt lat="48.25597" lon="-3.53445">
        <ele>95.5</ele>
        <time>2022-06-12T09:57:52Z</time>
      </trkpt>
      <trkpt lat="48.25598" lon="-3.53443">
        <ele>95.6</ele>
        <time>2022-06-12T09:57:53Z</time>
      </trkpt>
      <trkpt lat="48.25598" lon="-3.53441">
        <ele>95.6</ele>
        <time>2022-06-12T09:57:54Z</time>
      </trkpt>
      <trkpt lat="48.25598" lon="-3.53439">
        <ele>95.6</ele>
        <time>2022-06-12T09:57:55Z</time>
      </trkpt>
      <trkpt lat="48.25599" lon="-3.53437">
        <ele>95.6</ele>
        <time>2022-06-12T09:57:56Z</time>
      </trkpt>
      <trkpt lat="48.25599" lon="-3.53435">
        <ele>95.6</ele>
        <time>2022-06-12T09:57:57Z</time>
      </trkpt>
      <trkpt lat="48.25599" lon="-3.53433">
        <ele>95.6</ele>
        <time>2022-06-12T09:57:58Z</time>
      </trkpt>
      <trkpt lat="48.25599" lon="-3.53432">
        <ele>95.6</ele>
        <time>2022-06-12T09:57:59Z</time>
      </trkpt>
      <trkpt lat="48.256" lon="-3.53431">
        <ele>95.6</ele>
        <time>2022-06-12T09:58:00Z</time>
      </trkpt>
      <trkpt lat="48.256" lon="-3.5343">
        <ele>95.6</ele>
        <time>2022-06-12T09:58:02Z</time>
      </trkpt>
      <trkpt lat="48.256" lon="-3.53428">
        <ele>95.6</ele>
        <time>2022-06-12T09:58:03Z</time>
      </trkpt>
      <trkpt lat="48.25601" lon="-3.53427">
        <ele>95.6</ele>
        <time>2022-06-12T09:58:04Z</time>
      </trkpt>
      <trkpt lat="48.25601" lon="-3.53426">
        <ele>95.6</ele>
        <time>2022-06-12T09:58:05Z</time>
      </trkpt>
      <trkpt lat="48.25602" lon="-3.53425">
        <ele>95.7</ele>
        <time>2022-06-12T09:58:06Z</time>
      </trkpt>
      <trkpt lat="48.25602" lon="-3.53424">
        <ele>95.7</ele>
        <time>2022-06-12T09:58:07Z</time>
      </trkpt>
      <trkpt lat="48.25603" lon="-3.53423">
        <ele>95.7</ele>
        <time>2022-06-12T09:58:08Z</time>
      </trkpt>
      <trkpt lat="48.25603" lon="-3.53421">
        <ele>95.7</ele>
        <time>2022-06-12T09:58:09Z</time>
      </trkpt>
      <trkpt lat="48.25603" lon="-3.53419">
        <ele>95.7</ele>
        <time>2022-06-12T09:58:10Z</time>
      </trkpt>
      <trkpt lat="48.25604" lon="-3.53416">
        <ele>95.7</ele>
        <time>2022-06-12T09:58:11Z</time>
      </trkpt>
      <trkpt lat="48.25605" lon="-3.53415">
        <ele>95.7</ele>
        <time>2022-06-12T09:58:13Z</time>
      </trkpt>
      <trkpt lat="48.25605" lon="-3.53414">
        <ele>95.8</ele>
        <time>2022-06-12T09:58:14Z</time>
      </trkpt>
      <trkpt lat="48.25605" lon="-3.53413">
        <ele>95.8</ele>
        <time>2022-06-12T09:58:15Z</time>
      </trkpt>
      <trkpt lat="48.25606" lon="-3.53412">
        <ele>95.8</ele>
        <time>2022-06-12T09:58:16Z</time>
      </trkpt>
      <trkpt lat="48.25606" lon="-3.53411">
        <ele>95.8</ele>
        <time>2022-06-12T09:58:17Z</time>
      </trkpt>
      <trkpt lat="48.25606" lon="-3.53409">
        <ele>95.8</ele>
        <time>2022-06-12T09:58:18Z</time>
      </trkpt>
      <trkpt lat="48.25606" lon="-3.53408">
        <ele>95.8</ele>
        <time>2022-06-12T09:58:19Z</time>
      </trkpt>
      <trkpt lat="48.25607" lon="-3.53406">
        <ele>95.9</ele>
        <time>2022-06-12T09:58:20Z</time>
      </trkpt>
      <trkpt lat="48.25608" lon="-3.53403">
        <ele>95.9</ele>
        <time>2022-06-12T09:58:21Z</time>
      </trkpt>
      <trkpt lat="48.25608" lon="-3.53402">
        <ele>96</ele>
        <time>2022-06-12T09:58:23Z</time>
      </trkpt>
      <trkpt lat="48.25608" lon="-3.53401">
        <ele>96</ele>
        <time>2022-06-12T09:58:24Z</time>
      </trkpt>
      <trkpt lat="48.25609" lon="-3.534">
        <ele>96</ele>
        <time>2022-06-12T09:58:25Z</time>
      </trkpt>
      <trkpt lat="48.25609" lon="-3.53397">
        <ele>96.1</ele>
        <time>2022-06-12T09:58:26Z</time>
      </trkpt>
      <trkpt lat="48.25609" lon="-3.53396">
        <ele>96.1</ele>
        <time>2022-06-12T09:58:27Z</time>
      </trkpt>
      <trkpt lat="48.2561" lon="-3.53394">
        <ele>96.1</ele>
        <time>2022-06-12T09:58:28Z</time>
      </trkpt>
      <trkpt lat="48.2561" lon="-3.53393">
        <ele>96.2</ele>
        <time>2022-06-12T09:58:29Z</time>
      </trkpt>
      <trkpt lat="48.2561" lon="-3.53391">
        <ele>96.2</ele>
        <time>2022-06-12T09:58:31Z</time>
      </trkpt>
      <trkpt lat="48.2561" lon="-3.53389">
        <ele>96.2</ele>
        <time>2022-06-12T09:58:32Z</time>
      </trkpt>
      <trkpt lat="48.2561" lon="-3.53389">
        <ele>96.3</ele>
        <time>2022-06-12T09:58:33Z</time>
      </trkpt>
      <trkpt lat="48.25611" lon="-3.53387">
        <ele>96.3</ele>
        <time>2022-06-12T09:58:34Z</time>
      </trkpt>
      <trkpt lat="48.25611" lon="-3.53386">
        <ele>96.3</ele>
        <time>2022-06-12T09:58:35Z</time>
      </trkpt>
      <trkpt lat="48.25611" lon="-3.53383">
        <ele>96.4</ele>
        <time>2022-06-12T09:58:36Z</time>
      </trkpt>
      <trkpt lat="48.25611" lon="-3.53382">
        <ele>96.4</ele>
        <time>2022-06-12T09:58:37Z</time>
      </trkpt>
      <trkpt lat="48.25611" lon="-3.5338">
        <ele>96.5</ele>
        <time>2022-06-12T09:58:39Z</time>
      </trkpt>
      <trkpt lat="48.25611" lon="-3.53379">
        <ele>96.5</ele>
        <time>2022-06-12T09:58:40Z</time>
      </trkpt>
      <trkpt lat="48.25612" lon="-3.53377">
        <ele>96.6</ele>
        <time>2022-06-12T09:58:41Z</time>
      </trkpt>
      <trkpt lat="48.25612" lon="-3.53375">
        <ele>96.6</ele>
        <time>2022-06-12T09:58:42Z</time>
      </trkpt>
      <trkpt lat="48.25612" lon="-3.53374">
        <ele>96.7</ele>
        <time>2022-06-12T09:58:43Z</time>
      </trkpt>
      <trkpt lat="48.25612" lon="-3.53372">
        <ele>96.7</ele>
        <time>2022-06-12T09:58:44Z</time>
      </trkpt>
      <trkpt lat="48.25613" lon="-3.5337">
        <ele>96.8</ele>
        <time>2022-06-12T09:58:45Z</time>
      </trkpt>
      <trkpt lat="48.25613" lon="-3.53368">
        <ele>96.8</ele>
        <time>2022-06-12T09:58:47Z</time>
      </trkpt>
      <trkpt lat="48.25613" lon="-3.53367">
        <ele>96.9</ele>
        <time>2022-06-12T09:58:48Z</time>
      </trkpt>
      <trkpt lat="48.25613" lon="-3.53365">
        <ele>96.9</ele>
        <time>2022-06-12T09:58:49Z</time>
      </trkpt>
      <trkpt lat="48.25613" lon="-3.53363">
        <ele>97</ele>
        <time>2022-06-12T09:58:50Z</time>
      </trkpt>
      <trkpt lat="48.25614" lon="-3.5336">
        <ele>97</ele>
        <time>2022-06-12T09:58:51Z</time>
      </trkpt>
      <trkpt lat="48.25614" lon="-3.53359">
        <ele>97.1</ele>
        <time>2022-06-12T09:58:52Z</time>
      </trkpt>
      <trkpt lat="48.25614" lon="-3.53356">
        <ele>97.1</ele>
        <time>2022-06-12T09:58:54Z</time>
      </trkpt>
      <trkpt lat="48.25615" lon="-3.53354">
        <ele>97.2</ele>
        <time>2022-06-12T09:58:55Z</time>
      </trkpt>
      <trkpt lat="48.25615" lon="-3.53352">
        <ele>97.2</ele>
        <time>2022-06-12T09:58:56Z</time>
      </trkpt>
      <trkpt lat="48.25615" lon="-3.53351">
        <ele>97.2</ele>
        <time>2022-06-12T09:58:58Z</time>
      </trkpt>
      <trkpt lat="48.25615" lon="-3.53349">
        <ele>97.3</ele>
        <time>2022-06-12T09:58:59Z</time>
      </trkpt>
      <trkpt lat="48.25615" lon="-3.53347">
        <ele>97.3</ele>
        <time>2022-06-12T09:59:00Z</time>
      </trkpt>
      <trkpt lat="48.25615" lon="-3.53343">
        <ele>97.4</ele>
        <time>2022-06-12T09:59:01Z</time>
      </trkpt>
      <trkpt lat="48.25615" lon="-3.53341">
        <ele>97.4</ele>
        <time>2022-06-12T09:59:03Z</time>
      </trkpt>
      <trkpt lat="48.25615" lon="-3.5334">
        <ele>97.4</ele>
        <time>2022-06-12T09:59:04Z</time>
      </trkpt>
      <trkpt lat="48.25615" lon="-3.53338">
        <ele>97.4</ele>
        <time>2022-06-12T09:59:05Z</time>
      </trkpt>
      <trkpt lat="48.25615" lon="-3.53337">
        <ele>97.5</ele>
        <time>2022-06-12T09:59:06Z</time>
      </trkpt>
      <trkpt lat="48.25615" lon="-3.53336">
        <ele>97.5</ele>
        <time>2022-06-12T09:59:07Z</time>
      </trkpt>
      <trkpt lat="48.25616" lon="-3.53334">
        <ele>97.5</ele>
        <time>2022-06-12T09:59:08Z</time>
      </trkpt>
      <trkpt lat="48.25616" lon="-3.53333">
        <ele>97.5</ele>
        <time>2022-06-12T09:59:10Z</time>
      </trkpt>
      <trkpt lat="48.25616" lon="-3.53332">
        <ele>97.5</ele>
        <time>2022-06-12T09:59:11Z</time>
      </trkpt>
      <trkpt lat="48.25616" lon="-3.5333">
        <ele>97.5</ele>
        <time>2022-06-12T09:59:12Z</time>
      </trkpt>
      <trkpt lat="48.25616" lon="-3.53329">
        <ele>97.6</ele>
        <time>2022-06-12T09:59:13Z</time>
      </trkpt>
      <trkpt lat="48.25616" lon="-3.53328">
        <ele>97.6</ele>
        <time>2022-06-12T09:59:14Z</time>
      </trkpt>
      <trkpt lat="48.25616" lon="-3.53328">
        <ele>97.6</ele>
        <time>2022-06-12T09:59:15Z</time>
      </trkpt>
      <trkpt lat="48.25616" lon="-3.53327">
        <ele>97.6</ele>
        <time>2022-06-12T09:59:16Z</time>
      </trkpt>
      <trkpt lat="48.25616" lon="-3.53326">
        <ele>97.6</ele>
        <time>2022-06-12T09:59:18Z</time>
      </trkpt>
      <trkpt lat="48.25616" lon="-3.53325">
        <ele>97.6</ele>
        <time>2022-06-12T09:59:19Z</time>
      </trkpt>
      <trkpt lat="48.25616" lon="-3.53324">
        <ele>97.6</ele>
        <time>2022-06-12T09:59:20Z</time>
      </trkpt>
      <trkpt lat="48.25616" lon="-3.53323">
        <ele>97.6</ele>
        <time>2022-06-12T09:59:21Z</time>
      </trkpt>
      <trkpt lat="48.25617" lon="-3.53321">
        <ele>97.6</ele>
        <time>2022-06-12T09:59:22Z</time>
      </trkpt>
      <trkpt lat="48.25617" lon="-3.5332">
        <ele>97.6</ele>
        <time>2022-06-12T09:59:24Z</time>
      </trkpt>
      <trkpt lat="48.25618" lon="-3.53319">
        <ele>97.6</ele>
        <time>2022-06-12T09:59:25Z</time>
      </trkpt>
      <trkpt lat="48.25618" lon="-3.53319">
        <ele>97.6</ele>
        <time>2022-06-12T09:59:27Z</time>
      </trkpt>
      <trkpt lat="48.25618" lon="-3.53318">
        <ele>97.6</ele>
        <time>2022-06-12T09:59:28Z</time>
      </trkpt>
      <trkpt lat="48.25618" lon="-3.53316">
        <ele>97.6</ele>
        <time>2022-06-12T09:59:29Z</time>
      </trkpt>
      <trkpt lat="48.25619" lon="-3.53314">
        <ele>97.6</ele>
        <time>2022-06-12T09:59:30Z</time>
      </trkpt>
      <trkpt lat="48.25619" lon="-3.53312">
        <ele>97.6</ele>
        <time>2022-06-12T09:59:32Z</time>
      </trkpt>
      <trkpt lat="48.25619" lon="-3.53311">
        <ele>97.6</ele>
        <time>2022-06-12T09:59:33Z</time>
      </trkpt>
      <trkpt lat="48.25619" lon="-3.53309">
        <ele>97.6</ele>
        <time>2022-06-12T09:59:34Z</time>
      </trkpt>
      <trkpt lat="48.25619" lon="-3.53308">
        <ele>97.6</ele>
        <time>2022-06-12T09:59:35Z</time>
      </trkpt>
      <trkpt lat="48.25618" lon="-3.53306">
        <ele>97.6</ele>
        <time>2022-06-12T09:59:36Z</time>
      </trkpt>
      <trkpt lat="48.25618" lon="-3.53304">
        <ele>97.6</ele>
        <time>2022-06-12T09:59:37Z</time>
      </trkpt>
      <trkpt lat="48.25618" lon="-3.53302">
        <ele>97.6</ele>
        <time>2022-06-12T09:59:39Z</time>
      </trkpt>
      <trkpt lat="48.25616" lon="-3.53301">
        <ele>97.6</ele>
        <time>2022-06-12T09:59:40Z</time>
      </trkpt>
      <trkpt lat="48.25615" lon="-3.53299">
        <ele>97.6</ele>
        <time>2022-06-12T09:59:41Z</time>
      </trkpt>
      <trkpt lat="48.25614" lon="-3.53297">
        <ele>97.6</ele>
        <time>2022-06-12T09:59:43Z</time>
      </trkpt>
      <trkpt lat="48.25612" lon="-3.53295">
        <ele>97.6</ele>
        <time>2022-06-12T09:59:45Z</time>
      </trkpt>
      <trkpt lat="48.25612" lon="-3.53295">
        <ele>97.6</ele>
        <time>2022-06-12T09:59:46Z</time>
      </trkpt>
      <trkpt lat="48.25611" lon="-3.53295">
        <ele>97.6</ele>
        <time>2022-06-12T09:59:47Z</time>
      </trkpt>
      <trkpt lat="48.25611" lon="-3.53295">
        <ele>97.6</ele>
        <time>2022-06-12T09:59:48Z</time>
      </trkpt>
      <trkpt lat="48.25611" lon="-3.53295">
        <ele>97.6</ele>
        <time>2022-06-12T09:59:49Z</time>
      </trkpt>
      <trkpt lat="48.25611" lon="-3.53295">
        <ele>97.6</ele>
        <time>2022-06-12T09:59:50Z</time>
      </trkpt>
      <trkpt lat="48.2561" lon="-3.53295">
        <ele>97.6</ele>
        <time>2022-06-12T09:59:51Z</time>
      </trkpt>
      <trkpt lat="48.2561" lon="-3.53295">
        <ele>97.6</ele>
        <time>2022-06-12T09:59:52Z</time>
      </trkpt>
      <trkpt lat="48.2561" lon="-3.53295">
        <ele>97.6</ele>
        <time>2022-06-12T09:59:53Z</time>
      </trkpt>
      <trkpt lat="48.2561" lon="-3.53296">
        <ele>97.6</ele>
        <time>2022-06-12T09:59:54Z</time>
      </trkpt>
      <trkpt lat="48.2561" lon="-3.53296">
        <ele>97.6</ele>
        <time>2022-06-12T09:59:55Z</time>
      </trkpt>
      <trkpt lat="48.2561" lon="-3.53296">
        <ele>97.6</ele>
        <time>2022-06-12T09:59:56Z</time>
      </trkpt>
      <trkpt lat="48.2561" lon="-3.53296">
        <ele>97.6</ele>
        <time>2022-06-12T09:59:57Z</time>
      </trkpt>
      <trkpt lat="48.2561" lon="-3.53296">
        <ele>97.6</ele>
        <time>2022-06-12T09:59:58Z</time>
      </trkpt>
      <trkpt lat="48.2561" lon="-3.53297">
        <ele>97.6</ele>
        <time>2022-06-12T09:59:59Z</time>
      </trkpt>
      <trkpt lat="48.2561" lon="-3.53297">
        <ele>97.6</ele>
        <time>2022-06-12T10:00:00Z</time>
      </trkpt>
      <trkpt lat="48.2561" lon="-3.53297">
        <ele>97.6</ele>
        <time>2022-06-12T10:00:01Z</time>
      </trkpt>
      <trkpt lat="48.2561" lon="-3.53297">
        <ele>97.6</ele>
        <time>2022-06-12T10:00:02Z</time>
      </trkpt>
      <trkpt lat="48.2561" lon="-3.53297">
        <ele>97.6</ele>
        <time>2022-06-12T10:00:04Z</time>
      </trkpt>
      <trkpt lat="48.2561" lon="-3.53297">
        <ele>97.6</ele>
        <time>2022-06-12T10:00:05Z</time>
      </trkpt>
      <trkpt lat="48.2561" lon="-3.53297">
        <ele>97.6</ele>
        <time>2022-06-12T10:00:06Z</time>
      </trkpt>
      <trkpt lat="48.2561" lon="-3.53297">
        <ele>97.6</ele>
        <time>2022-06-12T10:00:07Z</time>
      </trkpt>
      <trkpt lat="48.2561" lon="-3.53297">
        <ele>97.6</ele>
        <time>2022-06-12T10:00:08Z</time>
      </trkpt>
      <trkpt lat="48.25611" lon="-3.53297">
        <ele>97.6</ele>
        <time>2022-06-12T10:00:09Z</time>
      </trkpt>
      <trkpt lat="48.25611" lon="-3.53297">
        <ele>97.6</ele>
        <time>2022-06-12T10:00:10Z</time>
      </trkpt>
      <trkpt lat="48.25611" lon="-3.53297">
        <ele>97.6</ele>
        <time>2022-06-12T10:00:11Z</time>
      </trkpt>
      <trkpt lat="48.25611" lon="-3.53297">
        <ele>97.6</ele>
        <time>2022-06-12T10:00:12Z</time>
      </trkpt>
      <trkpt lat="48.25611" lon="-3.53297">
        <ele>97.6</ele>
        <time>2022-06-12T10:00:13Z</time>
      </trkpt>
      <trkpt lat="48.25611" lon="-3.53297">
        <ele>97.6</ele>
        <time>2022-06-12T10:00:14Z</time>
      </trkpt>
      <trkpt lat="48.25611" lon="-3.53297">
        <ele>97.6</ele>
        <time>2022-06-12T10:00:15Z</time>
      </trkpt>
      <trkpt lat="48.25611" lon="-3.53297">
        <ele>97.6</ele>
        <time>2022-06-12T10:00:16Z</time>
      </trkpt>
      <trkpt lat="48.25611" lon="-3.53297">
        <ele>97.6</ele>
        <time>2022-06-12T10:00:17Z</time>
      </trkpt>
      <trkpt lat="48.25611" lon="-3.53297">
        <ele>97.6</ele>
        <time>2022-06-12T10:00:18Z</time>
      </trkpt>
      <trkpt lat="48.25611" lon="-3.53297">
        <ele>97.6</ele>
        <time>2022-06-12T10:00:19Z</time>
      </trkpt>
      <trkpt lat="48.25611" lon="-3.53297">
        <ele>97.6</ele>
        <time>2022-06-12T10:00:20Z</time>
      </trkpt>
      <trkpt lat="48.25611" lon="-3.53297">
        <ele>97.6</ele>
        <time>2022-06-12T10:00:21Z</time>
      </trkpt>
      <trkpt lat="48.25611" lon="-3.53297">
        <ele>97.6</ele>
        <time>2022-06-12T10:00:22Z</time>
      </trkpt>
      <trkpt lat="48.25611" lon="-3.53297">
        <ele>97.6</ele>
        <time>2022-06-12T10:00:23Z</time>
      </trkpt>
      <trkpt lat="48.25611" lon="-3.53297">
        <ele>97.6</ele>
        <time>2022-06-12T10:00:24Z</time>
      </trkpt>
      <trkpt lat="48.25611" lon="-3.53297">
        <ele>97.6</ele>
        <time>2022-06-12T10:00:25Z</time>
      </trkpt>
      <trkpt lat="48.25611" lon="-3.53297">
        <ele>97.6</ele>
        <time>2022-06-12T10:00:26Z</time>
      </trkpt>
      <trkpt lat="48.25611" lon="-3.53297">
        <ele>97.6</ele>
        <time>2022-06-12T10:00:27Z</time>
      </trkpt>
      <trkpt lat="48.25611" lon="-3.53297">
        <ele>97.6</ele>
        <time>2022-06-12T10:00:28Z</time>
      </trkpt>
      <trkpt lat="48.25611" lon="-3.53297">
        <ele>97.6</ele>
        <time>2022-06-12T10:00:29Z</time>
      </trkpt>
      <trkpt lat="48.25611" lon="-3.53297">
        <ele>97.6</ele>
        <time>2022-06-12T10:00:30Z</time>
      </trkpt>
      <trkpt lat="48.25611" lon="-3.53297">
        <ele>97.6</ele>
        <time>2022-06-12T10:00:31Z</time>
      </trkpt>
      <trkpt lat="48.25611" lon="-3.53297">
        <ele>97.6</ele>
        <time>2022-06-12T10:00:32Z</time>
      </trkpt>
      <trkpt lat="48.25611" lon="-3.53297">
        <ele>97.6</ele>
        <time>2022-06-12T10:00:33Z</time>
      </trkpt>
      <trkpt lat="48.25611" lon="-3.53297">
        <ele>97.6</ele>
        <time>2022-06-12T10:00:34Z</time>
      </trkpt>
      <trkpt lat="48.25611" lon="-3.53297">
        <ele>97.6</ele>
        <time>2022-06-12T10:00:35Z</time>
      </trkpt>
      <trkpt lat="48.25611" lon="-3.53297">
        <ele>97.6</ele>
        <time>2022-06-12T10:00:36Z</time>
      </trkpt>
      <trkpt lat="48.25611" lon="-3.53297">
        <ele>97.6</ele>
        <time>2022-06-12T10:00:37Z</time>
      </trkpt>
      <trkpt lat="48.25611" lon="-3.53297">
        <ele>97.6</ele>
        <time>2022-06-12T10:00:38Z</time>
      </trkpt>
      <trkpt lat="48.25611" lon="-3.53297">
        <ele>97.6</ele>
        <time>2022-06-12T10:00:39Z</time>
      </trkpt>
      <trkpt lat="48.25611" lon="-3.53297">
        <ele>97.6</ele>
        <time>2022-06-12T10:00:40Z</time>
      </trkpt>
      <trkpt lat="48.25611" lon="-3.53297">
        <ele>97.6</ele>
        <time>2022-06-12T10:00:41Z</time>
      </trkpt>
      <trkpt lat="48.25611" lon="-3.53297">
        <ele>97.6</ele>
        <time>2022-06-12T10:00:42Z</time>
      </trkpt>
      <trkpt lat="48.25611" lon="-3.53297">
        <ele>97.6</ele>
        <time>2022-06-12T10:00:43Z</time>
      </trkpt>
      <trkpt lat="48.25611" lon="-3.53297">
        <ele>97.6</ele>
        <time>2022-06-12T10:00:44Z</time>
      </trkpt>
      <trkpt lat="48.25611" lon="-3.53297">
        <ele>97.6</ele>
        <time>2022-06-12T10:00:45Z</time>
      </trkpt>
      <trkpt lat="48.25611" lon="-3.53297">
        <ele>97.6</ele>
        <time>2022-06-12T10:00:46Z</time>
      </trkpt>
      <trkpt lat="48.25611" lon="-3.53297">
        <ele>97.6</ele>
        <time>2022-06-12T10:00:47Z</time>
      </trkpt>
      <trkpt lat="48.25611" lon="-3.53297">
        <ele>97.6</ele>
        <time>2022-06-12T10:00:48Z</time>
      </trkpt>
      <trkpt lat="48.25611" lon="-3.53297">
        <ele>97.6</ele>
        <time>2022-06-12T10:00:49Z</time>
      </trkpt>
      <trkpt lat="48.25611" lon="-3.53297">
        <ele>97.6</ele>
        <time>2022-06-12T10:00:50Z</time>
      </trkpt>
      <trkpt lat="48.25611" lon="-3.53297">
        <ele>97.6</ele>
        <time>2022-06-12T10:00:51Z</time>
      </trkpt>
      <trkpt lat="48.25611" lon="-3.53297">
        <ele>97.6</ele>
        <time>2022-06-12T10:00:52Z</time>
      </trkpt>
      <trkpt lat="48.25611" lon="-3.53297">
        <ele>97.6</ele>
        <time>2022-06-12T10:00:53Z</time>
      </trkpt>
      <trkpt lat="48.25611" lon="-3.53297">
        <ele>97.6</ele>
        <time>2022-06-12T10:00:54Z</time>
      </trkpt>
      <trkpt lat="48.25611" lon="-3.53297">
        <ele>97.6</ele>
        <time>2022-06-12T10:00:55Z</time>
      </trkpt>
      <trkpt lat="48.25611" lon="-3.53297">
        <ele>97.6</ele>
        <time>2022-06-12T10:00:56Z</time>
      </trkpt>
      <trkpt lat="48.25611" lon="-3.53297">
        <ele>97.6</ele>
        <time>2022-06-12T10:00:57Z</time>
      </trkpt>
      <trkpt lat="48.25611" lon="-3.53297">
        <ele>97.6</ele>
        <time>2022-06-12T10:00:58Z</time>
      </trkpt>
      <trkpt lat="48.25611" lon="-3.53297">
        <ele>97.6</ele>
        <time>2022-06-12T10:00:59Z</time>
      </trkpt>
      <trkpt lat="48.25611" lon="-3.53297">
        <ele>97.6</ele>
        <time>2022-06-12T10:01:00Z</time>
      </trkpt>
      <trkpt lat="48.25611" lon="-3.53297">
        <ele>97.6</ele>
        <time>2022-06-12T10:01:01Z</time>
      </trkpt>
      <trkpt lat="48.25611" lon="-3.53297">
        <ele>97.6</ele>
        <time>2022-06-12T10:01:02Z</time>
      </trkpt>
      <trkpt lat="48.25611" lon="-3.53297">
        <ele>97.6</ele>
        <time>2022-06-12T10:01:03Z</time>
      </trkpt>
      <trkpt lat="48.25611" lon="-3.53297">
        <ele>97.6</ele>
        <time>2022-06-12T10:01:04Z</time>
      </trkpt>
      <trkpt lat="48.25611" lon="-3.53297">
        <ele>97.6</ele>
        <time>2022-06-12T10:01:05Z</time>
      </trkpt>
      <trkpt lat="48.25611" lon="-3.53297">
        <ele>97.6</ele>
        <time>2022-06-12T10:01:06Z</time>
      </trkpt>
      <trkpt lat="48.25611" lon="-3.53297">
        <ele>97.6</ele>
        <time>2022-06-12T10:01:07Z</time>
      </trkpt>
      <trkpt lat="48.25611" lon="-3.53297">
        <ele>97.6</ele>
        <time>2022-06-12T10:01:08Z</time>
      </trkpt>
      <trkpt lat="48.25611" lon="-3.53297">
        <ele>97.6</ele>
        <time>2022-06-12T10:01:09Z</time>
      </trkpt>
      <trkpt lat="48.25611" lon="-3.53297">
        <ele>97.6</ele>
        <time>2022-06-12T10:01:10Z</time>
      </trkpt>
      <trkpt lat="48.25611" lon="-3.53297">
        <ele>97.6</ele>
        <time>2022-06-12T10:01:11Z</time>
      </trkpt>
      <trkpt lat="48.25611" lon="-3.53297">
        <ele>97.6</ele>
        <time>2022-06-12T10:01:12Z</time>
      </trkpt>
      <trkpt lat="48.25611" lon="-3.53297">
        <ele>97.6</ele>
        <time>2022-06-12T10:01:13Z</time>
      </trkpt>
      <trkpt lat="48.25611" lon="-3.53297">
        <ele>97.6</ele>
        <time>2022-06-12T10:01:14Z</time>
      </trkpt>
      <trkpt lat="48.25611" lon="-3.53297">
        <ele>97.6</ele>
        <time>2022-06-12T10:01:15Z</time>
      </trkpt>
      <trkpt lat="48.25611" lon="-3.53297">
        <ele>97.6</ele>
        <time>2022-06-12T10:01:16Z</time>
      </trkpt>
      <trkpt lat="48.25611" lon="-3.53297">
        <ele>97.6</ele>
        <time>2022-06-12T10:01:17Z</time>
      </trkpt>
      <trkpt lat="48.25611" lon="-3.53297">
        <ele>97.6</ele>
        <time>2022-06-12T10:01:18Z</time>
      </trkpt>
      <trkpt lat="48.25611" lon="-3.53297">
        <ele>97.6</ele>
        <time>2022-06-12T10:01:19Z</time>
      </trkpt>
      <trkpt lat="48.25611" lon="-3.53297">
        <ele>97.6</ele>
        <time>2022-06-12T10:01:20Z</time>
      </trkpt>
      <trkpt lat="48.25611" lon="-3.53297">
        <ele>97.6</ele>
        <time>2022-06-12T10:01:21Z</time>
      </trkpt>
      <trkpt lat="48.25611" lon="-3.53297">
        <ele>97.6</ele>
        <time>2022-06-12T10:01:22Z</time>
      </trkpt>
      <trkpt lat="48.25611" lon="-3.53297">
        <ele>97.6</ele>
        <time>2022-06-12T10:01:23Z</time>
      </trkpt>
      <trkpt lat="48.25611" lon="-3.53297">
        <ele>97.6</ele>
        <time>2022-06-12T10:01:24Z</time>
      </trkpt>
      <trkpt lat="48.25611" lon="-3.53297">
        <ele>97.6</ele>
        <time>2022-06-12T10:01:25Z</time>
      </trkpt>
      <trkpt lat="48.25609" lon="-3.53302">
        <ele>97.6</ele>
        <time>2022-06-12T10:01:26Z</time>
      </trkpt>
      <trkpt lat="48.25608" lon="-3.53304">
        <ele>97.6</ele>
        <time>2022-06-12T10:01:27Z</time>
      </trkpt>
      <trkpt lat="48.25608" lon="-3.53306">
        <ele>97.6</ele>
        <time>2022-06-12T10:01:28Z</time>
      </trkpt>
      <trkpt lat="48.25608" lon="-3.53307">
        <ele>97.6</ele>
        <time>2022-06-12T10:01:29Z</time>
      </trkpt>
      <trkpt lat="48.25608" lon="-3.53307">
        <ele>97.6</ele>
        <time>2022-06-12T10:01:30Z</time>
      </trkpt>
      <trkpt lat="48.25608" lon="-3.53307">
        <ele>97.6</ele>
        <time>2022-06-12T10:01:31Z</time>
      </trkpt>
      <trkpt lat="48.25608" lon="-3.53307">
        <ele>97.6</ele>
        <time>2022-06-12T10:01:32Z</time>
      </trkpt>
      <trkpt lat="48.25608" lon="-3.53307">
        <ele>97.6</ele>
        <time>2022-06-12T10:01:33Z</time>
      </trkpt>
      <trkpt lat="48.25608" lon="-3.53307">
        <ele>97.6</ele>
        <time>2022-06-12T10:01:34Z</time>
      </trkpt>
      <trkpt lat="48.25608" lon="-3.53307">
        <ele>97.6</ele>
        <time>2022-06-12T10:01:35Z</time>
      </trkpt>
      <trkpt lat="48.25608" lon="-3.53307">
        <ele>97.6</ele>
        <time>2022-06-12T10:01:36Z</time>
      </trkpt>
      <trkpt lat="48.25608" lon="-3.53307">
        <ele>97.6</ele>
        <time>2022-06-12T10:01:37Z</time>
      </trkpt>
      <trkpt lat="48.25608" lon="-3.53307">
        <ele>97.6</ele>
        <time>2022-06-12T10:01:38Z</time>
      </trkpt>
      <trkpt lat="48.25608" lon="-3.53307">
        <ele>97.6</ele>
        <time>2022-06-12T10:01:39Z</time>
      </trkpt>
      <trkpt lat="48.25608" lon="-3.53307">
        <ele>97.6</ele>
        <time>2022-06-12T10:01:40Z</time>
      </trkpt>
      <trkpt lat="48.25608" lon="-3.53306">
        <ele>97.6</ele>
        <time>2022-06-12T10:01:41Z</time>
      </trkpt>
      <trkpt lat="48.25608" lon="-3.53306">
        <ele>97.6</ele>
        <time>2022-06-12T10:01:42Z</time>
      </trkpt>
      <trkpt lat="48.25608" lon="-3.53306">
        <ele>97.6</ele>
        <time>2022-06-12T10:01:43Z</time>
      </trkpt>
      <trkpt lat="48.25608" lon="-3.53306">
        <ele>97.6</ele>
        <time>2022-06-12T10:01:44Z</time>
      </trkpt>
      <trkpt lat="48.25608" lon="-3.53306">
        <ele>97.6</ele>
        <time>2022-06-12T10:01:45Z</time>
      </trkpt>
      <trkpt lat="48.25608" lon="-3.53306">
        <ele>97.6</ele>
        <time>2022-06-12T10:01:46Z</time>
      </trkpt>
      <trkpt lat="48.25608" lon="-3.53306">
        <ele>97.6</ele>
        <time>2022-06-12T10:01:47Z</time>
      </trkpt>
      <trkpt lat="48.25608" lon="-3.53306">
        <ele>97.6</ele>
        <time>2022-06-12T10:01:48Z</time>
      </trkpt>
      <trkpt lat="48.25608" lon="-3.53306">
        <ele>97.6</ele>
        <time>2022-06-12T10:01:49Z</time>
      </trkpt>
      <trkpt lat="48.25608" lon="-3.53306">
        <ele>97.6</ele>
        <time>2022-06-12T10:01:50Z</time>
      </trkpt>
      <trkpt lat="48.25608" lon="-3.53306">
        <ele>97.6</ele>
        <time>2022-06-12T10:01:51Z</time>
      </trkpt>
      <trkpt lat="48.25608" lon="-3.53306">
        <ele>97.6</ele>
        <time>2022-06-12T10:01:52Z</time>
      </trkpt>
      <trkpt lat="48.25608" lon="-3.53306">
        <ele>97.6</ele>
        <time>2022-06-12T10:01:53Z</time>
      </trkpt>
      <trkpt lat="48.25608" lon="-3.53306">
        <ele>97.6</ele>
        <time>2022-06-12T10:01:54Z</time>
      </trkpt>
      <trkpt lat="48.25608" lon="-3.53306">
        <ele>97.6</ele>
        <time>2022-06-12T10:01:55Z</time>
      </trkpt>
      <trkpt lat="48.25608" lon="-3.53306">
        <ele>97.6</ele>
        <time>2022-06-12T10:01:56Z</time>
      </trkpt>
      <trkpt lat="48.25608" lon="-3.53306">
        <ele>97.6</ele>
        <time>2022-06-12T10:01:57Z</time>
      </trkpt>
      <trkpt lat="48.25608" lon="-3.53306">
        <ele>97.6</ele>
        <time>2022-06-12T10:01:58Z</time>
      </trkpt>
      <trkpt lat="48.25608" lon="-3.53306">
        <ele>97.6</ele>
        <time>2022-06-12T10:01:59Z</time>
      </trkpt>
      <trkpt lat="48.25608" lon="-3.53306">
        <ele>97.6</ele>
        <time>2022-06-12T10:02:00Z</time>
      </trkpt>
      <trkpt lat="48.25608" lon="-3.53306">
        <ele>97.6</ele>
        <time>2022-06-12T10:02:01Z</time>
      </trkpt>
      <trkpt lat="48.25608" lon="-3.53306">
        <ele>97.6</ele>
        <time>2022-06-12T10:02:02Z</time>
      </trkpt>
      <trkpt lat="48.25608" lon="-3.53306">
        <ele>97.6</ele>
        <time>2022-06-12T10:02:03Z</time>
      </trkpt>
      <trkpt lat="48.25608" lon="-3.53306">
        <ele>97.6</ele>
        <time>2022-06-12T10:02:04Z</time>
      </trkpt>
      <trkpt lat="48.25608" lon="-3.53306">
        <ele>97.6</ele>
        <time>2022-06-12T10:02:05Z</time>
      </trkpt>
      <trkpt lat="48.25608" lon="-3.53306">
        <ele>97.6</ele>
        <time>2022-06-12T10:02:06Z</time>
      </trkpt>
      <trkpt lat="48.25608" lon="-3.53306">
        <ele>97.6</ele>
        <time>2022-06-12T10:02:07Z</time>
      </trkpt>
      <trkpt lat="48.25608" lon="-3.53306">
        <ele>97.6</ele>
        <time>2022-06-12T10:02:08Z</time>
      </trkpt>
      <trkpt lat="48.25608" lon="-3.53306">
        <ele>97.6</ele>
        <time>2022-06-12T10:02:09Z</time>
      </trkpt>
      <trkpt lat="48.25608" lon="-3.53306">
        <ele>97.6</ele>
        <time>2022-06-12T10:02:10Z</time>
      </trkpt>
      <trkpt lat="48.25608" lon="-3.53306">
        <ele>97.6</ele>
        <time>2022-06-12T10:02:11Z</time>
      </trkpt>
      <trkpt lat="48.25608" lon="-3.53306">
        <ele>97.6</ele>
        <time>2022-06-12T10:02:12Z</time>
      </trkpt>
      <trkpt lat="48.25608" lon="-3.53306">
        <ele>97.6</ele>
        <time>2022-06-12T10:02:13Z</time>
      </trkpt>
      <trkpt lat="48.25608" lon="-3.53306">
        <ele>97.6</ele>
        <time>2022-06-12T10:02:14Z</time>
      </trkpt>
      <trkpt lat="48.25608" lon="-3.53306">
        <ele>97.6</ele>
        <time>2022-06-12T10:02:15Z</time>
      </trkpt>
      <trkpt lat="48.25608" lon="-3.53306">
        <ele>97.6</ele>
        <time>2022-06-12T10:02:16Z</time>
      </trkpt>
      <trkpt lat="48.25608" lon="-3.53306">
        <ele>97.6</ele>
        <time>2022-06-12T10:02:17Z</time>
      </trkpt>
      <trkpt lat="48.25608" lon="-3.53306">
        <ele>97.6</ele>
        <time>2022-06-12T10:02:18Z</time>
      </trkpt>
      <trkpt lat="48.25609" lon="-3.53306">
        <ele>97.6</ele>
        <time>2022-06-12T10:02:19Z</time>
      </trkpt>
      <trkpt lat="48.25609" lon="-3.53306">
        <ele>97.6</ele>
        <time>2022-06-12T10:02:20Z</time>
      </trkpt>
      <trkpt lat="48.25609" lon="-3.53306">
        <ele>97.6</ele>
        <time>2022-06-12T10:02:21Z</time>
      </trkpt>
      <trkpt lat="48.25609" lon="-3.53305">
        <ele>97.6</ele>
        <time>2022-06-12T10:02:22Z</time>
      </trkpt>
      <trkpt lat="48.25609" lon="-3.53305">
        <ele>97.6</ele>
        <time>2022-06-12T10:02:23Z</time>
      </trkpt>
      <trkpt lat="48.25609" lon="-3.53305">
        <ele>97.6</ele>
        <time>2022-06-12T10:02:24Z</time>
      </trkpt>
      <trkpt lat="48.25609" lon="-3.53305">
        <ele>97.6</ele>
        <time>2022-06-12T10:02:25Z</time>
      </trkpt>
      <trkpt lat="48.25609" lon="-3.53305">
        <ele>97.6</ele>
        <time>2022-06-12T10:02:26Z</time>
      </trkpt>
      <trkpt lat="48.25609" lon="-3.53305">
        <ele>97.6</ele>
        <time>2022-06-12T10:02:27Z</time>
      </trkpt>
      <trkpt lat="48.25609" lon="-3.53305">
        <ele>97.6</ele>
        <time>2022-06-12T10:02:28Z</time>
      </trkpt>
      <trkpt lat="48.25609" lon="-3.53305">
        <ele>97.6</ele>
        <time>2022-06-12T10:02:29Z</time>
      </trkpt>
      <trkpt lat="48.25609" lon="-3.53305">
        <ele>97.6</ele>
        <time>2022-06-12T10:02:30Z</time>
      </trkpt>
      <trkpt lat="48.25609" lon="-3.53305">
        <ele>97.6</ele>
        <time>2022-06-12T10:02:31Z</time>
      </trkpt>
      <trkpt lat="48.25609" lon="-3.53305">
        <ele>97.6</ele>
        <time>2022-06-12T10:02:32Z</time>
      </trkpt>
      <trkpt lat="48.25609" lon="-3.53305">
        <ele>97.6</ele>
        <time>2022-06-12T10:02:33Z</time>
      </trkpt>
      <trkpt lat="48.25609" lon="-3.53305">
        <ele>97.6</ele>
        <time>2022-06-12T10:02:34Z</time>
      </trkpt>
      <trkpt lat="48.25609" lon="-3.53305">
        <ele>97.6</ele>
        <time>2022-06-12T10:02:35Z</time>
      </trkpt>
      <trkpt lat="48.25609" lon="-3.53305">
        <ele>97.6</ele>
        <time>2022-06-12T10:02:36Z</time>
      </trkpt>
      <trkpt lat="48.25609" lon="-3.53305">
        <ele>97.6</ele>
        <time>2022-06-12T10:02:37Z</time>
      </trkpt>
      <trkpt lat="48.25609" lon="-3.53305">
        <ele>97.6</ele>
        <time>2022-06-12T10:02:38Z</time>
      </trkpt>
      <trkpt lat="48.25609" lon="-3.53305">
        <ele>97.6</ele>
        <time>2022-06-12T10:02:39Z</time>
      </trkpt>
      <trkpt lat="48.25609" lon="-3.53305">
        <ele>97.6</ele>
        <time>2022-06-12T10:02:40Z</time>
      </trkpt>
      <trkpt lat="48.25609" lon="-3.53305">
        <ele>97.6</ele>
        <time>2022-06-12T10:02:41Z</time>
      </trkpt>
      <trkpt lat="48.25609" lon="-3.53305">
        <ele>97.6</ele>
        <time>2022-06-12T10:02:42Z</time>
      </trkpt>
      <trkpt lat="48.25609" lon="-3.53305">
        <ele>97.6</ele>
        <time>2022-06-12T10:02:43Z</time>
      </trkpt>
      <trkpt lat="48.25609" lon="-3.53305">
        <ele>97.6</ele>
        <time>2022-06-12T10:02:44Z</time>
      </trkpt>
      <trkpt lat="48.25609" lon="-3.53305">
        <ele>97.6</ele>
        <time>2022-06-12T10:02:45Z</time>
      </trkpt>
      <trkpt lat="48.25609" lon="-3.53305">
        <ele>97.6</ele>
        <time>2022-06-12T10:02:46Z</time>
      </trkpt>
      <trkpt lat="48.25609" lon="-3.53305">
        <ele>97.6</ele>
        <time>2022-06-12T10:02:47Z</time>
      </trkpt>
      <trkpt lat="48.25609" lon="-3.53305">
        <ele>97.6</ele>
        <time>2022-06-12T10:02:48Z</time>
      </trkpt>
      <trkpt lat="48.25609" lon="-3.53305">
        <ele>97.6</ele>
        <time>2022-06-12T10:02:49Z</time>
      </trkpt>
      <trkpt lat="48.25609" lon="-3.53305">
        <ele>97.6</ele>
        <time>2022-06-12T10:02:50Z</time>
      </trkpt>
      <trkpt lat="48.25609" lon="-3.53305">
        <ele>97.6</ele>
        <time>2022-06-12T10:02:51Z</time>
      </trkpt>
      <trkpt lat="48.25609" lon="-3.53305">
        <ele>97.6</ele>
        <time>2022-06-12T10:02:52Z</time>
      </trkpt>
      <trkpt lat="48.25609" lon="-3.53305">
        <ele>97.6</ele>
        <time>2022-06-12T10:02:53Z</time>
      </trkpt>
      <trkpt lat="48.25609" lon="-3.53305">
        <ele>97.6</ele>
        <time>2022-06-12T10:02:54Z</time>
      </trkpt>
      <trkpt lat="48.25609" lon="-3.53305">
        <ele>97.6</ele>
        <time>2022-06-12T10:02:55Z</time>
      </trkpt>
      <trkpt lat="48.25609" lon="-3.53305">
        <ele>97.6</ele>
        <time>2022-06-12T10:02:56Z</time>
      </trkpt>
      <trkpt lat="48.25609" lon="-3.53305">
        <ele>97.6</ele>
        <time>2022-06-12T10:02:57Z</time>
      </trkpt>
      <trkpt lat="48.25609" lon="-3.53305">
        <ele>97.6</ele>
        <time>2022-06-12T10:02:58Z</time>
      </trkpt>
      <trkpt lat="48.25609" lon="-3.53305">
        <ele>97.6</ele>
        <time>2022-06-12T10:02:59Z</time>
      </trkpt>
      <trkpt lat="48.25609" lon="-3.53305">
        <ele>97.6</ele>
        <time>2022-06-12T10:03:00Z</time>
      </trkpt>
      <trkpt lat="48.25609" lon="-3.53305">
        <ele>97.6</ele>
        <time>2022-06-12T10:03:01Z</time>
      </trkpt>
      <trkpt lat="48.25609" lon="-3.53304">
        <ele>97.6</ele>
        <time>2022-06-12T10:03:02Z</time>
      </trkpt>
      <trkpt lat="48.25609" lon="-3.53304">
        <ele>97.6</ele>
        <time>2022-06-12T10:03:03Z</time>
      </trkpt>
      <trkpt lat="48.25609" lon="-3.53304">
        <ele>97.6</ele>
        <time>2022-06-12T10:03:04Z</time>
      </trkpt>
      <trkpt lat="48.25609" lon="-3.53304">
        <ele>97.6</ele>
        <time>2022-06-12T10:03:05Z</time>
      </trkpt>
      <trkpt lat="48.25609" lon="-3.53304">
        <ele>97.6</ele>
        <time>2022-06-12T10:03:06Z</time>
      </trkpt>
      <trkpt lat="48.25609" lon="-3.53304">
        <ele>97.6</ele>
        <time>2022-06-12T10:03:07Z</time>
      </trkpt>
      <trkpt lat="48.25609" lon="-3.53304">
        <ele>97.6</ele>
        <time>2022-06-12T10:03:08Z</time>
      </trkpt>
      <trkpt lat="48.25609" lon="-3.53304">
        <ele>97.6</ele>
        <time>2022-06-12T10:03:09Z</time>
      </trkpt>
      <trkpt lat="48.25609" lon="-3.53304">
        <ele>97.6</ele>
        <time>2022-06-12T10:03:10Z</time>
      </trkpt>
      <trkpt lat="48.25609" lon="-3.53304">
        <ele>97.6</ele>
        <time>2022-06-12T10:03:11Z</time>
      </trkpt>
      <trkpt lat="48.25609" lon="-3.53304">
        <ele>97.6</ele>
        <time>2022-06-12T10:03:12Z</time>
      </trkpt>
      <trkpt lat="48.25609" lon="-3.53304">
        <ele>97.6</ele>
        <time>2022-06-12T10:03:13Z</time>
      </trkpt>
      <trkpt lat="48.25609" lon="-3.53304">
        <ele>97.6</ele>
        <time>2022-06-12T10:03:14Z</time>
      </trkpt>
      <trkpt lat="48.25609" lon="-3.53304">
        <ele>97.6</ele>
        <time>2022-06-12T10:03:15Z</time>
      </trkpt>
      <trkpt lat="48.25609" lon="-3.53304">
        <ele>97.6</ele>
        <time>2022-06-12T10:03:16Z</time>
      </trkpt>
      <trkpt lat="48.25609" lon="-3.53304">
        <ele>97.6</ele>
        <time>2022-06-12T10:03:17Z</time>
      </trkpt>
      <trkpt lat="48.25609" lon="-3.53304">
        <ele>97.6</ele>
        <time>2022-06-12T10:03:18Z</time>
      </trkpt>
      <trkpt lat="48.25609" lon="-3.53304">
        <ele>97.6</ele>
        <time>2022-06-12T10:03:19Z</time>
      </trkpt>
      <trkpt lat="48.25609" lon="-3.53304">
        <ele>97.6</ele>
        <time>2022-06-12T10:03:20Z</time>
      </trkpt>
      <trkpt lat="48.25609" lon="-3.53304">
        <ele>97.6</ele>
        <time>2022-06-12T10:03:21Z</time>
      </trkpt>
      <trkpt lat="48.25609" lon="-3.53304">
        <ele>97.6</ele>
        <time>2022-06-12T10:03:22Z</time>
      </trkpt>
      <trkpt lat="48.25609" lon="-3.53304">
        <ele>97.6</ele>
        <time>2022-06-12T10:03:23Z</time>
      </trkpt>
      <trkpt lat="48.25609" lon="-3.53304">
        <ele>97.6</ele>
        <time>2022-06-12T10:03:24Z</time>
      </trkpt>
      <trkpt lat="48.25609" lon="-3.53304">
        <ele>97.6</ele>
        <time>2022-06-12T10:03:25Z</time>
      </trkpt>
      <trkpt lat="48.25609" lon="-3.53304">
        <ele>97.6</ele>
        <time>2022-06-12T10:03:26Z</time>
      </trkpt>
      <trkpt lat="48.25609" lon="-3.53304">
        <ele>97.6</ele>
        <time>2022-06-12T10:03:27Z</time>
      </trkpt>
      <trkpt lat="48.25609" lon="-3.53304">
        <ele>97.6</ele>
        <time>2022-06-12T10:03:28Z</time>
      </trkpt>
      <trkpt lat="48.25609" lon="-3.53304">
        <ele>97.6</ele>
        <time>2022-06-12T10:03:29Z</time>
      </trkpt>
      <trkpt lat="48.2561" lon="-3.53304">
        <ele>97.6</ele>
        <time>2022-06-12T10:03:30Z</time>
      </trkpt>
      <trkpt lat="48.2561" lon="-3.53304">
        <ele>97.6</ele>
        <time>2022-06-12T10:03:31Z</time>
      </trkpt>
      <trkpt lat="48.2561" lon="-3.53304">
        <ele>97.6</ele>
        <time>2022-06-12T10:03:32Z</time>
      </trkpt>
      <trkpt lat="48.2561" lon="-3.53304">
        <ele>97.6</ele>
        <time>2022-06-12T10:03:33Z</time>
      </trkpt>
      <trkpt lat="48.2561" lon="-3.53304">
        <ele>97.6</ele>
        <time>2022-06-12T10:03:34Z</time>
      </trkpt>
      <trkpt lat="48.2561" lon="-3.53304">
        <ele>97.6</ele>
        <time>2022-06-12T10:03:35Z</time>
      </trkpt>
      <trkpt lat="48.2561" lon="-3.53304">
        <ele>97.6</ele>
        <time>2022-06-12T10:03:36Z</time>
      </trkpt>
      <trkpt lat="48.2561" lon="-3.53304">
        <ele>97.6</ele>
        <time>2022-06-12T10:03:37Z</time>
      </trkpt>
      <trkpt lat="48.2561" lon="-3.53304">
        <ele>97.6</ele>
        <time>2022-06-12T10:03:38Z</time>
      </trkpt>
      <trkpt lat="48.2561" lon="-3.53304">
        <ele>97.6</ele>
        <time>2022-06-12T10:03:39Z</time>
      </trkpt>
      <trkpt lat="48.2561" lon="-3.53304">
        <ele>97.6</ele>
        <time>2022-06-12T10:03:40Z</time>
      </trkpt>
      <trkpt lat="48.2561" lon="-3.53304">
        <ele>97.6</ele>
        <time>2022-06-12T10:03:41Z</time>
      </trkpt>
      <trkpt lat="48.2561" lon="-3.53304">
        <ele>97.6</ele>
        <time>2022-06-12T10:03:42Z</time>
      </trkpt>
      <trkpt lat="48.2561" lon="-3.53303">
        <ele>97.6</ele>
        <time>2022-06-12T10:03:43Z</time>
      </trkpt>
      <trkpt lat="48.2561" lon="-3.53303">
        <ele>97.6</ele>
        <time>2022-06-12T10:03:44Z</time>
      </trkpt>
      <trkpt lat="48.2561" lon="-3.53303">
        <ele>97.6</ele>
        <time>2022-06-12T10:03:45Z</time>
      </trkpt>
      <trkpt lat="48.2561" lon="-3.53303">
        <ele>97.6</ele>
        <time>2022-06-12T10:03:46Z</time>
      </trkpt>
      <trkpt lat="48.2561" lon="-3.53303">
        <ele>97.6</ele>
        <time>2022-06-12T10:03:47Z</time>
      </trkpt>
      <trkpt lat="48.2561" lon="-3.53303">
        <ele>97.6</ele>
        <time>2022-06-12T10:03:48Z</time>
      </trkpt>
      <trkpt lat="48.2561" lon="-3.53303">
        <ele>97.6</ele>
        <time>2022-06-12T10:03:49Z</time>
      </trkpt>
      <trkpt lat="48.2561" lon="-3.53303">
        <ele>97.6</ele>
        <time>2022-06-12T10:03:50Z</time>
      </trkpt>
      <trkpt lat="48.2561" lon="-3.53303">
        <ele>97.6</ele>
        <time>2022-06-12T10:03:51Z</time>
      </trkpt>
      <trkpt lat="48.2561" lon="-3.53303">
        <ele>97.6</ele>
        <time>2022-06-12T10:03:52Z</time>
      </trkpt>
      <trkpt lat="48.2561" lon="-3.53303">
        <ele>97.6</ele>
        <time>2022-06-12T10:03:53Z</time>
      </trkpt>
      <trkpt lat="48.2561" lon="-3.53303">
        <ele>97.6</ele>
        <time>2022-06-12T10:03:54Z</time>
      </trkpt>
      <trkpt lat="48.2561" lon="-3.53303">
        <ele>97.6</ele>
        <time>2022-06-12T10:03:55Z</time>
      </trkpt>
      <trkpt lat="48.2561" lon="-3.53303">
        <ele>97.6</ele>
        <time>2022-06-12T10:03:56Z</time>
      </trkpt>
      <trkpt lat="48.2561" lon="-3.53303">
        <ele>97.6</ele>
        <time>2022-06-12T10:03:57Z</time>
      </trkpt>
      <trkpt lat="48.2561" lon="-3.53303">
        <ele>97.6</ele>
        <time>2022-06-12T10:03:58Z</time>
      </trkpt>
      <trkpt lat="48.2561" lon="-3.53303">
        <ele>97.6</ele>
        <time>2022-06-12T10:03:59Z</time>
      </trkpt>
      <trkpt lat="48.2561" lon="-3.53303">
        <ele>97.6</ele>
        <time>2022-06-12T10:04:00Z</time>
      </trkpt>
      <trkpt lat="48.2561" lon="-3.53303">
        <ele>97.6</ele>
        <time>2022-06-12T10:04:01Z</time>
      </trkpt>
      <trkpt lat="48.2561" lon="-3.53303">
        <ele>97.6</ele>
        <time>2022-06-12T10:04:02Z</time>
      </trkpt>
      <trkpt lat="48.2561" lon="-3.53303">
        <ele>97.6</ele>
        <time>2022-06-12T10:04:03Z</time>
      </trkpt>
      <trkpt lat="48.2561" lon="-3.53303">
        <ele>97.6</ele>
        <time>2022-06-12T10:04:04Z</time>
      </trkpt>
      <trkpt lat="48.2561" lon="-3.53303">
        <ele>97.6</ele>
        <time>2022-06-12T10:04:05Z</time>
      </trkpt>
      <trkpt lat="48.2561" lon="-3.53303">
        <ele>97.6</ele>
        <time>2022-06-12T10:04:06Z</time>
      </trkpt>
      <trkpt lat="48.2561" lon="-3.53303">
        <ele>97.6</ele>
        <time>2022-06-12T10:04:07Z</time>
      </trkpt>
      <trkpt lat="48.2561" lon="-3.53303">
        <ele>97.6</ele>
        <time>2022-06-12T10:04:08Z</time>
      </trkpt>
      <trkpt lat="48.2561" lon="-3.53303">
        <ele>97.6</ele>
        <time>2022-06-12T10:04:09Z</time>
      </trkpt>
      <trkpt lat="48.2561" lon="-3.53303">
        <ele>97.6</ele>
        <time>2022-06-12T10:04:10Z</time>
      </trkpt>
      <trkpt lat="48.2561" lon="-3.53303">
        <ele>97.6</ele>
        <time>2022-06-12T10:04:11Z</time>
      </trkpt>
      <trkpt lat="48.2561" lon="-3.53303">
        <ele>97.6</ele>
        <time>2022-06-12T10:04:12Z</time>
      </trkpt>
      <trkpt lat="48.2561" lon="-3.53303">
        <ele>97.6</ele>
        <time>2022-06-12T10:04:13Z</time>
      </trkpt>
      <trkpt lat="48.2561" lon="-3.53303">
        <ele>97.6</ele>
        <time>2022-06-12T10:04:14Z</time>
      </trkpt>
      <trkpt lat="48.2561" lon="-3.53303">
        <ele>97.6</ele>
        <time>2022-06-12T10:04:15Z</time>
      </trkpt>
      <trkpt lat="48.2561" lon="-3.53303">
        <ele>97.6</ele>
        <time>2022-06-12T10:04:16Z</time>
      </trkpt>
      <trkpt lat="48.2561" lon="-3.53303">
        <ele>97.6</ele>
        <time>2022-06-12T10:04:17Z</time>
      </trkpt>
      <trkpt lat="48.2561" lon="-3.53303">
        <ele>97.6</ele>
        <time>2022-06-12T10:04:18Z</time>
      </trkpt>
      <trkpt lat="48.2561" lon="-3.53303">
        <ele>97.6</ele>
        <time>2022-06-12T10:04:19Z</time>
      </trkpt>
      <trkpt lat="48.2561" lon="-3.53303">
        <ele>97.6</ele>
        <time>2022-06-12T10:04:20Z</time>
      </trkpt>
      <trkpt lat="48.2561" lon="-3.53303">
        <ele>97.6</ele>
        <time>2022-06-12T10:04:21Z</time>
      </trkpt>
      <trkpt lat="48.2561" lon="-3.53303">
        <ele>97.6</ele>
        <time>2022-06-12T10:04:22Z</time>
      </trkpt>
      <trkpt lat="48.2561" lon="-3.53303">
        <ele>97.6</ele>
        <time>2022-06-12T10:04:23Z</time>
      </trkpt>
      <trkpt lat="48.2561" lon="-3.53302">
        <ele>97.6</ele>
        <time>2022-06-12T10:04:24Z</time>
      </trkpt>
      <trkpt lat="48.2561" lon="-3.53302">
        <ele>97.6</ele>
        <time>2022-06-12T10:04:25Z</time>
      </trkpt>
      <trkpt lat="48.2561" lon="-3.53302">
        <ele>97.6</ele>
        <time>2022-06-12T10:04:26Z</time>
      </trkpt>
      <trkpt lat="48.2561" lon="-3.53302">
        <ele>97.6</ele>
        <time>2022-06-12T10:04:27Z</time>
      </trkpt>
      <trkpt lat="48.2561" lon="-3.53302">
        <ele>97.6</ele>
        <time>2022-06-12T10:04:28Z</time>
      </trkpt>
      <trkpt lat="48.2561" lon="-3.53302">
        <ele>97.6</ele>
        <time>2022-06-12T10:04:29Z</time>
      </trkpt>
      <trkpt lat="48.2561" lon="-3.53302">
        <ele>97.6</ele>
        <time>2022-06-12T10:04:30Z</time>
      </trkpt>
      <trkpt lat="48.2561" lon="-3.53302">
        <ele>97.6</ele>
        <time>2022-06-12T10:04:31Z</time>
      </trkpt>
      <trkpt lat="48.2561" lon="-3.53302">
        <ele>97.6</ele>
        <time>2022-06-12T10:04:32Z</time>
      </trkpt>
      <trkpt lat="48.2561" lon="-3.53302">
        <ele>97.6</ele>
        <time>2022-06-12T10:04:33Z</time>
      </trkpt>
      <trkpt lat="48.2561" lon="-3.53302">
        <ele>97.6</ele>
        <time>2022-06-12T10:04:34Z</time>
      </trkpt>
      <trkpt lat="48.2561" lon="-3.53302">
        <ele>97.6</ele>
        <time>2022-06-12T10:04:35Z</time>
      </trkpt>
      <trkpt lat="48.2561" lon="-3.53302">
        <ele>97.6</ele>
        <time>2022-06-12T10:04:36Z</time>
      </trkpt>
      <trkpt lat="48.2561" lon="-3.53302">
        <ele>97.6</ele>
        <time>2022-06-12T10:04:37Z</time>
      </trkpt>
      <trkpt lat="48.2561" lon="-3.53302">
        <ele>97.6</ele>
        <time>2022-06-12T10:04:38Z</time>
      </trkpt>
      <trkpt lat="48.2561" lon="-3.53302">
        <ele>97.6</ele>
        <time>2022-06-12T10:04:39Z</time>
      </trkpt>
      <trkpt lat="48.25611" lon="-3.53302">
        <ele>97.6</ele>
        <time>2022-06-12T10:04:40Z</time>
      </trkpt>
      <trkpt lat="48.25611" lon="-3.53302">
        <ele>97.6</ele>
        <time>2022-06-12T10:04:41Z</time>
      </trkpt>
      <trkpt lat="48.25611" lon="-3.53302">
        <ele>97.6</ele>
        <time>2022-06-12T10:04:42Z</time>
      </trkpt>
      <trkpt lat="48.25611" lon="-3.53302">
        <ele>97.6</ele>
        <time>2022-06-12T10:04:43Z</time>
      </trkpt>
      <trkpt lat="48.25611" lon="-3.53302">
        <ele>97.6</ele>
        <time>2022-06-12T10:04:44Z</time>
      </trkpt>
      <trkpt lat="48.25611" lon="-3.53302">
        <ele>97.6</ele>
        <time>2022-06-12T10:04:45Z</time>
      </trkpt>
      <trkpt lat="48.25611" lon="-3.53302">
        <ele>97.6</ele>
        <time>2022-06-12T10:04:46Z</time>
      </trkpt>
      <trkpt lat="48.25611" lon="-3.53302">
        <ele>97.6</ele>
        <time>2022-06-12T10:04:47Z</time>
      </trkpt>
      <trkpt lat="48.25611" lon="-3.53302">
        <ele>97.6</ele>
        <time>2022-06-12T10:04:48Z</time>
      </trkpt>
      <trkpt lat="48.25611" lon="-3.53302">
        <ele>97.6</ele>
        <time>2022-06-12T10:04:49Z</time>
      </trkpt>
      <trkpt lat="48.25611" lon="-3.53302">
        <ele>97.6</ele>
        <time>2022-06-12T10:04:50Z</time>
      </trkpt>
      <trkpt lat="48.25611" lon="-3.53302">
        <ele>97.6</ele>
        <time>2022-06-12T10:04:51Z</time>
      </trkpt>
      <trkpt lat="48.25611" lon="-3.53302">
        <ele>97.6</ele>
        <time>2022-06-12T10:04:52Z</time>
      </trkpt>
      <trkpt lat="48.25611" lon="-3.53302">
        <ele>97.6</ele>
        <time>2022-06-12T10:04:53Z</time>
      </trkpt>
      <trkpt lat="48.25611" lon="-3.53302">
        <ele>97.6</ele>
        <time>2022-06-12T10:04:54Z</time>
      </trkpt>
      <trkpt lat="48.25611" lon="-3.53302">
        <ele>97.6</ele>
        <time>2022-06-12T10:04:55Z</time>
      </trkpt>
      <trkpt lat="48.25611" lon="-3.53302">
        <ele>97.6</ele>
        <time>2022-06-12T10:04:56Z</time>
      </trkpt>
      <trkpt lat="48.25611" lon="-3.53302">
        <ele>97.6</ele>
        <time>2022-06-12T10:04:57Z</time>
      </trkpt>
      <trkpt lat="48.25611" lon="-3.53302">
        <ele>97.6</ele>
        <time>2022-06-12T10:04:58Z</time>
      </trkpt>
      <trkpt lat="48.25611" lon="-3.53302">
        <ele>97.6</ele>
        <time>2022-06-12T10:04:59Z</time>
      </trkpt>
      <trkpt lat="48.25611" lon="-3.53302">
        <ele>97.6</ele>
        <time>2022-06-12T10:05:00Z</time>
      </trkpt>
      <trkpt lat="48.25611" lon="-3.53302">
        <ele>97.6</ele>
        <time>2022-06-12T10:05:01Z</time>
      </trkpt>
      <trkpt lat="48.25611" lon="-3.53302">
        <ele>97.6</ele>
        <time>2022-06-12T10:05:02Z</time>
      </trkpt>
      <trkpt lat="48.25611" lon="-3.53302">
        <ele>97.6</ele>
        <time>2022-06-12T10:05:03Z</time>
      </trkpt>
      <trkpt lat="48.25611" lon="-3.53301">
        <ele>97.6</ele>
        <time>2022-06-12T10:05:04Z</time>
      </trkpt>
      <trkpt lat="48.25611" lon="-3.53301">
        <ele>97.6</ele>
        <time>2022-06-12T10:05:05Z</time>
      </trkpt>
      <trkpt lat="48.25611" lon="-3.53301">
        <ele>97.6</ele>
        <time>2022-06-12T10:05:06Z</time>
      </trkpt>
      <trkpt lat="48.25611" lon="-3.53301">
        <ele>97.6</ele>
        <time>2022-06-12T10:05:07Z</time>
      </trkpt>
      <trkpt lat="48.25611" lon="-3.53301">
        <ele>97.6</ele>
        <time>2022-06-12T10:05:08Z</time>
      </trkpt>
      <trkpt lat="48.25611" lon="-3.53301">
        <ele>97.6</ele>
        <time>2022-06-12T10:05:09Z</time>
      </trkpt>
      <trkpt lat="48.25611" lon="-3.53301">
        <ele>97.6</ele>
        <time>2022-06-12T10:05:10Z</time>
      </trkpt>
      <trkpt lat="48.25611" lon="-3.53301">
        <ele>97.6</ele>
        <time>2022-06-12T10:05:11Z</time>
      </trkpt>
      <trkpt lat="48.25611" lon="-3.53301">
        <ele>97.6</ele>
        <time>2022-06-12T10:05:12Z</time>
      </trkpt>
      <trkpt lat="48.25611" lon="-3.53301">
        <ele>97.6</ele>
        <time>2022-06-12T10:05:13Z</time>
      </trkpt>
      <trkpt lat="48.25611" lon="-3.53301">
        <ele>97.6</ele>
        <time>2022-06-12T10:05:14Z</time>
      </trkpt>
      <trkpt lat="48.25611" lon="-3.53301">
        <ele>97.6</ele>
        <time>2022-06-12T10:05:15Z</time>
      </trkpt>
      <trkpt lat="48.25611" lon="-3.53301">
        <ele>97.6</ele>
        <time>2022-06-12T10:05:16Z</time>
      </trkpt>
      <trkpt lat="48.25611" lon="-3.53301">
        <ele>97.6</ele>
        <time>2022-06-12T10:05:17Z</time>
      </trkpt>
      <trkpt lat="48.25611" lon="-3.53301">
        <ele>97.6</ele>
        <time>2022-06-12T10:05:18Z</time>
      </trkpt>
      <trkpt lat="48.25611" lon="-3.53301">
        <ele>97.6</ele>
        <time>2022-06-12T10:05:19Z</time>
      </trkpt>
      <trkpt lat="48.25611" lon="-3.53301">
        <ele>97.6</ele>
        <time>2022-06-12T10:05:20Z</time>
      </trkpt>
      <trkpt lat="48.25611" lon="-3.53301">
        <ele>97.6</ele>
        <time>2022-06-12T10:05:21Z</time>
      </trkpt>
      <trkpt lat="48.25611" lon="-3.53301">
        <ele>97.6</ele>
        <time>2022-06-12T10:05:22Z</time>
      </trkpt>
      <trkpt lat="48.25611" lon="-3.53301">
        <ele>97.6</ele>
        <time>2022-06-12T10:05:23Z</time>
      </trkpt>
      <trkpt lat="48.25611" lon="-3.53301">
        <ele>97.6</ele>
        <time>2022-06-12T10:05:24Z</time>
      </trkpt>
      <trkpt lat="48.25611" lon="-3.53301">
        <ele>97.6</ele>
        <time>2022-06-12T10:05:25Z</time>
      </trkpt>
      <trkpt lat="48.25611" lon="-3.53301">
        <ele>97.6</ele>
        <time>2022-06-12T10:05:26Z</time>
      </trkpt>
      <trkpt lat="48.25611" lon="-3.53301">
        <ele>97.6</ele>
        <time>2022-06-12T10:05:27Z</time>
      </trkpt>
      <trkpt lat="48.25611" lon="-3.53301">
        <ele>97.6</ele>
        <time>2022-06-12T10:05:28Z</time>
      </trkpt>
      <trkpt lat="48.25611" lon="-3.53301">
        <ele>97.6</ele>
        <time>2022-06-12T10:05:29Z</time>
      </trkpt>
      <trkpt lat="48.25611" lon="-3.53301">
        <ele>97.6</ele>
        <time>2022-06-12T10:05:30Z</time>
      </trkpt>
      <trkpt lat="48.25611" lon="-3.53301">
        <ele>97.6</ele>
        <time>2022-06-12T10:05:31Z</time>
      </trkpt>
      <trkpt lat="48.25611" lon="-3.53301">
        <ele>97.6</ele>
        <time>2022-06-12T10:05:32Z</time>
      </trkpt>
      <trkpt lat="48.25611" lon="-3.53301">
        <ele>97.6</ele>
        <time>2022-06-12T10:05:33Z</time>
      </trkpt>
      <trkpt lat="48.25611" lon="-3.53301">
        <ele>97.6</ele>
        <time>2022-06-12T10:05:34Z</time>
      </trkpt>
      <trkpt lat="48.25611" lon="-3.53301">
        <ele>97.6</ele>
        <time>2022-06-12T10:05:35Z</time>
      </trkpt>
      <trkpt lat="48.25611" lon="-3.53301">
        <ele>97.6</ele>
        <time>2022-06-12T10:05:36Z</time>
      </trkpt>
      <trkpt lat="48.25611" lon="-3.53301">
        <ele>97.6</ele>
        <time>2022-06-12T10:05:37Z</time>
      </trkpt>
      <trkpt lat="48.25611" lon="-3.53301">
        <ele>97.6</ele>
        <time>2022-06-12T10:05:38Z</time>
      </trkpt>
      <trkpt lat="48.25611" lon="-3.53301">
        <ele>97.6</ele>
        <time>2022-06-12T10:05:39Z</time>
      </trkpt>
      <trkpt lat="48.25611" lon="-3.53301">
        <ele>97.6</ele>
        <time>2022-06-12T10:05:40Z</time>
      </trkpt>
      <trkpt lat="48.25611" lon="-3.53301">
        <ele>97.6</ele>
        <time>2022-06-12T10:05:41Z</time>
      </trkpt>
      <trkpt lat="48.25611" lon="-3.53301">
        <ele>97.6</ele>
        <time>2022-06-12T10:05:42Z</time>
      </trkpt>
      <trkpt lat="48.25611" lon="-3.53301">
        <ele>97.6</ele>
        <time>2022-06-12T10:05:43Z</time>
      </trkpt>
      <trkpt lat="48.25611" lon="-3.53301">
        <ele>97.6</ele>
        <time>2022-06-12T10:05:44Z</time>
      </trkpt>
      <trkpt lat="48.25611" lon="-3.533">
        <ele>97.6</ele>
        <time>2022-06-12T10:05:45Z</time>
      </trkpt>
      <trkpt lat="48.25611" lon="-3.533">
        <ele>97.6</ele>
        <time>2022-06-12T10:05:46Z</time>
      </trkpt>
      <trkpt lat="48.25611" lon="-3.533">
        <ele>97.6</ele>
        <time>2022-06-12T10:05:47Z</time>
      </trkpt>
      <trkpt lat="48.25611" lon="-3.533">
        <ele>97.6</ele>
        <time>2022-06-12T10:05:48Z</time>
      </trkpt>
      <trkpt lat="48.25611" lon="-3.533">
        <ele>97.6</ele>
        <time>2022-06-12T10:05:49Z</time>
      </trkpt>
      <trkpt lat="48.25611" lon="-3.533">
        <ele>97.6</ele>
        <time>2022-06-12T10:05:50Z</time>
      </trkpt>
      <trkpt lat="48.25612" lon="-3.533">
        <ele>97.6</ele>
        <time>2022-06-12T10:05:51Z</time>
      </trkpt>
      <trkpt lat="48.25612" lon="-3.533">
        <ele>97.6</ele>
        <time>2022-06-12T10:05:52Z</time>
      </trkpt>
      <trkpt lat="48.25612" lon="-3.533">
        <ele>97.6</ele>
        <time>2022-06-12T10:05:53Z</time>
      </trkpt>
      <trkpt lat="48.25612" lon="-3.533">
        <ele>97.6</ele>
        <time>2022-06-12T10:05:54Z</time>
      </trkpt>
      <trkpt lat="48.25612" lon="-3.533">
        <ele>97.6</ele>
        <time>2022-06-12T10:05:55Z</time>
      </trkpt>
      <trkpt lat="48.25612" lon="-3.533">
        <ele>97.6</ele>
        <time>2022-06-12T10:05:56Z</time>
      </trkpt>
      <trkpt lat="48.25612" lon="-3.533">
        <ele>97.6</ele>
        <time>2022-06-12T10:05:57Z</time>
      </trkpt>
      <trkpt lat="48.25612" lon="-3.533">
        <ele>97.6</ele>
        <time>2022-06-12T10:05:58Z</time>
      </trkpt>
      <trkpt lat="48.25612" lon="-3.533">
        <ele>97.6</ele>
        <time>2022-06-12T10:05:59Z</time>
      </trkpt>
      <trkpt lat="48.25612" lon="-3.533">
        <ele>97.6</ele>
        <time>2022-06-12T10:06:00Z</time>
      </trkpt>
      <trkpt lat="48.25612" lon="-3.533">
        <ele>97.6</ele>
        <time>2022-06-12T10:06:01Z</time>
      </trkpt>
      <trkpt lat="48.25612" lon="-3.533">
        <ele>97.6</ele>
        <time>2022-06-12T10:06:02Z</time>
      </trkpt>
      <trkpt lat="48.25612" lon="-3.533">
        <ele>97.6</ele>
        <time>2022-06-12T10:06:03Z</time>
      </trkpt>
      <trkpt lat="48.25612" lon="-3.533">
        <ele>97.6</ele>
        <time>2022-06-12T10:06:04Z</time>
      </trkpt>
      <trkpt lat="48.25612" lon="-3.533">
        <ele>97.6</ele>
        <time>2022-06-12T10:06:05Z</time>
      </trkpt>
      <trkpt lat="48.25612" lon="-3.533">
        <ele>97.6</ele>
        <time>2022-06-12T10:06:06Z</time>
      </trkpt>
      <trkpt lat="48.25612" lon="-3.533">
        <ele>97.6</ele>
        <time>2022-06-12T10:06:07Z</time>
      </trkpt>
      <trkpt lat="48.25612" lon="-3.533">
        <ele>97.6</ele>
        <time>2022-06-12T10:06:08Z</time>
      </trkpt>
      <trkpt lat="48.25612" lon="-3.533">
        <ele>97.6</ele>
        <time>2022-06-12T10:06:09Z</time>
      </trkpt>
      <trkpt lat="48.25612" lon="-3.533">
        <ele>97.6</ele>
        <time>2022-06-12T10:06:10Z</time>
      </trkpt>
      <trkpt lat="48.25612" lon="-3.533">
        <ele>97.6</ele>
        <time>2022-06-12T10:06:11Z</time>
      </trkpt>
      <trkpt lat="48.25612" lon="-3.533">
        <ele>97.6</ele>
        <time>2022-06-12T10:06:12Z</time>
      </trkpt>
      <trkpt lat="48.25612" lon="-3.533">
        <ele>97.6</ele>
        <time>2022-06-12T10:06:14Z</time>
      </trkpt>
      <trkpt lat="48.25612" lon="-3.533">
        <ele>97.6</ele>
        <time>2022-06-12T10:06:15Z</time>
      </trkpt>
      <trkpt lat="48.25612" lon="-3.533">
        <ele>97.6</ele>
        <time>2022-06-12T10:06:16Z</time>
      </trkpt>
      <trkpt lat="48.25612" lon="-3.533">
        <ele>97.6</ele>
        <time>2022-06-12T10:06:17Z</time>
      </trkpt>
      <trkpt lat="48.25612" lon="-3.53298">
        <ele>97.6</ele>
        <time>2022-06-12T10:06:18Z</time>
      </trkpt>
      <trkpt lat="48.25613" lon="-3.53294">
        <ele>97.6</ele>
        <time>2022-06-12T10:06:20Z</time>
      </trkpt>
      <trkpt lat="48.25613" lon="-3.53292">
        <ele>97.6</ele>
        <time>2022-06-12T10:06:21Z</time>
      </trkpt>
      <trkpt lat="48.25613" lon="-3.53291">
        <ele>97.6</ele>
        <time>2022-06-12T10:06:22Z</time>
      </trkpt>
      <trkpt lat="48.25613" lon="-3.53289">
        <ele>97.6</ele>
        <time>2022-06-12T10:06:23Z</time>
      </trkpt>
      <trkpt lat="48.25614" lon="-3.53287">
        <ele>97.6</ele>
        <time>2022-06-12T10:06:24Z</time>
      </trkpt>
      <trkpt lat="48.25614" lon="-3.53284">
        <ele>97.6</ele>
        <time>2022-06-12T10:06:25Z</time>
      </trkpt>
      <trkpt lat="48.25614" lon="-3.53283">
        <ele>97.6</ele>
        <time>2022-06-12T10:06:26Z</time>
      </trkpt>
      <trkpt lat="48.25614" lon="-3.53281">
        <ele>97.6</ele>
        <time>2022-06-12T10:06:28Z</time>
      </trkpt>
      <trkpt lat="48.25615" lon="-3.53279">
        <ele>97.6</ele>
        <time>2022-06-12T10:06:29Z</time>
      </trkpt>
      <trkpt lat="48.25615" lon="-3.53277">
        <ele>97.6</ele>
        <time>2022-06-12T10:06:30Z</time>
      </trkpt>
      <trkpt lat="48.25615" lon="-3.53276">
        <ele>97.6</ele>
        <time>2022-06-12T10:06:31Z</time>
      </trkpt>
      <trkpt lat="48.25615" lon="-3.53275">
        <ele>97.6</ele>
        <time>2022-06-12T10:06:32Z</time>
      </trkpt>
      <trkpt lat="48.25615" lon="-3.53272">
        <ele>97.6</ele>
        <time>2022-06-12T10:06:33Z</time>
      </trkpt>
      <trkpt lat="48.25615" lon="-3.53271">
        <ele>97.6</ele>
        <time>2022-06-12T10:06:34Z</time>
      </trkpt>
      <trkpt lat="48.25615" lon="-3.53269">
        <ele>97.6</ele>
        <time>2022-06-12T10:06:36Z</time>
      </trkpt>
      <trkpt lat="48.25615" lon="-3.53268">
        <ele>97.6</ele>
        <time>2022-06-12T10:06:37Z</time>
      </trkpt>
      <trkpt lat="48.25615" lon="-3.53267">
        <ele>97.6</ele>
        <time>2022-06-12T10:06:38Z</time>
      </trkpt>
      <trkpt lat="48.25615" lon="-3.53266">
        <ele>97.6</ele>
        <time>2022-06-12T10:06:39Z</time>
      </trkpt>
      <trkpt lat="48.25615" lon="-3.53264">
        <ele>97.6</ele>
        <time>2022-06-12T10:06:40Z</time>
      </trkpt>
      <trkpt lat="48.25615" lon="-3.53263">
        <ele>97.6</ele>
        <time>2022-06-12T10:06:41Z</time>
      </trkpt>
      <trkpt lat="48.25615" lon="-3.53262">
        <ele>97.6</ele>
        <time>2022-06-12T10:06:42Z</time>
      </trkpt>
      <trkpt lat="48.25615" lon="-3.53261">
        <ele>97.6</ele>
        <time>2022-06-12T10:06:44Z</time>
      </trkpt>
      <trkpt lat="48.25615" lon="-3.5326">
        <ele>97.6</ele>
        <time>2022-06-12T10:06:45Z</time>
      </trkpt>
      <trkpt lat="48.25614" lon="-3.53259">
        <ele>97.6</ele>
        <time>2022-06-12T10:06:46Z</time>
      </trkpt>
      <trkpt lat="48.25614" lon="-3.53258">
        <ele>97.6</ele>
        <time>2022-06-12T10:06:47Z</time>
      </trkpt>
      <trkpt lat="48.25614" lon="-3.53257">
        <ele>97.6</ele>
        <time>2022-06-12T10:06:48Z</time>
      </trkpt>
      <trkpt lat="48.25614" lon="-3.53256">
        <ele>97.6</ele>
        <time>2022-06-12T10:06:49Z</time>
      </trkpt>
      <trkpt lat="48.25613" lon="-3.53254">
        <ele>97.6</ele>
        <time>2022-06-12T10:06:50Z</time>
      </trkpt>
      <trkpt lat="48.25613" lon="-3.53253">
        <ele>97.6</ele>
        <time>2022-06-12T10:06:52Z</time>
      </trkpt>
      <trkpt lat="48.25613" lon="-3.53251">
        <ele>97.6</ele>
        <time>2022-06-12T10:06:53Z</time>
      </trkpt>
      <trkpt lat="48.25613" lon="-3.53249">
        <ele>97.6</ele>
        <time>2022-06-12T10:06:54Z</time>
      </trkpt>
      <trkpt lat="48.25612" lon="-3.53247">
        <ele>97.6</ele>
        <time>2022-06-12T10:06:55Z</time>
      </trkpt>
      <trkpt lat="48.25612" lon="-3.53246">
        <ele>97.6</ele>
        <time>2022-06-12T10:06:56Z</time>
      </trkpt>
      <trkpt lat="48.25612" lon="-3.53244">
        <ele>97.6</ele>
        <time>2022-06-12T10:06:57Z</time>
      </trkpt>
      <trkpt lat="48.25611" lon="-3.53243">
        <ele>97.6</ele>
        <time>2022-06-12T10:06:59Z</time>
      </trkpt>
      <trkpt lat="48.25611" lon="-3.53241">
        <ele>97.6</ele>
        <time>2022-06-12T10:07:00Z</time>
      </trkpt>
      <trkpt lat="48.25611" lon="-3.53239">
        <ele>97.6</ele>
        <time>2022-06-12T10:07:01Z</time>
      </trkpt>
      <trkpt lat="48.2561" lon="-3.53238">
        <ele>97.6</ele>
        <time>2022-06-12T10:07:02Z</time>
      </trkpt>
      <trkpt lat="48.2561" lon="-3.53236">
        <ele>97.6</ele>
        <time>2022-06-12T10:07:03Z</time>
      </trkpt>
      <trkpt lat="48.2561" lon="-3.53234">
        <ele>97.6</ele>
        <time>2022-06-12T10:07:05Z</time>
      </trkpt>
      <trkpt lat="48.2561" lon="-3.53231">
        <ele>97.6</ele>
        <time>2022-06-12T10:07:06Z</time>
      </trkpt>
      <trkpt lat="48.25611" lon="-3.53229">
        <ele>97.6</ele>
        <time>2022-06-12T10:07:07Z</time>
      </trkpt>
      <trkpt lat="48.25612" lon="-3.53228">
        <ele>97.6</ele>
        <time>2022-06-12T10:07:08Z</time>
      </trkpt>
      <trkpt lat="48.25613" lon="-3.53228">
        <ele>97.6</ele>
        <time>2022-06-12T10:07:09Z</time>
      </trkpt>
      <trkpt lat="48.25613" lon="-3.53227">
        <ele>97.6</ele>
        <time>2022-06-12T10:07:10Z</time>
      </trkpt>
      <trkpt lat="48.25615" lon="-3.53227">
        <ele>97.6</ele>
        <time>2022-06-12T10:07:12Z</time>
      </trkpt>
      <trkpt lat="48.25616" lon="-3.53227">
        <ele>97.6</ele>
        <time>2022-06-12T10:07:13Z</time>
      </trkpt>
      <trkpt lat="48.25616" lon="-3.53226">
        <ele>97.6</ele>
        <time>2022-06-12T10:07:14Z</time>
      </trkpt>
      <trkpt lat="48.25615" lon="-3.53226">
        <ele>97.6</ele>
        <time>2022-06-12T10:07:15Z</time>
      </trkpt>
      <trkpt lat="48.25615" lon="-3.53225">
        <ele>97.6</ele>
        <time>2022-06-12T10:07:16Z</time>
      </trkpt>
      <trkpt lat="48.25616" lon="-3.53225">
        <ele>97.6</ele>
        <time>2022-06-12T10:07:17Z</time>
      </trkpt>
      <trkpt lat="48.25615" lon="-3.53225">
        <ele>97.6</ele>
        <time>2022-06-12T10:07:18Z</time>
      </trkpt>
      <trkpt lat="48.25615" lon="-3.53225">
        <ele>97.6</ele>
        <time>2022-06-12T10:07:19Z</time>
      </trkpt>
      <trkpt lat="48.25615" lon="-3.53225">
        <ele>97.6</ele>
        <time>2022-06-12T10:07:21Z</time>
      </trkpt>
      <trkpt lat="48.25615" lon="-3.53225">
        <ele>97.6</ele>
        <time>2022-06-12T10:07:22Z</time>
      </trkpt>
      <trkpt lat="48.25616" lon="-3.53225">
        <ele>97.6</ele>
        <time>2022-06-12T10:07:23Z</time>
      </trkpt>
      <trkpt lat="48.25616" lon="-3.53225">
        <ele>97.6</ele>
        <time>2022-06-12T10:07:24Z</time>
      </trkpt>
      <trkpt lat="48.25616" lon="-3.53225">
        <ele>97.6</ele>
        <time>2022-06-12T10:07:25Z</time>
      </trkpt>
      <trkpt lat="48.25616" lon="-3.53225">
        <ele>97.6</ele>
        <time>2022-06-12T10:07:26Z</time>
      </trkpt>
      <trkpt lat="48.25616" lon="-3.53225">
        <ele>97.6</ele>
        <time>2022-06-12T10:07:27Z</time>
      </trkpt>
      <trkpt lat="48.25616" lon="-3.53225">
        <ele>97.6</ele>
        <time>2022-06-12T10:07:28Z</time>
      </trkpt>
      <trkpt lat="48.25616" lon="-3.53225">
        <ele>97.6</ele>
        <time>2022-06-12T10:07:29Z</time>
      </trkpt>
      <trkpt lat="48.25616" lon="-3.53225">
        <ele>97.6</ele>
        <time>2022-06-12T10:07:31Z</time>
      </trkpt>
      <trkpt lat="48.25616" lon="-3.53226">
        <ele>97.6</ele>
        <time>2022-06-12T10:07:32Z</time>
      </trkpt>
      <trkpt lat="48.25616" lon="-3.53226">
        <ele>97.6</ele>
        <time>2022-06-12T10:07:33Z</time>
      </trkpt>
      <trkpt lat="48.25616" lon="-3.53226">
        <ele>97.6</ele>
        <time>2022-06-12T10:07:34Z</time>
      </trkpt>
      <trkpt lat="48.25615" lon="-3.53226">
        <ele>97.6</ele>
        <time>2022-06-12T10:07:35Z</time>
      </trkpt>
      <trkpt lat="48.25615" lon="-3.53226">
        <ele>97.6</ele>
        <time>2022-06-12T10:07:36Z</time>
      </trkpt>
      <trkpt lat="48.25615" lon="-3.53226">
        <ele>97.6</ele>
        <time>2022-06-12T10:07:37Z</time>
      </trkpt>
      <trkpt lat="48.25615" lon="-3.53226">
        <ele>97.6</ele>
        <time>2022-06-12T10:07:38Z</time>
      </trkpt>
      <trkpt lat="48.25615" lon="-3.53226">
        <ele>97.6</ele>
        <time>2022-06-12T10:07:39Z</time>
      </trkpt>
      <trkpt lat="48.25615" lon="-3.53226">
        <ele>97.6</ele>
        <time>2022-06-12T10:07:40Z</time>
      </trkpt>
      <trkpt lat="48.25615" lon="-3.53226">
        <ele>97.6</ele>
        <time>2022-06-12T10:07:41Z</time>
      </trkpt>
      <trkpt lat="48.25616" lon="-3.53223">
        <ele>97.6</ele>
        <time>2022-06-12T10:07:42Z</time>
      </trkpt>
      <trkpt lat="48.25616" lon="-3.53221">
        <ele>97.6</ele>
        <time>2022-06-12T10:07:43Z</time>
      </trkpt>
      <trkpt lat="48.25616" lon="-3.5322">
        <ele>97.6</ele>
        <time>2022-06-12T10:07:44Z</time>
      </trkpt>
      <trkpt lat="48.25616" lon="-3.5322">
        <ele>97.6</ele>
        <time>2022-06-12T10:07:45Z</time>
      </trkpt>
      <trkpt lat="48.25616" lon="-3.53222">
        <ele>97.6</ele>
        <time>2022-06-12T10:07:46Z</time>
      </trkpt>
      <trkpt lat="48.25616" lon="-3.53221">
        <ele>97.6</ele>
        <time>2022-06-12T10:07:48Z</time>
      </trkpt>
      <trkpt lat="48.25616" lon="-3.5322">
        <ele>97.6</ele>
        <time>2022-06-12T10:07:49Z</time>
      </trkpt>
      <trkpt lat="48.25616" lon="-3.5322">
        <ele>97.6</ele>
        <time>2022-06-12T10:07:50Z</time>
      </trkpt>
      <trkpt lat="48.25616" lon="-3.53219">
        <ele>97.6</ele>
        <time>2022-06-12T10:07:51Z</time>
      </trkpt>
      <trkpt lat="48.25616" lon="-3.53219">
        <ele>97.6</ele>
        <time>2022-06-12T10:07:52Z</time>
      </trkpt>
      <trkpt lat="48.25616" lon="-3.53218">
        <ele>97.6</ele>
        <time>2022-06-12T10:07:53Z</time>
      </trkpt>
      <trkpt lat="48.25616" lon="-3.53217">
        <ele>97.6</ele>
        <time>2022-06-12T10:07:55Z</time>
      </trkpt>
      <trkpt lat="48.25616" lon="-3.53217">
        <ele>97.6</ele>
        <time>2022-06-12T10:07:56Z</time>
      </trkpt>
      <trkpt lat="48.25616" lon="-3.53216">
        <ele>97.6</ele>
        <time>2022-06-12T10:07:57Z</time>
      </trkpt>
      <trkpt lat="48.25616" lon="-3.53214">
        <ele>97.6</ele>
        <time>2022-06-12T10:07:58Z</time>
      </trkpt>
      <trkpt lat="48.25615" lon="-3.53214">
        <ele>97.6</ele>
        <time>2022-06-12T10:07:59Z</time>
      </trkpt>
      <trkpt lat="48.25615" lon="-3.53211">
        <ele>97.6</ele>
        <time>2022-06-12T10:08:01Z</time>
      </trkpt>
      <trkpt lat="48.25614" lon="-3.53209">
        <ele>97.6</ele>
        <time>2022-06-12T10:08:02Z</time>
      </trkpt>
      <trkpt lat="48.25614" lon="-3.53208">
        <ele>97.6</ele>
        <time>2022-06-12T10:08:03Z</time>
      </trkpt>
      <trkpt lat="48.25613" lon="-3.53206">
        <ele>97.6</ele>
        <time>2022-06-12T10:08:04Z</time>
      </trkpt>
      <trkpt lat="48.25613" lon="-3.53205">
        <ele>97.6</ele>
        <time>2022-06-12T10:08:05Z</time>
      </trkpt>
      <trkpt lat="48.25612" lon="-3.53203">
        <ele>97.6</ele>
        <time>2022-06-12T10:08:06Z</time>
      </trkpt>
      <trkpt lat="48.25612" lon="-3.53202">
        <ele>97.6</ele>
        <time>2022-06-12T10:08:07Z</time>
      </trkpt>
      <trkpt lat="48.2561" lon="-3.53199">
        <ele>97.6</ele>
        <time>2022-06-12T10:08:08Z</time>
      </trkpt>
      <trkpt lat="48.2561" lon="-3.53198">
        <ele>97.6</ele>
        <time>2022-06-12T10:08:10Z</time>
      </trkpt>
      <trkpt lat="48.25609" lon="-3.53196">
        <ele>97.6</ele>
        <time>2022-06-12T10:08:11Z</time>
      </trkpt>
      <trkpt lat="48.25609" lon="-3.53198">
        <ele>97.6</ele>
        <time>2022-06-12T10:08:12Z</time>
      </trkpt>
      <trkpt lat="48.25608" lon="-3.53198">
        <ele>97.6</ele>
        <time>2022-06-12T10:08:13Z</time>
      </trkpt>
      <trkpt lat="48.25607" lon="-3.53197">
        <ele>97.6</ele>
        <time>2022-06-12T10:08:14Z</time>
      </trkpt>
      <trkpt lat="48.25606" lon="-3.53195">
        <ele>97.6</ele>
        <time>2022-06-12T10:08:15Z</time>
      </trkpt>
      <trkpt lat="48.25605" lon="-3.53194">
        <ele>97.6</ele>
        <time>2022-06-12T10:08:17Z</time>
      </trkpt>
      <trkpt lat="48.25605" lon="-3.53193">
        <ele>97.6</ele>
        <time>2022-06-12T10:08:18Z</time>
      </trkpt>
      <trkpt lat="48.25604" lon="-3.53192">
        <ele>97.6</ele>
        <time>2022-06-12T10:08:19Z</time>
      </trkpt>
      <trkpt lat="48.25604" lon="-3.53191">
        <ele>97.6</ele>
        <time>2022-06-12T10:08:20Z</time>
      </trkpt>
      <trkpt lat="48.25602" lon="-3.53189">
        <ele>97.6</ele>
        <time>2022-06-12T10:08:21Z</time>
      </trkpt>
      <trkpt lat="48.25602" lon="-3.53188">
        <ele>97.6</ele>
        <time>2022-06-12T10:08:22Z</time>
      </trkpt>
      <trkpt lat="48.25601" lon="-3.53187">
        <ele>97.6</ele>
        <time>2022-06-12T10:08:24Z</time>
      </trkpt>
      <trkpt lat="48.256" lon="-3.53185">
        <ele>97.6</ele>
        <time>2022-06-12T10:08:25Z</time>
      </trkpt>
      <trkpt lat="48.25599" lon="-3.53183">
        <ele>97.6</ele>
        <time>2022-06-12T10:08:26Z</time>
      </trkpt>
      <trkpt lat="48.25598" lon="-3.53182">
        <ele>97.6</ele>
        <time>2022-06-12T10:08:27Z</time>
      </trkpt>
      <trkpt lat="48.25597" lon="-3.53181">
        <ele>97.6</ele>
        <time>2022-06-12T10:08:28Z</time>
      </trkpt>
      <trkpt lat="48.25597" lon="-3.5318">
        <ele>97.6</ele>
        <time>2022-06-12T10:08:29Z</time>
      </trkpt>
      <trkpt lat="48.25595" lon="-3.53178">
        <ele>97.6</ele>
        <time>2022-06-12T10:08:31Z</time>
      </trkpt>
      <trkpt lat="48.25595" lon="-3.53177">
        <ele>97.6</ele>
        <time>2022-06-12T10:08:32Z</time>
      </trkpt>
      <trkpt lat="48.25594" lon="-3.53176">
        <ele>97.6</ele>
        <time>2022-06-12T10:08:33Z</time>
      </trkpt>
      <trkpt lat="48.25593" lon="-3.53174">
        <ele>97.6</ele>
        <time>2022-06-12T10:08:34Z</time>
      </trkpt>
      <trkpt lat="48.25592" lon="-3.53173">
        <ele>97.6</ele>
        <time>2022-06-12T10:08:35Z</time>
      </trkpt>
      <trkpt lat="48.25591" lon="-3.5317">
        <ele>97.6</ele>
        <time>2022-06-12T10:08:36Z</time>
      </trkpt>
      <trkpt lat="48.2559" lon="-3.53168">
        <ele>97.6</ele>
        <time>2022-06-12T10:08:38Z</time>
      </trkpt>
      <trkpt lat="48.25589" lon="-3.53167">
        <ele>97.6</ele>
        <time>2022-06-12T10:08:39Z</time>
      </trkpt>
      <trkpt lat="48.25589" lon="-3.53165">
        <ele>97.6</ele>
        <time>2022-06-12T10:08:40Z</time>
      </trkpt>
      <trkpt lat="48.25588" lon="-3.53163">
        <ele>97.6</ele>
        <time>2022-06-12T10:08:41Z</time>
      </trkpt>
      <trkpt lat="48.25587" lon="-3.53162">
        <ele>97.6</ele>
        <time>2022-06-12T10:08:42Z</time>
      </trkpt>
      <trkpt lat="48.25586" lon="-3.5316">
        <ele>97.6</ele>
        <time>2022-06-12T10:08:44Z</time>
      </trkpt>
      <trkpt lat="48.25585" lon="-3.53159">
        <ele>97.6</ele>
        <time>2022-06-12T10:08:45Z</time>
      </trkpt>
      <trkpt lat="48.25584" lon="-3.53157">
        <ele>97.6</ele>
        <time>2022-06-12T10:08:46Z</time>
      </trkpt>
      <trkpt lat="48.25583" lon="-3.53156">
        <ele>97.6</ele>
        <time>2022-06-12T10:08:47Z</time>
      </trkpt>
      <trkpt lat="48.25582" lon="-3.53154">
        <ele>97.6</ele>
        <time>2022-06-12T10:08:48Z</time>
      </trkpt>
      <trkpt lat="48.25581" lon="-3.53153">
        <ele>97.6</ele>
        <time>2022-06-12T10:08:50Z</time>
      </trkpt>
      <trkpt lat="48.2558" lon="-3.5315">
        <ele>97.6</ele>
        <time>2022-06-12T10:08:51Z</time>
      </trkpt>
      <trkpt lat="48.25579" lon="-3.53149">
        <ele>97.6</ele>
        <time>2022-06-12T10:08:52Z</time>
      </trkpt>
      <trkpt lat="48.25578" lon="-3.53148">
        <ele>97.6</ele>
        <time>2022-06-12T10:08:54Z</time>
      </trkpt>
      <trkpt lat="48.25577" lon="-3.53147">
        <ele>97.6</ele>
        <time>2022-06-12T10:08:55Z</time>
      </trkpt>
      <trkpt lat="48.25576" lon="-3.53144">
        <ele>97.6</ele>
        <time>2022-06-12T10:08:57Z</time>
      </trkpt>
      <trkpt lat="48.25575" lon="-3.53143">
        <ele>97.6</ele>
        <time>2022-06-12T10:08:58Z</time>
      </trkpt>
      <trkpt lat="48.25575" lon="-3.53142">
        <ele>97.6</ele>
        <time>2022-06-12T10:08:59Z</time>
      </trkpt>
      <trkpt lat="48.25574" lon="-3.53141">
        <ele>97.6</ele>
        <time>2022-06-12T10:09:00Z</time>
      </trkpt>
      <trkpt lat="48.25572" lon="-3.53139">
        <ele>97.6</ele>
        <time>2022-06-12T10:09:01Z</time>
      </trkpt>
      <trkpt lat="48.25572" lon="-3.53138">
        <ele>97.6</ele>
        <time>2022-06-12T10:09:02Z</time>
      </trkpt>
      <trkpt lat="48.25571" lon="-3.53136">
        <ele>97.6</ele>
        <time>2022-06-12T10:09:04Z</time>
      </trkpt>
      <trkpt lat="48.2557" lon="-3.53135">
        <ele>97.6</ele>
        <time>2022-06-12T10:09:05Z</time>
      </trkpt>
      <trkpt lat="48.25567" lon="-3.53135">
        <ele>97.6</ele>
        <time>2022-06-12T10:09:07Z</time>
      </trkpt>
      <trkpt lat="48.25567" lon="-3.53135">
        <ele>97.6</ele>
        <time>2022-06-12T10:09:08Z</time>
      </trkpt>
      <trkpt lat="48.25564" lon="-3.53134">
        <ele>97.6</ele>
        <time>2022-06-12T10:09:09Z</time>
      </trkpt>
      <trkpt lat="48.25564" lon="-3.53133">
        <ele>97.6</ele>
        <time>2022-06-12T10:09:10Z</time>
      </trkpt>
      <trkpt lat="48.25563" lon="-3.53133">
        <ele>97.6</ele>
        <time>2022-06-12T10:09:11Z</time>
      </trkpt>
      <trkpt lat="48.25562" lon="-3.53132">
        <ele>97.6</ele>
        <time>2022-06-12T10:09:12Z</time>
      </trkpt>
      <trkpt lat="48.2556" lon="-3.53132">
        <ele>97.6</ele>
        <time>2022-06-12T10:09:13Z</time>
      </trkpt>
      <trkpt lat="48.25559" lon="-3.53133">
        <ele>97.6</ele>
        <time>2022-06-12T10:09:14Z</time>
      </trkpt>
      <trkpt lat="48.25558" lon="-3.53134">
        <ele>97.6</ele>
        <time>2022-06-12T10:09:15Z</time>
      </trkpt>
      <trkpt lat="48.25556" lon="-3.53134">
        <ele>97.6</ele>
        <time>2022-06-12T10:09:16Z</time>
      </trkpt>
      <trkpt lat="48.25555" lon="-3.53133">
        <ele>97.6</ele>
        <time>2022-06-12T10:09:18Z</time>
      </trkpt>
      <trkpt lat="48.25553" lon="-3.53132">
        <ele>97.6</ele>
        <time>2022-06-12T10:09:19Z</time>
      </trkpt>
      <trkpt lat="48.25552" lon="-3.53132">
        <ele>97.6</ele>
        <time>2022-06-12T10:09:20Z</time>
      </trkpt>
      <trkpt lat="48.25552" lon="-3.53133">
        <ele>97.6</ele>
        <time>2022-06-12T10:09:21Z</time>
      </trkpt>
      <trkpt lat="48.2555" lon="-3.53134">
        <ele>97.6</ele>
        <time>2022-06-12T10:09:22Z</time>
      </trkpt>
      <trkpt lat="48.25549" lon="-3.53134">
        <ele>97.6</ele>
        <time>2022-06-12T10:09:23Z</time>
      </trkpt>
      <trkpt lat="48.25548" lon="-3.53134">
        <ele>97.6</ele>
        <time>2022-06-12T10:09:24Z</time>
      </trkpt>
      <trkpt lat="48.25548" lon="-3.53133">
        <ele>97.6</ele>
        <time>2022-06-12T10:09:25Z</time>
      </trkpt>
      <trkpt lat="48.25547" lon="-3.53133">
        <ele>97.6</ele>
        <time>2022-06-12T10:09:26Z</time>
      </trkpt>
      <trkpt lat="48.25546" lon="-3.53133">
        <ele>97.6</ele>
        <time>2022-06-12T10:09:28Z</time>
      </trkpt>
      <trkpt lat="48.25545" lon="-3.53132">
        <ele>97.6</ele>
        <time>2022-06-12T10:09:29Z</time>
      </trkpt>
      <trkpt lat="48.25544" lon="-3.53131">
        <ele>97.6</ele>
        <time>2022-06-12T10:09:30Z</time>
      </trkpt>
      <trkpt lat="48.25543" lon="-3.53131">
        <ele>97.6</ele>
        <time>2022-06-12T10:09:31Z</time>
      </trkpt>
      <trkpt lat="48.25541" lon="-3.5313">
        <ele>97.6</ele>
        <time>2022-06-12T10:09:32Z</time>
      </trkpt>
      <trkpt lat="48.2554" lon="-3.53129">
        <ele>97.6</ele>
        <time>2022-06-12T10:09:33Z</time>
      </trkpt>
      <trkpt lat="48.25539" lon="-3.53128">
        <ele>97.6</ele>
        <time>2022-06-12T10:09:34Z</time>
      </trkpt>
      <trkpt lat="48.25538" lon="-3.53128">
        <ele>97.6</ele>
        <time>2022-06-12T10:09:35Z</time>
      </trkpt>
      <trkpt lat="48.25537" lon="-3.53127">
        <ele>97.6</ele>
        <time>2022-06-12T10:09:36Z</time>
      </trkpt>
      <trkpt lat="48.25537" lon="-3.53127">
        <ele>97.6</ele>
        <time>2022-06-12T10:09:37Z</time>
      </trkpt>
      <trkpt lat="48.25536" lon="-3.53126">
        <ele>97.6</ele>
        <time>2022-06-12T10:09:39Z</time>
      </trkpt>
      <trkpt lat="48.25535" lon="-3.53126">
        <ele>97.5</ele>
        <time>2022-06-12T10:09:40Z</time>
      </trkpt>
      <trkpt lat="48.25533" lon="-3.53125">
        <ele>97.5</ele>
        <time>2022-06-12T10:09:41Z</time>
      </trkpt>
      <trkpt lat="48.25531" lon="-3.53124">
        <ele>97.5</ele>
        <time>2022-06-12T10:09:42Z</time>
      </trkpt>
      <trkpt lat="48.25531" lon="-3.53123">
        <ele>97.5</ele>
        <time>2022-06-12T10:09:43Z</time>
      </trkpt>
      <trkpt lat="48.2553" lon="-3.53123">
        <ele>97.5</ele>
        <time>2022-06-12T10:09:44Z</time>
      </trkpt>
      <trkpt lat="48.25529" lon="-3.53122">
        <ele>97.5</ele>
        <time>2022-06-12T10:09:45Z</time>
      </trkpt>
      <trkpt lat="48.25528" lon="-3.53121">
        <ele>97.5</ele>
        <time>2022-06-12T10:09:46Z</time>
      </trkpt>
      <trkpt lat="48.25527" lon="-3.5312">
        <ele>97.5</ele>
        <time>2022-06-12T10:09:47Z</time>
      </trkpt>
      <trkpt lat="48.25526" lon="-3.53119">
        <ele>97.5</ele>
        <time>2022-06-12T10:09:48Z</time>
      </trkpt>
      <trkpt lat="48.25524" lon="-3.53117">
        <ele>97.5</ele>
        <time>2022-06-12T10:09:50Z</time>
      </trkpt>
      <trkpt lat="48.25523" lon="-3.53116">
        <ele>97.5</ele>
        <time>2022-06-12T10:09:51Z</time>
      </trkpt>
      <trkpt lat="48.25522" lon="-3.53115">
        <ele>97.5</ele>
        <time>2022-06-12T10:09:52Z</time>
      </trkpt>
      <trkpt lat="48.25521" lon="-3.53115">
        <ele>97.5</ele>
        <time>2022-06-12T10:09:53Z</time>
      </trkpt>
      <trkpt lat="48.2552" lon="-3.53114">
        <ele>97.5</ele>
        <time>2022-06-12T10:09:54Z</time>
      </trkpt>
      <trkpt lat="48.25519" lon="-3.53112">
        <ele>97.5</ele>
        <time>2022-06-12T10:09:55Z</time>
      </trkpt>
      <trkpt lat="48.25518" lon="-3.53111">
        <ele>97.5</ele>
        <time>2022-06-12T10:09:56Z</time>
      </trkpt>
      <trkpt lat="48.25517" lon="-3.53109">
        <ele>97.5</ele>
        <time>2022-06-12T10:09:57Z</time>
      </trkpt>
      <trkpt lat="48.25517" lon="-3.53108">
        <ele>97.5</ele>
        <time>2022-06-12T10:09:58Z</time>
      </trkpt>
      <trkpt lat="48.25516" lon="-3.53107">
        <ele>97.5</ele>
        <time>2022-06-12T10:10:00Z</time>
      </trkpt>
      <trkpt lat="48.25515" lon="-3.53105">
        <ele>97.5</ele>
        <time>2022-06-12T10:10:01Z</time>
      </trkpt>
      <trkpt lat="48.25514" lon="-3.53103">
        <ele>97.5</ele>
        <time>2022-06-12T10:10:02Z</time>
      </trkpt>
      <trkpt lat="48.25513" lon="-3.53102">
        <ele>97.5</ele>
        <time>2022-06-12T10:10:03Z</time>
      </trkpt>
      <trkpt lat="48.25513" lon="-3.53101">
        <ele>97.5</ele>
        <time>2022-06-12T10:10:04Z</time>
      </trkpt>
      <trkpt lat="48.25512" lon="-3.531">
        <ele>97.5</ele>
        <time>2022-06-12T10:10:05Z</time>
      </trkpt>
      <trkpt lat="48.25512" lon="-3.53098">
        <ele>97.5</ele>
        <time>2022-06-12T10:10:06Z</time>
      </trkpt>
      <trkpt lat="48.25509" lon="-3.53095">
        <ele>97.5</ele>
        <time>2022-06-12T10:10:07Z</time>
      </trkpt>
      <trkpt lat="48.25509" lon="-3.53094">
        <ele>97.5</ele>
        <time>2022-06-12T10:10:08Z</time>
      </trkpt>
      <trkpt lat="48.25508" lon="-3.53093">
        <ele>97.5</ele>
        <time>2022-06-12T10:10:10Z</time>
      </trkpt>
      <trkpt lat="48.25507" lon="-3.53092">
        <ele>97.5</ele>
        <time>2022-06-12T10:10:11Z</time>
      </trkpt>
      <trkpt lat="48.25505" lon="-3.5309">
        <ele>97.5</ele>
        <time>2022-06-12T10:10:12Z</time>
      </trkpt>
      <trkpt lat="48.25504" lon="-3.5309">
        <ele>97.5</ele>
        <time>2022-06-12T10:10:13Z</time>
      </trkpt>
      <trkpt lat="48.25504" lon="-3.53089">
        <ele>97.5</ele>
        <time>2022-06-12T10:10:14Z</time>
      </trkpt>
      <trkpt lat="48.25503" lon="-3.53089">
        <ele>97.5</ele>
        <time>2022-06-12T10:10:15Z</time>
      </trkpt>
      <trkpt lat="48.25502" lon="-3.53088">
        <ele>97.5</ele>
        <time>2022-06-12T10:10:17Z</time>
      </trkpt>
      <trkpt lat="48.25499" lon="-3.53088">
        <ele>97.5</ele>
        <time>2022-06-12T10:10:18Z</time>
      </trkpt>
      <trkpt lat="48.25498" lon="-3.53089">
        <ele>97.5</ele>
        <time>2022-06-12T10:10:19Z</time>
      </trkpt>
      <trkpt lat="48.25497" lon="-3.53088">
        <ele>97.5</ele>
        <time>2022-06-12T10:10:20Z</time>
      </trkpt>
      <trkpt lat="48.25495" lon="-3.53088">
        <ele>97.5</ele>
        <time>2022-06-12T10:10:21Z</time>
      </trkpt>
      <trkpt lat="48.25494" lon="-3.53087">
        <ele>97.5</ele>
        <time>2022-06-12T10:10:22Z</time>
      </trkpt>
      <trkpt lat="48.25492" lon="-3.53086">
        <ele>97.5</ele>
        <time>2022-06-12T10:10:23Z</time>
      </trkpt>
      <trkpt lat="48.25491" lon="-3.53085">
        <ele>97.5</ele>
        <time>2022-06-12T10:10:25Z</time>
      </trkpt>
      <trkpt lat="48.2549" lon="-3.53085">
        <ele>97.5</ele>
        <time>2022-06-12T10:10:26Z</time>
      </trkpt>
      <trkpt lat="48.25489" lon="-3.53084">
        <ele>97.5</ele>
        <time>2022-06-12T10:10:27Z</time>
      </trkpt>
      <trkpt lat="48.25487" lon="-3.53084">
        <ele>97.5</ele>
        <time>2022-06-12T10:10:28Z</time>
      </trkpt>
      <trkpt lat="48.25485" lon="-3.53083">
        <ele>97.5</ele>
        <time>2022-06-12T10:10:30Z</time>
      </trkpt>
      <trkpt lat="48.25484" lon="-3.53083">
        <ele>97.5</ele>
        <time>2022-06-12T10:10:31Z</time>
      </trkpt>
      <trkpt lat="48.25482" lon="-3.53082">
        <ele>97.5</ele>
        <time>2022-06-12T10:10:32Z</time>
      </trkpt>
      <trkpt lat="48.25481" lon="-3.53082">
        <ele>97.5</ele>
        <time>2022-06-12T10:10:34Z</time>
      </trkpt>
      <trkpt lat="48.25479" lon="-3.53082">
        <ele>97.5</ele>
        <time>2022-06-12T10:10:35Z</time>
      </trkpt>
      <trkpt lat="48.25478" lon="-3.53084">
        <ele>97.5</ele>
        <time>2022-06-12T10:10:37Z</time>
      </trkpt>
      <trkpt lat="48.25477" lon="-3.53085">
        <ele>97.5</ele>
        <time>2022-06-12T10:10:38Z</time>
      </trkpt>
      <trkpt lat="48.25476" lon="-3.53084">
        <ele>97.5</ele>
        <time>2022-06-12T10:10:40Z</time>
      </trkpt>
      <trkpt lat="48.25476" lon="-3.53084">
        <ele>97.5</ele>
        <time>2022-06-12T10:10:41Z</time>
      </trkpt>
      <trkpt lat="48.25476" lon="-3.53083">
        <ele>97.5</ele>
        <time>2022-06-12T10:10:42Z</time>
      </trkpt>
      <trkpt lat="48.25476" lon="-3.53083">
        <ele>97.5</ele>
        <time>2022-06-12T10:10:43Z</time>
      </trkpt>
      <trkpt lat="48.25476" lon="-3.53083">
        <ele>97.5</ele>
        <time>2022-06-12T10:10:44Z</time>
      </trkpt>
      <trkpt lat="48.25477" lon="-3.53082">
        <ele>97.5</ele>
        <time>2022-06-12T10:10:45Z</time>
      </trkpt>
      <trkpt lat="48.25477" lon="-3.53082">
        <ele>97.5</ele>
        <time>2022-06-12T10:10:46Z</time>
      </trkpt>
      <trkpt lat="48.25477" lon="-3.53081">
        <ele>97.5</ele>
        <time>2022-06-12T10:10:47Z</time>
      </trkpt>
      <trkpt lat="48.25477" lon="-3.53081">
        <ele>97.5</ele>
        <time>2022-06-12T10:10:48Z</time>
      </trkpt>
      <trkpt lat="48.25477" lon="-3.53081">
        <ele>97.6</ele>
        <time>2022-06-12T10:10:49Z</time>
      </trkpt>
      <trkpt lat="48.25477" lon="-3.53081">
        <ele>97.6</ele>
        <time>2022-06-12T10:10:50Z</time>
      </trkpt>
      <trkpt lat="48.25476" lon="-3.53081">
        <ele>97.6</ele>
        <time>2022-06-12T10:10:52Z</time>
      </trkpt>
      <trkpt lat="48.25476" lon="-3.53081">
        <ele>97.6</ele>
        <time>2022-06-12T10:10:53Z</time>
      </trkpt>
      <trkpt lat="48.25475" lon="-3.5308">
        <ele>97.6</ele>
        <time>2022-06-12T10:10:54Z</time>
      </trkpt>
      <trkpt lat="48.25475" lon="-3.5308">
        <ele>97.6</ele>
        <time>2022-06-12T10:10:55Z</time>
      </trkpt>
      <trkpt lat="48.25474" lon="-3.53079">
        <ele>97.6</ele>
        <time>2022-06-12T10:10:56Z</time>
      </trkpt>
      <trkpt lat="48.25474" lon="-3.53079">
        <ele>97.6</ele>
        <time>2022-06-12T10:10:57Z</time>
      </trkpt>
      <trkpt lat="48.25473" lon="-3.53079">
        <ele>97.6</ele>
        <time>2022-06-12T10:10:59Z</time>
      </trkpt>
      <trkpt lat="48.25473" lon="-3.53076">
        <ele>97.6</ele>
        <time>2022-06-12T10:11:00Z</time>
      </trkpt>
      <trkpt lat="48.25474" lon="-3.53074">
        <ele>97.6</ele>
        <time>2022-06-12T10:11:01Z</time>
      </trkpt>
      <trkpt lat="48.25474" lon="-3.53072">
        <ele>97.6</ele>
        <time>2022-06-12T10:11:02Z</time>
      </trkpt>
      <trkpt lat="48.25475" lon="-3.53071">
        <ele>97.6</ele>
        <time>2022-06-12T10:11:03Z</time>
      </trkpt>
      <trkpt lat="48.25476" lon="-3.5307">
        <ele>97.6</ele>
        <time>2022-06-12T10:11:04Z</time>
      </trkpt>
      <trkpt lat="48.25476" lon="-3.5307">
        <ele>97.6</ele>
        <time>2022-06-12T10:11:06Z</time>
      </trkpt>
      <trkpt lat="48.25476" lon="-3.53069">
        <ele>97.6</ele>
        <time>2022-06-12T10:11:07Z</time>
      </trkpt>
      <trkpt lat="48.25476" lon="-3.53068">
        <ele>97.6</ele>
        <time>2022-06-12T10:11:08Z</time>
      </trkpt>
      <trkpt lat="48.25475" lon="-3.53068">
        <ele>97.6</ele>
        <time>2022-06-12T10:11:09Z</time>
      </trkpt>
      <trkpt lat="48.25475" lon="-3.53067">
        <ele>97.6</ele>
        <time>2022-06-12T10:11:10Z</time>
      </trkpt>
      <trkpt lat="48.25474" lon="-3.53066">
        <ele>97.6</ele>
        <time>2022-06-12T10:11:12Z</time>
      </trkpt>
      <trkpt lat="48.25473" lon="-3.53065">
        <ele>97.6</ele>
        <time>2022-06-12T10:11:13Z</time>
      </trkpt>
      <trkpt lat="48.25472" lon="-3.53065">
        <ele>97.6</ele>
        <time>2022-06-12T10:11:14Z</time>
      </trkpt>
      <trkpt lat="48.25471" lon="-3.53064">
        <ele>97.6</ele>
        <time>2022-06-12T10:11:15Z</time>
      </trkpt>
      <trkpt lat="48.2547" lon="-3.53063">
        <ele>97.6</ele>
        <time>2022-06-12T10:11:16Z</time>
      </trkpt>
      <trkpt lat="48.25467" lon="-3.53061">
        <ele>97.7</ele>
        <time>2022-06-12T10:11:18Z</time>
      </trkpt>
      <trkpt lat="48.25466" lon="-3.5306">
        <ele>97.7</ele>
        <time>2022-06-12T10:11:19Z</time>
      </trkpt>
      <trkpt lat="48.25465" lon="-3.5306">
        <ele>97.7</ele>
        <time>2022-06-12T10:11:20Z</time>
      </trkpt>
      <trkpt lat="48.25464" lon="-3.53059">
        <ele>97.7</ele>
        <time>2022-06-12T10:11:21Z</time>
      </trkpt>
      <trkpt lat="48.25463" lon="-3.53059">
        <ele>97.7</ele>
        <time>2022-06-12T10:11:22Z</time>
      </trkpt>
      <trkpt lat="48.25461" lon="-3.53058">
        <ele>97.7</ele>
        <time>2022-06-12T10:11:23Z</time>
      </trkpt>
      <trkpt lat="48.25459" lon="-3.53058">
        <ele>97.7</ele>
        <time>2022-06-12T10:11:24Z</time>
      </trkpt>
      <trkpt lat="48.25458" lon="-3.53057">
        <ele>97.7</ele>
        <time>2022-06-12T10:11:25Z</time>
      </trkpt>
      <trkpt lat="48.25457" lon="-3.53057">
        <ele>97.7</ele>
        <time>2022-06-12T10:11:26Z</time>
      </trkpt>
      <trkpt lat="48.25454" lon="-3.53056">
        <ele>97.7</ele>
        <time>2022-06-12T10:11:27Z</time>
      </trkpt>
      <trkpt lat="48.25453" lon="-3.53056">
        <ele>97.8</ele>
        <time>2022-06-12T10:11:28Z</time>
      </trkpt>
      <trkpt lat="48.25452" lon="-3.53056">
        <ele>97.8</ele>
        <time>2022-06-12T10:11:29Z</time>
      </trkpt>
      <trkpt lat="48.25451" lon="-3.53056">
        <ele>97.8</ele>
        <time>2022-06-12T10:11:31Z</time>
      </trkpt>
      <trkpt lat="48.2545" lon="-3.53056">
        <ele>97.8</ele>
        <time>2022-06-12T10:11:32Z</time>
      </trkpt>
      <trkpt lat="48.25448" lon="-3.53056">
        <ele>97.8</ele>
        <time>2022-06-12T10:11:33Z</time>
      </trkpt>
      <trkpt lat="48.25447" lon="-3.53056">
        <ele>97.8</ele>
        <time>2022-06-12T10:11:34Z</time>
      </trkpt>
      <trkpt lat="48.25444" lon="-3.53055">
        <ele>97.8</ele>
        <time>2022-06-12T10:11:35Z</time>
      </trkpt>
      <trkpt lat="48.25443" lon="-3.53055">
        <ele>97.8</ele>
        <time>2022-06-12T10:11:36Z</time>
      </trkpt>
      <trkpt lat="48.25442" lon="-3.53054">
        <ele>97.8</ele>
        <time>2022-06-12T10:11:37Z</time>
      </trkpt>
      <trkpt lat="48.2544" lon="-3.53057">
        <ele>97.8</ele>
        <time>2022-06-12T10:11:38Z</time>
      </trkpt>
      <trkpt lat="48.25439" lon="-3.53057">
        <ele>97.8</ele>
        <time>2022-06-12T10:11:40Z</time>
      </trkpt>
      <trkpt lat="48.25438" lon="-3.53058">
        <ele>97.8</ele>
        <time>2022-06-12T10:11:41Z</time>
      </trkpt>
      <trkpt lat="48.25436" lon="-3.53058">
        <ele>97.9</ele>
        <time>2022-06-12T10:11:42Z</time>
      </trkpt>
      <trkpt lat="48.25434" lon="-3.53058">
        <ele>97.9</ele>
        <time>2022-06-12T10:11:43Z</time>
      </trkpt>
      <trkpt lat="48.25433" lon="-3.53058">
        <ele>97.9</ele>
        <time>2022-06-12T10:11:44Z</time>
      </trkpt>
      <trkpt lat="48.25431" lon="-3.53058">
        <ele>97.9</ele>
        <time>2022-06-12T10:11:46Z</time>
      </trkpt>
      <trkpt lat="48.2543" lon="-3.53058">
        <ele>97.9</ele>
        <time>2022-06-12T10:11:47Z</time>
      </trkpt>
      <trkpt lat="48.25428" lon="-3.53057">
        <ele>97.9</ele>
        <time>2022-06-12T10:11:48Z</time>
      </trkpt>
      <trkpt lat="48.25427" lon="-3.53057">
        <ele>97.9</ele>
        <time>2022-06-12T10:11:49Z</time>
      </trkpt>
      <trkpt lat="48.25425" lon="-3.53056">
        <ele>97.9</ele>
        <time>2022-06-12T10:11:50Z</time>
      </trkpt>
      <trkpt lat="48.25424" lon="-3.53056">
        <ele>98</ele>
        <time>2022-06-12T10:11:51Z</time>
      </trkpt>
      <trkpt lat="48.25423" lon="-3.53055">
        <ele>98</ele>
        <time>2022-06-12T10:11:52Z</time>
      </trkpt>
      <trkpt lat="48.25422" lon="-3.53056">
        <ele>98</ele>
        <time>2022-06-12T10:11:53Z</time>
      </trkpt>
      <trkpt lat="48.25421" lon="-3.53057">
        <ele>98</ele>
        <time>2022-06-12T10:11:55Z</time>
      </trkpt>
      <trkpt lat="48.2542" lon="-3.53057">
        <ele>98</ele>
        <time>2022-06-12T10:11:56Z</time>
      </trkpt>
      <trkpt lat="48.25418" lon="-3.53057">
        <ele>98</ele>
        <time>2022-06-12T10:11:57Z</time>
      </trkpt>
      <trkpt lat="48.25416" lon="-3.53057">
        <ele>98</ele>
        <time>2022-06-12T10:11:58Z</time>
      </trkpt>
      <trkpt lat="48.25415" lon="-3.53058">
        <ele>98</ele>
        <time>2022-06-12T10:11:59Z</time>
      </trkpt>
      <trkpt lat="48.25414" lon="-3.53057">
        <ele>98</ele>
        <time>2022-06-12T10:12:00Z</time>
      </trkpt>
      <trkpt lat="48.25412" lon="-3.53057">
        <ele>98.1</ele>
        <time>2022-06-12T10:12:02Z</time>
      </trkpt>
      <trkpt lat="48.25411" lon="-3.53057">
        <ele>98.1</ele>
        <time>2022-06-12T10:12:03Z</time>
      </trkpt>
      <trkpt lat="48.2541" lon="-3.53057">
        <ele>98.1</ele>
        <time>2022-06-12T10:12:04Z</time>
      </trkpt>
      <trkpt lat="48.25409" lon="-3.53057">
        <ele>98.1</ele>
        <time>2022-06-12T10:12:05Z</time>
      </trkpt>
      <trkpt lat="48.25407" lon="-3.53057">
        <ele>98.1</ele>
        <time>2022-06-12T10:12:06Z</time>
      </trkpt>
      <trkpt lat="48.25406" lon="-3.53057">
        <ele>98.1</ele>
        <time>2022-06-12T10:12:07Z</time>
      </trkpt>
      <trkpt lat="48.25405" lon="-3.53056">
        <ele>98.1</ele>
        <time>2022-06-12T10:12:08Z</time>
      </trkpt>
      <trkpt lat="48.25404" lon="-3.53056">
        <ele>98.1</ele>
        <time>2022-06-12T10:12:09Z</time>
      </trkpt>
      <trkpt lat="48.25403" lon="-3.53055">
        <ele>98.1</ele>
        <time>2022-06-12T10:12:10Z</time>
      </trkpt>
      <trkpt lat="48.25401" lon="-3.53055">
        <ele>98.2</ele>
        <time>2022-06-12T10:12:12Z</time>
      </trkpt>
      <trkpt lat="48.254" lon="-3.53054">
        <ele>98.2</ele>
        <time>2022-06-12T10:12:13Z</time>
      </trkpt>
      <trkpt lat="48.25399" lon="-3.53053">
        <ele>98.2</ele>
        <time>2022-06-12T10:12:14Z</time>
      </trkpt>
      <trkpt lat="48.25397" lon="-3.53052">
        <ele>98.2</ele>
        <time>2022-06-12T10:12:15Z</time>
      </trkpt>
      <trkpt lat="48.25397" lon="-3.53051">
        <ele>98.2</ele>
        <time>2022-06-12T10:12:16Z</time>
      </trkpt>
      <trkpt lat="48.25396" lon="-3.5305">
        <ele>98.2</ele>
        <time>2022-06-12T10:12:17Z</time>
      </trkpt>
      <trkpt lat="48.25395" lon="-3.53049">
        <ele>98.2</ele>
        <time>2022-06-12T10:12:18Z</time>
      </trkpt>
      <trkpt lat="48.25395" lon="-3.53049">
        <ele>98.3</ele>
        <time>2022-06-12T10:12:19Z</time>
      </trkpt>
      <trkpt lat="48.25394" lon="-3.53048">
        <ele>98.3</ele>
        <time>2022-06-12T10:12:20Z</time>
      </trkpt>
      <trkpt lat="48.25393" lon="-3.53047">
        <ele>98.3</ele>
        <time>2022-06-12T10:12:21Z</time>
      </trkpt>
      <trkpt lat="48.2539" lon="-3.53045">
        <ele>98.3</ele>
        <time>2022-06-12T10:12:22Z</time>
      </trkpt>
      <trkpt lat="48.25389" lon="-3.53044">
        <ele>98.4</ele>
        <time>2022-06-12T10:12:23Z</time>
      </trkpt>
      <trkpt lat="48.25387" lon="-3.53043">
        <ele>98.4</ele>
        <time>2022-06-12T10:12:24Z</time>
      </trkpt>
      <trkpt lat="48.25386" lon="-3.53043">
        <ele>98.4</ele>
        <time>2022-06-12T10:12:25Z</time>
      </trkpt>
      <trkpt lat="48.25386" lon="-3.53042">
        <ele>98.5</ele>
        <time>2022-06-12T10:12:26Z</time>
      </trkpt>
      <trkpt lat="48.25383" lon="-3.53041">
        <ele>98.5</ele>
        <time>2022-06-12T10:12:28Z</time>
      </trkpt>
      <trkpt lat="48.25382" lon="-3.5304">
        <ele>98.5</ele>
        <time>2022-06-12T10:12:29Z</time>
      </trkpt>
      <trkpt lat="48.25381" lon="-3.5304">
        <ele>98.6</ele>
        <time>2022-06-12T10:12:30Z</time>
      </trkpt>
      <trkpt lat="48.2538" lon="-3.53039">
        <ele>98.6</ele>
        <time>2022-06-12T10:12:31Z</time>
      </trkpt>
      <trkpt lat="48.25379" lon="-3.53038">
        <ele>98.6</ele>
        <time>2022-06-12T10:12:32Z</time>
      </trkpt>
      <trkpt lat="48.25377" lon="-3.53036">
        <ele>98.7</ele>
        <time>2022-06-12T10:12:34Z</time>
      </trkpt>
      <trkpt lat="48.25376" lon="-3.53035">
        <ele>98.8</ele>
        <time>2022-06-12T10:12:35Z</time>
      </trkpt>
      <trkpt lat="48.25374" lon="-3.53034">
        <ele>98.8</ele>
        <time>2022-06-12T10:12:36Z</time>
      </trkpt>
      <trkpt lat="48.25373" lon="-3.53034">
        <ele>98.9</ele>
        <time>2022-06-12T10:12:37Z</time>
      </trkpt>
      <trkpt lat="48.25372" lon="-3.53033">
        <ele>98.9</ele>
        <time>2022-06-12T10:12:39Z</time>
      </trkpt>
      <trkpt lat="48.25371" lon="-3.53033">
        <ele>99</ele>
        <time>2022-06-12T10:12:40Z</time>
      </trkpt>
      <trkpt lat="48.2537" lon="-3.53032">
        <ele>99</ele>
        <time>2022-06-12T10:12:41Z</time>
      </trkpt>
      <trkpt lat="48.25368" lon="-3.5303">
        <ele>99.1</ele>
        <time>2022-06-12T10:12:42Z</time>
      </trkpt>
      <trkpt lat="48.25367" lon="-3.53029">
        <ele>99.1</ele>
        <time>2022-06-12T10:12:43Z</time>
      </trkpt>
      <trkpt lat="48.25366" lon="-3.53028">
        <ele>99.2</ele>
        <time>2022-06-12T10:12:44Z</time>
      </trkpt>
      <trkpt lat="48.25365" lon="-3.53027">
        <ele>99.2</ele>
        <time>2022-06-12T10:12:45Z</time>
      </trkpt>
      <trkpt lat="48.25364" lon="-3.53026">
        <ele>99.3</ele>
        <time>2022-06-12T10:12:46Z</time>
      </trkpt>
      <trkpt lat="48.25363" lon="-3.53025">
        <ele>99.3</ele>
        <time>2022-06-12T10:12:47Z</time>
      </trkpt>
      <trkpt lat="48.25361" lon="-3.53023">
        <ele>99.4</ele>
        <time>2022-06-12T10:12:49Z</time>
      </trkpt>
      <trkpt lat="48.2536" lon="-3.53022">
        <ele>99.4</ele>
        <time>2022-06-12T10:12:50Z</time>
      </trkpt>
      <trkpt lat="48.25359" lon="-3.53022">
        <ele>99.4</ele>
        <time>2022-06-12T10:12:51Z</time>
      </trkpt>
      <trkpt lat="48.25358" lon="-3.53021">
        <ele>99.5</ele>
        <time>2022-06-12T10:12:52Z</time>
      </trkpt>
      <trkpt lat="48.25356" lon="-3.53019">
        <ele>99.5</ele>
        <time>2022-06-12T10:12:53Z</time>
      </trkpt>
      <trkpt lat="48.25355" lon="-3.53018">
        <ele>99.6</ele>
        <time>2022-06-12T10:12:54Z</time>
      </trkpt>
      <trkpt lat="48.25354" lon="-3.53017">
        <ele>99.6</ele>
        <time>2022-06-12T10:12:56Z</time>
      </trkpt>
      <trkpt lat="48.25353" lon="-3.53017">
        <ele>99.6</ele>
        <time>2022-06-12T10:12:57Z</time>
      </trkpt>
      <trkpt lat="48.25351" lon="-3.53016">
        <ele>99.7</ele>
        <time>2022-06-12T10:12:58Z</time>
      </trkpt>
      <trkpt lat="48.25352" lon="-3.53016">
        <ele>99.7</ele>
        <time>2022-06-12T10:12:59Z</time>
      </trkpt>
      <trkpt lat="48.25351" lon="-3.53016">
        <ele>99.7</ele>
        <time>2022-06-12T10:13:00Z</time>
      </trkpt>
      <trkpt lat="48.2535" lon="-3.53015">
        <ele>99.7</ele>
        <time>2022-06-12T10:13:01Z</time>
      </trkpt>
      <trkpt lat="48.25348" lon="-3.53014">
        <ele>99.8</ele>
        <time>2022-06-12T10:13:02Z</time>
      </trkpt>
      <trkpt lat="48.25347" lon="-3.53014">
        <ele>99.8</ele>
        <time>2022-06-12T10:13:04Z</time>
      </trkpt>
      <trkpt lat="48.25346" lon="-3.53013">
        <ele>99.8</ele>
        <time>2022-06-12T10:13:05Z</time>
      </trkpt>
      <trkpt lat="48.25345" lon="-3.53012">
        <ele>99.8</ele>
        <time>2022-06-12T10:13:06Z</time>
      </trkpt>
      <trkpt lat="48.25344" lon="-3.53012">
        <ele>99.8</ele>
        <time>2022-06-12T10:13:07Z</time>
      </trkpt>
      <trkpt lat="48.25342" lon="-3.5301">
        <ele>99.9</ele>
        <time>2022-06-12T10:13:08Z</time>
      </trkpt>
      <trkpt lat="48.25342" lon="-3.5301">
        <ele>99.9</ele>
        <time>2022-06-12T10:13:09Z</time>
      </trkpt>
      <trkpt lat="48.25341" lon="-3.5301">
        <ele>99.9</ele>
        <time>2022-06-12T10:13:10Z</time>
      </trkpt>
      <trkpt lat="48.2534" lon="-3.5301">
        <ele>99.9</ele>
        <time>2022-06-12T10:13:12Z</time>
      </trkpt>
      <trkpt lat="48.25339" lon="-3.53009">
        <ele>99.9</ele>
        <time>2022-06-12T10:13:13Z</time>
      </trkpt>
      <trkpt lat="48.25337" lon="-3.53009">
        <ele>100</ele>
        <time>2022-06-12T10:13:14Z</time>
      </trkpt>
      <trkpt lat="48.25336" lon="-3.53009">
        <ele>100</ele>
        <time>2022-06-12T10:13:15Z</time>
      </trkpt>
      <trkpt lat="48.25335" lon="-3.53009">
        <ele>100</ele>
        <time>2022-06-12T10:13:16Z</time>
      </trkpt>
      <trkpt lat="48.25334" lon="-3.53009">
        <ele>100</ele>
        <time>2022-06-12T10:13:17Z</time>
      </trkpt>
      <trkpt lat="48.25333" lon="-3.53008">
        <ele>100</ele>
        <time>2022-06-12T10:13:18Z</time>
      </trkpt>
      <trkpt lat="48.25332" lon="-3.53006">
        <ele>100</ele>
        <time>2022-06-12T10:13:20Z</time>
      </trkpt>
      <trkpt lat="48.2533" lon="-3.53004">
        <ele>100.1</ele>
        <time>2022-06-12T10:13:21Z</time>
      </trkpt>
      <trkpt lat="48.25328" lon="-3.53003">
        <ele>100.1</ele>
        <time>2022-06-12T10:13:22Z</time>
      </trkpt>
      <trkpt lat="48.25327" lon="-3.53001">
        <ele>100.1</ele>
        <time>2022-06-12T10:13:23Z</time>
      </trkpt>
      <trkpt lat="48.25327" lon="-3.53002">
        <ele>100.1</ele>
        <time>2022-06-12T10:13:24Z</time>
      </trkpt>
      <trkpt lat="48.25326" lon="-3.53001">
        <ele>100.1</ele>
        <time>2022-06-12T10:13:25Z</time>
      </trkpt>
      <trkpt lat="48.25325" lon="-3.53001">
        <ele>100.1</ele>
        <time>2022-06-12T10:13:26Z</time>
      </trkpt>
      <trkpt lat="48.25323" lon="-3.53">
        <ele>100.1</ele>
        <time>2022-06-12T10:13:28Z</time>
      </trkpt>
      <trkpt lat="48.25321" lon="-3.53">
        <ele>100.1</ele>
        <time>2022-06-12T10:13:29Z</time>
      </trkpt>
      <trkpt lat="48.25321" lon="-3.53">
        <ele>100.1</ele>
        <time>2022-06-12T10:13:30Z</time>
      </trkpt>
      <trkpt lat="48.2532" lon="-3.53">
        <ele>100.1</ele>
        <time>2022-06-12T10:13:31Z</time>
      </trkpt>
      <trkpt lat="48.2532" lon="-3.53">
        <ele>100.1</ele>
        <time>2022-06-12T10:13:32Z</time>
      </trkpt>
      <trkpt lat="48.25317" lon="-3.52998">
        <ele>100.1</ele>
        <time>2022-06-12T10:13:33Z</time>
      </trkpt>
      <trkpt lat="48.25316" lon="-3.52998">
        <ele>100.1</ele>
        <time>2022-06-12T10:13:35Z</time>
      </trkpt>
      <trkpt lat="48.25315" lon="-3.52997">
        <ele>100.1</ele>
        <time>2022-06-12T10:13:36Z</time>
      </trkpt>
      <trkpt lat="48.25314" lon="-3.52997">
        <ele>100.1</ele>
        <time>2022-06-12T10:13:37Z</time>
      </trkpt>
      <trkpt lat="48.25312" lon="-3.52995">
        <ele>100.1</ele>
        <time>2022-06-12T10:13:39Z</time>
      </trkpt>
      <trkpt lat="48.25311" lon="-3.52995">
        <ele>100.1</ele>
        <time>2022-06-12T10:13:40Z</time>
      </trkpt>
      <trkpt lat="48.2531" lon="-3.52994">
        <ele>100.1</ele>
        <time>2022-06-12T10:13:41Z</time>
      </trkpt>
      <trkpt lat="48.25309" lon="-3.52993">
        <ele>100.1</ele>
        <time>2022-06-12T10:13:42Z</time>
      </trkpt>
      <trkpt lat="48.25308" lon="-3.52992">
        <ele>100.1</ele>
        <time>2022-06-12T10:13:43Z</time>
      </trkpt>
      <trkpt lat="48.25306" lon="-3.52991">
        <ele>100.1</ele>
        <time>2022-06-12T10:13:44Z</time>
      </trkpt>
      <trkpt lat="48.25305" lon="-3.5299">
        <ele>100.1</ele>
        <time>2022-06-12T10:13:45Z</time>
      </trkpt>
      <trkpt lat="48.25304" lon="-3.52989">
        <ele>100.1</ele>
        <time>2022-06-12T10:13:46Z</time>
      </trkpt>
      <trkpt lat="48.25303" lon="-3.52988">
        <ele>100.1</ele>
        <time>2022-06-12T10:13:47Z</time>
      </trkpt>
      <trkpt lat="48.25301" lon="-3.52987">
        <ele>100.1</ele>
        <time>2022-06-12T10:13:49Z</time>
      </trkpt>
      <trkpt lat="48.25303" lon="-3.52987">
        <ele>100.1</ele>
        <time>2022-06-12T10:13:50Z</time>
      </trkpt>
      <trkpt lat="48.25302" lon="-3.52986">
        <ele>100.1</ele>
        <time>2022-06-12T10:13:51Z</time>
      </trkpt>
      <trkpt lat="48.25301" lon="-3.52985">
        <ele>100.1</ele>
        <time>2022-06-12T10:13:52Z</time>
      </trkpt>
      <trkpt lat="48.253" lon="-3.52984">
        <ele>100.1</ele>
        <time>2022-06-12T10:13:53Z</time>
      </trkpt>
      <trkpt lat="48.25299" lon="-3.52984">
        <ele>100.1</ele>
        <time>2022-06-12T10:13:54Z</time>
      </trkpt>
      <trkpt lat="48.25298" lon="-3.52983">
        <ele>100.1</ele>
        <time>2022-06-12T10:13:55Z</time>
      </trkpt>
      <trkpt lat="48.25297" lon="-3.52982">
        <ele>100.1</ele>
        <time>2022-06-12T10:13:56Z</time>
      </trkpt>
      <trkpt lat="48.25295" lon="-3.5298">
        <ele>100.1</ele>
        <time>2022-06-12T10:13:58Z</time>
      </trkpt>
      <trkpt lat="48.25293" lon="-3.52979">
        <ele>100.1</ele>
        <time>2022-06-12T10:13:59Z</time>
      </trkpt>
      <trkpt lat="48.25293" lon="-3.52979">
        <ele>100.1</ele>
        <time>2022-06-12T10:14:00Z</time>
      </trkpt>
      <trkpt lat="48.25292" lon="-3.52978">
        <ele>100.1</ele>
        <time>2022-06-12T10:14:02Z</time>
      </trkpt>
      <trkpt lat="48.25291" lon="-3.52977">
        <ele>100.1</ele>
        <time>2022-06-12T10:14:03Z</time>
      </trkpt>
      <trkpt lat="48.25289" lon="-3.52976">
        <ele>100.1</ele>
        <time>2022-06-12T10:14:04Z</time>
      </trkpt>
      <trkpt lat="48.25288" lon="-3.52976">
        <ele>100.1</ele>
        <time>2022-06-12T10:14:05Z</time>
      </trkpt>
      <trkpt lat="48.25287" lon="-3.52975">
        <ele>100.1</ele>
        <time>2022-06-12T10:14:06Z</time>
      </trkpt>
      <trkpt lat="48.25286" lon="-3.52974">
        <ele>100.1</ele>
        <time>2022-06-12T10:14:07Z</time>
      </trkpt>
      <trkpt lat="48.25285" lon="-3.52973">
        <ele>100.1</ele>
        <time>2022-06-12T10:14:08Z</time>
      </trkpt>
      <trkpt lat="48.25283" lon="-3.52972">
        <ele>100</ele>
        <time>2022-06-12T10:14:09Z</time>
      </trkpt>
      <trkpt lat="48.25283" lon="-3.52973">
        <ele>100</ele>
        <time>2022-06-12T10:14:10Z</time>
      </trkpt>
      <trkpt lat="48.25282" lon="-3.52973">
        <ele>100</ele>
        <time>2022-06-12T10:14:11Z</time>
      </trkpt>
      <trkpt lat="48.25281" lon="-3.52972">
        <ele>100</ele>
        <time>2022-06-12T10:14:13Z</time>
      </trkpt>
      <trkpt lat="48.25279" lon="-3.5297">
        <ele>100</ele>
        <time>2022-06-12T10:14:14Z</time>
      </trkpt>
      <trkpt lat="48.25277" lon="-3.5297">
        <ele>100</ele>
        <time>2022-06-12T10:14:15Z</time>
      </trkpt>
      <trkpt lat="48.25277" lon="-3.52969">
        <ele>100</ele>
        <time>2022-06-12T10:14:16Z</time>
      </trkpt>
      <trkpt lat="48.25276" lon="-3.52969">
        <ele>100</ele>
        <time>2022-06-12T10:14:17Z</time>
      </trkpt>
      <trkpt lat="48.25275" lon="-3.52968">
        <ele>100</ele>
        <time>2022-06-12T10:14:18Z</time>
      </trkpt>
      <trkpt lat="48.25274" lon="-3.52967">
        <ele>100</ele>
        <time>2022-06-12T10:14:19Z</time>
      </trkpt>
      <trkpt lat="48.25273" lon="-3.52967">
        <ele>100</ele>
        <time>2022-06-12T10:14:20Z</time>
      </trkpt>
      <trkpt lat="48.2527" lon="-3.52965">
        <ele>100</ele>
        <time>2022-06-12T10:14:21Z</time>
      </trkpt>
      <trkpt lat="48.25269" lon="-3.52964">
        <ele>100</ele>
        <time>2022-06-12T10:14:23Z</time>
      </trkpt>
      <trkpt lat="48.25268" lon="-3.52964">
        <ele>100</ele>
        <time>2022-06-12T10:14:24Z</time>
      </trkpt>
      <trkpt lat="48.25267" lon="-3.52963">
        <ele>100</ele>
        <time>2022-06-12T10:14:25Z</time>
      </trkpt>
      <trkpt lat="48.25266" lon="-3.52962">
        <ele>100</ele>
        <time>2022-06-12T10:14:26Z</time>
      </trkpt>
      <trkpt lat="48.25264" lon="-3.5296">
        <ele>100</ele>
        <time>2022-06-12T10:14:28Z</time>
      </trkpt>
      <trkpt lat="48.25262" lon="-3.52958">
        <ele>100</ele>
        <time>2022-06-12T10:14:29Z</time>
      </trkpt>
      <trkpt lat="48.25261" lon="-3.52957">
        <ele>100</ele>
        <time>2022-06-12T10:14:30Z</time>
      </trkpt>
      <trkpt lat="48.2526" lon="-3.52955">
        <ele>100</ele>
        <time>2022-06-12T10:14:31Z</time>
      </trkpt>
      <trkpt lat="48.25259" lon="-3.52954">
        <ele>100</ele>
        <time>2022-06-12T10:14:32Z</time>
      </trkpt>
      <trkpt lat="48.25258" lon="-3.52953">
        <ele>100</ele>
        <time>2022-06-12T10:14:33Z</time>
      </trkpt>
      <trkpt lat="48.25257" lon="-3.5295">
        <ele>100</ele>
        <time>2022-06-12T10:14:35Z</time>
      </trkpt>
      <trkpt lat="48.25256" lon="-3.52949">
        <ele>100</ele>
        <time>2022-06-12T10:14:36Z</time>
      </trkpt>
      <trkpt lat="48.25255" lon="-3.52947">
        <ele>100</ele>
        <time>2022-06-12T10:14:37Z</time>
      </trkpt>
      <trkpt lat="48.25255" lon="-3.52945">
        <ele>100</ele>
        <time>2022-06-12T10:14:38Z</time>
      </trkpt>
      <trkpt lat="48.25253" lon="-3.52941">
        <ele>100</ele>
        <time>2022-06-12T10:14:40Z</time>
      </trkpt>
      <trkpt lat="48.25253" lon="-3.52939">
        <ele>100</ele>
        <time>2022-06-12T10:14:41Z</time>
      </trkpt>
      <trkpt lat="48.25252" lon="-3.52937">
        <ele>100</ele>
        <time>2022-06-12T10:14:42Z</time>
      </trkpt>
      <trkpt lat="48.2525" lon="-3.52933">
        <ele>100</ele>
        <time>2022-06-12T10:14:43Z</time>
      </trkpt>
      <trkpt lat="48.2525" lon="-3.52931">
        <ele>100</ele>
        <time>2022-06-12T10:14:44Z</time>
      </trkpt>
      <trkpt lat="48.25249" lon="-3.52929">
        <ele>100</ele>
        <time>2022-06-12T10:14:45Z</time>
      </trkpt>
      <trkpt lat="48.25249" lon="-3.52927">
        <ele>100</ele>
        <time>2022-06-12T10:14:46Z</time>
      </trkpt>
      <trkpt lat="48.25248" lon="-3.52923">
        <ele>100</ele>
        <time>2022-06-12T10:14:48Z</time>
      </trkpt>
      <trkpt lat="48.25247" lon="-3.52921">
        <ele>100</ele>
        <time>2022-06-12T10:14:49Z</time>
      </trkpt>
      <trkpt lat="48.25247" lon="-3.52919">
        <ele>100</ele>
        <time>2022-06-12T10:14:50Z</time>
      </trkpt>
      <trkpt lat="48.25246" lon="-3.52917">
        <ele>100</ele>
        <time>2022-06-12T10:14:51Z</time>
      </trkpt>
      <trkpt lat="48.25245" lon="-3.52913">
        <ele>100</ele>
        <time>2022-06-12T10:14:53Z</time>
      </trkpt>
      <trkpt lat="48.25244" lon="-3.52911">
        <ele>100</ele>
        <time>2022-06-12T10:14:54Z</time>
      </trkpt>
      <trkpt lat="48.25243" lon="-3.52908">
        <ele>100</ele>
        <time>2022-06-12T10:14:56Z</time>
      </trkpt>
      <trkpt lat="48.25243" lon="-3.52907">
        <ele>100</ele>
        <time>2022-06-12T10:14:57Z</time>
      </trkpt>
      <trkpt lat="48.25242" lon="-3.52906">
        <ele>100</ele>
        <time>2022-06-12T10:14:58Z</time>
      </trkpt>
      <trkpt lat="48.25241" lon="-3.52903">
        <ele>100</ele>
        <time>2022-06-12T10:14:59Z</time>
      </trkpt>
      <trkpt lat="48.2524" lon="-3.52902">
        <ele>100</ele>
        <time>2022-06-12T10:15:00Z</time>
      </trkpt>
      <trkpt lat="48.25239" lon="-3.52899">
        <ele>100</ele>
        <time>2022-06-12T10:15:01Z</time>
      </trkpt>
      <trkpt lat="48.25239" lon="-3.52898">
        <ele>100</ele>
        <time>2022-06-12T10:15:02Z</time>
      </trkpt>
      <trkpt lat="48.25239" lon="-3.52897">
        <ele>100</ele>
        <time>2022-06-12T10:15:03Z</time>
      </trkpt>
      <trkpt lat="48.25238" lon="-3.52894">
        <ele>100</ele>
        <time>2022-06-12T10:15:04Z</time>
      </trkpt>
      <trkpt lat="48.25238" lon="-3.52892">
        <ele>100</ele>
        <time>2022-06-12T10:15:05Z</time>
      </trkpt>
      <trkpt lat="48.25237" lon="-3.5289">
        <ele>100</ele>
        <time>2022-06-12T10:15:06Z</time>
      </trkpt>
      <trkpt lat="48.25237" lon="-3.52888">
        <ele>100</ele>
        <time>2022-06-12T10:15:07Z</time>
      </trkpt>
      <trkpt lat="48.25236" lon="-3.52884">
        <ele>100</ele>
        <time>2022-06-12T10:15:08Z</time>
      </trkpt>
      <trkpt lat="48.25236" lon="-3.52882">
        <ele>100</ele>
        <time>2022-06-12T10:15:09Z</time>
      </trkpt>
      <trkpt lat="48.25236" lon="-3.52879">
        <ele>100</ele>
        <time>2022-06-12T10:15:10Z</time>
      </trkpt>
      <trkpt lat="48.25236" lon="-3.52878">
        <ele>100</ele>
        <time>2022-06-12T10:15:11Z</time>
      </trkpt>
      <trkpt lat="48.25236" lon="-3.52876">
        <ele>100</ele>
        <time>2022-06-12T10:15:13Z</time>
      </trkpt>
      <trkpt lat="48.25236" lon="-3.52874">
        <ele>100</ele>
        <time>2022-06-12T10:15:14Z</time>
      </trkpt>
      <trkpt lat="48.25235" lon="-3.52872">
        <ele>100</ele>
        <time>2022-06-12T10:15:15Z</time>
      </trkpt>
      <trkpt lat="48.25236" lon="-3.52869">
        <ele>100</ele>
        <time>2022-06-12T10:15:16Z</time>
      </trkpt>
      <trkpt lat="48.25236" lon="-3.52867">
        <ele>100</ele>
        <time>2022-06-12T10:15:17Z</time>
      </trkpt>
      <trkpt lat="48.25236" lon="-3.52866">
        <ele>100</ele>
        <time>2022-06-12T10:15:18Z</time>
      </trkpt>
      <trkpt lat="48.25235" lon="-3.52861">
        <ele>100.1</ele>
        <time>2022-06-12T10:15:19Z</time>
      </trkpt>
      <trkpt lat="48.25236" lon="-3.52859">
        <ele>100.1</ele>
        <time>2022-06-12T10:15:20Z</time>
      </trkpt>
      <trkpt lat="48.25236" lon="-3.52856">
        <ele>100.1</ele>
        <time>2022-06-12T10:15:21Z</time>
      </trkpt>
      <trkpt lat="48.25236" lon="-3.52855">
        <ele>100.1</ele>
        <time>2022-06-12T10:15:22Z</time>
      </trkpt>
      <trkpt lat="48.25236" lon="-3.52852">
        <ele>100.1</ele>
        <time>2022-06-12T10:15:24Z</time>
      </trkpt>
      <trkpt lat="48.25237" lon="-3.52849">
        <ele>100.1</ele>
        <time>2022-06-12T10:15:25Z</time>
      </trkpt>
      <trkpt lat="48.25237" lon="-3.52847">
        <ele>100.1</ele>
        <time>2022-06-12T10:15:26Z</time>
      </trkpt>
      <trkpt lat="48.25237" lon="-3.52846">
        <ele>100.1</ele>
        <time>2022-06-12T10:15:27Z</time>
      </trkpt>
      <trkpt lat="48.25237" lon="-3.52844">
        <ele>100.1</ele>
        <time>2022-06-12T10:15:28Z</time>
      </trkpt>
      <trkpt lat="48.25238" lon="-3.52842">
        <ele>100.1</ele>
        <time>2022-06-12T10:15:29Z</time>
      </trkpt>
      <trkpt lat="48.25238" lon="-3.52839">
        <ele>100.1</ele>
        <time>2022-06-12T10:15:30Z</time>
      </trkpt>
      <trkpt lat="48.25239" lon="-3.52837">
        <ele>100.1</ele>
        <time>2022-06-12T10:15:31Z</time>
      </trkpt>
      <trkpt lat="48.2524" lon="-3.52834">
        <ele>100.1</ele>
        <time>2022-06-12T10:15:32Z</time>
      </trkpt>
      <trkpt lat="48.2524" lon="-3.52832">
        <ele>100.1</ele>
        <time>2022-06-12T10:15:33Z</time>
      </trkpt>
      <trkpt lat="48.25241" lon="-3.52831">
        <ele>100.2</ele>
        <time>2022-06-12T10:15:34Z</time>
      </trkpt>
      <trkpt lat="48.25241" lon="-3.5283">
        <ele>100.2</ele>
        <time>2022-06-12T10:15:35Z</time>
      </trkpt>
      <trkpt lat="48.25242" lon="-3.52828">
        <ele>100.2</ele>
        <time>2022-06-12T10:15:36Z</time>
      </trkpt>
      <trkpt lat="48.25243" lon="-3.52826">
        <ele>100.2</ele>
        <time>2022-06-12T10:15:38Z</time>
      </trkpt>
      <trkpt lat="48.25244" lon="-3.52823">
        <ele>100.2</ele>
        <time>2022-06-12T10:15:39Z</time>
      </trkpt>
      <trkpt lat="48.25245" lon="-3.52822">
        <ele>100.2</ele>
        <time>2022-06-12T10:15:40Z</time>
      </trkpt>
      <trkpt lat="48.25246" lon="-3.52819">
        <ele>100.2</ele>
        <time>2022-06-12T10:15:41Z</time>
      </trkpt>
      <trkpt lat="48.25246" lon="-3.52818">
        <ele>100.2</ele>
        <time>2022-06-12T10:15:42Z</time>
      </trkpt>
      <trkpt lat="48.25247" lon="-3.52817">
        <ele>100.2</ele>
        <time>2022-06-12T10:15:43Z</time>
      </trkpt>
      <trkpt lat="48.25248" lon="-3.52816">
        <ele>100.2</ele>
        <time>2022-06-12T10:15:44Z</time>
      </trkpt>
      <trkpt lat="48.25248" lon="-3.52814">
        <ele>100.2</ele>
        <time>2022-06-12T10:15:45Z</time>
      </trkpt>
      <trkpt lat="48.25249" lon="-3.52812">
        <ele>100.2</ele>
        <time>2022-06-12T10:15:47Z</time>
      </trkpt>
      <trkpt lat="48.25251" lon="-3.52809">
        <ele>100.2</ele>
        <time>2022-06-12T10:15:48Z</time>
      </trkpt>
      <trkpt lat="48.25252" lon="-3.52808">
        <ele>100.2</ele>
        <time>2022-06-12T10:15:50Z</time>
      </trkpt>
      <trkpt lat="48.25252" lon="-3.52806">
        <ele>100.2</ele>
        <time>2022-06-12T10:15:51Z</time>
      </trkpt>
      <trkpt lat="48.25253" lon="-3.52805">
        <ele>100.2</ele>
        <time>2022-06-12T10:15:52Z</time>
      </trkpt>
      <trkpt lat="48.25253" lon="-3.52804">
        <ele>100.3</ele>
        <time>2022-06-12T10:15:53Z</time>
      </trkpt>
      <trkpt lat="48.25254" lon="-3.52803">
        <ele>100.3</ele>
        <time>2022-06-12T10:15:54Z</time>
      </trkpt>
      <trkpt lat="48.25255" lon="-3.52801">
        <ele>100.3</ele>
        <time>2022-06-12T10:15:55Z</time>
      </trkpt>
      <trkpt lat="48.25255" lon="-3.52801">
        <ele>100.3</ele>
        <time>2022-06-12T10:15:56Z</time>
      </trkpt>
      <trkpt lat="48.25255" lon="-3.52801">
        <ele>100.3</ele>
        <time>2022-06-12T10:15:58Z</time>
      </trkpt>
      <trkpt lat="48.25255" lon="-3.528">
        <ele>100.3</ele>
        <time>2022-06-12T10:15:59Z</time>
      </trkpt>
      <trkpt lat="48.25257" lon="-3.52798">
        <ele>100.3</ele>
        <time>2022-06-12T10:16:00Z</time>
      </trkpt>
      <trkpt lat="48.25257" lon="-3.52796">
        <ele>100.3</ele>
        <time>2022-06-12T10:16:01Z</time>
      </trkpt>
      <trkpt lat="48.25258" lon="-3.52795">
        <ele>100.3</ele>
        <time>2022-06-12T10:16:02Z</time>
      </trkpt>
      <trkpt lat="48.25259" lon="-3.52793">
        <ele>100.3</ele>
        <time>2022-06-12T10:16:04Z</time>
      </trkpt>
      <trkpt lat="48.2526" lon="-3.52791">
        <ele>100.3</ele>
        <time>2022-06-12T10:16:05Z</time>
      </trkpt>
      <trkpt lat="48.2526" lon="-3.5279">
        <ele>100.3</ele>
        <time>2022-06-12T10:16:06Z</time>
      </trkpt>
      <trkpt lat="48.25261" lon="-3.52787">
        <ele>100.3</ele>
        <time>2022-06-12T10:16:07Z</time>
      </trkpt>
      <trkpt lat="48.25261" lon="-3.52786">
        <ele>100.3</ele>
        <time>2022-06-12T10:16:08Z</time>
      </trkpt>
      <trkpt lat="48.25262" lon="-3.52785">
        <ele>100.3</ele>
        <time>2022-06-12T10:16:09Z</time>
      </trkpt>
      <trkpt lat="48.25262" lon="-3.52784">
        <ele>100.3</ele>
        <time>2022-06-12T10:16:10Z</time>
      </trkpt>
      <trkpt lat="48.25263" lon="-3.52782">
        <ele>100.3</ele>
        <time>2022-06-12T10:16:11Z</time>
      </trkpt>
      <trkpt lat="48.25264" lon="-3.52779">
        <ele>100.3</ele>
        <time>2022-06-12T10:16:12Z</time>
      </trkpt>
      <trkpt lat="48.25265" lon="-3.52777">
        <ele>100.3</ele>
        <time>2022-06-12T10:16:13Z</time>
      </trkpt>
      <trkpt lat="48.25266" lon="-3.52776">
        <ele>100.3</ele>
        <time>2022-06-12T10:16:14Z</time>
      </trkpt>
      <trkpt lat="48.25267" lon="-3.52775">
        <ele>100.3</ele>
        <time>2022-06-12T10:16:15Z</time>
      </trkpt>
      <trkpt lat="48.25268" lon="-3.52774">
        <ele>100.3</ele>
        <time>2022-06-12T10:16:16Z</time>
      </trkpt>
      <trkpt lat="48.25269" lon="-3.52772">
        <ele>100.3</ele>
        <time>2022-06-12T10:16:17Z</time>
      </trkpt>
      <trkpt lat="48.2527" lon="-3.52771">
        <ele>100.3</ele>
        <time>2022-06-12T10:16:18Z</time>
      </trkpt>
      <trkpt lat="48.25271" lon="-3.52769">
        <ele>100.3</ele>
        <time>2022-06-12T10:16:19Z</time>
      </trkpt>
      <trkpt lat="48.25273" lon="-3.52767">
        <ele>100.3</ele>
        <time>2022-06-12T10:16:20Z</time>
      </trkpt>
      <trkpt lat="48.25273" lon="-3.52766">
        <ele>100.3</ele>
        <time>2022-06-12T10:16:21Z</time>
      </trkpt>
      <trkpt lat="48.25274" lon="-3.52765">
        <ele>100.3</ele>
        <time>2022-06-12T10:16:22Z</time>
      </trkpt>
      <trkpt lat="48.25274" lon="-3.52763">
        <ele>100.3</ele>
        <time>2022-06-12T10:16:23Z</time>
      </trkpt>
      <trkpt lat="48.25275" lon="-3.52761">
        <ele>100.3</ele>
        <time>2022-06-12T10:16:24Z</time>
      </trkpt>
      <trkpt lat="48.25276" lon="-3.52758">
        <ele>100.3</ele>
        <time>2022-06-12T10:16:26Z</time>
      </trkpt>
      <trkpt lat="48.25277" lon="-3.52756">
        <ele>100.3</ele>
        <time>2022-06-12T10:16:27Z</time>
      </trkpt>
      <trkpt lat="48.25278" lon="-3.52754">
        <ele>100.3</ele>
        <time>2022-06-12T10:16:28Z</time>
      </trkpt>
      <trkpt lat="48.25279" lon="-3.52752">
        <ele>100.3</ele>
        <time>2022-06-12T10:16:29Z</time>
      </trkpt>
      <trkpt lat="48.2528" lon="-3.5275">
        <ele>100.3</ele>
        <time>2022-06-12T10:16:30Z</time>
      </trkpt>
      <trkpt lat="48.25281" lon="-3.52748">
        <ele>100.3</ele>
        <time>2022-06-12T10:16:31Z</time>
      </trkpt>
      <trkpt lat="48.25282" lon="-3.52747">
        <ele>100.3</ele>
        <time>2022-06-12T10:16:32Z</time>
      </trkpt>
      <trkpt lat="48.25283" lon="-3.52745">
        <ele>100.3</ele>
        <time>2022-06-12T10:16:34Z</time>
      </trkpt>
      <trkpt lat="48.25284" lon="-3.52743">
        <ele>100.3</ele>
        <time>2022-06-12T10:16:35Z</time>
      </trkpt>
      <trkpt lat="48.25284" lon="-3.52742">
        <ele>100.3</ele>
        <time>2022-06-12T10:16:36Z</time>
      </trkpt>
      <trkpt lat="48.25284" lon="-3.52741">
        <ele>100.3</ele>
        <time>2022-06-12T10:16:37Z</time>
      </trkpt>
      <trkpt lat="48.25283" lon="-3.5274">
        <ele>100.3</ele>
        <time>2022-06-12T10:16:38Z</time>
      </trkpt>
      <trkpt lat="48.25283" lon="-3.52739">
        <ele>100.3</ele>
        <time>2022-06-12T10:16:39Z</time>
      </trkpt>
      <trkpt lat="48.25283" lon="-3.52738">
        <ele>100.3</ele>
        <time>2022-06-12T10:16:40Z</time>
      </trkpt>
      <trkpt lat="48.25284" lon="-3.52737">
        <ele>100.3</ele>
        <time>2022-06-12T10:16:41Z</time>
      </trkpt>
      <trkpt lat="48.25286" lon="-3.52735">
        <ele>100.3</ele>
        <time>2022-06-12T10:16:42Z</time>
      </trkpt>
      <trkpt lat="48.25287" lon="-3.52734">
        <ele>100.3</ele>
        <time>2022-06-12T10:16:44Z</time>
      </trkpt>
      <trkpt lat="48.25288" lon="-3.52733">
        <ele>100.3</ele>
        <time>2022-06-12T10:16:45Z</time>
      </trkpt>
      <trkpt lat="48.2529" lon="-3.52731">
        <ele>100.3</ele>
        <time>2022-06-12T10:16:46Z</time>
      </trkpt>
      <trkpt lat="48.2529" lon="-3.5273">
        <ele>100.3</ele>
        <time>2022-06-12T10:16:48Z</time>
      </trkpt>
      <trkpt lat="48.25291" lon="-3.52729">
        <ele>100.3</ele>
        <time>2022-06-12T10:16:49Z</time>
      </trkpt>
      <trkpt lat="48.25292" lon="-3.52728">
        <ele>100.3</ele>
        <time>2022-06-12T10:16:50Z</time>
      </trkpt>
      <trkpt lat="48.25294" lon="-3.52727">
        <ele>100.3</ele>
        <time>2022-06-12T10:16:51Z</time>
      </trkpt>
      <trkpt lat="48.25295" lon="-3.52726">
        <ele>100.3</ele>
        <time>2022-06-12T10:16:52Z</time>
      </trkpt>
      <trkpt lat="48.25296" lon="-3.52725">
        <ele>100.3</ele>
        <time>2022-06-12T10:16:53Z</time>
      </trkpt>
      <trkpt lat="48.25297" lon="-3.52723">
        <ele>100.3</ele>
        <time>2022-06-12T10:16:55Z</time>
      </trkpt>
      <trkpt lat="48.25299" lon="-3.52722">
        <ele>100.3</ele>
        <time>2022-06-12T10:16:56Z</time>
      </trkpt>
      <trkpt lat="48.253" lon="-3.52721">
        <ele>100.3</ele>
        <time>2022-06-12T10:16:57Z</time>
      </trkpt>
      <trkpt lat="48.25301" lon="-3.52721">
        <ele>100.3</ele>
        <time>2022-06-12T10:16:58Z</time>
      </trkpt>
      <trkpt lat="48.25302" lon="-3.5272">
        <ele>100.3</ele>
        <time>2022-06-12T10:16:59Z</time>
      </trkpt>
      <trkpt lat="48.25303" lon="-3.5272">
        <ele>100.3</ele>
        <time>2022-06-12T10:17:00Z</time>
      </trkpt>
      <trkpt lat="48.25303" lon="-3.52721">
        <ele>100.4</ele>
        <time>2022-06-12T10:17:01Z</time>
      </trkpt>
      <trkpt lat="48.25304" lon="-3.5272">
        <ele>100.4</ele>
        <time>2022-06-12T10:17:02Z</time>
      </trkpt>
      <trkpt lat="48.25305" lon="-3.5272">
        <ele>100.4</ele>
        <time>2022-06-12T10:17:03Z</time>
      </trkpt>
      <trkpt lat="48.25305" lon="-3.52719">
        <ele>100.4</ele>
        <time>2022-06-12T10:17:04Z</time>
      </trkpt>
      <trkpt lat="48.25306" lon="-3.52719">
        <ele>100.4</ele>
        <time>2022-06-12T10:17:06Z</time>
      </trkpt>
      <trkpt lat="48.25308" lon="-3.52718">
        <ele>100.4</ele>
        <time>2022-06-12T10:17:07Z</time>
      </trkpt>
      <trkpt lat="48.25308" lon="-3.52718">
        <ele>100.4</ele>
        <time>2022-06-12T10:17:08Z</time>
      </trkpt>
      <trkpt lat="48.25309" lon="-3.52718">
        <ele>100.4</ele>
        <time>2022-06-12T10:17:09Z</time>
      </trkpt>
      <trkpt lat="48.25311" lon="-3.52717">
        <ele>100.4</ele>
        <time>2022-06-12T10:17:11Z</time>
      </trkpt>
      <trkpt lat="48.25313" lon="-3.52716">
        <ele>100.4</ele>
        <time>2022-06-12T10:17:12Z</time>
      </trkpt>
      <trkpt lat="48.25314" lon="-3.52715">
        <ele>100.4</ele>
        <time>2022-06-12T10:17:13Z</time>
      </trkpt>
      <trkpt lat="48.25315" lon="-3.52715">
        <ele>100.4</ele>
        <time>2022-06-12T10:17:14Z</time>
      </trkpt>
      <trkpt lat="48.25316" lon="-3.52714">
        <ele>100.4</ele>
        <time>2022-06-12T10:17:15Z</time>
      </trkpt>
      <trkpt lat="48.25317" lon="-3.52714">
        <ele>100.4</ele>
        <time>2022-06-12T10:17:16Z</time>
      </trkpt>
      <trkpt lat="48.25318" lon="-3.52714">
        <ele>100.4</ele>
        <time>2022-06-12T10:17:17Z</time>
      </trkpt>
      <trkpt lat="48.25319" lon="-3.52714">
        <ele>100.4</ele>
        <time>2022-06-12T10:17:18Z</time>
      </trkpt>
      <trkpt lat="48.2532" lon="-3.52713">
        <ele>100.4</ele>
        <time>2022-06-12T10:17:19Z</time>
      </trkpt>
      <trkpt lat="48.25321" lon="-3.52713">
        <ele>100.4</ele>
        <time>2022-06-12T10:17:20Z</time>
      </trkpt>
      <trkpt lat="48.25323" lon="-3.52712">
        <ele>100.4</ele>
        <time>2022-06-12T10:17:22Z</time>
      </trkpt>
      <trkpt lat="48.25324" lon="-3.52712">
        <ele>100.4</ele>
        <time>2022-06-12T10:17:23Z</time>
      </trkpt>
      <trkpt lat="48.25325" lon="-3.52711">
        <ele>100.4</ele>
        <time>2022-06-12T10:17:24Z</time>
      </trkpt>
      <trkpt lat="48.25326" lon="-3.5271">
        <ele>100.4</ele>
        <time>2022-06-12T10:17:25Z</time>
      </trkpt>
      <trkpt lat="48.25328" lon="-3.52709">
        <ele>100.4</ele>
        <time>2022-06-12T10:17:26Z</time>
      </trkpt>
      <trkpt lat="48.25329" lon="-3.52708">
        <ele>100.4</ele>
        <time>2022-06-12T10:17:27Z</time>
      </trkpt>
      <trkpt lat="48.25331" lon="-3.52707">
        <ele>100.3</ele>
        <time>2022-06-12T10:17:28Z</time>
      </trkpt>
      <trkpt lat="48.25332" lon="-3.52706">
        <ele>100.3</ele>
        <time>2022-06-12T10:17:29Z</time>
      </trkpt>
      <trkpt lat="48.25333" lon="-3.52706">
        <ele>100.3</ele>
        <time>2022-06-12T10:17:30Z</time>
      </trkpt>
      <trkpt lat="48.25334" lon="-3.52705">
        <ele>100.3</ele>
        <time>2022-06-12T10:17:31Z</time>
      </trkpt>
      <trkpt lat="48.25335" lon="-3.52704">
        <ele>100.3</ele>
        <time>2022-06-12T10:17:33Z</time>
      </trkpt>
      <trkpt lat="48.25336" lon="-3.52703">
        <ele>100.3</ele>
        <time>2022-06-12T10:17:34Z</time>
      </trkpt>
      <trkpt lat="48.25337" lon="-3.52703">
        <ele>100.3</ele>
        <time>2022-06-12T10:17:35Z</time>
      </trkpt>
      <trkpt lat="48.25338" lon="-3.52702">
        <ele>100.3</ele>
        <time>2022-06-12T10:17:36Z</time>
      </trkpt>
      <trkpt lat="48.25341" lon="-3.527">
        <ele>100.3</ele>
        <time>2022-06-12T10:17:37Z</time>
      </trkpt>
      <trkpt lat="48.25341" lon="-3.527">
        <ele>100.3</ele>
        <time>2022-06-12T10:17:38Z</time>
      </trkpt>
      <trkpt lat="48.25342" lon="-3.52699">
        <ele>100.3</ele>
        <time>2022-06-12T10:17:39Z</time>
      </trkpt>
      <trkpt lat="48.25344" lon="-3.52698">
        <ele>100.3</ele>
        <time>2022-06-12T10:17:40Z</time>
      </trkpt>
      <trkpt lat="48.25344" lon="-3.52698">
        <ele>100.3</ele>
        <time>2022-06-12T10:17:41Z</time>
      </trkpt>
      <trkpt lat="48.25345" lon="-3.52697">
        <ele>100.3</ele>
        <time>2022-06-12T10:17:42Z</time>
      </trkpt>
      <trkpt lat="48.25348" lon="-3.52696">
        <ele>100.3</ele>
        <time>2022-06-12T10:17:43Z</time>
      </trkpt>
      <trkpt lat="48.25349" lon="-3.52695">
        <ele>100.3</ele>
        <time>2022-06-12T10:17:45Z</time>
      </trkpt>
      <trkpt lat="48.2535" lon="-3.52694">
        <ele>100.3</ele>
        <time>2022-06-12T10:17:46Z</time>
      </trkpt>
      <trkpt lat="48.25351" lon="-3.52694">
        <ele>100.3</ele>
        <time>2022-06-12T10:17:47Z</time>
      </trkpt>
      <trkpt lat="48.25352" lon="-3.52693">
        <ele>100.3</ele>
        <time>2022-06-12T10:17:48Z</time>
      </trkpt>
      <trkpt lat="48.25353" lon="-3.52692">
        <ele>100.3</ele>
        <time>2022-06-12T10:17:49Z</time>
      </trkpt>
      <trkpt lat="48.25354" lon="-3.52691">
        <ele>100.3</ele>
        <time>2022-06-12T10:17:50Z</time>
      </trkpt>
      <trkpt lat="48.25356" lon="-3.5269">
        <ele>100.3</ele>
        <time>2022-06-12T10:17:51Z</time>
      </trkpt>
      <trkpt lat="48.25357" lon="-3.52689">
        <ele>100.3</ele>
        <time>2022-06-12T10:17:52Z</time>
      </trkpt>
      <trkpt lat="48.25358" lon="-3.52687">
        <ele>100.3</ele>
        <time>2022-06-12T10:17:53Z</time>
      </trkpt>
      <trkpt lat="48.25359" lon="-3.52687">
        <ele>100.3</ele>
        <time>2022-06-12T10:17:54Z</time>
      </trkpt>
      <trkpt lat="48.2536" lon="-3.52686">
        <ele>100.3</ele>
        <time>2022-06-12T10:17:56Z</time>
      </trkpt>
      <trkpt lat="48.25362" lon="-3.52685">
        <ele>100.3</ele>
        <time>2022-06-12T10:17:57Z</time>
      </trkpt>
      <trkpt lat="48.25363" lon="-3.52684">
        <ele>100.3</ele>
        <time>2022-06-12T10:17:58Z</time>
      </trkpt>
      <trkpt lat="48.25364" lon="-3.52683">
        <ele>100.3</ele>
        <time>2022-06-12T10:17:59Z</time>
      </trkpt>
      <trkpt lat="48.25365" lon="-3.52682">
        <ele>100.3</ele>
        <time>2022-06-12T10:18:00Z</time>
      </trkpt>
      <trkpt lat="48.25366" lon="-3.52681">
        <ele>100.3</ele>
        <time>2022-06-12T10:18:01Z</time>
      </trkpt>
      <trkpt lat="48.25368" lon="-3.5268">
        <ele>100.3</ele>
        <time>2022-06-12T10:18:02Z</time>
      </trkpt>
      <trkpt lat="48.25369" lon="-3.5268">
        <ele>100.3</ele>
        <time>2022-06-12T10:18:04Z</time>
      </trkpt>
      <trkpt lat="48.2537" lon="-3.52679">
        <ele>100.3</ele>
        <time>2022-06-12T10:18:05Z</time>
      </trkpt>
      <trkpt lat="48.25371" lon="-3.52679">
        <ele>100.3</ele>
        <time>2022-06-12T10:18:06Z</time>
      </trkpt>
      <trkpt lat="48.25372" lon="-3.52678">
        <ele>100.3</ele>
        <time>2022-06-12T10:18:07Z</time>
      </trkpt>
      <trkpt lat="48.25375" lon="-3.52677">
        <ele>100.3</ele>
        <time>2022-06-12T10:18:08Z</time>
      </trkpt>
      <trkpt lat="48.25376" lon="-3.52677">
        <ele>100.3</ele>
        <time>2022-06-12T10:18:10Z</time>
      </trkpt>
      <trkpt lat="48.25377" lon="-3.52676">
        <ele>100.3</ele>
        <time>2022-06-12T10:18:11Z</time>
      </trkpt>
      <trkpt lat="48.25378" lon="-3.52675">
        <ele>100.3</ele>
        <time>2022-06-12T10:18:12Z</time>
      </trkpt>
      <trkpt lat="48.25379" lon="-3.52675">
        <ele>100.3</ele>
        <time>2022-06-12T10:18:13Z</time>
      </trkpt>
      <trkpt lat="48.25381" lon="-3.52674">
        <ele>100.3</ele>
        <time>2022-06-12T10:18:14Z</time>
      </trkpt>
      <trkpt lat="48.25382" lon="-3.52673">
        <ele>100.3</ele>
        <time>2022-06-12T10:18:15Z</time>
      </trkpt>
      <trkpt lat="48.25384" lon="-3.52672">
        <ele>100.3</ele>
        <time>2022-06-12T10:18:17Z</time>
      </trkpt>
      <trkpt lat="48.25384" lon="-3.52672">
        <ele>100.3</ele>
        <time>2022-06-12T10:18:18Z</time>
      </trkpt>
      <trkpt lat="48.25385" lon="-3.52671">
        <ele>100.3</ele>
        <time>2022-06-12T10:18:19Z</time>
      </trkpt>
      <trkpt lat="48.25386" lon="-3.52671">
        <ele>100.3</ele>
        <time>2022-06-12T10:18:20Z</time>
      </trkpt>
      <trkpt lat="48.25388" lon="-3.5267">
        <ele>100.4</ele>
        <time>2022-06-12T10:18:22Z</time>
      </trkpt>
      <trkpt lat="48.25389" lon="-3.52669">
        <ele>100.4</ele>
        <time>2022-06-12T10:18:23Z</time>
      </trkpt>
      <trkpt lat="48.2539" lon="-3.52669">
        <ele>100.4</ele>
        <time>2022-06-12T10:18:24Z</time>
      </trkpt>
      <trkpt lat="48.25391" lon="-3.52668">
        <ele>100.4</ele>
        <time>2022-06-12T10:18:25Z</time>
      </trkpt>
      <trkpt lat="48.25392" lon="-3.52667">
        <ele>100.4</ele>
        <time>2022-06-12T10:18:26Z</time>
      </trkpt>
      <trkpt lat="48.25393" lon="-3.52667">
        <ele>100.4</ele>
        <time>2022-06-12T10:18:27Z</time>
      </trkpt>
      <trkpt lat="48.25394" lon="-3.52666">
        <ele>100.4</ele>
        <time>2022-06-12T10:18:28Z</time>
      </trkpt>
      <trkpt lat="48.25395" lon="-3.52666">
        <ele>100.4</ele>
        <time>2022-06-12T10:18:29Z</time>
      </trkpt>
      <trkpt lat="48.25396" lon="-3.52665">
        <ele>100.4</ele>
        <time>2022-06-12T10:18:30Z</time>
      </trkpt>
      <trkpt lat="48.25397" lon="-3.52665">
        <ele>100.4</ele>
        <time>2022-06-12T10:18:31Z</time>
      </trkpt>
      <trkpt lat="48.25399" lon="-3.52664">
        <ele>100.4</ele>
        <time>2022-06-12T10:18:32Z</time>
      </trkpt>
      <trkpt lat="48.254" lon="-3.52663">
        <ele>100.4</ele>
        <time>2022-06-12T10:18:33Z</time>
      </trkpt>
      <trkpt lat="48.25401" lon="-3.52663">
        <ele>100.4</ele>
        <time>2022-06-12T10:18:34Z</time>
      </trkpt>
      <trkpt lat="48.25402" lon="-3.52662">
        <ele>100.4</ele>
        <time>2022-06-12T10:18:36Z</time>
      </trkpt>
      <trkpt lat="48.25403" lon="-3.52661">
        <ele>100.5</ele>
        <time>2022-06-12T10:18:37Z</time>
      </trkpt>
      <trkpt lat="48.25404" lon="-3.52661">
        <ele>100.5</ele>
        <time>2022-06-12T10:18:38Z</time>
      </trkpt>
      <trkpt lat="48.25405" lon="-3.5266">
        <ele>100.5</ele>
        <time>2022-06-12T10:18:39Z</time>
      </trkpt>
      <trkpt lat="48.25406" lon="-3.5266">
        <ele>100.5</ele>
        <time>2022-06-12T10:18:40Z</time>
      </trkpt>
      <trkpt lat="48.25407" lon="-3.52659">
        <ele>100.5</ele>
        <time>2022-06-12T10:18:41Z</time>
      </trkpt>
      <trkpt lat="48.25408" lon="-3.52659">
        <ele>100.5</ele>
        <time>2022-06-12T10:18:42Z</time>
      </trkpt>
      <trkpt lat="48.2541" lon="-3.52658">
        <ele>100.5</ele>
        <time>2022-06-12T10:18:44Z</time>
      </trkpt>
      <trkpt lat="48.25411" lon="-3.52658">
        <ele>100.5</ele>
        <time>2022-06-12T10:18:45Z</time>
      </trkpt>
      <trkpt lat="48.25413" lon="-3.52657">
        <ele>100.5</ele>
        <time>2022-06-12T10:18:46Z</time>
      </trkpt>
      <trkpt lat="48.25414" lon="-3.52656">
        <ele>100.5</ele>
        <time>2022-06-12T10:18:48Z</time>
      </trkpt>
      <trkpt lat="48.25415" lon="-3.52656">
        <ele>100.5</ele>
        <time>2022-06-12T10:18:49Z</time>
      </trkpt>
      <trkpt lat="48.25416" lon="-3.52655">
        <ele>100.5</ele>
        <time>2022-06-12T10:18:50Z</time>
      </trkpt>
      <trkpt lat="48.25417" lon="-3.52655">
        <ele>100.5</ele>
        <time>2022-06-12T10:18:51Z</time>
      </trkpt>
      <trkpt lat="48.25418" lon="-3.52654">
        <ele>100.5</ele>
        <time>2022-06-12T10:18:52Z</time>
      </trkpt>
      <trkpt lat="48.25419" lon="-3.52654">
        <ele>100.5</ele>
        <time>2022-06-12T10:18:53Z</time>
      </trkpt>
      <trkpt lat="48.25422" lon="-3.52653">
        <ele>100.5</ele>
        <time>2022-06-12T10:18:54Z</time>
      </trkpt>
      <trkpt lat="48.25422" lon="-3.52652">
        <ele>100.5</ele>
        <time>2022-06-12T10:18:55Z</time>
      </trkpt>
      <trkpt lat="48.25423" lon="-3.52652">
        <ele>100.5</ele>
        <time>2022-06-12T10:18:56Z</time>
      </trkpt>
      <trkpt lat="48.25425" lon="-3.52651">
        <ele>100.5</ele>
        <time>2022-06-12T10:18:58Z</time>
      </trkpt>
      <trkpt lat="48.25426" lon="-3.5265">
        <ele>100.5</ele>
        <time>2022-06-12T10:18:59Z</time>
      </trkpt>
      <trkpt lat="48.25428" lon="-3.52649">
        <ele>100.5</ele>
        <time>2022-06-12T10:19:01Z</time>
      </trkpt>
      <trkpt lat="48.25429" lon="-3.52648">
        <ele>100.5</ele>
        <time>2022-06-12T10:19:02Z</time>
      </trkpt>
      <trkpt lat="48.2543" lon="-3.52647">
        <ele>100.5</ele>
        <time>2022-06-12T10:19:03Z</time>
      </trkpt>
      <trkpt lat="48.25431" lon="-3.52647">
        <ele>100.5</ele>
        <time>2022-06-12T10:19:04Z</time>
      </trkpt>
      <trkpt lat="48.25432" lon="-3.52646">
        <ele>100.5</ele>
        <time>2022-06-12T10:19:05Z</time>
      </trkpt>
      <trkpt lat="48.25433" lon="-3.52645">
        <ele>100.5</ele>
        <time>2022-06-12T10:19:06Z</time>
      </trkpt>
      <trkpt lat="48.25435" lon="-3.52645">
        <ele>100.5</ele>
        <time>2022-06-12T10:19:07Z</time>
      </trkpt>
      <trkpt lat="48.25436" lon="-3.52644">
        <ele>100.5</ele>
        <time>2022-06-12T10:19:08Z</time>
      </trkpt>
      <trkpt lat="48.25437" lon="-3.52643">
        <ele>100.5</ele>
        <time>2022-06-12T10:19:10Z</time>
      </trkpt>
      <trkpt lat="48.25439" lon="-3.52643">
        <ele>100.5</ele>
        <time>2022-06-12T10:19:11Z</time>
      </trkpt>
      <trkpt lat="48.25441" lon="-3.52642">
        <ele>100.5</ele>
        <time>2022-06-12T10:19:12Z</time>
      </trkpt>
      <trkpt lat="48.25443" lon="-3.52641">
        <ele>100.5</ele>
        <time>2022-06-12T10:19:14Z</time>
      </trkpt>
      <trkpt lat="48.25444" lon="-3.52641">
        <ele>100.5</ele>
        <time>2022-06-12T10:19:15Z</time>
      </trkpt>
      <trkpt lat="48.25445" lon="-3.52641">
        <ele>100.5</ele>
        <time>2022-06-12T10:19:16Z</time>
      </trkpt>
      <trkpt lat="48.25446" lon="-3.52641">
        <ele>100.5</ele>
        <time>2022-06-12T10:19:17Z</time>
      </trkpt>
      <trkpt lat="48.25447" lon="-3.5264">
        <ele>100.5</ele>
        <time>2022-06-12T10:19:18Z</time>
      </trkpt>
      <trkpt lat="48.25448" lon="-3.5264">
        <ele>100.5</ele>
        <time>2022-06-12T10:19:19Z</time>
      </trkpt>
      <trkpt lat="48.25449" lon="-3.52639">
        <ele>100.5</ele>
        <time>2022-06-12T10:19:20Z</time>
      </trkpt>
      <trkpt lat="48.25451" lon="-3.52639">
        <ele>100.5</ele>
        <time>2022-06-12T10:19:21Z</time>
      </trkpt>
      <trkpt lat="48.25451" lon="-3.52638">
        <ele>100.5</ele>
        <time>2022-06-12T10:19:22Z</time>
      </trkpt>
      <trkpt lat="48.25453" lon="-3.52638">
        <ele>100.5</ele>
        <time>2022-06-12T10:19:23Z</time>
      </trkpt>
      <trkpt lat="48.25454" lon="-3.52637">
        <ele>100.5</ele>
        <time>2022-06-12T10:19:25Z</time>
      </trkpt>
      <trkpt lat="48.25455" lon="-3.52637">
        <ele>100.5</ele>
        <time>2022-06-12T10:19:26Z</time>
      </trkpt>
      <trkpt lat="48.25456" lon="-3.52636">
        <ele>100.5</ele>
        <time>2022-06-12T10:19:27Z</time>
      </trkpt>
      <trkpt lat="48.25457" lon="-3.52636">
        <ele>100.5</ele>
        <time>2022-06-12T10:19:28Z</time>
      </trkpt>
      <trkpt lat="48.25458" lon="-3.52635">
        <ele>100.5</ele>
        <time>2022-06-12T10:19:29Z</time>
      </trkpt>
      <trkpt lat="48.25459" lon="-3.52634">
        <ele>100.5</ele>
        <time>2022-06-12T10:19:30Z</time>
      </trkpt>
      <trkpt lat="48.2546" lon="-3.52634">
        <ele>100.5</ele>
        <time>2022-06-12T10:19:31Z</time>
      </trkpt>
      <trkpt lat="48.25463" lon="-3.52632">
        <ele>100.5</ele>
        <time>2022-06-12T10:19:32Z</time>
      </trkpt>
      <trkpt lat="48.25464" lon="-3.52632">
        <ele>100.5</ele>
        <time>2022-06-12T10:19:34Z</time>
      </trkpt>
      <trkpt lat="48.25465" lon="-3.52632">
        <ele>100.5</ele>
        <time>2022-06-12T10:19:35Z</time>
      </trkpt>
      <trkpt lat="48.25466" lon="-3.52631">
        <ele>100.5</ele>
        <time>2022-06-12T10:19:36Z</time>
      </trkpt>
      <trkpt lat="48.25467" lon="-3.52631">
        <ele>100.5</ele>
        <time>2022-06-12T10:19:37Z</time>
      </trkpt>
      <trkpt lat="48.25469" lon="-3.5263">
        <ele>100.5</ele>
        <time>2022-06-12T10:19:38Z</time>
      </trkpt>
      <trkpt lat="48.2547" lon="-3.5263">
        <ele>100.5</ele>
        <time>2022-06-12T10:19:39Z</time>
      </trkpt>
      <trkpt lat="48.25472" lon="-3.52629">
        <ele>100.5</ele>
        <time>2022-06-12T10:19:41Z</time>
      </trkpt>
      <trkpt lat="48.25473" lon="-3.52628">
        <ele>100.5</ele>
        <time>2022-06-12T10:19:42Z</time>
      </trkpt>
      <trkpt lat="48.25474" lon="-3.52628">
        <ele>100.5</ele>
        <time>2022-06-12T10:19:43Z</time>
      </trkpt>
      <trkpt lat="48.25475" lon="-3.52627">
        <ele>100.5</ele>
        <time>2022-06-12T10:19:44Z</time>
      </trkpt>
      <trkpt lat="48.25477" lon="-3.52626">
        <ele>100.5</ele>
        <time>2022-06-12T10:19:45Z</time>
      </trkpt>
      <trkpt lat="48.25479" lon="-3.52625">
        <ele>100.5</ele>
        <time>2022-06-12T10:19:47Z</time>
      </trkpt>
      <trkpt lat="48.2548" lon="-3.52625">
        <ele>100.5</ele>
        <time>2022-06-12T10:19:48Z</time>
      </trkpt>
      <trkpt lat="48.25481" lon="-3.52624">
        <ele>100.5</ele>
        <time>2022-06-12T10:19:49Z</time>
      </trkpt>
      <trkpt lat="48.25481" lon="-3.52624">
        <ele>100.5</ele>
        <time>2022-06-12T10:19:50Z</time>
      </trkpt>
      <trkpt lat="48.2548" lon="-3.52623">
        <ele>100.5</ele>
        <time>2022-06-12T10:19:51Z</time>
      </trkpt>
      <trkpt lat="48.2548" lon="-3.52622">
        <ele>100.5</ele>
        <time>2022-06-12T10:19:52Z</time>
      </trkpt>
      <trkpt lat="48.25479" lon="-3.52621">
        <ele>100.5</ele>
        <time>2022-06-12T10:19:53Z</time>
      </trkpt>
      <trkpt lat="48.25479" lon="-3.52621">
        <ele>100.5</ele>
        <time>2022-06-12T10:19:54Z</time>
      </trkpt>
      <trkpt lat="48.25479" lon="-3.52621">
        <ele>100.5</ele>
        <time>2022-06-12T10:19:55Z</time>
      </trkpt>
      <trkpt lat="48.25479" lon="-3.52622">
        <ele>100.5</ele>
        <time>2022-06-12T10:19:56Z</time>
      </trkpt>
      <trkpt lat="48.25479" lon="-3.52621">
        <ele>100.5</ele>
        <time>2022-06-12T10:19:57Z</time>
      </trkpt>
      <trkpt lat="48.25479" lon="-3.5262">
        <ele>100.5</ele>
        <time>2022-06-12T10:19:59Z</time>
      </trkpt>
      <trkpt lat="48.25479" lon="-3.5262">
        <ele>100.5</ele>
        <time>2022-06-12T10:20:00Z</time>
      </trkpt>
      <trkpt lat="48.25479" lon="-3.5262">
        <ele>100.5</ele>
        <time>2022-06-12T10:20:01Z</time>
      </trkpt>
      <trkpt lat="48.25479" lon="-3.5262">
        <ele>100.5</ele>
        <time>2022-06-12T10:20:02Z</time>
      </trkpt>
      <trkpt lat="48.25479" lon="-3.52619">
        <ele>100.5</ele>
        <time>2022-06-12T10:20:03Z</time>
      </trkpt>
      <trkpt lat="48.25479" lon="-3.5262">
        <ele>100.5</ele>
        <time>2022-06-12T10:20:04Z</time>
      </trkpt>
      <trkpt lat="48.25479" lon="-3.52621">
        <ele>100.5</ele>
        <time>2022-06-12T10:20:05Z</time>
      </trkpt>
      <trkpt lat="48.25479" lon="-3.52621">
        <ele>100.5</ele>
        <time>2022-06-12T10:20:06Z</time>
      </trkpt>
      <trkpt lat="48.25479" lon="-3.52622">
        <ele>100.5</ele>
        <time>2022-06-12T10:20:07Z</time>
      </trkpt>
      <trkpt lat="48.25479" lon="-3.52623">
        <ele>100.5</ele>
        <time>2022-06-12T10:20:08Z</time>
      </trkpt>
      <trkpt lat="48.25479" lon="-3.52623">
        <ele>100.5</ele>
        <time>2022-06-12T10:20:09Z</time>
      </trkpt>
      <trkpt lat="48.25479" lon="-3.52623">
        <ele>100.5</ele>
        <time>2022-06-12T10:20:10Z</time>
      </trkpt>
      <trkpt lat="48.25479" lon="-3.52624">
        <ele>100.5</ele>
        <time>2022-06-12T10:20:11Z</time>
      </trkpt>
      <trkpt lat="48.25479" lon="-3.52624">
        <ele>100.5</ele>
        <time>2022-06-12T10:20:12Z</time>
      </trkpt>
      <trkpt lat="48.25478" lon="-3.52624">
        <ele>100.5</ele>
        <time>2022-06-12T10:20:13Z</time>
      </trkpt>
      <trkpt lat="48.25478" lon="-3.52624">
        <ele>100.5</ele>
        <time>2022-06-12T10:20:14Z</time>
      </trkpt>
      <trkpt lat="48.25478" lon="-3.52624">
        <ele>100.5</ele>
        <time>2022-06-12T10:20:15Z</time>
      </trkpt>
      <trkpt lat="48.25478" lon="-3.52624">
        <ele>100.5</ele>
        <time>2022-06-12T10:20:17Z</time>
      </trkpt>
      <trkpt lat="48.25478" lon="-3.52625">
        <ele>100.5</ele>
        <time>2022-06-12T10:20:18Z</time>
      </trkpt>
      <trkpt lat="48.25478" lon="-3.52625">
        <ele>100.5</ele>
        <time>2022-06-12T10:20:19Z</time>
      </trkpt>
      <trkpt lat="48.25478" lon="-3.52625">
        <ele>100.5</ele>
        <time>2022-06-12T10:20:20Z</time>
      </trkpt>
      <trkpt lat="48.25478" lon="-3.52626">
        <ele>100.5</ele>
        <time>2022-06-12T10:20:21Z</time>
      </trkpt>
      <trkpt lat="48.25478" lon="-3.52626">
        <ele>100.5</ele>
        <time>2022-06-12T10:20:22Z</time>
      </trkpt>
      <trkpt lat="48.25477" lon="-3.52626">
        <ele>100.5</ele>
        <time>2022-06-12T10:20:23Z</time>
      </trkpt>
      <trkpt lat="48.25477" lon="-3.52627">
        <ele>100.5</ele>
        <time>2022-06-12T10:20:24Z</time>
      </trkpt>
      <trkpt lat="48.25476" lon="-3.52627">
        <ele>100.5</ele>
        <time>2022-06-12T10:20:25Z</time>
      </trkpt>
      <trkpt lat="48.25476" lon="-3.52627">
        <ele>100.5</ele>
        <time>2022-06-12T10:20:26Z</time>
      </trkpt>
      <trkpt lat="48.25476" lon="-3.52627">
        <ele>100.5</ele>
        <time>2022-06-12T10:20:27Z</time>
      </trkpt>
      <trkpt lat="48.25476" lon="-3.52627">
        <ele>100.5</ele>
        <time>2022-06-12T10:20:28Z</time>
      </trkpt>
      <trkpt lat="48.25476" lon="-3.52627">
        <ele>100.5</ele>
        <time>2022-06-12T10:20:29Z</time>
      </trkpt>
      <trkpt lat="48.25476" lon="-3.52627">
        <ele>100.5</ele>
        <time>2022-06-12T10:20:30Z</time>
      </trkpt>
      <trkpt lat="48.25476" lon="-3.52627">
        <ele>100.5</ele>
        <time>2022-06-12T10:20:31Z</time>
      </trkpt>
      <trkpt lat="48.25476" lon="-3.52627">
        <ele>100.5</ele>
        <time>2022-06-12T10:20:32Z</time>
      </trkpt>
      <trkpt lat="48.25476" lon="-3.52627">
        <ele>100.5</ele>
        <time>2022-06-12T10:20:33Z</time>
      </trkpt>
      <trkpt lat="48.25476" lon="-3.52627">
        <ele>100.5</ele>
        <time>2022-06-12T10:20:34Z</time>
      </trkpt>
      <trkpt lat="48.25476" lon="-3.52627">
        <ele>100.5</ele>
        <time>2022-06-12T10:20:35Z</time>
      </trkpt>
      <trkpt lat="48.25476" lon="-3.52627">
        <ele>100.5</ele>
        <time>2022-06-12T10:20:36Z</time>
      </trkpt>
      <trkpt lat="48.25476" lon="-3.52627">
        <ele>100.5</ele>
        <time>2022-06-12T10:20:37Z</time>
      </trkpt>
      <trkpt lat="48.25476" lon="-3.52627">
        <ele>100.5</ele>
        <time>2022-06-12T10:20:38Z</time>
      </trkpt>
      <trkpt lat="48.25476" lon="-3.52627">
        <ele>100.5</ele>
        <time>2022-06-12T10:20:39Z</time>
      </trkpt>
      <trkpt lat="48.25476" lon="-3.52627">
        <ele>100.5</ele>
        <time>2022-06-12T10:20:40Z</time>
      </trkpt>
      <trkpt lat="48.25476" lon="-3.52627">
        <ele>100.5</ele>
        <time>2022-06-12T10:20:41Z</time>
      </trkpt>
      <trkpt lat="48.25476" lon="-3.52627">
        <ele>100.5</ele>
        <time>2022-06-12T10:20:42Z</time>
      </trkpt>
      <trkpt lat="48.25476" lon="-3.52627">
        <ele>100.5</ele>
        <time>2022-06-12T10:20:43Z</time>
      </trkpt>
      <trkpt lat="48.25476" lon="-3.52627">
        <ele>100.5</ele>
        <time>2022-06-12T10:20:44Z</time>
      </trkpt>
      <trkpt lat="48.25476" lon="-3.52627">
        <ele>100.5</ele>
        <time>2022-06-12T10:20:45Z</time>
      </trkpt>
      <trkpt lat="48.25476" lon="-3.52627">
        <ele>100.5</ele>
        <time>2022-06-12T10:20:46Z</time>
      </trkpt>
      <trkpt lat="48.25476" lon="-3.52627">
        <ele>100.5</ele>
        <time>2022-06-12T10:20:47Z</time>
      </trkpt>
      <trkpt lat="48.25476" lon="-3.52627">
        <ele>100.5</ele>
        <time>2022-06-12T10:20:48Z</time>
      </trkpt>
      <trkpt lat="48.25476" lon="-3.52627">
        <ele>100.5</ele>
        <time>2022-06-12T10:20:49Z</time>
      </trkpt>
      <trkpt lat="48.25476" lon="-3.52627">
        <ele>100.5</ele>
        <time>2022-06-12T10:20:50Z</time>
      </trkpt>
      <trkpt lat="48.25476" lon="-3.52627">
        <ele>100.5</ele>
        <time>2022-06-12T10:20:51Z</time>
      </trkpt>
      <trkpt lat="48.25476" lon="-3.52627">
        <ele>100.5</ele>
        <time>2022-06-12T10:20:52Z</time>
      </trkpt>
      <trkpt lat="48.25476" lon="-3.52627">
        <ele>100.5</ele>
        <time>2022-06-12T10:20:53Z</time>
      </trkpt>
      <trkpt lat="48.25476" lon="-3.52627">
        <ele>100.5</ele>
        <time>2022-06-12T10:20:54Z</time>
      </trkpt>
      <trkpt lat="48.25476" lon="-3.52628">
        <ele>100.5</ele>
        <time>2022-06-12T10:20:55Z</time>
      </trkpt>
      <trkpt lat="48.25477" lon="-3.52628">
        <ele>100.5</ele>
        <time>2022-06-12T10:20:56Z</time>
      </trkpt>
      <trkpt lat="48.25477" lon="-3.52628">
        <ele>100.5</ele>
        <time>2022-06-12T10:20:57Z</time>
      </trkpt>
      <trkpt lat="48.25478" lon="-3.52627">
        <ele>100.5</ele>
        <time>2022-06-12T10:20:58Z</time>
      </trkpt>
      <trkpt lat="48.25478" lon="-3.52627">
        <ele>100.5</ele>
        <time>2022-06-12T10:20:59Z</time>
      </trkpt>
      <trkpt lat="48.25478" lon="-3.52627">
        <ele>100.5</ele>
        <time>2022-06-12T10:21:00Z</time>
      </trkpt>
      <trkpt lat="48.25479" lon="-3.52626">
        <ele>100.5</ele>
        <time>2022-06-12T10:21:01Z</time>
      </trkpt>
      <trkpt lat="48.25479" lon="-3.52626">
        <ele>100.5</ele>
        <time>2022-06-12T10:21:02Z</time>
      </trkpt>
      <trkpt lat="48.25479" lon="-3.52625">
        <ele>100.5</ele>
        <time>2022-06-12T10:21:03Z</time>
      </trkpt>
      <trkpt lat="48.2548" lon="-3.52625">
        <ele>100.5</ele>
        <time>2022-06-12T10:21:04Z</time>
      </trkpt>
      <trkpt lat="48.25481" lon="-3.52624">
        <ele>100.5</ele>
        <time>2022-06-12T10:21:05Z</time>
      </trkpt>
      <trkpt lat="48.25482" lon="-3.52622">
        <ele>100.5</ele>
        <time>2022-06-12T10:21:06Z</time>
      </trkpt>
      <trkpt lat="48.25484" lon="-3.52621">
        <ele>100.5</ele>
        <time>2022-06-12T10:21:07Z</time>
      </trkpt>
      <trkpt lat="48.25485" lon="-3.52619">
        <ele>100.5</ele>
        <time>2022-06-12T10:21:09Z</time>
      </trkpt>
      <trkpt lat="48.25486" lon="-3.52618">
        <ele>100.5</ele>
        <time>2022-06-12T10:21:10Z</time>
      </trkpt>
      <trkpt lat="48.25487" lon="-3.52617">
        <ele>100.5</ele>
        <time>2022-06-12T10:21:11Z</time>
      </trkpt>
      <trkpt lat="48.25487" lon="-3.52616">
        <ele>100.5</ele>
        <time>2022-06-12T10:21:12Z</time>
      </trkpt>
      <trkpt lat="48.25488" lon="-3.52615">
        <ele>100.5</ele>
        <time>2022-06-12T10:21:13Z</time>
      </trkpt>
      <trkpt lat="48.2549" lon="-3.52614">
        <ele>100.5</ele>
        <time>2022-06-12T10:21:15Z</time>
      </trkpt>
      <trkpt lat="48.2549" lon="-3.52614">
        <ele>100.5</ele>
        <time>2022-06-12T10:21:16Z</time>
      </trkpt>
      <trkpt lat="48.25491" lon="-3.52613">
        <ele>100.5</ele>
        <time>2022-06-12T10:21:17Z</time>
      </trkpt>
      <trkpt lat="48.25491" lon="-3.52612">
        <ele>100.5</ele>
        <time>2022-06-12T10:21:18Z</time>
      </trkpt>
      <trkpt lat="48.25491" lon="-3.52612">
        <ele>100.5</ele>
        <time>2022-06-12T10:21:20Z</time>
      </trkpt>
      <trkpt lat="48.25492" lon="-3.52611">
        <ele>100.5</ele>
        <time>2022-06-12T10:21:21Z</time>
      </trkpt>
      <trkpt lat="48.25493" lon="-3.5261">
        <ele>100.5</ele>
        <time>2022-06-12T10:21:22Z</time>
      </trkpt>
      <trkpt lat="48.25494" lon="-3.5261">
        <ele>100.5</ele>
        <time>2022-06-12T10:21:23Z</time>
      </trkpt>
      <trkpt lat="48.25495" lon="-3.52609">
        <ele>100.5</ele>
        <time>2022-06-12T10:21:24Z</time>
      </trkpt>
      <trkpt lat="48.25496" lon="-3.52608">
        <ele>100.5</ele>
        <time>2022-06-12T10:21:26Z</time>
      </trkpt>
      <trkpt lat="48.25497" lon="-3.52607">
        <ele>100.5</ele>
        <time>2022-06-12T10:21:27Z</time>
      </trkpt>
      <trkpt lat="48.25499" lon="-3.52606">
        <ele>100.5</ele>
        <time>2022-06-12T10:21:29Z</time>
      </trkpt>
      <trkpt lat="48.255" lon="-3.52606">
        <ele>100.5</ele>
        <time>2022-06-12T10:21:30Z</time>
      </trkpt>
      <trkpt lat="48.25501" lon="-3.52606">
        <ele>100.5</ele>
        <time>2022-06-12T10:21:31Z</time>
      </trkpt>
      <trkpt lat="48.25502" lon="-3.52606">
        <ele>100.5</ele>
        <time>2022-06-12T10:21:32Z</time>
      </trkpt>
      <trkpt lat="48.25504" lon="-3.52606">
        <ele>100.5</ele>
        <time>2022-06-12T10:21:33Z</time>
      </trkpt>
      <trkpt lat="48.25505" lon="-3.52606">
        <ele>100.5</ele>
        <time>2022-06-12T10:21:34Z</time>
      </trkpt>
      <trkpt lat="48.25505" lon="-3.52606">
        <ele>100.5</ele>
        <time>2022-06-12T10:21:35Z</time>
      </trkpt>
      <trkpt lat="48.25505" lon="-3.52607">
        <ele>100.5</ele>
        <time>2022-06-12T10:21:36Z</time>
      </trkpt>
      <trkpt lat="48.25506" lon="-3.52607">
        <ele>100.5</ele>
        <time>2022-06-12T10:21:37Z</time>
      </trkpt>
      <trkpt lat="48.25507" lon="-3.52607">
        <ele>100.5</ele>
        <time>2022-06-12T10:21:38Z</time>
      </trkpt>
      <trkpt lat="48.25508" lon="-3.52606">
        <ele>100.6</ele>
        <time>2022-06-12T10:21:40Z</time>
      </trkpt>
      <trkpt lat="48.25509" lon="-3.52606">
        <ele>100.6</ele>
        <time>2022-06-12T10:21:41Z</time>
      </trkpt>
      <trkpt lat="48.2551" lon="-3.52605">
        <ele>100.6</ele>
        <time>2022-06-12T10:21:42Z</time>
      </trkpt>
      <trkpt lat="48.25511" lon="-3.52605">
        <ele>100.6</ele>
        <time>2022-06-12T10:21:43Z</time>
      </trkpt>
      <trkpt lat="48.25512" lon="-3.52605">
        <ele>100.6</ele>
        <time>2022-06-12T10:21:44Z</time>
      </trkpt>
      <trkpt lat="48.25514" lon="-3.52604">
        <ele>100.6</ele>
        <time>2022-06-12T10:21:45Z</time>
      </trkpt>
      <trkpt lat="48.25515" lon="-3.52603">
        <ele>100.6</ele>
        <time>2022-06-12T10:21:46Z</time>
      </trkpt>
      <trkpt lat="48.25516" lon="-3.52603">
        <ele>100.6</ele>
        <time>2022-06-12T10:21:47Z</time>
      </trkpt>
      <trkpt lat="48.25517" lon="-3.52602">
        <ele>100.6</ele>
        <time>2022-06-12T10:21:48Z</time>
      </trkpt>
      <trkpt lat="48.25519" lon="-3.52601">
        <ele>100.6</ele>
        <time>2022-06-12T10:21:49Z</time>
      </trkpt>
      <trkpt lat="48.2552" lon="-3.526">
        <ele>100.6</ele>
        <time>2022-06-12T10:21:50Z</time>
      </trkpt>
      <trkpt lat="48.25522" lon="-3.526">
        <ele>100.5</ele>
        <time>2022-06-12T10:21:52Z</time>
      </trkpt>
      <trkpt lat="48.25523" lon="-3.52599">
        <ele>100.5</ele>
        <time>2022-06-12T10:21:53Z</time>
      </trkpt>
      <trkpt lat="48.25525" lon="-3.52598">
        <ele>100.5</ele>
        <time>2022-06-12T10:21:54Z</time>
      </trkpt>
      <trkpt lat="48.25526" lon="-3.52597">
        <ele>100.5</ele>
        <time>2022-06-12T10:21:55Z</time>
      </trkpt>
      <trkpt lat="48.25527" lon="-3.52596">
        <ele>100.5</ele>
        <time>2022-06-12T10:21:56Z</time>
      </trkpt>
      <trkpt lat="48.25529" lon="-3.52595">
        <ele>100.5</ele>
        <time>2022-06-12T10:21:57Z</time>
      </trkpt>
      <trkpt lat="48.2553" lon="-3.52594">
        <ele>100.5</ele>
        <time>2022-06-12T10:21:58Z</time>
      </trkpt>
      <trkpt lat="48.25533" lon="-3.52592">
        <ele>100.5</ele>
        <time>2022-06-12T10:21:59Z</time>
      </trkpt>
      <trkpt lat="48.25534" lon="-3.52591">
        <ele>100.5</ele>
        <time>2022-06-12T10:22:00Z</time>
      </trkpt>
      <trkpt lat="48.25535" lon="-3.5259">
        <ele>100.5</ele>
        <time>2022-06-12T10:22:01Z</time>
      </trkpt>
      <trkpt lat="48.25536" lon="-3.52589">
        <ele>100.5</ele>
        <time>2022-06-12T10:22:02Z</time>
      </trkpt>
      <trkpt lat="48.25538" lon="-3.52588">
        <ele>100.5</ele>
        <time>2022-06-12T10:22:04Z</time>
      </trkpt>
      <trkpt lat="48.25539" lon="-3.52587">
        <ele>100.5</ele>
        <time>2022-06-12T10:22:05Z</time>
      </trkpt>
      <trkpt lat="48.25541" lon="-3.52586">
        <ele>100.5</ele>
        <time>2022-06-12T10:22:06Z</time>
      </trkpt>
      <trkpt lat="48.25541" lon="-3.52585">
        <ele>100.5</ele>
        <time>2022-06-12T10:22:07Z</time>
      </trkpt>
      <trkpt lat="48.25542" lon="-3.52584">
        <ele>100.5</ele>
        <time>2022-06-12T10:22:08Z</time>
      </trkpt>
      <trkpt lat="48.25544" lon="-3.52583">
        <ele>100.5</ele>
        <time>2022-06-12T10:22:09Z</time>
      </trkpt>
      <trkpt lat="48.25546" lon="-3.52582">
        <ele>100.5</ele>
        <time>2022-06-12T10:22:10Z</time>
      </trkpt>
      <trkpt lat="48.25546" lon="-3.52581">
        <ele>100.5</ele>
        <time>2022-06-12T10:22:11Z</time>
      </trkpt>
      <trkpt lat="48.25547" lon="-3.5258">
        <ele>100.5</ele>
        <time>2022-06-12T10:22:12Z</time>
      </trkpt>
      <trkpt lat="48.25549" lon="-3.52579">
        <ele>100.5</ele>
        <time>2022-06-12T10:22:14Z</time>
      </trkpt>
      <trkpt lat="48.2555" lon="-3.52578">
        <ele>100.5</ele>
        <time>2022-06-12T10:22:15Z</time>
      </trkpt>
      <trkpt lat="48.25552" lon="-3.52577">
        <ele>100.6</ele>
        <time>2022-06-12T10:22:16Z</time>
      </trkpt>
      <trkpt lat="48.25553" lon="-3.52576">
        <ele>100.6</ele>
        <time>2022-06-12T10:22:17Z</time>
      </trkpt>
      <trkpt lat="48.25553" lon="-3.52576">
        <ele>100.6</ele>
        <time>2022-06-12T10:22:18Z</time>
      </trkpt>
      <trkpt lat="48.25555" lon="-3.52575">
        <ele>100.6</ele>
        <time>2022-06-12T10:22:19Z</time>
      </trkpt>
      <trkpt lat="48.25556" lon="-3.52574">
        <ele>100.6</ele>
        <time>2022-06-12T10:22:20Z</time>
      </trkpt>
      <trkpt lat="48.25558" lon="-3.52573">
        <ele>100.6</ele>
        <time>2022-06-12T10:22:21Z</time>
      </trkpt>
      <trkpt lat="48.25559" lon="-3.52572">
        <ele>100.6</ele>
        <time>2022-06-12T10:22:22Z</time>
      </trkpt>
      <trkpt lat="48.2556" lon="-3.52571">
        <ele>100.6</ele>
        <time>2022-06-12T10:22:23Z</time>
      </trkpt>
      <trkpt lat="48.25562" lon="-3.5257">
        <ele>100.6</ele>
        <time>2022-06-12T10:22:24Z</time>
      </trkpt>
      <trkpt lat="48.25563" lon="-3.52569">
        <ele>100.6</ele>
        <time>2022-06-12T10:22:26Z</time>
      </trkpt>
      <trkpt lat="48.25564" lon="-3.52569">
        <ele>100.6</ele>
        <time>2022-06-12T10:22:27Z</time>
      </trkpt>
      <trkpt lat="48.25565" lon="-3.52568">
        <ele>100.6</ele>
        <time>2022-06-12T10:22:28Z</time>
      </trkpt>
      <trkpt lat="48.25566" lon="-3.52568">
        <ele>100.7</ele>
        <time>2022-06-12T10:22:29Z</time>
      </trkpt>
      <trkpt lat="48.25567" lon="-3.52567">
        <ele>100.7</ele>
        <time>2022-06-12T10:22:30Z</time>
      </trkpt>
      <trkpt lat="48.25568" lon="-3.52566">
        <ele>100.7</ele>
        <time>2022-06-12T10:22:31Z</time>
      </trkpt>
      <trkpt lat="48.2557" lon="-3.52565">
        <ele>100.7</ele>
        <time>2022-06-12T10:22:33Z</time>
      </trkpt>
      <trkpt lat="48.25571" lon="-3.52565">
        <ele>100.7</ele>
        <time>2022-06-12T10:22:34Z</time>
      </trkpt>
      <trkpt lat="48.25573" lon="-3.52563">
        <ele>100.7</ele>
        <time>2022-06-12T10:22:35Z</time>
      </trkpt>
      <trkpt lat="48.25574" lon="-3.52563">
        <ele>100.7</ele>
        <time>2022-06-12T10:22:36Z</time>
      </trkpt>
      <trkpt lat="48.25575" lon="-3.52563">
        <ele>100.7</ele>
        <time>2022-06-12T10:22:37Z</time>
      </trkpt>
      <trkpt lat="48.25576" lon="-3.52562">
        <ele>100.7</ele>
        <time>2022-06-12T10:22:39Z</time>
      </trkpt>
      <trkpt lat="48.25577" lon="-3.52561">
        <ele>100.7</ele>
        <time>2022-06-12T10:22:40Z</time>
      </trkpt>
      <trkpt lat="48.25578" lon="-3.52561">
        <ele>100.7</ele>
        <time>2022-06-12T10:22:41Z</time>
      </trkpt>
      <trkpt lat="48.25579" lon="-3.5256">
        <ele>100.8</ele>
        <time>2022-06-12T10:22:42Z</time>
      </trkpt>
      <trkpt lat="48.2558" lon="-3.5256">
        <ele>100.8</ele>
        <time>2022-06-12T10:22:43Z</time>
      </trkpt>
      <trkpt lat="48.25582" lon="-3.52559">
        <ele>100.8</ele>
        <time>2022-06-12T10:22:44Z</time>
      </trkpt>
      <trkpt lat="48.25583" lon="-3.52558">
        <ele>100.8</ele>
        <time>2022-06-12T10:22:45Z</time>
      </trkpt>
      <trkpt lat="48.25584" lon="-3.52558">
        <ele>100.8</ele>
        <time>2022-06-12T10:22:46Z</time>
      </trkpt>
      <trkpt lat="48.25585" lon="-3.52557">
        <ele>100.8</ele>
        <time>2022-06-12T10:22:47Z</time>
      </trkpt>
      <trkpt lat="48.25586" lon="-3.52556">
        <ele>100.8</ele>
        <time>2022-06-12T10:22:48Z</time>
      </trkpt>
      <trkpt lat="48.25587" lon="-3.52555">
        <ele>100.8</ele>
        <time>2022-06-12T10:22:50Z</time>
      </trkpt>
      <trkpt lat="48.25589" lon="-3.52554">
        <ele>100.9</ele>
        <time>2022-06-12T10:22:51Z</time>
      </trkpt>
      <trkpt lat="48.2559" lon="-3.52553">
        <ele>100.9</ele>
        <time>2022-06-12T10:22:52Z</time>
      </trkpt>
      <trkpt lat="48.25591" lon="-3.52553">
        <ele>100.9</ele>
        <time>2022-06-12T10:22:53Z</time>
      </trkpt>
      <trkpt lat="48.25592" lon="-3.52552">
        <ele>100.9</ele>
        <time>2022-06-12T10:22:54Z</time>
      </trkpt>
      <trkpt lat="48.25593" lon="-3.52551">
        <ele>100.9</ele>
        <time>2022-06-12T10:22:55Z</time>
      </trkpt>
      <trkpt lat="48.25595" lon="-3.52549">
        <ele>101</ele>
        <time>2022-06-12T10:22:57Z</time>
      </trkpt>
      <trkpt lat="48.25596" lon="-3.52547">
        <ele>101</ele>
        <time>2022-06-12T10:22:58Z</time>
      </trkpt>
      <trkpt lat="48.25597" lon="-3.52547">
        <ele>101</ele>
        <time>2022-06-12T10:22:59Z</time>
      </trkpt>
      <trkpt lat="48.25598" lon="-3.52546">
        <ele>101</ele>
        <time>2022-06-12T10:23:00Z</time>
      </trkpt>
      <trkpt lat="48.256" lon="-3.52544">
        <ele>101.1</ele>
        <time>2022-06-12T10:23:01Z</time>
      </trkpt>
      <trkpt lat="48.25601" lon="-3.52543">
        <ele>101.1</ele>
        <time>2022-06-12T10:23:03Z</time>
      </trkpt>
      <trkpt lat="48.25602" lon="-3.52542">
        <ele>101.1</ele>
        <time>2022-06-12T10:23:04Z</time>
      </trkpt>
      <trkpt lat="48.25603" lon="-3.52542">
        <ele>101.2</ele>
        <time>2022-06-12T10:23:05Z</time>
      </trkpt>
      <trkpt lat="48.25604" lon="-3.52541">
        <ele>101.2</ele>
        <time>2022-06-12T10:23:06Z</time>
      </trkpt>
      <trkpt lat="48.25605" lon="-3.5254">
        <ele>101.2</ele>
        <time>2022-06-12T10:23:07Z</time>
      </trkpt>
      <trkpt lat="48.25607" lon="-3.52539">
        <ele>101.2</ele>
        <time>2022-06-12T10:23:08Z</time>
      </trkpt>
      <trkpt lat="48.25609" lon="-3.52538">
        <ele>101.3</ele>
        <time>2022-06-12T10:23:09Z</time>
      </trkpt>
      <trkpt lat="48.25609" lon="-3.52538">
        <ele>101.3</ele>
        <time>2022-06-12T10:23:10Z</time>
      </trkpt>
      <trkpt lat="48.2561" lon="-3.52537">
        <ele>101.3</ele>
        <time>2022-06-12T10:23:11Z</time>
      </trkpt>
      <trkpt lat="48.25612" lon="-3.52536">
        <ele>101.4</ele>
        <time>2022-06-12T10:23:13Z</time>
      </trkpt>
      <trkpt lat="48.25612" lon="-3.52536">
        <ele>101.4</ele>
        <time>2022-06-12T10:23:14Z</time>
      </trkpt>
      <trkpt lat="48.25613" lon="-3.52536">
        <ele>101.4</ele>
        <time>2022-06-12T10:23:15Z</time>
      </trkpt>
      <trkpt lat="48.25614" lon="-3.52535">
        <ele>101.5</ele>
        <time>2022-06-12T10:23:16Z</time>
      </trkpt>
      <trkpt lat="48.25615" lon="-3.52535">
        <ele>101.5</ele>
        <time>2022-06-12T10:23:17Z</time>
      </trkpt>
      <trkpt lat="48.25616" lon="-3.52534">
        <ele>101.5</ele>
        <time>2022-06-12T10:23:18Z</time>
      </trkpt>
      <trkpt lat="48.25617" lon="-3.52534">
        <ele>101.6</ele>
        <time>2022-06-12T10:23:19Z</time>
      </trkpt>
      <trkpt lat="48.25619" lon="-3.52533">
        <ele>101.6</ele>
        <time>2022-06-12T10:23:20Z</time>
      </trkpt>
      <trkpt lat="48.25619" lon="-3.52533">
        <ele>101.6</ele>
        <time>2022-06-12T10:23:21Z</time>
      </trkpt>
      <trkpt lat="48.2562" lon="-3.52532">
        <ele>101.6</ele>
        <time>2022-06-12T10:23:23Z</time>
      </trkpt>
      <trkpt lat="48.2562" lon="-3.52531">
        <ele>101.7</ele>
        <time>2022-06-12T10:23:24Z</time>
      </trkpt>
      <trkpt lat="48.25621" lon="-3.5253">
        <ele>101.7</ele>
        <time>2022-06-12T10:23:25Z</time>
      </trkpt>
      <trkpt lat="48.25621" lon="-3.52528">
        <ele>101.7</ele>
        <time>2022-06-12T10:23:26Z</time>
      </trkpt>
      <trkpt lat="48.25622" lon="-3.52528">
        <ele>101.7</ele>
        <time>2022-06-12T10:23:27Z</time>
      </trkpt>
      <trkpt lat="48.25623" lon="-3.52527">
        <ele>101.8</ele>
        <time>2022-06-12T10:23:29Z</time>
      </trkpt>
      <trkpt lat="48.25624" lon="-3.52526">
        <ele>101.8</ele>
        <time>2022-06-12T10:23:30Z</time>
      </trkpt>
      <trkpt lat="48.25626" lon="-3.52525">
        <ele>101.9</ele>
        <time>2022-06-12T10:23:31Z</time>
      </trkpt>
      <trkpt lat="48.25627" lon="-3.52525">
        <ele>101.9</ele>
        <time>2022-06-12T10:23:32Z</time>
      </trkpt>
      <trkpt lat="48.25628" lon="-3.52524">
        <ele>101.9</ele>
        <time>2022-06-12T10:23:33Z</time>
      </trkpt>
      <trkpt lat="48.25629" lon="-3.52524">
        <ele>102</ele>
        <time>2022-06-12T10:23:34Z</time>
      </trkpt>
      <trkpt lat="48.2563" lon="-3.52524">
        <ele>102</ele>
        <time>2022-06-12T10:23:36Z</time>
      </trkpt>
      <trkpt lat="48.25631" lon="-3.52523">
        <ele>102</ele>
        <time>2022-06-12T10:23:37Z</time>
      </trkpt>
      <trkpt lat="48.25632" lon="-3.52523">
        <ele>102</ele>
        <time>2022-06-12T10:23:38Z</time>
      </trkpt>
      <trkpt lat="48.25633" lon="-3.52522">
        <ele>102.1</ele>
        <time>2022-06-12T10:23:39Z</time>
      </trkpt>
      <trkpt lat="48.25634" lon="-3.52522">
        <ele>102.1</ele>
        <time>2022-06-12T10:23:40Z</time>
      </trkpt>
      <trkpt lat="48.25636" lon="-3.52521">
        <ele>102.1</ele>
        <time>2022-06-12T10:23:41Z</time>
      </trkpt>
      <trkpt lat="48.25637" lon="-3.5252">
        <ele>102.2</ele>
        <time>2022-06-12T10:23:42Z</time>
      </trkpt>
      <trkpt lat="48.25638" lon="-3.5252">
        <ele>102.2</ele>
        <time>2022-06-12T10:23:44Z</time>
      </trkpt>
      <trkpt lat="48.25639" lon="-3.52519">
        <ele>102.2</ele>
        <time>2022-06-12T10:23:45Z</time>
      </trkpt>
      <trkpt lat="48.2564" lon="-3.52519">
        <ele>102.3</ele>
        <time>2022-06-12T10:23:46Z</time>
      </trkpt>
      <trkpt lat="48.25641" lon="-3.52518">
        <ele>102.3</ele>
        <time>2022-06-12T10:23:47Z</time>
      </trkpt>
      <trkpt lat="48.25642" lon="-3.52518">
        <ele>102.3</ele>
        <time>2022-06-12T10:23:48Z</time>
      </trkpt>
      <trkpt lat="48.25643" lon="-3.52517">
        <ele>102.3</ele>
        <time>2022-06-12T10:23:49Z</time>
      </trkpt>
      <trkpt lat="48.25644" lon="-3.52517">
        <ele>102.4</ele>
        <time>2022-06-12T10:23:50Z</time>
      </trkpt>
      <trkpt lat="48.25645" lon="-3.52516">
        <ele>102.4</ele>
        <time>2022-06-12T10:23:52Z</time>
      </trkpt>
      <trkpt lat="48.25646" lon="-3.52516">
        <ele>102.4</ele>
        <time>2022-06-12T10:23:53Z</time>
      </trkpt>
      <trkpt lat="48.25647" lon="-3.52515">
        <ele>102.4</ele>
        <time>2022-06-12T10:23:54Z</time>
      </trkpt>
      <trkpt lat="48.25649" lon="-3.52515">
        <ele>102.5</ele>
        <time>2022-06-12T10:23:55Z</time>
      </trkpt>
      <trkpt lat="48.2565" lon="-3.52514">
        <ele>102.5</ele>
        <time>2022-06-12T10:23:56Z</time>
      </trkpt>
      <trkpt lat="48.25651" lon="-3.52514">
        <ele>102.5</ele>
        <time>2022-06-12T10:23:57Z</time>
      </trkpt>
      <trkpt lat="48.25653" lon="-3.52514">
        <ele>102.6</ele>
        <time>2022-06-12T10:23:58Z</time>
      </trkpt>
      <trkpt lat="48.25654" lon="-3.52515">
        <ele>102.6</ele>
        <time>2022-06-12T10:24:00Z</time>
      </trkpt>
      <trkpt lat="48.25655" lon="-3.52515">
        <ele>102.6</ele>
        <time>2022-06-12T10:24:01Z</time>
      </trkpt>
      <trkpt lat="48.25655" lon="-3.52515">
        <ele>102.6</ele>
        <time>2022-06-12T10:24:02Z</time>
      </trkpt>
      <trkpt lat="48.25656" lon="-3.52515">
        <ele>102.6</ele>
        <time>2022-06-12T10:24:03Z</time>
      </trkpt>
      <trkpt lat="48.25657" lon="-3.52515">
        <ele>102.6</ele>
        <time>2022-06-12T10:24:05Z</time>
      </trkpt>
      <trkpt lat="48.25658" lon="-3.52516">
        <ele>102.6</ele>
        <time>2022-06-12T10:24:06Z</time>
      </trkpt>
      <trkpt lat="48.25659" lon="-3.52516">
        <ele>102.6</ele>
        <time>2022-06-12T10:24:07Z</time>
      </trkpt>
      <trkpt lat="48.2566" lon="-3.52516">
        <ele>102.7</ele>
        <time>2022-06-12T10:24:08Z</time>
      </trkpt>
      <trkpt lat="48.2566" lon="-3.52516">
        <ele>102.7</ele>
        <time>2022-06-12T10:24:09Z</time>
      </trkpt>
      <trkpt lat="48.25661" lon="-3.52517">
        <ele>102.7</ele>
        <time>2022-06-12T10:24:10Z</time>
      </trkpt>
      <trkpt lat="48.25662" lon="-3.52516">
        <ele>102.7</ele>
        <time>2022-06-12T10:24:11Z</time>
      </trkpt>
      <trkpt lat="48.25663" lon="-3.52515">
        <ele>102.7</ele>
        <time>2022-06-12T10:24:12Z</time>
      </trkpt>
      <trkpt lat="48.25664" lon="-3.52515">
        <ele>102.7</ele>
        <time>2022-06-12T10:24:14Z</time>
      </trkpt>
      <trkpt lat="48.25665" lon="-3.52514">
        <ele>102.7</ele>
        <time>2022-06-12T10:24:15Z</time>
      </trkpt>
      <trkpt lat="48.25667" lon="-3.52513">
        <ele>102.7</ele>
        <time>2022-06-12T10:24:16Z</time>
      </trkpt>
      <trkpt lat="48.25668" lon="-3.52513">
        <ele>102.8</ele>
        <time>2022-06-12T10:24:17Z</time>
      </trkpt>
      <trkpt lat="48.25668" lon="-3.52513">
        <ele>102.8</ele>
        <time>2022-06-12T10:24:19Z</time>
      </trkpt>
      <trkpt lat="48.25669" lon="-3.52512">
        <ele>102.8</ele>
        <time>2022-06-12T10:24:20Z</time>
      </trkpt>
      <trkpt lat="48.25669" lon="-3.52512">
        <ele>102.8</ele>
        <time>2022-06-12T10:24:21Z</time>
      </trkpt>
      <trkpt lat="48.25669" lon="-3.52513">
        <ele>102.8</ele>
        <time>2022-06-12T10:24:22Z</time>
      </trkpt>
      <trkpt lat="48.25668" lon="-3.52512">
        <ele>102.8</ele>
        <time>2022-06-12T10:24:23Z</time>
      </trkpt>
      <trkpt lat="48.25668" lon="-3.52512">
        <ele>102.8</ele>
        <time>2022-06-12T10:24:24Z</time>
      </trkpt>
      <trkpt lat="48.25668" lon="-3.52512">
        <ele>102.8</ele>
        <time>2022-06-12T10:24:25Z</time>
      </trkpt>
      <trkpt lat="48.25668" lon="-3.52512">
        <ele>102.8</ele>
        <time>2022-06-12T10:24:26Z</time>
      </trkpt>
      <trkpt lat="48.25669" lon="-3.52511">
        <ele>102.8</ele>
        <time>2022-06-12T10:24:28Z</time>
      </trkpt>
      <trkpt lat="48.25669" lon="-3.52511">
        <ele>102.8</ele>
        <time>2022-06-12T10:24:29Z</time>
      </trkpt>
      <trkpt lat="48.2567" lon="-3.52509">
        <ele>102.8</ele>
        <time>2022-06-12T10:24:30Z</time>
      </trkpt>
      <trkpt lat="48.25671" lon="-3.52508">
        <ele>102.8</ele>
        <time>2022-06-12T10:24:31Z</time>
      </trkpt>
      <trkpt lat="48.25671" lon="-3.52507">
        <ele>102.8</ele>
        <time>2022-06-12T10:24:32Z</time>
      </trkpt>
      <trkpt lat="48.25672" lon="-3.52507">
        <ele>102.8</ele>
        <time>2022-06-12T10:24:33Z</time>
      </trkpt>
      <trkpt lat="48.25673" lon="-3.52505">
        <ele>102.8</ele>
        <time>2022-06-12T10:24:34Z</time>
      </trkpt>
      <trkpt lat="48.25674" lon="-3.52504">
        <ele>102.8</ele>
        <time>2022-06-12T10:24:36Z</time>
      </trkpt>
      <trkpt lat="48.25675" lon="-3.52502">
        <ele>102.8</ele>
        <time>2022-06-12T10:24:37Z</time>
      </trkpt>
      <trkpt lat="48.25676" lon="-3.525">
        <ele>102.8</ele>
        <time>2022-06-12T10:24:38Z</time>
      </trkpt>
      <trkpt lat="48.25677" lon="-3.52499">
        <ele>102.9</ele>
        <time>2022-06-12T10:24:39Z</time>
      </trkpt>
      <trkpt lat="48.25679" lon="-3.52496">
        <ele>102.9</ele>
        <time>2022-06-12T10:24:41Z</time>
      </trkpt>
      <trkpt lat="48.2568" lon="-3.52493">
        <ele>102.9</ele>
        <time>2022-06-12T10:24:42Z</time>
      </trkpt>
      <trkpt lat="48.25681" lon="-3.52492">
        <ele>102.9</ele>
        <time>2022-06-12T10:24:43Z</time>
      </trkpt>
      <trkpt lat="48.25682" lon="-3.5249">
        <ele>102.9</ele>
        <time>2022-06-12T10:24:44Z</time>
      </trkpt>
      <trkpt lat="48.25683" lon="-3.52488">
        <ele>102.9</ele>
        <time>2022-06-12T10:24:46Z</time>
      </trkpt>
      <trkpt lat="48.25684" lon="-3.52487">
        <ele>102.9</ele>
        <time>2022-06-12T10:24:47Z</time>
      </trkpt>
      <trkpt lat="48.25685" lon="-3.52485">
        <ele>102.9</ele>
        <time>2022-06-12T10:24:48Z</time>
      </trkpt>
      <trkpt lat="48.25686" lon="-3.52484">
        <ele>102.9</ele>
        <time>2022-06-12T10:24:49Z</time>
      </trkpt>
      <trkpt lat="48.25687" lon="-3.52483">
        <ele>103</ele>
        <time>2022-06-12T10:24:50Z</time>
      </trkpt>
      <trkpt lat="48.25689" lon="-3.52481">
        <ele>103</ele>
        <time>2022-06-12T10:24:51Z</time>
      </trkpt>
      <trkpt lat="48.2569" lon="-3.5248">
        <ele>103</ele>
        <time>2022-06-12T10:24:52Z</time>
      </trkpt>
      <trkpt lat="48.25691" lon="-3.52479">
        <ele>103</ele>
        <time>2022-06-12T10:24:53Z</time>
      </trkpt>
      <trkpt lat="48.25692" lon="-3.52478">
        <ele>103</ele>
        <time>2022-06-12T10:24:54Z</time>
      </trkpt>
      <trkpt lat="48.25693" lon="-3.52478">
        <ele>103</ele>
        <time>2022-06-12T10:24:55Z</time>
      </trkpt>
      <trkpt lat="48.25694" lon="-3.52477">
        <ele>103</ele>
        <time>2022-06-12T10:24:57Z</time>
      </trkpt>
      <trkpt lat="48.25695" lon="-3.52476">
        <ele>103</ele>
        <time>2022-06-12T10:24:58Z</time>
      </trkpt>
      <trkpt lat="48.25696" lon="-3.52475">
        <ele>103</ele>
        <time>2022-06-12T10:24:59Z</time>
      </trkpt>
      <trkpt lat="48.25697" lon="-3.52475">
        <ele>103</ele>
        <time>2022-06-12T10:25:00Z</time>
      </trkpt>
      <trkpt lat="48.25698" lon="-3.52474">
        <ele>103</ele>
        <time>2022-06-12T10:25:01Z</time>
      </trkpt>
      <trkpt lat="48.25699" lon="-3.52473">
        <ele>103</ele>
        <time>2022-06-12T10:25:02Z</time>
      </trkpt>
      <trkpt lat="48.257" lon="-3.52473">
        <ele>103</ele>
        <time>2022-06-12T10:25:03Z</time>
      </trkpt>
      <trkpt lat="48.25701" lon="-3.52472">
        <ele>103</ele>
        <time>2022-06-12T10:25:05Z</time>
      </trkpt>
      <trkpt lat="48.25702" lon="-3.52472">
        <ele>103</ele>
        <time>2022-06-12T10:25:06Z</time>
      </trkpt>
      <trkpt lat="48.25703" lon="-3.52471">
        <ele>103</ele>
        <time>2022-06-12T10:25:07Z</time>
      </trkpt>
      <trkpt lat="48.25704" lon="-3.52471">
        <ele>103</ele>
        <time>2022-06-12T10:25:08Z</time>
      </trkpt>
      <trkpt lat="48.25705" lon="-3.52469">
        <ele>102.9</ele>
        <time>2022-06-12T10:25:09Z</time>
      </trkpt>
      <trkpt lat="48.25706" lon="-3.52468">
        <ele>102.9</ele>
        <time>2022-06-12T10:25:10Z</time>
      </trkpt>
      <trkpt lat="48.25707" lon="-3.52467">
        <ele>102.9</ele>
        <time>2022-06-12T10:25:11Z</time>
      </trkpt>
      <trkpt lat="48.25707" lon="-3.52467">
        <ele>102.9</ele>
        <time>2022-06-12T10:25:12Z</time>
      </trkpt>
      <trkpt lat="48.25708" lon="-3.52466">
        <ele>102.9</ele>
        <time>2022-06-12T10:25:13Z</time>
      </trkpt>
      <trkpt lat="48.25709" lon="-3.52464">
        <ele>102.9</ele>
        <time>2022-06-12T10:25:15Z</time>
      </trkpt>
      <trkpt lat="48.25711" lon="-3.52461">
        <ele>102.9</ele>
        <time>2022-06-12T10:25:17Z</time>
      </trkpt>
      <trkpt lat="48.25711" lon="-3.5246">
        <ele>102.9</ele>
        <time>2022-06-12T10:25:18Z</time>
      </trkpt>
      <trkpt lat="48.25712" lon="-3.52459">
        <ele>102.9</ele>
        <time>2022-06-12T10:25:19Z</time>
      </trkpt>
      <trkpt lat="48.25713" lon="-3.52458">
        <ele>102.9</ele>
        <time>2022-06-12T10:25:20Z</time>
      </trkpt>
      <trkpt lat="48.25713" lon="-3.52457">
        <ele>102.9</ele>
        <time>2022-06-12T10:25:21Z</time>
      </trkpt>
      <trkpt lat="48.25714" lon="-3.52455">
        <ele>102.9</ele>
        <time>2022-06-12T10:25:22Z</time>
      </trkpt>
      <trkpt lat="48.25715" lon="-3.52453">
        <ele>102.9</ele>
        <time>2022-06-12T10:25:24Z</time>
      </trkpt>
      <trkpt lat="48.25716" lon="-3.52451">
        <ele>102.9</ele>
        <time>2022-06-12T10:25:25Z</time>
      </trkpt>
      <trkpt lat="48.25717" lon="-3.5245">
        <ele>102.9</ele>
        <time>2022-06-12T10:25:26Z</time>
      </trkpt>
      <trkpt lat="48.25717" lon="-3.52448">
        <ele>102.8</ele>
        <time>2022-06-12T10:25:27Z</time>
      </trkpt>
      <trkpt lat="48.25717" lon="-3.52446">
        <ele>102.8</ele>
        <time>2022-06-12T10:25:28Z</time>
      </trkpt>
      <trkpt lat="48.25718" lon="-3.52444">
        <ele>102.8</ele>
        <time>2022-06-12T10:25:29Z</time>
      </trkpt>
      <trkpt lat="48.25718" lon="-3.52443">
        <ele>102.8</ele>
        <time>2022-06-12T10:25:30Z</time>
      </trkpt>
      <trkpt lat="48.25719" lon="-3.52441">
        <ele>102.8</ele>
        <time>2022-06-12T10:25:31Z</time>
      </trkpt>
      <trkpt lat="48.25719" lon="-3.52439">
        <ele>102.8</ele>
        <time>2022-06-12T10:25:33Z</time>
      </trkpt>
      <trkpt lat="48.25719" lon="-3.52437">
        <ele>102.8</ele>
        <time>2022-06-12T10:25:34Z</time>
      </trkpt>
      <trkpt lat="48.25719" lon="-3.52436">
        <ele>102.8</ele>
        <time>2022-06-12T10:25:35Z</time>
      </trkpt>
      <trkpt lat="48.25719" lon="-3.52434">
        <ele>102.8</ele>
        <time>2022-06-12T10:25:36Z</time>
      </trkpt>
      <trkpt lat="48.25719" lon="-3.52432">
        <ele>102.8</ele>
        <time>2022-06-12T10:25:37Z</time>
      </trkpt>
      <trkpt lat="48.25719" lon="-3.5243">
        <ele>102.8</ele>
        <time>2022-06-12T10:25:39Z</time>
      </trkpt>
      <trkpt lat="48.25719" lon="-3.52429">
        <ele>102.8</ele>
        <time>2022-06-12T10:25:40Z</time>
      </trkpt>
      <trkpt lat="48.25717" lon="-3.52428">
        <ele>102.8</ele>
        <time>2022-06-12T10:25:41Z</time>
      </trkpt>
      <trkpt lat="48.25716" lon="-3.52428">
        <ele>102.8</ele>
        <time>2022-06-12T10:25:43Z</time>
      </trkpt>
      <trkpt lat="48.25715" lon="-3.52429">
        <ele>102.8</ele>
        <time>2022-06-12T10:25:44Z</time>
      </trkpt>
      <trkpt lat="48.25714" lon="-3.52429">
        <ele>102.8</ele>
        <time>2022-06-12T10:25:45Z</time>
      </trkpt>
      <trkpt lat="48.25713" lon="-3.5243">
        <ele>102.8</ele>
        <time>2022-06-12T10:25:46Z</time>
      </trkpt>
      <trkpt lat="48.25712" lon="-3.52432">
        <ele>102.8</ele>
        <time>2022-06-12T10:25:47Z</time>
      </trkpt>
      <trkpt lat="48.25712" lon="-3.52432">
        <ele>102.8</ele>
        <time>2022-06-12T10:25:48Z</time>
      </trkpt>
      <trkpt lat="48.25711" lon="-3.52433">
        <ele>102.8</ele>
        <time>2022-06-12T10:25:49Z</time>
      </trkpt>
      <trkpt lat="48.25711" lon="-3.52433">
        <ele>102.8</ele>
        <time>2022-06-12T10:25:50Z</time>
      </trkpt>
      <trkpt lat="48.25711" lon="-3.52433">
        <ele>102.8</ele>
        <time>2022-06-12T10:25:51Z</time>
      </trkpt>
      <trkpt lat="48.25711" lon="-3.52433">
        <ele>102.8</ele>
        <time>2022-06-12T10:25:52Z</time>
      </trkpt>
      <trkpt lat="48.25711" lon="-3.52432">
        <ele>102.8</ele>
        <time>2022-06-12T10:25:54Z</time>
      </trkpt>
      <trkpt lat="48.2571" lon="-3.52432">
        <ele>102.8</ele>
        <time>2022-06-12T10:25:55Z</time>
      </trkpt>
      <trkpt lat="48.2571" lon="-3.52431">
        <ele>102.8</ele>
        <time>2022-06-12T10:25:56Z</time>
      </trkpt>
      <trkpt lat="48.2571" lon="-3.5243">
        <ele>102.8</ele>
        <time>2022-06-12T10:25:57Z</time>
      </trkpt>
      <trkpt lat="48.25709" lon="-3.52429">
        <ele>102.8</ele>
        <time>2022-06-12T10:25:58Z</time>
      </trkpt>
      <trkpt lat="48.25708" lon="-3.52427">
        <ele>102.7</ele>
        <time>2022-06-12T10:25:59Z</time>
      </trkpt>
      <trkpt lat="48.25708" lon="-3.52426">
        <ele>102.7</ele>
        <time>2022-06-12T10:26:00Z</time>
      </trkpt>
      <trkpt lat="48.25707" lon="-3.52424">
        <ele>102.7</ele>
        <time>2022-06-12T10:26:01Z</time>
      </trkpt>
      <trkpt lat="48.25706" lon="-3.52423">
        <ele>102.7</ele>
        <time>2022-06-12T10:26:03Z</time>
      </trkpt>
      <trkpt lat="48.25706" lon="-3.52421">
        <ele>102.7</ele>
        <time>2022-06-12T10:26:04Z</time>
      </trkpt>
      <trkpt lat="48.25707" lon="-3.52419">
        <ele>102.7</ele>
        <time>2022-06-12T10:26:05Z</time>
      </trkpt>
      <trkpt lat="48.25706" lon="-3.52417">
        <ele>102.7</ele>
        <time>2022-06-12T10:26:07Z</time>
      </trkpt>
      <trkpt lat="48.25706" lon="-3.52416">
        <ele>102.7</ele>
        <time>2022-06-12T10:26:08Z</time>
      </trkpt>
      <trkpt lat="48.25706" lon="-3.52414">
        <ele>102.7</ele>
        <time>2022-06-12T10:26:09Z</time>
      </trkpt>
      <trkpt lat="48.25705" lon="-3.52413">
        <ele>102.7</ele>
        <time>2022-06-12T10:26:10Z</time>
      </trkpt>
      <trkpt lat="48.25705" lon="-3.52411">
        <ele>102.7</ele>
        <time>2022-06-12T10:26:11Z</time>
      </trkpt>
      <trkpt lat="48.25706" lon="-3.52409">
        <ele>102.7</ele>
        <time>2022-06-12T10:26:12Z</time>
      </trkpt>
      <trkpt lat="48.25707" lon="-3.52407">
        <ele>102.7</ele>
        <time>2022-06-12T10:26:14Z</time>
      </trkpt>
      <trkpt lat="48.25709" lon="-3.52406">
        <ele>102.6</ele>
        <time>2022-06-12T10:26:15Z</time>
      </trkpt>
      <trkpt lat="48.2571" lon="-3.52406">
        <ele>102.6</ele>
        <time>2022-06-12T10:26:16Z</time>
      </trkpt>
      <trkpt lat="48.25711" lon="-3.52405">
        <ele>102.6</ele>
        <time>2022-06-12T10:26:17Z</time>
      </trkpt>
      <trkpt lat="48.25712" lon="-3.52404">
        <ele>102.6</ele>
        <time>2022-06-12T10:26:18Z</time>
      </trkpt>
      <trkpt lat="48.25713" lon="-3.52403">
        <ele>102.6</ele>
        <time>2022-06-12T10:26:19Z</time>
      </trkpt>
      <trkpt lat="48.25713" lon="-3.52403">
        <ele>102.6</ele>
        <time>2022-06-12T10:26:20Z</time>
      </trkpt>
      <trkpt lat="48.25713" lon="-3.52402">
        <ele>102.6</ele>
        <time>2022-06-12T10:26:21Z</time>
      </trkpt>
      <trkpt lat="48.25713" lon="-3.52403">
        <ele>102.6</ele>
        <time>2022-06-12T10:26:22Z</time>
      </trkpt>
      <trkpt lat="48.25713" lon="-3.52403">
        <ele>102.6</ele>
        <time>2022-06-12T10:26:23Z</time>
      </trkpt>
      <trkpt lat="48.25713" lon="-3.52404">
        <ele>102.6</ele>
        <time>2022-06-12T10:26:24Z</time>
      </trkpt>
      <trkpt lat="48.25712" lon="-3.52404">
        <ele>102.6</ele>
        <time>2022-06-12T10:26:25Z</time>
      </trkpt>
      <trkpt lat="48.25711" lon="-3.52404">
        <ele>102.6</ele>
        <time>2022-06-12T10:26:26Z</time>
      </trkpt>
      <trkpt lat="48.25711" lon="-3.52403">
        <ele>102.6</ele>
        <time>2022-06-12T10:26:27Z</time>
      </trkpt>
      <trkpt lat="48.2571" lon="-3.52403">
        <ele>102.6</ele>
        <time>2022-06-12T10:26:28Z</time>
      </trkpt>
      <trkpt lat="48.25709" lon="-3.52402">
        <ele>102.6</ele>
        <time>2022-06-12T10:26:29Z</time>
      </trkpt>
      <trkpt lat="48.25709" lon="-3.52401">
        <ele>102.6</ele>
        <time>2022-06-12T10:26:31Z</time>
      </trkpt>
      <trkpt lat="48.25708" lon="-3.524">
        <ele>102.6</ele>
        <time>2022-06-12T10:26:32Z</time>
      </trkpt>
      <trkpt lat="48.25706" lon="-3.52399">
        <ele>102.6</ele>
        <time>2022-06-12T10:26:33Z</time>
      </trkpt>
      <trkpt lat="48.25705" lon="-3.52399">
        <ele>102.6</ele>
        <time>2022-06-12T10:26:34Z</time>
      </trkpt>
      <trkpt lat="48.25704" lon="-3.52398">
        <ele>102.6</ele>
        <time>2022-06-12T10:26:35Z</time>
      </trkpt>
      <trkpt lat="48.25703" lon="-3.52398">
        <ele>102.6</ele>
        <time>2022-06-12T10:26:36Z</time>
      </trkpt>
      <trkpt lat="48.25702" lon="-3.52397">
        <ele>102.6</ele>
        <time>2022-06-12T10:26:37Z</time>
      </trkpt>
      <trkpt lat="48.25701" lon="-3.52397">
        <ele>102.6</ele>
        <time>2022-06-12T10:26:38Z</time>
      </trkpt>
      <trkpt lat="48.257" lon="-3.52397">
        <ele>102.6</ele>
        <time>2022-06-12T10:26:40Z</time>
      </trkpt>
      <trkpt lat="48.25698" lon="-3.52396">
        <ele>102.6</ele>
        <time>2022-06-12T10:26:41Z</time>
      </trkpt>
      <trkpt lat="48.25697" lon="-3.52395">
        <ele>102.6</ele>
        <time>2022-06-12T10:26:42Z</time>
      </trkpt>
      <trkpt lat="48.25696" lon="-3.52395">
        <ele>102.6</ele>
        <time>2022-06-12T10:26:43Z</time>
      </trkpt>
      <trkpt lat="48.25695" lon="-3.52395">
        <ele>102.6</ele>
        <time>2022-06-12T10:26:44Z</time>
      </trkpt>
      <trkpt lat="48.25694" lon="-3.52395">
        <ele>102.6</ele>
        <time>2022-06-12T10:26:45Z</time>
      </trkpt>
      <trkpt lat="48.25693" lon="-3.52395">
        <ele>102.6</ele>
        <time>2022-06-12T10:26:46Z</time>
      </trkpt>
      <trkpt lat="48.25691" lon="-3.52395">
        <ele>102.6</ele>
        <time>2022-06-12T10:26:47Z</time>
      </trkpt>
      <trkpt lat="48.2569" lon="-3.52395">
        <ele>102.6</ele>
        <time>2022-06-12T10:26:48Z</time>
      </trkpt>
      <trkpt lat="48.2569" lon="-3.52395">
        <ele>102.6</ele>
        <time>2022-06-12T10:26:50Z</time>
      </trkpt>
      <trkpt lat="48.25689" lon="-3.52395">
        <ele>102.6</ele>
        <time>2022-06-12T10:26:51Z</time>
      </trkpt>
      <trkpt lat="48.25688" lon="-3.52395">
        <ele>102.6</ele>
        <time>2022-06-12T10:26:52Z</time>
      </trkpt>
      <trkpt lat="48.25687" lon="-3.52396">
        <ele>102.5</ele>
        <time>2022-06-12T10:26:53Z</time>
      </trkpt>
      <trkpt lat="48.25685" lon="-3.52395">
        <ele>102.5</ele>
        <time>2022-06-12T10:26:55Z</time>
      </trkpt>
      <trkpt lat="48.25684" lon="-3.52395">
        <ele>102.5</ele>
        <time>2022-06-12T10:26:56Z</time>
      </trkpt>
      <trkpt lat="48.25682" lon="-3.52395">
        <ele>102.5</ele>
        <time>2022-06-12T10:26:57Z</time>
      </trkpt>
      <trkpt lat="48.25681" lon="-3.52394">
        <ele>102.5</ele>
        <time>2022-06-12T10:26:58Z</time>
      </trkpt>
      <trkpt lat="48.2568" lon="-3.52394">
        <ele>102.5</ele>
        <time>2022-06-12T10:26:59Z</time>
      </trkpt>
      <trkpt lat="48.25679" lon="-3.52393">
        <ele>102.5</ele>
        <time>2022-06-12T10:27:00Z</time>
      </trkpt>
      <trkpt lat="48.25678" lon="-3.52392">
        <ele>102.5</ele>
        <time>2022-06-12T10:27:01Z</time>
      </trkpt>
      <trkpt lat="48.25677" lon="-3.52392">
        <ele>102.5</ele>
        <time>2022-06-12T10:27:02Z</time>
      </trkpt>
      <trkpt lat="48.25675" lon="-3.52391">
        <ele>102.5</ele>
        <time>2022-06-12T10:27:04Z</time>
      </trkpt>
      <trkpt lat="48.25673" lon="-3.5239">
        <ele>102.5</ele>
        <time>2022-06-12T10:27:06Z</time>
      </trkpt>
      <trkpt lat="48.25671" lon="-3.52388">
        <ele>102.5</ele>
        <time>2022-06-12T10:27:07Z</time>
      </trkpt>
      <trkpt lat="48.25671" lon="-3.52387">
        <ele>102.5</ele>
        <time>2022-06-12T10:27:08Z</time>
      </trkpt>
      <trkpt lat="48.2567" lon="-3.52386">
        <ele>102.5</ele>
        <time>2022-06-12T10:27:09Z</time>
      </trkpt>
      <trkpt lat="48.25669" lon="-3.52384">
        <ele>102.5</ele>
        <time>2022-06-12T10:27:10Z</time>
      </trkpt>
      <trkpt lat="48.25668" lon="-3.52383">
        <ele>102.5</ele>
        <time>2022-06-12T10:27:11Z</time>
      </trkpt>
      <trkpt lat="48.25667" lon="-3.52382">
        <ele>102.4</ele>
        <time>2022-06-12T10:27:12Z</time>
      </trkpt>
      <trkpt lat="48.25665" lon="-3.52379">
        <ele>102.4</ele>
        <time>2022-06-12T10:27:13Z</time>
      </trkpt>
      <trkpt lat="48.25664" lon="-3.52378">
        <ele>102.4</ele>
        <time>2022-06-12T10:27:15Z</time>
      </trkpt>
      <trkpt lat="48.25664" lon="-3.52377">
        <ele>102.4</ele>
        <time>2022-06-12T10:27:16Z</time>
      </trkpt>
      <trkpt lat="48.25663" lon="-3.52376">
        <ele>102.4</ele>
        <time>2022-06-12T10:27:17Z</time>
      </trkpt>
      <trkpt lat="48.25662" lon="-3.52375">
        <ele>102.4</ele>
        <time>2022-06-12T10:27:18Z</time>
      </trkpt>
      <trkpt lat="48.25661" lon="-3.52373">
        <ele>102.4</ele>
        <time>2022-06-12T10:27:19Z</time>
      </trkpt>
      <trkpt lat="48.2566" lon="-3.52372">
        <ele>102.4</ele>
        <time>2022-06-12T10:27:20Z</time>
      </trkpt>
      <trkpt lat="48.25659" lon="-3.5237">
        <ele>102.4</ele>
        <time>2022-06-12T10:27:21Z</time>
      </trkpt>
      <trkpt lat="48.25658" lon="-3.52369">
        <ele>102.4</ele>
        <time>2022-06-12T10:27:22Z</time>
      </trkpt>
      <trkpt lat="48.25657" lon="-3.52367">
        <ele>102.3</ele>
        <time>2022-06-12T10:27:23Z</time>
      </trkpt>
      <trkpt lat="48.25656" lon="-3.52367">
        <ele>102.3</ele>
        <time>2022-06-12T10:27:24Z</time>
      </trkpt>
      <trkpt lat="48.25656" lon="-3.52366">
        <ele>102.3</ele>
        <time>2022-06-12T10:27:26Z</time>
      </trkpt>
      <trkpt lat="48.25655" lon="-3.52365">
        <ele>102.3</ele>
        <time>2022-06-12T10:27:27Z</time>
      </trkpt>
      <trkpt lat="48.25654" lon="-3.52363">
        <ele>102.3</ele>
        <time>2022-06-12T10:27:28Z</time>
      </trkpt>
      <trkpt lat="48.25653" lon="-3.52362">
        <ele>102.3</ele>
        <time>2022-06-12T10:27:29Z</time>
      </trkpt>
      <trkpt lat="48.25652" lon="-3.52361">
        <ele>102.3</ele>
        <time>2022-06-12T10:27:30Z</time>
      </trkpt>
      <trkpt lat="48.25651" lon="-3.52359">
        <ele>102.3</ele>
        <time>2022-06-12T10:27:31Z</time>
      </trkpt>
      <trkpt lat="48.2565" lon="-3.52358">
        <ele>102.3</ele>
        <time>2022-06-12T10:27:32Z</time>
      </trkpt>
      <trkpt lat="48.25649" lon="-3.52357">
        <ele>102.3</ele>
        <time>2022-06-12T10:27:33Z</time>
      </trkpt>
      <trkpt lat="48.25648" lon="-3.52356">
        <ele>102.3</ele>
        <time>2022-06-12T10:27:34Z</time>
      </trkpt>
      <trkpt lat="48.25647" lon="-3.52355">
        <ele>102.3</ele>
        <time>2022-06-12T10:27:36Z</time>
      </trkpt>
      <trkpt lat="48.25646" lon="-3.52354">
        <ele>102.3</ele>
        <time>2022-06-12T10:27:37Z</time>
      </trkpt>
      <trkpt lat="48.25646" lon="-3.52354">
        <ele>102.3</ele>
        <time>2022-06-12T10:27:38Z</time>
      </trkpt>
      <trkpt lat="48.25644" lon="-3.52352">
        <ele>102.3</ele>
        <time>2022-06-12T10:27:39Z</time>
      </trkpt>
      <trkpt lat="48.25644" lon="-3.52352">
        <ele>102.3</ele>
        <time>2022-06-12T10:27:40Z</time>
      </trkpt>
      <trkpt lat="48.25644" lon="-3.52352">
        <ele>102.3</ele>
        <time>2022-06-12T10:27:41Z</time>
      </trkpt>
      <trkpt lat="48.25643" lon="-3.52351">
        <ele>102.3</ele>
        <time>2022-06-12T10:27:42Z</time>
      </trkpt>
      <trkpt lat="48.25642" lon="-3.5235">
        <ele>102.3</ele>
        <time>2022-06-12T10:27:43Z</time>
      </trkpt>
      <trkpt lat="48.25641" lon="-3.5235">
        <ele>102.3</ele>
        <time>2022-06-12T10:27:44Z</time>
      </trkpt>
      <trkpt lat="48.2564" lon="-3.52349">
        <ele>102.3</ele>
        <time>2022-06-12T10:27:45Z</time>
      </trkpt>
      <trkpt lat="48.25638" lon="-3.5235">
        <ele>102.3</ele>
        <time>2022-06-12T10:27:47Z</time>
      </trkpt>
      <trkpt lat="48.25637" lon="-3.5235">
        <ele>102.3</ele>
        <time>2022-06-12T10:27:48Z</time>
      </trkpt>
      <trkpt lat="48.25636" lon="-3.5235">
        <ele>102.3</ele>
        <time>2022-06-12T10:27:49Z</time>
      </trkpt>
      <trkpt lat="48.25635" lon="-3.52349">
        <ele>102.3</ele>
        <time>2022-06-12T10:27:50Z</time>
      </trkpt>
      <trkpt lat="48.25634" lon="-3.52349">
        <ele>102.3</ele>
        <time>2022-06-12T10:27:51Z</time>
      </trkpt>
      <trkpt lat="48.25633" lon="-3.52349">
        <ele>102.4</ele>
        <time>2022-06-12T10:27:52Z</time>
      </trkpt>
      <trkpt lat="48.2563" lon="-3.52347">
        <ele>102.4</ele>
        <time>2022-06-12T10:27:53Z</time>
      </trkpt>
      <trkpt lat="48.25629" lon="-3.52347">
        <ele>102.4</ele>
        <time>2022-06-12T10:27:54Z</time>
      </trkpt>
      <trkpt lat="48.25628" lon="-3.52347">
        <ele>102.4</ele>
        <time>2022-06-12T10:27:55Z</time>
      </trkpt>
      <trkpt lat="48.25627" lon="-3.52346">
        <ele>102.4</ele>
        <time>2022-06-12T10:27:56Z</time>
      </trkpt>
      <trkpt lat="48.25625" lon="-3.52346">
        <ele>102.4</ele>
        <time>2022-06-12T10:27:58Z</time>
      </trkpt>
      <trkpt lat="48.25623" lon="-3.52345">
        <ele>102.4</ele>
        <time>2022-06-12T10:27:59Z</time>
      </trkpt>
      <trkpt lat="48.25621" lon="-3.52345">
        <ele>102.4</ele>
        <time>2022-06-12T10:28:01Z</time>
      </trkpt>
      <trkpt lat="48.25618" lon="-3.52344">
        <ele>102.4</ele>
        <time>2022-06-12T10:28:02Z</time>
      </trkpt>
      <trkpt lat="48.25617" lon="-3.52344">
        <ele>102.4</ele>
        <time>2022-06-12T10:28:03Z</time>
      </trkpt>
      <trkpt lat="48.25616" lon="-3.52344">
        <ele>102.4</ele>
        <time>2022-06-12T10:28:04Z</time>
      </trkpt>
      <trkpt lat="48.25614" lon="-3.52344">
        <ele>102.4</ele>
        <time>2022-06-12T10:28:05Z</time>
      </trkpt>
      <trkpt lat="48.25612" lon="-3.52344">
        <ele>102.4</ele>
        <time>2022-06-12T10:28:07Z</time>
      </trkpt>
      <trkpt lat="48.25611" lon="-3.52345">
        <ele>102.4</ele>
        <time>2022-06-12T10:28:08Z</time>
      </trkpt>
      <trkpt lat="48.25609" lon="-3.52344">
        <ele>102.4</ele>
        <time>2022-06-12T10:28:09Z</time>
      </trkpt>
      <trkpt lat="48.25606" lon="-3.52344">
        <ele>102.4</ele>
        <time>2022-06-12T10:28:11Z</time>
      </trkpt>
      <trkpt lat="48.25605" lon="-3.52344">
        <ele>102.4</ele>
        <time>2022-06-12T10:28:12Z</time>
      </trkpt>
      <trkpt lat="48.25602" lon="-3.52343">
        <ele>102.4</ele>
        <time>2022-06-12T10:28:13Z</time>
      </trkpt>
      <trkpt lat="48.25601" lon="-3.52343">
        <ele>102.4</ele>
        <time>2022-06-12T10:28:14Z</time>
      </trkpt>
      <trkpt lat="48.25599" lon="-3.52343">
        <ele>102.4</ele>
        <time>2022-06-12T10:28:15Z</time>
      </trkpt>
      <trkpt lat="48.25597" lon="-3.52343">
        <ele>102.4</ele>
        <time>2022-06-12T10:28:16Z</time>
      </trkpt>
      <trkpt lat="48.25596" lon="-3.52343">
        <ele>102.5</ele>
        <time>2022-06-12T10:28:17Z</time>
      </trkpt>
      <trkpt lat="48.25594" lon="-3.52342">
        <ele>102.5</ele>
        <time>2022-06-12T10:28:18Z</time>
      </trkpt>
      <trkpt lat="48.25592" lon="-3.52341">
        <ele>102.5</ele>
        <time>2022-06-12T10:28:19Z</time>
      </trkpt>
      <trkpt lat="48.25591" lon="-3.52341">
        <ele>102.5</ele>
        <time>2022-06-12T10:28:20Z</time>
      </trkpt>
      <trkpt lat="48.25589" lon="-3.5234">
        <ele>102.5</ele>
        <time>2022-06-12T10:28:22Z</time>
      </trkpt>
      <trkpt lat="48.25588" lon="-3.5234">
        <ele>102.5</ele>
        <time>2022-06-12T10:28:23Z</time>
      </trkpt>
      <trkpt lat="48.25586" lon="-3.52339">
        <ele>102.5</ele>
        <time>2022-06-12T10:28:24Z</time>
      </trkpt>
      <trkpt lat="48.25585" lon="-3.52338">
        <ele>102.5</ele>
        <time>2022-06-12T10:28:25Z</time>
      </trkpt>
      <trkpt lat="48.25584" lon="-3.52337">
        <ele>102.5</ele>
        <time>2022-06-12T10:28:26Z</time>
      </trkpt>
      <trkpt lat="48.25583" lon="-3.52336">
        <ele>102.5</ele>
        <time>2022-06-12T10:28:27Z</time>
      </trkpt>
      <trkpt lat="48.25582" lon="-3.52336">
        <ele>102.5</ele>
        <time>2022-06-12T10:28:28Z</time>
      </trkpt>
      <trkpt lat="48.2558" lon="-3.52334">
        <ele>102.5</ele>
        <time>2022-06-12T10:28:29Z</time>
      </trkpt>
      <trkpt lat="48.25579" lon="-3.52333">
        <ele>102.5</ele>
        <time>2022-06-12T10:28:30Z</time>
      </trkpt>
      <trkpt lat="48.25578" lon="-3.52332">
        <ele>102.5</ele>
        <time>2022-06-12T10:28:32Z</time>
      </trkpt>
      <trkpt lat="48.25577" lon="-3.52331">
        <ele>102.5</ele>
        <time>2022-06-12T10:28:33Z</time>
      </trkpt>
      <trkpt lat="48.25576" lon="-3.52329">
        <ele>102.5</ele>
        <time>2022-06-12T10:28:34Z</time>
      </trkpt>
      <trkpt lat="48.25575" lon="-3.52328">
        <ele>102.5</ele>
        <time>2022-06-12T10:28:35Z</time>
      </trkpt>
      <trkpt lat="48.25575" lon="-3.52327">
        <ele>102.5</ele>
        <time>2022-06-12T10:28:36Z</time>
      </trkpt>
      <trkpt lat="48.25573" lon="-3.52326">
        <ele>102.5</ele>
        <time>2022-06-12T10:28:37Z</time>
      </trkpt>
      <trkpt lat="48.25572" lon="-3.52325">
        <ele>102.5</ele>
        <time>2022-06-12T10:28:39Z</time>
      </trkpt>
      <trkpt lat="48.25571" lon="-3.52324">
        <ele>102.5</ele>
        <time>2022-06-12T10:28:40Z</time>
      </trkpt>
      <trkpt lat="48.2557" lon="-3.52322">
        <ele>102.5</ele>
        <time>2022-06-12T10:28:41Z</time>
      </trkpt>
      <trkpt lat="48.25569" lon="-3.52321">
        <ele>102.5</ele>
        <time>2022-06-12T10:28:43Z</time>
      </trkpt>
      <trkpt lat="48.25567" lon="-3.52319">
        <ele>102.5</ele>
        <time>2022-06-12T10:28:44Z</time>
      </trkpt>
      <trkpt lat="48.25566" lon="-3.52319">
        <ele>102.5</ele>
        <time>2022-06-12T10:28:45Z</time>
      </trkpt>
      <trkpt lat="48.25565" lon="-3.52318">
        <ele>102.5</ele>
        <time>2022-06-12T10:28:46Z</time>
      </trkpt>
      <trkpt lat="48.25564" lon="-3.52317">
        <ele>102.5</ele>
        <time>2022-06-12T10:28:47Z</time>
      </trkpt>
      <trkpt lat="48.25563" lon="-3.52316">
        <ele>102.6</ele>
        <time>2022-06-12T10:28:49Z</time>
      </trkpt>
      <trkpt lat="48.25562" lon="-3.52314">
        <ele>102.6</ele>
        <time>2022-06-12T10:28:50Z</time>
      </trkpt>
      <trkpt lat="48.25561" lon="-3.52313">
        <ele>102.6</ele>
        <time>2022-06-12T10:28:51Z</time>
      </trkpt>
      <trkpt lat="48.2556" lon="-3.52313">
        <ele>102.6</ele>
        <time>2022-06-12T10:28:52Z</time>
      </trkpt>
      <trkpt lat="48.25559" lon="-3.52312">
        <ele>102.6</ele>
        <time>2022-06-12T10:28:53Z</time>
      </trkpt>
      <trkpt lat="48.25558" lon="-3.52311">
        <ele>102.6</ele>
        <time>2022-06-12T10:28:54Z</time>
      </trkpt>
      <trkpt lat="48.25557" lon="-3.52309">
        <ele>102.6</ele>
        <time>2022-06-12T10:28:55Z</time>
      </trkpt>
      <trkpt lat="48.25556" lon="-3.52308">
        <ele>102.6</ele>
        <time>2022-06-12T10:28:56Z</time>
      </trkpt>
      <trkpt lat="48.25555" lon="-3.52307">
        <ele>102.6</ele>
        <time>2022-06-12T10:28:57Z</time>
      </trkpt>
      <trkpt lat="48.25555" lon="-3.52307">
        <ele>102.6</ele>
        <time>2022-06-12T10:28:59Z</time>
      </trkpt>
      <trkpt lat="48.25555" lon="-3.52306">
        <ele>102.6</ele>
        <time>2022-06-12T10:29:00Z</time>
      </trkpt>
      <trkpt lat="48.25554" lon="-3.52305">
        <ele>102.6</ele>
        <time>2022-06-12T10:29:01Z</time>
      </trkpt>
      <trkpt lat="48.25554" lon="-3.52304">
        <ele>102.6</ele>
        <time>2022-06-12T10:29:02Z</time>
      </trkpt>
      <trkpt lat="48.25552" lon="-3.52302">
        <ele>102.7</ele>
        <time>2022-06-12T10:29:03Z</time>
      </trkpt>
      <trkpt lat="48.25551" lon="-3.52302">
        <ele>102.7</ele>
        <time>2022-06-12T10:29:04Z</time>
      </trkpt>
      <trkpt lat="48.2555" lon="-3.52301">
        <ele>102.7</ele>
        <time>2022-06-12T10:29:05Z</time>
      </trkpt>
      <trkpt lat="48.25549" lon="-3.523">
        <ele>102.7</ele>
        <time>2022-06-12T10:29:06Z</time>
      </trkpt>
      <trkpt lat="48.25548" lon="-3.52299">
        <ele>102.7</ele>
        <time>2022-06-12T10:29:08Z</time>
      </trkpt>
      <trkpt lat="48.25547" lon="-3.52298">
        <ele>102.7</ele>
        <time>2022-06-12T10:29:09Z</time>
      </trkpt>
      <trkpt lat="48.25546" lon="-3.52297">
        <ele>102.7</ele>
        <time>2022-06-12T10:29:10Z</time>
      </trkpt>
      <trkpt lat="48.25544" lon="-3.52295">
        <ele>102.8</ele>
        <time>2022-06-12T10:29:11Z</time>
      </trkpt>
      <trkpt lat="48.25542" lon="-3.52293">
        <ele>102.8</ele>
        <time>2022-06-12T10:29:12Z</time>
      </trkpt>
      <trkpt lat="48.25542" lon="-3.52292">
        <ele>102.8</ele>
        <time>2022-06-12T10:29:13Z</time>
      </trkpt>
      <trkpt lat="48.25541" lon="-3.52291">
        <ele>102.8</ele>
        <time>2022-06-12T10:29:14Z</time>
      </trkpt>
      <trkpt lat="48.25539" lon="-3.52288">
        <ele>102.9</ele>
        <time>2022-06-12T10:29:15Z</time>
      </trkpt>
      <trkpt lat="48.25538" lon="-3.52286">
        <ele>102.9</ele>
        <time>2022-06-12T10:29:16Z</time>
      </trkpt>
      <trkpt lat="48.25537" lon="-3.52285">
        <ele>102.9</ele>
        <time>2022-06-12T10:29:18Z</time>
      </trkpt>
      <trkpt lat="48.25536" lon="-3.52284">
        <ele>103</ele>
        <time>2022-06-12T10:29:19Z</time>
      </trkpt>
      <trkpt lat="48.25534" lon="-3.52279">
        <ele>103.1</ele>
        <time>2022-06-12T10:29:21Z</time>
      </trkpt>
      <trkpt lat="48.25533" lon="-3.52277">
        <ele>103.1</ele>
        <time>2022-06-12T10:29:22Z</time>
      </trkpt>
      <trkpt lat="48.25533" lon="-3.52276">
        <ele>103.1</ele>
        <time>2022-06-12T10:29:23Z</time>
      </trkpt>
      <trkpt lat="48.25532" lon="-3.52275">
        <ele>103.2</ele>
        <time>2022-06-12T10:29:24Z</time>
      </trkpt>
      <trkpt lat="48.25531" lon="-3.52273">
        <ele>103.2</ele>
        <time>2022-06-12T10:29:25Z</time>
      </trkpt>
      <trkpt lat="48.25531" lon="-3.52271">
        <ele>103.3</ele>
        <time>2022-06-12T10:29:26Z</time>
      </trkpt>
      <trkpt lat="48.2553" lon="-3.5227">
        <ele>103.3</ele>
        <time>2022-06-12T10:29:27Z</time>
      </trkpt>
      <trkpt lat="48.25529" lon="-3.52269">
        <ele>103.4</ele>
        <time>2022-06-12T10:29:28Z</time>
      </trkpt>
      <trkpt lat="48.25528" lon="-3.52267">
        <ele>103.4</ele>
        <time>2022-06-12T10:29:30Z</time>
      </trkpt>
      <trkpt lat="48.25527" lon="-3.52265">
        <ele>103.5</ele>
        <time>2022-06-12T10:29:31Z</time>
      </trkpt>
      <trkpt lat="48.25526" lon="-3.52263">
        <ele>103.6</ele>
        <time>2022-06-12T10:29:33Z</time>
      </trkpt>
      <trkpt lat="48.25525" lon="-3.5226">
        <ele>103.7</ele>
        <time>2022-06-12T10:29:34Z</time>
      </trkpt>
      <trkpt lat="48.25525" lon="-3.52258">
        <ele>103.8</ele>
        <time>2022-06-12T10:29:35Z</time>
      </trkpt>
      <trkpt lat="48.25524" lon="-3.52257">
        <ele>103.8</ele>
        <time>2022-06-12T10:29:36Z</time>
      </trkpt>
      <trkpt lat="48.25524" lon="-3.52255">
        <ele>103.9</ele>
        <time>2022-06-12T10:29:37Z</time>
      </trkpt>
      <trkpt lat="48.25523" lon="-3.52253">
        <ele>103.9</ele>
        <time>2022-06-12T10:29:39Z</time>
      </trkpt>
      <trkpt lat="48.25523" lon="-3.52252">
        <ele>104</ele>
        <time>2022-06-12T10:29:40Z</time>
      </trkpt>
      <trkpt lat="48.25523" lon="-3.5225">
        <ele>104.1</ele>
        <time>2022-06-12T10:29:41Z</time>
      </trkpt>
      <trkpt lat="48.25522" lon="-3.52248">
        <ele>104.2</ele>
        <time>2022-06-12T10:29:42Z</time>
      </trkpt>
      <trkpt lat="48.25522" lon="-3.52246">
        <ele>104.2</ele>
        <time>2022-06-12T10:29:43Z</time>
      </trkpt>
      <trkpt lat="48.25522" lon="-3.52244">
        <ele>104.3</ele>
        <time>2022-06-12T10:29:45Z</time>
      </trkpt>
      <trkpt lat="48.25521" lon="-3.52242">
        <ele>104.4</ele>
        <time>2022-06-12T10:29:46Z</time>
      </trkpt>
      <trkpt lat="48.25521" lon="-3.52241">
        <ele>104.4</ele>
        <time>2022-06-12T10:29:47Z</time>
      </trkpt>
      <trkpt lat="48.25521" lon="-3.5224">
        <ele>104.5</ele>
        <time>2022-06-12T10:29:48Z</time>
      </trkpt>
      <trkpt lat="48.25521" lon="-3.52236">
        <ele>104.6</ele>
        <time>2022-06-12T10:29:49Z</time>
      </trkpt>
      <trkpt lat="48.25522" lon="-3.52235">
        <ele>104.7</ele>
        <time>2022-06-12T10:29:51Z</time>
      </trkpt>
      <trkpt lat="48.25522" lon="-3.52233">
        <ele>104.7</ele>
        <time>2022-06-12T10:29:52Z</time>
      </trkpt>
      <trkpt lat="48.25522" lon="-3.52231">
        <ele>104.8</ele>
        <time>2022-06-12T10:29:53Z</time>
      </trkpt>
      <trkpt lat="48.25522" lon="-3.52229">
        <ele>104.8</ele>
        <time>2022-06-12T10:29:54Z</time>
      </trkpt>
      <trkpt lat="48.25522" lon="-3.52228">
        <ele>104.9</ele>
        <time>2022-06-12T10:29:55Z</time>
      </trkpt>
      <trkpt lat="48.25522" lon="-3.52226">
        <ele>104.9</ele>
        <time>2022-06-12T10:29:57Z</time>
      </trkpt>
      <trkpt lat="48.25522" lon="-3.52225">
        <ele>105</ele>
        <time>2022-06-12T10:29:58Z</time>
      </trkpt>
      <trkpt lat="48.25522" lon="-3.52223">
        <ele>105</ele>
        <time>2022-06-12T10:29:59Z</time>
      </trkpt>
      <trkpt lat="48.25523" lon="-3.52222">
        <ele>105.1</ele>
        <time>2022-06-12T10:30:00Z</time>
      </trkpt>
      <trkpt lat="48.25523" lon="-3.5222">
        <ele>105.1</ele>
        <time>2022-06-12T10:30:01Z</time>
      </trkpt>
      <trkpt lat="48.25523" lon="-3.52219">
        <ele>105.2</ele>
        <time>2022-06-12T10:30:02Z</time>
      </trkpt>
      <trkpt lat="48.25523" lon="-3.52218">
        <ele>105.2</ele>
        <time>2022-06-12T10:30:03Z</time>
      </trkpt>
      <trkpt lat="48.25523" lon="-3.52216">
        <ele>105.2</ele>
        <time>2022-06-12T10:30:04Z</time>
      </trkpt>
      <trkpt lat="48.25523" lon="-3.52214">
        <ele>105.3</ele>
        <time>2022-06-12T10:30:06Z</time>
      </trkpt>
      <trkpt lat="48.25523" lon="-3.52213">
        <ele>105.3</ele>
        <time>2022-06-12T10:30:07Z</time>
      </trkpt>
      <trkpt lat="48.25523" lon="-3.5221">
        <ele>105.4</ele>
        <time>2022-06-12T10:30:09Z</time>
      </trkpt>
      <trkpt lat="48.25523" lon="-3.5221">
        <ele>105.4</ele>
        <time>2022-06-12T10:30:10Z</time>
      </trkpt>
      <trkpt lat="48.25525" lon="-3.5221">
        <ele>105.4</ele>
        <time>2022-06-12T10:30:11Z</time>
      </trkpt>
      <trkpt lat="48.25525" lon="-3.52209">
        <ele>105.5</ele>
        <time>2022-06-12T10:30:12Z</time>
      </trkpt>
      <trkpt lat="48.25525" lon="-3.52208">
        <ele>105.5</ele>
        <time>2022-06-12T10:30:13Z</time>
      </trkpt>
      <trkpt lat="48.25525" lon="-3.52207">
        <ele>105.5</ele>
        <time>2022-06-12T10:30:15Z</time>
      </trkpt>
      <trkpt lat="48.25525" lon="-3.52206">
        <ele>105.5</ele>
        <time>2022-06-12T10:30:16Z</time>
      </trkpt>
      <trkpt lat="48.25524" lon="-3.52205">
        <ele>105.5</ele>
        <time>2022-06-12T10:30:17Z</time>
      </trkpt>
      <trkpt lat="48.25524" lon="-3.52202">
        <ele>105.6</ele>
        <time>2022-06-12T10:30:18Z</time>
      </trkpt>
      <trkpt lat="48.25523" lon="-3.52201">
        <ele>105.3</ele>
        <time>2022-06-12T10:30:19Z</time>
      </trkpt>
      <trkpt lat="48.25523" lon="-3.522">
        <ele>105.3</ele>
        <time>2022-06-12T10:30:20Z</time>
      </trkpt>
      <trkpt lat="48.25523" lon="-3.52198">
        <ele>105.2</ele>
        <time>2022-06-12T10:30:22Z</time>
      </trkpt>
      <trkpt lat="48.25522" lon="-3.52196">
        <ele>105.1</ele>
        <time>2022-06-12T10:30:23Z</time>
      </trkpt>
      <trkpt lat="48.25522" lon="-3.52195">
        <ele>105.1</ele>
        <time>2022-06-12T10:30:24Z</time>
      </trkpt>
      <trkpt lat="48.25521" lon="-3.52193">
        <ele>105</ele>
        <time>2022-06-12T10:30:25Z</time>
      </trkpt>
      <trkpt lat="48.2552" lon="-3.5219">
        <ele>104.9</ele>
        <time>2022-06-12T10:30:26Z</time>
      </trkpt>
      <trkpt lat="48.2552" lon="-3.52189">
        <ele>104.8</ele>
        <time>2022-06-12T10:30:28Z</time>
      </trkpt>
      <trkpt lat="48.2552" lon="-3.52188">
        <ele>104.8</ele>
        <time>2022-06-12T10:30:29Z</time>
      </trkpt>
      <trkpt lat="48.25519" lon="-3.52187">
        <ele>104.7</ele>
        <time>2022-06-12T10:30:30Z</time>
      </trkpt>
      <trkpt lat="48.25519" lon="-3.52187">
        <ele>104.7</ele>
        <time>2022-06-12T10:30:31Z</time>
      </trkpt>
      <trkpt lat="48.25519" lon="-3.52186">
        <ele>104.7</ele>
        <time>2022-06-12T10:30:32Z</time>
      </trkpt>
      <trkpt lat="48.2552" lon="-3.52187">
        <ele>104.7</ele>
        <time>2022-06-12T10:30:33Z</time>
      </trkpt>
      <trkpt lat="48.2552" lon="-3.52187">
        <ele>104.7</ele>
        <time>2022-06-12T10:30:34Z</time>
      </trkpt>
      <trkpt lat="48.2552" lon="-3.52187">
        <ele>104.7</ele>
        <time>2022-06-12T10:30:35Z</time>
      </trkpt>
      <trkpt lat="48.2552" lon="-3.52186">
        <ele>104.7</ele>
        <time>2022-06-12T10:30:36Z</time>
      </trkpt>
      <trkpt lat="48.2552" lon="-3.52186">
        <ele>104.7</ele>
        <time>2022-06-12T10:30:38Z</time>
      </trkpt>
      <trkpt lat="48.2552" lon="-3.52186">
        <ele>104.6</ele>
        <time>2022-06-12T10:30:39Z</time>
      </trkpt>
      <trkpt lat="48.25521" lon="-3.52186">
        <ele>104.6</ele>
        <time>2022-06-12T10:30:40Z</time>
      </trkpt>
      <trkpt lat="48.25521" lon="-3.52186">
        <ele>104.6</ele>
        <time>2022-06-12T10:30:41Z</time>
      </trkpt>
      <trkpt lat="48.25521" lon="-3.52186">
        <ele>104.6</ele>
        <time>2022-06-12T10:30:42Z</time>
      </trkpt>
      <trkpt lat="48.25521" lon="-3.52186">
        <ele>104.6</ele>
        <time>2022-06-12T10:30:43Z</time>
      </trkpt>
      <trkpt lat="48.25522" lon="-3.52186">
        <ele>104.6</ele>
        <time>2022-06-12T10:30:44Z</time>
      </trkpt>
      <trkpt lat="48.25522" lon="-3.52187">
        <ele>104.6</ele>
        <time>2022-06-12T10:30:45Z</time>
      </trkpt>
      <trkpt lat="48.25522" lon="-3.52187">
        <ele>104.6</ele>
        <time>2022-06-12T10:30:46Z</time>
      </trkpt>
      <trkpt lat="48.25522" lon="-3.52187">
        <ele>104.5</ele>
        <time>2022-06-12T10:30:47Z</time>
      </trkpt>
      <trkpt lat="48.25522" lon="-3.52187">
        <ele>104.5</ele>
        <time>2022-06-12T10:30:48Z</time>
      </trkpt>
      <trkpt lat="48.25522" lon="-3.52187">
        <ele>104.5</ele>
        <time>2022-06-12T10:30:49Z</time>
      </trkpt>
      <trkpt lat="48.25522" lon="-3.52187">
        <ele>104.5</ele>
        <time>2022-06-12T10:30:50Z</time>
      </trkpt>
      <trkpt lat="48.25522" lon="-3.52186">
        <ele>104.5</ele>
        <time>2022-06-12T10:30:51Z</time>
      </trkpt>
      <trkpt lat="48.25522" lon="-3.52186">
        <ele>104.5</ele>
        <time>2022-06-12T10:30:52Z</time>
      </trkpt>
      <trkpt lat="48.25522" lon="-3.52185">
        <ele>104.5</ele>
        <time>2022-06-12T10:30:54Z</time>
      </trkpt>
      <trkpt lat="48.25522" lon="-3.52185">
        <ele>104.5</ele>
        <time>2022-06-12T10:30:55Z</time>
      </trkpt>
      <trkpt lat="48.25523" lon="-3.52185">
        <ele>104.4</ele>
        <time>2022-06-12T10:30:56Z</time>
      </trkpt>
      <trkpt lat="48.25523" lon="-3.52185">
        <ele>104.4</ele>
        <time>2022-06-12T10:30:57Z</time>
      </trkpt>
      <trkpt lat="48.25523" lon="-3.52186">
        <ele>104.4</ele>
        <time>2022-06-12T10:30:58Z</time>
      </trkpt>
      <trkpt lat="48.25524" lon="-3.52186">
        <ele>104.4</ele>
        <time>2022-06-12T10:30:59Z</time>
      </trkpt>
      <trkpt lat="48.25524" lon="-3.52186">
        <ele>104.4</ele>
        <time>2022-06-12T10:31:00Z</time>
      </trkpt>
      <trkpt lat="48.25524" lon="-3.52186">
        <ele>104.4</ele>
        <time>2022-06-12T10:31:01Z</time>
      </trkpt>
      <trkpt lat="48.25524" lon="-3.52186">
        <ele>104.4</ele>
        <time>2022-06-12T10:31:02Z</time>
      </trkpt>
      <trkpt lat="48.25524" lon="-3.52186">
        <ele>104.4</ele>
        <time>2022-06-12T10:31:03Z</time>
      </trkpt>
      <trkpt lat="48.25524" lon="-3.52186">
        <ele>104.3</ele>
        <time>2022-06-12T10:31:04Z</time>
      </trkpt>
      <trkpt lat="48.25524" lon="-3.52186">
        <ele>104.3</ele>
        <time>2022-06-12T10:31:05Z</time>
      </trkpt>
      <trkpt lat="48.25524" lon="-3.52186">
        <ele>104.3</ele>
        <time>2022-06-12T10:31:06Z</time>
      </trkpt>
      <trkpt lat="48.25524" lon="-3.52185">
        <ele>104.3</ele>
        <time>2022-06-12T10:31:08Z</time>
      </trkpt>
      <trkpt lat="48.25523" lon="-3.52185">
        <ele>104.3</ele>
        <time>2022-06-12T10:31:09Z</time>
      </trkpt>
      <trkpt lat="48.25523" lon="-3.52184">
        <ele>104.3</ele>
        <time>2022-06-12T10:31:10Z</time>
      </trkpt>
      <trkpt lat="48.25523" lon="-3.52183">
        <ele>104.2</ele>
        <time>2022-06-12T10:31:12Z</time>
      </trkpt>
      <trkpt lat="48.25523" lon="-3.52182">
        <ele>104.2</ele>
        <time>2022-06-12T10:31:13Z</time>
      </trkpt>
      <trkpt lat="48.25522" lon="-3.5218">
        <ele>104.1</ele>
        <time>2022-06-12T10:31:14Z</time>
      </trkpt>
      <trkpt lat="48.25522" lon="-3.52178">
        <ele>104.1</ele>
        <time>2022-06-12T10:31:15Z</time>
      </trkpt>
      <trkpt lat="48.25522" lon="-3.52177">
        <ele>104</ele>
        <time>2022-06-12T10:31:16Z</time>
      </trkpt>
      <trkpt lat="48.25521" lon="-3.52173">
        <ele>103.9</ele>
        <time>2022-06-12T10:31:17Z</time>
      </trkpt>
      <trkpt lat="48.2552" lon="-3.52172">
        <ele>103.9</ele>
        <time>2022-06-12T10:31:18Z</time>
      </trkpt>
      <trkpt lat="48.2552" lon="-3.5217">
        <ele>103.8</ele>
        <time>2022-06-12T10:31:19Z</time>
      </trkpt>
      <trkpt lat="48.25519" lon="-3.52168">
        <ele>103.8</ele>
        <time>2022-06-12T10:31:21Z</time>
      </trkpt>
      <trkpt lat="48.25519" lon="-3.52166">
        <ele>103.7</ele>
        <time>2022-06-12T10:31:22Z</time>
      </trkpt>
      <trkpt lat="48.25518" lon="-3.52163">
        <ele>103.7</ele>
        <time>2022-06-12T10:31:23Z</time>
      </trkpt>
      <trkpt lat="48.25518" lon="-3.52161">
        <ele>103.6</ele>
        <time>2022-06-12T10:31:24Z</time>
      </trkpt>
      <trkpt lat="48.25518" lon="-3.52158">
        <ele>103.6</ele>
        <time>2022-06-12T10:31:25Z</time>
      </trkpt>
      <trkpt lat="48.25518" lon="-3.52157">
        <ele>103.6</ele>
        <time>2022-06-12T10:31:26Z</time>
      </trkpt>
      <trkpt lat="48.25518" lon="-3.52156">
        <ele>103.6</ele>
        <time>2022-06-12T10:31:28Z</time>
      </trkpt>
      <trkpt lat="48.25518" lon="-3.52155">
        <ele>103.5</ele>
        <time>2022-06-12T10:31:29Z</time>
      </trkpt>
      <trkpt lat="48.25518" lon="-3.52153">
        <ele>103.5</ele>
        <time>2022-06-12T10:31:30Z</time>
      </trkpt>
      <trkpt lat="48.25518" lon="-3.52152">
        <ele>103.5</ele>
        <time>2022-06-12T10:31:31Z</time>
      </trkpt>
      <trkpt lat="48.25518" lon="-3.52151">
        <ele>103.5</ele>
        <time>2022-06-12T10:31:32Z</time>
      </trkpt>
      <trkpt lat="48.25518" lon="-3.52148">
        <ele>103.4</ele>
        <time>2022-06-12T10:31:34Z</time>
      </trkpt>
      <trkpt lat="48.25518" lon="-3.52147">
        <ele>103.4</ele>
        <time>2022-06-12T10:31:35Z</time>
      </trkpt>
      <trkpt lat="48.25519" lon="-3.52144">
        <ele>103.4</ele>
        <time>2022-06-12T10:31:36Z</time>
      </trkpt>
      <trkpt lat="48.25519" lon="-3.52143">
        <ele>103.4</ele>
        <time>2022-06-12T10:31:37Z</time>
      </trkpt>
      <trkpt lat="48.2552" lon="-3.52141">
        <ele>103.4</ele>
        <time>2022-06-12T10:31:38Z</time>
      </trkpt>
      <trkpt lat="48.2552" lon="-3.52139">
        <ele>103.3</ele>
        <time>2022-06-12T10:31:40Z</time>
      </trkpt>
      <trkpt lat="48.25522" lon="-3.52136">
        <ele>103.3</ele>
        <time>2022-06-12T10:31:42Z</time>
      </trkpt>
      <trkpt lat="48.25523" lon="-3.52134">
        <ele>103.3</ele>
        <time>2022-06-12T10:31:43Z</time>
      </trkpt>
      <trkpt lat="48.25524" lon="-3.52132">
        <ele>103.3</ele>
        <time>2022-06-12T10:31:44Z</time>
      </trkpt>
      <trkpt lat="48.25525" lon="-3.52131">
        <ele>103.3</ele>
        <time>2022-06-12T10:31:45Z</time>
      </trkpt>
      <trkpt lat="48.25526" lon="-3.52129">
        <ele>103.2</ele>
        <time>2022-06-12T10:31:46Z</time>
      </trkpt>
      <trkpt lat="48.25527" lon="-3.52127">
        <ele>103.2</ele>
        <time>2022-06-12T10:31:47Z</time>
      </trkpt>
      <trkpt lat="48.25528" lon="-3.52126">
        <ele>103.2</ele>
        <time>2022-06-12T10:31:48Z</time>
      </trkpt>
      <trkpt lat="48.25529" lon="-3.52121">
        <ele>103.2</ele>
        <time>2022-06-12T10:31:50Z</time>
      </trkpt>
      <trkpt lat="48.2553" lon="-3.5212">
        <ele>103.2</ele>
        <time>2022-06-12T10:31:51Z</time>
      </trkpt>
      <trkpt lat="48.2553" lon="-3.52118">
        <ele>103.2</ele>
        <time>2022-06-12T10:31:52Z</time>
      </trkpt>
      <trkpt lat="48.25531" lon="-3.52117">
        <ele>103.2</ele>
        <time>2022-06-12T10:31:53Z</time>
      </trkpt>
      <trkpt lat="48.25532" lon="-3.52114">
        <ele>103.1</ele>
        <time>2022-06-12T10:31:54Z</time>
      </trkpt>
      <trkpt lat="48.25532" lon="-3.52113">
        <ele>103.1</ele>
        <time>2022-06-12T10:31:55Z</time>
      </trkpt>
      <trkpt lat="48.25533" lon="-3.52112">
        <ele>103.1</ele>
        <time>2022-06-12T10:31:56Z</time>
      </trkpt>
      <trkpt lat="48.25533" lon="-3.5211">
        <ele>103.1</ele>
        <time>2022-06-12T10:31:57Z</time>
      </trkpt>
      <trkpt lat="48.25533" lon="-3.52109">
        <ele>103.1</ele>
        <time>2022-06-12T10:31:58Z</time>
      </trkpt>
      <trkpt lat="48.25534" lon="-3.52106">
        <ele>103.1</ele>
        <time>2022-06-12T10:32:00Z</time>
      </trkpt>
      <trkpt lat="48.25535" lon="-3.52105">
        <ele>103.1</ele>
        <time>2022-06-12T10:32:01Z</time>
      </trkpt>
      <trkpt lat="48.25535" lon="-3.52102">
        <ele>103.1</ele>
        <time>2022-06-12T10:32:02Z</time>
      </trkpt>
      <trkpt lat="48.25536" lon="-3.52099">
        <ele>103.1</ele>
        <time>2022-06-12T10:32:04Z</time>
      </trkpt>
      <trkpt lat="48.25537" lon="-3.52097">
        <ele>103.1</ele>
        <time>2022-06-12T10:32:06Z</time>
      </trkpt>
      <trkpt lat="48.25538" lon="-3.52094">
        <ele>103</ele>
        <time>2022-06-12T10:32:07Z</time>
      </trkpt>
      <trkpt lat="48.25538" lon="-3.52093">
        <ele>103</ele>
        <time>2022-06-12T10:32:08Z</time>
      </trkpt>
      <trkpt lat="48.25539" lon="-3.52092">
        <ele>103</ele>
        <time>2022-06-12T10:32:09Z</time>
      </trkpt>
      <trkpt lat="48.2554" lon="-3.52089">
        <ele>103</ele>
        <time>2022-06-12T10:32:10Z</time>
      </trkpt>
      <trkpt lat="48.25541" lon="-3.52087">
        <ele>103</ele>
        <time>2022-06-12T10:32:12Z</time>
      </trkpt>
      <trkpt lat="48.25541" lon="-3.52086">
        <ele>103</ele>
        <time>2022-06-12T10:32:13Z</time>
      </trkpt>
      <trkpt lat="48.25542" lon="-3.52085">
        <ele>103</ele>
        <time>2022-06-12T10:32:14Z</time>
      </trkpt>
      <trkpt lat="48.25542" lon="-3.52084">
        <ele>103</ele>
        <time>2022-06-12T10:32:15Z</time>
      </trkpt>
      <trkpt lat="48.25543" lon="-3.52083">
        <ele>103</ele>
        <time>2022-06-12T10:32:16Z</time>
      </trkpt>
      <trkpt lat="48.25544" lon="-3.52081">
        <ele>103</ele>
        <time>2022-06-12T10:32:17Z</time>
      </trkpt>
      <trkpt lat="48.25544" lon="-3.52079">
        <ele>103</ele>
        <time>2022-06-12T10:32:18Z</time>
      </trkpt>
      <trkpt lat="48.25545" lon="-3.52078">
        <ele>103</ele>
        <time>2022-06-12T10:32:19Z</time>
      </trkpt>
      <trkpt lat="48.25546" lon="-3.52077">
        <ele>103</ele>
        <time>2022-06-12T10:32:20Z</time>
      </trkpt>
      <trkpt lat="48.25546" lon="-3.52075">
        <ele>103</ele>
        <time>2022-06-12T10:32:21Z</time>
      </trkpt>
      <trkpt lat="48.25547" lon="-3.52072">
        <ele>103</ele>
        <time>2022-06-12T10:32:22Z</time>
      </trkpt>
      <trkpt lat="48.25547" lon="-3.52071">
        <ele>103</ele>
        <time>2022-06-12T10:32:23Z</time>
      </trkpt>
      <trkpt lat="48.25548" lon="-3.5207">
        <ele>103</ele>
        <time>2022-06-12T10:32:24Z</time>
      </trkpt>
      <trkpt lat="48.25548" lon="-3.52068">
        <ele>103</ele>
        <time>2022-06-12T10:32:25Z</time>
      </trkpt>
      <trkpt lat="48.25548" lon="-3.52066">
        <ele>103</ele>
        <time>2022-06-12T10:32:26Z</time>
      </trkpt>
      <trkpt lat="48.25549" lon="-3.52065">
        <ele>103</ele>
        <time>2022-06-12T10:32:27Z</time>
      </trkpt>
      <trkpt lat="48.2555" lon="-3.52062">
        <ele>103.1</ele>
        <time>2022-06-12T10:32:29Z</time>
      </trkpt>
      <trkpt lat="48.2555" lon="-3.5206">
        <ele>103.1</ele>
        <time>2022-06-12T10:32:30Z</time>
      </trkpt>
      <trkpt lat="48.2555" lon="-3.52059">
        <ele>103.1</ele>
        <time>2022-06-12T10:32:31Z</time>
      </trkpt>
      <trkpt lat="48.25551" lon="-3.52058">
        <ele>103.1</ele>
        <time>2022-06-12T10:32:32Z</time>
      </trkpt>
      <trkpt lat="48.25551" lon="-3.52057">
        <ele>103.1</ele>
        <time>2022-06-12T10:32:33Z</time>
      </trkpt>
      <trkpt lat="48.25552" lon="-3.52055">
        <ele>103.1</ele>
        <time>2022-06-12T10:32:34Z</time>
      </trkpt>
      <trkpt lat="48.25552" lon="-3.52054">
        <ele>103.1</ele>
        <time>2022-06-12T10:32:35Z</time>
      </trkpt>
      <trkpt lat="48.25552" lon="-3.52053">
        <ele>103.1</ele>
        <time>2022-06-12T10:32:36Z</time>
      </trkpt>
      <trkpt lat="48.25553" lon="-3.52051">
        <ele>103.1</ele>
        <time>2022-06-12T10:32:38Z</time>
      </trkpt>
      <trkpt lat="48.25553" lon="-3.52049">
        <ele>103.1</ele>
        <time>2022-06-12T10:32:39Z</time>
      </trkpt>
      <trkpt lat="48.25554" lon="-3.52048">
        <ele>103.1</ele>
        <time>2022-06-12T10:32:40Z</time>
      </trkpt>
      <trkpt lat="48.25554" lon="-3.52047">
        <ele>103.1</ele>
        <time>2022-06-12T10:32:41Z</time>
      </trkpt>
      <trkpt lat="48.25554" lon="-3.52045">
        <ele>103.1</ele>
        <time>2022-06-12T10:32:42Z</time>
      </trkpt>
      <trkpt lat="48.25555" lon="-3.52044">
        <ele>103.1</ele>
        <time>2022-06-12T10:32:43Z</time>
      </trkpt>
      <trkpt lat="48.25555" lon="-3.52042">
        <ele>103.1</ele>
        <time>2022-06-12T10:32:44Z</time>
      </trkpt>
      <trkpt lat="48.25555" lon="-3.52039">
        <ele>103.1</ele>
        <time>2022-06-12T10:32:46Z</time>
      </trkpt>
      <trkpt lat="48.25556" lon="-3.52038">
        <ele>103.2</ele>
        <time>2022-06-12T10:32:47Z</time>
      </trkpt>
      <trkpt lat="48.25556" lon="-3.52036">
        <ele>103.2</ele>
        <time>2022-06-12T10:32:48Z</time>
      </trkpt>
      <trkpt lat="48.25556" lon="-3.52035">
        <ele>103.2</ele>
        <time>2022-06-12T10:32:49Z</time>
      </trkpt>
      <trkpt lat="48.25557" lon="-3.52035">
        <ele>103.2</ele>
        <time>2022-06-12T10:32:50Z</time>
      </trkpt>
      <trkpt lat="48.25557" lon="-3.52033">
        <ele>103.2</ele>
        <time>2022-06-12T10:32:51Z</time>
      </trkpt>
      <trkpt lat="48.25557" lon="-3.52031">
        <ele>103.2</ele>
        <time>2022-06-12T10:32:52Z</time>
      </trkpt>
      <trkpt lat="48.25558" lon="-3.5203">
        <ele>103.2</ele>
        <time>2022-06-12T10:32:53Z</time>
      </trkpt>
      <trkpt lat="48.25558" lon="-3.52029">
        <ele>103.2</ele>
        <time>2022-06-12T10:32:55Z</time>
      </trkpt>
      <trkpt lat="48.25558" lon="-3.52029">
        <ele>103.2</ele>
        <time>2022-06-12T10:32:56Z</time>
      </trkpt>
      <trkpt lat="48.25559" lon="-3.52027">
        <ele>103.2</ele>
        <time>2022-06-12T10:32:58Z</time>
      </trkpt>
      <trkpt lat="48.25559" lon="-3.52025">
        <ele>103.2</ele>
        <time>2022-06-12T10:32:59Z</time>
      </trkpt>
      <trkpt lat="48.2556" lon="-3.52024">
        <ele>103.2</ele>
        <time>2022-06-12T10:33:00Z</time>
      </trkpt>
      <trkpt lat="48.2556" lon="-3.52022">
        <ele>103.2</ele>
        <time>2022-06-12T10:33:01Z</time>
      </trkpt>
      <trkpt lat="48.25561" lon="-3.5202">
        <ele>103.2</ele>
        <time>2022-06-12T10:33:02Z</time>
      </trkpt>
      <trkpt lat="48.25561" lon="-3.52019">
        <ele>103.2</ele>
        <time>2022-06-12T10:33:03Z</time>
      </trkpt>
      <trkpt lat="48.25562" lon="-3.52017">
        <ele>103.2</ele>
        <time>2022-06-12T10:33:04Z</time>
      </trkpt>
      <trkpt lat="48.25562" lon="-3.52016">
        <ele>103.2</ele>
        <time>2022-06-12T10:33:05Z</time>
      </trkpt>
      <trkpt lat="48.25562" lon="-3.52014">
        <ele>103.2</ele>
        <time>2022-06-12T10:33:06Z</time>
      </trkpt>
      <trkpt lat="48.25563" lon="-3.52012">
        <ele>103.2</ele>
        <time>2022-06-12T10:33:08Z</time>
      </trkpt>
      <trkpt lat="48.25564" lon="-3.52009">
        <ele>103.2</ele>
        <time>2022-06-12T10:33:09Z</time>
      </trkpt>
      <trkpt lat="48.25564" lon="-3.52008">
        <ele>103.2</ele>
        <time>2022-06-12T10:33:10Z</time>
      </trkpt>
      <trkpt lat="48.25565" lon="-3.52007">
        <ele>103.2</ele>
        <time>2022-06-12T10:33:11Z</time>
      </trkpt>
      <trkpt lat="48.25565" lon="-3.52005">
        <ele>103.2</ele>
        <time>2022-06-12T10:33:12Z</time>
      </trkpt>
      <trkpt lat="48.25566" lon="-3.52003">
        <ele>103.2</ele>
        <time>2022-06-12T10:33:13Z</time>
      </trkpt>
      <trkpt lat="48.25567" lon="-3.52001">
        <ele>103.2</ele>
        <time>2022-06-12T10:33:15Z</time>
      </trkpt>
      <trkpt lat="48.25568" lon="-3.51999">
        <ele>103.2</ele>
        <time>2022-06-12T10:33:16Z</time>
      </trkpt>
      <trkpt lat="48.25569" lon="-3.51996">
        <ele>103.2</ele>
        <time>2022-06-12T10:33:17Z</time>
      </trkpt>
      <trkpt lat="48.2557" lon="-3.51995">
        <ele>103.2</ele>
        <time>2022-06-12T10:33:18Z</time>
      </trkpt>
      <trkpt lat="48.2557" lon="-3.51994">
        <ele>103.2</ele>
        <time>2022-06-12T10:33:19Z</time>
      </trkpt>
      <trkpt lat="48.25571" lon="-3.51991">
        <ele>103.2</ele>
        <time>2022-06-12T10:33:20Z</time>
      </trkpt>
      <trkpt lat="48.25571" lon="-3.5199">
        <ele>103.2</ele>
        <time>2022-06-12T10:33:21Z</time>
      </trkpt>
      <trkpt lat="48.25572" lon="-3.51989">
        <ele>103.2</ele>
        <time>2022-06-12T10:33:22Z</time>
      </trkpt>
      <trkpt lat="48.25572" lon="-3.51987">
        <ele>103.2</ele>
        <time>2022-06-12T10:33:23Z</time>
      </trkpt>
      <trkpt lat="48.25573" lon="-3.51986">
        <ele>103.2</ele>
        <time>2022-06-12T10:33:24Z</time>
      </trkpt>
      <trkpt lat="48.25573" lon="-3.51985">
        <ele>103.2</ele>
        <time>2022-06-12T10:33:25Z</time>
      </trkpt>
      <trkpt lat="48.25573" lon="-3.51983">
        <ele>103.2</ele>
        <time>2022-06-12T10:33:26Z</time>
      </trkpt>
      <trkpt lat="48.25574" lon="-3.51981">
        <ele>103.2</ele>
        <time>2022-06-12T10:33:27Z</time>
      </trkpt>
      <trkpt lat="48.25574" lon="-3.5198">
        <ele>103.2</ele>
        <time>2022-06-12T10:33:28Z</time>
      </trkpt>
      <trkpt lat="48.25574" lon="-3.51979">
        <ele>103.2</ele>
        <time>2022-06-12T10:33:29Z</time>
      </trkpt>
      <trkpt lat="48.25574" lon="-3.51977">
        <ele>103.2</ele>
        <time>2022-06-12T10:33:31Z</time>
      </trkpt>
      <trkpt lat="48.25574" lon="-3.51976">
        <ele>103.2</ele>
        <time>2022-06-12T10:33:32Z</time>
      </trkpt>
      <trkpt lat="48.25574" lon="-3.51975">
        <ele>103.2</ele>
        <time>2022-06-12T10:33:33Z</time>
      </trkpt>
      <trkpt lat="48.25574" lon="-3.51973">
        <ele>103.2</ele>
        <time>2022-06-12T10:33:34Z</time>
      </trkpt>
      <trkpt lat="48.25575" lon="-3.51972">
        <ele>103.2</ele>
        <time>2022-06-12T10:33:35Z</time>
      </trkpt>
      <trkpt lat="48.25575" lon="-3.51969">
        <ele>103.2</ele>
        <time>2022-06-12T10:33:36Z</time>
      </trkpt>
      <trkpt lat="48.25575" lon="-3.51968">
        <ele>103.2</ele>
        <time>2022-06-12T10:33:37Z</time>
      </trkpt>
      <trkpt lat="48.25575" lon="-3.51966">
        <ele>103.2</ele>
        <time>2022-06-12T10:33:38Z</time>
      </trkpt>
      <trkpt lat="48.25576" lon="-3.51963">
        <ele>103.2</ele>
        <time>2022-06-12T10:33:39Z</time>
      </trkpt>
      <trkpt lat="48.25576" lon="-3.51961">
        <ele>103.2</ele>
        <time>2022-06-12T10:33:41Z</time>
      </trkpt>
      <trkpt lat="48.25576" lon="-3.5196">
        <ele>103.2</ele>
        <time>2022-06-12T10:33:42Z</time>
      </trkpt>
      <trkpt lat="48.25577" lon="-3.51958">
        <ele>103.2</ele>
        <time>2022-06-12T10:33:43Z</time>
      </trkpt>
      <trkpt lat="48.25577" lon="-3.51956">
        <ele>103.2</ele>
        <time>2022-06-12T10:33:44Z</time>
      </trkpt>
      <trkpt lat="48.25577" lon="-3.51955">
        <ele>103.2</ele>
        <time>2022-06-12T10:33:45Z</time>
      </trkpt>
      <trkpt lat="48.25578" lon="-3.51953">
        <ele>103.2</ele>
        <time>2022-06-12T10:33:46Z</time>
      </trkpt>
      <trkpt lat="48.25578" lon="-3.5195">
        <ele>103.2</ele>
        <time>2022-06-12T10:33:47Z</time>
      </trkpt>
      <trkpt lat="48.25579" lon="-3.51949">
        <ele>103.2</ele>
        <time>2022-06-12T10:33:48Z</time>
      </trkpt>
      <trkpt lat="48.25579" lon="-3.51948">
        <ele>103.2</ele>
        <time>2022-06-12T10:33:49Z</time>
      </trkpt>
      <trkpt lat="48.2558" lon="-3.51946">
        <ele>103.2</ele>
        <time>2022-06-12T10:33:51Z</time>
      </trkpt>
      <trkpt lat="48.2558" lon="-3.51943">
        <ele>103.2</ele>
        <time>2022-06-12T10:33:52Z</time>
      </trkpt>
      <trkpt lat="48.25581" lon="-3.51942">
        <ele>103.2</ele>
        <time>2022-06-12T10:33:53Z</time>
      </trkpt>
      <trkpt lat="48.25581" lon="-3.51941">
        <ele>103.2</ele>
        <time>2022-06-12T10:33:54Z</time>
      </trkpt>
      <trkpt lat="48.25582" lon="-3.51939">
        <ele>103.2</ele>
        <time>2022-06-12T10:33:55Z</time>
      </trkpt>
      <trkpt lat="48.25582" lon="-3.51938">
        <ele>103.2</ele>
        <time>2022-06-12T10:33:56Z</time>
      </trkpt>
      <trkpt lat="48.25583" lon="-3.51936">
        <ele>103.2</ele>
        <time>2022-06-12T10:33:57Z</time>
      </trkpt>
      <trkpt lat="48.25583" lon="-3.51935">
        <ele>103.2</ele>
        <time>2022-06-12T10:33:58Z</time>
      </trkpt>
      <trkpt lat="48.25583" lon="-3.51933">
        <ele>103.2</ele>
        <time>2022-06-12T10:33:59Z</time>
      </trkpt>
      <trkpt lat="48.25584" lon="-3.51932">
        <ele>103.2</ele>
        <time>2022-06-12T10:34:01Z</time>
      </trkpt>
      <trkpt lat="48.25584" lon="-3.5193">
        <ele>103.2</ele>
        <time>2022-06-12T10:34:02Z</time>
      </trkpt>
      <trkpt lat="48.25585" lon="-3.51928">
        <ele>103.2</ele>
        <time>2022-06-12T10:34:03Z</time>
      </trkpt>
      <trkpt lat="48.25585" lon="-3.51927">
        <ele>103.2</ele>
        <time>2022-06-12T10:34:04Z</time>
      </trkpt>
      <trkpt lat="48.25586" lon="-3.51923">
        <ele>103.2</ele>
        <time>2022-06-12T10:34:05Z</time>
      </trkpt>
      <trkpt lat="48.25586" lon="-3.51922">
        <ele>103.2</ele>
        <time>2022-06-12T10:34:06Z</time>
      </trkpt>
      <trkpt lat="48.25586" lon="-3.51921">
        <ele>103.2</ele>
        <time>2022-06-12T10:34:07Z</time>
      </trkpt>
      <trkpt lat="48.25587" lon="-3.51918">
        <ele>103.2</ele>
        <time>2022-06-12T10:34:08Z</time>
      </trkpt>
      <trkpt lat="48.25587" lon="-3.51917">
        <ele>103.2</ele>
        <time>2022-06-12T10:34:09Z</time>
      </trkpt>
      <trkpt lat="48.25587" lon="-3.51915">
        <ele>103.2</ele>
        <time>2022-06-12T10:34:10Z</time>
      </trkpt>
      <trkpt lat="48.25588" lon="-3.51912">
        <ele>103.2</ele>
        <time>2022-06-12T10:34:12Z</time>
      </trkpt>
      <trkpt lat="48.25588" lon="-3.51911">
        <ele>103.1</ele>
        <time>2022-06-12T10:34:13Z</time>
      </trkpt>
      <trkpt lat="48.25589" lon="-3.51908">
        <ele>103.1</ele>
        <time>2022-06-12T10:34:14Z</time>
      </trkpt>
      <trkpt lat="48.25589" lon="-3.51906">
        <ele>103.1</ele>
        <time>2022-06-12T10:34:16Z</time>
      </trkpt>
      <trkpt lat="48.25589" lon="-3.51904">
        <ele>103.1</ele>
        <time>2022-06-12T10:34:17Z</time>
      </trkpt>
      <trkpt lat="48.2559" lon="-3.51903">
        <ele>103.1</ele>
        <time>2022-06-12T10:34:18Z</time>
      </trkpt>
      <trkpt lat="48.2559" lon="-3.51901">
        <ele>103.1</ele>
        <time>2022-06-12T10:34:19Z</time>
      </trkpt>
      <trkpt lat="48.25591" lon="-3.51898">
        <ele>103.1</ele>
        <time>2022-06-12T10:34:20Z</time>
      </trkpt>
      <trkpt lat="48.25591" lon="-3.51897">
        <ele>103.1</ele>
        <time>2022-06-12T10:34:21Z</time>
      </trkpt>
      <trkpt lat="48.25592" lon="-3.51896">
        <ele>103.1</ele>
        <time>2022-06-12T10:34:22Z</time>
      </trkpt>
      <trkpt lat="48.25593" lon="-3.51893">
        <ele>103.1</ele>
        <time>2022-06-12T10:34:23Z</time>
      </trkpt>
      <trkpt lat="48.25594" lon="-3.51891">
        <ele>103.1</ele>
        <time>2022-06-12T10:34:25Z</time>
      </trkpt>
      <trkpt lat="48.25594" lon="-3.51889">
        <ele>103.1</ele>
        <time>2022-06-12T10:34:27Z</time>
      </trkpt>
      <trkpt lat="48.25595" lon="-3.51887">
        <ele>103.1</ele>
        <time>2022-06-12T10:34:28Z</time>
      </trkpt>
      <trkpt lat="48.25596" lon="-3.51884">
        <ele>103.1</ele>
        <time>2022-06-12T10:34:29Z</time>
      </trkpt>
      <trkpt lat="48.25597" lon="-3.51883">
        <ele>103.1</ele>
        <time>2022-06-12T10:34:30Z</time>
      </trkpt>
      <trkpt lat="48.25597" lon="-3.51881">
        <ele>103.1</ele>
        <time>2022-06-12T10:34:31Z</time>
      </trkpt>
      <trkpt lat="48.25598" lon="-3.5188">
        <ele>103.1</ele>
        <time>2022-06-12T10:34:32Z</time>
      </trkpt>
      <trkpt lat="48.25598" lon="-3.51878">
        <ele>103.1</ele>
        <time>2022-06-12T10:34:33Z</time>
      </trkpt>
      <trkpt lat="48.25599" lon="-3.51876">
        <ele>103.1</ele>
        <time>2022-06-12T10:34:35Z</time>
      </trkpt>
      <trkpt lat="48.256" lon="-3.51874">
        <ele>103.1</ele>
        <time>2022-06-12T10:34:36Z</time>
      </trkpt>
      <trkpt lat="48.256" lon="-3.51873">
        <ele>103.1</ele>
        <time>2022-06-12T10:34:37Z</time>
      </trkpt>
      <trkpt lat="48.25601" lon="-3.51871">
        <ele>103.1</ele>
        <time>2022-06-12T10:34:38Z</time>
      </trkpt>
      <trkpt lat="48.25602" lon="-3.51867">
        <ele>103.1</ele>
        <time>2022-06-12T10:34:39Z</time>
      </trkpt>
      <trkpt lat="48.25602" lon="-3.51866">
        <ele>103.1</ele>
        <time>2022-06-12T10:34:40Z</time>
      </trkpt>
      <trkpt lat="48.25602" lon="-3.51864">
        <ele>103.1</ele>
        <time>2022-06-12T10:34:41Z</time>
      </trkpt>
      <trkpt lat="48.25603" lon="-3.51862">
        <ele>103.1</ele>
        <time>2022-06-12T10:34:43Z</time>
      </trkpt>
      <trkpt lat="48.25603" lon="-3.5186">
        <ele>103.1</ele>
        <time>2022-06-12T10:34:44Z</time>
      </trkpt>
      <trkpt lat="48.25603" lon="-3.51859">
        <ele>103.1</ele>
        <time>2022-06-12T10:34:45Z</time>
      </trkpt>
      <trkpt lat="48.25603" lon="-3.51854">
        <ele>103.1</ele>
        <time>2022-06-12T10:34:47Z</time>
      </trkpt>
      <trkpt lat="48.25603" lon="-3.51853">
        <ele>103.1</ele>
        <time>2022-06-12T10:34:48Z</time>
      </trkpt>
      <trkpt lat="48.25603" lon="-3.51852">
        <ele>103.1</ele>
        <time>2022-06-12T10:34:49Z</time>
      </trkpt>
      <trkpt lat="48.25602" lon="-3.51851">
        <ele>103.1</ele>
        <time>2022-06-12T10:34:50Z</time>
      </trkpt>
      <trkpt lat="48.25602" lon="-3.5185">
        <ele>103.1</ele>
        <time>2022-06-12T10:34:51Z</time>
      </trkpt>
      <trkpt lat="48.25602" lon="-3.51848">
        <ele>103.1</ele>
        <time>2022-06-12T10:34:52Z</time>
      </trkpt>
      <trkpt lat="48.25602" lon="-3.51847">
        <ele>103.1</ele>
        <time>2022-06-12T10:34:53Z</time>
      </trkpt>
      <trkpt lat="48.25603" lon="-3.51845">
        <ele>103.1</ele>
        <time>2022-06-12T10:34:54Z</time>
      </trkpt>
      <trkpt lat="48.25603" lon="-3.51843">
        <ele>103.1</ele>
        <time>2022-06-12T10:34:55Z</time>
      </trkpt>
      <trkpt lat="48.25603" lon="-3.51841">
        <ele>103.1</ele>
        <time>2022-06-12T10:34:56Z</time>
      </trkpt>
      <trkpt lat="48.25603" lon="-3.51838">
        <ele>103.2</ele>
        <time>2022-06-12T10:34:57Z</time>
      </trkpt>
      <trkpt lat="48.25604" lon="-3.51836">
        <ele>103.2</ele>
        <time>2022-06-12T10:34:59Z</time>
      </trkpt>
      <trkpt lat="48.25604" lon="-3.51835">
        <ele>103.2</ele>
        <time>2022-06-12T10:35:00Z</time>
      </trkpt>
      <trkpt lat="48.25604" lon="-3.51833">
        <ele>103.2</ele>
        <time>2022-06-12T10:35:01Z</time>
      </trkpt>
      <trkpt lat="48.25604" lon="-3.51831">
        <ele>103.2</ele>
        <time>2022-06-12T10:35:02Z</time>
      </trkpt>
      <trkpt lat="48.25604" lon="-3.5183">
        <ele>103.2</ele>
        <time>2022-06-12T10:35:03Z</time>
      </trkpt>
      <trkpt lat="48.25605" lon="-3.51829">
        <ele>103.2</ele>
        <time>2022-06-12T10:35:04Z</time>
      </trkpt>
      <trkpt lat="48.25605" lon="-3.51827">
        <ele>103.2</ele>
        <time>2022-06-12T10:35:06Z</time>
      </trkpt>
      <trkpt lat="48.25606" lon="-3.51825">
        <ele>103.2</ele>
        <time>2022-06-12T10:35:07Z</time>
      </trkpt>
      <trkpt lat="48.25607" lon="-3.51825">
        <ele>103.2</ele>
        <time>2022-06-12T10:35:08Z</time>
      </trkpt>
      <trkpt lat="48.25607" lon="-3.51824">
        <ele>103.2</ele>
        <time>2022-06-12T10:35:09Z</time>
      </trkpt>
      <trkpt lat="48.25608" lon="-3.51823">
        <ele>103.2</ele>
        <time>2022-06-12T10:35:10Z</time>
      </trkpt>
      <trkpt lat="48.25608" lon="-3.51824">
        <ele>103.2</ele>
        <time>2022-06-12T10:35:11Z</time>
      </trkpt>
      <trkpt lat="48.25608" lon="-3.51826">
        <ele>103.2</ele>
        <time>2022-06-12T10:35:12Z</time>
      </trkpt>
      <trkpt lat="48.25608" lon="-3.51825">
        <ele>103.2</ele>
        <time>2022-06-12T10:35:13Z</time>
      </trkpt>
      <trkpt lat="48.25608" lon="-3.51824">
        <ele>103.2</ele>
        <time>2022-06-12T10:35:14Z</time>
      </trkpt>
      <trkpt lat="48.25609" lon="-3.51823">
        <ele>103.2</ele>
        <time>2022-06-12T10:35:16Z</time>
      </trkpt>
      <trkpt lat="48.25609" lon="-3.51823">
        <ele>103.2</ele>
        <time>2022-06-12T10:35:17Z</time>
      </trkpt>
      <trkpt lat="48.25609" lon="-3.51821">
        <ele>103.2</ele>
        <time>2022-06-12T10:35:18Z</time>
      </trkpt>
      <trkpt lat="48.2561" lon="-3.51817">
        <ele>103.2</ele>
        <time>2022-06-12T10:35:20Z</time>
      </trkpt>
      <trkpt lat="48.2561" lon="-3.51815">
        <ele>103.2</ele>
        <time>2022-06-12T10:35:21Z</time>
      </trkpt>
      <trkpt lat="48.25611" lon="-3.51809">
        <ele>103.2</ele>
        <time>2022-06-12T10:35:23Z</time>
      </trkpt>
      <trkpt lat="48.25612" lon="-3.51808">
        <ele>103.2</ele>
        <time>2022-06-12T10:35:24Z</time>
      </trkpt>
      <trkpt lat="48.25612" lon="-3.51806">
        <ele>103.2</ele>
        <time>2022-06-12T10:35:25Z</time>
      </trkpt>
      <trkpt lat="48.25612" lon="-3.51805">
        <ele>103.2</ele>
        <time>2022-06-12T10:35:26Z</time>
      </trkpt>
      <trkpt lat="48.25613" lon="-3.51801">
        <ele>103.2</ele>
        <time>2022-06-12T10:35:27Z</time>
      </trkpt>
      <trkpt lat="48.25614" lon="-3.518">
        <ele>103.2</ele>
        <time>2022-06-12T10:35:28Z</time>
      </trkpt>
      <trkpt lat="48.25614" lon="-3.51797">
        <ele>103.2</ele>
        <time>2022-06-12T10:35:29Z</time>
      </trkpt>
      <trkpt lat="48.25615" lon="-3.51796">
        <ele>103.2</ele>
        <time>2022-06-12T10:35:31Z</time>
      </trkpt>
      <trkpt lat="48.25615" lon="-3.51795">
        <ele>103.2</ele>
        <time>2022-06-12T10:35:32Z</time>
      </trkpt>
      <trkpt lat="48.25616" lon="-3.51792">
        <ele>103.2</ele>
        <time>2022-06-12T10:35:33Z</time>
      </trkpt>
      <trkpt lat="48.25616" lon="-3.51791">
        <ele>103.2</ele>
        <time>2022-06-12T10:35:34Z</time>
      </trkpt>
      <trkpt lat="48.25616" lon="-3.5179">
        <ele>103.2</ele>
        <time>2022-06-12T10:35:35Z</time>
      </trkpt>
      <trkpt lat="48.25617" lon="-3.51787">
        <ele>103.2</ele>
        <time>2022-06-12T10:35:36Z</time>
      </trkpt>
      <trkpt lat="48.25618" lon="-3.51786">
        <ele>103.2</ele>
        <time>2022-06-12T10:35:37Z</time>
      </trkpt>
      <trkpt lat="48.25618" lon="-3.51785">
        <ele>103.2</ele>
        <time>2022-06-12T10:35:38Z</time>
      </trkpt>
      <trkpt lat="48.25619" lon="-3.51782">
        <ele>103.2</ele>
        <time>2022-06-12T10:35:40Z</time>
      </trkpt>
      <trkpt lat="48.25619" lon="-3.51781">
        <ele>103.2</ele>
        <time>2022-06-12T10:35:41Z</time>
      </trkpt>
      <trkpt lat="48.25619" lon="-3.51779">
        <ele>103.2</ele>
        <time>2022-06-12T10:35:42Z</time>
      </trkpt>
      <trkpt lat="48.25619" lon="-3.51778">
        <ele>103.2</ele>
        <time>2022-06-12T10:35:43Z</time>
      </trkpt>
      <trkpt lat="48.2562" lon="-3.51781">
        <ele>103.2</ele>
        <time>2022-06-12T10:35:44Z</time>
      </trkpt>
      <trkpt lat="48.2562" lon="-3.51784">
        <ele>103.2</ele>
        <time>2022-06-12T10:35:45Z</time>
      </trkpt>
      <trkpt lat="48.2562" lon="-3.51785">
        <ele>103.2</ele>
        <time>2022-06-12T10:35:46Z</time>
      </trkpt>
      <trkpt lat="48.2562" lon="-3.51786">
        <ele>103.2</ele>
        <time>2022-06-12T10:35:47Z</time>
      </trkpt>
      <trkpt lat="48.2562" lon="-3.51786">
        <ele>103.2</ele>
        <time>2022-06-12T10:35:48Z</time>
      </trkpt>
      <trkpt lat="48.2562" lon="-3.51786">
        <ele>103.2</ele>
        <time>2022-06-12T10:35:49Z</time>
      </trkpt>
      <trkpt lat="48.25621" lon="-3.51786">
        <ele>103.2</ele>
        <time>2022-06-12T10:35:50Z</time>
      </trkpt>
      <trkpt lat="48.25621" lon="-3.51786">
        <ele>103.2</ele>
        <time>2022-06-12T10:35:51Z</time>
      </trkpt>
      <trkpt lat="48.25621" lon="-3.51786">
        <ele>103.2</ele>
        <time>2022-06-12T10:35:52Z</time>
      </trkpt>
      <trkpt lat="48.25621" lon="-3.51786">
        <ele>103.2</ele>
        <time>2022-06-12T10:35:53Z</time>
      </trkpt>
      <trkpt lat="48.25621" lon="-3.51786">
        <ele>103.2</ele>
        <time>2022-06-12T10:35:54Z</time>
      </trkpt>
      <trkpt lat="48.25621" lon="-3.51787">
        <ele>103.2</ele>
        <time>2022-06-12T10:35:55Z</time>
      </trkpt>
      <trkpt lat="48.25621" lon="-3.51787">
        <ele>103.2</ele>
        <time>2022-06-12T10:35:56Z</time>
      </trkpt>
      <trkpt lat="48.25621" lon="-3.51787">
        <ele>103.2</ele>
        <time>2022-06-12T10:35:57Z</time>
      </trkpt>
      <trkpt lat="48.25621" lon="-3.51787">
        <ele>103.2</ele>
        <time>2022-06-12T10:35:58Z</time>
      </trkpt>
      <trkpt lat="48.25621" lon="-3.51787">
        <ele>103.2</ele>
        <time>2022-06-12T10:35:59Z</time>
      </trkpt>
      <trkpt lat="48.25621" lon="-3.51787">
        <ele>103.2</ele>
        <time>2022-06-12T10:36:00Z</time>
      </trkpt>
      <trkpt lat="48.25621" lon="-3.51787">
        <ele>103.2</ele>
        <time>2022-06-12T10:36:01Z</time>
      </trkpt>
      <trkpt lat="48.25621" lon="-3.51788">
        <ele>103.2</ele>
        <time>2022-06-12T10:36:02Z</time>
      </trkpt>
      <trkpt lat="48.25621" lon="-3.51788">
        <ele>103.2</ele>
        <time>2022-06-12T10:36:03Z</time>
      </trkpt>
      <trkpt lat="48.25621" lon="-3.51788">
        <ele>103.2</ele>
        <time>2022-06-12T10:36:04Z</time>
      </trkpt>
      <trkpt lat="48.25621" lon="-3.51788">
        <ele>103.2</ele>
        <time>2022-06-12T10:36:05Z</time>
      </trkpt>
      <trkpt lat="48.25621" lon="-3.51788">
        <ele>103.2</ele>
        <time>2022-06-12T10:36:06Z</time>
      </trkpt>
      <trkpt lat="48.25621" lon="-3.51788">
        <ele>103.2</ele>
        <time>2022-06-12T10:36:07Z</time>
      </trkpt>
      <trkpt lat="48.25621" lon="-3.51788">
        <ele>103.2</ele>
        <time>2022-06-12T10:36:08Z</time>
      </trkpt>
      <trkpt lat="48.25621" lon="-3.51788">
        <ele>103.2</ele>
        <time>2022-06-12T10:36:09Z</time>
      </trkpt>
      <trkpt lat="48.25621" lon="-3.51788">
        <ele>103.2</ele>
        <time>2022-06-12T10:36:10Z</time>
      </trkpt>
      <trkpt lat="48.25621" lon="-3.51788">
        <ele>103.2</ele>
        <time>2022-06-12T10:36:11Z</time>
      </trkpt>
      <trkpt lat="48.25621" lon="-3.51788">
        <ele>103.2</ele>
        <time>2022-06-12T10:36:12Z</time>
      </trkpt>
      <trkpt lat="48.25621" lon="-3.51788">
        <ele>103.2</ele>
        <time>2022-06-12T10:36:13Z</time>
      </trkpt>
      <trkpt lat="48.25621" lon="-3.51786">
        <ele>103.2</ele>
        <time>2022-06-12T10:36:14Z</time>
      </trkpt>
      <trkpt lat="48.25621" lon="-3.51784">
        <ele>103.2</ele>
        <time>2022-06-12T10:36:15Z</time>
      </trkpt>
      <trkpt lat="48.25622" lon="-3.51783">
        <ele>103.2</ele>
        <time>2022-06-12T10:36:16Z</time>
      </trkpt>
      <trkpt lat="48.25622" lon="-3.51781">
        <ele>103.2</ele>
        <time>2022-06-12T10:36:18Z</time>
      </trkpt>
      <trkpt lat="48.25622" lon="-3.51781">
        <ele>103.2</ele>
        <time>2022-06-12T10:36:19Z</time>
      </trkpt>
      <trkpt lat="48.25622" lon="-3.51779">
        <ele>103.2</ele>
        <time>2022-06-12T10:36:20Z</time>
      </trkpt>
      <trkpt lat="48.25622" lon="-3.51778">
        <ele>103.1</ele>
        <time>2022-06-12T10:36:21Z</time>
      </trkpt>
      <trkpt lat="48.25623" lon="-3.51774">
        <ele>103.1</ele>
        <time>2022-06-12T10:36:23Z</time>
      </trkpt>
      <trkpt lat="48.25623" lon="-3.51772">
        <ele>103.1</ele>
        <time>2022-06-12T10:36:24Z</time>
      </trkpt>
      <trkpt lat="48.25624" lon="-3.51771">
        <ele>103.1</ele>
        <time>2022-06-12T10:36:25Z</time>
      </trkpt>
      <trkpt lat="48.25624" lon="-3.51771">
        <ele>103.1</ele>
        <time>2022-06-12T10:36:26Z</time>
      </trkpt>
      <trkpt lat="48.25625" lon="-3.51771">
        <ele>103.1</ele>
        <time>2022-06-12T10:36:27Z</time>
      </trkpt>
      <trkpt lat="48.25625" lon="-3.51771">
        <ele>103.1</ele>
        <time>2022-06-12T10:36:28Z</time>
      </trkpt>
      <trkpt lat="48.25624" lon="-3.51771">
        <ele>103.1</ele>
        <time>2022-06-12T10:36:29Z</time>
      </trkpt>
      <trkpt lat="48.25623" lon="-3.5177">
        <ele>103.1</ele>
        <time>2022-06-12T10:36:30Z</time>
      </trkpt>
      <trkpt lat="48.25622" lon="-3.51769">
        <ele>103.1</ele>
        <time>2022-06-12T10:36:31Z</time>
      </trkpt>
      <trkpt lat="48.25622" lon="-3.51767">
        <ele>103.1</ele>
        <time>2022-06-12T10:36:32Z</time>
      </trkpt>
      <trkpt lat="48.25622" lon="-3.51764">
        <ele>103.1</ele>
        <time>2022-06-12T10:36:33Z</time>
      </trkpt>
      <trkpt lat="48.25622" lon="-3.51762">
        <ele>103.1</ele>
        <time>2022-06-12T10:36:34Z</time>
      </trkpt>
      <trkpt lat="48.25622" lon="-3.5176">
        <ele>103.1</ele>
        <time>2022-06-12T10:36:35Z</time>
      </trkpt>
      <trkpt lat="48.25622" lon="-3.51758">
        <ele>103.1</ele>
        <time>2022-06-12T10:36:36Z</time>
      </trkpt>
      <trkpt lat="48.25624" lon="-3.51753">
        <ele>103.1</ele>
        <time>2022-06-12T10:36:38Z</time>
      </trkpt>
      <trkpt lat="48.25625" lon="-3.51749">
        <ele>103.1</ele>
        <time>2022-06-12T10:36:40Z</time>
      </trkpt>
      <trkpt lat="48.25626" lon="-3.51747">
        <ele>103.1</ele>
        <time>2022-06-12T10:36:41Z</time>
      </trkpt>
      <trkpt lat="48.25627" lon="-3.51745">
        <ele>103.1</ele>
        <time>2022-06-12T10:36:42Z</time>
      </trkpt>
      <trkpt lat="48.25628" lon="-3.51742">
        <ele>103.1</ele>
        <time>2022-06-12T10:36:43Z</time>
      </trkpt>
      <trkpt lat="48.25629" lon="-3.51741">
        <ele>103.1</ele>
        <time>2022-06-12T10:36:44Z</time>
      </trkpt>
      <trkpt lat="48.2563" lon="-3.51739">
        <ele>103.1</ele>
        <time>2022-06-12T10:36:45Z</time>
      </trkpt>
      <trkpt lat="48.25631" lon="-3.51739">
        <ele>103.1</ele>
        <time>2022-06-12T10:36:46Z</time>
      </trkpt>
      <trkpt lat="48.25632" lon="-3.51738">
        <ele>103.1</ele>
        <time>2022-06-12T10:36:47Z</time>
      </trkpt>
      <trkpt lat="48.25633" lon="-3.51734">
        <ele>103.1</ele>
        <time>2022-06-12T10:36:48Z</time>
      </trkpt>
      <trkpt lat="48.25634" lon="-3.51732">
        <ele>103.1</ele>
        <time>2022-06-12T10:36:49Z</time>
      </trkpt>
      <trkpt lat="48.25634" lon="-3.5173">
        <ele>103.1</ele>
        <time>2022-06-12T10:36:50Z</time>
      </trkpt>
      <trkpt lat="48.25635" lon="-3.51729">
        <ele>103.1</ele>
        <time>2022-06-12T10:36:52Z</time>
      </trkpt>
      <trkpt lat="48.25635" lon="-3.51728">
        <ele>103.1</ele>
        <time>2022-06-12T10:36:53Z</time>
      </trkpt>
      <trkpt lat="48.25635" lon="-3.51727">
        <ele>103.1</ele>
        <time>2022-06-12T10:36:54Z</time>
      </trkpt>
      <trkpt lat="48.25636" lon="-3.51724">
        <ele>103.1</ele>
        <time>2022-06-12T10:36:55Z</time>
      </trkpt>
      <trkpt lat="48.25636" lon="-3.51722">
        <ele>103.1</ele>
        <time>2022-06-12T10:36:56Z</time>
      </trkpt>
      <trkpt lat="48.25637" lon="-3.51719">
        <ele>103.1</ele>
        <time>2022-06-12T10:36:57Z</time>
      </trkpt>
      <trkpt lat="48.25638" lon="-3.51718">
        <ele>103.1</ele>
        <time>2022-06-12T10:36:58Z</time>
      </trkpt>
      <trkpt lat="48.25639" lon="-3.51717">
        <ele>103.1</ele>
        <time>2022-06-12T10:36:59Z</time>
      </trkpt>
      <trkpt lat="48.25639" lon="-3.51717">
        <ele>103.1</ele>
        <time>2022-06-12T10:37:00Z</time>
      </trkpt>
      <trkpt lat="48.25639" lon="-3.51716">
        <ele>103.1</ele>
        <time>2022-06-12T10:37:01Z</time>
      </trkpt>
      <trkpt lat="48.2564" lon="-3.51714">
        <ele>103.1</ele>
        <time>2022-06-12T10:37:02Z</time>
      </trkpt>
      <trkpt lat="48.2564" lon="-3.51712">
        <ele>103.1</ele>
        <time>2022-06-12T10:37:04Z</time>
      </trkpt>
      <trkpt lat="48.25641" lon="-3.5171">
        <ele>103.1</ele>
        <time>2022-06-12T10:37:05Z</time>
      </trkpt>
      <trkpt lat="48.25641" lon="-3.51708">
        <ele>103.1</ele>
        <time>2022-06-12T10:37:06Z</time>
      </trkpt>
      <trkpt lat="48.25641" lon="-3.51707">
        <ele>103.1</ele>
        <time>2022-06-12T10:37:07Z</time>
      </trkpt>
      <trkpt lat="48.25642" lon="-3.51704">
        <ele>103.1</ele>
        <time>2022-06-12T10:37:08Z</time>
      </trkpt>
      <trkpt lat="48.25643" lon="-3.51701">
        <ele>103.1</ele>
        <time>2022-06-12T10:37:09Z</time>
      </trkpt>
      <trkpt lat="48.25644" lon="-3.517">
        <ele>103.1</ele>
        <time>2022-06-12T10:37:10Z</time>
      </trkpt>
      <trkpt lat="48.25645" lon="-3.51697">
        <ele>103.1</ele>
        <time>2022-06-12T10:37:11Z</time>
      </trkpt>
      <trkpt lat="48.25645" lon="-3.51696">
        <ele>103.1</ele>
        <time>2022-06-12T10:37:12Z</time>
      </trkpt>
      <trkpt lat="48.25646" lon="-3.51695">
        <ele>103.1</ele>
        <time>2022-06-12T10:37:13Z</time>
      </trkpt>
      <trkpt lat="48.25647" lon="-3.51691">
        <ele>103.1</ele>
        <time>2022-06-12T10:37:15Z</time>
      </trkpt>
      <trkpt lat="48.25647" lon="-3.5169">
        <ele>103.1</ele>
        <time>2022-06-12T10:37:16Z</time>
      </trkpt>
      <trkpt lat="48.25648" lon="-3.51688">
        <ele>103.1</ele>
        <time>2022-06-12T10:37:17Z</time>
      </trkpt>
      <trkpt lat="48.25648" lon="-3.51686">
        <ele>103.1</ele>
        <time>2022-06-12T10:37:18Z</time>
      </trkpt>
      <trkpt lat="48.2565" lon="-3.51682">
        <ele>103.2</ele>
        <time>2022-06-12T10:37:19Z</time>
      </trkpt>
      <trkpt lat="48.2565" lon="-3.5168">
        <ele>103.2</ele>
        <time>2022-06-12T10:37:20Z</time>
      </trkpt>
      <trkpt lat="48.25651" lon="-3.51677">
        <ele>103.2</ele>
        <time>2022-06-12T10:37:22Z</time>
      </trkpt>
      <trkpt lat="48.25651" lon="-3.51675">
        <ele>103.2</ele>
        <time>2022-06-12T10:37:23Z</time>
      </trkpt>
      <trkpt lat="48.25652" lon="-3.51674">
        <ele>103.2</ele>
        <time>2022-06-12T10:37:24Z</time>
      </trkpt>
      <trkpt lat="48.25653" lon="-3.51671">
        <ele>103.2</ele>
        <time>2022-06-12T10:37:25Z</time>
      </trkpt>
      <trkpt lat="48.25653" lon="-3.5167">
        <ele>103.2</ele>
        <time>2022-06-12T10:37:26Z</time>
      </trkpt>
      <trkpt lat="48.25654" lon="-3.51669">
        <ele>103.2</ele>
        <time>2022-06-12T10:37:27Z</time>
      </trkpt>
      <trkpt lat="48.25654" lon="-3.51668">
        <ele>103.2</ele>
        <time>2022-06-12T10:37:28Z</time>
      </trkpt>
      <trkpt lat="48.25655" lon="-3.51665">
        <ele>103.2</ele>
        <time>2022-06-12T10:37:30Z</time>
      </trkpt>
      <trkpt lat="48.25656" lon="-3.51664">
        <ele>103.2</ele>
        <time>2022-06-12T10:37:31Z</time>
      </trkpt>
      <trkpt lat="48.25656" lon="-3.51661">
        <ele>103.2</ele>
        <time>2022-06-12T10:37:32Z</time>
      </trkpt>
      <trkpt lat="48.25657" lon="-3.5166">
        <ele>103.2</ele>
        <time>2022-06-12T10:37:33Z</time>
      </trkpt>
      <trkpt lat="48.25657" lon="-3.51658">
        <ele>103.2</ele>
        <time>2022-06-12T10:37:34Z</time>
      </trkpt>
      <trkpt lat="48.25657" lon="-3.51656">
        <ele>103.2</ele>
        <time>2022-06-12T10:37:36Z</time>
      </trkpt>
      <trkpt lat="48.25657" lon="-3.51655">
        <ele>103.3</ele>
        <time>2022-06-12T10:37:37Z</time>
      </trkpt>
      <trkpt lat="48.25658" lon="-3.51654">
        <ele>103.3</ele>
        <time>2022-06-12T10:37:38Z</time>
      </trkpt>
      <trkpt lat="48.25658" lon="-3.51653">
        <ele>103.3</ele>
        <time>2022-06-12T10:37:39Z</time>
      </trkpt>
      <trkpt lat="48.25658" lon="-3.51651">
        <ele>103.3</ele>
        <time>2022-06-12T10:37:40Z</time>
      </trkpt>
      <trkpt lat="48.25659" lon="-3.5165">
        <ele>103.3</ele>
        <time>2022-06-12T10:37:41Z</time>
      </trkpt>
      <trkpt lat="48.25659" lon="-3.51648">
        <ele>103.3</ele>
        <time>2022-06-12T10:37:43Z</time>
      </trkpt>
      <trkpt lat="48.2566" lon="-3.51646">
        <ele>103.3</ele>
        <time>2022-06-12T10:37:44Z</time>
      </trkpt>
      <trkpt lat="48.2566" lon="-3.51644">
        <ele>103.3</ele>
        <time>2022-06-12T10:37:45Z</time>
      </trkpt>
      <trkpt lat="48.25661" lon="-3.51643">
        <ele>103.3</ele>
        <time>2022-06-12T10:37:46Z</time>
      </trkpt>
      <trkpt lat="48.25661" lon="-3.5164">
        <ele>103.3</ele>
        <time>2022-06-12T10:37:48Z</time>
      </trkpt>
      <trkpt lat="48.25662" lon="-3.51638">
        <ele>103.3</ele>
        <time>2022-06-12T10:37:49Z</time>
      </trkpt>
      <trkpt lat="48.25662" lon="-3.51636">
        <ele>103.3</ele>
        <time>2022-06-12T10:37:50Z</time>
      </trkpt>
      <trkpt lat="48.25663" lon="-3.51634">
        <ele>103.3</ele>
        <time>2022-06-12T10:37:51Z</time>
      </trkpt>
      <trkpt lat="48.25663" lon="-3.51632">
        <ele>103.3</ele>
        <time>2022-06-12T10:37:52Z</time>
      </trkpt>
      <trkpt lat="48.25663" lon="-3.51631">
        <ele>103.3</ele>
        <time>2022-06-12T10:37:53Z</time>
      </trkpt>
      <trkpt lat="48.25664" lon="-3.51628">
        <ele>103.4</ele>
        <time>2022-06-12T10:37:55Z</time>
      </trkpt>
      <trkpt lat="48.25664" lon="-3.51626">
        <ele>103.4</ele>
        <time>2022-06-12T10:37:56Z</time>
      </trkpt>
      <trkpt lat="48.25664" lon="-3.51625">
        <ele>103.4</ele>
        <time>2022-06-12T10:37:57Z</time>
      </trkpt>
      <trkpt lat="48.25665" lon="-3.51625">
        <ele>103.4</ele>
        <time>2022-06-12T10:37:58Z</time>
      </trkpt>
      <trkpt lat="48.25665" lon="-3.51624">
        <ele>103.4</ele>
        <time>2022-06-12T10:37:59Z</time>
      </trkpt>
      <trkpt lat="48.25666" lon="-3.51623">
        <ele>103.4</ele>
        <time>2022-06-12T10:38:00Z</time>
      </trkpt>
      <trkpt lat="48.25666" lon="-3.51622">
        <ele>103.4</ele>
        <time>2022-06-12T10:38:01Z</time>
      </trkpt>
      <trkpt lat="48.25667" lon="-3.5162">
        <ele>103.4</ele>
        <time>2022-06-12T10:38:02Z</time>
      </trkpt>
      <trkpt lat="48.25667" lon="-3.51619">
        <ele>103.4</ele>
        <time>2022-06-12T10:38:03Z</time>
      </trkpt>
      <trkpt lat="48.25668" lon="-3.51615">
        <ele>103.5</ele>
        <time>2022-06-12T10:38:04Z</time>
      </trkpt>
      <trkpt lat="48.25669" lon="-3.51614">
        <ele>103.5</ele>
        <time>2022-06-12T10:38:05Z</time>
      </trkpt>
      <trkpt lat="48.25669" lon="-3.51612">
        <ele>103.5</ele>
        <time>2022-06-12T10:38:07Z</time>
      </trkpt>
      <trkpt lat="48.2567" lon="-3.51611">
        <ele>103.5</ele>
        <time>2022-06-12T10:38:08Z</time>
      </trkpt>
      <trkpt lat="48.2567" lon="-3.5161">
        <ele>103.5</ele>
        <time>2022-06-12T10:38:09Z</time>
      </trkpt>
      <trkpt lat="48.2567" lon="-3.51609">
        <ele>103.5</ele>
        <time>2022-06-12T10:38:10Z</time>
      </trkpt>
      <trkpt lat="48.25671" lon="-3.51606">
        <ele>103.6</ele>
        <time>2022-06-12T10:38:11Z</time>
      </trkpt>
      <trkpt lat="48.25672" lon="-3.51605">
        <ele>103.6</ele>
        <time>2022-06-12T10:38:12Z</time>
      </trkpt>
      <trkpt lat="48.25672" lon="-3.51603">
        <ele>103.6</ele>
        <time>2022-06-12T10:38:13Z</time>
      </trkpt>
      <trkpt lat="48.25673" lon="-3.51601">
        <ele>103.6</ele>
        <time>2022-06-12T10:38:14Z</time>
      </trkpt>
      <trkpt lat="48.25674" lon="-3.516">
        <ele>103.6</ele>
        <time>2022-06-12T10:38:16Z</time>
      </trkpt>
      <trkpt lat="48.25674" lon="-3.51598">
        <ele>103.7</ele>
        <time>2022-06-12T10:38:17Z</time>
      </trkpt>
      <trkpt lat="48.25674" lon="-3.51596">
        <ele>103.7</ele>
        <time>2022-06-12T10:38:18Z</time>
      </trkpt>
      <trkpt lat="48.25675" lon="-3.51595">
        <ele>103.7</ele>
        <time>2022-06-12T10:38:19Z</time>
      </trkpt>
      <trkpt lat="48.25675" lon="-3.51593">
        <ele>103.7</ele>
        <time>2022-06-12T10:38:20Z</time>
      </trkpt>
      <trkpt lat="48.25676" lon="-3.51592">
        <ele>103.7</ele>
        <time>2022-06-12T10:38:21Z</time>
      </trkpt>
      <trkpt lat="48.25676" lon="-3.5159">
        <ele>103.8</ele>
        <time>2022-06-12T10:38:22Z</time>
      </trkpt>
      <trkpt lat="48.25677" lon="-3.51588">
        <ele>103.8</ele>
        <time>2022-06-12T10:38:24Z</time>
      </trkpt>
      <trkpt lat="48.25677" lon="-3.51585">
        <ele>103.8</ele>
        <time>2022-06-12T10:38:25Z</time>
      </trkpt>
      <trkpt lat="48.25677" lon="-3.51585">
        <ele>103.9</ele>
        <time>2022-06-12T10:38:26Z</time>
      </trkpt>
      <trkpt lat="48.25677" lon="-3.51583">
        <ele>103.9</ele>
        <time>2022-06-12T10:38:27Z</time>
      </trkpt>
      <trkpt lat="48.25678" lon="-3.51581">
        <ele>103.9</ele>
        <time>2022-06-12T10:38:28Z</time>
      </trkpt>
      <trkpt lat="48.25678" lon="-3.51578">
        <ele>104</ele>
        <time>2022-06-12T10:38:29Z</time>
      </trkpt>
      <trkpt lat="48.25678" lon="-3.51577">
        <ele>104</ele>
        <time>2022-06-12T10:38:30Z</time>
      </trkpt>
      <trkpt lat="48.25678" lon="-3.51575">
        <ele>104</ele>
        <time>2022-06-12T10:38:32Z</time>
      </trkpt>
      <trkpt lat="48.25679" lon="-3.51574">
        <ele>104.1</ele>
        <time>2022-06-12T10:38:33Z</time>
      </trkpt>
      <trkpt lat="48.25679" lon="-3.51572">
        <ele>104.1</ele>
        <time>2022-06-12T10:38:34Z</time>
      </trkpt>
      <trkpt lat="48.25679" lon="-3.51569">
        <ele>104.2</ele>
        <time>2022-06-12T10:38:35Z</time>
      </trkpt>
      <trkpt lat="48.25679" lon="-3.51567">
        <ele>104.2</ele>
        <time>2022-06-12T10:38:36Z</time>
      </trkpt>
      <trkpt lat="48.25678" lon="-3.51566">
        <ele>104.2</ele>
        <time>2022-06-12T10:38:37Z</time>
      </trkpt>
      <trkpt lat="48.25679" lon="-3.51563">
        <ele>104.3</ele>
        <time>2022-06-12T10:38:38Z</time>
      </trkpt>
      <trkpt lat="48.25679" lon="-3.51561">
        <ele>104.3</ele>
        <time>2022-06-12T10:38:39Z</time>
      </trkpt>
      <trkpt lat="48.2568" lon="-3.51558">
        <ele>104.4</ele>
        <time>2022-06-12T10:38:41Z</time>
      </trkpt>
      <trkpt lat="48.2568" lon="-3.51558">
        <ele>104.4</ele>
        <time>2022-06-12T10:38:42Z</time>
      </trkpt>
      <trkpt lat="48.2568" lon="-3.51557">
        <ele>104.4</ele>
        <time>2022-06-12T10:38:43Z</time>
      </trkpt>
      <trkpt lat="48.2568" lon="-3.51556">
        <ele>104.4</ele>
        <time>2022-06-12T10:38:44Z</time>
      </trkpt>
      <trkpt lat="48.2568" lon="-3.51555">
        <ele>104.4</ele>
        <time>2022-06-12T10:38:45Z</time>
      </trkpt>
      <trkpt lat="48.2568" lon="-3.51554">
        <ele>104.5</ele>
        <time>2022-06-12T10:38:46Z</time>
      </trkpt>
      <trkpt lat="48.25679" lon="-3.51552">
        <ele>104.5</ele>
        <time>2022-06-12T10:38:48Z</time>
      </trkpt>
      <trkpt lat="48.25679" lon="-3.51551">
        <ele>104.5</ele>
        <time>2022-06-12T10:38:49Z</time>
      </trkpt>
      <trkpt lat="48.25679" lon="-3.5155">
        <ele>104.5</ele>
        <time>2022-06-12T10:38:50Z</time>
      </trkpt>
      <trkpt lat="48.25679" lon="-3.51548">
        <ele>104.6</ele>
        <time>2022-06-12T10:38:51Z</time>
      </trkpt>
      <trkpt lat="48.2568" lon="-3.51547">
        <ele>104.6</ele>
        <time>2022-06-12T10:38:52Z</time>
      </trkpt>
      <trkpt lat="48.2568" lon="-3.51544">
        <ele>104.6</ele>
        <time>2022-06-12T10:38:53Z</time>
      </trkpt>
      <trkpt lat="48.2568" lon="-3.51543">
        <ele>104.7</ele>
        <time>2022-06-12T10:38:54Z</time>
      </trkpt>
      <trkpt lat="48.2568" lon="-3.51542">
        <ele>104.7</ele>
        <time>2022-06-12T10:38:55Z</time>
      </trkpt>
      <trkpt lat="48.25681" lon="-3.51539">
        <ele>104.7</ele>
        <time>2022-06-12T10:38:56Z</time>
      </trkpt>
      <trkpt lat="48.25681" lon="-3.51537">
        <ele>104.8</ele>
        <time>2022-06-12T10:38:57Z</time>
      </trkpt>
      <trkpt lat="48.25681" lon="-3.51536">
        <ele>104.8</ele>
        <time>2022-06-12T10:38:58Z</time>
      </trkpt>
      <trkpt lat="48.25681" lon="-3.51534">
        <ele>104.8</ele>
        <time>2022-06-12T10:38:59Z</time>
      </trkpt>
      <trkpt lat="48.25682" lon="-3.51533">
        <ele>104.8</ele>
        <time>2022-06-12T10:39:00Z</time>
      </trkpt>
      <trkpt lat="48.25682" lon="-3.51531">
        <ele>104.9</ele>
        <time>2022-06-12T10:39:02Z</time>
      </trkpt>
      <trkpt lat="48.25683" lon="-3.51529">
        <ele>104.9</ele>
        <time>2022-06-12T10:39:03Z</time>
      </trkpt>
      <trkpt lat="48.25683" lon="-3.51527">
        <ele>104.9</ele>
        <time>2022-06-12T10:39:04Z</time>
      </trkpt>
      <trkpt lat="48.25684" lon="-3.51526">
        <ele>104.9</ele>
        <time>2022-06-12T10:39:05Z</time>
      </trkpt>
      <trkpt lat="48.25684" lon="-3.51525">
        <ele>105</ele>
        <time>2022-06-12T10:39:06Z</time>
      </trkpt>
      <trkpt lat="48.25684" lon="-3.51524">
        <ele>105</ele>
        <time>2022-06-12T10:39:07Z</time>
      </trkpt>
      <trkpt lat="48.25685" lon="-3.51522">
        <ele>105</ele>
        <time>2022-06-12T10:39:08Z</time>
      </trkpt>
      <trkpt lat="48.25686" lon="-3.51521">
        <ele>105</ele>
        <time>2022-06-12T10:39:09Z</time>
      </trkpt>
      <trkpt lat="48.25687" lon="-3.5152">
        <ele>105</ele>
        <time>2022-06-12T10:39:10Z</time>
      </trkpt>
      <trkpt lat="48.25688" lon="-3.5152">
        <ele>105.1</ele>
        <time>2022-06-12T10:39:11Z</time>
      </trkpt>
      <trkpt lat="48.25689" lon="-3.51521">
        <ele>105.1</ele>
        <time>2022-06-12T10:39:12Z</time>
      </trkpt>
      <trkpt lat="48.2569" lon="-3.51521">
        <ele>105.1</ele>
        <time>2022-06-12T10:39:13Z</time>
      </trkpt>
      <trkpt lat="48.2569" lon="-3.51522">
        <ele>105.1</ele>
        <time>2022-06-12T10:39:14Z</time>
      </trkpt>
      <trkpt lat="48.2569" lon="-3.51522">
        <ele>105.1</ele>
        <time>2022-06-12T10:39:15Z</time>
      </trkpt>
      <trkpt lat="48.2569" lon="-3.51522">
        <ele>105.1</ele>
        <time>2022-06-12T10:39:16Z</time>
      </trkpt>
      <trkpt lat="48.2569" lon="-3.51522">
        <ele>105.1</ele>
        <time>2022-06-12T10:39:17Z</time>
      </trkpt>
      <trkpt lat="48.2569" lon="-3.51522">
        <ele>105.1</ele>
        <time>2022-06-12T10:39:18Z</time>
      </trkpt>
      <trkpt lat="48.2569" lon="-3.51522">
        <ele>105.1</ele>
        <time>2022-06-12T10:39:19Z</time>
      </trkpt>
      <trkpt lat="48.2569" lon="-3.51522">
        <ele>105.1</ele>
        <time>2022-06-12T10:39:20Z</time>
      </trkpt>
      <trkpt lat="48.2569" lon="-3.51522">
        <ele>105.1</ele>
        <time>2022-06-12T10:39:21Z</time>
      </trkpt>
      <trkpt lat="48.2569" lon="-3.51522">
        <ele>105.1</ele>
        <time>2022-06-12T10:39:22Z</time>
      </trkpt>
      <trkpt lat="48.2569" lon="-3.51522">
        <ele>105.1</ele>
        <time>2022-06-12T10:39:23Z</time>
      </trkpt>
      <trkpt lat="48.2569" lon="-3.51521">
        <ele>105.1</ele>
        <time>2022-06-12T10:39:24Z</time>
      </trkpt>
      <trkpt lat="48.2569" lon="-3.51521">
        <ele>105.1</ele>
        <time>2022-06-12T10:39:26Z</time>
      </trkpt>
      <trkpt lat="48.2569" lon="-3.5152">
        <ele>105.1</ele>
        <time>2022-06-12T10:39:27Z</time>
      </trkpt>
      <trkpt lat="48.25691" lon="-3.51518">
        <ele>105.1</ele>
        <time>2022-06-12T10:39:29Z</time>
      </trkpt>
      <trkpt lat="48.25691" lon="-3.51517">
        <ele>105.1</ele>
        <time>2022-06-12T10:39:30Z</time>
      </trkpt>
      <trkpt lat="48.25691" lon="-3.51516">
        <ele>105.1</ele>
        <time>2022-06-12T10:39:31Z</time>
      </trkpt>
      <trkpt lat="48.25692" lon="-3.51515">
        <ele>105.2</ele>
        <time>2022-06-12T10:39:32Z</time>
      </trkpt>
      <trkpt lat="48.25693" lon="-3.51513">
        <ele>105.2</ele>
        <time>2022-06-12T10:39:33Z</time>
      </trkpt>
      <trkpt lat="48.25694" lon="-3.51511">
        <ele>105.2</ele>
        <time>2022-06-12T10:39:34Z</time>
      </trkpt>
      <trkpt lat="48.25695" lon="-3.51511">
        <ele>105.2</ele>
        <time>2022-06-12T10:39:35Z</time>
      </trkpt>
      <trkpt lat="48.25694" lon="-3.51511">
        <ele>105.2</ele>
        <time>2022-06-12T10:39:36Z</time>
      </trkpt>
      <trkpt lat="48.25694" lon="-3.51512">
        <ele>105.2</ele>
        <time>2022-06-12T10:39:37Z</time>
      </trkpt>
      <trkpt lat="48.25694" lon="-3.51513">
        <ele>105.2</ele>
        <time>2022-06-12T10:39:38Z</time>
      </trkpt>
      <trkpt lat="48.25694" lon="-3.51513">
        <ele>105.2</ele>
        <time>2022-06-12T10:39:39Z</time>
      </trkpt>
      <trkpt lat="48.25694" lon="-3.51513">
        <ele>105.2</ele>
        <time>2022-06-12T10:39:40Z</time>
      </trkpt>
      <trkpt lat="48.25694" lon="-3.51513">
        <ele>105.2</ele>
        <time>2022-06-12T10:39:41Z</time>
      </trkpt>
      <trkpt lat="48.25694" lon="-3.51513">
        <ele>105.2</ele>
        <time>2022-06-12T10:39:42Z</time>
      </trkpt>
      <trkpt lat="48.25694" lon="-3.51513">
        <ele>105.2</ele>
        <time>2022-06-12T10:39:43Z</time>
      </trkpt>
      <trkpt lat="48.25694" lon="-3.51513">
        <ele>105.2</ele>
        <time>2022-06-12T10:39:44Z</time>
      </trkpt>
      <trkpt lat="48.25694" lon="-3.51513">
        <ele>105.2</ele>
        <time>2022-06-12T10:39:45Z</time>
      </trkpt>
      <trkpt lat="48.25694" lon="-3.51514">
        <ele>105.2</ele>
        <time>2022-06-12T10:39:47Z</time>
      </trkpt>
      <trkpt lat="48.25693" lon="-3.51514">
        <ele>105.2</ele>
        <time>2022-06-12T10:39:49Z</time>
      </trkpt>
      <trkpt lat="48.25693" lon="-3.51515">
        <ele>105.2</ele>
        <time>2022-06-12T10:39:50Z</time>
      </trkpt>
      <trkpt lat="48.25693" lon="-3.51516">
        <ele>105.2</ele>
        <time>2022-06-12T10:39:51Z</time>
      </trkpt>
      <trkpt lat="48.25693" lon="-3.51518">
        <ele>105.2</ele>
        <time>2022-06-12T10:39:52Z</time>
      </trkpt>
      <trkpt lat="48.25693" lon="-3.51519">
        <ele>105.2</ele>
        <time>2022-06-12T10:39:53Z</time>
      </trkpt>
      <trkpt lat="48.25693" lon="-3.5152">
        <ele>105.2</ele>
        <time>2022-06-12T10:39:54Z</time>
      </trkpt>
      <trkpt lat="48.25693" lon="-3.5152">
        <ele>105.2</ele>
        <time>2022-06-12T10:39:55Z</time>
      </trkpt>
      <trkpt lat="48.25693" lon="-3.51521">
        <ele>105.2</ele>
        <time>2022-06-12T10:39:56Z</time>
      </trkpt>
      <trkpt lat="48.25693" lon="-3.51521">
        <ele>105.2</ele>
        <time>2022-06-12T10:39:57Z</time>
      </trkpt>
      <trkpt lat="48.25693" lon="-3.51521">
        <ele>105.2</ele>
        <time>2022-06-12T10:39:58Z</time>
      </trkpt>
      <trkpt lat="48.25693" lon="-3.51521">
        <ele>105.2</ele>
        <time>2022-06-12T10:39:59Z</time>
      </trkpt>
      <trkpt lat="48.25693" lon="-3.51521">
        <ele>105.2</ele>
        <time>2022-06-12T10:40:00Z</time>
      </trkpt>
      <trkpt lat="48.25694" lon="-3.51522">
        <ele>105.2</ele>
        <time>2022-06-12T10:40:01Z</time>
      </trkpt>
      <trkpt lat="48.25694" lon="-3.51522">
        <ele>105.2</ele>
        <time>2022-06-12T10:40:02Z</time>
      </trkpt>
      <trkpt lat="48.25694" lon="-3.51522">
        <ele>105.2</ele>
        <time>2022-06-12T10:40:03Z</time>
      </trkpt>
      <trkpt lat="48.25694" lon="-3.51522">
        <ele>105.2</ele>
        <time>2022-06-12T10:40:04Z</time>
      </trkpt>
      <trkpt lat="48.25694" lon="-3.51522">
        <ele>105.2</ele>
        <time>2022-06-12T10:40:05Z</time>
      </trkpt>
      <trkpt lat="48.25694" lon="-3.51522">
        <ele>105.2</ele>
        <time>2022-06-12T10:40:06Z</time>
      </trkpt>
      <trkpt lat="48.25694" lon="-3.51522">
        <ele>105.2</ele>
        <time>2022-06-12T10:40:07Z</time>
      </trkpt>
      <trkpt lat="48.25694" lon="-3.51522">
        <ele>105.2</ele>
        <time>2022-06-12T10:40:08Z</time>
      </trkpt>
      <trkpt lat="48.25694" lon="-3.51522">
        <ele>105.2</ele>
        <time>2022-06-12T10:40:09Z</time>
      </trkpt>
      <trkpt lat="48.25694" lon="-3.51522">
        <ele>105.2</ele>
        <time>2022-06-12T10:40:10Z</time>
      </trkpt>
      <trkpt lat="48.25694" lon="-3.51522">
        <ele>105.2</ele>
        <time>2022-06-12T10:40:11Z</time>
      </trkpt>
      <trkpt lat="48.25694" lon="-3.51522">
        <ele>105.2</ele>
        <time>2022-06-12T10:40:12Z</time>
      </trkpt>
      <trkpt lat="48.25694" lon="-3.51522">
        <ele>105.2</ele>
        <time>2022-06-12T10:40:13Z</time>
      </trkpt>
      <trkpt lat="48.25694" lon="-3.51522">
        <ele>105.2</ele>
        <time>2022-06-12T10:40:14Z</time>
      </trkpt>
      <trkpt lat="48.25694" lon="-3.51522">
        <ele>105.2</ele>
        <time>2022-06-12T10:40:15Z</time>
      </trkpt>
      <trkpt lat="48.25694" lon="-3.51522">
        <ele>105.2</ele>
        <time>2022-06-12T10:40:16Z</time>
      </trkpt>
      <trkpt lat="48.25694" lon="-3.51521">
        <ele>105.2</ele>
        <time>2022-06-12T10:40:17Z</time>
      </trkpt>
      <trkpt lat="48.25694" lon="-3.51521">
        <ele>105.2</ele>
        <time>2022-06-12T10:40:18Z</time>
      </trkpt>
      <trkpt lat="48.25694" lon="-3.5152">
        <ele>105.2</ele>
        <time>2022-06-12T10:40:19Z</time>
      </trkpt>
      <trkpt lat="48.25694" lon="-3.51519">
        <ele>105.2</ele>
        <time>2022-06-12T10:40:20Z</time>
      </trkpt>
      <trkpt lat="48.25694" lon="-3.51519">
        <ele>105.2</ele>
        <time>2022-06-12T10:40:21Z</time>
      </trkpt>
      <trkpt lat="48.25695" lon="-3.51518">
        <ele>105.2</ele>
        <time>2022-06-12T10:40:22Z</time>
      </trkpt>
      <trkpt lat="48.25695" lon="-3.51518">
        <ele>105.2</ele>
        <time>2022-06-12T10:40:23Z</time>
      </trkpt>
      <trkpt lat="48.25695" lon="-3.51518">
        <ele>105.2</ele>
        <time>2022-06-12T10:40:24Z</time>
      </trkpt>
      <trkpt lat="48.25695" lon="-3.51518">
        <ele>105.2</ele>
        <time>2022-06-12T10:40:25Z</time>
      </trkpt>
      <trkpt lat="48.25695" lon="-3.51518">
        <ele>105.2</ele>
        <time>2022-06-12T10:40:26Z</time>
      </trkpt>
      <trkpt lat="48.25695" lon="-3.51518">
        <ele>105.2</ele>
        <time>2022-06-12T10:40:27Z</time>
      </trkpt>
      <trkpt lat="48.25695" lon="-3.51518">
        <ele>105.2</ele>
        <time>2022-06-12T10:40:28Z</time>
      </trkpt>
      <trkpt lat="48.25695" lon="-3.51517">
        <ele>105.2</ele>
        <time>2022-06-12T10:40:29Z</time>
      </trkpt>
      <trkpt lat="48.25695" lon="-3.51517">
        <ele>105.2</ele>
        <time>2022-06-12T10:40:30Z</time>
      </trkpt>
      <trkpt lat="48.25696" lon="-3.51516">
        <ele>105.2</ele>
        <time>2022-06-12T10:40:31Z</time>
      </trkpt>
      <trkpt lat="48.25695" lon="-3.51517">
        <ele>105.2</ele>
        <time>2022-06-12T10:40:33Z</time>
      </trkpt>
      <trkpt lat="48.25695" lon="-3.51517">
        <ele>105.2</ele>
        <time>2022-06-12T10:40:34Z</time>
      </trkpt>
      <trkpt lat="48.25695" lon="-3.51518">
        <ele>105.2</ele>
        <time>2022-06-12T10:40:35Z</time>
      </trkpt>
      <trkpt lat="48.25695" lon="-3.51518">
        <ele>105.2</ele>
        <time>2022-06-12T10:40:36Z</time>
      </trkpt>
      <trkpt lat="48.25695" lon="-3.51518">
        <ele>105.2</ele>
        <time>2022-06-12T10:40:37Z</time>
      </trkpt>
      <trkpt lat="48.25695" lon="-3.51518">
        <ele>105.2</ele>
        <time>2022-06-12T10:40:38Z</time>
      </trkpt>
      <trkpt lat="48.25695" lon="-3.51518">
        <ele>105.2</ele>
        <time>2022-06-12T10:40:39Z</time>
      </trkpt>
      <trkpt lat="48.25695" lon="-3.51517">
        <ele>105.2</ele>
        <time>2022-06-12T10:40:40Z</time>
      </trkpt>
      <trkpt lat="48.25694" lon="-3.51517">
        <ele>105.2</ele>
        <time>2022-06-12T10:40:41Z</time>
      </trkpt>
      <trkpt lat="48.25694" lon="-3.51517">
        <ele>105.2</ele>
        <time>2022-06-12T10:40:42Z</time>
      </trkpt>
      <trkpt lat="48.25693" lon="-3.51517">
        <ele>105.2</ele>
        <time>2022-06-12T10:40:43Z</time>
      </trkpt>
      <trkpt lat="48.25693" lon="-3.51517">
        <ele>105.2</ele>
        <time>2022-06-12T10:40:44Z</time>
      </trkpt>
      <trkpt lat="48.25693" lon="-3.51517">
        <ele>105.2</ele>
        <time>2022-06-12T10:40:45Z</time>
      </trkpt>
      <trkpt lat="48.25693" lon="-3.51518">
        <ele>105.2</ele>
        <time>2022-06-12T10:40:46Z</time>
      </trkpt>
      <trkpt lat="48.25693" lon="-3.51518">
        <ele>105.2</ele>
        <time>2022-06-12T10:40:47Z</time>
      </trkpt>
      <trkpt lat="48.25693" lon="-3.51518">
        <ele>105.2</ele>
        <time>2022-06-12T10:40:48Z</time>
      </trkpt>
      <trkpt lat="48.25693" lon="-3.51518">
        <ele>105.2</ele>
        <time>2022-06-12T10:40:49Z</time>
      </trkpt>
      <trkpt lat="48.25693" lon="-3.51518">
        <ele>105.2</ele>
        <time>2022-06-12T10:40:50Z</time>
      </trkpt>
      <trkpt lat="48.25692" lon="-3.51518">
        <ele>105.2</ele>
        <time>2022-06-12T10:40:51Z</time>
      </trkpt>
      <trkpt lat="48.25692" lon="-3.51518">
        <ele>105.2</ele>
        <time>2022-06-12T10:40:52Z</time>
      </trkpt>
      <trkpt lat="48.25692" lon="-3.51518">
        <ele>105.2</ele>
        <time>2022-06-12T10:40:53Z</time>
      </trkpt>
      <trkpt lat="48.25692" lon="-3.51518">
        <ele>105.2</ele>
        <time>2022-06-12T10:40:54Z</time>
      </trkpt>
      <trkpt lat="48.25692" lon="-3.51518">
        <ele>105.2</ele>
        <time>2022-06-12T10:40:55Z</time>
      </trkpt>
      <trkpt lat="48.25692" lon="-3.51518">
        <ele>105.2</ele>
        <time>2022-06-12T10:40:56Z</time>
      </trkpt>
      <trkpt lat="48.25692" lon="-3.51518">
        <ele>105.2</ele>
        <time>2022-06-12T10:40:57Z</time>
      </trkpt>
      <trkpt lat="48.25692" lon="-3.51518">
        <ele>105.2</ele>
        <time>2022-06-12T10:40:58Z</time>
      </trkpt>
      <trkpt lat="48.25692" lon="-3.51518">
        <ele>105.2</ele>
        <time>2022-06-12T10:40:59Z</time>
      </trkpt>
      <trkpt lat="48.25692" lon="-3.51518">
        <ele>105.2</ele>
        <time>2022-06-12T10:41:00Z</time>
      </trkpt>
      <trkpt lat="48.25692" lon="-3.51518">
        <ele>105.2</ele>
        <time>2022-06-12T10:41:01Z</time>
      </trkpt>
      <trkpt lat="48.25692" lon="-3.51518">
        <ele>105.2</ele>
        <time>2022-06-12T10:41:02Z</time>
      </trkpt>
      <trkpt lat="48.25692" lon="-3.51518">
        <ele>105.2</ele>
        <time>2022-06-12T10:41:03Z</time>
      </trkpt>
      <trkpt lat="48.25692" lon="-3.51518">
        <ele>105.2</ele>
        <time>2022-06-12T10:41:04Z</time>
      </trkpt>
      <trkpt lat="48.25692" lon="-3.51518">
        <ele>105.2</ele>
        <time>2022-06-12T10:41:05Z</time>
      </trkpt>
      <trkpt lat="48.25692" lon="-3.51518">
        <ele>105.2</ele>
        <time>2022-06-12T10:41:06Z</time>
      </trkpt>
      <trkpt lat="48.25692" lon="-3.51518">
        <ele>105.2</ele>
        <time>2022-06-12T10:41:07Z</time>
      </trkpt>
      <trkpt lat="48.25692" lon="-3.51518">
        <ele>105.2</ele>
        <time>2022-06-12T10:41:08Z</time>
      </trkpt>
      <trkpt lat="48.25692" lon="-3.51518">
        <ele>105.2</ele>
        <time>2022-06-12T10:41:09Z</time>
      </trkpt>
      <trkpt lat="48.25692" lon="-3.51518">
        <ele>105.2</ele>
        <time>2022-06-12T10:41:10Z</time>
      </trkpt>
      <trkpt lat="48.25692" lon="-3.51518">
        <ele>105.2</ele>
        <time>2022-06-12T10:41:11Z</time>
      </trkpt>
      <trkpt lat="48.25692" lon="-3.51518">
        <ele>105.2</ele>
        <time>2022-06-12T10:41:12Z</time>
      </trkpt>
      <trkpt lat="48.25692" lon="-3.51518">
        <ele>105.2</ele>
        <time>2022-06-12T10:41:13Z</time>
      </trkpt>
      <trkpt lat="48.25692" lon="-3.51518">
        <ele>105.2</ele>
        <time>2022-06-12T10:41:14Z</time>
      </trkpt>
      <trkpt lat="48.25692" lon="-3.51518">
        <ele>105.2</ele>
        <time>2022-06-12T10:41:15Z</time>
      </trkpt>
      <trkpt lat="48.25692" lon="-3.51518">
        <ele>105.2</ele>
        <time>2022-06-12T10:41:16Z</time>
      </trkpt>
      <trkpt lat="48.25692" lon="-3.51518">
        <ele>105.2</ele>
        <time>2022-06-12T10:41:17Z</time>
      </trkpt>
      <trkpt lat="48.25692" lon="-3.51518">
        <ele>105.2</ele>
        <time>2022-06-12T10:41:18Z</time>
      </trkpt>
      <trkpt lat="48.25692" lon="-3.51518">
        <ele>105.2</ele>
        <time>2022-06-12T10:41:19Z</time>
      </trkpt>
      <trkpt lat="48.25692" lon="-3.51518">
        <ele>105.2</ele>
        <time>2022-06-12T10:41:20Z</time>
      </trkpt>
      <trkpt lat="48.25692" lon="-3.51518">
        <ele>105.2</ele>
        <time>2022-06-12T10:41:21Z</time>
      </trkpt>
      <trkpt lat="48.25692" lon="-3.51518">
        <ele>105.2</ele>
        <time>2022-06-12T10:41:22Z</time>
      </trkpt>
      <trkpt lat="48.25692" lon="-3.51518">
        <ele>105.2</ele>
        <time>2022-06-12T10:41:23Z</time>
      </trkpt>
      <trkpt lat="48.25692" lon="-3.51518">
        <ele>105.2</ele>
        <time>2022-06-12T10:41:24Z</time>
      </trkpt>
      <trkpt lat="48.25692" lon="-3.51518">
        <ele>105.2</ele>
        <time>2022-06-12T10:41:25Z</time>
      </trkpt>
      <trkpt lat="48.25692" lon="-3.51518">
        <ele>105.2</ele>
        <time>2022-06-12T10:41:26Z</time>
      </trkpt>
      <trkpt lat="48.25692" lon="-3.51518">
        <ele>105.2</ele>
        <time>2022-06-12T10:41:27Z</time>
      </trkpt>
      <trkpt lat="48.25692" lon="-3.51518">
        <ele>105.2</ele>
        <time>2022-06-12T10:41:28Z</time>
      </trkpt>
      <trkpt lat="48.25692" lon="-3.51518">
        <ele>105.2</ele>
        <time>2022-06-12T10:41:29Z</time>
      </trkpt>
      <trkpt lat="48.25692" lon="-3.51518">
        <ele>105.2</ele>
        <time>2022-06-12T10:41:30Z</time>
      </trkpt>
      <trkpt lat="48.25692" lon="-3.51518">
        <ele>105.2</ele>
        <time>2022-06-12T10:41:31Z</time>
      </trkpt>
      <trkpt lat="48.25692" lon="-3.51518">
        <ele>105.2</ele>
        <time>2022-06-12T10:41:32Z</time>
      </trkpt>
      <trkpt lat="48.25692" lon="-3.51518">
        <ele>105.2</ele>
        <time>2022-06-12T10:41:33Z</time>
      </trkpt>
      <trkpt lat="48.25692" lon="-3.51518">
        <ele>105.2</ele>
        <time>2022-06-12T10:41:34Z</time>
      </trkpt>
      <trkpt lat="48.25692" lon="-3.51518">
        <ele>105.2</ele>
        <time>2022-06-12T10:41:35Z</time>
      </trkpt>
      <trkpt lat="48.25692" lon="-3.51518">
        <ele>105.2</ele>
        <time>2022-06-12T10:41:36Z</time>
      </trkpt>
      <trkpt lat="48.25692" lon="-3.51518">
        <ele>105.2</ele>
        <time>2022-06-12T10:41:37Z</time>
      </trkpt>
      <trkpt lat="48.25692" lon="-3.51518">
        <ele>105.2</ele>
        <time>2022-06-12T10:41:38Z</time>
      </trkpt>
      <trkpt lat="48.25692" lon="-3.51518">
        <ele>105.2</ele>
        <time>2022-06-12T10:41:39Z</time>
      </trkpt>
      <trkpt lat="48.25692" lon="-3.51518">
        <ele>105.2</ele>
        <time>2022-06-12T10:41:40Z</time>
      </trkpt>
      <trkpt lat="48.25692" lon="-3.51518">
        <ele>105.2</ele>
        <time>2022-06-12T10:41:41Z</time>
      </trkpt>
      <trkpt lat="48.25692" lon="-3.51518">
        <ele>105.2</ele>
        <time>2022-06-12T10:41:42Z</time>
      </trkpt>
      <trkpt lat="48.25692" lon="-3.51518">
        <ele>105.2</ele>
        <time>2022-06-12T10:41:43Z</time>
      </trkpt>
      <trkpt lat="48.25692" lon="-3.51518">
        <ele>105.2</ele>
        <time>2022-06-12T10:41:44Z</time>
      </trkpt>
      <trkpt lat="48.25692" lon="-3.51518">
        <ele>105.2</ele>
        <time>2022-06-12T10:41:45Z</time>
      </trkpt>
      <trkpt lat="48.25692" lon="-3.51518">
        <ele>105.2</ele>
        <time>2022-06-12T10:41:46Z</time>
      </trkpt>
      <trkpt lat="48.25692" lon="-3.51518">
        <ele>105.2</ele>
        <time>2022-06-12T10:41:47Z</time>
      </trkpt>
      <trkpt lat="48.25692" lon="-3.51518">
        <ele>105.2</ele>
        <time>2022-06-12T10:41:48Z</time>
      </trkpt>
      <trkpt lat="48.25692" lon="-3.51518">
        <ele>105.2</ele>
        <time>2022-06-12T10:41:49Z</time>
      </trkpt>
      <trkpt lat="48.25692" lon="-3.51518">
        <ele>105.2</ele>
        <time>2022-06-12T10:41:50Z</time>
      </trkpt>
      <trkpt lat="48.25692" lon="-3.51518">
        <ele>105.2</ele>
        <time>2022-06-12T10:41:51Z</time>
      </trkpt>
      <trkpt lat="48.25692" lon="-3.51518">
        <ele>105.2</ele>
        <time>2022-06-12T10:41:52Z</time>
      </trkpt>
      <trkpt lat="48.25692" lon="-3.51518">
        <ele>105.2</ele>
        <time>2022-06-12T10:41:53Z</time>
      </trkpt>
      <trkpt lat="48.25692" lon="-3.51518">
        <ele>105.2</ele>
        <time>2022-06-12T10:41:54Z</time>
      </trkpt>
      <trkpt lat="48.25692" lon="-3.51518">
        <ele>105.2</ele>
        <time>2022-06-12T10:41:55Z</time>
      </trkpt>
      <trkpt lat="48.25692" lon="-3.51518">
        <ele>105.2</ele>
        <time>2022-06-12T10:41:56Z</time>
      </trkpt>
      <trkpt lat="48.25692" lon="-3.51518">
        <ele>105.2</ele>
        <time>2022-06-12T10:41:57Z</time>
      </trkpt>
      <trkpt lat="48.25692" lon="-3.51518">
        <ele>105.2</ele>
        <time>2022-06-12T10:41:58Z</time>
      </trkpt>
      <trkpt lat="48.25692" lon="-3.51518">
        <ele>105.2</ele>
        <time>2022-06-12T10:41:59Z</time>
      </trkpt>
      <trkpt lat="48.25692" lon="-3.51518">
        <ele>105.2</ele>
        <time>2022-06-12T10:42:00Z</time>
      </trkpt>
      <trkpt lat="48.25692" lon="-3.51518">
        <ele>105.2</ele>
        <time>2022-06-12T10:42:01Z</time>
      </trkpt>
      <trkpt lat="48.25692" lon="-3.51518">
        <ele>105.2</ele>
        <time>2022-06-12T10:42:02Z</time>
      </trkpt>
      <trkpt lat="48.25692" lon="-3.51518">
        <ele>105.2</ele>
        <time>2022-06-12T10:42:03Z</time>
      </trkpt>
      <trkpt lat="48.25692" lon="-3.51518">
        <ele>105.2</ele>
        <time>2022-06-12T10:42:04Z</time>
      </trkpt>
      <trkpt lat="48.25692" lon="-3.51518">
        <ele>105.2</ele>
        <time>2022-06-12T10:42:05Z</time>
      </trkpt>
      <trkpt lat="48.25692" lon="-3.51518">
        <ele>105.2</ele>
        <time>2022-06-12T10:42:06Z</time>
      </trkpt>
      <trkpt lat="48.25692" lon="-3.51518">
        <ele>105.2</ele>
        <time>2022-06-12T10:42:07Z</time>
      </trkpt>
      <trkpt lat="48.25692" lon="-3.51518">
        <ele>105.2</ele>
        <time>2022-06-12T10:42:08Z</time>
      </trkpt>
      <trkpt lat="48.25692" lon="-3.51518">
        <ele>105.2</ele>
        <time>2022-06-12T10:42:09Z</time>
      </trkpt>
      <trkpt lat="48.25692" lon="-3.51518">
        <ele>105.2</ele>
        <time>2022-06-12T10:42:10Z</time>
      </trkpt>
      <trkpt lat="48.25692" lon="-3.51518">
        <ele>105.2</ele>
        <time>2022-06-12T10:42:11Z</time>
      </trkpt>
      <trkpt lat="48.25692" lon="-3.51518">
        <ele>105.2</ele>
        <time>2022-06-12T10:42:12Z</time>
      </trkpt>
      <trkpt lat="48.25692" lon="-3.51518">
        <ele>105.2</ele>
        <time>2022-06-12T10:42:13Z</time>
      </trkpt>
      <trkpt lat="48.25691" lon="-3.51517">
        <ele>105.2</ele>
        <time>2022-06-12T10:42:14Z</time>
      </trkpt>
      <trkpt lat="48.25691" lon="-3.51516">
        <ele>105.2</ele>
        <time>2022-06-12T10:42:15Z</time>
      </trkpt>
      <trkpt lat="48.2569" lon="-3.51516">
        <ele>105.2</ele>
        <time>2022-06-12T10:42:16Z</time>
      </trkpt>
      <trkpt lat="48.2569" lon="-3.51515">
        <ele>105.2</ele>
        <time>2022-06-12T10:42:17Z</time>
      </trkpt>
      <trkpt lat="48.2569" lon="-3.51515">
        <ele>105.2</ele>
        <time>2022-06-12T10:42:18Z</time>
      </trkpt>
      <trkpt lat="48.2569" lon="-3.51515">
        <ele>105.2</ele>
        <time>2022-06-12T10:42:19Z</time>
      </trkpt>
      <trkpt lat="48.2569" lon="-3.51514">
        <ele>105.2</ele>
        <time>2022-06-12T10:42:20Z</time>
      </trkpt>
      <trkpt lat="48.2569" lon="-3.51513">
        <ele>105.2</ele>
        <time>2022-06-12T10:42:21Z</time>
      </trkpt>
      <trkpt lat="48.2569" lon="-3.51513">
        <ele>105.2</ele>
        <time>2022-06-12T10:42:22Z</time>
      </trkpt>
      <trkpt lat="48.2569" lon="-3.51513">
        <ele>105.2</ele>
        <time>2022-06-12T10:42:23Z</time>
      </trkpt>
      <trkpt lat="48.25691" lon="-3.51514">
        <ele>105.2</ele>
        <time>2022-06-12T10:42:24Z</time>
      </trkpt>
      <trkpt lat="48.25691" lon="-3.51514">
        <ele>105.2</ele>
        <time>2022-06-12T10:42:25Z</time>
      </trkpt>
      <trkpt lat="48.25691" lon="-3.51514">
        <ele>105.2</ele>
        <time>2022-06-12T10:42:26Z</time>
      </trkpt>
      <trkpt lat="48.25691" lon="-3.51514">
        <ele>105.2</ele>
        <time>2022-06-12T10:42:27Z</time>
      </trkpt>
      <trkpt lat="48.25691" lon="-3.51514">
        <ele>105.2</ele>
        <time>2022-06-12T10:42:28Z</time>
      </trkpt>
      <trkpt lat="48.25691" lon="-3.51513">
        <ele>105.2</ele>
        <time>2022-06-12T10:42:29Z</time>
      </trkpt>
      <trkpt lat="48.25691" lon="-3.51513">
        <ele>105.2</ele>
        <time>2022-06-12T10:42:30Z</time>
      </trkpt>
      <trkpt lat="48.2569" lon="-3.51513">
        <ele>105.2</ele>
        <time>2022-06-12T10:42:31Z</time>
      </trkpt>
      <trkpt lat="48.2569" lon="-3.51513">
        <ele>105.2</ele>
        <time>2022-06-12T10:42:32Z</time>
      </trkpt>
      <trkpt lat="48.2569" lon="-3.51513">
        <ele>105.2</ele>
        <time>2022-06-12T10:42:33Z</time>
      </trkpt>
      <trkpt lat="48.2569" lon="-3.51512">
        <ele>105.2</ele>
        <time>2022-06-12T10:42:34Z</time>
      </trkpt>
      <trkpt lat="48.2569" lon="-3.51512">
        <ele>105.2</ele>
        <time>2022-06-12T10:42:35Z</time>
      </trkpt>
      <trkpt lat="48.25691" lon="-3.51512">
        <ele>105.2</ele>
        <time>2022-06-12T10:42:36Z</time>
      </trkpt>
      <trkpt lat="48.25691" lon="-3.51512">
        <ele>105.2</ele>
        <time>2022-06-12T10:42:37Z</time>
      </trkpt>
      <trkpt lat="48.25691" lon="-3.51512">
        <ele>105.2</ele>
        <time>2022-06-12T10:42:38Z</time>
      </trkpt>
      <trkpt lat="48.25691" lon="-3.51513">
        <ele>105.2</ele>
        <time>2022-06-12T10:42:39Z</time>
      </trkpt>
      <trkpt lat="48.2569" lon="-3.51513">
        <ele>105.2</ele>
        <time>2022-06-12T10:42:40Z</time>
      </trkpt>
      <trkpt lat="48.2569" lon="-3.51513">
        <ele>105.2</ele>
        <time>2022-06-12T10:42:41Z</time>
      </trkpt>
      <trkpt lat="48.2569" lon="-3.51513">
        <ele>105.2</ele>
        <time>2022-06-12T10:42:42Z</time>
      </trkpt>
      <trkpt lat="48.2569" lon="-3.51512">
        <ele>105.2</ele>
        <time>2022-06-12T10:42:43Z</time>
      </trkpt>
      <trkpt lat="48.2569" lon="-3.51512">
        <ele>105.2</ele>
        <time>2022-06-12T10:42:44Z</time>
      </trkpt>
      <trkpt lat="48.2569" lon="-3.51512">
        <ele>105.2</ele>
        <time>2022-06-12T10:42:45Z</time>
      </trkpt>
      <trkpt lat="48.2569" lon="-3.51512">
        <ele>105.2</ele>
        <time>2022-06-12T10:42:46Z</time>
      </trkpt>
      <trkpt lat="48.2569" lon="-3.51512">
        <ele>105.2</ele>
        <time>2022-06-12T10:42:47Z</time>
      </trkpt>
      <trkpt lat="48.2569" lon="-3.51512">
        <ele>105.2</ele>
        <time>2022-06-12T10:42:48Z</time>
      </trkpt>
      <trkpt lat="48.2569" lon="-3.51512">
        <ele>105.2</ele>
        <time>2022-06-12T10:42:49Z</time>
      </trkpt>
      <trkpt lat="48.2569" lon="-3.51512">
        <ele>105.2</ele>
        <time>2022-06-12T10:42:50Z</time>
      </trkpt>
      <trkpt lat="48.2569" lon="-3.51512">
        <ele>105.2</ele>
        <time>2022-06-12T10:42:51Z</time>
      </trkpt>
      <trkpt lat="48.2569" lon="-3.51512">
        <ele>105.2</ele>
        <time>2022-06-12T10:42:52Z</time>
      </trkpt>
      <trkpt lat="48.2569" lon="-3.51512">
        <ele>105.2</ele>
        <time>2022-06-12T10:42:53Z</time>
      </trkpt>
      <trkpt lat="48.2569" lon="-3.51512">
        <ele>105.2</ele>
        <time>2022-06-12T10:42:54Z</time>
      </trkpt>
      <trkpt lat="48.2569" lon="-3.51512">
        <ele>105.2</ele>
        <time>2022-06-12T10:42:55Z</time>
      </trkpt>
      <trkpt lat="48.2569" lon="-3.51512">
        <ele>105.2</ele>
        <time>2022-06-12T10:42:56Z</time>
      </trkpt>
      <trkpt lat="48.2569" lon="-3.51512">
        <ele>105.2</ele>
        <time>2022-06-12T10:42:57Z</time>
      </trkpt>
      <trkpt lat="48.2569" lon="-3.51512">
        <ele>105.2</ele>
        <time>2022-06-12T10:42:58Z</time>
      </trkpt>
      <trkpt lat="48.2569" lon="-3.51512">
        <ele>105.2</ele>
        <time>2022-06-12T10:42:59Z</time>
      </trkpt>
      <trkpt lat="48.2569" lon="-3.51512">
        <ele>105.2</ele>
        <time>2022-06-12T10:43:00Z</time>
      </trkpt>
      <trkpt lat="48.2569" lon="-3.51512">
        <ele>105.2</ele>
        <time>2022-06-12T10:43:01Z</time>
      </trkpt>
      <trkpt lat="48.2569" lon="-3.51512">
        <ele>105.2</ele>
        <time>2022-06-12T10:43:02Z</time>
      </trkpt>
      <trkpt lat="48.2569" lon="-3.51512">
        <ele>105.2</ele>
        <time>2022-06-12T10:43:03Z</time>
      </trkpt>
      <trkpt lat="48.2569" lon="-3.51512">
        <ele>105.2</ele>
        <time>2022-06-12T10:43:04Z</time>
      </trkpt>
      <trkpt lat="48.2569" lon="-3.51512">
        <ele>105.2</ele>
        <time>2022-06-12T10:43:05Z</time>
      </trkpt>
      <trkpt lat="48.25721" lon="-3.51426">
        <ele>105.1</ele>
        <time>2022-06-12T12:06:59Z</time>
      </trkpt>
      <trkpt lat="48.25721" lon="-3.51424">
        <ele>105.1</ele>
        <time>2022-06-12T12:07:00Z</time>
      </trkpt>
      <trkpt lat="48.25722" lon="-3.51424">
        <ele>105.1</ele>
        <time>2022-06-12T12:07:01Z</time>
      </trkpt>
      <trkpt lat="48.25722" lon="-3.51423">
        <ele>105.1</ele>
        <time>2022-06-12T12:07:02Z</time>
      </trkpt>
      <trkpt lat="48.25722" lon="-3.51423">
        <ele>105.1</ele>
        <time>2022-06-12T12:07:03Z</time>
      </trkpt>
      <trkpt lat="48.25722" lon="-3.51423">
        <ele>105.1</ele>
        <time>2022-06-12T12:07:04Z</time>
      </trkpt>
      <trkpt lat="48.25722" lon="-3.51423">
        <ele>105.1</ele>
        <time>2022-06-12T12:07:05Z</time>
      </trkpt>
      <trkpt lat="48.25722" lon="-3.5142">
        <ele>105.1</ele>
        <time>2022-06-12T12:07:07Z</time>
      </trkpt>
      <trkpt lat="48.25721" lon="-3.51419">
        <ele>105.1</ele>
        <time>2022-06-12T12:07:08Z</time>
      </trkpt>
      <trkpt lat="48.25721" lon="-3.51417">
        <ele>105.1</ele>
        <time>2022-06-12T12:07:09Z</time>
      </trkpt>
      <trkpt lat="48.25718" lon="-3.51413">
        <ele>105.1</ele>
        <time>2022-06-12T12:07:10Z</time>
      </trkpt>
      <trkpt lat="48.25718" lon="-3.51412">
        <ele>105.1</ele>
        <time>2022-06-12T12:07:11Z</time>
      </trkpt>
      <trkpt lat="48.25716" lon="-3.51408">
        <ele>105.1</ele>
        <time>2022-06-12T12:07:13Z</time>
      </trkpt>
      <trkpt lat="48.25715" lon="-3.51407">
        <ele>105.1</ele>
        <time>2022-06-12T12:07:14Z</time>
      </trkpt>
      <trkpt lat="48.25713" lon="-3.51402">
        <ele>105.1</ele>
        <time>2022-06-12T12:07:15Z</time>
      </trkpt>
      <trkpt lat="48.2571" lon="-3.51396">
        <ele>105.2</ele>
        <time>2022-06-12T12:07:17Z</time>
      </trkpt>
      <trkpt lat="48.25708" lon="-3.51394">
        <ele>105.2</ele>
        <time>2022-06-12T12:07:18Z</time>
      </trkpt>
      <trkpt lat="48.25707" lon="-3.51392">
        <ele>105.2</ele>
        <time>2022-06-12T12:07:19Z</time>
      </trkpt>
      <trkpt lat="48.25707" lon="-3.5139">
        <ele>105.2</ele>
        <time>2022-06-12T12:07:21Z</time>
      </trkpt>
      <trkpt lat="48.25707" lon="-3.51388">
        <ele>105.2</ele>
        <time>2022-06-12T12:07:22Z</time>
      </trkpt>
      <trkpt lat="48.25706" lon="-3.51387">
        <ele>105.2</ele>
        <time>2022-06-12T12:07:23Z</time>
      </trkpt>
      <trkpt lat="48.25706" lon="-3.51386">
        <ele>105.2</ele>
        <time>2022-06-12T12:07:24Z</time>
      </trkpt>
      <trkpt lat="48.25706" lon="-3.51386">
        <ele>105.2</ele>
        <time>2022-06-12T12:07:25Z</time>
      </trkpt>
      <trkpt lat="48.25706" lon="-3.51385">
        <ele>105.2</ele>
        <time>2022-06-12T12:07:26Z</time>
      </trkpt>
      <trkpt lat="48.25706" lon="-3.51384">
        <ele>105.2</ele>
        <time>2022-06-12T12:07:27Z</time>
      </trkpt>
      <trkpt lat="48.25706" lon="-3.51382">
        <ele>105.2</ele>
        <time>2022-06-12T12:07:29Z</time>
      </trkpt>
      <trkpt lat="48.25706" lon="-3.51382">
        <ele>105.2</ele>
        <time>2022-06-12T12:07:30Z</time>
      </trkpt>
      <trkpt lat="48.25706" lon="-3.51381">
        <ele>105.2</ele>
        <time>2022-06-12T12:07:31Z</time>
      </trkpt>
      <trkpt lat="48.25706" lon="-3.5138">
        <ele>105.2</ele>
        <time>2022-06-12T12:07:33Z</time>
      </trkpt>
      <trkpt lat="48.25706" lon="-3.51379">
        <ele>105.2</ele>
        <time>2022-06-12T12:07:34Z</time>
      </trkpt>
      <trkpt lat="48.25705" lon="-3.51377">
        <ele>105.2</ele>
        <time>2022-06-12T12:07:35Z</time>
      </trkpt>
      <trkpt lat="48.25705" lon="-3.51376">
        <ele>105.2</ele>
        <time>2022-06-12T12:07:36Z</time>
      </trkpt>
      <trkpt lat="48.25705" lon="-3.51375">
        <ele>105.2</ele>
        <time>2022-06-12T12:07:37Z</time>
      </trkpt>
      <trkpt lat="48.25706" lon="-3.51376">
        <ele>105.2</ele>
        <time>2022-06-12T12:07:38Z</time>
      </trkpt>
      <trkpt lat="48.25706" lon="-3.51374">
        <ele>105.2</ele>
        <time>2022-06-12T12:07:39Z</time>
      </trkpt>
      <trkpt lat="48.25705" lon="-3.51372">
        <ele>105.2</ele>
        <time>2022-06-12T12:07:41Z</time>
      </trkpt>
      <trkpt lat="48.25705" lon="-3.5137">
        <ele>105.2</ele>
        <time>2022-06-12T12:07:42Z</time>
      </trkpt>
      <trkpt lat="48.25705" lon="-3.51368">
        <ele>105.1</ele>
        <time>2022-06-12T12:07:43Z</time>
      </trkpt>
      <trkpt lat="48.25705" lon="-3.51366">
        <ele>105.1</ele>
        <time>2022-06-12T12:07:45Z</time>
      </trkpt>
      <trkpt lat="48.25705" lon="-3.51364">
        <ele>105.1</ele>
        <time>2022-06-12T12:07:46Z</time>
      </trkpt>
      <trkpt lat="48.25704" lon="-3.51362">
        <ele>105.1</ele>
        <time>2022-06-12T12:07:47Z</time>
      </trkpt>
      <trkpt lat="48.25704" lon="-3.5136">
        <ele>105.1</ele>
        <time>2022-06-12T12:07:48Z</time>
      </trkpt>
      <trkpt lat="48.25704" lon="-3.51357">
        <ele>105.1</ele>
        <time>2022-06-12T12:07:50Z</time>
      </trkpt>
      <trkpt lat="48.25705" lon="-3.51356">
        <ele>105.1</ele>
        <time>2022-06-12T12:07:51Z</time>
      </trkpt>
      <trkpt lat="48.25705" lon="-3.51355">
        <ele>105.1</ele>
        <time>2022-06-12T12:07:52Z</time>
      </trkpt>
      <trkpt lat="48.25705" lon="-3.51356">
        <ele>105.1</ele>
        <time>2022-06-12T12:07:53Z</time>
      </trkpt>
      <trkpt lat="48.25706" lon="-3.51355">
        <ele>105.1</ele>
        <time>2022-06-12T12:07:54Z</time>
      </trkpt>
      <trkpt lat="48.25706" lon="-3.51355">
        <ele>105.1</ele>
        <time>2022-06-12T12:07:55Z</time>
      </trkpt>
      <trkpt lat="48.25706" lon="-3.51355">
        <ele>105.1</ele>
        <time>2022-06-12T12:07:56Z</time>
      </trkpt>
      <trkpt lat="48.25706" lon="-3.51355">
        <ele>105.1</ele>
        <time>2022-06-12T12:07:57Z</time>
      </trkpt>
      <trkpt lat="48.25706" lon="-3.51355">
        <ele>105.1</ele>
        <time>2022-06-12T12:07:58Z</time>
      </trkpt>
      <trkpt lat="48.25706" lon="-3.51355">
        <ele>105.1</ele>
        <time>2022-06-12T12:07:59Z</time>
      </trkpt>
      <trkpt lat="48.25706" lon="-3.51355">
        <ele>105.1</ele>
        <time>2022-06-12T12:08:00Z</time>
      </trkpt>
      <trkpt lat="48.25706" lon="-3.51353">
        <ele>105.1</ele>
        <time>2022-06-12T12:08:01Z</time>
      </trkpt>
      <trkpt lat="48.25706" lon="-3.51351">
        <ele>105.1</ele>
        <time>2022-06-12T12:08:03Z</time>
      </trkpt>
      <trkpt lat="48.25705" lon="-3.51349">
        <ele>105.1</ele>
        <time>2022-06-12T12:08:04Z</time>
      </trkpt>
      <trkpt lat="48.25705" lon="-3.51348">
        <ele>105.1</ele>
        <time>2022-06-12T12:08:05Z</time>
      </trkpt>
      <trkpt lat="48.25705" lon="-3.51347">
        <ele>105.1</ele>
        <time>2022-06-12T12:08:06Z</time>
      </trkpt>
      <trkpt lat="48.25705" lon="-3.51345">
        <ele>105.1</ele>
        <time>2022-06-12T12:08:07Z</time>
      </trkpt>
      <trkpt lat="48.25704" lon="-3.51343">
        <ele>105.1</ele>
        <time>2022-06-12T12:08:08Z</time>
      </trkpt>
      <trkpt lat="48.25703" lon="-3.51341">
        <ele>105.1</ele>
        <time>2022-06-12T12:08:10Z</time>
      </trkpt>
      <trkpt lat="48.25703" lon="-3.51339">
        <ele>105.1</ele>
        <time>2022-06-12T12:08:11Z</time>
      </trkpt>
      <trkpt lat="48.25702" lon="-3.51337">
        <ele>105.1</ele>
        <time>2022-06-12T12:08:12Z</time>
      </trkpt>
      <trkpt lat="48.25702" lon="-3.51336">
        <ele>105.1</ele>
        <time>2022-06-12T12:08:13Z</time>
      </trkpt>
      <trkpt lat="48.25701" lon="-3.51334">
        <ele>105</ele>
        <time>2022-06-12T12:08:14Z</time>
      </trkpt>
      <trkpt lat="48.25701" lon="-3.51333">
        <ele>105</ele>
        <time>2022-06-12T12:08:15Z</time>
      </trkpt>
      <trkpt lat="48.25701" lon="-3.51332">
        <ele>105</ele>
        <time>2022-06-12T12:08:16Z</time>
      </trkpt>
      <trkpt lat="48.257" lon="-3.5133">
        <ele>105</ele>
        <time>2022-06-12T12:08:18Z</time>
      </trkpt>
      <trkpt lat="48.257" lon="-3.51329">
        <ele>105</ele>
        <time>2022-06-12T12:08:19Z</time>
      </trkpt>
      <trkpt lat="48.25699" lon="-3.51328">
        <ele>105</ele>
        <time>2022-06-12T12:08:20Z</time>
      </trkpt>
      <trkpt lat="48.25699" lon="-3.51326">
        <ele>105</ele>
        <time>2022-06-12T12:08:21Z</time>
      </trkpt>
      <trkpt lat="48.25699" lon="-3.51325">
        <ele>105</ele>
        <time>2022-06-12T12:08:22Z</time>
      </trkpt>
      <trkpt lat="48.25698" lon="-3.51323">
        <ele>105</ele>
        <time>2022-06-12T12:08:24Z</time>
      </trkpt>
      <trkpt lat="48.25698" lon="-3.51322">
        <ele>105</ele>
        <time>2022-06-12T12:08:25Z</time>
      </trkpt>
      <trkpt lat="48.25698" lon="-3.5132">
        <ele>105</ele>
        <time>2022-06-12T12:08:26Z</time>
      </trkpt>
      <trkpt lat="48.25698" lon="-3.51318">
        <ele>105</ele>
        <time>2022-06-12T12:08:27Z</time>
      </trkpt>
      <trkpt lat="48.25697" lon="-3.51315">
        <ele>105</ele>
        <time>2022-06-12T12:08:28Z</time>
      </trkpt>
      <trkpt lat="48.25697" lon="-3.51314">
        <ele>105</ele>
        <time>2022-06-12T12:08:29Z</time>
      </trkpt>
      <trkpt lat="48.25696" lon="-3.51313">
        <ele>105</ele>
        <time>2022-06-12T12:08:31Z</time>
      </trkpt>
      <trkpt lat="48.25696" lon="-3.51311">
        <ele>105</ele>
        <time>2022-06-12T12:08:32Z</time>
      </trkpt>
      <trkpt lat="48.25695" lon="-3.5131">
        <ele>105</ele>
        <time>2022-06-12T12:08:33Z</time>
      </trkpt>
      <trkpt lat="48.25695" lon="-3.51308">
        <ele>105</ele>
        <time>2022-06-12T12:08:34Z</time>
      </trkpt>
      <trkpt lat="48.25694" lon="-3.51308">
        <ele>105</ele>
        <time>2022-06-12T12:08:35Z</time>
      </trkpt>
      <trkpt lat="48.25694" lon="-3.51306">
        <ele>105</ele>
        <time>2022-06-12T12:08:36Z</time>
      </trkpt>
      <trkpt lat="48.25693" lon="-3.51305">
        <ele>105</ele>
        <time>2022-06-12T12:08:38Z</time>
      </trkpt>
      <trkpt lat="48.25692" lon="-3.51303">
        <ele>105</ele>
        <time>2022-06-12T12:08:39Z</time>
      </trkpt>
      <trkpt lat="48.25692" lon="-3.51302">
        <ele>105</ele>
        <time>2022-06-12T12:08:40Z</time>
      </trkpt>
      <trkpt lat="48.25691" lon="-3.51301">
        <ele>105</ele>
        <time>2022-06-12T12:08:41Z</time>
      </trkpt>
      <trkpt lat="48.25691" lon="-3.513">
        <ele>105</ele>
        <time>2022-06-12T12:08:42Z</time>
      </trkpt>
      <trkpt lat="48.2569" lon="-3.51297">
        <ele>105</ele>
        <time>2022-06-12T12:08:44Z</time>
      </trkpt>
      <trkpt lat="48.25689" lon="-3.51296">
        <ele>105</ele>
        <time>2022-06-12T12:08:45Z</time>
      </trkpt>
      <trkpt lat="48.25689" lon="-3.51295">
        <ele>105</ele>
        <time>2022-06-12T12:08:46Z</time>
      </trkpt>
      <trkpt lat="48.25689" lon="-3.51293">
        <ele>105</ele>
        <time>2022-06-12T12:08:47Z</time>
      </trkpt>
      <trkpt lat="48.25688" lon="-3.51291">
        <ele>105</ele>
        <time>2022-06-12T12:08:49Z</time>
      </trkpt>
      <trkpt lat="48.25688" lon="-3.5129">
        <ele>105</ele>
        <time>2022-06-12T12:08:50Z</time>
      </trkpt>
      <trkpt lat="48.25688" lon="-3.51289">
        <ele>105</ele>
        <time>2022-06-12T12:08:51Z</time>
      </trkpt>
      <trkpt lat="48.25688" lon="-3.51287">
        <ele>105</ele>
        <time>2022-06-12T12:08:53Z</time>
      </trkpt>
      <trkpt lat="48.25687" lon="-3.51285">
        <ele>105</ele>
        <time>2022-06-12T12:08:54Z</time>
      </trkpt>
      <trkpt lat="48.25687" lon="-3.51284">
        <ele>105</ele>
        <time>2022-06-12T12:08:55Z</time>
      </trkpt>
      <trkpt lat="48.25687" lon="-3.51283">
        <ele>105</ele>
        <time>2022-06-12T12:08:56Z</time>
      </trkpt>
      <trkpt lat="48.25687" lon="-3.51283">
        <ele>105</ele>
        <time>2022-06-12T12:08:57Z</time>
      </trkpt>
      <trkpt lat="48.25687" lon="-3.51283">
        <ele>105</ele>
        <time>2022-06-12T12:08:58Z</time>
      </trkpt>
      <trkpt lat="48.25687" lon="-3.51283">
        <ele>105</ele>
        <time>2022-06-12T12:08:59Z</time>
      </trkpt>
      <trkpt lat="48.25687" lon="-3.51283">
        <ele>105</ele>
        <time>2022-06-12T12:09:00Z</time>
      </trkpt>
      <trkpt lat="48.25687" lon="-3.51284">
        <ele>105</ele>
        <time>2022-06-12T12:09:01Z</time>
      </trkpt>
      <trkpt lat="48.25687" lon="-3.51284">
        <ele>105</ele>
        <time>2022-06-12T12:09:02Z</time>
      </trkpt>
      <trkpt lat="48.25687" lon="-3.51284">
        <ele>105</ele>
        <time>2022-06-12T12:09:03Z</time>
      </trkpt>
      <trkpt lat="48.25687" lon="-3.51284">
        <ele>105</ele>
        <time>2022-06-12T12:09:04Z</time>
      </trkpt>
      <trkpt lat="48.25687" lon="-3.51284">
        <ele>105</ele>
        <time>2022-06-12T12:09:05Z</time>
      </trkpt>
      <trkpt lat="48.25687" lon="-3.51284">
        <ele>105</ele>
        <time>2022-06-12T12:09:06Z</time>
      </trkpt>
      <trkpt lat="48.25687" lon="-3.51284">
        <ele>105</ele>
        <time>2022-06-12T12:09:08Z</time>
      </trkpt>
      <trkpt lat="48.25687" lon="-3.51283">
        <ele>105</ele>
        <time>2022-06-12T12:09:09Z</time>
      </trkpt>
      <trkpt lat="48.25687" lon="-3.51282">
        <ele>105</ele>
        <time>2022-06-12T12:09:10Z</time>
      </trkpt>
      <trkpt lat="48.25686" lon="-3.5128">
        <ele>105</ele>
        <time>2022-06-12T12:09:11Z</time>
      </trkpt>
      <trkpt lat="48.25686" lon="-3.51279">
        <ele>105</ele>
        <time>2022-06-12T12:09:12Z</time>
      </trkpt>
      <trkpt lat="48.25685" lon="-3.51279">
        <ele>105</ele>
        <time>2022-06-12T12:09:13Z</time>
      </trkpt>
      <trkpt lat="48.25685" lon="-3.51277">
        <ele>105</ele>
        <time>2022-06-12T12:09:14Z</time>
      </trkpt>
      <trkpt lat="48.25685" lon="-3.51277">
        <ele>105</ele>
        <time>2022-06-12T12:09:15Z</time>
      </trkpt>
      <trkpt lat="48.25685" lon="-3.51277">
        <ele>105</ele>
        <time>2022-06-12T12:09:16Z</time>
      </trkpt>
      <trkpt lat="48.25685" lon="-3.51277">
        <ele>105</ele>
        <time>2022-06-12T12:09:17Z</time>
      </trkpt>
      <trkpt lat="48.25685" lon="-3.51277">
        <ele>105</ele>
        <time>2022-06-12T12:09:18Z</time>
      </trkpt>
      <trkpt lat="48.25685" lon="-3.51277">
        <ele>105</ele>
        <time>2022-06-12T12:09:19Z</time>
      </trkpt>
      <trkpt lat="48.25685" lon="-3.51277">
        <ele>105.1</ele>
        <time>2022-06-12T12:09:20Z</time>
      </trkpt>
      <trkpt lat="48.25685" lon="-3.51277">
        <ele>105.1</ele>
        <time>2022-06-12T12:09:21Z</time>
      </trkpt>
      <trkpt lat="48.25685" lon="-3.51277">
        <ele>105.1</ele>
        <time>2022-06-12T12:09:22Z</time>
      </trkpt>
      <trkpt lat="48.25685" lon="-3.51277">
        <ele>105.1</ele>
        <time>2022-06-12T12:09:23Z</time>
      </trkpt>
      <trkpt lat="48.25685" lon="-3.51277">
        <ele>105.1</ele>
        <time>2022-06-12T12:09:24Z</time>
      </trkpt>
      <trkpt lat="48.25685" lon="-3.51277">
        <ele>105.1</ele>
        <time>2022-06-12T12:09:25Z</time>
      </trkpt>
      <trkpt lat="48.25685" lon="-3.51277">
        <ele>105.1</ele>
        <time>2022-06-12T12:09:26Z</time>
      </trkpt>
      <trkpt lat="48.25685" lon="-3.51276">
        <ele>105.1</ele>
        <time>2022-06-12T12:09:27Z</time>
      </trkpt>
      <trkpt lat="48.25685" lon="-3.51275">
        <ele>105.1</ele>
        <time>2022-06-12T12:09:28Z</time>
      </trkpt>
      <trkpt lat="48.25684" lon="-3.51274">
        <ele>105.1</ele>
        <time>2022-06-12T12:09:30Z</time>
      </trkpt>
      <trkpt lat="48.25684" lon="-3.51272">
        <ele>105.1</ele>
        <time>2022-06-12T12:09:31Z</time>
      </trkpt>
      <trkpt lat="48.25683" lon="-3.51269">
        <ele>105.1</ele>
        <time>2022-06-12T12:09:32Z</time>
      </trkpt>
      <trkpt lat="48.25682" lon="-3.51267">
        <ele>105.1</ele>
        <time>2022-06-12T12:09:33Z</time>
      </trkpt>
      <trkpt lat="48.25682" lon="-3.51264">
        <ele>105.1</ele>
        <time>2022-06-12T12:09:35Z</time>
      </trkpt>
      <trkpt lat="48.25682" lon="-3.51263">
        <ele>105.1</ele>
        <time>2022-06-12T12:09:36Z</time>
      </trkpt>
      <trkpt lat="48.25681" lon="-3.51261">
        <ele>105.1</ele>
        <time>2022-06-12T12:09:37Z</time>
      </trkpt>
      <trkpt lat="48.25681" lon="-3.5126">
        <ele>105.1</ele>
        <time>2022-06-12T12:09:38Z</time>
      </trkpt>
      <trkpt lat="48.25681" lon="-3.51258">
        <ele>105.1</ele>
        <time>2022-06-12T12:09:39Z</time>
      </trkpt>
      <trkpt lat="48.25681" lon="-3.51257">
        <ele>105.1</ele>
        <time>2022-06-12T12:09:40Z</time>
      </trkpt>
      <trkpt lat="48.25681" lon="-3.51256">
        <ele>105.1</ele>
        <time>2022-06-12T12:09:42Z</time>
      </trkpt>
      <trkpt lat="48.25681" lon="-3.51254">
        <ele>105.1</ele>
        <time>2022-06-12T12:09:43Z</time>
      </trkpt>
      <trkpt lat="48.25681" lon="-3.51252">
        <ele>105.1</ele>
        <time>2022-06-12T12:09:44Z</time>
      </trkpt>
      <trkpt lat="48.25681" lon="-3.51251">
        <ele>105.1</ele>
        <time>2022-06-12T12:09:45Z</time>
      </trkpt>
      <trkpt lat="48.25681" lon="-3.51252">
        <ele>105.1</ele>
        <time>2022-06-12T12:09:46Z</time>
      </trkpt>
      <trkpt lat="48.25681" lon="-3.51253">
        <ele>105.1</ele>
        <time>2022-06-12T12:09:47Z</time>
      </trkpt>
      <trkpt lat="48.25682" lon="-3.51254">
        <ele>105.1</ele>
        <time>2022-06-12T12:09:48Z</time>
      </trkpt>
      <trkpt lat="48.25682" lon="-3.51255">
        <ele>105.1</ele>
        <time>2022-06-12T12:09:49Z</time>
      </trkpt>
      <trkpt lat="48.25682" lon="-3.51256">
        <ele>105.1</ele>
        <time>2022-06-12T12:09:50Z</time>
      </trkpt>
      <trkpt lat="48.25682" lon="-3.51256">
        <ele>105.1</ele>
        <time>2022-06-12T12:09:51Z</time>
      </trkpt>
      <trkpt lat="48.25682" lon="-3.51256">
        <ele>105.1</ele>
        <time>2022-06-12T12:09:52Z</time>
      </trkpt>
      <trkpt lat="48.25682" lon="-3.51256">
        <ele>105.1</ele>
        <time>2022-06-12T12:09:53Z</time>
      </trkpt>
      <trkpt lat="48.25682" lon="-3.51256">
        <ele>105.1</ele>
        <time>2022-06-12T12:09:54Z</time>
      </trkpt>
      <trkpt lat="48.25682" lon="-3.51256">
        <ele>105.1</ele>
        <time>2022-06-12T12:09:55Z</time>
      </trkpt>
      <trkpt lat="48.25682" lon="-3.51256">
        <ele>105.1</ele>
        <time>2022-06-12T12:09:56Z</time>
      </trkpt>
      <trkpt lat="48.25682" lon="-3.51256">
        <ele>105.1</ele>
        <time>2022-06-12T12:09:57Z</time>
      </trkpt>
      <trkpt lat="48.25682" lon="-3.51256">
        <ele>105.1</ele>
        <time>2022-06-12T12:09:58Z</time>
      </trkpt>
      <trkpt lat="48.25682" lon="-3.51256">
        <ele>105.1</ele>
        <time>2022-06-12T12:09:59Z</time>
      </trkpt>
      <trkpt lat="48.25682" lon="-3.51256">
        <ele>105.1</ele>
        <time>2022-06-12T12:10:00Z</time>
      </trkpt>
      <trkpt lat="48.25682" lon="-3.51256">
        <ele>105.1</ele>
        <time>2022-06-12T12:10:01Z</time>
      </trkpt>
      <trkpt lat="48.25682" lon="-3.51257">
        <ele>105.1</ele>
        <time>2022-06-12T12:10:02Z</time>
      </trkpt>
      <trkpt lat="48.25682" lon="-3.51257">
        <ele>105.1</ele>
        <time>2022-06-12T12:10:03Z</time>
      </trkpt>
      <trkpt lat="48.25682" lon="-3.51257">
        <ele>105.1</ele>
        <time>2022-06-12T12:10:04Z</time>
      </trkpt>
      <trkpt lat="48.25682" lon="-3.51257">
        <ele>105.1</ele>
        <time>2022-06-12T12:10:05Z</time>
      </trkpt>
      <trkpt lat="48.25682" lon="-3.51257">
        <ele>105.1</ele>
        <time>2022-06-12T12:10:06Z</time>
      </trkpt>
      <trkpt lat="48.25682" lon="-3.51257">
        <ele>105.1</ele>
        <time>2022-06-12T12:10:07Z</time>
      </trkpt>
      <trkpt lat="48.25682" lon="-3.51257">
        <ele>105.1</ele>
        <time>2022-06-12T12:10:08Z</time>
      </trkpt>
      <trkpt lat="48.25682" lon="-3.51257">
        <ele>105.1</ele>
        <time>2022-06-12T12:10:09Z</time>
      </trkpt>
      <trkpt lat="48.25682" lon="-3.51257">
        <ele>105.1</ele>
        <time>2022-06-12T12:10:10Z</time>
      </trkpt>
      <trkpt lat="48.25682" lon="-3.51257">
        <ele>105.1</ele>
        <time>2022-06-12T12:10:11Z</time>
      </trkpt>
      <trkpt lat="48.25682" lon="-3.51257">
        <ele>105.1</ele>
        <time>2022-06-12T12:10:12Z</time>
      </trkpt>
      <trkpt lat="48.25682" lon="-3.51257">
        <ele>105.1</ele>
        <time>2022-06-12T12:10:13Z</time>
      </trkpt>
      <trkpt lat="48.25682" lon="-3.51257">
        <ele>105.1</ele>
        <time>2022-06-12T12:10:14Z</time>
      </trkpt>
      <trkpt lat="48.25682" lon="-3.51257">
        <ele>105.1</ele>
        <time>2022-06-12T12:10:15Z</time>
      </trkpt>
      <trkpt lat="48.25682" lon="-3.51257">
        <ele>105.1</ele>
        <time>2022-06-12T12:10:16Z</time>
      </trkpt>
      <trkpt lat="48.25682" lon="-3.51257">
        <ele>105.1</ele>
        <time>2022-06-12T12:10:17Z</time>
      </trkpt>
      <trkpt lat="48.25682" lon="-3.51257">
        <ele>105.1</ele>
        <time>2022-06-12T12:10:18Z</time>
      </trkpt>
      <trkpt lat="48.25682" lon="-3.51257">
        <ele>105.1</ele>
        <time>2022-06-12T12:10:19Z</time>
      </trkpt>
      <trkpt lat="48.25682" lon="-3.51257">
        <ele>105.1</ele>
        <time>2022-06-12T12:10:20Z</time>
      </trkpt>
      <trkpt lat="48.25682" lon="-3.51257">
        <ele>105.1</ele>
        <time>2022-06-12T12:10:21Z</time>
      </trkpt>
      <trkpt lat="48.25682" lon="-3.51257">
        <ele>105.1</ele>
        <time>2022-06-12T12:10:22Z</time>
      </trkpt>
      <trkpt lat="48.25682" lon="-3.51257">
        <ele>105.1</ele>
        <time>2022-06-12T12:10:23Z</time>
      </trkpt>
      <trkpt lat="48.25682" lon="-3.51257">
        <ele>105.1</ele>
        <time>2022-06-12T12:10:24Z</time>
      </trkpt>
      <trkpt lat="48.25682" lon="-3.51257">
        <ele>105.1</ele>
        <time>2022-06-12T12:10:25Z</time>
      </trkpt>
      <trkpt lat="48.25682" lon="-3.51257">
        <ele>105.1</ele>
        <time>2022-06-12T12:10:26Z</time>
      </trkpt>
      <trkpt lat="48.25682" lon="-3.51257">
        <ele>105.1</ele>
        <time>2022-06-12T12:10:27Z</time>
      </trkpt>
      <trkpt lat="48.25681" lon="-3.51256">
        <ele>105.1</ele>
        <time>2022-06-12T12:10:28Z</time>
      </trkpt>
      <trkpt lat="48.25681" lon="-3.51255">
        <ele>105.1</ele>
        <time>2022-06-12T12:10:29Z</time>
      </trkpt>
      <trkpt lat="48.25681" lon="-3.51255">
        <ele>105.1</ele>
        <time>2022-06-12T12:10:30Z</time>
      </trkpt>
      <trkpt lat="48.25681" lon="-3.51255">
        <ele>105.1</ele>
        <time>2022-06-12T12:10:31Z</time>
      </trkpt>
      <trkpt lat="48.25681" lon="-3.51254">
        <ele>105.1</ele>
        <time>2022-06-12T12:10:32Z</time>
      </trkpt>
      <trkpt lat="48.25681" lon="-3.51254">
        <ele>105.1</ele>
        <time>2022-06-12T12:10:33Z</time>
      </trkpt>
      <trkpt lat="48.25681" lon="-3.51254">
        <ele>105.1</ele>
        <time>2022-06-12T12:10:34Z</time>
      </trkpt>
      <trkpt lat="48.25681" lon="-3.51254">
        <ele>105.1</ele>
        <time>2022-06-12T12:10:35Z</time>
      </trkpt>
      <trkpt lat="48.25681" lon="-3.51254">
        <ele>105.1</ele>
        <time>2022-06-12T12:10:36Z</time>
      </trkpt>
      <trkpt lat="48.25681" lon="-3.51254">
        <ele>105.1</ele>
        <time>2022-06-12T12:10:37Z</time>
      </trkpt>
      <trkpt lat="48.25681" lon="-3.51254">
        <ele>105.1</ele>
        <time>2022-06-12T12:10:38Z</time>
      </trkpt>
      <trkpt lat="48.2568" lon="-3.51254">
        <ele>105.1</ele>
        <time>2022-06-12T12:10:39Z</time>
      </trkpt>
      <trkpt lat="48.2568" lon="-3.51254">
        <ele>105.1</ele>
        <time>2022-06-12T12:10:40Z</time>
      </trkpt>
      <trkpt lat="48.2568" lon="-3.51254">
        <ele>105.1</ele>
        <time>2022-06-12T12:10:41Z</time>
      </trkpt>
      <trkpt lat="48.2568" lon="-3.51253">
        <ele>105.1</ele>
        <time>2022-06-12T12:10:42Z</time>
      </trkpt>
      <trkpt lat="48.25679" lon="-3.51253">
        <ele>105.1</ele>
        <time>2022-06-12T12:10:43Z</time>
      </trkpt>
      <trkpt lat="48.25679" lon="-3.51253">
        <ele>105.1</ele>
        <time>2022-06-12T12:10:44Z</time>
      </trkpt>
      <trkpt lat="48.25679" lon="-3.51253">
        <ele>105.1</ele>
        <time>2022-06-12T12:10:45Z</time>
      </trkpt>
      <trkpt lat="48.25679" lon="-3.51253">
        <ele>105.1</ele>
        <time>2022-06-12T12:10:46Z</time>
      </trkpt>
      <trkpt lat="48.25679" lon="-3.51253">
        <ele>105.1</ele>
        <time>2022-06-12T12:10:47Z</time>
      </trkpt>
      <trkpt lat="48.25679" lon="-3.51253">
        <ele>105.1</ele>
        <time>2022-06-12T12:10:48Z</time>
      </trkpt>
      <trkpt lat="48.25679" lon="-3.51252">
        <ele>105.1</ele>
        <time>2022-06-12T12:10:50Z</time>
      </trkpt>
      <trkpt lat="48.25679" lon="-3.51252">
        <ele>105.1</ele>
        <time>2022-06-12T12:10:51Z</time>
      </trkpt>
      <trkpt lat="48.25678" lon="-3.51251">
        <ele>105.1</ele>
        <time>2022-06-12T12:10:52Z</time>
      </trkpt>
      <trkpt lat="48.25678" lon="-3.5125">
        <ele>105.1</ele>
        <time>2022-06-12T12:10:53Z</time>
      </trkpt>
      <trkpt lat="48.25677" lon="-3.51249">
        <ele>105.1</ele>
        <time>2022-06-12T12:10:54Z</time>
      </trkpt>
      <trkpt lat="48.25677" lon="-3.51247">
        <ele>105.1</ele>
        <time>2022-06-12T12:10:55Z</time>
      </trkpt>
      <trkpt lat="48.25676" lon="-3.51246">
        <ele>105.1</ele>
        <time>2022-06-12T12:10:56Z</time>
      </trkpt>
      <trkpt lat="48.25676" lon="-3.51246">
        <ele>105.1</ele>
        <time>2022-06-12T12:10:57Z</time>
      </trkpt>
      <trkpt lat="48.25676" lon="-3.51245">
        <ele>105.1</ele>
        <time>2022-06-12T12:10:58Z</time>
      </trkpt>
      <trkpt lat="48.25676" lon="-3.51244">
        <ele>105.1</ele>
        <time>2022-06-12T12:10:59Z</time>
      </trkpt>
      <trkpt lat="48.25675" lon="-3.51244">
        <ele>105.1</ele>
        <time>2022-06-12T12:11:00Z</time>
      </trkpt>
      <trkpt lat="48.25675" lon="-3.51244">
        <ele>105.1</ele>
        <time>2022-06-12T12:11:01Z</time>
      </trkpt>
      <trkpt lat="48.25675" lon="-3.51244">
        <ele>105.1</ele>
        <time>2022-06-12T12:11:02Z</time>
      </trkpt>
      <trkpt lat="48.25675" lon="-3.51244">
        <ele>105.1</ele>
        <time>2022-06-12T12:11:03Z</time>
      </trkpt>
      <trkpt lat="48.25675" lon="-3.51245">
        <ele>105.1</ele>
        <time>2022-06-12T12:11:04Z</time>
      </trkpt>
      <trkpt lat="48.25675" lon="-3.51245">
        <ele>105.1</ele>
        <time>2022-06-12T12:11:05Z</time>
      </trkpt>
      <trkpt lat="48.25675" lon="-3.51246">
        <ele>105.1</ele>
        <time>2022-06-12T12:11:06Z</time>
      </trkpt>
      <trkpt lat="48.25674" lon="-3.51246">
        <ele>105.1</ele>
        <time>2022-06-12T12:11:07Z</time>
      </trkpt>
      <trkpt lat="48.25674" lon="-3.51245">
        <ele>105.1</ele>
        <time>2022-06-12T12:11:08Z</time>
      </trkpt>
      <trkpt lat="48.25673" lon="-3.51244">
        <ele>105.1</ele>
        <time>2022-06-12T12:11:09Z</time>
      </trkpt>
      <trkpt lat="48.25673" lon="-3.51242">
        <ele>105.1</ele>
        <time>2022-06-12T12:11:10Z</time>
      </trkpt>
      <trkpt lat="48.25673" lon="-3.5124">
        <ele>105.1</ele>
        <time>2022-06-12T12:11:11Z</time>
      </trkpt>
      <trkpt lat="48.25673" lon="-3.51239">
        <ele>105.1</ele>
        <time>2022-06-12T12:11:12Z</time>
      </trkpt>
      <trkpt lat="48.25674" lon="-3.51238">
        <ele>105.1</ele>
        <time>2022-06-12T12:11:13Z</time>
      </trkpt>
      <trkpt lat="48.25674" lon="-3.51237">
        <ele>105.1</ele>
        <time>2022-06-12T12:11:14Z</time>
      </trkpt>
      <trkpt lat="48.25674" lon="-3.51237">
        <ele>105.1</ele>
        <time>2022-06-12T12:11:15Z</time>
      </trkpt>
      <trkpt lat="48.25674" lon="-3.51237">
        <ele>105.1</ele>
        <time>2022-06-12T12:11:16Z</time>
      </trkpt>
      <trkpt lat="48.25674" lon="-3.51236">
        <ele>105.1</ele>
        <time>2022-06-12T12:11:18Z</time>
      </trkpt>
      <trkpt lat="48.25674" lon="-3.51236">
        <ele>105.1</ele>
        <time>2022-06-12T12:11:19Z</time>
      </trkpt>
      <trkpt lat="48.25674" lon="-3.51235">
        <ele>105.1</ele>
        <time>2022-06-12T12:11:20Z</time>
      </trkpt>
      <trkpt lat="48.25673" lon="-3.51234">
        <ele>105.1</ele>
        <time>2022-06-12T12:11:21Z</time>
      </trkpt>
      <trkpt lat="48.25673" lon="-3.51233">
        <ele>105.1</ele>
        <time>2022-06-12T12:11:22Z</time>
      </trkpt>
      <trkpt lat="48.25672" lon="-3.51228">
        <ele>105.1</ele>
        <time>2022-06-12T12:11:23Z</time>
      </trkpt>
      <trkpt lat="48.25672" lon="-3.51227">
        <ele>105.1</ele>
        <time>2022-06-12T12:11:24Z</time>
      </trkpt>
      <trkpt lat="48.25671" lon="-3.51225">
        <ele>105.1</ele>
        <time>2022-06-12T12:11:25Z</time>
      </trkpt>
      <trkpt lat="48.25671" lon="-3.51223">
        <ele>105.1</ele>
        <time>2022-06-12T12:11:27Z</time>
      </trkpt>
      <trkpt lat="48.25669" lon="-3.51221">
        <ele>105.1</ele>
        <time>2022-06-12T12:11:28Z</time>
      </trkpt>
      <trkpt lat="48.25668" lon="-3.51219">
        <ele>105.1</ele>
        <time>2022-06-12T12:11:29Z</time>
      </trkpt>
      <trkpt lat="48.25668" lon="-3.51218">
        <ele>105.1</ele>
        <time>2022-06-12T12:11:30Z</time>
      </trkpt>
      <trkpt lat="48.25667" lon="-3.51216">
        <ele>105.2</ele>
        <time>2022-06-12T12:11:31Z</time>
      </trkpt>
      <trkpt lat="48.25665" lon="-3.51212">
        <ele>105.2</ele>
        <time>2022-06-12T12:11:32Z</time>
      </trkpt>
      <trkpt lat="48.25664" lon="-3.51211">
        <ele>105.2</ele>
        <time>2022-06-12T12:11:34Z</time>
      </trkpt>
      <trkpt lat="48.25663" lon="-3.51209">
        <ele>105.2</ele>
        <time>2022-06-12T12:11:35Z</time>
      </trkpt>
      <trkpt lat="48.25662" lon="-3.51207">
        <ele>105.2</ele>
        <time>2022-06-12T12:11:36Z</time>
      </trkpt>
      <trkpt lat="48.25661" lon="-3.51204">
        <ele>105.2</ele>
        <time>2022-06-12T12:11:38Z</time>
      </trkpt>
      <trkpt lat="48.2566" lon="-3.51202">
        <ele>105.2</ele>
        <time>2022-06-12T12:11:39Z</time>
      </trkpt>
      <trkpt lat="48.25658" lon="-3.51199">
        <ele>105.2</ele>
        <time>2022-06-12T12:11:40Z</time>
      </trkpt>
      <trkpt lat="48.25657" lon="-3.51198">
        <ele>105.2</ele>
        <time>2022-06-12T12:11:41Z</time>
      </trkpt>
      <trkpt lat="48.25657" lon="-3.51197">
        <ele>105.2</ele>
        <time>2022-06-12T12:11:42Z</time>
      </trkpt>
      <trkpt lat="48.25656" lon="-3.51195">
        <ele>105.2</ele>
        <time>2022-06-12T12:11:43Z</time>
      </trkpt>
      <trkpt lat="48.25655" lon="-3.51192">
        <ele>105.2</ele>
        <time>2022-06-12T12:11:44Z</time>
      </trkpt>
      <trkpt lat="48.25654" lon="-3.51191">
        <ele>105.2</ele>
        <time>2022-06-12T12:11:45Z</time>
      </trkpt>
      <trkpt lat="48.25654" lon="-3.51189">
        <ele>105.2</ele>
        <time>2022-06-12T12:11:46Z</time>
      </trkpt>
      <trkpt lat="48.25653" lon="-3.51187">
        <ele>105.2</ele>
        <time>2022-06-12T12:11:47Z</time>
      </trkpt>
      <trkpt lat="48.25652" lon="-3.51186">
        <ele>105.2</ele>
        <time>2022-06-12T12:11:49Z</time>
      </trkpt>
      <trkpt lat="48.25652" lon="-3.51185">
        <ele>105.2</ele>
        <time>2022-06-12T12:11:50Z</time>
      </trkpt>
      <trkpt lat="48.25651" lon="-3.51183">
        <ele>105.2</ele>
        <time>2022-06-12T12:11:51Z</time>
      </trkpt>
      <trkpt lat="48.2565" lon="-3.5118">
        <ele>105.2</ele>
        <time>2022-06-12T12:11:52Z</time>
      </trkpt>
      <trkpt lat="48.25649" lon="-3.51177">
        <ele>105.2</ele>
        <time>2022-06-12T12:11:54Z</time>
      </trkpt>
      <trkpt lat="48.25649" lon="-3.51176">
        <ele>105.2</ele>
        <time>2022-06-12T12:11:55Z</time>
      </trkpt>
      <trkpt lat="48.25648" lon="-3.51173">
        <ele>105.1</ele>
        <time>2022-06-12T12:11:56Z</time>
      </trkpt>
      <trkpt lat="48.25647" lon="-3.51171">
        <ele>105.1</ele>
        <time>2022-06-12T12:11:57Z</time>
      </trkpt>
      <trkpt lat="48.25646" lon="-3.5117">
        <ele>105.1</ele>
        <time>2022-06-12T12:11:58Z</time>
      </trkpt>
      <trkpt lat="48.25646" lon="-3.51168">
        <ele>105.1</ele>
        <time>2022-06-12T12:11:59Z</time>
      </trkpt>
      <trkpt lat="48.25644" lon="-3.51164">
        <ele>105.1</ele>
        <time>2022-06-12T12:12:00Z</time>
      </trkpt>
      <trkpt lat="48.25644" lon="-3.51162">
        <ele>105.1</ele>
        <time>2022-06-12T12:12:02Z</time>
      </trkpt>
      <trkpt lat="48.25644" lon="-3.5116">
        <ele>105.1</ele>
        <time>2022-06-12T12:12:03Z</time>
      </trkpt>
      <trkpt lat="48.25643" lon="-3.51158">
        <ele>105.1</ele>
        <time>2022-06-12T12:12:05Z</time>
      </trkpt>
      <trkpt lat="48.25643" lon="-3.51156">
        <ele>105.1</ele>
        <time>2022-06-12T12:12:06Z</time>
      </trkpt>
      <trkpt lat="48.25642" lon="-3.51154">
        <ele>105.1</ele>
        <time>2022-06-12T12:12:07Z</time>
      </trkpt>
      <trkpt lat="48.25642" lon="-3.51152">
        <ele>105.1</ele>
        <time>2022-06-12T12:12:08Z</time>
      </trkpt>
      <trkpt lat="48.25641" lon="-3.51149">
        <ele>105.2</ele>
        <time>2022-06-12T12:12:09Z</time>
      </trkpt>
      <trkpt lat="48.25641" lon="-3.51147">
        <ele>105.2</ele>
        <time>2022-06-12T12:12:11Z</time>
      </trkpt>
      <trkpt lat="48.25641" lon="-3.51145">
        <ele>105.2</ele>
        <time>2022-06-12T12:12:12Z</time>
      </trkpt>
      <trkpt lat="48.2564" lon="-3.51143">
        <ele>105.2</ele>
        <time>2022-06-12T12:12:13Z</time>
      </trkpt>
      <trkpt lat="48.2564" lon="-3.51141">
        <ele>105.2</ele>
        <time>2022-06-12T12:12:14Z</time>
      </trkpt>
      <trkpt lat="48.2564" lon="-3.51139">
        <ele>105.2</ele>
        <time>2022-06-12T12:12:15Z</time>
      </trkpt>
      <trkpt lat="48.25639" lon="-3.51136">
        <ele>105.2</ele>
        <time>2022-06-12T12:12:16Z</time>
      </trkpt>
      <trkpt lat="48.25639" lon="-3.51134">
        <ele>105.2</ele>
        <time>2022-06-12T12:12:18Z</time>
      </trkpt>
      <trkpt lat="48.25639" lon="-3.51131">
        <ele>105.2</ele>
        <time>2022-06-12T12:12:19Z</time>
      </trkpt>
      <trkpt lat="48.25638" lon="-3.51129">
        <ele>105.2</ele>
        <time>2022-06-12T12:12:20Z</time>
      </trkpt>
      <trkpt lat="48.25637" lon="-3.51125">
        <ele>105.2</ele>
        <time>2022-06-12T12:12:21Z</time>
      </trkpt>
      <trkpt lat="48.25637" lon="-3.51124">
        <ele>105.2</ele>
        <time>2022-06-12T12:12:22Z</time>
      </trkpt>
      <trkpt lat="48.25637" lon="-3.51121">
        <ele>105.2</ele>
        <time>2022-06-12T12:12:23Z</time>
      </trkpt>
      <trkpt lat="48.25636" lon="-3.51119">
        <ele>105.3</ele>
        <time>2022-06-12T12:12:24Z</time>
      </trkpt>
      <trkpt lat="48.25636" lon="-3.51118">
        <ele>105.3</ele>
        <time>2022-06-12T12:12:25Z</time>
      </trkpt>
      <trkpt lat="48.25636" lon="-3.51115">
        <ele>105.3</ele>
        <time>2022-06-12T12:12:26Z</time>
      </trkpt>
      <trkpt lat="48.25636" lon="-3.51113">
        <ele>105.3</ele>
        <time>2022-06-12T12:12:27Z</time>
      </trkpt>
      <trkpt lat="48.25636" lon="-3.51112">
        <ele>105.3</ele>
        <time>2022-06-12T12:12:28Z</time>
      </trkpt>
      <trkpt lat="48.25636" lon="-3.5111">
        <ele>105.3</ele>
        <time>2022-06-12T12:12:29Z</time>
      </trkpt>
      <trkpt lat="48.25635" lon="-3.51108">
        <ele>105.3</ele>
        <time>2022-06-12T12:12:30Z</time>
      </trkpt>
      <trkpt lat="48.25635" lon="-3.51105">
        <ele>105.3</ele>
        <time>2022-06-12T12:12:31Z</time>
      </trkpt>
      <trkpt lat="48.25635" lon="-3.51103">
        <ele>105.3</ele>
        <time>2022-06-12T12:12:32Z</time>
      </trkpt>
      <trkpt lat="48.25635" lon="-3.51101">
        <ele>105.3</ele>
        <time>2022-06-12T12:12:33Z</time>
      </trkpt>
      <trkpt lat="48.25635" lon="-3.51099">
        <ele>105.3</ele>
        <time>2022-06-12T12:12:35Z</time>
      </trkpt>
      <trkpt lat="48.25635" lon="-3.51097">
        <ele>105.3</ele>
        <time>2022-06-12T12:12:36Z</time>
      </trkpt>
      <trkpt lat="48.25634" lon="-3.51094">
        <ele>105.3</ele>
        <time>2022-06-12T12:12:37Z</time>
      </trkpt>
      <trkpt lat="48.25634" lon="-3.51091">
        <ele>105.3</ele>
        <time>2022-06-12T12:12:38Z</time>
      </trkpt>
      <trkpt lat="48.25634" lon="-3.5109">
        <ele>105.3</ele>
        <time>2022-06-12T12:12:39Z</time>
      </trkpt>
      <trkpt lat="48.25634" lon="-3.51089">
        <ele>105.3</ele>
        <time>2022-06-12T12:12:40Z</time>
      </trkpt>
      <trkpt lat="48.25633" lon="-3.51085">
        <ele>105.3</ele>
        <time>2022-06-12T12:12:41Z</time>
      </trkpt>
      <trkpt lat="48.25633" lon="-3.51083">
        <ele>105.3</ele>
        <time>2022-06-12T12:12:43Z</time>
      </trkpt>
      <trkpt lat="48.25632" lon="-3.51081">
        <ele>105.3</ele>
        <time>2022-06-12T12:12:44Z</time>
      </trkpt>
      <trkpt lat="48.25632" lon="-3.51079">
        <ele>105.3</ele>
        <time>2022-06-12T12:12:45Z</time>
      </trkpt>
      <trkpt lat="48.25631" lon="-3.51076">
        <ele>105.3</ele>
        <time>2022-06-12T12:12:46Z</time>
      </trkpt>
      <trkpt lat="48.2563" lon="-3.51075">
        <ele>105.3</ele>
        <time>2022-06-12T12:12:47Z</time>
      </trkpt>
      <trkpt lat="48.2563" lon="-3.51073">
        <ele>105.4</ele>
        <time>2022-06-12T12:12:48Z</time>
      </trkpt>
      <trkpt lat="48.25629" lon="-3.51072">
        <ele>105.4</ele>
        <time>2022-06-12T12:12:49Z</time>
      </trkpt>
      <trkpt lat="48.25629" lon="-3.51069">
        <ele>105.4</ele>
        <time>2022-06-12T12:12:51Z</time>
      </trkpt>
      <trkpt lat="48.25628" lon="-3.51066">
        <ele>105.4</ele>
        <time>2022-06-12T12:12:52Z</time>
      </trkpt>
      <trkpt lat="48.25628" lon="-3.51065">
        <ele>105.4</ele>
        <time>2022-06-12T12:12:53Z</time>
      </trkpt>
      <trkpt lat="48.25627" lon="-3.51064">
        <ele>105.4</ele>
        <time>2022-06-12T12:12:54Z</time>
      </trkpt>
      <trkpt lat="48.25627" lon="-3.51063">
        <ele>105.4</ele>
        <time>2022-06-12T12:12:55Z</time>
      </trkpt>
      <trkpt lat="48.25626" lon="-3.5106">
        <ele>105.4</ele>
        <time>2022-06-12T12:12:57Z</time>
      </trkpt>
      <trkpt lat="48.25625" lon="-3.51059">
        <ele>105.4</ele>
        <time>2022-06-12T12:12:58Z</time>
      </trkpt>
      <trkpt lat="48.25625" lon="-3.51057">
        <ele>105.4</ele>
        <time>2022-06-12T12:12:59Z</time>
      </trkpt>
      <trkpt lat="48.25625" lon="-3.51056">
        <ele>105.5</ele>
        <time>2022-06-12T12:13:00Z</time>
      </trkpt>
      <trkpt lat="48.25624" lon="-3.51054">
        <ele>105.5</ele>
        <time>2022-06-12T12:13:01Z</time>
      </trkpt>
      <trkpt lat="48.25624" lon="-3.51052">
        <ele>105.5</ele>
        <time>2022-06-12T12:13:02Z</time>
      </trkpt>
      <trkpt lat="48.25623" lon="-3.5105">
        <ele>105.5</ele>
        <time>2022-06-12T12:13:04Z</time>
      </trkpt>
      <trkpt lat="48.25622" lon="-3.51047">
        <ele>105.5</ele>
        <time>2022-06-12T12:13:05Z</time>
      </trkpt>
      <trkpt lat="48.25622" lon="-3.51046">
        <ele>105.5</ele>
        <time>2022-06-12T12:13:06Z</time>
      </trkpt>
      <trkpt lat="48.25622" lon="-3.51045">
        <ele>105.6</ele>
        <time>2022-06-12T12:13:07Z</time>
      </trkpt>
      <trkpt lat="48.25621" lon="-3.51044">
        <ele>105.6</ele>
        <time>2022-06-12T12:13:08Z</time>
      </trkpt>
      <trkpt lat="48.25621" lon="-3.51042">
        <ele>105.6</ele>
        <time>2022-06-12T12:13:09Z</time>
      </trkpt>
      <trkpt lat="48.2562" lon="-3.5104">
        <ele>105.6</ele>
        <time>2022-06-12T12:13:10Z</time>
      </trkpt>
      <trkpt lat="48.2562" lon="-3.51038">
        <ele>105.6</ele>
        <time>2022-06-12T12:13:11Z</time>
      </trkpt>
      <trkpt lat="48.25619" lon="-3.51035">
        <ele>105.7</ele>
        <time>2022-06-12T12:13:13Z</time>
      </trkpt>
      <trkpt lat="48.25619" lon="-3.51034">
        <ele>105.7</ele>
        <time>2022-06-12T12:13:14Z</time>
      </trkpt>
      <trkpt lat="48.25618" lon="-3.51032">
        <ele>105.7</ele>
        <time>2022-06-12T12:13:15Z</time>
      </trkpt>
      <trkpt lat="48.25618" lon="-3.5103">
        <ele>105.7</ele>
        <time>2022-06-12T12:13:16Z</time>
      </trkpt>
      <trkpt lat="48.25617" lon="-3.51027">
        <ele>105.7</ele>
        <time>2022-06-12T12:13:17Z</time>
      </trkpt>
      <trkpt lat="48.25617" lon="-3.51026">
        <ele>105.8</ele>
        <time>2022-06-12T12:13:18Z</time>
      </trkpt>
      <trkpt lat="48.25617" lon="-3.51024">
        <ele>105.8</ele>
        <time>2022-06-12T12:13:19Z</time>
      </trkpt>
      <trkpt lat="48.25617" lon="-3.51023">
        <ele>105.8</ele>
        <time>2022-06-12T12:13:20Z</time>
      </trkpt>
      <trkpt lat="48.25616" lon="-3.51021">
        <ele>105.8</ele>
        <time>2022-06-12T12:13:21Z</time>
      </trkpt>
      <trkpt lat="48.25616" lon="-3.51018">
        <ele>105.8</ele>
        <time>2022-06-12T12:13:22Z</time>
      </trkpt>
      <trkpt lat="48.25615" lon="-3.51016">
        <ele>105.9</ele>
        <time>2022-06-12T12:13:23Z</time>
      </trkpt>
      <trkpt lat="48.25615" lon="-3.51013">
        <ele>105.9</ele>
        <time>2022-06-12T12:13:25Z</time>
      </trkpt>
      <trkpt lat="48.25614" lon="-3.51011">
        <ele>105.9</ele>
        <time>2022-06-12T12:13:26Z</time>
      </trkpt>
      <trkpt lat="48.25614" lon="-3.51009">
        <ele>106</ele>
        <time>2022-06-12T12:13:27Z</time>
      </trkpt>
      <trkpt lat="48.25614" lon="-3.51008">
        <ele>106</ele>
        <time>2022-06-12T12:13:28Z</time>
      </trkpt>
      <trkpt lat="48.25614" lon="-3.51007">
        <ele>106</ele>
        <time>2022-06-12T12:13:29Z</time>
      </trkpt>
      <trkpt lat="48.25613" lon="-3.51005">
        <ele>106</ele>
        <time>2022-06-12T12:13:30Z</time>
      </trkpt>
      <trkpt lat="48.25613" lon="-3.51003">
        <ele>106</ele>
        <time>2022-06-12T12:13:31Z</time>
      </trkpt>
      <trkpt lat="48.25612" lon="-3.51001">
        <ele>106.1</ele>
        <time>2022-06-12T12:13:32Z</time>
      </trkpt>
      <trkpt lat="48.25612" lon="-3.50998">
        <ele>106.1</ele>
        <time>2022-06-12T12:13:33Z</time>
      </trkpt>
      <trkpt lat="48.25611" lon="-3.50997">
        <ele>106.1</ele>
        <time>2022-06-12T12:13:34Z</time>
      </trkpt>
      <trkpt lat="48.25611" lon="-3.50995">
        <ele>106.2</ele>
        <time>2022-06-12T12:13:35Z</time>
      </trkpt>
      <trkpt lat="48.2561" lon="-3.50993">
        <ele>106.2</ele>
        <time>2022-06-12T12:13:36Z</time>
      </trkpt>
      <trkpt lat="48.25609" lon="-3.50991">
        <ele>106.2</ele>
        <time>2022-06-12T12:13:38Z</time>
      </trkpt>
      <trkpt lat="48.25609" lon="-3.5099">
        <ele>106.3</ele>
        <time>2022-06-12T12:13:39Z</time>
      </trkpt>
      <trkpt lat="48.25608" lon="-3.50988">
        <ele>106.3</ele>
        <time>2022-06-12T12:13:40Z</time>
      </trkpt>
      <trkpt lat="48.25607" lon="-3.50987">
        <ele>106.3</ele>
        <time>2022-06-12T12:13:41Z</time>
      </trkpt>
      <trkpt lat="48.25606" lon="-3.50984">
        <ele>106.4</ele>
        <time>2022-06-12T12:13:42Z</time>
      </trkpt>
      <trkpt lat="48.25605" lon="-3.50983">
        <ele>106.4</ele>
        <time>2022-06-12T12:13:43Z</time>
      </trkpt>
      <trkpt lat="48.25605" lon="-3.50983">
        <ele>106.5</ele>
        <time>2022-06-12T12:13:44Z</time>
      </trkpt>
      <trkpt lat="48.25604" lon="-3.50981">
        <ele>106.5</ele>
        <time>2022-06-12T12:13:45Z</time>
      </trkpt>
      <trkpt lat="48.25603" lon="-3.50978">
        <ele>106.6</ele>
        <time>2022-06-12T12:13:47Z</time>
      </trkpt>
      <trkpt lat="48.25602" lon="-3.50977">
        <ele>106.6</ele>
        <time>2022-06-12T12:13:48Z</time>
      </trkpt>
      <trkpt lat="48.25601" lon="-3.50976">
        <ele>106.7</ele>
        <time>2022-06-12T12:13:49Z</time>
      </trkpt>
      <trkpt lat="48.25601" lon="-3.50974">
        <ele>106.7</ele>
        <time>2022-06-12T12:13:50Z</time>
      </trkpt>
      <trkpt lat="48.25599" lon="-3.50971">
        <ele>106.8</ele>
        <time>2022-06-12T12:13:52Z</time>
      </trkpt>
      <trkpt lat="48.25599" lon="-3.5097">
        <ele>106.9</ele>
        <time>2022-06-12T12:13:53Z</time>
      </trkpt>
      <trkpt lat="48.25598" lon="-3.50968">
        <ele>106.9</ele>
        <time>2022-06-12T12:13:54Z</time>
      </trkpt>
      <trkpt lat="48.25598" lon="-3.50967">
        <ele>107</ele>
        <time>2022-06-12T12:13:55Z</time>
      </trkpt>
      <trkpt lat="48.25597" lon="-3.50965">
        <ele>107</ele>
        <time>2022-06-12T12:13:56Z</time>
      </trkpt>
      <trkpt lat="48.25596" lon="-3.50962">
        <ele>107.1</ele>
        <time>2022-06-12T12:13:57Z</time>
      </trkpt>
      <trkpt lat="48.25596" lon="-3.50961">
        <ele>107.1</ele>
        <time>2022-06-12T12:13:58Z</time>
      </trkpt>
      <trkpt lat="48.25596" lon="-3.50959">
        <ele>107.2</ele>
        <time>2022-06-12T12:13:59Z</time>
      </trkpt>
      <trkpt lat="48.25595" lon="-3.50957">
        <ele>107.2</ele>
        <time>2022-06-12T12:14:01Z</time>
      </trkpt>
      <trkpt lat="48.25595" lon="-3.50955">
        <ele>107.3</ele>
        <time>2022-06-12T12:14:02Z</time>
      </trkpt>
      <trkpt lat="48.25595" lon="-3.50954">
        <ele>107.3</ele>
        <time>2022-06-12T12:14:03Z</time>
      </trkpt>
      <trkpt lat="48.25595" lon="-3.50953">
        <ele>107.3</ele>
        <time>2022-06-12T12:14:04Z</time>
      </trkpt>
      <trkpt lat="48.25596" lon="-3.50953">
        <ele>107.3</ele>
        <time>2022-06-12T12:14:05Z</time>
      </trkpt>
      <trkpt lat="48.25597" lon="-3.50953">
        <ele>107.3</ele>
        <time>2022-06-12T12:14:06Z</time>
      </trkpt>
      <trkpt lat="48.25598" lon="-3.50953">
        <ele>107.4</ele>
        <time>2022-06-12T12:14:08Z</time>
      </trkpt>
      <trkpt lat="48.25598" lon="-3.50953">
        <ele>107.4</ele>
        <time>2022-06-12T12:14:09Z</time>
      </trkpt>
      <trkpt lat="48.25598" lon="-3.50954">
        <ele>107.4</ele>
        <time>2022-06-12T12:14:10Z</time>
      </trkpt>
      <trkpt lat="48.25598" lon="-3.50954">
        <ele>107.4</ele>
        <time>2022-06-12T12:14:11Z</time>
      </trkpt>
      <trkpt lat="48.25598" lon="-3.50954">
        <ele>107.4</ele>
        <time>2022-06-12T12:14:12Z</time>
      </trkpt>
      <trkpt lat="48.25598" lon="-3.50954">
        <ele>107.4</ele>
        <time>2022-06-12T12:14:13Z</time>
      </trkpt>
      <trkpt lat="48.25598" lon="-3.50953">
        <ele>107.4</ele>
        <time>2022-06-12T12:14:15Z</time>
      </trkpt>
      <trkpt lat="48.25598" lon="-3.50952">
        <ele>107.4</ele>
        <time>2022-06-12T12:14:16Z</time>
      </trkpt>
      <trkpt lat="48.25597" lon="-3.50951">
        <ele>107.4</ele>
        <time>2022-06-12T12:14:17Z</time>
      </trkpt>
      <trkpt lat="48.25597" lon="-3.5095">
        <ele>107.5</ele>
        <time>2022-06-12T12:14:18Z</time>
      </trkpt>
      <trkpt lat="48.25596" lon="-3.50947">
        <ele>107.5</ele>
        <time>2022-06-12T12:14:19Z</time>
      </trkpt>
      <trkpt lat="48.25596" lon="-3.50946">
        <ele>107.5</ele>
        <time>2022-06-12T12:14:20Z</time>
      </trkpt>
      <trkpt lat="48.25595" lon="-3.50945">
        <ele>107.5</ele>
        <time>2022-06-12T12:14:21Z</time>
      </trkpt>
      <trkpt lat="48.25594" lon="-3.5094">
        <ele>107.5</ele>
        <time>2022-06-12T12:14:22Z</time>
      </trkpt>
      <trkpt lat="48.25594" lon="-3.5094">
        <ele>107.5</ele>
        <time>2022-06-12T12:14:23Z</time>
      </trkpt>
      <trkpt lat="48.25593" lon="-3.50937">
        <ele>107.5</ele>
        <time>2022-06-12T12:14:24Z</time>
      </trkpt>
      <trkpt lat="48.25593" lon="-3.50935">
        <ele>107.5</ele>
        <time>2022-06-12T12:14:25Z</time>
      </trkpt>
      <trkpt lat="48.25592" lon="-3.50931">
        <ele>107.6</ele>
        <time>2022-06-12T12:14:27Z</time>
      </trkpt>
      <trkpt lat="48.25592" lon="-3.5093">
        <ele>107.6</ele>
        <time>2022-06-12T12:14:28Z</time>
      </trkpt>
      <trkpt lat="48.25591" lon="-3.5093">
        <ele>107.6</ele>
        <time>2022-06-12T12:14:29Z</time>
      </trkpt>
      <trkpt lat="48.2559" lon="-3.50929">
        <ele>107.6</ele>
        <time>2022-06-12T12:14:30Z</time>
      </trkpt>
      <trkpt lat="48.25589" lon="-3.50929">
        <ele>107.6</ele>
        <time>2022-06-12T12:14:32Z</time>
      </trkpt>
      <trkpt lat="48.25589" lon="-3.50929">
        <ele>107.6</ele>
        <time>2022-06-12T12:14:33Z</time>
      </trkpt>
      <trkpt lat="48.25589" lon="-3.5093">
        <ele>107.6</ele>
        <time>2022-06-12T12:14:34Z</time>
      </trkpt>
      <trkpt lat="48.25589" lon="-3.5093">
        <ele>107.6</ele>
        <time>2022-06-12T12:14:35Z</time>
      </trkpt>
      <trkpt lat="48.2559" lon="-3.5093">
        <ele>107.6</ele>
        <time>2022-06-12T12:14:36Z</time>
      </trkpt>
      <trkpt lat="48.2559" lon="-3.5093">
        <ele>107.6</ele>
        <time>2022-06-12T12:14:37Z</time>
      </trkpt>
      <trkpt lat="48.2559" lon="-3.5093">
        <ele>107.6</ele>
        <time>2022-06-12T12:14:38Z</time>
      </trkpt>
      <trkpt lat="48.2559" lon="-3.5093">
        <ele>107.6</ele>
        <time>2022-06-12T12:14:39Z</time>
      </trkpt>
      <trkpt lat="48.2559" lon="-3.5093">
        <ele>107.6</ele>
        <time>2022-06-12T12:14:40Z</time>
      </trkpt>
      <trkpt lat="48.2559" lon="-3.5093">
        <ele>107.6</ele>
        <time>2022-06-12T12:14:41Z</time>
      </trkpt>
      <trkpt lat="48.2559" lon="-3.5093">
        <ele>107.6</ele>
        <time>2022-06-12T12:14:42Z</time>
      </trkpt>
      <trkpt lat="48.2559" lon="-3.5093">
        <ele>107.6</ele>
        <time>2022-06-12T12:14:43Z</time>
      </trkpt>
      <trkpt lat="48.2559" lon="-3.5093">
        <ele>107.6</ele>
        <time>2022-06-12T12:14:44Z</time>
      </trkpt>
      <trkpt lat="48.2559" lon="-3.5093">
        <ele>107.6</ele>
        <time>2022-06-12T12:14:45Z</time>
      </trkpt>
      <trkpt lat="48.25589" lon="-3.5093">
        <ele>107.6</ele>
        <time>2022-06-12T12:14:46Z</time>
      </trkpt>
      <trkpt lat="48.25589" lon="-3.5093">
        <ele>107.6</ele>
        <time>2022-06-12T12:14:47Z</time>
      </trkpt>
      <trkpt lat="48.25588" lon="-3.5093">
        <ele>107.6</ele>
        <time>2022-06-12T12:14:48Z</time>
      </trkpt>
      <trkpt lat="48.25588" lon="-3.50929">
        <ele>107.6</ele>
        <time>2022-06-12T12:14:50Z</time>
      </trkpt>
      <trkpt lat="48.25587" lon="-3.50927">
        <ele>107.6</ele>
        <time>2022-06-12T12:14:51Z</time>
      </trkpt>
      <trkpt lat="48.25585" lon="-3.50925">
        <ele>107.5</ele>
        <time>2022-06-12T12:14:52Z</time>
      </trkpt>
      <trkpt lat="48.25585" lon="-3.50924">
        <ele>107.5</ele>
        <time>2022-06-12T12:14:53Z</time>
      </trkpt>
      <trkpt lat="48.25583" lon="-3.50921">
        <ele>107.5</ele>
        <time>2022-06-12T12:14:55Z</time>
      </trkpt>
      <trkpt lat="48.25583" lon="-3.5092">
        <ele>107.5</ele>
        <time>2022-06-12T12:14:56Z</time>
      </trkpt>
      <trkpt lat="48.25581" lon="-3.50917">
        <ele>107.5</ele>
        <time>2022-06-12T12:14:57Z</time>
      </trkpt>
      <trkpt lat="48.2558" lon="-3.50917">
        <ele>107.5</ele>
        <time>2022-06-12T12:14:58Z</time>
      </trkpt>
      <trkpt lat="48.25579" lon="-3.50915">
        <ele>107.5</ele>
        <time>2022-06-12T12:14:59Z</time>
      </trkpt>
      <trkpt lat="48.25579" lon="-3.50914">
        <ele>107.5</ele>
        <time>2022-06-12T12:15:00Z</time>
      </trkpt>
      <trkpt lat="48.25577" lon="-3.50911">
        <ele>107.5</ele>
        <time>2022-06-12T12:15:02Z</time>
      </trkpt>
      <trkpt lat="48.25576" lon="-3.5091">
        <ele>107.5</ele>
        <time>2022-06-12T12:15:03Z</time>
      </trkpt>
      <trkpt lat="48.25575" lon="-3.50909">
        <ele>107.5</ele>
        <time>2022-06-12T12:15:04Z</time>
      </trkpt>
      <trkpt lat="48.25573" lon="-3.50907">
        <ele>107.4</ele>
        <time>2022-06-12T12:15:06Z</time>
      </trkpt>
      <trkpt lat="48.25573" lon="-3.50904">
        <ele>107.4</ele>
        <time>2022-06-12T12:15:07Z</time>
      </trkpt>
      <trkpt lat="48.25572" lon="-3.50902">
        <ele>107.4</ele>
        <time>2022-06-12T12:15:08Z</time>
      </trkpt>
      <trkpt lat="48.25572" lon="-3.509">
        <ele>107.4</ele>
        <time>2022-06-12T12:15:09Z</time>
      </trkpt>
      <trkpt lat="48.25571" lon="-3.50898">
        <ele>107.4</ele>
        <time>2022-06-12T12:15:10Z</time>
      </trkpt>
      <trkpt lat="48.2557" lon="-3.50894">
        <ele>107.4</ele>
        <time>2022-06-12T12:15:12Z</time>
      </trkpt>
      <trkpt lat="48.2557" lon="-3.50893">
        <ele>107.4</ele>
        <time>2022-06-12T12:15:13Z</time>
      </trkpt>
      <trkpt lat="48.2557" lon="-3.50889">
        <ele>107.4</ele>
        <time>2022-06-12T12:15:14Z</time>
      </trkpt>
      <trkpt lat="48.2557" lon="-3.50888">
        <ele>107.4</ele>
        <time>2022-06-12T12:15:15Z</time>
      </trkpt>
      <trkpt lat="48.2557" lon="-3.50887">
        <ele>107.4</ele>
        <time>2022-06-12T12:15:16Z</time>
      </trkpt>
      <trkpt lat="48.2557" lon="-3.50884">
        <ele>107.4</ele>
        <time>2022-06-12T12:15:17Z</time>
      </trkpt>
      <trkpt lat="48.25569" lon="-3.50881">
        <ele>107.4</ele>
        <time>2022-06-12T12:15:19Z</time>
      </trkpt>
      <trkpt lat="48.25569" lon="-3.50877">
        <ele>107.4</ele>
        <time>2022-06-12T12:15:20Z</time>
      </trkpt>
      <trkpt lat="48.25569" lon="-3.50876">
        <ele>107.4</ele>
        <time>2022-06-12T12:15:21Z</time>
      </trkpt>
      <trkpt lat="48.25569" lon="-3.50874">
        <ele>107.4</ele>
        <time>2022-06-12T12:15:22Z</time>
      </trkpt>
      <trkpt lat="48.25569" lon="-3.5087">
        <ele>107.4</ele>
        <time>2022-06-12T12:15:24Z</time>
      </trkpt>
      <trkpt lat="48.25569" lon="-3.50869">
        <ele>107.4</ele>
        <time>2022-06-12T12:15:25Z</time>
      </trkpt>
      <trkpt lat="48.25568" lon="-3.50868">
        <ele>107.4</ele>
        <time>2022-06-12T12:15:26Z</time>
      </trkpt>
      <trkpt lat="48.25568" lon="-3.50865">
        <ele>107.4</ele>
        <time>2022-06-12T12:15:27Z</time>
      </trkpt>
      <trkpt lat="48.25568" lon="-3.50864">
        <ele>107.4</ele>
        <time>2022-06-12T12:15:28Z</time>
      </trkpt>
      <trkpt lat="48.25568" lon="-3.50862">
        <ele>107.4</ele>
        <time>2022-06-12T12:15:29Z</time>
      </trkpt>
      <trkpt lat="48.25568" lon="-3.5086">
        <ele>107.4</ele>
        <time>2022-06-12T12:15:30Z</time>
      </trkpt>
      <trkpt lat="48.25568" lon="-3.50858">
        <ele>107.4</ele>
        <time>2022-06-12T12:15:31Z</time>
      </trkpt>
      <trkpt lat="48.25568" lon="-3.50855">
        <ele>107.4</ele>
        <time>2022-06-12T12:15:32Z</time>
      </trkpt>
      <trkpt lat="48.25567" lon="-3.50853">
        <ele>107.4</ele>
        <time>2022-06-12T12:15:34Z</time>
      </trkpt>
      <trkpt lat="48.25567" lon="-3.50851">
        <ele>107.4</ele>
        <time>2022-06-12T12:15:35Z</time>
      </trkpt>
      <trkpt lat="48.25567" lon="-3.5085">
        <ele>107.4</ele>
        <time>2022-06-12T12:15:36Z</time>
      </trkpt>
      <trkpt lat="48.25565" lon="-3.50846">
        <ele>107.5</ele>
        <time>2022-06-12T12:15:38Z</time>
      </trkpt>
      <trkpt lat="48.25565" lon="-3.50843">
        <ele>107.5</ele>
        <time>2022-06-12T12:15:39Z</time>
      </trkpt>
      <trkpt lat="48.25564" lon="-3.50842">
        <ele>107.5</ele>
        <time>2022-06-12T12:15:40Z</time>
      </trkpt>
      <trkpt lat="48.25564" lon="-3.5084">
        <ele>107.5</ele>
        <time>2022-06-12T12:15:41Z</time>
      </trkpt>
      <trkpt lat="48.25563" lon="-3.50839">
        <ele>107.5</ele>
        <time>2022-06-12T12:15:42Z</time>
      </trkpt>
      <trkpt lat="48.25562" lon="-3.50835">
        <ele>107.5</ele>
        <time>2022-06-12T12:15:44Z</time>
      </trkpt>
      <trkpt lat="48.25561" lon="-3.50832">
        <ele>107.5</ele>
        <time>2022-06-12T12:15:45Z</time>
      </trkpt>
      <trkpt lat="48.25561" lon="-3.50831">
        <ele>107.5</ele>
        <time>2022-06-12T12:15:46Z</time>
      </trkpt>
      <trkpt lat="48.2556" lon="-3.5083">
        <ele>107.5</ele>
        <time>2022-06-12T12:15:47Z</time>
      </trkpt>
      <trkpt lat="48.25559" lon="-3.50827">
        <ele>107.5</ele>
        <time>2022-06-12T12:15:48Z</time>
      </trkpt>
      <trkpt lat="48.25559" lon="-3.50825">
        <ele>107.5</ele>
        <time>2022-06-12T12:15:49Z</time>
      </trkpt>
      <trkpt lat="48.25559" lon="-3.50822">
        <ele>107.5</ele>
        <time>2022-06-12T12:15:50Z</time>
      </trkpt>
      <trkpt lat="48.25558" lon="-3.50821">
        <ele>107.5</ele>
        <time>2022-06-12T12:15:51Z</time>
      </trkpt>
      <trkpt lat="48.25558" lon="-3.50819">
        <ele>107.5</ele>
        <time>2022-06-12T12:15:52Z</time>
      </trkpt>
      <trkpt lat="48.25557" lon="-3.50816">
        <ele>107.5</ele>
        <time>2022-06-12T12:15:53Z</time>
      </trkpt>
      <trkpt lat="48.25557" lon="-3.50814">
        <ele>107.5</ele>
        <time>2022-06-12T12:15:54Z</time>
      </trkpt>
      <trkpt lat="48.25556" lon="-3.50813">
        <ele>107.5</ele>
        <time>2022-06-12T12:15:56Z</time>
      </trkpt>
      <trkpt lat="48.25556" lon="-3.50811">
        <ele>107.5</ele>
        <time>2022-06-12T12:15:57Z</time>
      </trkpt>
      <trkpt lat="48.25555" lon="-3.50809">
        <ele>107.5</ele>
        <time>2022-06-12T12:15:58Z</time>
      </trkpt>
      <trkpt lat="48.25555" lon="-3.50808">
        <ele>107.5</ele>
        <time>2022-06-12T12:15:59Z</time>
      </trkpt>
      <trkpt lat="48.25555" lon="-3.50806">
        <ele>107.5</ele>
        <time>2022-06-12T12:16:00Z</time>
      </trkpt>
      <trkpt lat="48.25555" lon="-3.50804">
        <ele>107.5</ele>
        <time>2022-06-12T12:16:01Z</time>
      </trkpt>
      <trkpt lat="48.25555" lon="-3.508">
        <ele>107.5</ele>
        <time>2022-06-12T12:16:02Z</time>
      </trkpt>
      <trkpt lat="48.25555" lon="-3.50799">
        <ele>107.5</ele>
        <time>2022-06-12T12:16:03Z</time>
      </trkpt>
      <trkpt lat="48.25555" lon="-3.50797">
        <ele>107.5</ele>
        <time>2022-06-12T12:16:04Z</time>
      </trkpt>
      <trkpt lat="48.25555" lon="-3.50795">
        <ele>107.5</ele>
        <time>2022-06-12T12:16:05Z</time>
      </trkpt>
      <trkpt lat="48.25555" lon="-3.50792">
        <ele>107.5</ele>
        <time>2022-06-12T12:16:07Z</time>
      </trkpt>
      <trkpt lat="48.25555" lon="-3.50789">
        <ele>107.5</ele>
        <time>2022-06-12T12:16:08Z</time>
      </trkpt>
      <trkpt lat="48.25555" lon="-3.50786">
        <ele>107.5</ele>
        <time>2022-06-12T12:16:10Z</time>
      </trkpt>
      <trkpt lat="48.25555" lon="-3.50784">
        <ele>107.5</ele>
        <time>2022-06-12T12:16:11Z</time>
      </trkpt>
      <trkpt lat="48.25555" lon="-3.50782">
        <ele>107.5</ele>
        <time>2022-06-12T12:16:12Z</time>
      </trkpt>
      <trkpt lat="48.25555" lon="-3.50778">
        <ele>107.5</ele>
        <time>2022-06-12T12:16:13Z</time>
      </trkpt>
      <trkpt lat="48.25555" lon="-3.50777">
        <ele>107.5</ele>
        <time>2022-06-12T12:16:14Z</time>
      </trkpt>
      <trkpt lat="48.25556" lon="-3.50775">
        <ele>107.5</ele>
        <time>2022-06-12T12:16:15Z</time>
      </trkpt>
      <trkpt lat="48.25556" lon="-3.50772">
        <ele>107.5</ele>
        <time>2022-06-12T12:16:16Z</time>
      </trkpt>
      <trkpt lat="48.25556" lon="-3.5077">
        <ele>107.4</ele>
        <time>2022-06-12T12:16:17Z</time>
      </trkpt>
      <trkpt lat="48.25556" lon="-3.50767">
        <ele>107.4</ele>
        <time>2022-06-12T12:16:18Z</time>
      </trkpt>
      <trkpt lat="48.25556" lon="-3.50766">
        <ele>107.4</ele>
        <time>2022-06-12T12:16:19Z</time>
      </trkpt>
      <trkpt lat="48.25557" lon="-3.50764">
        <ele>107.4</ele>
        <time>2022-06-12T12:16:20Z</time>
      </trkpt>
      <trkpt lat="48.25557" lon="-3.50762">
        <ele>107.4</ele>
        <time>2022-06-12T12:16:22Z</time>
      </trkpt>
      <trkpt lat="48.25558" lon="-3.50759">
        <ele>107.4</ele>
        <time>2022-06-12T12:16:23Z</time>
      </trkpt>
      <trkpt lat="48.25558" lon="-3.50757">
        <ele>107.4</ele>
        <time>2022-06-12T12:16:24Z</time>
      </trkpt>
      <trkpt lat="48.25559" lon="-3.50755">
        <ele>107.4</ele>
        <time>2022-06-12T12:16:26Z</time>
      </trkpt>
      <trkpt lat="48.25559" lon="-3.50753">
        <ele>107.4</ele>
        <time>2022-06-12T12:16:27Z</time>
      </trkpt>
      <trkpt lat="48.25559" lon="-3.50751">
        <ele>107.4</ele>
        <time>2022-06-12T12:16:28Z</time>
      </trkpt>
      <trkpt lat="48.2556" lon="-3.50749">
        <ele>107.4</ele>
        <time>2022-06-12T12:16:29Z</time>
      </trkpt>
      <trkpt lat="48.25561" lon="-3.50746">
        <ele>107.4</ele>
        <time>2022-06-12T12:16:30Z</time>
      </trkpt>
      <trkpt lat="48.25561" lon="-3.50745">
        <ele>107.4</ele>
        <time>2022-06-12T12:16:31Z</time>
      </trkpt>
      <trkpt lat="48.25561" lon="-3.50744">
        <ele>107.4</ele>
        <time>2022-06-12T12:16:32Z</time>
      </trkpt>
      <trkpt lat="48.25562" lon="-3.50741">
        <ele>107.4</ele>
        <time>2022-06-12T12:16:33Z</time>
      </trkpt>
      <trkpt lat="48.25563" lon="-3.5074">
        <ele>107.4</ele>
        <time>2022-06-12T12:16:34Z</time>
      </trkpt>
      <trkpt lat="48.25564" lon="-3.50737">
        <ele>107.3</ele>
        <time>2022-06-12T12:16:35Z</time>
      </trkpt>
      <trkpt lat="48.25564" lon="-3.50736">
        <ele>107.3</ele>
        <time>2022-06-12T12:16:36Z</time>
      </trkpt>
      <trkpt lat="48.25565" lon="-3.50735">
        <ele>107.3</ele>
        <time>2022-06-12T12:16:37Z</time>
      </trkpt>
      <trkpt lat="48.25566" lon="-3.50731">
        <ele>107.3</ele>
        <time>2022-06-12T12:16:38Z</time>
      </trkpt>
      <trkpt lat="48.25567" lon="-3.50729">
        <ele>107.3</ele>
        <time>2022-06-12T12:16:40Z</time>
      </trkpt>
      <trkpt lat="48.25567" lon="-3.50728">
        <ele>107.3</ele>
        <time>2022-06-12T12:16:41Z</time>
      </trkpt>
      <trkpt lat="48.25568" lon="-3.50727">
        <ele>107.3</ele>
        <time>2022-06-12T12:16:42Z</time>
      </trkpt>
      <trkpt lat="48.25568" lon="-3.50725">
        <ele>107.3</ele>
        <time>2022-06-12T12:16:43Z</time>
      </trkpt>
      <trkpt lat="48.25569" lon="-3.50724">
        <ele>107.3</ele>
        <time>2022-06-12T12:16:44Z</time>
      </trkpt>
      <trkpt lat="48.2557" lon="-3.50723">
        <ele>107.3</ele>
        <time>2022-06-12T12:16:45Z</time>
      </trkpt>
      <trkpt lat="48.25571" lon="-3.50722">
        <ele>107.3</ele>
        <time>2022-06-12T12:16:46Z</time>
      </trkpt>
      <trkpt lat="48.25572" lon="-3.5072">
        <ele>107.3</ele>
        <time>2022-06-12T12:16:47Z</time>
      </trkpt>
      <trkpt lat="48.25573" lon="-3.50718">
        <ele>107.3</ele>
        <time>2022-06-12T12:16:48Z</time>
      </trkpt>
      <trkpt lat="48.25575" lon="-3.50716">
        <ele>107.3</ele>
        <time>2022-06-12T12:16:49Z</time>
      </trkpt>
      <trkpt lat="48.25576" lon="-3.50716">
        <ele>107.3</ele>
        <time>2022-06-12T12:16:50Z</time>
      </trkpt>
      <trkpt lat="48.25577" lon="-3.50715">
        <ele>107.3</ele>
        <time>2022-06-12T12:16:51Z</time>
      </trkpt>
      <trkpt lat="48.25578" lon="-3.50713">
        <ele>107.3</ele>
        <time>2022-06-12T12:16:53Z</time>
      </trkpt>
      <trkpt lat="48.25579" lon="-3.50712">
        <ele>107.3</ele>
        <time>2022-06-12T12:16:54Z</time>
      </trkpt>
      <trkpt lat="48.25581" lon="-3.5071">
        <ele>107.3</ele>
        <time>2022-06-12T12:16:55Z</time>
      </trkpt>
      <trkpt lat="48.25582" lon="-3.50709">
        <ele>107.3</ele>
        <time>2022-06-12T12:16:56Z</time>
      </trkpt>
      <trkpt lat="48.25583" lon="-3.50708">
        <ele>107.3</ele>
        <time>2022-06-12T12:16:57Z</time>
      </trkpt>
      <trkpt lat="48.25584" lon="-3.50707">
        <ele>107.3</ele>
        <time>2022-06-12T12:16:58Z</time>
      </trkpt>
      <trkpt lat="48.25585" lon="-3.50706">
        <ele>107.3</ele>
        <time>2022-06-12T12:16:59Z</time>
      </trkpt>
      <trkpt lat="48.25587" lon="-3.50704">
        <ele>107.4</ele>
        <time>2022-06-12T12:17:00Z</time>
      </trkpt>
      <trkpt lat="48.25587" lon="-3.50703">
        <ele>107.4</ele>
        <time>2022-06-12T12:17:02Z</time>
      </trkpt>
      <trkpt lat="48.25588" lon="-3.50703">
        <ele>107.4</ele>
        <time>2022-06-12T12:17:03Z</time>
      </trkpt>
      <trkpt lat="48.2559" lon="-3.50701">
        <ele>107.4</ele>
        <time>2022-06-12T12:17:04Z</time>
      </trkpt>
      <trkpt lat="48.2559" lon="-3.50701">
        <ele>107.4</ele>
        <time>2022-06-12T12:17:05Z</time>
      </trkpt>
      <trkpt lat="48.25591" lon="-3.507">
        <ele>107.4</ele>
        <time>2022-06-12T12:17:06Z</time>
      </trkpt>
      <trkpt lat="48.25593" lon="-3.50698">
        <ele>107.4</ele>
        <time>2022-06-12T12:17:08Z</time>
      </trkpt>
      <trkpt lat="48.25594" lon="-3.50697">
        <ele>107.4</ele>
        <time>2022-06-12T12:17:09Z</time>
      </trkpt>
      <trkpt lat="48.25595" lon="-3.50696">
        <ele>107.4</ele>
        <time>2022-06-12T12:17:10Z</time>
      </trkpt>
      <trkpt lat="48.25597" lon="-3.50694">
        <ele>107.4</ele>
        <time>2022-06-12T12:17:11Z</time>
      </trkpt>
      <trkpt lat="48.25599" lon="-3.50694">
        <ele>107.4</ele>
        <time>2022-06-12T12:17:12Z</time>
      </trkpt>
      <trkpt lat="48.256" lon="-3.50693">
        <ele>107.4</ele>
        <time>2022-06-12T12:17:13Z</time>
      </trkpt>
      <trkpt lat="48.256" lon="-3.50692">
        <ele>107.4</ele>
        <time>2022-06-12T12:17:14Z</time>
      </trkpt>
      <trkpt lat="48.25601" lon="-3.50691">
        <ele>107.4</ele>
        <time>2022-06-12T12:17:15Z</time>
      </trkpt>
      <trkpt lat="48.25602" lon="-3.50691">
        <ele>107.4</ele>
        <time>2022-06-12T12:17:16Z</time>
      </trkpt>
      <trkpt lat="48.25602" lon="-3.50692">
        <ele>107.4</ele>
        <time>2022-06-12T12:17:17Z</time>
      </trkpt>
      <trkpt lat="48.25602" lon="-3.50693">
        <ele>107.4</ele>
        <time>2022-06-12T12:17:18Z</time>
      </trkpt>
      <trkpt lat="48.256" lon="-3.50695">
        <ele>107.4</ele>
        <time>2022-06-12T12:17:20Z</time>
      </trkpt>
      <trkpt lat="48.25599" lon="-3.50696">
        <ele>107.4</ele>
        <time>2022-06-12T12:17:21Z</time>
      </trkpt>
      <trkpt lat="48.25599" lon="-3.50698">
        <ele>107.4</ele>
        <time>2022-06-12T12:17:22Z</time>
      </trkpt>
      <trkpt lat="48.25599" lon="-3.50699">
        <ele>107.4</ele>
        <time>2022-06-12T12:17:23Z</time>
      </trkpt>
      <trkpt lat="48.25599" lon="-3.507">
        <ele>107.4</ele>
        <time>2022-06-12T12:17:24Z</time>
      </trkpt>
      <trkpt lat="48.25599" lon="-3.50701">
        <ele>107.4</ele>
        <time>2022-06-12T12:17:25Z</time>
      </trkpt>
      <trkpt lat="48.25599" lon="-3.50701">
        <ele>107.4</ele>
        <time>2022-06-12T12:17:26Z</time>
      </trkpt>
      <trkpt lat="48.25599" lon="-3.50701">
        <ele>107.4</ele>
        <time>2022-06-12T12:17:27Z</time>
      </trkpt>
      <trkpt lat="48.25599" lon="-3.50701">
        <ele>107.4</ele>
        <time>2022-06-12T12:17:29Z</time>
      </trkpt>
      <trkpt lat="48.25599" lon="-3.50701">
        <ele>107.4</ele>
        <time>2022-06-12T12:17:30Z</time>
      </trkpt>
      <trkpt lat="48.25599" lon="-3.50701">
        <ele>107.4</ele>
        <time>2022-06-12T12:17:31Z</time>
      </trkpt>
      <trkpt lat="48.25598" lon="-3.50701">
        <ele>107.4</ele>
        <time>2022-06-12T12:17:32Z</time>
      </trkpt>
      <trkpt lat="48.25598" lon="-3.50701">
        <ele>107.4</ele>
        <time>2022-06-12T12:17:34Z</time>
      </trkpt>
      <trkpt lat="48.25598" lon="-3.50701">
        <ele>107.4</ele>
        <time>2022-06-12T12:17:35Z</time>
      </trkpt>
      <trkpt lat="48.25598" lon="-3.50701">
        <ele>107.4</ele>
        <time>2022-06-12T12:17:36Z</time>
      </trkpt>
      <trkpt lat="48.25598" lon="-3.50701">
        <ele>107.4</ele>
        <time>2022-06-12T12:17:37Z</time>
      </trkpt>
      <trkpt lat="48.25598" lon="-3.50699">
        <ele>107.4</ele>
        <time>2022-06-12T12:17:39Z</time>
      </trkpt>
      <trkpt lat="48.25598" lon="-3.50698">
        <ele>107.4</ele>
        <time>2022-06-12T12:17:40Z</time>
      </trkpt>
      <trkpt lat="48.25598" lon="-3.50697">
        <ele>107.4</ele>
        <time>2022-06-12T12:17:41Z</time>
      </trkpt>
      <trkpt lat="48.25599" lon="-3.50697">
        <ele>107.4</ele>
        <time>2022-06-12T12:17:42Z</time>
      </trkpt>
      <trkpt lat="48.25599" lon="-3.50695">
        <ele>107.4</ele>
        <time>2022-06-12T12:17:44Z</time>
      </trkpt>
      <trkpt lat="48.256" lon="-3.50694">
        <ele>107.4</ele>
        <time>2022-06-12T12:17:45Z</time>
      </trkpt>
      <trkpt lat="48.256" lon="-3.50693">
        <ele>107.4</ele>
        <time>2022-06-12T12:17:46Z</time>
      </trkpt>
      <trkpt lat="48.25601" lon="-3.50693">
        <ele>107.4</ele>
        <time>2022-06-12T12:17:47Z</time>
      </trkpt>
      <trkpt lat="48.256" lon="-3.50689">
        <ele>107.4</ele>
        <time>2022-06-12T12:17:49Z</time>
      </trkpt>
      <trkpt lat="48.256" lon="-3.50689">
        <ele>107.4</ele>
        <time>2022-06-12T12:17:50Z</time>
      </trkpt>
      <trkpt lat="48.256" lon="-3.50688">
        <ele>107.4</ele>
        <time>2022-06-12T12:17:51Z</time>
      </trkpt>
      <trkpt lat="48.25599" lon="-3.50688">
        <ele>107.4</ele>
        <time>2022-06-12T12:17:52Z</time>
      </trkpt>
      <trkpt lat="48.25599" lon="-3.50687">
        <ele>107.4</ele>
        <time>2022-06-12T12:17:53Z</time>
      </trkpt>
      <trkpt lat="48.25599" lon="-3.50687">
        <ele>107.4</ele>
        <time>2022-06-12T12:17:54Z</time>
      </trkpt>
      <trkpt lat="48.25598" lon="-3.50687">
        <ele>107.4</ele>
        <time>2022-06-12T12:17:55Z</time>
      </trkpt>
      <trkpt lat="48.25598" lon="-3.50687">
        <ele>107.4</ele>
        <time>2022-06-12T12:17:56Z</time>
      </trkpt>
      <trkpt lat="48.25598" lon="-3.50686">
        <ele>107.4</ele>
        <time>2022-06-12T12:17:57Z</time>
      </trkpt>
      <trkpt lat="48.25598" lon="-3.50686">
        <ele>107.4</ele>
        <time>2022-06-12T12:17:58Z</time>
      </trkpt>
      <trkpt lat="48.25598" lon="-3.50685">
        <ele>107.4</ele>
        <time>2022-06-12T12:17:59Z</time>
      </trkpt>
      <trkpt lat="48.25598" lon="-3.50685">
        <ele>107.4</ele>
        <time>2022-06-12T12:18:00Z</time>
      </trkpt>
      <trkpt lat="48.25598" lon="-3.50685">
        <ele>107.4</ele>
        <time>2022-06-12T12:18:01Z</time>
      </trkpt>
      <trkpt lat="48.25598" lon="-3.50684">
        <ele>107.4</ele>
        <time>2022-06-12T12:18:02Z</time>
      </trkpt>
      <trkpt lat="48.25598" lon="-3.50683">
        <ele>107.4</ele>
        <time>2022-06-12T12:18:03Z</time>
      </trkpt>
      <trkpt lat="48.25598" lon="-3.50682">
        <ele>107.4</ele>
        <time>2022-06-12T12:18:05Z</time>
      </trkpt>
      <trkpt lat="48.25598" lon="-3.50681">
        <ele>107.4</ele>
        <time>2022-06-12T12:18:06Z</time>
      </trkpt>
      <trkpt lat="48.25598" lon="-3.50679">
        <ele>107.4</ele>
        <time>2022-06-12T12:18:07Z</time>
      </trkpt>
      <trkpt lat="48.25598" lon="-3.50678">
        <ele>107.4</ele>
        <time>2022-06-12T12:18:08Z</time>
      </trkpt>
      <trkpt lat="48.25599" lon="-3.50676">
        <ele>107.4</ele>
        <time>2022-06-12T12:18:09Z</time>
      </trkpt>
      <trkpt lat="48.25599" lon="-3.50674">
        <ele>107.5</ele>
        <time>2022-06-12T12:18:10Z</time>
      </trkpt>
      <trkpt lat="48.256" lon="-3.50672">
        <ele>107.5</ele>
        <time>2022-06-12T12:18:12Z</time>
      </trkpt>
      <trkpt lat="48.256" lon="-3.5067">
        <ele>107.5</ele>
        <time>2022-06-12T12:18:13Z</time>
      </trkpt>
      <trkpt lat="48.25601" lon="-3.50668">
        <ele>107.5</ele>
        <time>2022-06-12T12:18:14Z</time>
      </trkpt>
      <trkpt lat="48.25601" lon="-3.50667">
        <ele>107.5</ele>
        <time>2022-06-12T12:18:15Z</time>
      </trkpt>
      <trkpt lat="48.25602" lon="-3.50665">
        <ele>107.5</ele>
        <time>2022-06-12T12:18:16Z</time>
      </trkpt>
      <trkpt lat="48.25603" lon="-3.50664">
        <ele>107.5</ele>
        <time>2022-06-12T12:18:17Z</time>
      </trkpt>
      <trkpt lat="48.25604" lon="-3.50661">
        <ele>107.5</ele>
        <time>2022-06-12T12:18:18Z</time>
      </trkpt>
      <trkpt lat="48.25604" lon="-3.5066">
        <ele>107.5</ele>
        <time>2022-06-12T12:18:19Z</time>
      </trkpt>
      <trkpt lat="48.25605" lon="-3.50658">
        <ele>107.5</ele>
        <time>2022-06-12T12:18:21Z</time>
      </trkpt>
      <trkpt lat="48.25606" lon="-3.50657">
        <ele>107.5</ele>
        <time>2022-06-12T12:18:22Z</time>
      </trkpt>
      <trkpt lat="48.25606" lon="-3.50655">
        <ele>107.5</ele>
        <time>2022-06-12T12:18:23Z</time>
      </trkpt>
      <trkpt lat="48.25608" lon="-3.50653">
        <ele>107.5</ele>
        <time>2022-06-12T12:18:24Z</time>
      </trkpt>
      <trkpt lat="48.25608" lon="-3.50653">
        <ele>107.5</ele>
        <time>2022-06-12T12:18:25Z</time>
      </trkpt>
      <trkpt lat="48.25609" lon="-3.50652">
        <ele>107.5</ele>
        <time>2022-06-12T12:18:26Z</time>
      </trkpt>
      <trkpt lat="48.2561" lon="-3.5065">
        <ele>107.5</ele>
        <time>2022-06-12T12:18:27Z</time>
      </trkpt>
      <trkpt lat="48.25611" lon="-3.50649">
        <ele>107.5</ele>
        <time>2022-06-12T12:18:28Z</time>
      </trkpt>
      <trkpt lat="48.25611" lon="-3.50648">
        <ele>107.5</ele>
        <time>2022-06-12T12:18:29Z</time>
      </trkpt>
      <trkpt lat="48.25612" lon="-3.50647">
        <ele>107.5</ele>
        <time>2022-06-12T12:18:30Z</time>
      </trkpt>
      <trkpt lat="48.25613" lon="-3.50646">
        <ele>107.5</ele>
        <time>2022-06-12T12:18:31Z</time>
      </trkpt>
      <trkpt lat="48.25614" lon="-3.50645">
        <ele>107.5</ele>
        <time>2022-06-12T12:18:33Z</time>
      </trkpt>
      <trkpt lat="48.25616" lon="-3.50643">
        <ele>107.5</ele>
        <time>2022-06-12T12:18:34Z</time>
      </trkpt>
      <trkpt lat="48.25617" lon="-3.50643">
        <ele>107.5</ele>
        <time>2022-06-12T12:18:35Z</time>
      </trkpt>
      <trkpt lat="48.25618" lon="-3.50642">
        <ele>107.5</ele>
        <time>2022-06-12T12:18:36Z</time>
      </trkpt>
      <trkpt lat="48.25618" lon="-3.50641">
        <ele>107.6</ele>
        <time>2022-06-12T12:18:37Z</time>
      </trkpt>
      <trkpt lat="48.25619" lon="-3.5064">
        <ele>107.6</ele>
        <time>2022-06-12T12:18:38Z</time>
      </trkpt>
      <trkpt lat="48.25621" lon="-3.50637">
        <ele>107.6</ele>
        <time>2022-06-12T12:18:39Z</time>
      </trkpt>
      <trkpt lat="48.25621" lon="-3.50637">
        <ele>107.6</ele>
        <time>2022-06-12T12:18:40Z</time>
      </trkpt>
      <trkpt lat="48.25622" lon="-3.50636">
        <ele>107.6</ele>
        <time>2022-06-12T12:18:41Z</time>
      </trkpt>
      <trkpt lat="48.25623" lon="-3.50636">
        <ele>107.6</ele>
        <time>2022-06-12T12:18:42Z</time>
      </trkpt>
      <trkpt lat="48.25624" lon="-3.50635">
        <ele>107.6</ele>
        <time>2022-06-12T12:18:43Z</time>
      </trkpt>
      <trkpt lat="48.25626" lon="-3.50632">
        <ele>107.6</ele>
        <time>2022-06-12T12:18:44Z</time>
      </trkpt>
      <trkpt lat="48.25627" lon="-3.50631">
        <ele>107.6</ele>
        <time>2022-06-12T12:18:46Z</time>
      </trkpt>
      <trkpt lat="48.25627" lon="-3.5063">
        <ele>107.6</ele>
        <time>2022-06-12T12:18:47Z</time>
      </trkpt>
      <trkpt lat="48.25628" lon="-3.50629">
        <ele>107.6</ele>
        <time>2022-06-12T12:18:48Z</time>
      </trkpt>
      <trkpt lat="48.25629" lon="-3.50628">
        <ele>107.6</ele>
        <time>2022-06-12T12:18:49Z</time>
      </trkpt>
      <trkpt lat="48.25629" lon="-3.50628">
        <ele>107.6</ele>
        <time>2022-06-12T12:18:50Z</time>
      </trkpt>
      <trkpt lat="48.2563" lon="-3.50627">
        <ele>107.6</ele>
        <time>2022-06-12T12:18:51Z</time>
      </trkpt>
      <trkpt lat="48.25631" lon="-3.50626">
        <ele>107.6</ele>
        <time>2022-06-12T12:18:52Z</time>
      </trkpt>
      <trkpt lat="48.25631" lon="-3.50625">
        <ele>107.6</ele>
        <time>2022-06-12T12:18:53Z</time>
      </trkpt>
      <trkpt lat="48.25633" lon="-3.50623">
        <ele>107.6</ele>
        <time>2022-06-12T12:18:54Z</time>
      </trkpt>
      <trkpt lat="48.25633" lon="-3.50622">
        <ele>107.6</ele>
        <time>2022-06-12T12:18:55Z</time>
      </trkpt>
      <trkpt lat="48.25634" lon="-3.50621">
        <ele>107.6</ele>
        <time>2022-06-12T12:18:56Z</time>
      </trkpt>
      <trkpt lat="48.25635" lon="-3.50619">
        <ele>107.6</ele>
        <time>2022-06-12T12:18:57Z</time>
      </trkpt>
      <trkpt lat="48.25635" lon="-3.50618">
        <ele>107.7</ele>
        <time>2022-06-12T12:18:58Z</time>
      </trkpt>
      <trkpt lat="48.25637" lon="-3.50615">
        <ele>107.7</ele>
        <time>2022-06-12T12:18:59Z</time>
      </trkpt>
      <trkpt lat="48.25638" lon="-3.50613">
        <ele>107.7</ele>
        <time>2022-06-12T12:19:01Z</time>
      </trkpt>
      <trkpt lat="48.25638" lon="-3.50612">
        <ele>107.7</ele>
        <time>2022-06-12T12:19:02Z</time>
      </trkpt>
      <trkpt lat="48.25639" lon="-3.5061">
        <ele>107.7</ele>
        <time>2022-06-12T12:19:03Z</time>
      </trkpt>
      <trkpt lat="48.25641" lon="-3.50608">
        <ele>107.7</ele>
        <time>2022-06-12T12:19:04Z</time>
      </trkpt>
      <trkpt lat="48.25641" lon="-3.50606">
        <ele>107.7</ele>
        <time>2022-06-12T12:19:05Z</time>
      </trkpt>
      <trkpt lat="48.25642" lon="-3.50605">
        <ele>107.7</ele>
        <time>2022-06-12T12:19:06Z</time>
      </trkpt>
      <trkpt lat="48.25643" lon="-3.50603">
        <ele>107.7</ele>
        <time>2022-06-12T12:19:07Z</time>
      </trkpt>
      <trkpt lat="48.25644" lon="-3.50602">
        <ele>107.7</ele>
        <time>2022-06-12T12:19:08Z</time>
      </trkpt>
      <trkpt lat="48.25645" lon="-3.50599">
        <ele>107.7</ele>
        <time>2022-06-12T12:19:09Z</time>
      </trkpt>
      <trkpt lat="48.25646" lon="-3.50598">
        <ele>107.7</ele>
        <time>2022-06-12T12:19:10Z</time>
      </trkpt>
      <trkpt lat="48.25647" lon="-3.50596">
        <ele>107.7</ele>
        <time>2022-06-12T12:19:11Z</time>
      </trkpt>
      <trkpt lat="48.25648" lon="-3.50594">
        <ele>107.7</ele>
        <time>2022-06-12T12:19:13Z</time>
      </trkpt>
      <trkpt lat="48.25649" lon="-3.50592">
        <ele>107.7</ele>
        <time>2022-06-12T12:19:14Z</time>
      </trkpt>
      <trkpt lat="48.25651" lon="-3.5059">
        <ele>107.7</ele>
        <time>2022-06-12T12:19:15Z</time>
      </trkpt>
      <trkpt lat="48.25651" lon="-3.50589">
        <ele>107.7</ele>
        <time>2022-06-12T12:19:16Z</time>
      </trkpt>
      <trkpt lat="48.25653" lon="-3.50586">
        <ele>107.7</ele>
        <time>2022-06-12T12:19:17Z</time>
      </trkpt>
      <trkpt lat="48.25654" lon="-3.50585">
        <ele>107.7</ele>
        <time>2022-06-12T12:19:18Z</time>
      </trkpt>
      <trkpt lat="48.25654" lon="-3.50583">
        <ele>107.7</ele>
        <time>2022-06-12T12:19:19Z</time>
      </trkpt>
      <trkpt lat="48.25655" lon="-3.50582">
        <ele>107.7</ele>
        <time>2022-06-12T12:19:20Z</time>
      </trkpt>
      <trkpt lat="48.25656" lon="-3.50581">
        <ele>107.7</ele>
        <time>2022-06-12T12:19:21Z</time>
      </trkpt>
      <trkpt lat="48.25656" lon="-3.5058">
        <ele>107.7</ele>
        <time>2022-06-12T12:19:22Z</time>
      </trkpt>
      <trkpt lat="48.25657" lon="-3.50578">
        <ele>107.7</ele>
        <time>2022-06-12T12:19:23Z</time>
      </trkpt>
      <trkpt lat="48.25659" lon="-3.50576">
        <ele>107.7</ele>
        <time>2022-06-12T12:19:24Z</time>
      </trkpt>
      <trkpt lat="48.2566" lon="-3.50574">
        <ele>107.7</ele>
        <time>2022-06-12T12:19:26Z</time>
      </trkpt>
      <trkpt lat="48.2566" lon="-3.50573">
        <ele>107.7</ele>
        <time>2022-06-12T12:19:27Z</time>
      </trkpt>
      <trkpt lat="48.25661" lon="-3.50572">
        <ele>107.7</ele>
        <time>2022-06-12T12:19:28Z</time>
      </trkpt>
      <trkpt lat="48.25662" lon="-3.5057">
        <ele>107.7</ele>
        <time>2022-06-12T12:19:29Z</time>
      </trkpt>
      <trkpt lat="48.25664" lon="-3.50568">
        <ele>107.7</ele>
        <time>2022-06-12T12:19:30Z</time>
      </trkpt>
      <trkpt lat="48.25665" lon="-3.50567">
        <ele>107.7</ele>
        <time>2022-06-12T12:19:31Z</time>
      </trkpt>
      <trkpt lat="48.25666" lon="-3.50564">
        <ele>107.8</ele>
        <time>2022-06-12T12:19:32Z</time>
      </trkpt>
      <trkpt lat="48.25667" lon="-3.50563">
        <ele>107.8</ele>
        <time>2022-06-12T12:19:33Z</time>
      </trkpt>
      <trkpt lat="48.25668" lon="-3.50562">
        <ele>107.8</ele>
        <time>2022-06-12T12:19:34Z</time>
      </trkpt>
      <trkpt lat="48.25668" lon="-3.50561">
        <ele>107.8</ele>
        <time>2022-06-12T12:19:35Z</time>
      </trkpt>
      <trkpt lat="48.25669" lon="-3.5056">
        <ele>107.8</ele>
        <time>2022-06-12T12:19:36Z</time>
      </trkpt>
      <trkpt lat="48.2567" lon="-3.50559">
        <ele>107.8</ele>
        <time>2022-06-12T12:19:37Z</time>
      </trkpt>
      <trkpt lat="48.25672" lon="-3.50556">
        <ele>107.8</ele>
        <time>2022-06-12T12:19:39Z</time>
      </trkpt>
      <trkpt lat="48.25673" lon="-3.50555">
        <ele>107.8</ele>
        <time>2022-06-12T12:19:41Z</time>
      </trkpt>
      <trkpt lat="48.25674" lon="-3.50553">
        <ele>107.8</ele>
        <time>2022-06-12T12:19:42Z</time>
      </trkpt>
      <trkpt lat="48.25675" lon="-3.50552">
        <ele>107.8</ele>
        <time>2022-06-12T12:19:43Z</time>
      </trkpt>
      <trkpt lat="48.25676" lon="-3.50551">
        <ele>107.8</ele>
        <time>2022-06-12T12:19:44Z</time>
      </trkpt>
      <trkpt lat="48.25677" lon="-3.50549">
        <ele>107.8</ele>
        <time>2022-06-12T12:19:45Z</time>
      </trkpt>
      <trkpt lat="48.25678" lon="-3.50548">
        <ele>107.8</ele>
        <time>2022-06-12T12:19:46Z</time>
      </trkpt>
      <trkpt lat="48.25679" lon="-3.50545">
        <ele>107.8</ele>
        <time>2022-06-12T12:19:47Z</time>
      </trkpt>
      <trkpt lat="48.2568" lon="-3.50544">
        <ele>107.8</ele>
        <time>2022-06-12T12:19:48Z</time>
      </trkpt>
      <trkpt lat="48.25681" lon="-3.50543">
        <ele>107.8</ele>
        <time>2022-06-12T12:19:49Z</time>
      </trkpt>
      <trkpt lat="48.25682" lon="-3.50542">
        <ele>107.8</ele>
        <time>2022-06-12T12:19:50Z</time>
      </trkpt>
      <trkpt lat="48.25683" lon="-3.50541">
        <ele>107.8</ele>
        <time>2022-06-12T12:19:51Z</time>
      </trkpt>
      <trkpt lat="48.25684" lon="-3.50539">
        <ele>107.8</ele>
        <time>2022-06-12T12:19:53Z</time>
      </trkpt>
      <trkpt lat="48.25685" lon="-3.50538">
        <ele>107.8</ele>
        <time>2022-06-12T12:19:54Z</time>
      </trkpt>
      <trkpt lat="48.25686" lon="-3.50536">
        <ele>107.8</ele>
        <time>2022-06-12T12:19:55Z</time>
      </trkpt>
      <trkpt lat="48.25687" lon="-3.50535">
        <ele>107.8</ele>
        <time>2022-06-12T12:19:56Z</time>
      </trkpt>
      <trkpt lat="48.25687" lon="-3.50533">
        <ele>107.8</ele>
        <time>2022-06-12T12:19:57Z</time>
      </trkpt>
      <trkpt lat="48.25688" lon="-3.50531">
        <ele>107.8</ele>
        <time>2022-06-12T12:19:59Z</time>
      </trkpt>
      <trkpt lat="48.2569" lon="-3.50529">
        <ele>107.8</ele>
        <time>2022-06-12T12:20:00Z</time>
      </trkpt>
      <trkpt lat="48.2569" lon="-3.50528">
        <ele>107.8</ele>
        <time>2022-06-12T12:20:01Z</time>
      </trkpt>
      <trkpt lat="48.2569" lon="-3.50527">
        <ele>107.8</ele>
        <time>2022-06-12T12:20:02Z</time>
      </trkpt>
      <trkpt lat="48.25691" lon="-3.50526">
        <ele>107.8</ele>
        <time>2022-06-12T12:20:03Z</time>
      </trkpt>
      <trkpt lat="48.25692" lon="-3.50524">
        <ele>107.8</ele>
        <time>2022-06-12T12:20:04Z</time>
      </trkpt>
      <trkpt lat="48.25693" lon="-3.50521">
        <ele>107.8</ele>
        <time>2022-06-12T12:20:05Z</time>
      </trkpt>
      <trkpt lat="48.25694" lon="-3.5052">
        <ele>107.8</ele>
        <time>2022-06-12T12:20:06Z</time>
      </trkpt>
      <trkpt lat="48.25694" lon="-3.5052">
        <ele>107.8</ele>
        <time>2022-06-12T12:20:07Z</time>
      </trkpt>
      <trkpt lat="48.25695" lon="-3.50518">
        <ele>107.8</ele>
        <time>2022-06-12T12:20:08Z</time>
      </trkpt>
      <trkpt lat="48.25696" lon="-3.50517">
        <ele>107.8</ele>
        <time>2022-06-12T12:20:09Z</time>
      </trkpt>
      <trkpt lat="48.25697" lon="-3.50514">
        <ele>107.8</ele>
        <time>2022-06-12T12:20:11Z</time>
      </trkpt>
      <trkpt lat="48.25698" lon="-3.50512">
        <ele>107.8</ele>
        <time>2022-06-12T12:20:12Z</time>
      </trkpt>
      <trkpt lat="48.25699" lon="-3.50511">
        <ele>107.8</ele>
        <time>2022-06-12T12:20:13Z</time>
      </trkpt>
      <trkpt lat="48.25699" lon="-3.5051">
        <ele>107.8</ele>
        <time>2022-06-12T12:20:14Z</time>
      </trkpt>
      <trkpt lat="48.25701" lon="-3.50507">
        <ele>107.8</ele>
        <time>2022-06-12T12:20:15Z</time>
      </trkpt>
      <trkpt lat="48.25701" lon="-3.50506">
        <ele>107.8</ele>
        <time>2022-06-12T12:20:16Z</time>
      </trkpt>
      <trkpt lat="48.25701" lon="-3.50505">
        <ele>107.8</ele>
        <time>2022-06-12T12:20:17Z</time>
      </trkpt>
      <trkpt lat="48.25703" lon="-3.50503">
        <ele>107.8</ele>
        <time>2022-06-12T12:20:18Z</time>
      </trkpt>
      <trkpt lat="48.25703" lon="-3.50501">
        <ele>107.8</ele>
        <time>2022-06-12T12:20:19Z</time>
      </trkpt>
      <trkpt lat="48.25704" lon="-3.505">
        <ele>107.8</ele>
        <time>2022-06-12T12:20:20Z</time>
      </trkpt>
      <trkpt lat="48.25705" lon="-3.50497">
        <ele>107.9</ele>
        <time>2022-06-12T12:20:21Z</time>
      </trkpt>
      <trkpt lat="48.25706" lon="-3.50496">
        <ele>107.9</ele>
        <time>2022-06-12T12:20:22Z</time>
      </trkpt>
      <trkpt lat="48.25706" lon="-3.50495">
        <ele>107.9</ele>
        <time>2022-06-12T12:20:23Z</time>
      </trkpt>
      <trkpt lat="48.25708" lon="-3.50492">
        <ele>107.9</ele>
        <time>2022-06-12T12:20:24Z</time>
      </trkpt>
      <trkpt lat="48.25708" lon="-3.50491">
        <ele>107.9</ele>
        <time>2022-06-12T12:20:26Z</time>
      </trkpt>
      <trkpt lat="48.25709" lon="-3.5049">
        <ele>107.9</ele>
        <time>2022-06-12T12:20:27Z</time>
      </trkpt>
      <trkpt lat="48.25709" lon="-3.50488">
        <ele>107.9</ele>
        <time>2022-06-12T12:20:28Z</time>
      </trkpt>
      <trkpt lat="48.2571" lon="-3.50487">
        <ele>107.9</ele>
        <time>2022-06-12T12:20:29Z</time>
      </trkpt>
      <trkpt lat="48.25711" lon="-3.50484">
        <ele>107.9</ele>
        <time>2022-06-12T12:20:30Z</time>
      </trkpt>
      <trkpt lat="48.25711" lon="-3.50483">
        <ele>107.9</ele>
        <time>2022-06-12T12:20:31Z</time>
      </trkpt>
      <trkpt lat="48.25712" lon="-3.50482">
        <ele>107.9</ele>
        <time>2022-06-12T12:20:32Z</time>
      </trkpt>
      <trkpt lat="48.25712" lon="-3.5048">
        <ele>107.9</ele>
        <time>2022-06-12T12:20:33Z</time>
      </trkpt>
      <trkpt lat="48.25712" lon="-3.50479">
        <ele>107.9</ele>
        <time>2022-06-12T12:20:34Z</time>
      </trkpt>
      <trkpt lat="48.25713" lon="-3.50476">
        <ele>107.9</ele>
        <time>2022-06-12T12:20:35Z</time>
      </trkpt>
      <trkpt lat="48.25713" lon="-3.50475">
        <ele>107.9</ele>
        <time>2022-06-12T12:20:36Z</time>
      </trkpt>
      <trkpt lat="48.25713" lon="-3.50474">
        <ele>108</ele>
        <time>2022-06-12T12:20:37Z</time>
      </trkpt>
      <trkpt lat="48.25714" lon="-3.50471">
        <ele>108</ele>
        <time>2022-06-12T12:20:38Z</time>
      </trkpt>
      <trkpt lat="48.25715" lon="-3.50468">
        <ele>108</ele>
        <time>2022-06-12T12:20:40Z</time>
      </trkpt>
      <trkpt lat="48.25715" lon="-3.50467">
        <ele>108</ele>
        <time>2022-06-12T12:20:41Z</time>
      </trkpt>
      <trkpt lat="48.25715" lon="-3.50465">
        <ele>108</ele>
        <time>2022-06-12T12:20:42Z</time>
      </trkpt>
      <trkpt lat="48.25716" lon="-3.50463">
        <ele>108</ele>
        <time>2022-06-12T12:20:44Z</time>
      </trkpt>
      <trkpt lat="48.25717" lon="-3.50459">
        <ele>108</ele>
        <time>2022-06-12T12:20:45Z</time>
      </trkpt>
      <trkpt lat="48.25717" lon="-3.50459">
        <ele>108</ele>
        <time>2022-06-12T12:20:46Z</time>
      </trkpt>
      <trkpt lat="48.25717" lon="-3.50458">
        <ele>108</ele>
        <time>2022-06-12T12:20:47Z</time>
      </trkpt>
      <trkpt lat="48.25717" lon="-3.50455">
        <ele>108</ele>
        <time>2022-06-12T12:20:48Z</time>
      </trkpt>
      <trkpt lat="48.25717" lon="-3.50453">
        <ele>108</ele>
        <time>2022-06-12T12:20:49Z</time>
      </trkpt>
      <trkpt lat="48.25718" lon="-3.50452">
        <ele>108</ele>
        <time>2022-06-12T12:20:50Z</time>
      </trkpt>
      <trkpt lat="48.25718" lon="-3.5045">
        <ele>108</ele>
        <time>2022-06-12T12:20:51Z</time>
      </trkpt>
      <trkpt lat="48.25718" lon="-3.50449">
        <ele>108</ele>
        <time>2022-06-12T12:20:53Z</time>
      </trkpt>
      <trkpt lat="48.25719" lon="-3.50447">
        <ele>108</ele>
        <time>2022-06-12T12:20:54Z</time>
      </trkpt>
      <trkpt lat="48.25719" lon="-3.50445">
        <ele>108</ele>
        <time>2022-06-12T12:20:55Z</time>
      </trkpt>
      <trkpt lat="48.25719" lon="-3.50443">
        <ele>108</ele>
        <time>2022-06-12T12:20:56Z</time>
      </trkpt>
      <trkpt lat="48.2572" lon="-3.50442">
        <ele>108</ele>
        <time>2022-06-12T12:20:57Z</time>
      </trkpt>
      <trkpt lat="48.2572" lon="-3.5044">
        <ele>108.1</ele>
        <time>2022-06-12T12:20:58Z</time>
      </trkpt>
      <trkpt lat="48.2572" lon="-3.50438">
        <ele>108.1</ele>
        <time>2022-06-12T12:20:59Z</time>
      </trkpt>
      <trkpt lat="48.25721" lon="-3.50436">
        <ele>108.1</ele>
        <time>2022-06-12T12:21:00Z</time>
      </trkpt>
      <trkpt lat="48.25721" lon="-3.50435">
        <ele>108.1</ele>
        <time>2022-06-12T12:21:01Z</time>
      </trkpt>
      <trkpt lat="48.25721" lon="-3.50433">
        <ele>108.1</ele>
        <time>2022-06-12T12:21:02Z</time>
      </trkpt>
      <trkpt lat="48.25722" lon="-3.5043">
        <ele>108.1</ele>
        <time>2022-06-12T12:21:03Z</time>
      </trkpt>
      <trkpt lat="48.25722" lon="-3.50429">
        <ele>108.1</ele>
        <time>2022-06-12T12:21:05Z</time>
      </trkpt>
      <trkpt lat="48.25722" lon="-3.50427">
        <ele>108.1</ele>
        <time>2022-06-12T12:21:06Z</time>
      </trkpt>
      <trkpt lat="48.25722" lon="-3.50425">
        <ele>108.1</ele>
        <time>2022-06-12T12:21:07Z</time>
      </trkpt>
      <trkpt lat="48.25722" lon="-3.50424">
        <ele>108.1</ele>
        <time>2022-06-12T12:21:08Z</time>
      </trkpt>
      <trkpt lat="48.25723" lon="-3.50422">
        <ele>108.1</ele>
        <time>2022-06-12T12:21:09Z</time>
      </trkpt>
      <trkpt lat="48.25723" lon="-3.50419">
        <ele>108.1</ele>
        <time>2022-06-12T12:21:10Z</time>
      </trkpt>
      <trkpt lat="48.25723" lon="-3.50418">
        <ele>108.1</ele>
        <time>2022-06-12T12:21:11Z</time>
      </trkpt>
      <trkpt lat="48.25723" lon="-3.50416">
        <ele>108.1</ele>
        <time>2022-06-12T12:21:12Z</time>
      </trkpt>
      <trkpt lat="48.25723" lon="-3.50414">
        <ele>108.1</ele>
        <time>2022-06-12T12:21:13Z</time>
      </trkpt>
      <trkpt lat="48.25723" lon="-3.50412">
        <ele>108.1</ele>
        <time>2022-06-12T12:21:14Z</time>
      </trkpt>
      <trkpt lat="48.25724" lon="-3.50411">
        <ele>108.1</ele>
        <time>2022-06-12T12:21:15Z</time>
      </trkpt>
      <trkpt lat="48.25724" lon="-3.50409">
        <ele>108.1</ele>
        <time>2022-06-12T12:21:17Z</time>
      </trkpt>
      <trkpt lat="48.25724" lon="-3.50407">
        <ele>108.1</ele>
        <time>2022-06-12T12:21:18Z</time>
      </trkpt>
      <trkpt lat="48.25725" lon="-3.50406">
        <ele>108.1</ele>
        <time>2022-06-12T12:21:19Z</time>
      </trkpt>
      <trkpt lat="48.25725" lon="-3.50405">
        <ele>108.1</ele>
        <time>2022-06-12T12:21:20Z</time>
      </trkpt>
      <trkpt lat="48.25725" lon="-3.50404">
        <ele>108.1</ele>
        <time>2022-06-12T12:21:21Z</time>
      </trkpt>
      <trkpt lat="48.25725" lon="-3.50403">
        <ele>108.1</ele>
        <time>2022-06-12T12:21:22Z</time>
      </trkpt>
      <trkpt lat="48.25725" lon="-3.50402">
        <ele>108.1</ele>
        <time>2022-06-12T12:21:23Z</time>
      </trkpt>
      <trkpt lat="48.25725" lon="-3.504">
        <ele>108.1</ele>
        <time>2022-06-12T12:21:24Z</time>
      </trkpt>
      <trkpt lat="48.25724" lon="-3.50397">
        <ele>108.1</ele>
        <time>2022-06-12T12:21:25Z</time>
      </trkpt>
      <trkpt lat="48.25724" lon="-3.50396">
        <ele>108.1</ele>
        <time>2022-06-12T12:21:26Z</time>
      </trkpt>
      <trkpt lat="48.25724" lon="-3.50394">
        <ele>108.1</ele>
        <time>2022-06-12T12:21:28Z</time>
      </trkpt>
      <trkpt lat="48.25723" lon="-3.50392">
        <ele>108.1</ele>
        <time>2022-06-12T12:21:29Z</time>
      </trkpt>
      <trkpt lat="48.25723" lon="-3.50391">
        <ele>108.1</ele>
        <time>2022-06-12T12:21:30Z</time>
      </trkpt>
      <trkpt lat="48.25722" lon="-3.50387">
        <ele>108.1</ele>
        <time>2022-06-12T12:21:31Z</time>
      </trkpt>
      <trkpt lat="48.25722" lon="-3.50386">
        <ele>108.1</ele>
        <time>2022-06-12T12:21:32Z</time>
      </trkpt>
      <trkpt lat="48.25722" lon="-3.50385">
        <ele>108.1</ele>
        <time>2022-06-12T12:21:33Z</time>
      </trkpt>
      <trkpt lat="48.25721" lon="-3.50384">
        <ele>108.1</ele>
        <time>2022-06-12T12:21:34Z</time>
      </trkpt>
      <trkpt lat="48.2572" lon="-3.50382">
        <ele>108.1</ele>
        <time>2022-06-12T12:21:35Z</time>
      </trkpt>
      <trkpt lat="48.2572" lon="-3.50381">
        <ele>108.1</ele>
        <time>2022-06-12T12:21:36Z</time>
      </trkpt>
      <trkpt lat="48.25719" lon="-3.50379">
        <ele>108.1</ele>
        <time>2022-06-12T12:21:37Z</time>
      </trkpt>
      <trkpt lat="48.25719" lon="-3.50377">
        <ele>108.2</ele>
        <time>2022-06-12T12:21:39Z</time>
      </trkpt>
      <trkpt lat="48.25718" lon="-3.50375">
        <ele>108.2</ele>
        <time>2022-06-12T12:21:40Z</time>
      </trkpt>
      <trkpt lat="48.25717" lon="-3.50373">
        <ele>108.2</ele>
        <time>2022-06-12T12:21:42Z</time>
      </trkpt>
      <trkpt lat="48.25717" lon="-3.50372">
        <ele>108.2</ele>
        <time>2022-06-12T12:21:43Z</time>
      </trkpt>
      <trkpt lat="48.25716" lon="-3.5037">
        <ele>108.2</ele>
        <time>2022-06-12T12:21:44Z</time>
      </trkpt>
      <trkpt lat="48.25716" lon="-3.50368">
        <ele>108.2</ele>
        <time>2022-06-12T12:21:45Z</time>
      </trkpt>
      <trkpt lat="48.25716" lon="-3.50365">
        <ele>108.2</ele>
        <time>2022-06-12T12:21:46Z</time>
      </trkpt>
      <trkpt lat="48.25716" lon="-3.50364">
        <ele>108.2</ele>
        <time>2022-06-12T12:21:47Z</time>
      </trkpt>
      <trkpt lat="48.25716" lon="-3.50363">
        <ele>108.2</ele>
        <time>2022-06-12T12:21:48Z</time>
      </trkpt>
      <trkpt lat="48.25715" lon="-3.50359">
        <ele>108.2</ele>
        <time>2022-06-12T12:21:49Z</time>
      </trkpt>
      <trkpt lat="48.25715" lon="-3.50358">
        <ele>108.2</ele>
        <time>2022-06-12T12:21:51Z</time>
      </trkpt>
      <trkpt lat="48.25715" lon="-3.50357">
        <ele>108.2</ele>
        <time>2022-06-12T12:21:52Z</time>
      </trkpt>
      <trkpt lat="48.25715" lon="-3.50354">
        <ele>108.3</ele>
        <time>2022-06-12T12:21:53Z</time>
      </trkpt>
      <trkpt lat="48.25715" lon="-3.50353">
        <ele>108.3</ele>
        <time>2022-06-12T12:21:54Z</time>
      </trkpt>
      <trkpt lat="48.25715" lon="-3.50351">
        <ele>108.3</ele>
        <time>2022-06-12T12:21:55Z</time>
      </trkpt>
      <trkpt lat="48.25715" lon="-3.50348">
        <ele>108.3</ele>
        <time>2022-06-12T12:21:56Z</time>
      </trkpt>
      <trkpt lat="48.25715" lon="-3.50347">
        <ele>108.3</ele>
        <time>2022-06-12T12:21:57Z</time>
      </trkpt>
      <trkpt lat="48.25714" lon="-3.50346">
        <ele>108.3</ele>
        <time>2022-06-12T12:21:58Z</time>
      </trkpt>
      <trkpt lat="48.25714" lon="-3.50343">
        <ele>108.3</ele>
        <time>2022-06-12T12:21:59Z</time>
      </trkpt>
      <trkpt lat="48.25713" lon="-3.50341">
        <ele>108.3</ele>
        <time>2022-06-12T12:22:00Z</time>
      </trkpt>
      <trkpt lat="48.25713" lon="-3.5034">
        <ele>108.3</ele>
        <time>2022-06-12T12:22:01Z</time>
      </trkpt>
      <trkpt lat="48.25712" lon="-3.50337">
        <ele>108.3</ele>
        <time>2022-06-12T12:22:03Z</time>
      </trkpt>
      <trkpt lat="48.25712" lon="-3.50336">
        <ele>108.4</ele>
        <time>2022-06-12T12:22:04Z</time>
      </trkpt>
      <trkpt lat="48.25712" lon="-3.50334">
        <ele>108.4</ele>
        <time>2022-06-12T12:22:05Z</time>
      </trkpt>
      <trkpt lat="48.25711" lon="-3.50332">
        <ele>108.4</ele>
        <time>2022-06-12T12:22:06Z</time>
      </trkpt>
      <trkpt lat="48.2571" lon="-3.50331">
        <ele>108.4</ele>
        <time>2022-06-12T12:22:07Z</time>
      </trkpt>
      <trkpt lat="48.2571" lon="-3.5033">
        <ele>108.4</ele>
        <time>2022-06-12T12:22:08Z</time>
      </trkpt>
      <trkpt lat="48.25709" lon="-3.50328">
        <ele>108.4</ele>
        <time>2022-06-12T12:22:09Z</time>
      </trkpt>
      <trkpt lat="48.25709" lon="-3.50327">
        <ele>108.4</ele>
        <time>2022-06-12T12:22:10Z</time>
      </trkpt>
      <trkpt lat="48.25708" lon="-3.50325">
        <ele>108.5</ele>
        <time>2022-06-12T12:22:11Z</time>
      </trkpt>
      <trkpt lat="48.25707" lon="-3.50323">
        <ele>108.5</ele>
        <time>2022-06-12T12:22:12Z</time>
      </trkpt>
      <trkpt lat="48.25706" lon="-3.5032">
        <ele>108.5</ele>
        <time>2022-06-12T12:22:14Z</time>
      </trkpt>
      <trkpt lat="48.25706" lon="-3.50319">
        <ele>108.6</ele>
        <time>2022-06-12T12:22:15Z</time>
      </trkpt>
      <trkpt lat="48.25705" lon="-3.50317">
        <ele>108.6</ele>
        <time>2022-06-12T12:22:16Z</time>
      </trkpt>
      <trkpt lat="48.25705" lon="-3.50316">
        <ele>108.6</ele>
        <time>2022-06-12T12:22:17Z</time>
      </trkpt>
      <trkpt lat="48.25705" lon="-3.50315">
        <ele>108.6</ele>
        <time>2022-06-12T12:22:18Z</time>
      </trkpt>
      <trkpt lat="48.25704" lon="-3.50313">
        <ele>108.6</ele>
        <time>2022-06-12T12:22:19Z</time>
      </trkpt>
      <trkpt lat="48.25704" lon="-3.50311">
        <ele>108.7</ele>
        <time>2022-06-12T12:22:20Z</time>
      </trkpt>
      <trkpt lat="48.25704" lon="-3.50309">
        <ele>108.7</ele>
        <time>2022-06-12T12:22:21Z</time>
      </trkpt>
      <trkpt lat="48.25703" lon="-3.50308">
        <ele>108.7</ele>
        <time>2022-06-12T12:22:22Z</time>
      </trkpt>
      <trkpt lat="48.25703" lon="-3.50306">
        <ele>108.7</ele>
        <time>2022-06-12T12:22:24Z</time>
      </trkpt>
      <trkpt lat="48.25703" lon="-3.50304">
        <ele>108.8</ele>
        <time>2022-06-12T12:22:25Z</time>
      </trkpt>
      <trkpt lat="48.25702" lon="-3.50301">
        <ele>108.8</ele>
        <time>2022-06-12T12:22:26Z</time>
      </trkpt>
      <trkpt lat="48.25702" lon="-3.503">
        <ele>108.8</ele>
        <time>2022-06-12T12:22:27Z</time>
      </trkpt>
      <trkpt lat="48.25702" lon="-3.50299">
        <ele>108.9</ele>
        <time>2022-06-12T12:22:28Z</time>
      </trkpt>
      <trkpt lat="48.25701" lon="-3.50298">
        <ele>108.9</ele>
        <time>2022-06-12T12:22:29Z</time>
      </trkpt>
      <trkpt lat="48.25701" lon="-3.50297">
        <ele>108.9</ele>
        <time>2022-06-12T12:22:30Z</time>
      </trkpt>
      <trkpt lat="48.257" lon="-3.50295">
        <ele>109</ele>
        <time>2022-06-12T12:22:31Z</time>
      </trkpt>
      <trkpt lat="48.257" lon="-3.50294">
        <ele>109</ele>
        <time>2022-06-12T12:22:33Z</time>
      </trkpt>
      <trkpt lat="48.25699" lon="-3.50292">
        <ele>109</ele>
        <time>2022-06-12T12:22:34Z</time>
      </trkpt>
      <trkpt lat="48.25699" lon="-3.50291">
        <ele>109.1</ele>
        <time>2022-06-12T12:22:35Z</time>
      </trkpt>
      <trkpt lat="48.25699" lon="-3.50289">
        <ele>109.1</ele>
        <time>2022-06-12T12:22:36Z</time>
      </trkpt>
      <trkpt lat="48.25698" lon="-3.50288">
        <ele>109.2</ele>
        <time>2022-06-12T12:22:37Z</time>
      </trkpt>
      <trkpt lat="48.25698" lon="-3.50286">
        <ele>109.2</ele>
        <time>2022-06-12T12:22:38Z</time>
      </trkpt>
      <trkpt lat="48.25697" lon="-3.50284">
        <ele>109.3</ele>
        <time>2022-06-12T12:22:39Z</time>
      </trkpt>
      <trkpt lat="48.25697" lon="-3.50283">
        <ele>109.3</ele>
        <time>2022-06-12T12:22:41Z</time>
      </trkpt>
      <trkpt lat="48.25696" lon="-3.50281">
        <ele>109.3</ele>
        <time>2022-06-12T12:22:42Z</time>
      </trkpt>
      <trkpt lat="48.25696" lon="-3.5028">
        <ele>109.4</ele>
        <time>2022-06-12T12:22:43Z</time>
      </trkpt>
      <trkpt lat="48.25696" lon="-3.50278">
        <ele>109.4</ele>
        <time>2022-06-12T12:22:44Z</time>
      </trkpt>
      <trkpt lat="48.25695" lon="-3.50277">
        <ele>109.5</ele>
        <time>2022-06-12T12:22:45Z</time>
      </trkpt>
      <trkpt lat="48.25694" lon="-3.50274">
        <ele>109.6</ele>
        <time>2022-06-12T12:22:46Z</time>
      </trkpt>
      <trkpt lat="48.25694" lon="-3.50273">
        <ele>109.6</ele>
        <time>2022-06-12T12:22:48Z</time>
      </trkpt>
      <trkpt lat="48.25693" lon="-3.50272">
        <ele>109.6</ele>
        <time>2022-06-12T12:22:49Z</time>
      </trkpt>
      <trkpt lat="48.25693" lon="-3.50271">
        <ele>109.7</ele>
        <time>2022-06-12T12:22:50Z</time>
      </trkpt>
      <trkpt lat="48.25692" lon="-3.50268">
        <ele>109.7</ele>
        <time>2022-06-12T12:22:52Z</time>
      </trkpt>
      <trkpt lat="48.25692" lon="-3.50266">
        <ele>109.8</ele>
        <time>2022-06-12T12:22:53Z</time>
      </trkpt>
      <trkpt lat="48.25691" lon="-3.50265">
        <ele>109.8</ele>
        <time>2022-06-12T12:22:54Z</time>
      </trkpt>
      <trkpt lat="48.25691" lon="-3.50264">
        <ele>109.9</ele>
        <time>2022-06-12T12:22:55Z</time>
      </trkpt>
      <trkpt lat="48.2569" lon="-3.50262">
        <ele>109.9</ele>
        <time>2022-06-12T12:22:57Z</time>
      </trkpt>
      <trkpt lat="48.25689" lon="-3.50261">
        <ele>110</ele>
        <time>2022-06-12T12:22:58Z</time>
      </trkpt>
      <trkpt lat="48.25688" lon="-3.5026">
        <ele>110</ele>
        <time>2022-06-12T12:22:59Z</time>
      </trkpt>
      <trkpt lat="48.25688" lon="-3.50259">
        <ele>110</ele>
        <time>2022-06-12T12:23:00Z</time>
      </trkpt>
      <trkpt lat="48.25686" lon="-3.50257">
        <ele>110.1</ele>
        <time>2022-06-12T12:23:02Z</time>
      </trkpt>
      <trkpt lat="48.25686" lon="-3.50256">
        <ele>110.1</ele>
        <time>2022-06-12T12:23:03Z</time>
      </trkpt>
      <trkpt lat="48.25686" lon="-3.50257">
        <ele>110.1</ele>
        <time>2022-06-12T12:23:04Z</time>
      </trkpt>
      <trkpt lat="48.25685" lon="-3.50258">
        <ele>110.2</ele>
        <time>2022-06-12T12:23:06Z</time>
      </trkpt>
      <trkpt lat="48.25685" lon="-3.50258">
        <ele>110.2</ele>
        <time>2022-06-12T12:23:07Z</time>
      </trkpt>
      <trkpt lat="48.25685" lon="-3.50258">
        <ele>110.2</ele>
        <time>2022-06-12T12:23:08Z</time>
      </trkpt>
      <trkpt lat="48.25684" lon="-3.50258">
        <ele>110.2</ele>
        <time>2022-06-12T12:23:09Z</time>
      </trkpt>
      <trkpt lat="48.25685" lon="-3.50256">
        <ele>110.2</ele>
        <time>2022-06-12T12:23:10Z</time>
      </trkpt>
      <trkpt lat="48.25685" lon="-3.50254">
        <ele>110.3</ele>
        <time>2022-06-12T12:23:12Z</time>
      </trkpt>
      <trkpt lat="48.25684" lon="-3.50254">
        <ele>110.3</ele>
        <time>2022-06-12T12:23:13Z</time>
      </trkpt>
      <trkpt lat="48.25684" lon="-3.50253">
        <ele>110.3</ele>
        <time>2022-06-12T12:23:14Z</time>
      </trkpt>
      <trkpt lat="48.25684" lon="-3.50252">
        <ele>110.3</ele>
        <time>2022-06-12T12:23:15Z</time>
      </trkpt>
      <trkpt lat="48.25684" lon="-3.50251">
        <ele>110.3</ele>
        <time>2022-06-12T12:23:16Z</time>
      </trkpt>
      <trkpt lat="48.25683" lon="-3.5025">
        <ele>110.3</ele>
        <time>2022-06-12T12:23:17Z</time>
      </trkpt>
      <trkpt lat="48.25683" lon="-3.50249">
        <ele>110.3</ele>
        <time>2022-06-12T12:23:18Z</time>
      </trkpt>
      <trkpt lat="48.25684" lon="-3.50247">
        <ele>110.3</ele>
        <time>2022-06-12T12:23:20Z</time>
      </trkpt>
      <trkpt lat="48.25684" lon="-3.50245">
        <ele>110.3</ele>
        <time>2022-06-12T12:23:21Z</time>
      </trkpt>
      <trkpt lat="48.25685" lon="-3.50244">
        <ele>110.3</ele>
        <time>2022-06-12T12:23:22Z</time>
      </trkpt>
      <trkpt lat="48.25685" lon="-3.50243">
        <ele>110.3</ele>
        <time>2022-06-12T12:23:23Z</time>
      </trkpt>
      <trkpt lat="48.25686" lon="-3.50243">
        <ele>110.3</ele>
        <time>2022-06-12T12:23:24Z</time>
      </trkpt>
      <trkpt lat="48.25686" lon="-3.50243">
        <ele>110.3</ele>
        <time>2022-06-12T12:23:25Z</time>
      </trkpt>
      <trkpt lat="48.25686" lon="-3.50243">
        <ele>110.3</ele>
        <time>2022-06-12T12:23:26Z</time>
      </trkpt>
      <trkpt lat="48.25687" lon="-3.50242">
        <ele>110.3</ele>
        <time>2022-06-12T12:23:27Z</time>
      </trkpt>
      <trkpt lat="48.25687" lon="-3.50243">
        <ele>110.3</ele>
        <time>2022-06-12T12:23:28Z</time>
      </trkpt>
      <trkpt lat="48.25687" lon="-3.50243">
        <ele>110.3</ele>
        <time>2022-06-12T12:23:29Z</time>
      </trkpt>
      <trkpt lat="48.25687" lon="-3.50242">
        <ele>110.3</ele>
        <time>2022-06-12T12:23:30Z</time>
      </trkpt>
      <trkpt lat="48.25686" lon="-3.50241">
        <ele>110.3</ele>
        <time>2022-06-12T12:23:32Z</time>
      </trkpt>
      <trkpt lat="48.25686" lon="-3.50241">
        <ele>110.3</ele>
        <time>2022-06-12T12:23:33Z</time>
      </trkpt>
      <trkpt lat="48.25686" lon="-3.5024">
        <ele>110.3</ele>
        <time>2022-06-12T12:23:34Z</time>
      </trkpt>
      <trkpt lat="48.25685" lon="-3.50239">
        <ele>110.3</ele>
        <time>2022-06-12T12:23:35Z</time>
      </trkpt>
      <trkpt lat="48.25685" lon="-3.50238">
        <ele>110.3</ele>
        <time>2022-06-12T12:23:36Z</time>
      </trkpt>
      <trkpt lat="48.25684" lon="-3.50236">
        <ele>110.3</ele>
        <time>2022-06-12T12:23:37Z</time>
      </trkpt>
      <trkpt lat="48.25683" lon="-3.50234">
        <ele>110.3</ele>
        <time>2022-06-12T12:23:39Z</time>
      </trkpt>
      <trkpt lat="48.25682" lon="-3.50233">
        <ele>110.3</ele>
        <time>2022-06-12T12:23:40Z</time>
      </trkpt>
      <trkpt lat="48.25681" lon="-3.50232">
        <ele>110.3</ele>
        <time>2022-06-12T12:23:41Z</time>
      </trkpt>
      <trkpt lat="48.2568" lon="-3.50231">
        <ele>110.3</ele>
        <time>2022-06-12T12:23:42Z</time>
      </trkpt>
      <trkpt lat="48.25679" lon="-3.50231">
        <ele>110.3</ele>
        <time>2022-06-12T12:23:44Z</time>
      </trkpt>
      <trkpt lat="48.25678" lon="-3.50231">
        <ele>110.3</ele>
        <time>2022-06-12T12:23:45Z</time>
      </trkpt>
      <trkpt lat="48.25677" lon="-3.50231">
        <ele>110.3</ele>
        <time>2022-06-12T12:23:46Z</time>
      </trkpt>
      <trkpt lat="48.25676" lon="-3.50231">
        <ele>110.3</ele>
        <time>2022-06-12T12:23:47Z</time>
      </trkpt>
      <trkpt lat="48.25675" lon="-3.50231">
        <ele>110.3</ele>
        <time>2022-06-12T12:23:48Z</time>
      </trkpt>
      <trkpt lat="48.25675" lon="-3.50231">
        <ele>110.3</ele>
        <time>2022-06-12T12:23:49Z</time>
      </trkpt>
      <trkpt lat="48.25674" lon="-3.50231">
        <ele>110.3</ele>
        <time>2022-06-12T12:23:50Z</time>
      </trkpt>
      <trkpt lat="48.25673" lon="-3.50231">
        <ele>110.3</ele>
        <time>2022-06-12T12:23:51Z</time>
      </trkpt>
      <trkpt lat="48.25672" lon="-3.50231">
        <ele>110.2</ele>
        <time>2022-06-12T12:23:52Z</time>
      </trkpt>
      <trkpt lat="48.25672" lon="-3.5023">
        <ele>110.2</ele>
        <time>2022-06-12T12:23:53Z</time>
      </trkpt>
      <trkpt lat="48.25671" lon="-3.5023">
        <ele>110.2</ele>
        <time>2022-06-12T12:23:54Z</time>
      </trkpt>
      <trkpt lat="48.25671" lon="-3.5023">
        <ele>110.2</ele>
        <time>2022-06-12T12:23:55Z</time>
      </trkpt>
      <trkpt lat="48.25671" lon="-3.5023">
        <ele>110.2</ele>
        <time>2022-06-12T12:23:56Z</time>
      </trkpt>
      <trkpt lat="48.25671" lon="-3.5023">
        <ele>110.2</ele>
        <time>2022-06-12T12:23:57Z</time>
      </trkpt>
      <trkpt lat="48.25671" lon="-3.5023">
        <ele>110.2</ele>
        <time>2022-06-12T12:23:58Z</time>
      </trkpt>
      <trkpt lat="48.25671" lon="-3.5023">
        <ele>110.2</ele>
        <time>2022-06-12T12:23:59Z</time>
      </trkpt>
      <trkpt lat="48.25671" lon="-3.5023">
        <ele>110.2</ele>
        <time>2022-06-12T12:24:00Z</time>
      </trkpt>
      <trkpt lat="48.25671" lon="-3.5023">
        <ele>110.2</ele>
        <time>2022-06-12T12:24:01Z</time>
      </trkpt>
      <trkpt lat="48.25671" lon="-3.5023">
        <ele>110.2</ele>
        <time>2022-06-12T12:24:02Z</time>
      </trkpt>
      <trkpt lat="48.25671" lon="-3.5023">
        <ele>110.2</ele>
        <time>2022-06-12T12:24:04Z</time>
      </trkpt>
      <trkpt lat="48.25671" lon="-3.50229">
        <ele>110.2</ele>
        <time>2022-06-12T12:24:05Z</time>
      </trkpt>
      <trkpt lat="48.25671" lon="-3.50229">
        <ele>110.2</ele>
        <time>2022-06-12T12:24:06Z</time>
      </trkpt>
      <trkpt lat="48.25671" lon="-3.50229">
        <ele>110.2</ele>
        <time>2022-06-12T12:24:07Z</time>
      </trkpt>
      <trkpt lat="48.25671" lon="-3.50228">
        <ele>110.2</ele>
        <time>2022-06-12T12:24:08Z</time>
      </trkpt>
      <trkpt lat="48.2567" lon="-3.50228">
        <ele>110.2</ele>
        <time>2022-06-12T12:24:09Z</time>
      </trkpt>
      <trkpt lat="48.2567" lon="-3.50227">
        <ele>110.2</ele>
        <time>2022-06-12T12:24:10Z</time>
      </trkpt>
      <trkpt lat="48.25669" lon="-3.50226">
        <ele>110.2</ele>
        <time>2022-06-12T12:24:11Z</time>
      </trkpt>
      <trkpt lat="48.25668" lon="-3.50225">
        <ele>110.2</ele>
        <time>2022-06-12T12:24:12Z</time>
      </trkpt>
      <trkpt lat="48.25668" lon="-3.50224">
        <ele>110.2</ele>
        <time>2022-06-12T12:24:14Z</time>
      </trkpt>
      <trkpt lat="48.25668" lon="-3.50223">
        <ele>110.2</ele>
        <time>2022-06-12T12:24:15Z</time>
      </trkpt>
      <trkpt lat="48.25668" lon="-3.50221">
        <ele>110.2</ele>
        <time>2022-06-12T12:24:16Z</time>
      </trkpt>
      <trkpt lat="48.25668" lon="-3.50218">
        <ele>110.2</ele>
        <time>2022-06-12T12:24:18Z</time>
      </trkpt>
      <trkpt lat="48.25667" lon="-3.50217">
        <ele>110.2</ele>
        <time>2022-06-12T12:24:19Z</time>
      </trkpt>
      <trkpt lat="48.25667" lon="-3.50214">
        <ele>110.2</ele>
        <time>2022-06-12T12:24:20Z</time>
      </trkpt>
      <trkpt lat="48.25668" lon="-3.5021">
        <ele>110.2</ele>
        <time>2022-06-12T12:24:22Z</time>
      </trkpt>
      <trkpt lat="48.25669" lon="-3.50208">
        <ele>110.2</ele>
        <time>2022-06-12T12:24:23Z</time>
      </trkpt>
      <trkpt lat="48.2567" lon="-3.50207">
        <ele>110.2</ele>
        <time>2022-06-12T12:24:25Z</time>
      </trkpt>
      <trkpt lat="48.2567" lon="-3.50206">
        <ele>110.2</ele>
        <time>2022-06-12T12:24:26Z</time>
      </trkpt>
      <trkpt lat="48.2567" lon="-3.50206">
        <ele>110.2</ele>
        <time>2022-06-12T12:24:27Z</time>
      </trkpt>
      <trkpt lat="48.2567" lon="-3.50206">
        <ele>110.2</ele>
        <time>2022-06-12T12:24:28Z</time>
      </trkpt>
      <trkpt lat="48.25671" lon="-3.50207">
        <ele>110.2</ele>
        <time>2022-06-12T12:24:29Z</time>
      </trkpt>
      <trkpt lat="48.25671" lon="-3.50207">
        <ele>110.2</ele>
        <time>2022-06-12T12:24:30Z</time>
      </trkpt>
      <trkpt lat="48.25671" lon="-3.50207">
        <ele>110.2</ele>
        <time>2022-06-12T12:24:31Z</time>
      </trkpt>
      <trkpt lat="48.25671" lon="-3.50207">
        <ele>110.2</ele>
        <time>2022-06-12T12:24:33Z</time>
      </trkpt>
      <trkpt lat="48.25671" lon="-3.50207">
        <ele>110.2</ele>
        <time>2022-06-12T12:24:34Z</time>
      </trkpt>
      <trkpt lat="48.25672" lon="-3.50207">
        <ele>110.2</ele>
        <time>2022-06-12T12:24:35Z</time>
      </trkpt>
      <trkpt lat="48.25672" lon="-3.50207">
        <ele>110.2</ele>
        <time>2022-06-12T12:24:36Z</time>
      </trkpt>
      <trkpt lat="48.25672" lon="-3.50207">
        <ele>110.2</ele>
        <time>2022-06-12T12:24:38Z</time>
      </trkpt>
      <trkpt lat="48.25672" lon="-3.50207">
        <ele>110.2</ele>
        <time>2022-06-12T12:24:39Z</time>
      </trkpt>
      <trkpt lat="48.25672" lon="-3.50207">
        <ele>110.2</ele>
        <time>2022-06-12T12:24:40Z</time>
      </trkpt>
      <trkpt lat="48.25671" lon="-3.50207">
        <ele>110.2</ele>
        <time>2022-06-12T12:24:41Z</time>
      </trkpt>
      <trkpt lat="48.25671" lon="-3.50208">
        <ele>110.2</ele>
        <time>2022-06-12T12:24:42Z</time>
      </trkpt>
      <trkpt lat="48.25671" lon="-3.50208">
        <ele>110.2</ele>
        <time>2022-06-12T12:24:43Z</time>
      </trkpt>
      <trkpt lat="48.25671" lon="-3.50208">
        <ele>110.2</ele>
        <time>2022-06-12T12:24:44Z</time>
      </trkpt>
      <trkpt lat="48.25671" lon="-3.50208">
        <ele>110.2</ele>
        <time>2022-06-12T12:24:45Z</time>
      </trkpt>
      <trkpt lat="48.25671" lon="-3.50208">
        <ele>110.2</ele>
        <time>2022-06-12T12:24:46Z</time>
      </trkpt>
      <trkpt lat="48.25671" lon="-3.50208">
        <ele>110.2</ele>
        <time>2022-06-12T12:24:47Z</time>
      </trkpt>
      <trkpt lat="48.25671" lon="-3.50208">
        <ele>110.2</ele>
        <time>2022-06-12T12:24:48Z</time>
      </trkpt>
      <trkpt lat="48.25671" lon="-3.50208">
        <ele>110.2</ele>
        <time>2022-06-12T12:24:49Z</time>
      </trkpt>
      <trkpt lat="48.25671" lon="-3.50208">
        <ele>110.2</ele>
        <time>2022-06-12T12:24:50Z</time>
      </trkpt>
      <trkpt lat="48.25671" lon="-3.50208">
        <ele>110.2</ele>
        <time>2022-06-12T12:24:51Z</time>
      </trkpt>
      <trkpt lat="48.25671" lon="-3.50208">
        <ele>110.2</ele>
        <time>2022-06-12T12:24:52Z</time>
      </trkpt>
      <trkpt lat="48.25671" lon="-3.50208">
        <ele>110.2</ele>
        <time>2022-06-12T12:24:53Z</time>
      </trkpt>
      <trkpt lat="48.25671" lon="-3.50208">
        <ele>110.2</ele>
        <time>2022-06-12T12:24:54Z</time>
      </trkpt>
      <trkpt lat="48.25671" lon="-3.50208">
        <ele>110.2</ele>
        <time>2022-06-12T12:24:55Z</time>
      </trkpt>
      <trkpt lat="48.25671" lon="-3.50208">
        <ele>110.2</ele>
        <time>2022-06-12T12:24:56Z</time>
      </trkpt>
      <trkpt lat="48.25671" lon="-3.50208">
        <ele>110.2</ele>
        <time>2022-06-12T12:24:57Z</time>
      </trkpt>
      <trkpt lat="48.25671" lon="-3.50208">
        <ele>110.2</ele>
        <time>2022-06-12T12:24:58Z</time>
      </trkpt>
      <trkpt lat="48.25671" lon="-3.50208">
        <ele>110.2</ele>
        <time>2022-06-12T12:24:59Z</time>
      </trkpt>
      <trkpt lat="48.25671" lon="-3.50208">
        <ele>110.2</ele>
        <time>2022-06-12T12:25:00Z</time>
      </trkpt>
      <trkpt lat="48.25671" lon="-3.50208">
        <ele>110.2</ele>
        <time>2022-06-12T12:25:01Z</time>
      </trkpt>
      <trkpt lat="48.25671" lon="-3.50208">
        <ele>110.2</ele>
        <time>2022-06-12T12:25:02Z</time>
      </trkpt>
      <trkpt lat="48.25671" lon="-3.50208">
        <ele>110.2</ele>
        <time>2022-06-12T12:25:03Z</time>
      </trkpt>
      <trkpt lat="48.25671" lon="-3.50208">
        <ele>110.2</ele>
        <time>2022-06-12T12:25:04Z</time>
      </trkpt>
      <trkpt lat="48.25671" lon="-3.50208">
        <ele>110.2</ele>
        <time>2022-06-12T12:25:05Z</time>
      </trkpt>
      <trkpt lat="48.25671" lon="-3.50208">
        <ele>110.2</ele>
        <time>2022-06-12T12:25:06Z</time>
      </trkpt>
      <trkpt lat="48.25671" lon="-3.50208">
        <ele>110.2</ele>
        <time>2022-06-12T12:25:07Z</time>
      </trkpt>
      <trkpt lat="48.25671" lon="-3.50208">
        <ele>110.2</ele>
        <time>2022-06-12T12:25:08Z</time>
      </trkpt>
      <trkpt lat="48.25671" lon="-3.50208">
        <ele>110.2</ele>
        <time>2022-06-12T12:25:09Z</time>
      </trkpt>
      <trkpt lat="48.25671" lon="-3.50208">
        <ele>110.2</ele>
        <time>2022-06-12T12:25:10Z</time>
      </trkpt>
      <trkpt lat="48.25671" lon="-3.50208">
        <ele>110.2</ele>
        <time>2022-06-12T12:25:11Z</time>
      </trkpt>
      <trkpt lat="48.25671" lon="-3.50208">
        <ele>110.2</ele>
        <time>2022-06-12T12:25:12Z</time>
      </trkpt>
      <trkpt lat="48.25671" lon="-3.50208">
        <ele>110.2</ele>
        <time>2022-06-12T12:25:13Z</time>
      </trkpt>
      <trkpt lat="48.25671" lon="-3.50208">
        <ele>110.2</ele>
        <time>2022-06-12T12:25:14Z</time>
      </trkpt>
      <trkpt lat="48.25671" lon="-3.50208">
        <ele>110.2</ele>
        <time>2022-06-12T12:25:15Z</time>
      </trkpt>
      <trkpt lat="48.25671" lon="-3.50208">
        <ele>110.2</ele>
        <time>2022-06-12T12:25:16Z</time>
      </trkpt>
      <trkpt lat="48.25671" lon="-3.50208">
        <ele>110.2</ele>
        <time>2022-06-12T12:25:17Z</time>
      </trkpt>
      <trkpt lat="48.25671" lon="-3.50208">
        <ele>110.2</ele>
        <time>2022-06-12T12:25:18Z</time>
      </trkpt>
      <trkpt lat="48.25671" lon="-3.50208">
        <ele>110.2</ele>
        <time>2022-06-12T12:25:19Z</time>
      </trkpt>
      <trkpt lat="48.25671" lon="-3.50208">
        <ele>110.2</ele>
        <time>2022-06-12T12:25:20Z</time>
      </trkpt>
      <trkpt lat="48.25671" lon="-3.50208">
        <ele>110.2</ele>
        <time>2022-06-12T12:25:21Z</time>
      </trkpt>
      <trkpt lat="48.25671" lon="-3.50208">
        <ele>110.2</ele>
        <time>2022-06-12T12:25:22Z</time>
      </trkpt>
      <trkpt lat="48.25671" lon="-3.50208">
        <ele>110.2</ele>
        <time>2022-06-12T12:25:23Z</time>
      </trkpt>
      <trkpt lat="48.25671" lon="-3.50208">
        <ele>110.2</ele>
        <time>2022-06-12T12:25:24Z</time>
      </trkpt>
      <trkpt lat="48.25671" lon="-3.50208">
        <ele>110.2</ele>
        <time>2022-06-12T12:25:25Z</time>
      </trkpt>
      <trkpt lat="48.25671" lon="-3.50208">
        <ele>110.2</ele>
        <time>2022-06-12T12:25:26Z</time>
      </trkpt>
      <trkpt lat="48.25671" lon="-3.50208">
        <ele>110.2</ele>
        <time>2022-06-12T12:25:27Z</time>
      </trkpt>
      <trkpt lat="48.25671" lon="-3.50208">
        <ele>110.2</ele>
        <time>2022-06-12T12:25:28Z</time>
      </trkpt>
      <trkpt lat="48.25671" lon="-3.50208">
        <ele>110.2</ele>
        <time>2022-06-12T12:25:29Z</time>
      </trkpt>
      <trkpt lat="48.25671" lon="-3.50208">
        <ele>110.2</ele>
        <time>2022-06-12T12:25:30Z</time>
      </trkpt>
      <trkpt lat="48.25671" lon="-3.50208">
        <ele>110.2</ele>
        <time>2022-06-12T12:25:31Z</time>
      </trkpt>
      <trkpt lat="48.25671" lon="-3.50208">
        <ele>110.2</ele>
        <time>2022-06-12T12:25:32Z</time>
      </trkpt>
      <trkpt lat="48.25671" lon="-3.50208">
        <ele>110.2</ele>
        <time>2022-06-12T12:25:33Z</time>
      </trkpt>
      <trkpt lat="48.25671" lon="-3.50208">
        <ele>110.2</ele>
        <time>2022-06-12T12:25:34Z</time>
      </trkpt>
      <trkpt lat="48.25671" lon="-3.50208">
        <ele>110.2</ele>
        <time>2022-06-12T12:25:35Z</time>
      </trkpt>
      <trkpt lat="48.25671" lon="-3.50208">
        <ele>110.2</ele>
        <time>2022-06-12T12:25:36Z</time>
      </trkpt>
      <trkpt lat="48.25671" lon="-3.50208">
        <ele>110.2</ele>
        <time>2022-06-12T12:25:37Z</time>
      </trkpt>
      <trkpt lat="48.25671" lon="-3.50208">
        <ele>110.2</ele>
        <time>2022-06-12T12:25:38Z</time>
      </trkpt>
      <trkpt lat="48.25671" lon="-3.50208">
        <ele>110.2</ele>
        <time>2022-06-12T12:25:39Z</time>
      </trkpt>
      <trkpt lat="48.25671" lon="-3.50208">
        <ele>110.2</ele>
        <time>2022-06-12T12:25:40Z</time>
      </trkpt>
      <trkpt lat="48.2567" lon="-3.5021">
        <ele>110.2</ele>
        <time>2022-06-12T12:25:41Z</time>
      </trkpt>
      <trkpt lat="48.2567" lon="-3.50211">
        <ele>110.2</ele>
        <time>2022-06-12T12:25:42Z</time>
      </trkpt>
      <trkpt lat="48.2567" lon="-3.50211">
        <ele>110.2</ele>
        <time>2022-06-12T12:25:43Z</time>
      </trkpt>
      <trkpt lat="48.2567" lon="-3.50211">
        <ele>110.2</ele>
        <time>2022-06-12T12:25:44Z</time>
      </trkpt>
      <trkpt lat="48.2567" lon="-3.50211">
        <ele>110.2</ele>
        <time>2022-06-12T12:25:45Z</time>
      </trkpt>
      <trkpt lat="48.2567" lon="-3.50211">
        <ele>110.2</ele>
        <time>2022-06-12T12:25:46Z</time>
      </trkpt>
      <trkpt lat="48.2567" lon="-3.50211">
        <ele>110.2</ele>
        <time>2022-06-12T12:25:47Z</time>
      </trkpt>
      <trkpt lat="48.2567" lon="-3.50211">
        <ele>110.2</ele>
        <time>2022-06-12T12:25:48Z</time>
      </trkpt>
      <trkpt lat="48.2567" lon="-3.50211">
        <ele>110.2</ele>
        <time>2022-06-12T12:25:49Z</time>
      </trkpt>
      <trkpt lat="48.2567" lon="-3.50211">
        <ele>110.2</ele>
        <time>2022-06-12T12:25:50Z</time>
      </trkpt>
      <trkpt lat="48.2567" lon="-3.50211">
        <ele>110.2</ele>
        <time>2022-06-12T12:25:51Z</time>
      </trkpt>
      <trkpt lat="48.2567" lon="-3.5021">
        <ele>110.2</ele>
        <time>2022-06-12T12:25:52Z</time>
      </trkpt>
      <trkpt lat="48.2567" lon="-3.5021">
        <ele>110.2</ele>
        <time>2022-06-12T12:25:53Z</time>
      </trkpt>
      <trkpt lat="48.2567" lon="-3.5021">
        <ele>110.2</ele>
        <time>2022-06-12T12:25:54Z</time>
      </trkpt>
      <trkpt lat="48.2567" lon="-3.5021">
        <ele>110.2</ele>
        <time>2022-06-12T12:25:55Z</time>
      </trkpt>
      <trkpt lat="48.2567" lon="-3.5021">
        <ele>110.2</ele>
        <time>2022-06-12T12:25:56Z</time>
      </trkpt>
      <trkpt lat="48.2567" lon="-3.5021">
        <ele>110.2</ele>
        <time>2022-06-12T12:25:57Z</time>
      </trkpt>
      <trkpt lat="48.2567" lon="-3.5021">
        <ele>110.2</ele>
        <time>2022-06-12T12:25:58Z</time>
      </trkpt>
      <trkpt lat="48.2567" lon="-3.5021">
        <ele>110.2</ele>
        <time>2022-06-12T12:25:59Z</time>
      </trkpt>
      <trkpt lat="48.2567" lon="-3.5021">
        <ele>110.2</ele>
        <time>2022-06-12T12:26:00Z</time>
      </trkpt>
      <trkpt lat="48.2567" lon="-3.5021">
        <ele>110.2</ele>
        <time>2022-06-12T12:26:01Z</time>
      </trkpt>
      <trkpt lat="48.2567" lon="-3.5021">
        <ele>110.2</ele>
        <time>2022-06-12T12:26:02Z</time>
      </trkpt>
      <trkpt lat="48.2567" lon="-3.5021">
        <ele>110.2</ele>
        <time>2022-06-12T12:26:03Z</time>
      </trkpt>
      <trkpt lat="48.2567" lon="-3.50209">
        <ele>110.2</ele>
        <time>2022-06-12T12:26:04Z</time>
      </trkpt>
      <trkpt lat="48.2567" lon="-3.50209">
        <ele>110.2</ele>
        <time>2022-06-12T12:26:05Z</time>
      </trkpt>
      <trkpt lat="48.2567" lon="-3.50209">
        <ele>110.2</ele>
        <time>2022-06-12T12:26:06Z</time>
      </trkpt>
      <trkpt lat="48.2567" lon="-3.50209">
        <ele>110.2</ele>
        <time>2022-06-12T12:26:07Z</time>
      </trkpt>
      <trkpt lat="48.2567" lon="-3.50209">
        <ele>110.2</ele>
        <time>2022-06-12T12:26:08Z</time>
      </trkpt>
      <trkpt lat="48.2567" lon="-3.50209">
        <ele>110.2</ele>
        <time>2022-06-12T12:26:09Z</time>
      </trkpt>
      <trkpt lat="48.2567" lon="-3.50209">
        <ele>110.2</ele>
        <time>2022-06-12T12:26:10Z</time>
      </trkpt>
      <trkpt lat="48.2567" lon="-3.50209">
        <ele>110.2</ele>
        <time>2022-06-12T12:26:11Z</time>
      </trkpt>
      <trkpt lat="48.2567" lon="-3.50209">
        <ele>110.2</ele>
        <time>2022-06-12T12:26:12Z</time>
      </trkpt>
      <trkpt lat="48.2567" lon="-3.50209">
        <ele>110.2</ele>
        <time>2022-06-12T12:26:13Z</time>
      </trkpt>
      <trkpt lat="48.2567" lon="-3.50209">
        <ele>110.2</ele>
        <time>2022-06-12T12:26:14Z</time>
      </trkpt>
      <trkpt lat="48.2567" lon="-3.50209">
        <ele>110.2</ele>
        <time>2022-06-12T12:26:15Z</time>
      </trkpt>
      <trkpt lat="48.2567" lon="-3.50208">
        <ele>110.2</ele>
        <time>2022-06-12T12:26:16Z</time>
      </trkpt>
      <trkpt lat="48.2567" lon="-3.50208">
        <ele>110.2</ele>
        <time>2022-06-12T12:26:17Z</time>
      </trkpt>
      <trkpt lat="48.2567" lon="-3.50208">
        <ele>110.2</ele>
        <time>2022-06-12T12:26:18Z</time>
      </trkpt>
      <trkpt lat="48.2567" lon="-3.50208">
        <ele>110.2</ele>
        <time>2022-06-12T12:26:19Z</time>
      </trkpt>
      <trkpt lat="48.2567" lon="-3.50208">
        <ele>110.2</ele>
        <time>2022-06-12T12:26:20Z</time>
      </trkpt>
      <trkpt lat="48.2567" lon="-3.50208">
        <ele>110.2</ele>
        <time>2022-06-12T12:26:21Z</time>
      </trkpt>
      <trkpt lat="48.2567" lon="-3.50208">
        <ele>110.2</ele>
        <time>2022-06-12T12:26:22Z</time>
      </trkpt>
      <trkpt lat="48.2567" lon="-3.50208">
        <ele>110.2</ele>
        <time>2022-06-12T12:26:23Z</time>
      </trkpt>
      <trkpt lat="48.2567" lon="-3.50208">
        <ele>110.2</ele>
        <time>2022-06-12T12:26:24Z</time>
      </trkpt>
      <trkpt lat="48.2567" lon="-3.50208">
        <ele>110.2</ele>
        <time>2022-06-12T12:26:25Z</time>
      </trkpt>
      <trkpt lat="48.2567" lon="-3.50208">
        <ele>110.2</ele>
        <time>2022-06-12T12:26:26Z</time>
      </trkpt>
      <trkpt lat="48.2567" lon="-3.50208">
        <ele>110.2</ele>
        <time>2022-06-12T12:26:27Z</time>
      </trkpt>
      <trkpt lat="48.2567" lon="-3.50207">
        <ele>110.2</ele>
        <time>2022-06-12T12:26:28Z</time>
      </trkpt>
      <trkpt lat="48.2567" lon="-3.50207">
        <ele>110.2</ele>
        <time>2022-06-12T12:26:29Z</time>
      </trkpt>
      <trkpt lat="48.2567" lon="-3.50207">
        <ele>110.2</ele>
        <time>2022-06-12T12:26:30Z</time>
      </trkpt>
      <trkpt lat="48.2567" lon="-3.50207">
        <ele>110.2</ele>
        <time>2022-06-12T12:26:31Z</time>
      </trkpt>
      <trkpt lat="48.2567" lon="-3.50207">
        <ele>110.2</ele>
        <time>2022-06-12T12:26:32Z</time>
      </trkpt>
      <trkpt lat="48.2567" lon="-3.50207">
        <ele>110.2</ele>
        <time>2022-06-12T12:26:33Z</time>
      </trkpt>
      <trkpt lat="48.2567" lon="-3.50207">
        <ele>110.2</ele>
        <time>2022-06-12T12:26:34Z</time>
      </trkpt>
      <trkpt lat="48.2567" lon="-3.50207">
        <ele>110.2</ele>
        <time>2022-06-12T12:26:35Z</time>
      </trkpt>
      <trkpt lat="48.2567" lon="-3.50207">
        <ele>110.2</ele>
        <time>2022-06-12T12:26:36Z</time>
      </trkpt>
      <trkpt lat="48.2567" lon="-3.50207">
        <ele>110.2</ele>
        <time>2022-06-12T12:26:37Z</time>
      </trkpt>
      <trkpt lat="48.2567" lon="-3.50207">
        <ele>110.2</ele>
        <time>2022-06-12T12:26:38Z</time>
      </trkpt>
      <trkpt lat="48.2567" lon="-3.50206">
        <ele>110.2</ele>
        <time>2022-06-12T12:26:39Z</time>
      </trkpt>
      <trkpt lat="48.2567" lon="-3.50206">
        <ele>110.2</ele>
        <time>2022-06-12T12:26:40Z</time>
      </trkpt>
      <trkpt lat="48.2567" lon="-3.50206">
        <ele>110.2</ele>
        <time>2022-06-12T12:26:41Z</time>
      </trkpt>
      <trkpt lat="48.2567" lon="-3.50206">
        <ele>110.2</ele>
        <time>2022-06-12T12:26:42Z</time>
      </trkpt>
      <trkpt lat="48.2567" lon="-3.50206">
        <ele>110.2</ele>
        <time>2022-06-12T12:26:43Z</time>
      </trkpt>
      <trkpt lat="48.2567" lon="-3.50206">
        <ele>110.2</ele>
        <time>2022-06-12T12:26:44Z</time>
      </trkpt>
      <trkpt lat="48.2567" lon="-3.50206">
        <ele>110.2</ele>
        <time>2022-06-12T12:26:45Z</time>
      </trkpt>
      <trkpt lat="48.2567" lon="-3.50206">
        <ele>110.2</ele>
        <time>2022-06-12T12:26:46Z</time>
      </trkpt>
      <trkpt lat="48.2567" lon="-3.50206">
        <ele>110.2</ele>
        <time>2022-06-12T12:26:47Z</time>
      </trkpt>
      <trkpt lat="48.2567" lon="-3.50206">
        <ele>110.2</ele>
        <time>2022-06-12T12:26:48Z</time>
      </trkpt>
      <trkpt lat="48.2567" lon="-3.50206">
        <ele>110.2</ele>
        <time>2022-06-12T12:26:49Z</time>
      </trkpt>
      <trkpt lat="48.2567" lon="-3.50206">
        <ele>110.2</ele>
        <time>2022-06-12T12:26:50Z</time>
      </trkpt>
      <trkpt lat="48.2567" lon="-3.50205">
        <ele>110.2</ele>
        <time>2022-06-12T12:26:51Z</time>
      </trkpt>
      <trkpt lat="48.2567" lon="-3.50205">
        <ele>110.2</ele>
        <time>2022-06-12T12:26:52Z</time>
      </trkpt>
      <trkpt lat="48.2567" lon="-3.50205">
        <ele>110.2</ele>
        <time>2022-06-12T12:26:53Z</time>
      </trkpt>
      <trkpt lat="48.2567" lon="-3.50205">
        <ele>110.2</ele>
        <time>2022-06-12T12:26:54Z</time>
      </trkpt>
      <trkpt lat="48.2567" lon="-3.50205">
        <ele>110.2</ele>
        <time>2022-06-12T12:26:55Z</time>
      </trkpt>
      <trkpt lat="48.2567" lon="-3.50205">
        <ele>110.2</ele>
        <time>2022-06-12T12:26:56Z</time>
      </trkpt>
      <trkpt lat="48.2567" lon="-3.50205">
        <ele>110.2</ele>
        <time>2022-06-12T12:26:57Z</time>
      </trkpt>
      <trkpt lat="48.2567" lon="-3.50205">
        <ele>110.2</ele>
        <time>2022-06-12T12:26:58Z</time>
      </trkpt>
      <trkpt lat="48.2567" lon="-3.50205">
        <ele>110.2</ele>
        <time>2022-06-12T12:26:59Z</time>
      </trkpt>
      <trkpt lat="48.2567" lon="-3.50205">
        <ele>110.2</ele>
        <time>2022-06-12T12:27:00Z</time>
      </trkpt>
      <trkpt lat="48.2567" lon="-3.50205">
        <ele>110.2</ele>
        <time>2022-06-12T12:27:01Z</time>
      </trkpt>
      <trkpt lat="48.2567" lon="-3.50205">
        <ele>110.2</ele>
        <time>2022-06-12T12:27:02Z</time>
      </trkpt>
      <trkpt lat="48.2567" lon="-3.50204">
        <ele>110.2</ele>
        <time>2022-06-12T12:27:03Z</time>
      </trkpt>
      <trkpt lat="48.2567" lon="-3.50204">
        <ele>110.2</ele>
        <time>2022-06-12T12:27:04Z</time>
      </trkpt>
      <trkpt lat="48.2567" lon="-3.50204">
        <ele>110.2</ele>
        <time>2022-06-12T12:27:05Z</time>
      </trkpt>
      <trkpt lat="48.2567" lon="-3.50204">
        <ele>110.2</ele>
        <time>2022-06-12T12:27:06Z</time>
      </trkpt>
      <trkpt lat="48.2567" lon="-3.50204">
        <ele>110.2</ele>
        <time>2022-06-12T12:27:07Z</time>
      </trkpt>
      <trkpt lat="48.2567" lon="-3.50204">
        <ele>110.2</ele>
        <time>2022-06-12T12:27:08Z</time>
      </trkpt>
      <trkpt lat="48.2567" lon="-3.50204">
        <ele>110.2</ele>
        <time>2022-06-12T12:27:09Z</time>
      </trkpt>
      <trkpt lat="48.2567" lon="-3.50204">
        <ele>110.2</ele>
        <time>2022-06-12T12:27:10Z</time>
      </trkpt>
      <trkpt lat="48.2567" lon="-3.50204">
        <ele>110.2</ele>
        <time>2022-06-12T12:27:11Z</time>
      </trkpt>
      <trkpt lat="48.2567" lon="-3.50204">
        <ele>110.2</ele>
        <time>2022-06-12T12:27:12Z</time>
      </trkpt>
      <trkpt lat="48.2567" lon="-3.50204">
        <ele>110.2</ele>
        <time>2022-06-12T12:27:13Z</time>
      </trkpt>
      <trkpt lat="48.2567" lon="-3.50204">
        <ele>110.2</ele>
        <time>2022-06-12T12:27:14Z</time>
      </trkpt>
      <trkpt lat="48.2567" lon="-3.50203">
        <ele>110.2</ele>
        <time>2022-06-12T12:27:15Z</time>
      </trkpt>
      <trkpt lat="48.2567" lon="-3.50203">
        <ele>110.2</ele>
        <time>2022-06-12T12:27:16Z</time>
      </trkpt>
      <trkpt lat="48.2567" lon="-3.50203">
        <ele>110.2</ele>
        <time>2022-06-12T12:27:17Z</time>
      </trkpt>
      <trkpt lat="48.2567" lon="-3.50203">
        <ele>110.2</ele>
        <time>2022-06-12T12:27:18Z</time>
      </trkpt>
      <trkpt lat="48.2567" lon="-3.50203">
        <ele>110.2</ele>
        <time>2022-06-12T12:27:19Z</time>
      </trkpt>
      <trkpt lat="48.2567" lon="-3.50203">
        <ele>110.2</ele>
        <time>2022-06-12T12:27:20Z</time>
      </trkpt>
      <trkpt lat="48.2567" lon="-3.50203">
        <ele>110.2</ele>
        <time>2022-06-12T12:27:21Z</time>
      </trkpt>
      <trkpt lat="48.2567" lon="-3.50203">
        <ele>110.2</ele>
        <time>2022-06-12T12:27:22Z</time>
      </trkpt>
      <trkpt lat="48.2567" lon="-3.50203">
        <ele>110.2</ele>
        <time>2022-06-12T12:27:23Z</time>
      </trkpt>
      <trkpt lat="48.2567" lon="-3.50203">
        <ele>110.2</ele>
        <time>2022-06-12T12:27:24Z</time>
      </trkpt>
      <trkpt lat="48.2567" lon="-3.50203">
        <ele>110.2</ele>
        <time>2022-06-12T12:27:25Z</time>
      </trkpt>
      <trkpt lat="48.2567" lon="-3.50202">
        <ele>110.2</ele>
        <time>2022-06-12T12:27:26Z</time>
      </trkpt>
      <trkpt lat="48.2567" lon="-3.50202">
        <ele>110.2</ele>
        <time>2022-06-12T12:27:27Z</time>
      </trkpt>
      <trkpt lat="48.2567" lon="-3.50202">
        <ele>110.2</ele>
        <time>2022-06-12T12:27:28Z</time>
      </trkpt>
      <trkpt lat="48.2567" lon="-3.50202">
        <ele>110.2</ele>
        <time>2022-06-12T12:27:29Z</time>
      </trkpt>
      <trkpt lat="48.2567" lon="-3.50202">
        <ele>110.2</ele>
        <time>2022-06-12T12:27:30Z</time>
      </trkpt>
      <trkpt lat="48.2567" lon="-3.50202">
        <ele>110.2</ele>
        <time>2022-06-12T12:27:31Z</time>
      </trkpt>
      <trkpt lat="48.2567" lon="-3.50202">
        <ele>110.2</ele>
        <time>2022-06-12T12:27:32Z</time>
      </trkpt>
      <trkpt lat="48.2567" lon="-3.50202">
        <ele>110.2</ele>
        <time>2022-06-12T12:27:33Z</time>
      </trkpt>
      <trkpt lat="48.2567" lon="-3.50202">
        <ele>110.2</ele>
        <time>2022-06-12T12:27:34Z</time>
      </trkpt>
      <trkpt lat="48.2567" lon="-3.50202">
        <ele>110.2</ele>
        <time>2022-06-12T12:27:35Z</time>
      </trkpt>
      <trkpt lat="48.2567" lon="-3.50202">
        <ele>110.2</ele>
        <time>2022-06-12T12:27:36Z</time>
      </trkpt>
      <trkpt lat="48.2567" lon="-3.50202">
        <ele>110.2</ele>
        <time>2022-06-12T12:27:37Z</time>
      </trkpt>
      <trkpt lat="48.2567" lon="-3.50201">
        <ele>110.2</ele>
        <time>2022-06-12T12:27:38Z</time>
      </trkpt>
      <trkpt lat="48.2567" lon="-3.50201">
        <ele>110.2</ele>
        <time>2022-06-12T12:27:39Z</time>
      </trkpt>
      <trkpt lat="48.2567" lon="-3.50201">
        <ele>110.2</ele>
        <time>2022-06-12T12:27:40Z</time>
      </trkpt>
      <trkpt lat="48.2567" lon="-3.50201">
        <ele>110.2</ele>
        <time>2022-06-12T12:27:41Z</time>
      </trkpt>
      <trkpt lat="48.2567" lon="-3.50201">
        <ele>110.2</ele>
        <time>2022-06-12T12:27:42Z</time>
      </trkpt>
      <trkpt lat="48.2567" lon="-3.50201">
        <ele>110.2</ele>
        <time>2022-06-12T12:27:43Z</time>
      </trkpt>
      <trkpt lat="48.2567" lon="-3.50201">
        <ele>110.2</ele>
        <time>2022-06-12T12:27:44Z</time>
      </trkpt>
      <trkpt lat="48.2567" lon="-3.50201">
        <ele>110.2</ele>
        <time>2022-06-12T12:27:46Z</time>
      </trkpt>
      <trkpt lat="48.2567" lon="-3.50201">
        <ele>110.2</ele>
        <time>2022-06-12T12:27:47Z</time>
      </trkpt>
      <trkpt lat="48.2567" lon="-3.50201">
        <ele>110.2</ele>
        <time>2022-06-12T12:27:48Z</time>
      </trkpt>
      <trkpt lat="48.2567" lon="-3.50201">
        <ele>110.2</ele>
        <time>2022-06-12T12:27:50Z</time>
      </trkpt>
      <trkpt lat="48.2567" lon="-3.50201">
        <ele>110.2</ele>
        <time>2022-06-12T12:27:51Z</time>
      </trkpt>
      <trkpt lat="48.2567" lon="-3.502">
        <ele>110.2</ele>
        <time>2022-06-12T12:27:52Z</time>
      </trkpt>
      <trkpt lat="48.2567" lon="-3.502">
        <ele>110.2</ele>
        <time>2022-06-12T12:27:53Z</time>
      </trkpt>
      <trkpt lat="48.25669" lon="-3.50196">
        <ele>110.2</ele>
        <time>2022-06-12T12:27:54Z</time>
      </trkpt>
      <trkpt lat="48.25668" lon="-3.50194">
        <ele>110.2</ele>
        <time>2022-06-12T12:27:55Z</time>
      </trkpt>
      <trkpt lat="48.25667" lon="-3.5019">
        <ele>110.2</ele>
        <time>2022-06-12T12:27:57Z</time>
      </trkpt>
      <trkpt lat="48.25667" lon="-3.50189">
        <ele>110.2</ele>
        <time>2022-06-12T12:27:58Z</time>
      </trkpt>
      <trkpt lat="48.25666" lon="-3.50188">
        <ele>110.2</ele>
        <time>2022-06-12T12:27:59Z</time>
      </trkpt>
      <trkpt lat="48.25665" lon="-3.50185">
        <ele>110.2</ele>
        <time>2022-06-12T12:28:00Z</time>
      </trkpt>
      <trkpt lat="48.25665" lon="-3.50182">
        <ele>110.2</ele>
        <time>2022-06-12T12:28:01Z</time>
      </trkpt>
      <trkpt lat="48.25664" lon="-3.50181">
        <ele>110.2</ele>
        <time>2022-06-12T12:28:02Z</time>
      </trkpt>
      <trkpt lat="48.25664" lon="-3.5018">
        <ele>110.2</ele>
        <time>2022-06-12T12:28:03Z</time>
      </trkpt>
      <trkpt lat="48.25663" lon="-3.50176">
        <ele>110.2</ele>
        <time>2022-06-12T12:28:04Z</time>
      </trkpt>
      <trkpt lat="48.25663" lon="-3.50175">
        <ele>110.2</ele>
        <time>2022-06-12T12:28:05Z</time>
      </trkpt>
      <trkpt lat="48.25662" lon="-3.50172">
        <ele>110.2</ele>
        <time>2022-06-12T12:28:07Z</time>
      </trkpt>
      <trkpt lat="48.25661" lon="-3.5017">
        <ele>110.2</ele>
        <time>2022-06-12T12:28:08Z</time>
      </trkpt>
      <trkpt lat="48.25661" lon="-3.50169">
        <ele>110.2</ele>
        <time>2022-06-12T12:28:09Z</time>
      </trkpt>
      <trkpt lat="48.2566" lon="-3.50166">
        <ele>110.2</ele>
        <time>2022-06-12T12:28:10Z</time>
      </trkpt>
      <trkpt lat="48.2566" lon="-3.50165">
        <ele>110.2</ele>
        <time>2022-06-12T12:28:11Z</time>
      </trkpt>
      <trkpt lat="48.2566" lon="-3.50163">
        <ele>110.2</ele>
        <time>2022-06-12T12:28:12Z</time>
      </trkpt>
      <trkpt lat="48.25659" lon="-3.50161">
        <ele>110.2</ele>
        <time>2022-06-12T12:28:14Z</time>
      </trkpt>
      <trkpt lat="48.25658" lon="-3.50157">
        <ele>110.2</ele>
        <time>2022-06-12T12:28:15Z</time>
      </trkpt>
      <trkpt lat="48.25657" lon="-3.50156">
        <ele>110.2</ele>
        <time>2022-06-12T12:28:16Z</time>
      </trkpt>
      <trkpt lat="48.25657" lon="-3.50155">
        <ele>110.2</ele>
        <time>2022-06-12T12:28:17Z</time>
      </trkpt>
      <trkpt lat="48.25656" lon="-3.50153">
        <ele>110.2</ele>
        <time>2022-06-12T12:28:18Z</time>
      </trkpt>
      <trkpt lat="48.25656" lon="-3.50152">
        <ele>110.2</ele>
        <time>2022-06-12T12:28:19Z</time>
      </trkpt>
      <trkpt lat="48.25655" lon="-3.50149">
        <ele>110.2</ele>
        <time>2022-06-12T12:28:20Z</time>
      </trkpt>
      <trkpt lat="48.25655" lon="-3.50147">
        <ele>110.2</ele>
        <time>2022-06-12T12:28:21Z</time>
      </trkpt>
      <trkpt lat="48.25654" lon="-3.50145">
        <ele>110.2</ele>
        <time>2022-06-12T12:28:23Z</time>
      </trkpt>
      <trkpt lat="48.25653" lon="-3.50144">
        <ele>110.2</ele>
        <time>2022-06-12T12:28:24Z</time>
      </trkpt>
      <trkpt lat="48.25652" lon="-3.50141">
        <ele>110.2</ele>
        <time>2022-06-12T12:28:25Z</time>
      </trkpt>
      <trkpt lat="48.25652" lon="-3.5014">
        <ele>110.2</ele>
        <time>2022-06-12T12:28:26Z</time>
      </trkpt>
      <trkpt lat="48.25651" lon="-3.50139">
        <ele>110.2</ele>
        <time>2022-06-12T12:28:27Z</time>
      </trkpt>
      <trkpt lat="48.25651" lon="-3.50138">
        <ele>110.2</ele>
        <time>2022-06-12T12:28:28Z</time>
      </trkpt>
      <trkpt lat="48.2565" lon="-3.50136">
        <ele>110.2</ele>
        <time>2022-06-12T12:28:29Z</time>
      </trkpt>
      <trkpt lat="48.25648" lon="-3.50134">
        <ele>110.2</ele>
        <time>2022-06-12T12:28:30Z</time>
      </trkpt>
      <trkpt lat="48.25647" lon="-3.50133">
        <ele>110.2</ele>
        <time>2022-06-12T12:28:31Z</time>
      </trkpt>
      <trkpt lat="48.25646" lon="-3.50129">
        <ele>110.2</ele>
        <time>2022-06-12T12:28:33Z</time>
      </trkpt>
      <trkpt lat="48.25645" lon="-3.50128">
        <ele>110.2</ele>
        <time>2022-06-12T12:28:34Z</time>
      </trkpt>
      <trkpt lat="48.25645" lon="-3.50126">
        <ele>110.2</ele>
        <time>2022-06-12T12:28:35Z</time>
      </trkpt>
      <trkpt lat="48.25644" lon="-3.50124">
        <ele>110.2</ele>
        <time>2022-06-12T12:28:36Z</time>
      </trkpt>
      <trkpt lat="48.25644" lon="-3.50122">
        <ele>110.2</ele>
        <time>2022-06-12T12:28:37Z</time>
      </trkpt>
      <trkpt lat="48.25644" lon="-3.5012">
        <ele>110.2</ele>
        <time>2022-06-12T12:28:39Z</time>
      </trkpt>
      <trkpt lat="48.25644" lon="-3.50119">
        <ele>110.2</ele>
        <time>2022-06-12T12:28:40Z</time>
      </trkpt>
      <trkpt lat="48.25643" lon="-3.50116">
        <ele>110.2</ele>
        <time>2022-06-12T12:28:41Z</time>
      </trkpt>
      <trkpt lat="48.25643" lon="-3.50115">
        <ele>110.2</ele>
        <time>2022-06-12T12:28:42Z</time>
      </trkpt>
      <trkpt lat="48.25643" lon="-3.50114">
        <ele>110.2</ele>
        <time>2022-06-12T12:28:43Z</time>
      </trkpt>
      <trkpt lat="48.25642" lon="-3.50112">
        <ele>110.2</ele>
        <time>2022-06-12T12:28:44Z</time>
      </trkpt>
      <trkpt lat="48.25641" lon="-3.5011">
        <ele>110.2</ele>
        <time>2022-06-12T12:28:45Z</time>
      </trkpt>
      <trkpt lat="48.2564" lon="-3.50107">
        <ele>110.2</ele>
        <time>2022-06-12T12:28:46Z</time>
      </trkpt>
      <trkpt lat="48.2564" lon="-3.50105">
        <ele>110.2</ele>
        <time>2022-06-12T12:28:47Z</time>
      </trkpt>
      <trkpt lat="48.25638" lon="-3.50101">
        <ele>110.2</ele>
        <time>2022-06-12T12:28:49Z</time>
      </trkpt>
      <trkpt lat="48.25638" lon="-3.501">
        <ele>110.2</ele>
        <time>2022-06-12T12:28:50Z</time>
      </trkpt>
      <trkpt lat="48.25637" lon="-3.50098">
        <ele>110.2</ele>
        <time>2022-06-12T12:28:51Z</time>
      </trkpt>
      <trkpt lat="48.25636" lon="-3.50096">
        <ele>110.2</ele>
        <time>2022-06-12T12:28:52Z</time>
      </trkpt>
      <trkpt lat="48.25636" lon="-3.50093">
        <ele>110.2</ele>
        <time>2022-06-12T12:28:54Z</time>
      </trkpt>
      <trkpt lat="48.25635" lon="-3.50091">
        <ele>110.2</ele>
        <time>2022-06-12T12:28:55Z</time>
      </trkpt>
      <trkpt lat="48.25635" lon="-3.5009">
        <ele>110.2</ele>
        <time>2022-06-12T12:28:56Z</time>
      </trkpt>
      <trkpt lat="48.25635" lon="-3.50088">
        <ele>110.2</ele>
        <time>2022-06-12T12:28:57Z</time>
      </trkpt>
      <trkpt lat="48.25634" lon="-3.50087">
        <ele>110.2</ele>
        <time>2022-06-12T12:28:58Z</time>
      </trkpt>
      <trkpt lat="48.25634" lon="-3.50085">
        <ele>110.2</ele>
        <time>2022-06-12T12:29:00Z</time>
      </trkpt>
      <trkpt lat="48.25634" lon="-3.50084">
        <ele>110.2</ele>
        <time>2022-06-12T12:29:01Z</time>
      </trkpt>
      <trkpt lat="48.25634" lon="-3.50082">
        <ele>110.2</ele>
        <time>2022-06-12T12:29:02Z</time>
      </trkpt>
      <trkpt lat="48.25633" lon="-3.50078">
        <ele>110.2</ele>
        <time>2022-06-12T12:29:03Z</time>
      </trkpt>
      <trkpt lat="48.25632" lon="-3.50075">
        <ele>110.2</ele>
        <time>2022-06-12T12:29:04Z</time>
      </trkpt>
      <trkpt lat="48.25632" lon="-3.50075">
        <ele>110.2</ele>
        <time>2022-06-12T12:29:05Z</time>
      </trkpt>
      <trkpt lat="48.25632" lon="-3.50074">
        <ele>110.2</ele>
        <time>2022-06-12T12:29:06Z</time>
      </trkpt>
      <trkpt lat="48.25632" lon="-3.50072">
        <ele>110.2</ele>
        <time>2022-06-12T12:29:07Z</time>
      </trkpt>
      <trkpt lat="48.25632" lon="-3.5007">
        <ele>110.2</ele>
        <time>2022-06-12T12:29:08Z</time>
      </trkpt>
      <trkpt lat="48.25632" lon="-3.50069">
        <ele>110.2</ele>
        <time>2022-06-12T12:29:10Z</time>
      </trkpt>
      <trkpt lat="48.25632" lon="-3.50067">
        <ele>110.2</ele>
        <time>2022-06-12T12:29:11Z</time>
      </trkpt>
      <trkpt lat="48.25632" lon="-3.50065">
        <ele>110.2</ele>
        <time>2022-06-12T12:29:12Z</time>
      </trkpt>
      <trkpt lat="48.25632" lon="-3.50064">
        <ele>110.2</ele>
        <time>2022-06-12T12:29:13Z</time>
      </trkpt>
      <trkpt lat="48.25632" lon="-3.50062">
        <ele>110.2</ele>
        <time>2022-06-12T12:29:14Z</time>
      </trkpt>
      <trkpt lat="48.25632" lon="-3.50061">
        <ele>110.2</ele>
        <time>2022-06-12T12:29:15Z</time>
      </trkpt>
      <trkpt lat="48.25632" lon="-3.5006">
        <ele>110.2</ele>
        <time>2022-06-12T12:29:16Z</time>
      </trkpt>
      <trkpt lat="48.25632" lon="-3.50061">
        <ele>110.2</ele>
        <time>2022-06-12T12:29:17Z</time>
      </trkpt>
      <trkpt lat="48.25632" lon="-3.50061">
        <ele>110.2</ele>
        <time>2022-06-12T12:29:18Z</time>
      </trkpt>
      <trkpt lat="48.25632" lon="-3.50061">
        <ele>110.2</ele>
        <time>2022-06-12T12:29:19Z</time>
      </trkpt>
      <trkpt lat="48.25633" lon="-3.50062">
        <ele>110.2</ele>
        <time>2022-06-12T12:29:20Z</time>
      </trkpt>
      <trkpt lat="48.25633" lon="-3.50062">
        <ele>110.2</ele>
        <time>2022-06-12T12:29:21Z</time>
      </trkpt>
      <trkpt lat="48.25633" lon="-3.50062">
        <ele>110.2</ele>
        <time>2022-06-12T12:29:22Z</time>
      </trkpt>
      <trkpt lat="48.25633" lon="-3.50063">
        <ele>110.2</ele>
        <time>2022-06-12T12:29:23Z</time>
      </trkpt>
      <trkpt lat="48.25633" lon="-3.50063">
        <ele>110.2</ele>
        <time>2022-06-12T12:29:24Z</time>
      </trkpt>
      <trkpt lat="48.25633" lon="-3.50063">
        <ele>110.2</ele>
        <time>2022-06-12T12:29:25Z</time>
      </trkpt>
      <trkpt lat="48.25633" lon="-3.50064">
        <ele>110.2</ele>
        <time>2022-06-12T12:29:26Z</time>
      </trkpt>
      <trkpt lat="48.25633" lon="-3.50064">
        <ele>110.2</ele>
        <time>2022-06-12T12:29:27Z</time>
      </trkpt>
      <trkpt lat="48.25633" lon="-3.50064">
        <ele>110.2</ele>
        <time>2022-06-12T12:29:28Z</time>
      </trkpt>
      <trkpt lat="48.25633" lon="-3.50065">
        <ele>110.2</ele>
        <time>2022-06-12T12:29:29Z</time>
      </trkpt>
      <trkpt lat="48.25633" lon="-3.50065">
        <ele>110.2</ele>
        <time>2022-06-12T12:29:30Z</time>
      </trkpt>
      <trkpt lat="48.25633" lon="-3.50065">
        <ele>110.2</ele>
        <time>2022-06-12T12:29:31Z</time>
      </trkpt>
      <trkpt lat="48.25633" lon="-3.50066">
        <ele>110.2</ele>
        <time>2022-06-12T12:29:32Z</time>
      </trkpt>
      <trkpt lat="48.25633" lon="-3.50066">
        <ele>110.2</ele>
        <time>2022-06-12T12:29:33Z</time>
      </trkpt>
      <trkpt lat="48.25633" lon="-3.50066">
        <ele>110.2</ele>
        <time>2022-06-12T12:29:34Z</time>
      </trkpt>
      <trkpt lat="48.25633" lon="-3.50068">
        <ele>110.2</ele>
        <time>2022-06-12T12:29:35Z</time>
      </trkpt>
      <trkpt lat="48.25633" lon="-3.50068">
        <ele>110.2</ele>
        <time>2022-06-12T12:29:36Z</time>
      </trkpt>
      <trkpt lat="48.25633" lon="-3.50068">
        <ele>110.2</ele>
        <time>2022-06-12T12:29:37Z</time>
      </trkpt>
      <trkpt lat="48.25633" lon="-3.50068">
        <ele>110.2</ele>
        <time>2022-06-12T12:29:38Z</time>
      </trkpt>
      <trkpt lat="48.25633" lon="-3.50067">
        <ele>110.2</ele>
        <time>2022-06-12T12:29:39Z</time>
      </trkpt>
      <trkpt lat="48.25633" lon="-3.50063">
        <ele>110.2</ele>
        <time>2022-06-12T12:29:40Z</time>
      </trkpt>
      <trkpt lat="48.25633" lon="-3.50062">
        <ele>110.2</ele>
        <time>2022-06-12T12:29:41Z</time>
      </trkpt>
      <trkpt lat="48.25633" lon="-3.50062">
        <ele>110.2</ele>
        <time>2022-06-12T12:29:42Z</time>
      </trkpt>
      <trkpt lat="48.25633" lon="-3.50061">
        <ele>110.2</ele>
        <time>2022-06-12T12:29:43Z</time>
      </trkpt>
      <trkpt lat="48.25633" lon="-3.50061">
        <ele>110.2</ele>
        <time>2022-06-12T12:29:44Z</time>
      </trkpt>
      <trkpt lat="48.25632" lon="-3.50061">
        <ele>110.2</ele>
        <time>2022-06-12T12:29:45Z</time>
      </trkpt>
      <trkpt lat="48.25632" lon="-3.5006">
        <ele>110.2</ele>
        <time>2022-06-12T12:29:46Z</time>
      </trkpt>
      <trkpt lat="48.25632" lon="-3.5006">
        <ele>110.2</ele>
        <time>2022-06-12T12:29:47Z</time>
      </trkpt>
      <trkpt lat="48.25632" lon="-3.5006">
        <ele>110.2</ele>
        <time>2022-06-12T12:29:48Z</time>
      </trkpt>
      <trkpt lat="48.25632" lon="-3.5006">
        <ele>110.2</ele>
        <time>2022-06-12T12:29:50Z</time>
      </trkpt>
      <trkpt lat="48.25631" lon="-3.5006">
        <ele>110.2</ele>
        <time>2022-06-12T12:29:51Z</time>
      </trkpt>
      <trkpt lat="48.25631" lon="-3.5006">
        <ele>110.2</ele>
        <time>2022-06-12T12:29:52Z</time>
      </trkpt>
      <trkpt lat="48.2563" lon="-3.5006">
        <ele>110.2</ele>
        <time>2022-06-12T12:29:54Z</time>
      </trkpt>
      <trkpt lat="48.25629" lon="-3.50059">
        <ele>110.2</ele>
        <time>2022-06-12T12:29:55Z</time>
      </trkpt>
      <trkpt lat="48.25629" lon="-3.50059">
        <ele>110.2</ele>
        <time>2022-06-12T12:29:56Z</time>
      </trkpt>
      <trkpt lat="48.25628" lon="-3.50058">
        <ele>110.2</ele>
        <time>2022-06-12T12:29:57Z</time>
      </trkpt>
      <trkpt lat="48.25628" lon="-3.50057">
        <ele>110.2</ele>
        <time>2022-06-12T12:29:58Z</time>
      </trkpt>
      <trkpt lat="48.25627" lon="-3.50055">
        <ele>110.2</ele>
        <time>2022-06-12T12:29:59Z</time>
      </trkpt>
      <trkpt lat="48.25626" lon="-3.50053">
        <ele>110.2</ele>
        <time>2022-06-12T12:30:01Z</time>
      </trkpt>
      <trkpt lat="48.25625" lon="-3.50052">
        <ele>110.2</ele>
        <time>2022-06-12T12:30:02Z</time>
      </trkpt>
      <trkpt lat="48.25624" lon="-3.5005">
        <ele>110.2</ele>
        <time>2022-06-12T12:30:03Z</time>
      </trkpt>
      <trkpt lat="48.25624" lon="-3.50049">
        <ele>110.2</ele>
        <time>2022-06-12T12:30:04Z</time>
      </trkpt>
      <trkpt lat="48.25623" lon="-3.50048">
        <ele>110.2</ele>
        <time>2022-06-12T12:30:05Z</time>
      </trkpt>
      <trkpt lat="48.25622" lon="-3.50046">
        <ele>110.2</ele>
        <time>2022-06-12T12:30:06Z</time>
      </trkpt>
      <trkpt lat="48.25621" lon="-3.50045">
        <ele>110.2</ele>
        <time>2022-06-12T12:30:07Z</time>
      </trkpt>
      <trkpt lat="48.25621" lon="-3.50044">
        <ele>110.2</ele>
        <time>2022-06-12T12:30:08Z</time>
      </trkpt>
      <trkpt lat="48.25619" lon="-3.50042">
        <ele>110.2</ele>
        <time>2022-06-12T12:30:10Z</time>
      </trkpt>
      <trkpt lat="48.25618" lon="-3.50041">
        <ele>110.2</ele>
        <time>2022-06-12T12:30:11Z</time>
      </trkpt>
      <trkpt lat="48.25617" lon="-3.50039">
        <ele>110.2</ele>
        <time>2022-06-12T12:30:12Z</time>
      </trkpt>
      <trkpt lat="48.25616" lon="-3.50038">
        <ele>110.2</ele>
        <time>2022-06-12T12:30:13Z</time>
      </trkpt>
      <trkpt lat="48.25615" lon="-3.50036">
        <ele>110.2</ele>
        <time>2022-06-12T12:30:15Z</time>
      </trkpt>
      <trkpt lat="48.25614" lon="-3.50035">
        <ele>110.2</ele>
        <time>2022-06-12T12:30:16Z</time>
      </trkpt>
      <trkpt lat="48.25613" lon="-3.50033">
        <ele>110.2</ele>
        <time>2022-06-12T12:30:17Z</time>
      </trkpt>
      <trkpt lat="48.25613" lon="-3.50033">
        <ele>110.2</ele>
        <time>2022-06-12T12:30:18Z</time>
      </trkpt>
      <trkpt lat="48.25613" lon="-3.50032">
        <ele>110.2</ele>
        <time>2022-06-12T12:30:19Z</time>
      </trkpt>
      <trkpt lat="48.25612" lon="-3.50031">
        <ele>110.2</ele>
        <time>2022-06-12T12:30:20Z</time>
      </trkpt>
      <trkpt lat="48.25612" lon="-3.5003">
        <ele>110.2</ele>
        <time>2022-06-12T12:30:21Z</time>
      </trkpt>
      <trkpt lat="48.25612" lon="-3.5003">
        <ele>110.2</ele>
        <time>2022-06-12T12:30:22Z</time>
      </trkpt>
      <trkpt lat="48.25611" lon="-3.50029">
        <ele>110.2</ele>
        <time>2022-06-12T12:30:23Z</time>
      </trkpt>
      <trkpt lat="48.25611" lon="-3.50028">
        <ele>110.2</ele>
        <time>2022-06-12T12:30:24Z</time>
      </trkpt>
      <trkpt lat="48.2561" lon="-3.50027">
        <ele>110.2</ele>
        <time>2022-06-12T12:30:25Z</time>
      </trkpt>
      <trkpt lat="48.2561" lon="-3.50026">
        <ele>110.2</ele>
        <time>2022-06-12T12:30:27Z</time>
      </trkpt>
      <trkpt lat="48.2561" lon="-3.50025">
        <ele>110.2</ele>
        <time>2022-06-12T12:30:28Z</time>
      </trkpt>
      <trkpt lat="48.25609" lon="-3.50024">
        <ele>110.2</ele>
        <time>2022-06-12T12:30:29Z</time>
      </trkpt>
      <trkpt lat="48.25608" lon="-3.50021">
        <ele>110.2</ele>
        <time>2022-06-12T12:30:30Z</time>
      </trkpt>
      <trkpt lat="48.25607" lon="-3.5002">
        <ele>110.2</ele>
        <time>2022-06-12T12:30:31Z</time>
      </trkpt>
      <trkpt lat="48.25606" lon="-3.50019">
        <ele>110.2</ele>
        <time>2022-06-12T12:30:32Z</time>
      </trkpt>
      <trkpt lat="48.25605" lon="-3.50018">
        <ele>110.2</ele>
        <time>2022-06-12T12:30:33Z</time>
      </trkpt>
      <trkpt lat="48.25604" lon="-3.50017">
        <ele>110.2</ele>
        <time>2022-06-12T12:30:34Z</time>
      </trkpt>
      <trkpt lat="48.25603" lon="-3.50016">
        <ele>110.2</ele>
        <time>2022-06-12T12:30:35Z</time>
      </trkpt>
      <trkpt lat="48.25601" lon="-3.50014">
        <ele>110.2</ele>
        <time>2022-06-12T12:30:36Z</time>
      </trkpt>
      <trkpt lat="48.25598" lon="-3.50012">
        <ele>110.2</ele>
        <time>2022-06-12T12:30:38Z</time>
      </trkpt>
      <trkpt lat="48.25597" lon="-3.50011">
        <ele>110.2</ele>
        <time>2022-06-12T12:30:40Z</time>
      </trkpt>
      <trkpt lat="48.25596" lon="-3.5001">
        <ele>110.2</ele>
        <time>2022-06-12T12:30:41Z</time>
      </trkpt>
      <trkpt lat="48.25594" lon="-3.50009">
        <ele>110.2</ele>
        <time>2022-06-12T12:30:42Z</time>
      </trkpt>
      <trkpt lat="48.25592" lon="-3.50008">
        <ele>110.2</ele>
        <time>2022-06-12T12:30:43Z</time>
      </trkpt>
      <trkpt lat="48.25591" lon="-3.50008">
        <ele>110.2</ele>
        <time>2022-06-12T12:30:44Z</time>
      </trkpt>
      <trkpt lat="48.2559" lon="-3.50008">
        <ele>110.2</ele>
        <time>2022-06-12T12:30:45Z</time>
      </trkpt>
      <trkpt lat="48.25586" lon="-3.50008">
        <ele>110.2</ele>
        <time>2022-06-12T12:30:46Z</time>
      </trkpt>
      <trkpt lat="48.25585" lon="-3.50008">
        <ele>110.2</ele>
        <time>2022-06-12T12:30:48Z</time>
      </trkpt>
      <trkpt lat="48.25584" lon="-3.50008">
        <ele>110.3</ele>
        <time>2022-06-12T12:30:49Z</time>
      </trkpt>
      <trkpt lat="48.25583" lon="-3.50008">
        <ele>110.3</ele>
        <time>2022-06-12T12:30:50Z</time>
      </trkpt>
      <trkpt lat="48.25581" lon="-3.50008">
        <ele>110.3</ele>
        <time>2022-06-12T12:30:51Z</time>
      </trkpt>
      <trkpt lat="48.25579" lon="-3.50008">
        <ele>110.3</ele>
        <time>2022-06-12T12:30:52Z</time>
      </trkpt>
      <trkpt lat="48.25578" lon="-3.50008">
        <ele>110.3</ele>
        <time>2022-06-12T12:30:54Z</time>
      </trkpt>
      <trkpt lat="48.25578" lon="-3.50008">
        <ele>110.3</ele>
        <time>2022-06-12T12:30:55Z</time>
      </trkpt>
      <trkpt lat="48.25576" lon="-3.50008">
        <ele>110.3</ele>
        <time>2022-06-12T12:30:56Z</time>
      </trkpt>
      <trkpt lat="48.25574" lon="-3.50008">
        <ele>110.3</ele>
        <time>2022-06-12T12:30:57Z</time>
      </trkpt>
      <trkpt lat="48.25572" lon="-3.50007">
        <ele>110.3</ele>
        <time>2022-06-12T12:30:58Z</time>
      </trkpt>
      <trkpt lat="48.25572" lon="-3.50007">
        <ele>110.3</ele>
        <time>2022-06-12T12:30:59Z</time>
      </trkpt>
      <trkpt lat="48.25571" lon="-3.50006">
        <ele>110.3</ele>
        <time>2022-06-12T12:31:00Z</time>
      </trkpt>
      <trkpt lat="48.25569" lon="-3.50005">
        <ele>110.3</ele>
        <time>2022-06-12T12:31:01Z</time>
      </trkpt>
      <trkpt lat="48.25567" lon="-3.50005">
        <ele>110.3</ele>
        <time>2022-06-12T12:31:02Z</time>
      </trkpt>
      <trkpt lat="48.25566" lon="-3.50004">
        <ele>110.3</ele>
        <time>2022-06-12T12:31:04Z</time>
      </trkpt>
      <trkpt lat="48.25564" lon="-3.50003">
        <ele>110.3</ele>
        <time>2022-06-12T12:31:05Z</time>
      </trkpt>
      <trkpt lat="48.25562" lon="-3.50002">
        <ele>110.3</ele>
        <time>2022-06-12T12:31:06Z</time>
      </trkpt>
      <trkpt lat="48.25561" lon="-3.50001">
        <ele>110.4</ele>
        <time>2022-06-12T12:31:07Z</time>
      </trkpt>
      <trkpt lat="48.2556" lon="-3.5">
        <ele>110.4</ele>
        <time>2022-06-12T12:31:09Z</time>
      </trkpt>
      <trkpt lat="48.25559" lon="-3.49999">
        <ele>110.4</ele>
        <time>2022-06-12T12:31:10Z</time>
      </trkpt>
      <trkpt lat="48.25557" lon="-3.49999">
        <ele>110.4</ele>
        <time>2022-06-12T12:31:11Z</time>
      </trkpt>
      <trkpt lat="48.25556" lon="-3.49997">
        <ele>110.4</ele>
        <time>2022-06-12T12:31:12Z</time>
      </trkpt>
      <trkpt lat="48.25554" lon="-3.49996">
        <ele>110.4</ele>
        <time>2022-06-12T12:31:13Z</time>
      </trkpt>
      <trkpt lat="48.25553" lon="-3.49995">
        <ele>110.4</ele>
        <time>2022-06-12T12:31:14Z</time>
      </trkpt>
      <trkpt lat="48.25552" lon="-3.49995">
        <ele>110.4</ele>
        <time>2022-06-12T12:31:15Z</time>
      </trkpt>
      <trkpt lat="48.25551" lon="-3.49994">
        <ele>110.4</ele>
        <time>2022-06-12T12:31:16Z</time>
      </trkpt>
      <trkpt lat="48.2555" lon="-3.49993">
        <ele>110.4</ele>
        <time>2022-06-12T12:31:17Z</time>
      </trkpt>
      <trkpt lat="48.25549" lon="-3.49993">
        <ele>110.4</ele>
        <time>2022-06-12T12:31:18Z</time>
      </trkpt>
      <trkpt lat="48.25548" lon="-3.49992">
        <ele>110.4</ele>
        <time>2022-06-12T12:31:19Z</time>
      </trkpt>
      <trkpt lat="48.25547" lon="-3.49991">
        <ele>110.4</ele>
        <time>2022-06-12T12:31:20Z</time>
      </trkpt>
      <trkpt lat="48.25545" lon="-3.4999">
        <ele>110.4</ele>
        <time>2022-06-12T12:31:22Z</time>
      </trkpt>
      <trkpt lat="48.25543" lon="-3.49989">
        <ele>110.4</ele>
        <time>2022-06-12T12:31:23Z</time>
      </trkpt>
      <trkpt lat="48.25542" lon="-3.49988">
        <ele>110.5</ele>
        <time>2022-06-12T12:31:24Z</time>
      </trkpt>
      <trkpt lat="48.25541" lon="-3.49987">
        <ele>110.5</ele>
        <time>2022-06-12T12:31:26Z</time>
      </trkpt>
      <trkpt lat="48.25539" lon="-3.49986">
        <ele>110.5</ele>
        <time>2022-06-12T12:31:27Z</time>
      </trkpt>
      <trkpt lat="48.25538" lon="-3.49985">
        <ele>110.5</ele>
        <time>2022-06-12T12:31:28Z</time>
      </trkpt>
      <trkpt lat="48.25537" lon="-3.49985">
        <ele>110.5</ele>
        <time>2022-06-12T12:31:29Z</time>
      </trkpt>
      <trkpt lat="48.25536" lon="-3.49984">
        <ele>110.5</ele>
        <time>2022-06-12T12:31:30Z</time>
      </trkpt>
      <trkpt lat="48.25535" lon="-3.49983">
        <ele>110.5</ele>
        <time>2022-06-12T12:31:31Z</time>
      </trkpt>
      <trkpt lat="48.25533" lon="-3.49982">
        <ele>110.5</ele>
        <time>2022-06-12T12:31:32Z</time>
      </trkpt>
      <trkpt lat="48.25532" lon="-3.49981">
        <ele>110.5</ele>
        <time>2022-06-12T12:31:33Z</time>
      </trkpt>
      <trkpt lat="48.25531" lon="-3.4998">
        <ele>110.5</ele>
        <time>2022-06-12T12:31:34Z</time>
      </trkpt>
      <trkpt lat="48.25531" lon="-3.49979">
        <ele>110.5</ele>
        <time>2022-06-12T12:31:35Z</time>
      </trkpt>
      <trkpt lat="48.2553" lon="-3.49977">
        <ele>110.5</ele>
        <time>2022-06-12T12:31:36Z</time>
      </trkpt>
      <trkpt lat="48.25529" lon="-3.49976">
        <ele>110.5</ele>
        <time>2022-06-12T12:31:38Z</time>
      </trkpt>
      <trkpt lat="48.25528" lon="-3.49975">
        <ele>110.5</ele>
        <time>2022-06-12T12:31:39Z</time>
      </trkpt>
      <trkpt lat="48.25527" lon="-3.49974">
        <ele>110.5</ele>
        <time>2022-06-12T12:31:40Z</time>
      </trkpt>
      <trkpt lat="48.25526" lon="-3.49973">
        <ele>110.5</ele>
        <time>2022-06-12T12:31:41Z</time>
      </trkpt>
      <trkpt lat="48.25525" lon="-3.49972">
        <ele>110.5</ele>
        <time>2022-06-12T12:31:42Z</time>
      </trkpt>
      <trkpt lat="48.25523" lon="-3.4997">
        <ele>110.5</ele>
        <time>2022-06-12T12:31:44Z</time>
      </trkpt>
      <trkpt lat="48.25523" lon="-3.49969">
        <ele>110.6</ele>
        <time>2022-06-12T12:31:45Z</time>
      </trkpt>
      <trkpt lat="48.25521" lon="-3.49968">
        <ele>110.6</ele>
        <time>2022-06-12T12:31:46Z</time>
      </trkpt>
      <trkpt lat="48.2552" lon="-3.49966">
        <ele>110.6</ele>
        <time>2022-06-12T12:31:47Z</time>
      </trkpt>
      <trkpt lat="48.25519" lon="-3.49965">
        <ele>110.6</ele>
        <time>2022-06-12T12:31:48Z</time>
      </trkpt>
      <trkpt lat="48.25518" lon="-3.49964">
        <ele>110.6</ele>
        <time>2022-06-12T12:31:49Z</time>
      </trkpt>
      <trkpt lat="48.25517" lon="-3.49963">
        <ele>110.6</ele>
        <time>2022-06-12T12:31:50Z</time>
      </trkpt>
      <trkpt lat="48.25516" lon="-3.49962">
        <ele>110.6</ele>
        <time>2022-06-12T12:31:51Z</time>
      </trkpt>
      <trkpt lat="48.25515" lon="-3.4996">
        <ele>110.6</ele>
        <time>2022-06-12T12:31:52Z</time>
      </trkpt>
      <trkpt lat="48.25514" lon="-3.49959">
        <ele>110.6</ele>
        <time>2022-06-12T12:31:53Z</time>
      </trkpt>
      <trkpt lat="48.25513" lon="-3.49959">
        <ele>110.6</ele>
        <time>2022-06-12T12:31:54Z</time>
      </trkpt>
      <trkpt lat="48.25512" lon="-3.49958">
        <ele>110.6</ele>
        <time>2022-06-12T12:31:56Z</time>
      </trkpt>
      <trkpt lat="48.2551" lon="-3.49956">
        <ele>110.6</ele>
        <time>2022-06-12T12:31:57Z</time>
      </trkpt>
      <trkpt lat="48.25509" lon="-3.49956">
        <ele>110.6</ele>
        <time>2022-06-12T12:31:58Z</time>
      </trkpt>
      <trkpt lat="48.25508" lon="-3.49955">
        <ele>110.6</ele>
        <time>2022-06-12T12:31:59Z</time>
      </trkpt>
      <trkpt lat="48.25507" lon="-3.49955">
        <ele>110.6</ele>
        <time>2022-06-12T12:32:00Z</time>
      </trkpt>
      <trkpt lat="48.25506" lon="-3.49954">
        <ele>110.6</ele>
        <time>2022-06-12T12:32:01Z</time>
      </trkpt>
      <trkpt lat="48.25504" lon="-3.49953">
        <ele>110.6</ele>
        <time>2022-06-12T12:32:02Z</time>
      </trkpt>
      <trkpt lat="48.25503" lon="-3.49953">
        <ele>110.6</ele>
        <time>2022-06-12T12:32:03Z</time>
      </trkpt>
      <trkpt lat="48.25502" lon="-3.49952">
        <ele>110.6</ele>
        <time>2022-06-12T12:32:04Z</time>
      </trkpt>
      <trkpt lat="48.255" lon="-3.49951">
        <ele>110.6</ele>
        <time>2022-06-12T12:32:05Z</time>
      </trkpt>
      <trkpt lat="48.25497" lon="-3.49949">
        <ele>110.6</ele>
        <time>2022-06-12T12:32:07Z</time>
      </trkpt>
      <trkpt lat="48.25496" lon="-3.49949">
        <ele>110.6</ele>
        <time>2022-06-12T12:32:08Z</time>
      </trkpt>
      <trkpt lat="48.25495" lon="-3.49949">
        <ele>110.6</ele>
        <time>2022-06-12T12:32:09Z</time>
      </trkpt>
      <trkpt lat="48.25494" lon="-3.49949">
        <ele>110.6</ele>
        <time>2022-06-12T12:32:10Z</time>
      </trkpt>
      <trkpt lat="48.25492" lon="-3.49948">
        <ele>110.6</ele>
        <time>2022-06-12T12:32:12Z</time>
      </trkpt>
      <trkpt lat="48.25491" lon="-3.49947">
        <ele>110.6</ele>
        <time>2022-06-12T12:32:13Z</time>
      </trkpt>
      <trkpt lat="48.25489" lon="-3.49946">
        <ele>110.6</ele>
        <time>2022-06-12T12:32:14Z</time>
      </trkpt>
      <trkpt lat="48.25488" lon="-3.49946">
        <ele>110.6</ele>
        <time>2022-06-12T12:32:15Z</time>
      </trkpt>
      <trkpt lat="48.25487" lon="-3.49946">
        <ele>110.6</ele>
        <time>2022-06-12T12:32:16Z</time>
      </trkpt>
      <trkpt lat="48.25485" lon="-3.49945">
        <ele>110.6</ele>
        <time>2022-06-12T12:32:17Z</time>
      </trkpt>
      <trkpt lat="48.25484" lon="-3.49945">
        <ele>110.6</ele>
        <time>2022-06-12T12:32:18Z</time>
      </trkpt>
      <trkpt lat="48.25483" lon="-3.49945">
        <ele>110.6</ele>
        <time>2022-06-12T12:32:19Z</time>
      </trkpt>
      <trkpt lat="48.25482" lon="-3.49944">
        <ele>110.6</ele>
        <time>2022-06-12T12:32:20Z</time>
      </trkpt>
      <trkpt lat="48.2548" lon="-3.49944">
        <ele>110.6</ele>
        <time>2022-06-12T12:32:22Z</time>
      </trkpt>
      <trkpt lat="48.25479" lon="-3.49943">
        <ele>110.6</ele>
        <time>2022-06-12T12:32:23Z</time>
      </trkpt>
      <trkpt lat="48.25478" lon="-3.49943">
        <ele>110.6</ele>
        <time>2022-06-12T12:32:24Z</time>
      </trkpt>
      <trkpt lat="48.25476" lon="-3.49942">
        <ele>110.6</ele>
        <time>2022-06-12T12:32:25Z</time>
      </trkpt>
      <trkpt lat="48.25475" lon="-3.49941">
        <ele>110.6</ele>
        <time>2022-06-12T12:32:26Z</time>
      </trkpt>
      <trkpt lat="48.25474" lon="-3.49941">
        <ele>110.6</ele>
        <time>2022-06-12T12:32:27Z</time>
      </trkpt>
      <trkpt lat="48.25473" lon="-3.4994">
        <ele>110.6</ele>
        <time>2022-06-12T12:32:28Z</time>
      </trkpt>
      <trkpt lat="48.25472" lon="-3.49939">
        <ele>110.6</ele>
        <time>2022-06-12T12:32:30Z</time>
      </trkpt>
      <trkpt lat="48.25473" lon="-3.49938">
        <ele>110.6</ele>
        <time>2022-06-12T12:32:31Z</time>
      </trkpt>
      <trkpt lat="48.25473" lon="-3.49936">
        <ele>110.6</ele>
        <time>2022-06-12T12:32:32Z</time>
      </trkpt>
      <trkpt lat="48.25473" lon="-3.49935">
        <ele>110.6</ele>
        <time>2022-06-12T12:32:33Z</time>
      </trkpt>
      <trkpt lat="48.25472" lon="-3.49935">
        <ele>110.6</ele>
        <time>2022-06-12T12:32:34Z</time>
      </trkpt>
      <trkpt lat="48.25471" lon="-3.49934">
        <ele>110.6</ele>
        <time>2022-06-12T12:32:35Z</time>
      </trkpt>
      <trkpt lat="48.2547" lon="-3.49934">
        <ele>110.6</ele>
        <time>2022-06-12T12:32:36Z</time>
      </trkpt>
      <trkpt lat="48.25469" lon="-3.49933">
        <ele>110.6</ele>
        <time>2022-06-12T12:32:38Z</time>
      </trkpt>
      <trkpt lat="48.25468" lon="-3.49933">
        <ele>110.6</ele>
        <time>2022-06-12T12:32:40Z</time>
      </trkpt>
      <trkpt lat="48.25467" lon="-3.49932">
        <ele>110.6</ele>
        <time>2022-06-12T12:32:41Z</time>
      </trkpt>
      <trkpt lat="48.25467" lon="-3.49932">
        <ele>110.6</ele>
        <time>2022-06-12T12:32:42Z</time>
      </trkpt>
      <trkpt lat="48.25465" lon="-3.49931">
        <ele>110.6</ele>
        <time>2022-06-12T12:32:44Z</time>
      </trkpt>
      <trkpt lat="48.25464" lon="-3.4993">
        <ele>110.6</ele>
        <time>2022-06-12T12:32:45Z</time>
      </trkpt>
      <trkpt lat="48.25463" lon="-3.4993">
        <ele>110.6</ele>
        <time>2022-06-12T12:32:46Z</time>
      </trkpt>
      <trkpt lat="48.25462" lon="-3.49929">
        <ele>110.6</ele>
        <time>2022-06-12T12:32:47Z</time>
      </trkpt>
      <trkpt lat="48.2546" lon="-3.49928">
        <ele>110.6</ele>
        <time>2022-06-12T12:32:48Z</time>
      </trkpt>
      <trkpt lat="48.25458" lon="-3.49927">
        <ele>110.6</ele>
        <time>2022-06-12T12:32:49Z</time>
      </trkpt>
      <trkpt lat="48.25457" lon="-3.49926">
        <ele>110.6</ele>
        <time>2022-06-12T12:32:51Z</time>
      </trkpt>
      <trkpt lat="48.25456" lon="-3.49925">
        <ele>110.6</ele>
        <time>2022-06-12T12:32:52Z</time>
      </trkpt>
      <trkpt lat="48.25455" lon="-3.49924">
        <ele>110.7</ele>
        <time>2022-06-12T12:32:53Z</time>
      </trkpt>
      <trkpt lat="48.25454" lon="-3.49924">
        <ele>110.7</ele>
        <time>2022-06-12T12:32:54Z</time>
      </trkpt>
      <trkpt lat="48.25453" lon="-3.49923">
        <ele>110.7</ele>
        <time>2022-06-12T12:32:55Z</time>
      </trkpt>
      <trkpt lat="48.25451" lon="-3.49922">
        <ele>110.7</ele>
        <time>2022-06-12T12:32:56Z</time>
      </trkpt>
      <trkpt lat="48.2545" lon="-3.49921">
        <ele>110.7</ele>
        <time>2022-06-12T12:32:57Z</time>
      </trkpt>
      <trkpt lat="48.25449" lon="-3.4992">
        <ele>110.7</ele>
        <time>2022-06-12T12:32:58Z</time>
      </trkpt>
      <trkpt lat="48.25448" lon="-3.4992">
        <ele>110.7</ele>
        <time>2022-06-12T12:32:59Z</time>
      </trkpt>
      <trkpt lat="48.25447" lon="-3.49919">
        <ele>110.7</ele>
        <time>2022-06-12T12:33:00Z</time>
      </trkpt>
      <trkpt lat="48.25446" lon="-3.49919">
        <ele>110.7</ele>
        <time>2022-06-12T12:33:01Z</time>
      </trkpt>
      <trkpt lat="48.25445" lon="-3.49918">
        <ele>110.7</ele>
        <time>2022-06-12T12:33:02Z</time>
      </trkpt>
      <trkpt lat="48.25444" lon="-3.49918">
        <ele>110.7</ele>
        <time>2022-06-12T12:33:03Z</time>
      </trkpt>
      <trkpt lat="48.25444" lon="-3.49918">
        <ele>110.7</ele>
        <time>2022-06-12T12:33:04Z</time>
      </trkpt>
      <trkpt lat="48.25443" lon="-3.49917">
        <ele>110.7</ele>
        <time>2022-06-12T12:33:06Z</time>
      </trkpt>
      <trkpt lat="48.25442" lon="-3.49917">
        <ele>110.7</ele>
        <time>2022-06-12T12:33:07Z</time>
      </trkpt>
      <trkpt lat="48.2544" lon="-3.49916">
        <ele>110.7</ele>
        <time>2022-06-12T12:33:08Z</time>
      </trkpt>
      <trkpt lat="48.25439" lon="-3.49914">
        <ele>110.7</ele>
        <time>2022-06-12T12:33:09Z</time>
      </trkpt>
      <trkpt lat="48.25438" lon="-3.49914">
        <ele>110.7</ele>
        <time>2022-06-12T12:33:10Z</time>
      </trkpt>
      <trkpt lat="48.25437" lon="-3.49913">
        <ele>110.7</ele>
        <time>2022-06-12T12:33:11Z</time>
      </trkpt>
      <trkpt lat="48.25434" lon="-3.49912">
        <ele>110.7</ele>
        <time>2022-06-12T12:33:13Z</time>
      </trkpt>
      <trkpt lat="48.25433" lon="-3.49911">
        <ele>110.7</ele>
        <time>2022-06-12T12:33:14Z</time>
      </trkpt>
      <trkpt lat="48.25432" lon="-3.4991">
        <ele>110.7</ele>
        <time>2022-06-12T12:33:15Z</time>
      </trkpt>
      <trkpt lat="48.25432" lon="-3.4991">
        <ele>110.7</ele>
        <time>2022-06-12T12:33:16Z</time>
      </trkpt>
      <trkpt lat="48.25431" lon="-3.49909">
        <ele>110.7</ele>
        <time>2022-06-12T12:33:17Z</time>
      </trkpt>
      <trkpt lat="48.25429" lon="-3.49907">
        <ele>110.7</ele>
        <time>2022-06-12T12:33:18Z</time>
      </trkpt>
      <trkpt lat="48.25427" lon="-3.49906">
        <ele>110.7</ele>
        <time>2022-06-12T12:33:19Z</time>
      </trkpt>
      <trkpt lat="48.25426" lon="-3.49906">
        <ele>110.7</ele>
        <time>2022-06-12T12:33:20Z</time>
      </trkpt>
      <trkpt lat="48.25425" lon="-3.49905">
        <ele>110.7</ele>
        <time>2022-06-12T12:33:21Z</time>
      </trkpt>
      <trkpt lat="48.25423" lon="-3.49904">
        <ele>110.7</ele>
        <time>2022-06-12T12:33:22Z</time>
      </trkpt>
      <trkpt lat="48.25422" lon="-3.49903">
        <ele>110.7</ele>
        <time>2022-06-12T12:33:24Z</time>
      </trkpt>
      <trkpt lat="48.2542" lon="-3.49901">
        <ele>110.7</ele>
        <time>2022-06-12T12:33:25Z</time>
      </trkpt>
      <trkpt lat="48.25419" lon="-3.49901">
        <ele>110.8</ele>
        <time>2022-06-12T12:33:26Z</time>
      </trkpt>
      <trkpt lat="48.25418" lon="-3.499">
        <ele>110.8</ele>
        <time>2022-06-12T12:33:27Z</time>
      </trkpt>
      <trkpt lat="48.25416" lon="-3.49899">
        <ele>110.8</ele>
        <time>2022-06-12T12:33:28Z</time>
      </trkpt>
      <trkpt lat="48.25414" lon="-3.49898">
        <ele>110.8</ele>
        <time>2022-06-12T12:33:30Z</time>
      </trkpt>
      <trkpt lat="48.25412" lon="-3.49896">
        <ele>110.8</ele>
        <time>2022-06-12T12:33:31Z</time>
      </trkpt>
      <trkpt lat="48.25411" lon="-3.49896">
        <ele>110.8</ele>
        <time>2022-06-12T12:33:32Z</time>
      </trkpt>
      <trkpt lat="48.2541" lon="-3.49895">
        <ele>110.8</ele>
        <time>2022-06-12T12:33:33Z</time>
      </trkpt>
      <trkpt lat="48.25408" lon="-3.49894">
        <ele>110.8</ele>
        <time>2022-06-12T12:33:34Z</time>
      </trkpt>
      <trkpt lat="48.25408" lon="-3.49893">
        <ele>110.8</ele>
        <time>2022-06-12T12:33:35Z</time>
      </trkpt>
      <trkpt lat="48.25407" lon="-3.49893">
        <ele>110.8</ele>
        <time>2022-06-12T12:33:36Z</time>
      </trkpt>
      <trkpt lat="48.25406" lon="-3.49892">
        <ele>110.8</ele>
        <time>2022-06-12T12:33:37Z</time>
      </trkpt>
      <trkpt lat="48.25404" lon="-3.49891">
        <ele>110.8</ele>
        <time>2022-06-12T12:33:38Z</time>
      </trkpt>
      <trkpt lat="48.25403" lon="-3.4989">
        <ele>110.8</ele>
        <time>2022-06-12T12:33:39Z</time>
      </trkpt>
      <trkpt lat="48.25402" lon="-3.49889">
        <ele>110.8</ele>
        <time>2022-06-12T12:33:40Z</time>
      </trkpt>
      <trkpt lat="48.25401" lon="-3.49888">
        <ele>110.8</ele>
        <time>2022-06-12T12:33:41Z</time>
      </trkpt>
      <trkpt lat="48.25399" lon="-3.49887">
        <ele>110.9</ele>
        <time>2022-06-12T12:33:42Z</time>
      </trkpt>
      <trkpt lat="48.25398" lon="-3.49886">
        <ele>110.9</ele>
        <time>2022-06-12T12:33:43Z</time>
      </trkpt>
      <trkpt lat="48.25396" lon="-3.49885">
        <ele>110.9</ele>
        <time>2022-06-12T12:33:45Z</time>
      </trkpt>
      <trkpt lat="48.25395" lon="-3.49884">
        <ele>110.9</ele>
        <time>2022-06-12T12:33:46Z</time>
      </trkpt>
      <trkpt lat="48.25394" lon="-3.49883">
        <ele>110.9</ele>
        <time>2022-06-12T12:33:47Z</time>
      </trkpt>
      <trkpt lat="48.25393" lon="-3.49882">
        <ele>110.9</ele>
        <time>2022-06-12T12:33:48Z</time>
      </trkpt>
      <trkpt lat="48.25392" lon="-3.49881">
        <ele>110.9</ele>
        <time>2022-06-12T12:33:49Z</time>
      </trkpt>
      <trkpt lat="48.25391" lon="-3.4988">
        <ele>110.9</ele>
        <time>2022-06-12T12:33:50Z</time>
      </trkpt>
      <trkpt lat="48.2539" lon="-3.49879">
        <ele>110.9</ele>
        <time>2022-06-12T12:33:51Z</time>
      </trkpt>
      <trkpt lat="48.25388" lon="-3.49878">
        <ele>110.9</ele>
        <time>2022-06-12T12:33:52Z</time>
      </trkpt>
      <trkpt lat="48.25387" lon="-3.49877">
        <ele>110.9</ele>
        <time>2022-06-12T12:33:54Z</time>
      </trkpt>
      <trkpt lat="48.25386" lon="-3.49875">
        <ele>110.9</ele>
        <time>2022-06-12T12:33:55Z</time>
      </trkpt>
      <trkpt lat="48.25385" lon="-3.49874">
        <ele>111</ele>
        <time>2022-06-12T12:33:56Z</time>
      </trkpt>
      <trkpt lat="48.25384" lon="-3.49873">
        <ele>111</ele>
        <time>2022-06-12T12:33:57Z</time>
      </trkpt>
      <trkpt lat="48.25384" lon="-3.49871">
        <ele>111</ele>
        <time>2022-06-12T12:33:58Z</time>
      </trkpt>
      <trkpt lat="48.25383" lon="-3.49871">
        <ele>111</ele>
        <time>2022-06-12T12:33:59Z</time>
      </trkpt>
      <trkpt lat="48.25382" lon="-3.49869">
        <ele>111</ele>
        <time>2022-06-12T12:34:00Z</time>
      </trkpt>
      <trkpt lat="48.25381" lon="-3.49868">
        <ele>111</ele>
        <time>2022-06-12T12:34:02Z</time>
      </trkpt>
      <trkpt lat="48.2538" lon="-3.49867">
        <ele>111</ele>
        <time>2022-06-12T12:34:03Z</time>
      </trkpt>
      <trkpt lat="48.25379" lon="-3.49866">
        <ele>111</ele>
        <time>2022-06-12T12:34:04Z</time>
      </trkpt>
      <trkpt lat="48.25378" lon="-3.49866">
        <ele>111</ele>
        <time>2022-06-12T12:34:05Z</time>
      </trkpt>
      <trkpt lat="48.25377" lon="-3.49865">
        <ele>111</ele>
        <time>2022-06-12T12:34:06Z</time>
      </trkpt>
      <trkpt lat="48.25376" lon="-3.49864">
        <ele>111</ele>
        <time>2022-06-12T12:34:07Z</time>
      </trkpt>
      <trkpt lat="48.25375" lon="-3.49863">
        <ele>111</ele>
        <time>2022-06-12T12:34:08Z</time>
      </trkpt>
      <trkpt lat="48.25374" lon="-3.49862">
        <ele>111</ele>
        <time>2022-06-12T12:34:09Z</time>
      </trkpt>
      <trkpt lat="48.25374" lon="-3.49864">
        <ele>111</ele>
        <time>2022-06-12T12:34:10Z</time>
      </trkpt>
      <trkpt lat="48.25374" lon="-3.49865">
        <ele>111</ele>
        <time>2022-06-12T12:34:11Z</time>
      </trkpt>
      <trkpt lat="48.25373" lon="-3.49865">
        <ele>111</ele>
        <time>2022-06-12T12:34:12Z</time>
      </trkpt>
      <trkpt lat="48.25372" lon="-3.49864">
        <ele>111</ele>
        <time>2022-06-12T12:34:13Z</time>
      </trkpt>
      <trkpt lat="48.25371" lon="-3.49864">
        <ele>111</ele>
        <time>2022-06-12T12:34:14Z</time>
      </trkpt>
      <trkpt lat="48.2537" lon="-3.49864">
        <ele>111.1</ele>
        <time>2022-06-12T12:34:16Z</time>
      </trkpt>
      <trkpt lat="48.25369" lon="-3.49863">
        <ele>111.1</ele>
        <time>2022-06-12T12:34:17Z</time>
      </trkpt>
      <trkpt lat="48.25366" lon="-3.49863">
        <ele>111.1</ele>
        <time>2022-06-12T12:34:18Z</time>
      </trkpt>
      <trkpt lat="48.25366" lon="-3.49862">
        <ele>111.1</ele>
        <time>2022-06-12T12:34:19Z</time>
      </trkpt>
      <trkpt lat="48.25365" lon="-3.49862">
        <ele>111.1</ele>
        <time>2022-06-12T12:34:20Z</time>
      </trkpt>
      <trkpt lat="48.25365" lon="-3.49862">
        <ele>111.1</ele>
        <time>2022-06-12T12:34:21Z</time>
      </trkpt>
      <trkpt lat="48.25364" lon="-3.49861">
        <ele>111.1</ele>
        <time>2022-06-12T12:34:22Z</time>
      </trkpt>
      <trkpt lat="48.25362" lon="-3.4986">
        <ele>111.1</ele>
        <time>2022-06-12T12:34:23Z</time>
      </trkpt>
      <trkpt lat="48.25361" lon="-3.49859">
        <ele>111.1</ele>
        <time>2022-06-12T12:34:24Z</time>
      </trkpt>
      <trkpt lat="48.2536" lon="-3.49858">
        <ele>111.1</ele>
        <time>2022-06-12T12:34:25Z</time>
      </trkpt>
      <trkpt lat="48.25359" lon="-3.49857">
        <ele>111.1</ele>
        <time>2022-06-12T12:34:26Z</time>
      </trkpt>
      <trkpt lat="48.25358" lon="-3.49856">
        <ele>111.1</ele>
        <time>2022-06-12T12:34:27Z</time>
      </trkpt>
      <trkpt lat="48.25357" lon="-3.49855">
        <ele>111.1</ele>
        <time>2022-06-12T12:34:29Z</time>
      </trkpt>
      <trkpt lat="48.25355" lon="-3.49854">
        <ele>111.1</ele>
        <time>2022-06-12T12:34:30Z</time>
      </trkpt>
      <trkpt lat="48.25355" lon="-3.49854">
        <ele>111.1</ele>
        <time>2022-06-12T12:34:31Z</time>
      </trkpt>
      <trkpt lat="48.25354" lon="-3.49853">
        <ele>111.1</ele>
        <time>2022-06-12T12:34:32Z</time>
      </trkpt>
      <trkpt lat="48.25352" lon="-3.49851">
        <ele>111.1</ele>
        <time>2022-06-12T12:34:33Z</time>
      </trkpt>
      <trkpt lat="48.25352" lon="-3.4985">
        <ele>111.2</ele>
        <time>2022-06-12T12:34:34Z</time>
      </trkpt>
      <trkpt lat="48.2535" lon="-3.49848">
        <ele>111.2</ele>
        <time>2022-06-12T12:34:35Z</time>
      </trkpt>
      <trkpt lat="48.25349" lon="-3.49847">
        <ele>111.2</ele>
        <time>2022-06-12T12:34:36Z</time>
      </trkpt>
      <trkpt lat="48.25349" lon="-3.49846">
        <ele>111.2</ele>
        <time>2022-06-12T12:34:37Z</time>
      </trkpt>
      <trkpt lat="48.25347" lon="-3.49845">
        <ele>111.2</ele>
        <time>2022-06-12T12:34:38Z</time>
      </trkpt>
      <trkpt lat="48.25346" lon="-3.49843">
        <ele>111.2</ele>
        <time>2022-06-12T12:34:39Z</time>
      </trkpt>
      <trkpt lat="48.25344" lon="-3.4984">
        <ele>111.2</ele>
        <time>2022-06-12T12:34:40Z</time>
      </trkpt>
      <trkpt lat="48.25344" lon="-3.49839">
        <ele>111.2</ele>
        <time>2022-06-12T12:34:42Z</time>
      </trkpt>
      <trkpt lat="48.25343" lon="-3.49837">
        <ele>111.2</ele>
        <time>2022-06-12T12:34:43Z</time>
      </trkpt>
      <trkpt lat="48.25341" lon="-3.49835">
        <ele>111.2</ele>
        <time>2022-06-12T12:34:44Z</time>
      </trkpt>
      <trkpt lat="48.25341" lon="-3.49834">
        <ele>111.2</ele>
        <time>2022-06-12T12:34:45Z</time>
      </trkpt>
      <trkpt lat="48.2534" lon="-3.49833">
        <ele>111.2</ele>
        <time>2022-06-12T12:34:46Z</time>
      </trkpt>
      <trkpt lat="48.25338" lon="-3.4983">
        <ele>111.2</ele>
        <time>2022-06-12T12:34:47Z</time>
      </trkpt>
      <trkpt lat="48.25338" lon="-3.49829">
        <ele>111.2</ele>
        <time>2022-06-12T12:34:48Z</time>
      </trkpt>
      <trkpt lat="48.25337" lon="-3.49827">
        <ele>111.2</ele>
        <time>2022-06-12T12:34:49Z</time>
      </trkpt>
      <trkpt lat="48.25336" lon="-3.49825">
        <ele>111.2</ele>
        <time>2022-06-12T12:34:50Z</time>
      </trkpt>
      <trkpt lat="48.25335" lon="-3.49824">
        <ele>111.1</ele>
        <time>2022-06-12T12:34:52Z</time>
      </trkpt>
      <trkpt lat="48.25334" lon="-3.49821">
        <ele>111.1</ele>
        <time>2022-06-12T12:34:53Z</time>
      </trkpt>
      <trkpt lat="48.25333" lon="-3.49819">
        <ele>111.1</ele>
        <time>2022-06-12T12:34:54Z</time>
      </trkpt>
      <trkpt lat="48.25332" lon="-3.49817">
        <ele>111.1</ele>
        <time>2022-06-12T12:34:55Z</time>
      </trkpt>
      <trkpt lat="48.25331" lon="-3.49815">
        <ele>111.1</ele>
        <time>2022-06-12T12:34:56Z</time>
      </trkpt>
      <trkpt lat="48.25331" lon="-3.49813">
        <ele>111.1</ele>
        <time>2022-06-12T12:34:57Z</time>
      </trkpt>
      <trkpt lat="48.2533" lon="-3.49808">
        <ele>111.1</ele>
        <time>2022-06-12T12:34:58Z</time>
      </trkpt>
      <trkpt lat="48.25329" lon="-3.49807">
        <ele>111.1</ele>
        <time>2022-06-12T12:34:59Z</time>
      </trkpt>
      <trkpt lat="48.25328" lon="-3.49804">
        <ele>111.1</ele>
        <time>2022-06-12T12:35:00Z</time>
      </trkpt>
      <trkpt lat="48.25328" lon="-3.49802">
        <ele>111.1</ele>
        <time>2022-06-12T12:35:01Z</time>
      </trkpt>
      <trkpt lat="48.25328" lon="-3.49801">
        <ele>111.1</ele>
        <time>2022-06-12T12:35:02Z</time>
      </trkpt>
      <trkpt lat="48.25327" lon="-3.49796">
        <ele>111.1</ele>
        <time>2022-06-12T12:35:03Z</time>
      </trkpt>
      <trkpt lat="48.25327" lon="-3.49795">
        <ele>111.1</ele>
        <time>2022-06-12T12:35:04Z</time>
      </trkpt>
      <trkpt lat="48.25327" lon="-3.49793">
        <ele>111.1</ele>
        <time>2022-06-12T12:35:05Z</time>
      </trkpt>
      <trkpt lat="48.25327" lon="-3.4979">
        <ele>111.1</ele>
        <time>2022-06-12T12:35:06Z</time>
      </trkpt>
      <trkpt lat="48.25327" lon="-3.49789">
        <ele>111.1</ele>
        <time>2022-06-12T12:35:07Z</time>
      </trkpt>
      <trkpt lat="48.25327" lon="-3.49785">
        <ele>111.1</ele>
        <time>2022-06-12T12:35:08Z</time>
      </trkpt>
      <trkpt lat="48.25327" lon="-3.49783">
        <ele>111.1</ele>
        <time>2022-06-12T12:35:09Z</time>
      </trkpt>
      <trkpt lat="48.25327" lon="-3.4978">
        <ele>111.1</ele>
        <time>2022-06-12T12:35:10Z</time>
      </trkpt>
      <trkpt lat="48.25327" lon="-3.49775">
        <ele>111.1</ele>
        <time>2022-06-12T12:35:12Z</time>
      </trkpt>
      <trkpt lat="48.25327" lon="-3.49773">
        <ele>111.1</ele>
        <time>2022-06-12T12:35:13Z</time>
      </trkpt>
      <trkpt lat="48.25327" lon="-3.4977">
        <ele>111.1</ele>
        <time>2022-06-12T12:35:14Z</time>
      </trkpt>
      <trkpt lat="48.25327" lon="-3.49768">
        <ele>111.1</ele>
        <time>2022-06-12T12:35:15Z</time>
      </trkpt>
      <trkpt lat="48.25327" lon="-3.49767">
        <ele>111.1</ele>
        <time>2022-06-12T12:35:16Z</time>
      </trkpt>
      <trkpt lat="48.25327" lon="-3.49762">
        <ele>111.1</ele>
        <time>2022-06-12T12:35:17Z</time>
      </trkpt>
      <trkpt lat="48.25327" lon="-3.4976">
        <ele>111.1</ele>
        <time>2022-06-12T12:35:18Z</time>
      </trkpt>
      <trkpt lat="48.25328" lon="-3.49757">
        <ele>111.2</ele>
        <time>2022-06-12T12:35:19Z</time>
      </trkpt>
      <trkpt lat="48.25328" lon="-3.49754">
        <ele>111.2</ele>
        <time>2022-06-12T12:35:21Z</time>
      </trkpt>
      <trkpt lat="48.25329" lon="-3.49751">
        <ele>111.2</ele>
        <time>2022-06-12T12:35:22Z</time>
      </trkpt>
      <trkpt lat="48.25329" lon="-3.49749">
        <ele>111.2</ele>
        <time>2022-06-12T12:35:23Z</time>
      </trkpt>
      <trkpt lat="48.2533" lon="-3.49744">
        <ele>111.2</ele>
        <time>2022-06-12T12:35:24Z</time>
      </trkpt>
      <trkpt lat="48.2533" lon="-3.49743">
        <ele>111.2</ele>
        <time>2022-06-12T12:35:25Z</time>
      </trkpt>
      <trkpt lat="48.25331" lon="-3.4974">
        <ele>111.3</ele>
        <time>2022-06-12T12:35:26Z</time>
      </trkpt>
      <trkpt lat="48.25331" lon="-3.49738">
        <ele>111.3</ele>
        <time>2022-06-12T12:35:27Z</time>
      </trkpt>
      <trkpt lat="48.25332" lon="-3.49734">
        <ele>111.3</ele>
        <time>2022-06-12T12:35:29Z</time>
      </trkpt>
      <trkpt lat="48.25332" lon="-3.49732">
        <ele>111.4</ele>
        <time>2022-06-12T12:35:30Z</time>
      </trkpt>
      <trkpt lat="48.25332" lon="-3.4973">
        <ele>111.4</ele>
        <time>2022-06-12T12:35:31Z</time>
      </trkpt>
      <trkpt lat="48.25333" lon="-3.49727">
        <ele>111.4</ele>
        <time>2022-06-12T12:35:32Z</time>
      </trkpt>
      <trkpt lat="48.25333" lon="-3.49725">
        <ele>111.4</ele>
        <time>2022-06-12T12:35:33Z</time>
      </trkpt>
      <trkpt lat="48.25333" lon="-3.49721">
        <ele>111.5</ele>
        <time>2022-06-12T12:35:34Z</time>
      </trkpt>
      <trkpt lat="48.25334" lon="-3.49718">
        <ele>111.5</ele>
        <time>2022-06-12T12:35:35Z</time>
      </trkpt>
      <trkpt lat="48.25334" lon="-3.49716">
        <ele>111.5</ele>
        <time>2022-06-12T12:35:36Z</time>
      </trkpt>
      <trkpt lat="48.25335" lon="-3.49711">
        <ele>111.6</ele>
        <time>2022-06-12T12:35:37Z</time>
      </trkpt>
      <trkpt lat="48.25335" lon="-3.49709">
        <ele>111.6</ele>
        <time>2022-06-12T12:35:38Z</time>
      </trkpt>
      <trkpt lat="48.25336" lon="-3.49707">
        <ele>111.7</ele>
        <time>2022-06-12T12:35:39Z</time>
      </trkpt>
      <trkpt lat="48.25336" lon="-3.49704">
        <ele>111.7</ele>
        <time>2022-06-12T12:35:41Z</time>
      </trkpt>
      <trkpt lat="48.25337" lon="-3.49701">
        <ele>111.7</ele>
        <time>2022-06-12T12:35:42Z</time>
      </trkpt>
      <trkpt lat="48.25338" lon="-3.49696">
        <ele>111.8</ele>
        <time>2022-06-12T12:35:44Z</time>
      </trkpt>
      <trkpt lat="48.25338" lon="-3.49693">
        <ele>111.9</ele>
        <time>2022-06-12T12:35:45Z</time>
      </trkpt>
      <trkpt lat="48.25338" lon="-3.49692">
        <ele>111.9</ele>
        <time>2022-06-12T12:35:46Z</time>
      </trkpt>
      <trkpt lat="48.25338" lon="-3.49691">
        <ele>111.9</ele>
        <time>2022-06-12T12:35:47Z</time>
      </trkpt>
      <trkpt lat="48.25338" lon="-3.4969">
        <ele>111.9</ele>
        <time>2022-06-12T12:35:48Z</time>
      </trkpt>
      <trkpt lat="48.25337" lon="-3.49689">
        <ele>111.9</ele>
        <time>2022-06-12T12:35:49Z</time>
      </trkpt>
      <trkpt lat="48.25336" lon="-3.4969">
        <ele>112</ele>
        <time>2022-06-12T12:35:50Z</time>
      </trkpt>
      <trkpt lat="48.25336" lon="-3.49689">
        <ele>112</ele>
        <time>2022-06-12T12:35:51Z</time>
      </trkpt>
      <trkpt lat="48.25335" lon="-3.49689">
        <ele>112</ele>
        <time>2022-06-12T12:35:52Z</time>
      </trkpt>
      <trkpt lat="48.25335" lon="-3.49689">
        <ele>112</ele>
        <time>2022-06-12T12:35:53Z</time>
      </trkpt>
      <trkpt lat="48.25335" lon="-3.49689">
        <ele>112</ele>
        <time>2022-06-12T12:35:54Z</time>
      </trkpt>
      <trkpt lat="48.25335" lon="-3.49689">
        <ele>112</ele>
        <time>2022-06-12T12:35:55Z</time>
      </trkpt>
      <trkpt lat="48.25335" lon="-3.49689">
        <ele>112</ele>
        <time>2022-06-12T12:35:56Z</time>
      </trkpt>
      <trkpt lat="48.25335" lon="-3.49689">
        <ele>112</ele>
        <time>2022-06-12T12:35:57Z</time>
      </trkpt>
      <trkpt lat="48.25335" lon="-3.4969">
        <ele>112</ele>
        <time>2022-06-12T12:35:58Z</time>
      </trkpt>
      <trkpt lat="48.25335" lon="-3.4969">
        <ele>112</ele>
        <time>2022-06-12T12:35:59Z</time>
      </trkpt>
      <trkpt lat="48.25335" lon="-3.4969">
        <ele>112</ele>
        <time>2022-06-12T12:36:00Z</time>
      </trkpt>
      <trkpt lat="48.25335" lon="-3.4969">
        <ele>112</ele>
        <time>2022-06-12T12:36:01Z</time>
      </trkpt>
      <trkpt lat="48.25335" lon="-3.4969">
        <ele>112</ele>
        <time>2022-06-12T12:36:02Z</time>
      </trkpt>
      <trkpt lat="48.25335" lon="-3.49691">
        <ele>112</ele>
        <time>2022-06-12T12:36:03Z</time>
      </trkpt>
      <trkpt lat="48.25335" lon="-3.49691">
        <ele>112</ele>
        <time>2022-06-12T12:36:04Z</time>
      </trkpt>
      <trkpt lat="48.25335" lon="-3.49691">
        <ele>112</ele>
        <time>2022-06-12T12:36:06Z</time>
      </trkpt>
      <trkpt lat="48.25335" lon="-3.49691">
        <ele>112</ele>
        <time>2022-06-12T12:36:07Z</time>
      </trkpt>
      <trkpt lat="48.25335" lon="-3.49691">
        <ele>112</ele>
        <time>2022-06-12T12:36:08Z</time>
      </trkpt>
      <trkpt lat="48.25335" lon="-3.49692">
        <ele>112.1</ele>
        <time>2022-06-12T12:36:09Z</time>
      </trkpt>
      <trkpt lat="48.25335" lon="-3.49692">
        <ele>112.1</ele>
        <time>2022-06-12T12:36:10Z</time>
      </trkpt>
      <trkpt lat="48.25335" lon="-3.49693">
        <ele>112.1</ele>
        <time>2022-06-12T12:36:11Z</time>
      </trkpt>
      <trkpt lat="48.25335" lon="-3.49694">
        <ele>112.1</ele>
        <time>2022-06-12T12:36:12Z</time>
      </trkpt>
      <trkpt lat="48.25335" lon="-3.49694">
        <ele>112.1</ele>
        <time>2022-06-12T12:36:14Z</time>
      </trkpt>
      <trkpt lat="48.25335" lon="-3.49695">
        <ele>112.1</ele>
        <time>2022-06-12T12:36:15Z</time>
      </trkpt>
      <trkpt lat="48.25336" lon="-3.49695">
        <ele>112.1</ele>
        <time>2022-06-12T12:36:16Z</time>
      </trkpt>
      <trkpt lat="48.25336" lon="-3.49696">
        <ele>112.1</ele>
        <time>2022-06-12T12:36:17Z</time>
      </trkpt>
      <trkpt lat="48.25336" lon="-3.49696">
        <ele>112.1</ele>
        <time>2022-06-12T12:36:18Z</time>
      </trkpt>
      <trkpt lat="48.25337" lon="-3.49696">
        <ele>112.1</ele>
        <time>2022-06-12T12:36:19Z</time>
      </trkpt>
      <trkpt lat="48.25337" lon="-3.49696">
        <ele>112.2</ele>
        <time>2022-06-12T12:36:20Z</time>
      </trkpt>
      <trkpt lat="48.25337" lon="-3.49696">
        <ele>112.2</ele>
        <time>2022-06-12T12:36:21Z</time>
      </trkpt>
      <trkpt lat="48.25337" lon="-3.49696">
        <ele>112.2</ele>
        <time>2022-06-12T12:36:22Z</time>
      </trkpt>
      <trkpt lat="48.25337" lon="-3.49696">
        <ele>112.2</ele>
        <time>2022-06-12T12:36:23Z</time>
      </trkpt>
      <trkpt lat="48.25337" lon="-3.49696">
        <ele>112.2</ele>
        <time>2022-06-12T12:36:24Z</time>
      </trkpt>
      <trkpt lat="48.25337" lon="-3.49696">
        <ele>112.2</ele>
        <time>2022-06-12T12:36:25Z</time>
      </trkpt>
      <trkpt lat="48.25337" lon="-3.49696">
        <ele>112.2</ele>
        <time>2022-06-12T12:36:26Z</time>
      </trkpt>
      <trkpt lat="48.25337" lon="-3.49696">
        <ele>112.2</ele>
        <time>2022-06-12T12:36:27Z</time>
      </trkpt>
      <trkpt lat="48.25337" lon="-3.49696">
        <ele>112.2</ele>
        <time>2022-06-12T12:36:28Z</time>
      </trkpt>
      <trkpt lat="48.25338" lon="-3.49696">
        <ele>112.2</ele>
        <time>2022-06-12T12:36:29Z</time>
      </trkpt>
      <trkpt lat="48.25338" lon="-3.49696">
        <ele>112.2</ele>
        <time>2022-06-12T12:36:30Z</time>
      </trkpt>
      <trkpt lat="48.25338" lon="-3.49696">
        <ele>112.2</ele>
        <time>2022-06-12T12:36:31Z</time>
      </trkpt>
      <trkpt lat="48.25338" lon="-3.49696">
        <ele>112.2</ele>
        <time>2022-06-12T12:36:32Z</time>
      </trkpt>
      <trkpt lat="48.25338" lon="-3.49696">
        <ele>112.2</ele>
        <time>2022-06-12T12:36:33Z</time>
      </trkpt>
      <trkpt lat="48.25338" lon="-3.49696">
        <ele>112.2</ele>
        <time>2022-06-12T12:36:34Z</time>
      </trkpt>
      <trkpt lat="48.25338" lon="-3.49696">
        <ele>112.2</ele>
        <time>2022-06-12T12:36:35Z</time>
      </trkpt>
      <trkpt lat="48.25338" lon="-3.49696">
        <ele>112.2</ele>
        <time>2022-06-12T12:36:36Z</time>
      </trkpt>
      <trkpt lat="48.25338" lon="-3.49696">
        <ele>112.2</ele>
        <time>2022-06-12T12:36:37Z</time>
      </trkpt>
      <trkpt lat="48.25338" lon="-3.49696">
        <ele>112.2</ele>
        <time>2022-06-12T12:36:38Z</time>
      </trkpt>
      <trkpt lat="48.25338" lon="-3.49696">
        <ele>112.2</ele>
        <time>2022-06-12T12:36:39Z</time>
      </trkpt>
      <trkpt lat="48.25338" lon="-3.49696">
        <ele>112.2</ele>
        <time>2022-06-12T12:36:40Z</time>
      </trkpt>
      <trkpt lat="48.25338" lon="-3.49696">
        <ele>112.2</ele>
        <time>2022-06-12T12:36:41Z</time>
      </trkpt>
      <trkpt lat="48.25338" lon="-3.49696">
        <ele>112.2</ele>
        <time>2022-06-12T12:36:42Z</time>
      </trkpt>
      <trkpt lat="48.25338" lon="-3.49696">
        <ele>112.2</ele>
        <time>2022-06-12T12:36:43Z</time>
      </trkpt>
      <trkpt lat="48.25338" lon="-3.49696">
        <ele>112.2</ele>
        <time>2022-06-12T12:36:44Z</time>
      </trkpt>
      <trkpt lat="48.25338" lon="-3.49696">
        <ele>112.2</ele>
        <time>2022-06-12T12:36:45Z</time>
      </trkpt>
      <trkpt lat="48.25338" lon="-3.49696">
        <ele>112.2</ele>
        <time>2022-06-12T12:36:46Z</time>
      </trkpt>
      <trkpt lat="48.25338" lon="-3.49696">
        <ele>112.2</ele>
        <time>2022-06-12T12:36:47Z</time>
      </trkpt>
      <trkpt lat="48.25338" lon="-3.49696">
        <ele>112.2</ele>
        <time>2022-06-12T12:36:48Z</time>
      </trkpt>
      <trkpt lat="48.25338" lon="-3.49696">
        <ele>112.2</ele>
        <time>2022-06-12T12:36:49Z</time>
      </trkpt>
      <trkpt lat="48.25338" lon="-3.49696">
        <ele>112.2</ele>
        <time>2022-06-12T12:36:50Z</time>
      </trkpt>
      <trkpt lat="48.25338" lon="-3.49696">
        <ele>112.2</ele>
        <time>2022-06-12T12:36:51Z</time>
      </trkpt>
      <trkpt lat="48.25338" lon="-3.49696">
        <ele>112.2</ele>
        <time>2022-06-12T12:36:52Z</time>
      </trkpt>
      <trkpt lat="48.25338" lon="-3.49696">
        <ele>112.2</ele>
        <time>2022-06-12T12:36:53Z</time>
      </trkpt>
      <trkpt lat="48.25338" lon="-3.49696">
        <ele>112.2</ele>
        <time>2022-06-12T12:36:54Z</time>
      </trkpt>
      <trkpt lat="48.25338" lon="-3.49696">
        <ele>112.2</ele>
        <time>2022-06-12T12:36:55Z</time>
      </trkpt>
      <trkpt lat="48.25338" lon="-3.49696">
        <ele>112.2</ele>
        <time>2022-06-12T12:36:56Z</time>
      </trkpt>
      <trkpt lat="48.25338" lon="-3.49696">
        <ele>112.2</ele>
        <time>2022-06-12T12:36:57Z</time>
      </trkpt>
      <trkpt lat="48.25338" lon="-3.49696">
        <ele>112.2</ele>
        <time>2022-06-12T12:36:58Z</time>
      </trkpt>
      <trkpt lat="48.25338" lon="-3.49696">
        <ele>112.2</ele>
        <time>2022-06-12T12:36:59Z</time>
      </trkpt>
      <trkpt lat="48.25338" lon="-3.49696">
        <ele>112.2</ele>
        <time>2022-06-12T12:37:00Z</time>
      </trkpt>
      <trkpt lat="48.25338" lon="-3.49696">
        <ele>112.2</ele>
        <time>2022-06-12T12:37:01Z</time>
      </trkpt>
      <trkpt lat="48.25338" lon="-3.49696">
        <ele>112.2</ele>
        <time>2022-06-12T12:37:02Z</time>
      </trkpt>
      <trkpt lat="48.25338" lon="-3.49696">
        <ele>112.2</ele>
        <time>2022-06-12T12:37:03Z</time>
      </trkpt>
      <trkpt lat="48.25337" lon="-3.49696">
        <ele>112.2</ele>
        <time>2022-06-12T12:37:05Z</time>
      </trkpt>
      <trkpt lat="48.25337" lon="-3.49697">
        <ele>112.2</ele>
        <time>2022-06-12T12:37:06Z</time>
      </trkpt>
      <trkpt lat="48.25337" lon="-3.49697">
        <ele>112.2</ele>
        <time>2022-06-12T12:37:07Z</time>
      </trkpt>
      <trkpt lat="48.25337" lon="-3.49697">
        <ele>112.2</ele>
        <time>2022-06-12T12:37:08Z</time>
      </trkpt>
      <trkpt lat="48.25337" lon="-3.49698">
        <ele>112.2</ele>
        <time>2022-06-12T12:37:09Z</time>
      </trkpt>
      <trkpt lat="48.25337" lon="-3.49697">
        <ele>112.2</ele>
        <time>2022-06-12T12:37:10Z</time>
      </trkpt>
      <trkpt lat="48.25337" lon="-3.49697">
        <ele>112.2</ele>
        <time>2022-06-12T12:37:11Z</time>
      </trkpt>
      <trkpt lat="48.25336" lon="-3.49696">
        <ele>112.2</ele>
        <time>2022-06-12T12:37:12Z</time>
      </trkpt>
      <trkpt lat="48.25336" lon="-3.49695">
        <ele>112.3</ele>
        <time>2022-06-12T12:37:14Z</time>
      </trkpt>
      <trkpt lat="48.25336" lon="-3.49694">
        <ele>112.3</ele>
        <time>2022-06-12T12:37:16Z</time>
      </trkpt>
      <trkpt lat="48.25336" lon="-3.49693">
        <ele>112.3</ele>
        <time>2022-06-12T12:37:17Z</time>
      </trkpt>
      <trkpt lat="48.25336" lon="-3.49691">
        <ele>112.3</ele>
        <time>2022-06-12T12:37:18Z</time>
      </trkpt>
      <trkpt lat="48.25336" lon="-3.49689">
        <ele>112.3</ele>
        <time>2022-06-12T12:37:20Z</time>
      </trkpt>
      <trkpt lat="48.25337" lon="-3.49688">
        <ele>112.4</ele>
        <time>2022-06-12T12:37:21Z</time>
      </trkpt>
      <trkpt lat="48.25337" lon="-3.49687">
        <ele>112.4</ele>
        <time>2022-06-12T12:37:22Z</time>
      </trkpt>
      <trkpt lat="48.25337" lon="-3.49687">
        <ele>112.4</ele>
        <time>2022-06-12T12:37:23Z</time>
      </trkpt>
      <trkpt lat="48.25337" lon="-3.49687">
        <ele>112.4</ele>
        <time>2022-06-12T12:37:25Z</time>
      </trkpt>
      <trkpt lat="48.25337" lon="-3.49687">
        <ele>112.4</ele>
        <time>2022-06-12T12:37:26Z</time>
      </trkpt>
      <trkpt lat="48.25337" lon="-3.49687">
        <ele>112.4</ele>
        <time>2022-06-12T12:37:27Z</time>
      </trkpt>
      <trkpt lat="48.25337" lon="-3.49687">
        <ele>112.4</ele>
        <time>2022-06-12T12:37:28Z</time>
      </trkpt>
      <trkpt lat="48.25337" lon="-3.49687">
        <ele>112.4</ele>
        <time>2022-06-12T12:37:30Z</time>
      </trkpt>
      <trkpt lat="48.25337" lon="-3.49687">
        <ele>112.4</ele>
        <time>2022-06-12T12:37:31Z</time>
      </trkpt>
      <trkpt lat="48.25337" lon="-3.49687">
        <ele>112.4</ele>
        <time>2022-06-12T12:37:32Z</time>
      </trkpt>
      <trkpt lat="48.25336" lon="-3.49687">
        <ele>112.4</ele>
        <time>2022-06-12T12:37:33Z</time>
      </trkpt>
      <trkpt lat="48.25336" lon="-3.49687">
        <ele>112.4</ele>
        <time>2022-06-12T12:37:35Z</time>
      </trkpt>
      <trkpt lat="48.25336" lon="-3.49686">
        <ele>112.4</ele>
        <time>2022-06-12T12:37:36Z</time>
      </trkpt>
      <trkpt lat="48.25336" lon="-3.49686">
        <ele>112.4</ele>
        <time>2022-06-12T12:37:37Z</time>
      </trkpt>
      <trkpt lat="48.25336" lon="-3.49685">
        <ele>112.4</ele>
        <time>2022-06-12T12:37:39Z</time>
      </trkpt>
      <trkpt lat="48.25336" lon="-3.49684">
        <ele>112.4</ele>
        <time>2022-06-12T12:37:40Z</time>
      </trkpt>
      <trkpt lat="48.25337" lon="-3.49683">
        <ele>112.5</ele>
        <time>2022-06-12T12:37:41Z</time>
      </trkpt>
      <trkpt lat="48.25337" lon="-3.49682">
        <ele>112.5</ele>
        <time>2022-06-12T12:37:42Z</time>
      </trkpt>
      <trkpt lat="48.25337" lon="-3.49681">
        <ele>112.5</ele>
        <time>2022-06-12T12:37:43Z</time>
      </trkpt>
      <trkpt lat="48.25337" lon="-3.4968">
        <ele>112.5</ele>
        <time>2022-06-12T12:37:44Z</time>
      </trkpt>
      <trkpt lat="48.25337" lon="-3.4968">
        <ele>112.5</ele>
        <time>2022-06-12T12:37:45Z</time>
      </trkpt>
      <trkpt lat="48.25338" lon="-3.4968">
        <ele>112.5</ele>
        <time>2022-06-12T12:37:46Z</time>
      </trkpt>
      <trkpt lat="48.25339" lon="-3.4968">
        <ele>112.6</ele>
        <time>2022-06-12T12:37:47Z</time>
      </trkpt>
      <trkpt lat="48.25339" lon="-3.49679">
        <ele>112.6</ele>
        <time>2022-06-12T12:37:48Z</time>
      </trkpt>
      <trkpt lat="48.25339" lon="-3.49679">
        <ele>112.6</ele>
        <time>2022-06-12T12:37:49Z</time>
      </trkpt>
      <trkpt lat="48.25338" lon="-3.49679">
        <ele>112.6</ele>
        <time>2022-06-12T12:37:50Z</time>
      </trkpt>
      <trkpt lat="48.25338" lon="-3.49679">
        <ele>112.6</ele>
        <time>2022-06-12T12:37:51Z</time>
      </trkpt>
      <trkpt lat="48.25338" lon="-3.49679">
        <ele>112.6</ele>
        <time>2022-06-12T12:37:52Z</time>
      </trkpt>
      <trkpt lat="48.25338" lon="-3.49678">
        <ele>112.6</ele>
        <time>2022-06-12T12:37:53Z</time>
      </trkpt>
      <trkpt lat="48.25338" lon="-3.49678">
        <ele>112.6</ele>
        <time>2022-06-12T12:37:54Z</time>
      </trkpt>
      <trkpt lat="48.25338" lon="-3.49678">
        <ele>112.6</ele>
        <time>2022-06-12T12:37:55Z</time>
      </trkpt>
      <trkpt lat="48.25339" lon="-3.49677">
        <ele>112.6</ele>
        <time>2022-06-12T12:37:56Z</time>
      </trkpt>
      <trkpt lat="48.25339" lon="-3.49676">
        <ele>112.6</ele>
        <time>2022-06-12T12:37:57Z</time>
      </trkpt>
      <trkpt lat="48.25339" lon="-3.49675">
        <ele>112.6</ele>
        <time>2022-06-12T12:37:59Z</time>
      </trkpt>
      <trkpt lat="48.25339" lon="-3.49674">
        <ele>112.7</ele>
        <time>2022-06-12T12:38:00Z</time>
      </trkpt>
      <trkpt lat="48.25339" lon="-3.49673">
        <ele>112.7</ele>
        <time>2022-06-12T12:38:01Z</time>
      </trkpt>
      <trkpt lat="48.25339" lon="-3.49672">
        <ele>112.7</ele>
        <time>2022-06-12T12:38:02Z</time>
      </trkpt>
      <trkpt lat="48.25339" lon="-3.4967">
        <ele>112.7</ele>
        <time>2022-06-12T12:38:03Z</time>
      </trkpt>
      <trkpt lat="48.25339" lon="-3.49668">
        <ele>112.8</ele>
        <time>2022-06-12T12:38:04Z</time>
      </trkpt>
      <trkpt lat="48.25339" lon="-3.49666">
        <ele>112.8</ele>
        <time>2022-06-12T12:38:06Z</time>
      </trkpt>
      <trkpt lat="48.25339" lon="-3.49665">
        <ele>112.8</ele>
        <time>2022-06-12T12:38:07Z</time>
      </trkpt>
      <trkpt lat="48.25339" lon="-3.49664">
        <ele>112.8</ele>
        <time>2022-06-12T12:38:08Z</time>
      </trkpt>
      <trkpt lat="48.2534" lon="-3.49662">
        <ele>112.8</ele>
        <time>2022-06-12T12:38:09Z</time>
      </trkpt>
      <trkpt lat="48.2534" lon="-3.4966">
        <ele>112.9</ele>
        <time>2022-06-12T12:38:10Z</time>
      </trkpt>
      <trkpt lat="48.25341" lon="-3.49659">
        <ele>112.9</ele>
        <time>2022-06-12T12:38:11Z</time>
      </trkpt>
      <trkpt lat="48.25341" lon="-3.49657">
        <ele>112.9</ele>
        <time>2022-06-12T12:38:12Z</time>
      </trkpt>
      <trkpt lat="48.25341" lon="-3.49655">
        <ele>113</ele>
        <time>2022-06-12T12:38:13Z</time>
      </trkpt>
      <trkpt lat="48.25342" lon="-3.49652">
        <ele>113</ele>
        <time>2022-06-12T12:38:15Z</time>
      </trkpt>
      <trkpt lat="48.25343" lon="-3.49651">
        <ele>113</ele>
        <time>2022-06-12T12:38:16Z</time>
      </trkpt>
      <trkpt lat="48.25343" lon="-3.49648">
        <ele>113.1</ele>
        <time>2022-06-12T12:38:17Z</time>
      </trkpt>
      <trkpt lat="48.25343" lon="-3.49646">
        <ele>113.1</ele>
        <time>2022-06-12T12:38:18Z</time>
      </trkpt>
      <trkpt lat="48.25343" lon="-3.49645">
        <ele>113.1</ele>
        <time>2022-06-12T12:38:19Z</time>
      </trkpt>
      <trkpt lat="48.25344" lon="-3.49642">
        <ele>113.1</ele>
        <time>2022-06-12T12:38:20Z</time>
      </trkpt>
      <trkpt lat="48.25344" lon="-3.4964">
        <ele>113.2</ele>
        <time>2022-06-12T12:38:21Z</time>
      </trkpt>
      <trkpt lat="48.25344" lon="-3.49639">
        <ele>113.2</ele>
        <time>2022-06-12T12:38:22Z</time>
      </trkpt>
      <trkpt lat="48.25344" lon="-3.49635">
        <ele>113.2</ele>
        <time>2022-06-12T12:38:24Z</time>
      </trkpt>
      <trkpt lat="48.25344" lon="-3.49633">
        <ele>113.2</ele>
        <time>2022-06-12T12:38:25Z</time>
      </trkpt>
      <trkpt lat="48.25344" lon="-3.4963">
        <ele>113.3</ele>
        <time>2022-06-12T12:38:26Z</time>
      </trkpt>
      <trkpt lat="48.25345" lon="-3.49629">
        <ele>113.3</ele>
        <time>2022-06-12T12:38:27Z</time>
      </trkpt>
      <trkpt lat="48.25345" lon="-3.49627">
        <ele>113.3</ele>
        <time>2022-06-12T12:38:28Z</time>
      </trkpt>
      <trkpt lat="48.25345" lon="-3.49625">
        <ele>113.3</ele>
        <time>2022-06-12T12:38:30Z</time>
      </trkpt>
      <trkpt lat="48.25345" lon="-3.49622">
        <ele>113.3</ele>
        <time>2022-06-12T12:38:31Z</time>
      </trkpt>
      <trkpt lat="48.25345" lon="-3.49619">
        <ele>113.3</ele>
        <time>2022-06-12T12:38:32Z</time>
      </trkpt>
      <trkpt lat="48.25346" lon="-3.49618">
        <ele>113.3</ele>
        <time>2022-06-12T12:38:33Z</time>
      </trkpt>
      <trkpt lat="48.25346" lon="-3.49616">
        <ele>113.4</ele>
        <time>2022-06-12T12:38:34Z</time>
      </trkpt>
      <trkpt lat="48.25346" lon="-3.49612">
        <ele>113.4</ele>
        <time>2022-06-12T12:38:36Z</time>
      </trkpt>
      <trkpt lat="48.25346" lon="-3.49611">
        <ele>113.4</ele>
        <time>2022-06-12T12:38:37Z</time>
      </trkpt>
      <trkpt lat="48.25346" lon="-3.49608">
        <ele>113.4</ele>
        <time>2022-06-12T12:38:38Z</time>
      </trkpt>
      <trkpt lat="48.25346" lon="-3.49606">
        <ele>113.4</ele>
        <time>2022-06-12T12:38:39Z</time>
      </trkpt>
      <trkpt lat="48.25346" lon="-3.49605">
        <ele>113.4</ele>
        <time>2022-06-12T12:38:40Z</time>
      </trkpt>
      <trkpt lat="48.25346" lon="-3.49603">
        <ele>113.4</ele>
        <time>2022-06-12T12:38:41Z</time>
      </trkpt>
      <trkpt lat="48.25346" lon="-3.49602">
        <ele>113.4</ele>
        <time>2022-06-12T12:38:42Z</time>
      </trkpt>
      <trkpt lat="48.25346" lon="-3.49601">
        <ele>113.4</ele>
        <time>2022-06-12T12:38:43Z</time>
      </trkpt>
      <trkpt lat="48.25346" lon="-3.49599">
        <ele>113.4</ele>
        <time>2022-06-12T12:38:44Z</time>
      </trkpt>
      <trkpt lat="48.25346" lon="-3.49597">
        <ele>113.4</ele>
        <time>2022-06-12T12:38:45Z</time>
      </trkpt>
      <trkpt lat="48.25346" lon="-3.49596">
        <ele>113.4</ele>
        <time>2022-06-12T12:38:46Z</time>
      </trkpt>
      <trkpt lat="48.25345" lon="-3.49593">
        <ele>113.4</ele>
        <time>2022-06-12T12:38:48Z</time>
      </trkpt>
      <trkpt lat="48.25345" lon="-3.49592">
        <ele>113.4</ele>
        <time>2022-06-12T12:38:49Z</time>
      </trkpt>
      <trkpt lat="48.25345" lon="-3.49591">
        <ele>113.4</ele>
        <time>2022-06-12T12:38:50Z</time>
      </trkpt>
      <trkpt lat="48.25345" lon="-3.4959">
        <ele>113.4</ele>
        <time>2022-06-12T12:38:51Z</time>
      </trkpt>
      <trkpt lat="48.25344" lon="-3.49589">
        <ele>113.4</ele>
        <time>2022-06-12T12:38:52Z</time>
      </trkpt>
      <trkpt lat="48.25344" lon="-3.49587">
        <ele>113.4</ele>
        <time>2022-06-12T12:38:53Z</time>
      </trkpt>
      <trkpt lat="48.25344" lon="-3.49586">
        <ele>113.4</ele>
        <time>2022-06-12T12:38:54Z</time>
      </trkpt>
      <trkpt lat="48.25344" lon="-3.49584">
        <ele>113.4</ele>
        <time>2022-06-12T12:38:55Z</time>
      </trkpt>
      <trkpt lat="48.25343" lon="-3.49583">
        <ele>113.4</ele>
        <time>2022-06-12T12:38:56Z</time>
      </trkpt>
      <trkpt lat="48.25343" lon="-3.49581">
        <ele>113.4</ele>
        <time>2022-06-12T12:38:57Z</time>
      </trkpt>
      <trkpt lat="48.25343" lon="-3.49579">
        <ele>113.4</ele>
        <time>2022-06-12T12:38:58Z</time>
      </trkpt>
      <trkpt lat="48.25343" lon="-3.49578">
        <ele>113.4</ele>
        <time>2022-06-12T12:38:59Z</time>
      </trkpt>
      <trkpt lat="48.25343" lon="-3.49576">
        <ele>113.4</ele>
        <time>2022-06-12T12:39:00Z</time>
      </trkpt>
      <trkpt lat="48.25343" lon="-3.49572">
        <ele>113.4</ele>
        <time>2022-06-12T12:39:01Z</time>
      </trkpt>
      <trkpt lat="48.25343" lon="-3.49571">
        <ele>113.4</ele>
        <time>2022-06-12T12:39:02Z</time>
      </trkpt>
      <trkpt lat="48.25343" lon="-3.4957">
        <ele>113.4</ele>
        <time>2022-06-12T12:39:04Z</time>
      </trkpt>
      <trkpt lat="48.25343" lon="-3.49568">
        <ele>113.4</ele>
        <time>2022-06-12T12:39:05Z</time>
      </trkpt>
      <trkpt lat="48.25343" lon="-3.49566">
        <ele>113.4</ele>
        <time>2022-06-12T12:39:06Z</time>
      </trkpt>
      <trkpt lat="48.25343" lon="-3.49563">
        <ele>113.4</ele>
        <time>2022-06-12T12:39:07Z</time>
      </trkpt>
      <trkpt lat="48.25343" lon="-3.49562">
        <ele>113.4</ele>
        <time>2022-06-12T12:39:08Z</time>
      </trkpt>
      <trkpt lat="48.25343" lon="-3.4956">
        <ele>113.4</ele>
        <time>2022-06-12T12:39:09Z</time>
      </trkpt>
      <trkpt lat="48.25343" lon="-3.49556">
        <ele>113.4</ele>
        <time>2022-06-12T12:39:10Z</time>
      </trkpt>
      <trkpt lat="48.25343" lon="-3.49554">
        <ele>113.4</ele>
        <time>2022-06-12T12:39:12Z</time>
      </trkpt>
      <trkpt lat="48.25343" lon="-3.49552">
        <ele>113.4</ele>
        <time>2022-06-12T12:39:13Z</time>
      </trkpt>
      <trkpt lat="48.25343" lon="-3.4955">
        <ele>113.4</ele>
        <time>2022-06-12T12:39:14Z</time>
      </trkpt>
      <trkpt lat="48.25343" lon="-3.49546">
        <ele>113.4</ele>
        <time>2022-06-12T12:39:15Z</time>
      </trkpt>
      <trkpt lat="48.25343" lon="-3.49545">
        <ele>113.4</ele>
        <time>2022-06-12T12:39:16Z</time>
      </trkpt>
      <trkpt lat="48.25343" lon="-3.49544">
        <ele>113.4</ele>
        <time>2022-06-12T12:39:17Z</time>
      </trkpt>
      <trkpt lat="48.25343" lon="-3.49542">
        <ele>113.4</ele>
        <time>2022-06-12T12:39:18Z</time>
      </trkpt>
      <trkpt lat="48.25343" lon="-3.49541">
        <ele>113.4</ele>
        <time>2022-06-12T12:39:19Z</time>
      </trkpt>
      <trkpt lat="48.25343" lon="-3.49538">
        <ele>113.4</ele>
        <time>2022-06-12T12:39:20Z</time>
      </trkpt>
      <trkpt lat="48.25343" lon="-3.49536">
        <ele>113.4</ele>
        <time>2022-06-12T12:39:21Z</time>
      </trkpt>
      <trkpt lat="48.25343" lon="-3.49533">
        <ele>113.4</ele>
        <time>2022-06-12T12:39:22Z</time>
      </trkpt>
      <trkpt lat="48.25343" lon="-3.49532">
        <ele>113.4</ele>
        <time>2022-06-12T12:39:23Z</time>
      </trkpt>
      <trkpt lat="48.25344" lon="-3.49531">
        <ele>113.4</ele>
        <time>2022-06-12T12:39:24Z</time>
      </trkpt>
      <trkpt lat="48.25344" lon="-3.49527">
        <ele>113.5</ele>
        <time>2022-06-12T12:39:26Z</time>
      </trkpt>
      <trkpt lat="48.25344" lon="-3.49526">
        <ele>113.5</ele>
        <time>2022-06-12T12:39:27Z</time>
      </trkpt>
      <trkpt lat="48.25344" lon="-3.49522">
        <ele>113.5</ele>
        <time>2022-06-12T12:39:28Z</time>
      </trkpt>
      <trkpt lat="48.25344" lon="-3.49521">
        <ele>113.5</ele>
        <time>2022-06-12T12:39:29Z</time>
      </trkpt>
      <trkpt lat="48.25344" lon="-3.49519">
        <ele>113.5</ele>
        <time>2022-06-12T12:39:30Z</time>
      </trkpt>
      <trkpt lat="48.25344" lon="-3.49517">
        <ele>113.5</ele>
        <time>2022-06-12T12:39:31Z</time>
      </trkpt>
      <trkpt lat="48.25344" lon="-3.49516">
        <ele>113.5</ele>
        <time>2022-06-12T12:39:32Z</time>
      </trkpt>
      <trkpt lat="48.25345" lon="-3.49514">
        <ele>113.5</ele>
        <time>2022-06-12T12:39:34Z</time>
      </trkpt>
      <trkpt lat="48.25345" lon="-3.49512">
        <ele>113.5</ele>
        <time>2022-06-12T12:39:35Z</time>
      </trkpt>
      <trkpt lat="48.25345" lon="-3.4951">
        <ele>113.5</ele>
        <time>2022-06-12T12:39:36Z</time>
      </trkpt>
      <trkpt lat="48.25346" lon="-3.49508">
        <ele>113.5</ele>
        <time>2022-06-12T12:39:37Z</time>
      </trkpt>
      <trkpt lat="48.25346" lon="-3.49507">
        <ele>113.5</ele>
        <time>2022-06-12T12:39:38Z</time>
      </trkpt>
      <trkpt lat="48.25346" lon="-3.49505">
        <ele>113.5</ele>
        <time>2022-06-12T12:39:39Z</time>
      </trkpt>
      <trkpt lat="48.25347" lon="-3.49503">
        <ele>113.5</ele>
        <time>2022-06-12T12:39:40Z</time>
      </trkpt>
      <trkpt lat="48.25347" lon="-3.49501">
        <ele>113.5</ele>
        <time>2022-06-12T12:39:42Z</time>
      </trkpt>
      <trkpt lat="48.25347" lon="-3.49499">
        <ele>113.5</ele>
        <time>2022-06-12T12:39:43Z</time>
      </trkpt>
      <trkpt lat="48.25348" lon="-3.49498">
        <ele>113.5</ele>
        <time>2022-06-12T12:39:44Z</time>
      </trkpt>
      <trkpt lat="48.25348" lon="-3.49496">
        <ele>113.5</ele>
        <time>2022-06-12T12:39:45Z</time>
      </trkpt>
      <trkpt lat="48.25349" lon="-3.49494">
        <ele>113.5</ele>
        <time>2022-06-12T12:39:46Z</time>
      </trkpt>
      <trkpt lat="48.25349" lon="-3.49492">
        <ele>113.5</ele>
        <time>2022-06-12T12:39:47Z</time>
      </trkpt>
      <trkpt lat="48.25348" lon="-3.49489">
        <ele>113.5</ele>
        <time>2022-06-12T12:39:48Z</time>
      </trkpt>
      <trkpt lat="48.25348" lon="-3.49488">
        <ele>113.5</ele>
        <time>2022-06-12T12:39:49Z</time>
      </trkpt>
      <trkpt lat="48.25348" lon="-3.49486">
        <ele>113.6</ele>
        <time>2022-06-12T12:39:50Z</time>
      </trkpt>
      <trkpt lat="48.25348" lon="-3.49485">
        <ele>113.6</ele>
        <time>2022-06-12T12:39:52Z</time>
      </trkpt>
      <trkpt lat="48.25349" lon="-3.49483">
        <ele>113.6</ele>
        <time>2022-06-12T12:39:53Z</time>
      </trkpt>
      <trkpt lat="48.25349" lon="-3.49482">
        <ele>113.6</ele>
        <time>2022-06-12T12:39:54Z</time>
      </trkpt>
      <trkpt lat="48.2535" lon="-3.4948">
        <ele>113.6</ele>
        <time>2022-06-12T12:39:55Z</time>
      </trkpt>
      <trkpt lat="48.25351" lon="-3.49478">
        <ele>113.6</ele>
        <time>2022-06-12T12:39:56Z</time>
      </trkpt>
      <trkpt lat="48.25351" lon="-3.49477">
        <ele>113.6</ele>
        <time>2022-06-12T12:39:57Z</time>
      </trkpt>
      <trkpt lat="48.25351" lon="-3.49476">
        <ele>113.6</ele>
        <time>2022-06-12T12:39:58Z</time>
      </trkpt>
      <trkpt lat="48.25352" lon="-3.49474">
        <ele>113.6</ele>
        <time>2022-06-12T12:39:59Z</time>
      </trkpt>
      <trkpt lat="48.25352" lon="-3.49472">
        <ele>113.6</ele>
        <time>2022-06-12T12:40:00Z</time>
      </trkpt>
      <trkpt lat="48.25354" lon="-3.49469">
        <ele>113.6</ele>
        <time>2022-06-12T12:40:01Z</time>
      </trkpt>
      <trkpt lat="48.25355" lon="-3.49468">
        <ele>113.6</ele>
        <time>2022-06-12T12:40:02Z</time>
      </trkpt>
      <trkpt lat="48.25356" lon="-3.49467">
        <ele>113.7</ele>
        <time>2022-06-12T12:40:03Z</time>
      </trkpt>
      <trkpt lat="48.25357" lon="-3.49464">
        <ele>113.7</ele>
        <time>2022-06-12T12:40:05Z</time>
      </trkpt>
      <trkpt lat="48.2536" lon="-3.49463">
        <ele>113.7</ele>
        <time>2022-06-12T12:40:06Z</time>
      </trkpt>
      <trkpt lat="48.25361" lon="-3.49462">
        <ele>113.7</ele>
        <time>2022-06-12T12:40:07Z</time>
      </trkpt>
      <trkpt lat="48.25362" lon="-3.49461">
        <ele>113.7</ele>
        <time>2022-06-12T12:40:08Z</time>
      </trkpt>
      <trkpt lat="48.25362" lon="-3.49459">
        <ele>113.7</ele>
        <time>2022-06-12T12:40:09Z</time>
      </trkpt>
      <trkpt lat="48.25364" lon="-3.49456">
        <ele>113.7</ele>
        <time>2022-06-12T12:40:10Z</time>
      </trkpt>
      <trkpt lat="48.25364" lon="-3.49455">
        <ele>113.7</ele>
        <time>2022-06-12T12:40:11Z</time>
      </trkpt>
      <trkpt lat="48.25365" lon="-3.49452">
        <ele>113.7</ele>
        <time>2022-06-12T12:40:13Z</time>
      </trkpt>
      <trkpt lat="48.25366" lon="-3.49451">
        <ele>113.7</ele>
        <time>2022-06-12T12:40:14Z</time>
      </trkpt>
      <trkpt lat="48.25366" lon="-3.49449">
        <ele>113.7</ele>
        <time>2022-06-12T12:40:15Z</time>
      </trkpt>
      <trkpt lat="48.25367" lon="-3.49447">
        <ele>113.8</ele>
        <time>2022-06-12T12:40:16Z</time>
      </trkpt>
      <trkpt lat="48.25367" lon="-3.49445">
        <ele>113.8</ele>
        <time>2022-06-12T12:40:17Z</time>
      </trkpt>
      <trkpt lat="48.25368" lon="-3.49442">
        <ele>113.8</ele>
        <time>2022-06-12T12:40:18Z</time>
      </trkpt>
      <trkpt lat="48.25368" lon="-3.49441">
        <ele>113.8</ele>
        <time>2022-06-12T12:40:19Z</time>
      </trkpt>
      <trkpt lat="48.25368" lon="-3.4944">
        <ele>113.8</ele>
        <time>2022-06-12T12:40:20Z</time>
      </trkpt>
      <trkpt lat="48.25369" lon="-3.49437">
        <ele>113.8</ele>
        <time>2022-06-12T12:40:21Z</time>
      </trkpt>
      <trkpt lat="48.25369" lon="-3.49436">
        <ele>113.8</ele>
        <time>2022-06-12T12:40:22Z</time>
      </trkpt>
      <trkpt lat="48.25369" lon="-3.49435">
        <ele>113.8</ele>
        <time>2022-06-12T12:40:23Z</time>
      </trkpt>
      <trkpt lat="48.25369" lon="-3.49433">
        <ele>113.8</ele>
        <time>2022-06-12T12:40:24Z</time>
      </trkpt>
      <trkpt lat="48.25369" lon="-3.49431">
        <ele>113.8</ele>
        <time>2022-06-12T12:40:25Z</time>
      </trkpt>
      <trkpt lat="48.25369" lon="-3.49429">
        <ele>113.8</ele>
        <time>2022-06-12T12:40:26Z</time>
      </trkpt>
      <trkpt lat="48.25368" lon="-3.49425">
        <ele>113.8</ele>
        <time>2022-06-12T12:40:28Z</time>
      </trkpt>
      <trkpt lat="48.25367" lon="-3.49425">
        <ele>113.8</ele>
        <time>2022-06-12T12:40:29Z</time>
      </trkpt>
      <trkpt lat="48.25366" lon="-3.49422">
        <ele>113.8</ele>
        <time>2022-06-12T12:40:30Z</time>
      </trkpt>
      <trkpt lat="48.25366" lon="-3.4942">
        <ele>113.8</ele>
        <time>2022-06-12T12:40:31Z</time>
      </trkpt>
      <trkpt lat="48.25366" lon="-3.49419">
        <ele>113.8</ele>
        <time>2022-06-12T12:40:32Z</time>
      </trkpt>
      <trkpt lat="48.25366" lon="-3.49417">
        <ele>113.8</ele>
        <time>2022-06-12T12:40:33Z</time>
      </trkpt>
      <trkpt lat="48.25365" lon="-3.49416">
        <ele>113.8</ele>
        <time>2022-06-12T12:40:34Z</time>
      </trkpt>
      <trkpt lat="48.25365" lon="-3.49414">
        <ele>113.8</ele>
        <time>2022-06-12T12:40:35Z</time>
      </trkpt>
      <trkpt lat="48.25365" lon="-3.49409">
        <ele>113.8</ele>
        <time>2022-06-12T12:40:36Z</time>
      </trkpt>
      <trkpt lat="48.25364" lon="-3.49407">
        <ele>113.8</ele>
        <time>2022-06-12T12:40:37Z</time>
      </trkpt>
      <trkpt lat="48.25364" lon="-3.49406">
        <ele>113.8</ele>
        <time>2022-06-12T12:40:38Z</time>
      </trkpt>
      <trkpt lat="48.25363" lon="-3.49404">
        <ele>113.8</ele>
        <time>2022-06-12T12:40:39Z</time>
      </trkpt>
      <trkpt lat="48.25363" lon="-3.49403">
        <ele>113.8</ele>
        <time>2022-06-12T12:40:41Z</time>
      </trkpt>
      <trkpt lat="48.25363" lon="-3.49401">
        <ele>113.8</ele>
        <time>2022-06-12T12:40:42Z</time>
      </trkpt>
      <trkpt lat="48.25363" lon="-3.49398">
        <ele>113.8</ele>
        <time>2022-06-12T12:40:43Z</time>
      </trkpt>
      <trkpt lat="48.25362" lon="-3.49396">
        <ele>113.8</ele>
        <time>2022-06-12T12:40:44Z</time>
      </trkpt>
      <trkpt lat="48.25362" lon="-3.49394">
        <ele>113.8</ele>
        <time>2022-06-12T12:40:45Z</time>
      </trkpt>
      <trkpt lat="48.25362" lon="-3.49393">
        <ele>113.8</ele>
        <time>2022-06-12T12:40:46Z</time>
      </trkpt>
      <trkpt lat="48.25362" lon="-3.4939">
        <ele>113.8</ele>
        <time>2022-06-12T12:40:47Z</time>
      </trkpt>
      <trkpt lat="48.25362" lon="-3.49389">
        <ele>113.8</ele>
        <time>2022-06-12T12:40:48Z</time>
      </trkpt>
      <trkpt lat="48.25362" lon="-3.49388">
        <ele>113.8</ele>
        <time>2022-06-12T12:40:49Z</time>
      </trkpt>
      <trkpt lat="48.25362" lon="-3.49384">
        <ele>113.8</ele>
        <time>2022-06-12T12:40:50Z</time>
      </trkpt>
      <trkpt lat="48.25362" lon="-3.49382">
        <ele>113.8</ele>
        <time>2022-06-12T12:40:51Z</time>
      </trkpt>
      <trkpt lat="48.25362" lon="-3.49381">
        <ele>113.8</ele>
        <time>2022-06-12T12:40:52Z</time>
      </trkpt>
      <trkpt lat="48.25362" lon="-3.49379">
        <ele>113.8</ele>
        <time>2022-06-12T12:40:53Z</time>
      </trkpt>
      <trkpt lat="48.25362" lon="-3.49377">
        <ele>113.8</ele>
        <time>2022-06-12T12:40:54Z</time>
      </trkpt>
      <trkpt lat="48.25363" lon="-3.49376">
        <ele>113.8</ele>
        <time>2022-06-12T12:40:55Z</time>
      </trkpt>
      <trkpt lat="48.25363" lon="-3.49374">
        <ele>113.7</ele>
        <time>2022-06-12T12:40:56Z</time>
      </trkpt>
      <trkpt lat="48.25364" lon="-3.49371">
        <ele>113.7</ele>
        <time>2022-06-12T12:40:58Z</time>
      </trkpt>
      <trkpt lat="48.25364" lon="-3.49369">
        <ele>113.7</ele>
        <time>2022-06-12T12:40:59Z</time>
      </trkpt>
      <trkpt lat="48.25365" lon="-3.49368">
        <ele>113.7</ele>
        <time>2022-06-12T12:41:00Z</time>
      </trkpt>
      <trkpt lat="48.25365" lon="-3.49366">
        <ele>113.7</ele>
        <time>2022-06-12T12:41:01Z</time>
      </trkpt>
      <trkpt lat="48.25366" lon="-3.49364">
        <ele>113.7</ele>
        <time>2022-06-12T12:41:02Z</time>
      </trkpt>
      <trkpt lat="48.25366" lon="-3.49361">
        <ele>113.7</ele>
        <time>2022-06-12T12:41:03Z</time>
      </trkpt>
      <trkpt lat="48.25367" lon="-3.49359">
        <ele>113.7</ele>
        <time>2022-06-12T12:41:04Z</time>
      </trkpt>
      <trkpt lat="48.25367" lon="-3.49358">
        <ele>113.7</ele>
        <time>2022-06-12T12:41:05Z</time>
      </trkpt>
      <trkpt lat="48.25368" lon="-3.49356">
        <ele>113.7</ele>
        <time>2022-06-12T12:41:06Z</time>
      </trkpt>
      <trkpt lat="48.25369" lon="-3.49352">
        <ele>113.7</ele>
        <time>2022-06-12T12:41:08Z</time>
      </trkpt>
      <trkpt lat="48.25369" lon="-3.49351">
        <ele>113.7</ele>
        <time>2022-06-12T12:41:09Z</time>
      </trkpt>
      <trkpt lat="48.2537" lon="-3.49347">
        <ele>113.7</ele>
        <time>2022-06-12T12:41:10Z</time>
      </trkpt>
      <trkpt lat="48.2537" lon="-3.49345">
        <ele>113.7</ele>
        <time>2022-06-12T12:41:11Z</time>
      </trkpt>
      <trkpt lat="48.25371" lon="-3.49343">
        <ele>113.7</ele>
        <time>2022-06-12T12:41:12Z</time>
      </trkpt>
      <trkpt lat="48.25371" lon="-3.49342">
        <ele>113.7</ele>
        <time>2022-06-12T12:41:14Z</time>
      </trkpt>
      <trkpt lat="48.25372" lon="-3.4934">
        <ele>113.7</ele>
        <time>2022-06-12T12:41:15Z</time>
      </trkpt>
      <trkpt lat="48.25372" lon="-3.49338">
        <ele>113.7</ele>
        <time>2022-06-12T12:41:16Z</time>
      </trkpt>
      <trkpt lat="48.25373" lon="-3.49336">
        <ele>113.7</ele>
        <time>2022-06-12T12:41:17Z</time>
      </trkpt>
      <trkpt lat="48.25373" lon="-3.49334">
        <ele>113.7</ele>
        <time>2022-06-12T12:41:18Z</time>
      </trkpt>
      <trkpt lat="48.25374" lon="-3.49332">
        <ele>113.8</ele>
        <time>2022-06-12T12:41:19Z</time>
      </trkpt>
      <trkpt lat="48.25374" lon="-3.49331">
        <ele>113.8</ele>
        <time>2022-06-12T12:41:20Z</time>
      </trkpt>
      <trkpt lat="48.25374" lon="-3.4933">
        <ele>113.8</ele>
        <time>2022-06-12T12:41:21Z</time>
      </trkpt>
      <trkpt lat="48.25375" lon="-3.49327">
        <ele>113.8</ele>
        <time>2022-06-12T12:41:23Z</time>
      </trkpt>
      <trkpt lat="48.25375" lon="-3.49325">
        <ele>113.8</ele>
        <time>2022-06-12T12:41:24Z</time>
      </trkpt>
      <trkpt lat="48.25375" lon="-3.49324">
        <ele>113.8</ele>
        <time>2022-06-12T12:41:25Z</time>
      </trkpt>
      <trkpt lat="48.25375" lon="-3.49322">
        <ele>113.8</ele>
        <time>2022-06-12T12:41:26Z</time>
      </trkpt>
      <trkpt lat="48.25375" lon="-3.4932">
        <ele>113.8</ele>
        <time>2022-06-12T12:41:27Z</time>
      </trkpt>
      <trkpt lat="48.25375" lon="-3.49316">
        <ele>113.8</ele>
        <time>2022-06-12T12:41:28Z</time>
      </trkpt>
      <trkpt lat="48.25375" lon="-3.49315">
        <ele>113.8</ele>
        <time>2022-06-12T12:41:30Z</time>
      </trkpt>
      <trkpt lat="48.25375" lon="-3.49313">
        <ele>113.8</ele>
        <time>2022-06-12T12:41:31Z</time>
      </trkpt>
      <trkpt lat="48.25375" lon="-3.49311">
        <ele>113.8</ele>
        <time>2022-06-12T12:41:32Z</time>
      </trkpt>
      <trkpt lat="48.25376" lon="-3.4931">
        <ele>113.8</ele>
        <time>2022-06-12T12:41:33Z</time>
      </trkpt>
      <trkpt lat="48.25376" lon="-3.49308">
        <ele>113.8</ele>
        <time>2022-06-12T12:41:34Z</time>
      </trkpt>
      <trkpt lat="48.25376" lon="-3.49307">
        <ele>113.9</ele>
        <time>2022-06-12T12:41:35Z</time>
      </trkpt>
      <trkpt lat="48.25376" lon="-3.49305">
        <ele>113.9</ele>
        <time>2022-06-12T12:41:36Z</time>
      </trkpt>
      <trkpt lat="48.25375" lon="-3.49304">
        <ele>113.9</ele>
        <time>2022-06-12T12:41:37Z</time>
      </trkpt>
      <trkpt lat="48.25375" lon="-3.49301">
        <ele>113.9</ele>
        <time>2022-06-12T12:41:38Z</time>
      </trkpt>
      <trkpt lat="48.25375" lon="-3.493">
        <ele>113.9</ele>
        <time>2022-06-12T12:41:39Z</time>
      </trkpt>
      <trkpt lat="48.25375" lon="-3.49299">
        <ele>113.9</ele>
        <time>2022-06-12T12:41:40Z</time>
      </trkpt>
      <trkpt lat="48.25375" lon="-3.49296">
        <ele>113.9</ele>
        <time>2022-06-12T12:41:41Z</time>
      </trkpt>
      <trkpt lat="48.25375" lon="-3.49293">
        <ele>113.9</ele>
        <time>2022-06-12T12:41:43Z</time>
      </trkpt>
      <trkpt lat="48.25374" lon="-3.49292">
        <ele>113.9</ele>
        <time>2022-06-12T12:41:44Z</time>
      </trkpt>
      <trkpt lat="48.25374" lon="-3.49291">
        <ele>113.9</ele>
        <time>2022-06-12T12:41:45Z</time>
      </trkpt>
      <trkpt lat="48.25374" lon="-3.49288">
        <ele>113.9</ele>
        <time>2022-06-12T12:41:46Z</time>
      </trkpt>
      <trkpt lat="48.25374" lon="-3.49286">
        <ele>113.9</ele>
        <time>2022-06-12T12:41:47Z</time>
      </trkpt>
      <trkpt lat="48.25374" lon="-3.49284">
        <ele>113.9</ele>
        <time>2022-06-12T12:41:48Z</time>
      </trkpt>
      <trkpt lat="48.25374" lon="-3.49284">
        <ele>113.9</ele>
        <time>2022-06-12T12:41:49Z</time>
      </trkpt>
      <trkpt lat="48.25373" lon="-3.49283">
        <ele>114</ele>
        <time>2022-06-12T12:41:50Z</time>
      </trkpt>
      <trkpt lat="48.25373" lon="-3.49282">
        <ele>114</ele>
        <time>2022-06-12T12:41:51Z</time>
      </trkpt>
      <trkpt lat="48.25373" lon="-3.4928">
        <ele>114</ele>
        <time>2022-06-12T12:41:52Z</time>
      </trkpt>
      <trkpt lat="48.25373" lon="-3.49277">
        <ele>114</ele>
        <time>2022-06-12T12:41:53Z</time>
      </trkpt>
      <trkpt lat="48.25373" lon="-3.49276">
        <ele>114</ele>
        <time>2022-06-12T12:41:54Z</time>
      </trkpt>
      <trkpt lat="48.25372" lon="-3.49272">
        <ele>114</ele>
        <time>2022-06-12T12:41:55Z</time>
      </trkpt>
      <trkpt lat="48.25372" lon="-3.49271">
        <ele>114</ele>
        <time>2022-06-12T12:41:57Z</time>
      </trkpt>
      <trkpt lat="48.25371" lon="-3.49269">
        <ele>114</ele>
        <time>2022-06-12T12:41:58Z</time>
      </trkpt>
      <trkpt lat="48.25371" lon="-3.49268">
        <ele>114</ele>
        <time>2022-06-12T12:41:59Z</time>
      </trkpt>
      <trkpt lat="48.25371" lon="-3.49267">
        <ele>114</ele>
        <time>2022-06-12T12:42:00Z</time>
      </trkpt>
      <trkpt lat="48.2537" lon="-3.49265">
        <ele>114</ele>
        <time>2022-06-12T12:42:01Z</time>
      </trkpt>
      <trkpt lat="48.25369" lon="-3.49264">
        <ele>114</ele>
        <time>2022-06-12T12:42:02Z</time>
      </trkpt>
      <trkpt lat="48.25369" lon="-3.49262">
        <ele>114</ele>
        <time>2022-06-12T12:42:03Z</time>
      </trkpt>
      <trkpt lat="48.25368" lon="-3.49261">
        <ele>114</ele>
        <time>2022-06-12T12:42:04Z</time>
      </trkpt>
      <trkpt lat="48.25368" lon="-3.4926">
        <ele>114</ele>
        <time>2022-06-12T12:42:05Z</time>
      </trkpt>
      <trkpt lat="48.25368" lon="-3.49258">
        <ele>114</ele>
        <time>2022-06-12T12:42:06Z</time>
      </trkpt>
      <trkpt lat="48.25367" lon="-3.49255">
        <ele>114</ele>
        <time>2022-06-12T12:42:08Z</time>
      </trkpt>
      <trkpt lat="48.25366" lon="-3.49253">
        <ele>114</ele>
        <time>2022-06-12T12:42:09Z</time>
      </trkpt>
      <trkpt lat="48.25366" lon="-3.49252">
        <ele>114</ele>
        <time>2022-06-12T12:42:10Z</time>
      </trkpt>
      <trkpt lat="48.25365" lon="-3.4925">
        <ele>114</ele>
        <time>2022-06-12T12:42:11Z</time>
      </trkpt>
      <trkpt lat="48.25364" lon="-3.49249">
        <ele>114</ele>
        <time>2022-06-12T12:42:12Z</time>
      </trkpt>
      <trkpt lat="48.25364" lon="-3.49246">
        <ele>114</ele>
        <time>2022-06-12T12:42:13Z</time>
      </trkpt>
      <trkpt lat="48.25363" lon="-3.49244">
        <ele>114</ele>
        <time>2022-06-12T12:42:14Z</time>
      </trkpt>
      <trkpt lat="48.25363" lon="-3.49242">
        <ele>114</ele>
        <time>2022-06-12T12:42:16Z</time>
      </trkpt>
      <trkpt lat="48.25363" lon="-3.49241">
        <ele>114</ele>
        <time>2022-06-12T12:42:17Z</time>
      </trkpt>
      <trkpt lat="48.25362" lon="-3.49238">
        <ele>114</ele>
        <time>2022-06-12T12:42:18Z</time>
      </trkpt>
      <trkpt lat="48.25362" lon="-3.49237">
        <ele>114.1</ele>
        <time>2022-06-12T12:42:19Z</time>
      </trkpt>
      <trkpt lat="48.25361" lon="-3.49236">
        <ele>114.1</ele>
        <time>2022-06-12T12:42:20Z</time>
      </trkpt>
      <trkpt lat="48.25361" lon="-3.49234">
        <ele>114.1</ele>
        <time>2022-06-12T12:42:22Z</time>
      </trkpt>
      <trkpt lat="48.25361" lon="-3.49232">
        <ele>114.1</ele>
        <time>2022-06-12T12:42:23Z</time>
      </trkpt>
      <trkpt lat="48.2536" lon="-3.4923">
        <ele>114.1</ele>
        <time>2022-06-12T12:42:24Z</time>
      </trkpt>
      <trkpt lat="48.2536" lon="-3.49229">
        <ele>114.1</ele>
        <time>2022-06-12T12:42:25Z</time>
      </trkpt>
      <trkpt lat="48.2536" lon="-3.49227">
        <ele>114.1</ele>
        <time>2022-06-12T12:42:26Z</time>
      </trkpt>
      <trkpt lat="48.2536" lon="-3.49225">
        <ele>114.1</ele>
        <time>2022-06-12T12:42:27Z</time>
      </trkpt>
      <trkpt lat="48.25359" lon="-3.49222">
        <ele>114.1</ele>
        <time>2022-06-12T12:42:28Z</time>
      </trkpt>
      <trkpt lat="48.25359" lon="-3.49221">
        <ele>114.1</ele>
        <time>2022-06-12T12:42:29Z</time>
      </trkpt>
      <trkpt lat="48.25359" lon="-3.4922">
        <ele>114.1</ele>
        <time>2022-06-12T12:42:30Z</time>
      </trkpt>
      <trkpt lat="48.25358" lon="-3.49219">
        <ele>114.1</ele>
        <time>2022-06-12T12:42:31Z</time>
      </trkpt>
      <trkpt lat="48.25358" lon="-3.49217">
        <ele>114.2</ele>
        <time>2022-06-12T12:42:32Z</time>
      </trkpt>
      <trkpt lat="48.25358" lon="-3.49215">
        <ele>114.2</ele>
        <time>2022-06-12T12:42:34Z</time>
      </trkpt>
      <trkpt lat="48.25358" lon="-3.49213">
        <ele>114.2</ele>
        <time>2022-06-12T12:42:35Z</time>
      </trkpt>
      <trkpt lat="48.25357" lon="-3.49209">
        <ele>114.2</ele>
        <time>2022-06-12T12:42:36Z</time>
      </trkpt>
      <trkpt lat="48.25357" lon="-3.49208">
        <ele>114.2</ele>
        <time>2022-06-12T12:42:37Z</time>
      </trkpt>
      <trkpt lat="48.25357" lon="-3.49206">
        <ele>114.2</ele>
        <time>2022-06-12T12:42:38Z</time>
      </trkpt>
      <trkpt lat="48.25356" lon="-3.49204">
        <ele>114.2</ele>
        <time>2022-06-12T12:42:39Z</time>
      </trkpt>
      <trkpt lat="48.25356" lon="-3.49203">
        <ele>114.2</ele>
        <time>2022-06-12T12:42:40Z</time>
      </trkpt>
      <trkpt lat="48.25356" lon="-3.49201">
        <ele>114.2</ele>
        <time>2022-06-12T12:42:41Z</time>
      </trkpt>
      <trkpt lat="48.25356" lon="-3.492">
        <ele>114.2</ele>
        <time>2022-06-12T12:42:42Z</time>
      </trkpt>
      <trkpt lat="48.25355" lon="-3.49197">
        <ele>114.2</ele>
        <time>2022-06-12T12:42:43Z</time>
      </trkpt>
      <trkpt lat="48.25355" lon="-3.49195">
        <ele>114.2</ele>
        <time>2022-06-12T12:42:44Z</time>
      </trkpt>
      <trkpt lat="48.25355" lon="-3.49193">
        <ele>114.2</ele>
        <time>2022-06-12T12:42:45Z</time>
      </trkpt>
      <trkpt lat="48.25355" lon="-3.49191">
        <ele>114.2</ele>
        <time>2022-06-12T12:42:47Z</time>
      </trkpt>
      <trkpt lat="48.25354" lon="-3.49189">
        <ele>114.2</ele>
        <time>2022-06-12T12:42:48Z</time>
      </trkpt>
      <trkpt lat="48.25354" lon="-3.49186">
        <ele>114.2</ele>
        <time>2022-06-12T12:42:49Z</time>
      </trkpt>
      <trkpt lat="48.25354" lon="-3.49183">
        <ele>114.1</ele>
        <time>2022-06-12T12:42:50Z</time>
      </trkpt>
      <trkpt lat="48.25353" lon="-3.49182">
        <ele>114.1</ele>
        <time>2022-06-12T12:42:51Z</time>
      </trkpt>
      <trkpt lat="48.25353" lon="-3.4918">
        <ele>114.1</ele>
        <time>2022-06-12T12:42:52Z</time>
      </trkpt>
      <trkpt lat="48.25353" lon="-3.49177">
        <ele>114.1</ele>
        <time>2022-06-12T12:42:53Z</time>
      </trkpt>
      <trkpt lat="48.25353" lon="-3.49176">
        <ele>114.1</ele>
        <time>2022-06-12T12:42:54Z</time>
      </trkpt>
      <trkpt lat="48.25353" lon="-3.49174">
        <ele>114.2</ele>
        <time>2022-06-12T12:42:55Z</time>
      </trkpt>
      <trkpt lat="48.25352" lon="-3.49172">
        <ele>114.2</ele>
        <time>2022-06-12T12:42:56Z</time>
      </trkpt>
      <trkpt lat="48.25352" lon="-3.49169">
        <ele>114.2</ele>
        <time>2022-06-12T12:42:58Z</time>
      </trkpt>
      <trkpt lat="48.25351" lon="-3.49167">
        <ele>114.2</ele>
        <time>2022-06-12T12:42:59Z</time>
      </trkpt>
      <trkpt lat="48.25351" lon="-3.49166">
        <ele>114.2</ele>
        <time>2022-06-12T12:43:00Z</time>
      </trkpt>
      <trkpt lat="48.25351" lon="-3.49164">
        <ele>114.2</ele>
        <time>2022-06-12T12:43:01Z</time>
      </trkpt>
      <trkpt lat="48.25351" lon="-3.49163">
        <ele>114.2</ele>
        <time>2022-06-12T12:43:02Z</time>
      </trkpt>
      <trkpt lat="48.2535" lon="-3.49159">
        <ele>114.2</ele>
        <time>2022-06-12T12:43:03Z</time>
      </trkpt>
      <trkpt lat="48.2535" lon="-3.49156">
        <ele>114.2</ele>
        <time>2022-06-12T12:43:04Z</time>
      </trkpt>
      <trkpt lat="48.2535" lon="-3.49155">
        <ele>114.2</ele>
        <time>2022-06-12T12:43:06Z</time>
      </trkpt>
      <trkpt lat="48.2535" lon="-3.49154">
        <ele>114.2</ele>
        <time>2022-06-12T12:43:07Z</time>
      </trkpt>
      <trkpt lat="48.25349" lon="-3.4915">
        <ele>114.2</ele>
        <time>2022-06-12T12:43:09Z</time>
      </trkpt>
      <trkpt lat="48.25349" lon="-3.49149">
        <ele>114.2</ele>
        <time>2022-06-12T12:43:10Z</time>
      </trkpt>
      <trkpt lat="48.25349" lon="-3.49145">
        <ele>114.2</ele>
        <time>2022-06-12T12:43:11Z</time>
      </trkpt>
      <trkpt lat="48.25348" lon="-3.49144">
        <ele>114.2</ele>
        <time>2022-06-12T12:43:12Z</time>
      </trkpt>
      <trkpt lat="48.25348" lon="-3.49142">
        <ele>114.2</ele>
        <time>2022-06-12T12:43:13Z</time>
      </trkpt>
      <trkpt lat="48.25348" lon="-3.4914">
        <ele>114.2</ele>
        <time>2022-06-12T12:43:14Z</time>
      </trkpt>
      <trkpt lat="48.25348" lon="-3.49138">
        <ele>114.3</ele>
        <time>2022-06-12T12:43:16Z</time>
      </trkpt>
      <trkpt lat="48.25347" lon="-3.49136">
        <ele>114.3</ele>
        <time>2022-06-12T12:43:17Z</time>
      </trkpt>
      <trkpt lat="48.25347" lon="-3.49132">
        <ele>114.3</ele>
        <time>2022-06-12T12:43:19Z</time>
      </trkpt>
      <trkpt lat="48.25346" lon="-3.49129">
        <ele>114.3</ele>
        <time>2022-06-12T12:43:20Z</time>
      </trkpt>
      <trkpt lat="48.25346" lon="-3.49128">
        <ele>114.3</ele>
        <time>2022-06-12T12:43:21Z</time>
      </trkpt>
      <trkpt lat="48.25346" lon="-3.49127">
        <ele>114.3</ele>
        <time>2022-06-12T12:43:22Z</time>
      </trkpt>
      <trkpt lat="48.25346" lon="-3.49125">
        <ele>114.3</ele>
        <time>2022-06-12T12:43:23Z</time>
      </trkpt>
      <trkpt lat="48.25345" lon="-3.49122">
        <ele>114.3</ele>
        <time>2022-06-12T12:43:24Z</time>
      </trkpt>
      <trkpt lat="48.25345" lon="-3.49121">
        <ele>114.3</ele>
        <time>2022-06-12T12:43:25Z</time>
      </trkpt>
      <trkpt lat="48.25345" lon="-3.49119">
        <ele>114.4</ele>
        <time>2022-06-12T12:43:26Z</time>
      </trkpt>
      <trkpt lat="48.25345" lon="-3.49117">
        <ele>114.4</ele>
        <time>2022-06-12T12:43:27Z</time>
      </trkpt>
      <trkpt lat="48.25345" lon="-3.49114">
        <ele>114.4</ele>
        <time>2022-06-12T12:43:28Z</time>
      </trkpt>
      <trkpt lat="48.25345" lon="-3.49112">
        <ele>114.4</ele>
        <time>2022-06-12T12:43:30Z</time>
      </trkpt>
      <trkpt lat="48.25345" lon="-3.4911">
        <ele>114.4</ele>
        <time>2022-06-12T12:43:31Z</time>
      </trkpt>
      <trkpt lat="48.25345" lon="-3.49108">
        <ele>114.4</ele>
        <time>2022-06-12T12:43:32Z</time>
      </trkpt>
      <trkpt lat="48.25345" lon="-3.49105">
        <ele>114.4</ele>
        <time>2022-06-12T12:43:34Z</time>
      </trkpt>
      <trkpt lat="48.25345" lon="-3.49102">
        <ele>114.4</ele>
        <time>2022-06-12T12:43:35Z</time>
      </trkpt>
      <trkpt lat="48.25344" lon="-3.49101">
        <ele>114.4</ele>
        <time>2022-06-12T12:43:36Z</time>
      </trkpt>
      <trkpt lat="48.25344" lon="-3.491">
        <ele>114.4</ele>
        <time>2022-06-12T12:43:37Z</time>
      </trkpt>
      <trkpt lat="48.25344" lon="-3.49097">
        <ele>114.5</ele>
        <time>2022-06-12T12:43:38Z</time>
      </trkpt>
      <trkpt lat="48.25344" lon="-3.49093">
        <ele>114.5</ele>
        <time>2022-06-12T12:43:40Z</time>
      </trkpt>
      <trkpt lat="48.25344" lon="-3.4909">
        <ele>114.5</ele>
        <time>2022-06-12T12:43:41Z</time>
      </trkpt>
      <trkpt lat="48.25344" lon="-3.49089">
        <ele>114.5</ele>
        <time>2022-06-12T12:43:42Z</time>
      </trkpt>
      <trkpt lat="48.25344" lon="-3.49087">
        <ele>114.5</ele>
        <time>2022-06-12T12:43:43Z</time>
      </trkpt>
      <trkpt lat="48.25344" lon="-3.49084">
        <ele>114.5</ele>
        <time>2022-06-12T12:43:44Z</time>
      </trkpt>
      <trkpt lat="48.25344" lon="-3.49083">
        <ele>114.5</ele>
        <time>2022-06-12T12:43:45Z</time>
      </trkpt>
      <trkpt lat="48.25344" lon="-3.49081">
        <ele>114.5</ele>
        <time>2022-06-12T12:43:46Z</time>
      </trkpt>
      <trkpt lat="48.25343" lon="-3.4908">
        <ele>114.5</ele>
        <time>2022-06-12T12:43:47Z</time>
      </trkpt>
      <trkpt lat="48.25343" lon="-3.49076">
        <ele>114.5</ele>
        <time>2022-06-12T12:43:49Z</time>
      </trkpt>
      <trkpt lat="48.25343" lon="-3.49075">
        <ele>114.5</ele>
        <time>2022-06-12T12:43:50Z</time>
      </trkpt>
      <trkpt lat="48.25343" lon="-3.49073">
        <ele>114.5</ele>
        <time>2022-06-12T12:43:51Z</time>
      </trkpt>
      <trkpt lat="48.25342" lon="-3.49071">
        <ele>114.6</ele>
        <time>2022-06-12T12:43:52Z</time>
      </trkpt>
      <trkpt lat="48.25342" lon="-3.49069">
        <ele>114.6</ele>
        <time>2022-06-12T12:43:53Z</time>
      </trkpt>
      <trkpt lat="48.25342" lon="-3.49066">
        <ele>114.6</ele>
        <time>2022-06-12T12:43:54Z</time>
      </trkpt>
      <trkpt lat="48.25342" lon="-3.49064">
        <ele>114.6</ele>
        <time>2022-06-12T12:43:55Z</time>
      </trkpt>
      <trkpt lat="48.25342" lon="-3.49062">
        <ele>114.6</ele>
        <time>2022-06-12T12:43:56Z</time>
      </trkpt>
      <trkpt lat="48.25341" lon="-3.49061">
        <ele>114.6</ele>
        <time>2022-06-12T12:43:57Z</time>
      </trkpt>
      <trkpt lat="48.25341" lon="-3.49058">
        <ele>114.6</ele>
        <time>2022-06-12T12:43:59Z</time>
      </trkpt>
      <trkpt lat="48.25341" lon="-3.49056">
        <ele>114.6</ele>
        <time>2022-06-12T12:44:00Z</time>
      </trkpt>
      <trkpt lat="48.2534" lon="-3.49053">
        <ele>114.6</ele>
        <time>2022-06-12T12:44:01Z</time>
      </trkpt>
      <trkpt lat="48.2534" lon="-3.49052">
        <ele>114.6</ele>
        <time>2022-06-12T12:44:02Z</time>
      </trkpt>
      <trkpt lat="48.2534" lon="-3.49051">
        <ele>114.7</ele>
        <time>2022-06-12T12:44:03Z</time>
      </trkpt>
      <trkpt lat="48.2534" lon="-3.49047">
        <ele>114.7</ele>
        <time>2022-06-12T12:44:04Z</time>
      </trkpt>
      <trkpt lat="48.2534" lon="-3.49046">
        <ele>114.7</ele>
        <time>2022-06-12T12:44:05Z</time>
      </trkpt>
      <trkpt lat="48.2534" lon="-3.49042">
        <ele>114.7</ele>
        <time>2022-06-12T12:44:06Z</time>
      </trkpt>
      <trkpt lat="48.2534" lon="-3.4904">
        <ele>114.7</ele>
        <time>2022-06-12T12:44:08Z</time>
      </trkpt>
      <trkpt lat="48.2534" lon="-3.49038">
        <ele>114.7</ele>
        <time>2022-06-12T12:44:09Z</time>
      </trkpt>
      <trkpt lat="48.2534" lon="-3.49036">
        <ele>114.7</ele>
        <time>2022-06-12T12:44:10Z</time>
      </trkpt>
      <trkpt lat="48.2534" lon="-3.49035">
        <ele>114.8</ele>
        <time>2022-06-12T12:44:11Z</time>
      </trkpt>
      <trkpt lat="48.2534" lon="-3.49034">
        <ele>114.8</ele>
        <time>2022-06-12T12:44:12Z</time>
      </trkpt>
      <trkpt lat="48.2534" lon="-3.49032">
        <ele>114.8</ele>
        <time>2022-06-12T12:44:13Z</time>
      </trkpt>
      <trkpt lat="48.25339" lon="-3.4903">
        <ele>114.8</ele>
        <time>2022-06-12T12:44:14Z</time>
      </trkpt>
      <trkpt lat="48.25339" lon="-3.49029">
        <ele>114.8</ele>
        <time>2022-06-12T12:44:15Z</time>
      </trkpt>
      <trkpt lat="48.2534" lon="-3.49028">
        <ele>114.8</ele>
        <time>2022-06-12T12:44:16Z</time>
      </trkpt>
      <trkpt lat="48.2534" lon="-3.49024">
        <ele>114.8</ele>
        <time>2022-06-12T12:44:17Z</time>
      </trkpt>
      <trkpt lat="48.25339" lon="-3.49023">
        <ele>114.9</ele>
        <time>2022-06-12T12:44:18Z</time>
      </trkpt>
      <trkpt lat="48.25339" lon="-3.49021">
        <ele>114.9</ele>
        <time>2022-06-12T12:44:19Z</time>
      </trkpt>
      <trkpt lat="48.25339" lon="-3.49019">
        <ele>114.9</ele>
        <time>2022-06-12T12:44:21Z</time>
      </trkpt>
      <trkpt lat="48.25339" lon="-3.49017">
        <ele>114.9</ele>
        <time>2022-06-12T12:44:22Z</time>
      </trkpt>
      <trkpt lat="48.25339" lon="-3.49015">
        <ele>114.9</ele>
        <time>2022-06-12T12:44:23Z</time>
      </trkpt>
      <trkpt lat="48.25339" lon="-3.49013">
        <ele>115</ele>
        <time>2022-06-12T12:44:24Z</time>
      </trkpt>
      <trkpt lat="48.25339" lon="-3.49011">
        <ele>115</ele>
        <time>2022-06-12T12:44:25Z</time>
      </trkpt>
      <trkpt lat="48.25339" lon="-3.49008">
        <ele>115</ele>
        <time>2022-06-12T12:44:26Z</time>
      </trkpt>
      <trkpt lat="48.25339" lon="-3.49007">
        <ele>115.1</ele>
        <time>2022-06-12T12:44:27Z</time>
      </trkpt>
      <trkpt lat="48.25339" lon="-3.49006">
        <ele>115.1</ele>
        <time>2022-06-12T12:44:28Z</time>
      </trkpt>
      <trkpt lat="48.25339" lon="-3.49004">
        <ele>115.1</ele>
        <time>2022-06-12T12:44:29Z</time>
      </trkpt>
      <trkpt lat="48.25339" lon="-3.49002">
        <ele>115.1</ele>
        <time>2022-06-12T12:44:30Z</time>
      </trkpt>
      <trkpt lat="48.25339" lon="-3.48998">
        <ele>115.2</ele>
        <time>2022-06-12T12:44:31Z</time>
      </trkpt>
      <trkpt lat="48.25339" lon="-3.48997">
        <ele>115.2</ele>
        <time>2022-06-12T12:44:33Z</time>
      </trkpt>
      <trkpt lat="48.25339" lon="-3.48995">
        <ele>115.2</ele>
        <time>2022-06-12T12:44:34Z</time>
      </trkpt>
      <trkpt lat="48.25339" lon="-3.48994">
        <ele>115.2</ele>
        <time>2022-06-12T12:44:35Z</time>
      </trkpt>
      <trkpt lat="48.25338" lon="-3.48992">
        <ele>115.3</ele>
        <time>2022-06-12T12:44:36Z</time>
      </trkpt>
      <trkpt lat="48.25338" lon="-3.4899">
        <ele>115.3</ele>
        <time>2022-06-12T12:44:37Z</time>
      </trkpt>
      <trkpt lat="48.25338" lon="-3.48987">
        <ele>115.4</ele>
        <time>2022-06-12T12:44:38Z</time>
      </trkpt>
      <trkpt lat="48.25338" lon="-3.48985">
        <ele>115.4</ele>
        <time>2022-06-12T12:44:39Z</time>
      </trkpt>
      <trkpt lat="48.25338" lon="-3.48984">
        <ele>115.4</ele>
        <time>2022-06-12T12:44:40Z</time>
      </trkpt>
      <trkpt lat="48.25338" lon="-3.48982">
        <ele>115.4</ele>
        <time>2022-06-12T12:44:41Z</time>
      </trkpt>
      <trkpt lat="48.25338" lon="-3.4898">
        <ele>115.5</ele>
        <time>2022-06-12T12:44:43Z</time>
      </trkpt>
      <trkpt lat="48.25337" lon="-3.48979">
        <ele>115.5</ele>
        <time>2022-06-12T12:44:44Z</time>
      </trkpt>
      <trkpt lat="48.25337" lon="-3.48976">
        <ele>115.5</ele>
        <time>2022-06-12T12:44:45Z</time>
      </trkpt>
      <trkpt lat="48.25337" lon="-3.48975">
        <ele>115.6</ele>
        <time>2022-06-12T12:44:46Z</time>
      </trkpt>
      <trkpt lat="48.25336" lon="-3.48972">
        <ele>115.6</ele>
        <time>2022-06-12T12:44:47Z</time>
      </trkpt>
      <trkpt lat="48.25336" lon="-3.4897">
        <ele>115.6</ele>
        <time>2022-06-12T12:44:48Z</time>
      </trkpt>
      <trkpt lat="48.25336" lon="-3.48969">
        <ele>115.6</ele>
        <time>2022-06-12T12:44:49Z</time>
      </trkpt>
      <trkpt lat="48.25335" lon="-3.48967">
        <ele>115.7</ele>
        <time>2022-06-12T12:44:50Z</time>
      </trkpt>
      <trkpt lat="48.25335" lon="-3.48965">
        <ele>115.7</ele>
        <time>2022-06-12T12:44:51Z</time>
      </trkpt>
      <trkpt lat="48.25334" lon="-3.48962">
        <ele>115.8</ele>
        <time>2022-06-12T12:44:53Z</time>
      </trkpt>
      <trkpt lat="48.25334" lon="-3.4896">
        <ele>115.8</ele>
        <time>2022-06-12T12:44:54Z</time>
      </trkpt>
      <trkpt lat="48.25333" lon="-3.48959">
        <ele>115.8</ele>
        <time>2022-06-12T12:44:55Z</time>
      </trkpt>
      <trkpt lat="48.25333" lon="-3.48958">
        <ele>115.8</ele>
        <time>2022-06-12T12:44:56Z</time>
      </trkpt>
      <trkpt lat="48.25333" lon="-3.48956">
        <ele>115.8</ele>
        <time>2022-06-12T12:44:57Z</time>
      </trkpt>
      <trkpt lat="48.25333" lon="-3.48955">
        <ele>115.9</ele>
        <time>2022-06-12T12:44:58Z</time>
      </trkpt>
      <trkpt lat="48.25332" lon="-3.48952">
        <ele>115.9</ele>
        <time>2022-06-12T12:44:59Z</time>
      </trkpt>
      <trkpt lat="48.25332" lon="-3.48951">
        <ele>115.9</ele>
        <time>2022-06-12T12:45:00Z</time>
      </trkpt>
      <trkpt lat="48.25332" lon="-3.4895">
        <ele>115.9</ele>
        <time>2022-06-12T12:45:01Z</time>
      </trkpt>
      <trkpt lat="48.25331" lon="-3.48947">
        <ele>116</ele>
        <time>2022-06-12T12:45:03Z</time>
      </trkpt>
      <trkpt lat="48.2533" lon="-3.48945">
        <ele>116</ele>
        <time>2022-06-12T12:45:04Z</time>
      </trkpt>
      <trkpt lat="48.2533" lon="-3.48944">
        <ele>116</ele>
        <time>2022-06-12T12:45:05Z</time>
      </trkpt>
      <trkpt lat="48.2533" lon="-3.48943">
        <ele>116</ele>
        <time>2022-06-12T12:45:06Z</time>
      </trkpt>
      <trkpt lat="48.25329" lon="-3.48941">
        <ele>116</ele>
        <time>2022-06-12T12:45:07Z</time>
      </trkpt>
      <trkpt lat="48.25329" lon="-3.48939">
        <ele>116</ele>
        <time>2022-06-12T12:45:08Z</time>
      </trkpt>
      <trkpt lat="48.25329" lon="-3.48938">
        <ele>116.1</ele>
        <time>2022-06-12T12:45:09Z</time>
      </trkpt>
      <trkpt lat="48.25328" lon="-3.48935">
        <ele>116.1</ele>
        <time>2022-06-12T12:45:10Z</time>
      </trkpt>
      <trkpt lat="48.25328" lon="-3.48932">
        <ele>116.1</ele>
        <time>2022-06-12T12:45:11Z</time>
      </trkpt>
      <trkpt lat="48.25328" lon="-3.4893">
        <ele>116.1</ele>
        <time>2022-06-12T12:45:12Z</time>
      </trkpt>
      <trkpt lat="48.25327" lon="-3.48929">
        <ele>116.1</ele>
        <time>2022-06-12T12:45:13Z</time>
      </trkpt>
      <trkpt lat="48.25327" lon="-3.48925">
        <ele>116.1</ele>
        <time>2022-06-12T12:45:15Z</time>
      </trkpt>
      <trkpt lat="48.25327" lon="-3.48924">
        <ele>116.1</ele>
        <time>2022-06-12T12:45:16Z</time>
      </trkpt>
      <trkpt lat="48.25327" lon="-3.48922">
        <ele>116.1</ele>
        <time>2022-06-12T12:45:17Z</time>
      </trkpt>
      <trkpt lat="48.25326" lon="-3.48921">
        <ele>116.1</ele>
        <time>2022-06-12T12:45:18Z</time>
      </trkpt>
      <trkpt lat="48.25326" lon="-3.48919">
        <ele>116.1</ele>
        <time>2022-06-12T12:45:19Z</time>
      </trkpt>
      <trkpt lat="48.25326" lon="-3.48917">
        <ele>116.1</ele>
        <time>2022-06-12T12:45:20Z</time>
      </trkpt>
      <trkpt lat="48.25326" lon="-3.48917">
        <ele>116.1</ele>
        <time>2022-06-12T12:45:21Z</time>
      </trkpt>
      <trkpt lat="48.25326" lon="-3.48916">
        <ele>116.1</ele>
        <time>2022-06-12T12:45:22Z</time>
      </trkpt>
      <trkpt lat="48.25326" lon="-3.48915">
        <ele>116.2</ele>
        <time>2022-06-12T12:45:23Z</time>
      </trkpt>
      <trkpt lat="48.25326" lon="-3.48912">
        <ele>116.2</ele>
        <time>2022-06-12T12:45:25Z</time>
      </trkpt>
      <trkpt lat="48.25326" lon="-3.4891">
        <ele>116.2</ele>
        <time>2022-06-12T12:45:26Z</time>
      </trkpt>
      <trkpt lat="48.25326" lon="-3.48909">
        <ele>116.2</ele>
        <time>2022-06-12T12:45:27Z</time>
      </trkpt>
      <trkpt lat="48.25326" lon="-3.48908">
        <ele>116.2</ele>
        <time>2022-06-12T12:45:28Z</time>
      </trkpt>
      <trkpt lat="48.25326" lon="-3.48907">
        <ele>116.2</ele>
        <time>2022-06-12T12:45:29Z</time>
      </trkpt>
      <trkpt lat="48.25326" lon="-3.48907">
        <ele>116.2</ele>
        <time>2022-06-12T12:45:31Z</time>
      </trkpt>
      <trkpt lat="48.25327" lon="-3.48909">
        <ele>116.2</ele>
        <time>2022-06-12T12:45:32Z</time>
      </trkpt>
      <trkpt lat="48.25327" lon="-3.48908">
        <ele>116.2</ele>
        <time>2022-06-12T12:45:33Z</time>
      </trkpt>
      <trkpt lat="48.25327" lon="-3.48907">
        <ele>116.2</ele>
        <time>2022-06-12T12:45:34Z</time>
      </trkpt>
      <trkpt lat="48.25327" lon="-3.48905">
        <ele>116.2</ele>
        <time>2022-06-12T12:45:35Z</time>
      </trkpt>
      <trkpt lat="48.25327" lon="-3.48903">
        <ele>116.2</ele>
        <time>2022-06-12T12:45:36Z</time>
      </trkpt>
      <trkpt lat="48.25326" lon="-3.48902">
        <ele>116.2</ele>
        <time>2022-06-12T12:45:38Z</time>
      </trkpt>
      <trkpt lat="48.25326" lon="-3.48901">
        <ele>116.2</ele>
        <time>2022-06-12T12:45:39Z</time>
      </trkpt>
      <trkpt lat="48.25326" lon="-3.489">
        <ele>116.2</ele>
        <time>2022-06-12T12:45:40Z</time>
      </trkpt>
      <trkpt lat="48.25326" lon="-3.48898">
        <ele>116.2</ele>
        <time>2022-06-12T12:45:41Z</time>
      </trkpt>
      <trkpt lat="48.25325" lon="-3.48896">
        <ele>116.2</ele>
        <time>2022-06-12T12:45:42Z</time>
      </trkpt>
      <trkpt lat="48.25325" lon="-3.48895">
        <ele>116.2</ele>
        <time>2022-06-12T12:45:43Z</time>
      </trkpt>
      <trkpt lat="48.25324" lon="-3.48893">
        <ele>116.2</ele>
        <time>2022-06-12T12:45:45Z</time>
      </trkpt>
      <trkpt lat="48.25324" lon="-3.48892">
        <ele>116.2</ele>
        <time>2022-06-12T12:45:46Z</time>
      </trkpt>
      <trkpt lat="48.25324" lon="-3.48889">
        <ele>116.2</ele>
        <time>2022-06-12T12:45:47Z</time>
      </trkpt>
      <trkpt lat="48.25323" lon="-3.48888">
        <ele>116.2</ele>
        <time>2022-06-12T12:45:48Z</time>
      </trkpt>
      <trkpt lat="48.25323" lon="-3.48887">
        <ele>116.2</ele>
        <time>2022-06-12T12:45:49Z</time>
      </trkpt>
      <trkpt lat="48.25323" lon="-3.48885">
        <ele>116.2</ele>
        <time>2022-06-12T12:45:50Z</time>
      </trkpt>
      <trkpt lat="48.25323" lon="-3.48883">
        <ele>116.2</ele>
        <time>2022-06-12T12:45:51Z</time>
      </trkpt>
      <trkpt lat="48.25322" lon="-3.4888">
        <ele>116.2</ele>
        <time>2022-06-12T12:45:52Z</time>
      </trkpt>
      <trkpt lat="48.25322" lon="-3.48879">
        <ele>116.2</ele>
        <time>2022-06-12T12:45:53Z</time>
      </trkpt>
      <trkpt lat="48.25322" lon="-3.48878">
        <ele>116.2</ele>
        <time>2022-06-12T12:45:54Z</time>
      </trkpt>
      <trkpt lat="48.25322" lon="-3.48874">
        <ele>116.2</ele>
        <time>2022-06-12T12:45:55Z</time>
      </trkpt>
      <trkpt lat="48.25322" lon="-3.48873">
        <ele>116.2</ele>
        <time>2022-06-12T12:45:56Z</time>
      </trkpt>
      <trkpt lat="48.25322" lon="-3.48871">
        <ele>116.2</ele>
        <time>2022-06-12T12:45:57Z</time>
      </trkpt>
      <trkpt lat="48.25321" lon="-3.48868">
        <ele>116.2</ele>
        <time>2022-06-12T12:45:59Z</time>
      </trkpt>
      <trkpt lat="48.25321" lon="-3.48866">
        <ele>116.2</ele>
        <time>2022-06-12T12:46:00Z</time>
      </trkpt>
      <trkpt lat="48.25321" lon="-3.48862">
        <ele>116.2</ele>
        <time>2022-06-12T12:46:01Z</time>
      </trkpt>
      <trkpt lat="48.25321" lon="-3.4886">
        <ele>116.2</ele>
        <time>2022-06-12T12:46:02Z</time>
      </trkpt>
      <trkpt lat="48.25322" lon="-3.48857">
        <ele>116.2</ele>
        <time>2022-06-12T12:46:03Z</time>
      </trkpt>
      <trkpt lat="48.25322" lon="-3.48856">
        <ele>116.2</ele>
        <time>2022-06-12T12:46:04Z</time>
      </trkpt>
      <trkpt lat="48.25322" lon="-3.48855">
        <ele>116.2</ele>
        <time>2022-06-12T12:46:05Z</time>
      </trkpt>
      <trkpt lat="48.25322" lon="-3.48853">
        <ele>116.2</ele>
        <time>2022-06-12T12:46:06Z</time>
      </trkpt>
      <trkpt lat="48.25322" lon="-3.4885">
        <ele>116.2</ele>
        <time>2022-06-12T12:46:07Z</time>
      </trkpt>
      <trkpt lat="48.25322" lon="-3.48846">
        <ele>116.2</ele>
        <time>2022-06-12T12:46:08Z</time>
      </trkpt>
      <trkpt lat="48.25322" lon="-3.48844">
        <ele>116.2</ele>
        <time>2022-06-12T12:46:10Z</time>
      </trkpt>
      <trkpt lat="48.25321" lon="-3.48842">
        <ele>116.2</ele>
        <time>2022-06-12T12:46:11Z</time>
      </trkpt>
      <trkpt lat="48.25321" lon="-3.4884">
        <ele>116.2</ele>
        <time>2022-06-12T12:46:12Z</time>
      </trkpt>
      <trkpt lat="48.25321" lon="-3.48838">
        <ele>116.2</ele>
        <time>2022-06-12T12:46:13Z</time>
      </trkpt>
      <trkpt lat="48.25321" lon="-3.48837">
        <ele>116.2</ele>
        <time>2022-06-12T12:46:14Z</time>
      </trkpt>
      <trkpt lat="48.25321" lon="-3.48835">
        <ele>116.2</ele>
        <time>2022-06-12T12:46:15Z</time>
      </trkpt>
      <trkpt lat="48.25321" lon="-3.48833">
        <ele>116.2</ele>
        <time>2022-06-12T12:46:16Z</time>
      </trkpt>
      <trkpt lat="48.25321" lon="-3.4883">
        <ele>116.2</ele>
        <time>2022-06-12T12:46:17Z</time>
      </trkpt>
      <trkpt lat="48.25321" lon="-3.48829">
        <ele>116.2</ele>
        <time>2022-06-12T12:46:18Z</time>
      </trkpt>
      <trkpt lat="48.25321" lon="-3.48827">
        <ele>116.2</ele>
        <time>2022-06-12T12:46:20Z</time>
      </trkpt>
      <trkpt lat="48.25321" lon="-3.48825">
        <ele>116.2</ele>
        <time>2022-06-12T12:46:21Z</time>
      </trkpt>
      <trkpt lat="48.2532" lon="-3.48823">
        <ele>116.2</ele>
        <time>2022-06-12T12:46:22Z</time>
      </trkpt>
      <trkpt lat="48.2532" lon="-3.4882">
        <ele>116.2</ele>
        <time>2022-06-12T12:46:23Z</time>
      </trkpt>
      <trkpt lat="48.2532" lon="-3.48819">
        <ele>116.2</ele>
        <time>2022-06-12T12:46:24Z</time>
      </trkpt>
      <trkpt lat="48.2532" lon="-3.48817">
        <ele>116.2</ele>
        <time>2022-06-12T12:46:25Z</time>
      </trkpt>
      <trkpt lat="48.2532" lon="-3.48816">
        <ele>116.2</ele>
        <time>2022-06-12T12:46:26Z</time>
      </trkpt>
      <trkpt lat="48.25319" lon="-3.48814">
        <ele>116.2</ele>
        <time>2022-06-12T12:46:27Z</time>
      </trkpt>
      <trkpt lat="48.25319" lon="-3.48812">
        <ele>116.2</ele>
        <time>2022-06-12T12:46:29Z</time>
      </trkpt>
      <trkpt lat="48.25319" lon="-3.4881">
        <ele>116.2</ele>
        <time>2022-06-12T12:46:30Z</time>
      </trkpt>
      <trkpt lat="48.25318" lon="-3.48807">
        <ele>116.2</ele>
        <time>2022-06-12T12:46:32Z</time>
      </trkpt>
      <trkpt lat="48.25318" lon="-3.48805">
        <ele>116.2</ele>
        <time>2022-06-12T12:46:33Z</time>
      </trkpt>
      <trkpt lat="48.25317" lon="-3.48803">
        <ele>116.2</ele>
        <time>2022-06-12T12:46:34Z</time>
      </trkpt>
      <trkpt lat="48.25316" lon="-3.488">
        <ele>116.2</ele>
        <time>2022-06-12T12:46:35Z</time>
      </trkpt>
      <trkpt lat="48.25316" lon="-3.48799">
        <ele>116.2</ele>
        <time>2022-06-12T12:46:36Z</time>
      </trkpt>
      <trkpt lat="48.25315" lon="-3.48797">
        <ele>116.2</ele>
        <time>2022-06-12T12:46:37Z</time>
      </trkpt>
      <trkpt lat="48.25315" lon="-3.48796">
        <ele>116.2</ele>
        <time>2022-06-12T12:46:38Z</time>
      </trkpt>
      <trkpt lat="48.25314" lon="-3.48795">
        <ele>116.2</ele>
        <time>2022-06-12T12:46:39Z</time>
      </trkpt>
      <trkpt lat="48.25314" lon="-3.48794">
        <ele>116.2</ele>
        <time>2022-06-12T12:46:40Z</time>
      </trkpt>
      <trkpt lat="48.25313" lon="-3.48792">
        <ele>116.2</ele>
        <time>2022-06-12T12:46:41Z</time>
      </trkpt>
      <trkpt lat="48.25313" lon="-3.4879">
        <ele>116.2</ele>
        <time>2022-06-12T12:46:43Z</time>
      </trkpt>
      <trkpt lat="48.25313" lon="-3.48789">
        <ele>116.2</ele>
        <time>2022-06-12T12:46:44Z</time>
      </trkpt>
      <trkpt lat="48.25312" lon="-3.48788">
        <ele>116.2</ele>
        <time>2022-06-12T12:46:45Z</time>
      </trkpt>
      <trkpt lat="48.25312" lon="-3.48786">
        <ele>116.2</ele>
        <time>2022-06-12T12:46:46Z</time>
      </trkpt>
      <trkpt lat="48.25312" lon="-3.48785">
        <ele>116.2</ele>
        <time>2022-06-12T12:46:47Z</time>
      </trkpt>
      <trkpt lat="48.25312" lon="-3.48782">
        <ele>116.1</ele>
        <time>2022-06-12T12:46:48Z</time>
      </trkpt>
      <trkpt lat="48.25312" lon="-3.48781">
        <ele>116.1</ele>
        <time>2022-06-12T12:46:49Z</time>
      </trkpt>
      <trkpt lat="48.25312" lon="-3.48779">
        <ele>116.1</ele>
        <time>2022-06-12T12:46:50Z</time>
      </trkpt>
      <trkpt lat="48.25312" lon="-3.48778">
        <ele>116.1</ele>
        <time>2022-06-12T12:46:51Z</time>
      </trkpt>
      <trkpt lat="48.25312" lon="-3.48776">
        <ele>116.1</ele>
        <time>2022-06-12T12:46:52Z</time>
      </trkpt>
      <trkpt lat="48.25312" lon="-3.48774">
        <ele>116.1</ele>
        <time>2022-06-12T12:46:53Z</time>
      </trkpt>
      <trkpt lat="48.25313" lon="-3.48773">
        <ele>116.1</ele>
        <time>2022-06-12T12:46:54Z</time>
      </trkpt>
      <trkpt lat="48.25313" lon="-3.48771">
        <ele>116.1</ele>
        <time>2022-06-12T12:46:56Z</time>
      </trkpt>
      <trkpt lat="48.25313" lon="-3.48769">
        <ele>116.1</ele>
        <time>2022-06-12T12:46:57Z</time>
      </trkpt>
      <trkpt lat="48.25313" lon="-3.48767">
        <ele>116.1</ele>
        <time>2022-06-12T12:46:58Z</time>
      </trkpt>
      <trkpt lat="48.25313" lon="-3.48765">
        <ele>116.1</ele>
        <time>2022-06-12T12:46:59Z</time>
      </trkpt>
      <trkpt lat="48.25313" lon="-3.48762">
        <ele>116.1</ele>
        <time>2022-06-12T12:47:00Z</time>
      </trkpt>
      <trkpt lat="48.25313" lon="-3.48761">
        <ele>116.1</ele>
        <time>2022-06-12T12:47:01Z</time>
      </trkpt>
      <trkpt lat="48.25313" lon="-3.48759">
        <ele>116.1</ele>
        <time>2022-06-12T12:47:02Z</time>
      </trkpt>
      <trkpt lat="48.25312" lon="-3.48757">
        <ele>116</ele>
        <time>2022-06-12T12:47:03Z</time>
      </trkpt>
      <trkpt lat="48.25313" lon="-3.48755">
        <ele>116</ele>
        <time>2022-06-12T12:47:04Z</time>
      </trkpt>
      <trkpt lat="48.25313" lon="-3.48754">
        <ele>116</ele>
        <time>2022-06-12T12:47:05Z</time>
      </trkpt>
      <trkpt lat="48.25313" lon="-3.4875">
        <ele>116</ele>
        <time>2022-06-12T12:47:06Z</time>
      </trkpt>
      <trkpt lat="48.25314" lon="-3.48748">
        <ele>116</ele>
        <time>2022-06-12T12:47:07Z</time>
      </trkpt>
      <trkpt lat="48.25314" lon="-3.48745">
        <ele>116</ele>
        <time>2022-06-12T12:47:08Z</time>
      </trkpt>
      <trkpt lat="48.25315" lon="-3.48743">
        <ele>116</ele>
        <time>2022-06-12T12:47:09Z</time>
      </trkpt>
      <trkpt lat="48.25315" lon="-3.48742">
        <ele>116</ele>
        <time>2022-06-12T12:47:11Z</time>
      </trkpt>
      <trkpt lat="48.25316" lon="-3.4874">
        <ele>116</ele>
        <time>2022-06-12T12:47:12Z</time>
      </trkpt>
      <trkpt lat="48.25316" lon="-3.48738">
        <ele>116</ele>
        <time>2022-06-12T12:47:13Z</time>
      </trkpt>
      <trkpt lat="48.25316" lon="-3.48737">
        <ele>116</ele>
        <time>2022-06-12T12:47:14Z</time>
      </trkpt>
      <trkpt lat="48.25317" lon="-3.48736">
        <ele>116</ele>
        <time>2022-06-12T12:47:15Z</time>
      </trkpt>
      <trkpt lat="48.25317" lon="-3.48733">
        <ele>116</ele>
        <time>2022-06-12T12:47:16Z</time>
      </trkpt>
      <trkpt lat="48.25318" lon="-3.4873">
        <ele>116</ele>
        <time>2022-06-12T12:47:17Z</time>
      </trkpt>
      <trkpt lat="48.25318" lon="-3.48728">
        <ele>116</ele>
        <time>2022-06-12T12:47:18Z</time>
      </trkpt>
      <trkpt lat="48.25319" lon="-3.48727">
        <ele>116</ele>
        <time>2022-06-12T12:47:19Z</time>
      </trkpt>
      <trkpt lat="48.25319" lon="-3.48726">
        <ele>116</ele>
        <time>2022-06-12T12:47:20Z</time>
      </trkpt>
      <trkpt lat="48.25319" lon="-3.48724">
        <ele>116</ele>
        <time>2022-06-12T12:47:21Z</time>
      </trkpt>
      <trkpt lat="48.2532" lon="-3.48723">
        <ele>116</ele>
        <time>2022-06-12T12:47:22Z</time>
      </trkpt>
      <trkpt lat="48.2532" lon="-3.4872">
        <ele>116</ele>
        <time>2022-06-12T12:47:23Z</time>
      </trkpt>
      <trkpt lat="48.25321" lon="-3.48717">
        <ele>116</ele>
        <time>2022-06-12T12:47:25Z</time>
      </trkpt>
      <trkpt lat="48.25321" lon="-3.48716">
        <ele>116</ele>
        <time>2022-06-12T12:47:26Z</time>
      </trkpt>
      <trkpt lat="48.25322" lon="-3.48715">
        <ele>116</ele>
        <time>2022-06-12T12:47:27Z</time>
      </trkpt>
      <trkpt lat="48.25323" lon="-3.48712">
        <ele>116</ele>
        <time>2022-06-12T12:47:28Z</time>
      </trkpt>
      <trkpt lat="48.25323" lon="-3.48711">
        <ele>116</ele>
        <time>2022-06-12T12:47:29Z</time>
      </trkpt>
      <trkpt lat="48.25324" lon="-3.4871">
        <ele>116</ele>
        <time>2022-06-12T12:47:30Z</time>
      </trkpt>
      <trkpt lat="48.25324" lon="-3.48708">
        <ele>116</ele>
        <time>2022-06-12T12:47:31Z</time>
      </trkpt>
      <trkpt lat="48.25325" lon="-3.48707">
        <ele>116</ele>
        <time>2022-06-12T12:47:32Z</time>
      </trkpt>
      <trkpt lat="48.25326" lon="-3.48705">
        <ele>116</ele>
        <time>2022-06-12T12:47:33Z</time>
      </trkpt>
      <trkpt lat="48.25327" lon="-3.48704">
        <ele>116</ele>
        <time>2022-06-12T12:47:34Z</time>
      </trkpt>
      <trkpt lat="48.25328" lon="-3.48703">
        <ele>116</ele>
        <time>2022-06-12T12:47:35Z</time>
      </trkpt>
      <trkpt lat="48.25328" lon="-3.48702">
        <ele>116</ele>
        <time>2022-06-12T12:47:36Z</time>
      </trkpt>
      <trkpt lat="48.25329" lon="-3.48701">
        <ele>116</ele>
        <time>2022-06-12T12:47:37Z</time>
      </trkpt>
      <trkpt lat="48.2533" lon="-3.48699">
        <ele>116</ele>
        <time>2022-06-12T12:47:39Z</time>
      </trkpt>
      <trkpt lat="48.25331" lon="-3.48698">
        <ele>116</ele>
        <time>2022-06-12T12:47:40Z</time>
      </trkpt>
      <trkpt lat="48.25332" lon="-3.48697">
        <ele>116</ele>
        <time>2022-06-12T12:47:41Z</time>
      </trkpt>
      <trkpt lat="48.25334" lon="-3.48696">
        <ele>116</ele>
        <time>2022-06-12T12:47:42Z</time>
      </trkpt>
      <trkpt lat="48.25336" lon="-3.48694">
        <ele>116</ele>
        <time>2022-06-12T12:47:43Z</time>
      </trkpt>
      <trkpt lat="48.25337" lon="-3.48693">
        <ele>116</ele>
        <time>2022-06-12T12:47:45Z</time>
      </trkpt>
      <trkpt lat="48.25339" lon="-3.48691">
        <ele>116</ele>
        <time>2022-06-12T12:47:46Z</time>
      </trkpt>
      <trkpt lat="48.2534" lon="-3.4869">
        <ele>116</ele>
        <time>2022-06-12T12:47:47Z</time>
      </trkpt>
      <trkpt lat="48.25341" lon="-3.48689">
        <ele>116</ele>
        <time>2022-06-12T12:47:48Z</time>
      </trkpt>
      <trkpt lat="48.25341" lon="-3.48688">
        <ele>116</ele>
        <time>2022-06-12T12:47:49Z</time>
      </trkpt>
      <trkpt lat="48.25342" lon="-3.48687">
        <ele>116</ele>
        <time>2022-06-12T12:47:50Z</time>
      </trkpt>
      <trkpt lat="48.25343" lon="-3.48686">
        <ele>116</ele>
        <time>2022-06-12T12:47:51Z</time>
      </trkpt>
      <trkpt lat="48.25345" lon="-3.48685">
        <ele>116</ele>
        <time>2022-06-12T12:47:52Z</time>
      </trkpt>
      <trkpt lat="48.25346" lon="-3.48683">
        <ele>116</ele>
        <time>2022-06-12T12:47:53Z</time>
      </trkpt>
      <trkpt lat="48.25347" lon="-3.48682">
        <ele>116</ele>
        <time>2022-06-12T12:47:54Z</time>
      </trkpt>
      <trkpt lat="48.25348" lon="-3.48681">
        <ele>116</ele>
        <time>2022-06-12T12:47:55Z</time>
      </trkpt>
      <trkpt lat="48.25349" lon="-3.48679">
        <ele>116.1</ele>
        <time>2022-06-12T12:47:56Z</time>
      </trkpt>
      <trkpt lat="48.2535" lon="-3.48678">
        <ele>116.1</ele>
        <time>2022-06-12T12:47:57Z</time>
      </trkpt>
      <trkpt lat="48.25351" lon="-3.48676">
        <ele>116.1</ele>
        <time>2022-06-12T12:47:58Z</time>
      </trkpt>
      <trkpt lat="48.25352" lon="-3.48674">
        <ele>116.1</ele>
        <time>2022-06-12T12:48:00Z</time>
      </trkpt>
      <trkpt lat="48.25352" lon="-3.48672">
        <ele>116.1</ele>
        <time>2022-06-12T12:48:01Z</time>
      </trkpt>
      <trkpt lat="48.25352" lon="-3.4867">
        <ele>116.1</ele>
        <time>2022-06-12T12:48:02Z</time>
      </trkpt>
      <trkpt lat="48.25351" lon="-3.48669">
        <ele>116.1</ele>
        <time>2022-06-12T12:48:03Z</time>
      </trkpt>
      <trkpt lat="48.25351" lon="-3.48668">
        <ele>116.1</ele>
        <time>2022-06-12T12:48:04Z</time>
      </trkpt>
      <trkpt lat="48.25351" lon="-3.48668">
        <ele>116.1</ele>
        <time>2022-06-12T12:48:05Z</time>
      </trkpt>
      <trkpt lat="48.25352" lon="-3.48667">
        <ele>116.1</ele>
        <time>2022-06-12T12:48:07Z</time>
      </trkpt>
      <trkpt lat="48.25352" lon="-3.48667">
        <ele>116.1</ele>
        <time>2022-06-12T12:48:08Z</time>
      </trkpt>
      <trkpt lat="48.25353" lon="-3.48666">
        <ele>116.2</ele>
        <time>2022-06-12T12:48:09Z</time>
      </trkpt>
      <trkpt lat="48.25354" lon="-3.48666">
        <ele>116.2</ele>
        <time>2022-06-12T12:48:10Z</time>
      </trkpt>
      <trkpt lat="48.25356" lon="-3.48664">
        <ele>116.2</ele>
        <time>2022-06-12T12:48:12Z</time>
      </trkpt>
      <trkpt lat="48.25357" lon="-3.48664">
        <ele>116.2</ele>
        <time>2022-06-12T12:48:13Z</time>
      </trkpt>
      <trkpt lat="48.25358" lon="-3.48663">
        <ele>116.2</ele>
        <time>2022-06-12T12:48:14Z</time>
      </trkpt>
      <trkpt lat="48.25358" lon="-3.48662">
        <ele>116.2</ele>
        <time>2022-06-12T12:48:15Z</time>
      </trkpt>
      <trkpt lat="48.25358" lon="-3.48661">
        <ele>116.2</ele>
        <time>2022-06-12T12:48:16Z</time>
      </trkpt>
      <trkpt lat="48.25357" lon="-3.4866">
        <ele>116.2</ele>
        <time>2022-06-12T12:48:17Z</time>
      </trkpt>
      <trkpt lat="48.25357" lon="-3.48659">
        <ele>116.2</ele>
        <time>2022-06-12T12:48:18Z</time>
      </trkpt>
      <trkpt lat="48.25358" lon="-3.48658">
        <ele>116.2</ele>
        <time>2022-06-12T12:48:19Z</time>
      </trkpt>
      <trkpt lat="48.25358" lon="-3.48656">
        <ele>116.2</ele>
        <time>2022-06-12T12:48:20Z</time>
      </trkpt>
      <trkpt lat="48.25358" lon="-3.48655">
        <ele>116.2</ele>
        <time>2022-06-12T12:48:21Z</time>
      </trkpt>
      <trkpt lat="48.25357" lon="-3.48654">
        <ele>116.2</ele>
        <time>2022-06-12T12:48:22Z</time>
      </trkpt>
      <trkpt lat="48.25357" lon="-3.48655">
        <ele>116.2</ele>
        <time>2022-06-12T12:48:24Z</time>
      </trkpt>
      <trkpt lat="48.25357" lon="-3.48655">
        <ele>116.2</ele>
        <time>2022-06-12T12:48:25Z</time>
      </trkpt>
      <trkpt lat="48.25356" lon="-3.48655">
        <ele>116.2</ele>
        <time>2022-06-12T12:48:26Z</time>
      </trkpt>
      <trkpt lat="48.25356" lon="-3.48655">
        <ele>116.2</ele>
        <time>2022-06-12T12:48:28Z</time>
      </trkpt>
      <trkpt lat="48.25356" lon="-3.48656">
        <ele>116.2</ele>
        <time>2022-06-12T12:48:29Z</time>
      </trkpt>
      <trkpt lat="48.25356" lon="-3.48659">
        <ele>116.2</ele>
        <time>2022-06-12T12:48:31Z</time>
      </trkpt>
      <trkpt lat="48.25356" lon="-3.48661">
        <ele>116.2</ele>
        <time>2022-06-12T12:48:32Z</time>
      </trkpt>
      <trkpt lat="48.25356" lon="-3.48662">
        <ele>116.2</ele>
        <time>2022-06-12T12:48:33Z</time>
      </trkpt>
      <trkpt lat="48.25356" lon="-3.48663">
        <ele>116.3</ele>
        <time>2022-06-12T12:48:34Z</time>
      </trkpt>
      <trkpt lat="48.25356" lon="-3.48663">
        <ele>116.3</ele>
        <time>2022-06-12T12:48:35Z</time>
      </trkpt>
      <trkpt lat="48.25356" lon="-3.48664">
        <ele>116.3</ele>
        <time>2022-06-12T12:48:36Z</time>
      </trkpt>
      <trkpt lat="48.25356" lon="-3.48664">
        <ele>116.3</ele>
        <time>2022-06-12T12:48:37Z</time>
      </trkpt>
      <trkpt lat="48.25356" lon="-3.48665">
        <ele>116.3</ele>
        <time>2022-06-12T12:48:38Z</time>
      </trkpt>
      <trkpt lat="48.25356" lon="-3.48665">
        <ele>116.3</ele>
        <time>2022-06-12T12:48:39Z</time>
      </trkpt>
      <trkpt lat="48.25356" lon="-3.48665">
        <ele>116.3</ele>
        <time>2022-06-12T12:48:40Z</time>
      </trkpt>
      <trkpt lat="48.25357" lon="-3.48666">
        <ele>116.3</ele>
        <time>2022-06-12T12:48:41Z</time>
      </trkpt>
      <trkpt lat="48.25357" lon="-3.48667">
        <ele>116.3</ele>
        <time>2022-06-12T12:48:42Z</time>
      </trkpt>
      <trkpt lat="48.25357" lon="-3.48667">
        <ele>116.3</ele>
        <time>2022-06-12T12:48:43Z</time>
      </trkpt>
      <trkpt lat="48.25357" lon="-3.48667">
        <ele>116.3</ele>
        <time>2022-06-12T12:48:44Z</time>
      </trkpt>
      <trkpt lat="48.25357" lon="-3.48667">
        <ele>116.3</ele>
        <time>2022-06-12T12:48:46Z</time>
      </trkpt>
      <trkpt lat="48.25357" lon="-3.48667">
        <ele>116.3</ele>
        <time>2022-06-12T12:48:47Z</time>
      </trkpt>
      <trkpt lat="48.25357" lon="-3.48668">
        <ele>116.3</ele>
        <time>2022-06-12T12:48:48Z</time>
      </trkpt>
      <trkpt lat="48.25357" lon="-3.48668">
        <ele>116.3</ele>
        <time>2022-06-12T12:48:49Z</time>
      </trkpt>
      <trkpt lat="48.25357" lon="-3.48668">
        <ele>116.3</ele>
        <time>2022-06-12T12:48:50Z</time>
      </trkpt>
      <trkpt lat="48.25357" lon="-3.48668">
        <ele>116.3</ele>
        <time>2022-06-12T12:48:51Z</time>
      </trkpt>
      <trkpt lat="48.25357" lon="-3.48668">
        <ele>116.3</ele>
        <time>2022-06-12T12:48:52Z</time>
      </trkpt>
      <trkpt lat="48.25357" lon="-3.48668">
        <ele>116.3</ele>
        <time>2022-06-12T12:48:53Z</time>
      </trkpt>
      <trkpt lat="48.25357" lon="-3.48668">
        <ele>116.3</ele>
        <time>2022-06-12T12:48:54Z</time>
      </trkpt>
      <trkpt lat="48.25357" lon="-3.48668">
        <ele>116.3</ele>
        <time>2022-06-12T12:48:55Z</time>
      </trkpt>
      <trkpt lat="48.25357" lon="-3.48668">
        <ele>116.3</ele>
        <time>2022-06-12T12:48:56Z</time>
      </trkpt>
      <trkpt lat="48.25356" lon="-3.48669">
        <ele>116.3</ele>
        <time>2022-06-12T12:48:57Z</time>
      </trkpt>
      <trkpt lat="48.25355" lon="-3.4867">
        <ele>116.3</ele>
        <time>2022-06-12T12:48:58Z</time>
      </trkpt>
      <trkpt lat="48.25355" lon="-3.4867">
        <ele>116.3</ele>
        <time>2022-06-12T12:48:59Z</time>
      </trkpt>
      <trkpt lat="48.25354" lon="-3.4867">
        <ele>116.3</ele>
        <time>2022-06-12T12:49:00Z</time>
      </trkpt>
      <trkpt lat="48.25354" lon="-3.4867">
        <ele>116.3</ele>
        <time>2022-06-12T12:49:01Z</time>
      </trkpt>
      <trkpt lat="48.25354" lon="-3.48671">
        <ele>116.3</ele>
        <time>2022-06-12T12:49:02Z</time>
      </trkpt>
      <trkpt lat="48.25355" lon="-3.4867">
        <ele>116.3</ele>
        <time>2022-06-12T12:49:04Z</time>
      </trkpt>
      <trkpt lat="48.25355" lon="-3.4867">
        <ele>116.3</ele>
        <time>2022-06-12T12:49:05Z</time>
      </trkpt>
      <trkpt lat="48.25355" lon="-3.4867">
        <ele>116.3</ele>
        <time>2022-06-12T12:49:06Z</time>
      </trkpt>
      <trkpt lat="48.25355" lon="-3.4867">
        <ele>116.3</ele>
        <time>2022-06-12T12:49:07Z</time>
      </trkpt>
      <trkpt lat="48.25355" lon="-3.4867">
        <ele>116.3</ele>
        <time>2022-06-12T12:49:08Z</time>
      </trkpt>
      <trkpt lat="48.25355" lon="-3.4867">
        <ele>116.3</ele>
        <time>2022-06-12T12:49:09Z</time>
      </trkpt>
      <trkpt lat="48.25355" lon="-3.48669">
        <ele>116.3</ele>
        <time>2022-06-12T12:49:10Z</time>
      </trkpt>
      <trkpt lat="48.25355" lon="-3.48669">
        <ele>116.3</ele>
        <time>2022-06-12T12:49:11Z</time>
      </trkpt>
      <trkpt lat="48.25355" lon="-3.48669">
        <ele>116.3</ele>
        <time>2022-06-12T12:49:12Z</time>
      </trkpt>
      <trkpt lat="48.25355" lon="-3.48669">
        <ele>116.3</ele>
        <time>2022-06-12T12:49:13Z</time>
      </trkpt>
      <trkpt lat="48.25355" lon="-3.48669">
        <ele>116.3</ele>
        <time>2022-06-12T12:49:14Z</time>
      </trkpt>
      <trkpt lat="48.25355" lon="-3.48669">
        <ele>116.3</ele>
        <time>2022-06-12T12:49:15Z</time>
      </trkpt>
      <trkpt lat="48.25355" lon="-3.48669">
        <ele>116.3</ele>
        <time>2022-06-12T12:49:16Z</time>
      </trkpt>
      <trkpt lat="48.25355" lon="-3.48669">
        <ele>116.3</ele>
        <time>2022-06-12T12:49:17Z</time>
      </trkpt>
      <trkpt lat="48.25355" lon="-3.48669">
        <ele>116.3</ele>
        <time>2022-06-12T12:49:18Z</time>
      </trkpt>
      <trkpt lat="48.25355" lon="-3.48669">
        <ele>116.3</ele>
        <time>2022-06-12T12:49:19Z</time>
      </trkpt>
      <trkpt lat="48.25355" lon="-3.48668">
        <ele>116.3</ele>
        <time>2022-06-12T12:49:20Z</time>
      </trkpt>
      <trkpt lat="48.25356" lon="-3.48668">
        <ele>116.3</ele>
        <time>2022-06-12T12:49:21Z</time>
      </trkpt>
      <trkpt lat="48.25356" lon="-3.48668">
        <ele>116.3</ele>
        <time>2022-06-12T12:49:22Z</time>
      </trkpt>
      <trkpt lat="48.25356" lon="-3.48668">
        <ele>116.3</ele>
        <time>2022-06-12T12:49:23Z</time>
      </trkpt>
      <trkpt lat="48.25356" lon="-3.48668">
        <ele>116.3</ele>
        <time>2022-06-12T12:49:24Z</time>
      </trkpt>
      <trkpt lat="48.25356" lon="-3.48668">
        <ele>116.3</ele>
        <time>2022-06-12T12:49:25Z</time>
      </trkpt>
      <trkpt lat="48.25356" lon="-3.48668">
        <ele>116.3</ele>
        <time>2022-06-12T12:49:26Z</time>
      </trkpt>
      <trkpt lat="48.25356" lon="-3.48668">
        <ele>116.3</ele>
        <time>2022-06-12T12:49:27Z</time>
      </trkpt>
      <trkpt lat="48.25356" lon="-3.48668">
        <ele>116.3</ele>
        <time>2022-06-12T12:49:28Z</time>
      </trkpt>
      <trkpt lat="48.25356" lon="-3.48668">
        <ele>116.3</ele>
        <time>2022-06-12T12:49:29Z</time>
      </trkpt>
      <trkpt lat="48.25356" lon="-3.48667">
        <ele>116.3</ele>
        <time>2022-06-12T12:49:30Z</time>
      </trkpt>
      <trkpt lat="48.25356" lon="-3.48667">
        <ele>116.3</ele>
        <time>2022-06-12T12:49:31Z</time>
      </trkpt>
      <trkpt lat="48.25356" lon="-3.48667">
        <ele>116.3</ele>
        <time>2022-06-12T12:49:32Z</time>
      </trkpt>
      <trkpt lat="48.25356" lon="-3.48667">
        <ele>116.3</ele>
        <time>2022-06-12T12:49:33Z</time>
      </trkpt>
      <trkpt lat="48.25356" lon="-3.48667">
        <ele>116.3</ele>
        <time>2022-06-12T12:49:34Z</time>
      </trkpt>
      <trkpt lat="48.25356" lon="-3.48667">
        <ele>116.3</ele>
        <time>2022-06-12T12:49:35Z</time>
      </trkpt>
      <trkpt lat="48.25356" lon="-3.48667">
        <ele>116.3</ele>
        <time>2022-06-12T12:49:36Z</time>
      </trkpt>
      <trkpt lat="48.25356" lon="-3.48666">
        <ele>116.3</ele>
        <time>2022-06-12T12:49:37Z</time>
      </trkpt>
      <trkpt lat="48.25356" lon="-3.48667">
        <ele>116.3</ele>
        <time>2022-06-12T12:49:38Z</time>
      </trkpt>
      <trkpt lat="48.25356" lon="-3.48667">
        <ele>116.3</ele>
        <time>2022-06-12T12:49:39Z</time>
      </trkpt>
      <trkpt lat="48.25356" lon="-3.48666">
        <ele>116.3</ele>
        <time>2022-06-12T12:49:40Z</time>
      </trkpt>
      <trkpt lat="48.25357" lon="-3.48666">
        <ele>116.3</ele>
        <time>2022-06-12T12:49:41Z</time>
      </trkpt>
      <trkpt lat="48.25357" lon="-3.48666">
        <ele>116.3</ele>
        <time>2022-06-12T12:49:42Z</time>
      </trkpt>
      <trkpt lat="48.25357" lon="-3.48666">
        <ele>116.3</ele>
        <time>2022-06-12T12:49:43Z</time>
      </trkpt>
      <trkpt lat="48.25357" lon="-3.48666">
        <ele>116.3</ele>
        <time>2022-06-12T12:49:44Z</time>
      </trkpt>
      <trkpt lat="48.25357" lon="-3.48666">
        <ele>116.3</ele>
        <time>2022-06-12T12:49:45Z</time>
      </trkpt>
      <trkpt lat="48.25357" lon="-3.48666">
        <ele>116.3</ele>
        <time>2022-06-12T12:49:46Z</time>
      </trkpt>
      <trkpt lat="48.25357" lon="-3.48666">
        <ele>116.3</ele>
        <time>2022-06-12T12:49:47Z</time>
      </trkpt>
      <trkpt lat="48.25357" lon="-3.48666">
        <ele>116.3</ele>
        <time>2022-06-12T12:49:48Z</time>
      </trkpt>
      <trkpt lat="48.25357" lon="-3.48666">
        <ele>116.3</ele>
        <time>2022-06-12T12:49:49Z</time>
      </trkpt>
      <trkpt lat="48.25357" lon="-3.48666">
        <ele>116.3</ele>
        <time>2022-06-12T12:49:50Z</time>
      </trkpt>
      <trkpt lat="48.25357" lon="-3.48666">
        <ele>116.3</ele>
        <time>2022-06-12T12:49:51Z</time>
      </trkpt>
      <trkpt lat="48.25357" lon="-3.48666">
        <ele>116.3</ele>
        <time>2022-06-12T12:49:52Z</time>
      </trkpt>
      <trkpt lat="48.25357" lon="-3.48666">
        <ele>116.3</ele>
        <time>2022-06-12T12:49:53Z</time>
      </trkpt>
      <trkpt lat="48.25357" lon="-3.48666">
        <ele>116.3</ele>
        <time>2022-06-12T12:49:54Z</time>
      </trkpt>
      <trkpt lat="48.25357" lon="-3.48666">
        <ele>116.3</ele>
        <time>2022-06-12T12:49:55Z</time>
      </trkpt>
      <trkpt lat="48.25357" lon="-3.48666">
        <ele>116.3</ele>
        <time>2022-06-12T12:49:56Z</time>
      </trkpt>
      <trkpt lat="48.25357" lon="-3.48666">
        <ele>116.3</ele>
        <time>2022-06-12T12:49:57Z</time>
      </trkpt>
      <trkpt lat="48.25357" lon="-3.48666">
        <ele>116.3</ele>
        <time>2022-06-12T12:49:58Z</time>
      </trkpt>
      <trkpt lat="48.25357" lon="-3.48666">
        <ele>116.3</ele>
        <time>2022-06-12T12:49:59Z</time>
      </trkpt>
      <trkpt lat="48.25357" lon="-3.48666">
        <ele>116.3</ele>
        <time>2022-06-12T12:50:00Z</time>
      </trkpt>
      <trkpt lat="48.25357" lon="-3.48666">
        <ele>116.3</ele>
        <time>2022-06-12T12:50:01Z</time>
      </trkpt>
      <trkpt lat="48.25357" lon="-3.48666">
        <ele>116.3</ele>
        <time>2022-06-12T12:50:02Z</time>
      </trkpt>
      <trkpt lat="48.25357" lon="-3.48666">
        <ele>116.3</ele>
        <time>2022-06-12T12:50:03Z</time>
      </trkpt>
      <trkpt lat="48.25357" lon="-3.48666">
        <ele>116.3</ele>
        <time>2022-06-12T12:50:04Z</time>
      </trkpt>
      <trkpt lat="48.25357" lon="-3.48666">
        <ele>116.3</ele>
        <time>2022-06-12T12:50:05Z</time>
      </trkpt>
      <trkpt lat="48.25357" lon="-3.48666">
        <ele>116.3</ele>
        <time>2022-06-12T12:50:06Z</time>
      </trkpt>
      <trkpt lat="48.25357" lon="-3.48666">
        <ele>116.3</ele>
        <time>2022-06-12T12:50:07Z</time>
      </trkpt>
      <trkpt lat="48.25357" lon="-3.48666">
        <ele>116.3</ele>
        <time>2022-06-12T12:50:08Z</time>
      </trkpt>
      <trkpt lat="48.25357" lon="-3.48666">
        <ele>116.3</ele>
        <time>2022-06-12T12:50:09Z</time>
      </trkpt>
      <trkpt lat="48.25357" lon="-3.48666">
        <ele>116.3</ele>
        <time>2022-06-12T12:50:10Z</time>
      </trkpt>
      <trkpt lat="48.25357" lon="-3.48666">
        <ele>116.3</ele>
        <time>2022-06-12T12:50:11Z</time>
      </trkpt>
      <trkpt lat="48.25357" lon="-3.48666">
        <ele>116.3</ele>
        <time>2022-06-12T12:50:12Z</time>
      </trkpt>
      <trkpt lat="48.25357" lon="-3.48666">
        <ele>116.3</ele>
        <time>2022-06-12T12:50:13Z</time>
      </trkpt>
      <trkpt lat="48.25357" lon="-3.48666">
        <ele>116.3</ele>
        <time>2022-06-12T12:50:14Z</time>
      </trkpt>
      <trkpt lat="48.25357" lon="-3.48666">
        <ele>116.3</ele>
        <time>2022-06-12T12:50:15Z</time>
      </trkpt>
      <trkpt lat="48.25357" lon="-3.48666">
        <ele>116.3</ele>
        <time>2022-06-12T12:50:16Z</time>
      </trkpt>
      <trkpt lat="48.25357" lon="-3.48666">
        <ele>116.3</ele>
        <time>2022-06-12T12:50:17Z</time>
      </trkpt>
      <trkpt lat="48.25357" lon="-3.48666">
        <ele>116.3</ele>
        <time>2022-06-12T12:50:18Z</time>
      </trkpt>
      <trkpt lat="48.25357" lon="-3.48666">
        <ele>116.3</ele>
        <time>2022-06-12T12:50:19Z</time>
      </trkpt>
      <trkpt lat="48.25357" lon="-3.48666">
        <ele>116.3</ele>
        <time>2022-06-12T12:50:20Z</time>
      </trkpt>
      <trkpt lat="48.25357" lon="-3.48666">
        <ele>116.3</ele>
        <time>2022-06-12T12:50:21Z</time>
      </trkpt>
      <trkpt lat="48.25357" lon="-3.48666">
        <ele>116.3</ele>
        <time>2022-06-12T12:50:22Z</time>
      </trkpt>
      <trkpt lat="48.25357" lon="-3.48666">
        <ele>116.3</ele>
        <time>2022-06-12T12:50:23Z</time>
      </trkpt>
      <trkpt lat="48.25357" lon="-3.48666">
        <ele>116.3</ele>
        <time>2022-06-12T12:50:24Z</time>
      </trkpt>
      <trkpt lat="48.25357" lon="-3.48666">
        <ele>116.3</ele>
        <time>2022-06-12T12:50:25Z</time>
      </trkpt>
      <trkpt lat="48.25357" lon="-3.48666">
        <ele>116.3</ele>
        <time>2022-06-12T12:50:26Z</time>
      </trkpt>
      <trkpt lat="48.25357" lon="-3.48666">
        <ele>116.3</ele>
        <time>2022-06-12T12:50:27Z</time>
      </trkpt>
      <trkpt lat="48.25357" lon="-3.48666">
        <ele>116.3</ele>
        <time>2022-06-12T12:50:28Z</time>
      </trkpt>
      <trkpt lat="48.25357" lon="-3.48666">
        <ele>116.3</ele>
        <time>2022-06-12T12:50:29Z</time>
      </trkpt>
      <trkpt lat="48.25357" lon="-3.48666">
        <ele>116.3</ele>
        <time>2022-06-12T12:50:30Z</time>
      </trkpt>
      <trkpt lat="48.25357" lon="-3.48666">
        <ele>116.3</ele>
        <time>2022-06-12T12:50:31Z</time>
      </trkpt>
      <trkpt lat="48.25357" lon="-3.48666">
        <ele>116.3</ele>
        <time>2022-06-12T12:50:32Z</time>
      </trkpt>
      <trkpt lat="48.25357" lon="-3.48666">
        <ele>116.3</ele>
        <time>2022-06-12T12:50:33Z</time>
      </trkpt>
      <trkpt lat="48.25357" lon="-3.48666">
        <ele>116.3</ele>
        <time>2022-06-12T12:50:34Z</time>
      </trkpt>
      <trkpt lat="48.25357" lon="-3.48666">
        <ele>116.3</ele>
        <time>2022-06-12T12:50:35Z</time>
      </trkpt>
      <trkpt lat="48.25357" lon="-3.48666">
        <ele>116.3</ele>
        <time>2022-06-12T12:50:36Z</time>
      </trkpt>
      <trkpt lat="48.25357" lon="-3.48666">
        <ele>116.3</ele>
        <time>2022-06-12T12:50:37Z</time>
      </trkpt>
      <trkpt lat="48.25357" lon="-3.48666">
        <ele>116.3</ele>
        <time>2022-06-12T12:50:38Z</time>
      </trkpt>
      <trkpt lat="48.25357" lon="-3.48666">
        <ele>116.3</ele>
        <time>2022-06-12T12:50:39Z</time>
      </trkpt>
      <trkpt lat="48.25357" lon="-3.48666">
        <ele>116.3</ele>
        <time>2022-06-12T12:50:40Z</time>
      </trkpt>
      <trkpt lat="48.25357" lon="-3.48666">
        <ele>116.3</ele>
        <time>2022-06-12T12:50:41Z</time>
      </trkpt>
      <trkpt lat="48.25357" lon="-3.48666">
        <ele>116.3</ele>
        <time>2022-06-12T12:50:42Z</time>
      </trkpt>
      <trkpt lat="48.25357" lon="-3.48666">
        <ele>116.3</ele>
        <time>2022-06-12T12:50:43Z</time>
      </trkpt>
      <trkpt lat="48.25357" lon="-3.48666">
        <ele>116.3</ele>
        <time>2022-06-12T12:50:44Z</time>
      </trkpt>
      <trkpt lat="48.25357" lon="-3.48666">
        <ele>116.3</ele>
        <time>2022-06-12T12:50:45Z</time>
      </trkpt>
      <trkpt lat="48.25357" lon="-3.48665">
        <ele>116.3</ele>
        <time>2022-06-12T12:50:46Z</time>
      </trkpt>
      <trkpt lat="48.25357" lon="-3.48665">
        <ele>116.3</ele>
        <time>2022-06-12T12:50:47Z</time>
      </trkpt>
      <trkpt lat="48.25357" lon="-3.48664">
        <ele>116.3</ele>
        <time>2022-06-12T12:50:48Z</time>
      </trkpt>
      <trkpt lat="48.25357" lon="-3.48664">
        <ele>116.3</ele>
        <time>2022-06-12T12:50:49Z</time>
      </trkpt>
      <trkpt lat="48.25357" lon="-3.48664">
        <ele>116.3</ele>
        <time>2022-06-12T12:50:50Z</time>
      </trkpt>
      <trkpt lat="48.25357" lon="-3.48664">
        <ele>116.3</ele>
        <time>2022-06-12T12:50:51Z</time>
      </trkpt>
      <trkpt lat="48.25357" lon="-3.48664">
        <ele>116.3</ele>
        <time>2022-06-12T12:50:52Z</time>
      </trkpt>
      <trkpt lat="48.25357" lon="-3.48664">
        <ele>116.3</ele>
        <time>2022-06-12T12:50:53Z</time>
      </trkpt>
      <trkpt lat="48.25357" lon="-3.48664">
        <ele>116.3</ele>
        <time>2022-06-12T12:50:54Z</time>
      </trkpt>
      <trkpt lat="48.25357" lon="-3.48664">
        <ele>116.3</ele>
        <time>2022-06-12T12:50:55Z</time>
      </trkpt>
      <trkpt lat="48.25357" lon="-3.48664">
        <ele>116.3</ele>
        <time>2022-06-12T12:50:56Z</time>
      </trkpt>
      <trkpt lat="48.25357" lon="-3.48664">
        <ele>116.3</ele>
        <time>2022-06-12T12:50:57Z</time>
      </trkpt>
      <trkpt lat="48.25357" lon="-3.48664">
        <ele>116.3</ele>
        <time>2022-06-12T12:50:58Z</time>
      </trkpt>
      <trkpt lat="48.25357" lon="-3.48664">
        <ele>116.3</ele>
        <time>2022-06-12T12:50:59Z</time>
      </trkpt>
      <trkpt lat="48.25357" lon="-3.48664">
        <ele>116.3</ele>
        <time>2022-06-12T12:51:00Z</time>
      </trkpt>
      <trkpt lat="48.25357" lon="-3.48664">
        <ele>116.3</ele>
        <time>2022-06-12T12:51:01Z</time>
      </trkpt>
      <trkpt lat="48.25357" lon="-3.48664">
        <ele>116.3</ele>
        <time>2022-06-12T12:51:02Z</time>
      </trkpt>
      <trkpt lat="48.25357" lon="-3.48664">
        <ele>116.3</ele>
        <time>2022-06-12T12:51:03Z</time>
      </trkpt>
      <trkpt lat="48.25357" lon="-3.48664">
        <ele>116.3</ele>
        <time>2022-06-12T12:51:04Z</time>
      </trkpt>
      <trkpt lat="48.25357" lon="-3.48664">
        <ele>116.3</ele>
        <time>2022-06-12T12:51:05Z</time>
      </trkpt>
      <trkpt lat="48.25357" lon="-3.48664">
        <ele>116.3</ele>
        <time>2022-06-12T12:51:06Z</time>
      </trkpt>
      <trkpt lat="48.25357" lon="-3.48664">
        <ele>116.3</ele>
        <time>2022-06-12T12:51:07Z</time>
      </trkpt>
      <trkpt lat="48.25357" lon="-3.48664">
        <ele>116.3</ele>
        <time>2022-06-12T12:51:08Z</time>
      </trkpt>
      <trkpt lat="48.25357" lon="-3.48664">
        <ele>116.3</ele>
        <time>2022-06-12T12:51:09Z</time>
      </trkpt>
      <trkpt lat="48.25357" lon="-3.48664">
        <ele>116.3</ele>
        <time>2022-06-12T12:51:10Z</time>
      </trkpt>
      <trkpt lat="48.25357" lon="-3.48664">
        <ele>116.3</ele>
        <time>2022-06-12T12:51:11Z</time>
      </trkpt>
      <trkpt lat="48.25357" lon="-3.48664">
        <ele>116.3</ele>
        <time>2022-06-12T12:51:12Z</time>
      </trkpt>
      <trkpt lat="48.25357" lon="-3.48664">
        <ele>116.3</ele>
        <time>2022-06-12T12:51:13Z</time>
      </trkpt>
      <trkpt lat="48.25357" lon="-3.48664">
        <ele>116.3</ele>
        <time>2022-06-12T12:51:14Z</time>
      </trkpt>
      <trkpt lat="48.25357" lon="-3.48664">
        <ele>116.3</ele>
        <time>2022-06-12T12:51:15Z</time>
      </trkpt>
      <trkpt lat="48.25357" lon="-3.48664">
        <ele>116.3</ele>
        <time>2022-06-12T12:51:16Z</time>
      </trkpt>
      <trkpt lat="48.25357" lon="-3.48664">
        <ele>116.3</ele>
        <time>2022-06-12T12:51:17Z</time>
      </trkpt>
      <trkpt lat="48.25357" lon="-3.48664">
        <ele>116.3</ele>
        <time>2022-06-12T12:51:18Z</time>
      </trkpt>
      <trkpt lat="48.25357" lon="-3.48664">
        <ele>116.3</ele>
        <time>2022-06-12T12:51:19Z</time>
      </trkpt>
      <trkpt lat="48.25357" lon="-3.48664">
        <ele>116.3</ele>
        <time>2022-06-12T12:51:20Z</time>
      </trkpt>
      <trkpt lat="48.25357" lon="-3.48664">
        <ele>116.3</ele>
        <time>2022-06-12T12:51:21Z</time>
      </trkpt>
      <trkpt lat="48.25357" lon="-3.48664">
        <ele>116.3</ele>
        <time>2022-06-12T12:51:22Z</time>
      </trkpt>
      <trkpt lat="48.25357" lon="-3.48664">
        <ele>116.3</ele>
        <time>2022-06-12T12:51:23Z</time>
      </trkpt>
      <trkpt lat="48.25357" lon="-3.48664">
        <ele>116.3</ele>
        <time>2022-06-12T12:51:24Z</time>
      </trkpt>
      <trkpt lat="48.25357" lon="-3.48664">
        <ele>116.3</ele>
        <time>2022-06-12T12:51:25Z</time>
      </trkpt>
      <trkpt lat="48.25357" lon="-3.48664">
        <ele>116.3</ele>
        <time>2022-06-12T12:51:26Z</time>
      </trkpt>
      <trkpt lat="48.25357" lon="-3.48664">
        <ele>116.3</ele>
        <time>2022-06-12T12:51:27Z</time>
      </trkpt>
      <trkpt lat="48.25357" lon="-3.48664">
        <ele>116.3</ele>
        <time>2022-06-12T12:51:28Z</time>
      </trkpt>
      <trkpt lat="48.25357" lon="-3.48664">
        <ele>116.3</ele>
        <time>2022-06-12T12:51:29Z</time>
      </trkpt>
      <trkpt lat="48.25357" lon="-3.48664">
        <ele>116.3</ele>
        <time>2022-06-12T12:51:30Z</time>
      </trkpt>
      <trkpt lat="48.25357" lon="-3.48664">
        <ele>116.3</ele>
        <time>2022-06-12T12:51:31Z</time>
      </trkpt>
      <trkpt lat="48.25357" lon="-3.48664">
        <ele>116.3</ele>
        <time>2022-06-12T12:51:32Z</time>
      </trkpt>
      <trkpt lat="48.25357" lon="-3.48664">
        <ele>116.3</ele>
        <time>2022-06-12T12:51:33Z</time>
      </trkpt>
      <trkpt lat="48.25357" lon="-3.48664">
        <ele>116.3</ele>
        <time>2022-06-12T12:51:34Z</time>
      </trkpt>
      <trkpt lat="48.25357" lon="-3.48664">
        <ele>116.3</ele>
        <time>2022-06-12T12:51:35Z</time>
      </trkpt>
      <trkpt lat="48.25357" lon="-3.48664">
        <ele>116.3</ele>
        <time>2022-06-12T12:51:36Z</time>
      </trkpt>
      <trkpt lat="48.25357" lon="-3.48665">
        <ele>116.3</ele>
        <time>2022-06-12T12:51:37Z</time>
      </trkpt>
      <trkpt lat="48.25356" lon="-3.48665">
        <ele>116.3</ele>
        <time>2022-06-12T12:51:38Z</time>
      </trkpt>
      <trkpt lat="48.25356" lon="-3.48665">
        <ele>116.3</ele>
        <time>2022-06-12T12:51:39Z</time>
      </trkpt>
      <trkpt lat="48.25357" lon="-3.48665">
        <ele>116.3</ele>
        <time>2022-06-12T12:51:40Z</time>
      </trkpt>
      <trkpt lat="48.25357" lon="-3.48664">
        <ele>116.3</ele>
        <time>2022-06-12T12:51:41Z</time>
      </trkpt>
      <trkpt lat="48.25357" lon="-3.48665">
        <ele>116.3</ele>
        <time>2022-06-12T12:51:42Z</time>
      </trkpt>
      <trkpt lat="48.25358" lon="-3.48663">
        <ele>116.3</ele>
        <time>2022-06-12T12:51:43Z</time>
      </trkpt>
      <trkpt lat="48.2536" lon="-3.48661">
        <ele>116.3</ele>
        <time>2022-06-12T12:51:44Z</time>
      </trkpt>
      <trkpt lat="48.25361" lon="-3.4866">
        <ele>116.3</ele>
        <time>2022-06-12T12:51:45Z</time>
      </trkpt>
      <trkpt lat="48.25362" lon="-3.48659">
        <ele>116.3</ele>
        <time>2022-06-12T12:51:46Z</time>
      </trkpt>
      <trkpt lat="48.25364" lon="-3.48658">
        <ele>116.3</ele>
        <time>2022-06-12T12:51:48Z</time>
      </trkpt>
      <trkpt lat="48.25365" lon="-3.48656">
        <ele>116.3</ele>
        <time>2022-06-12T12:51:49Z</time>
      </trkpt>
      <trkpt lat="48.25367" lon="-3.48655">
        <ele>116.3</ele>
        <time>2022-06-12T12:51:50Z</time>
      </trkpt>
      <trkpt lat="48.25368" lon="-3.48653">
        <ele>116.3</ele>
        <time>2022-06-12T12:51:51Z</time>
      </trkpt>
      <trkpt lat="48.25369" lon="-3.48652">
        <ele>116.3</ele>
        <time>2022-06-12T12:51:52Z</time>
      </trkpt>
      <trkpt lat="48.2537" lon="-3.4865">
        <ele>116.3</ele>
        <time>2022-06-12T12:51:53Z</time>
      </trkpt>
      <trkpt lat="48.25371" lon="-3.48648">
        <ele>116.3</ele>
        <time>2022-06-12T12:51:54Z</time>
      </trkpt>
      <trkpt lat="48.25373" lon="-3.48646">
        <ele>116.3</ele>
        <time>2022-06-12T12:51:55Z</time>
      </trkpt>
      <trkpt lat="48.25374" lon="-3.48645">
        <ele>116.3</ele>
        <time>2022-06-12T12:51:56Z</time>
      </trkpt>
      <trkpt lat="48.25374" lon="-3.48644">
        <ele>116.3</ele>
        <time>2022-06-12T12:51:57Z</time>
      </trkpt>
      <trkpt lat="48.25375" lon="-3.48642">
        <ele>116.3</ele>
        <time>2022-06-12T12:51:58Z</time>
      </trkpt>
      <trkpt lat="48.25376" lon="-3.48641">
        <ele>116.3</ele>
        <time>2022-06-12T12:51:59Z</time>
      </trkpt>
      <trkpt lat="48.25378" lon="-3.48639">
        <ele>116.3</ele>
        <time>2022-06-12T12:52:00Z</time>
      </trkpt>
      <trkpt lat="48.25378" lon="-3.48638">
        <ele>116.3</ele>
        <time>2022-06-12T12:52:02Z</time>
      </trkpt>
      <trkpt lat="48.25379" lon="-3.48637">
        <ele>116.3</ele>
        <time>2022-06-12T12:52:03Z</time>
      </trkpt>
      <trkpt lat="48.2538" lon="-3.48635">
        <ele>116.3</ele>
        <time>2022-06-12T12:52:04Z</time>
      </trkpt>
      <trkpt lat="48.2538" lon="-3.48633">
        <ele>116.3</ele>
        <time>2022-06-12T12:52:05Z</time>
      </trkpt>
      <trkpt lat="48.25381" lon="-3.48632">
        <ele>116.3</ele>
        <time>2022-06-12T12:52:06Z</time>
      </trkpt>
      <trkpt lat="48.25382" lon="-3.4863">
        <ele>116.3</ele>
        <time>2022-06-12T12:52:07Z</time>
      </trkpt>
      <trkpt lat="48.25382" lon="-3.4863">
        <ele>116.3</ele>
        <time>2022-06-12T12:52:08Z</time>
      </trkpt>
      <trkpt lat="48.25383" lon="-3.4863">
        <ele>116.3</ele>
        <time>2022-06-12T12:52:09Z</time>
      </trkpt>
      <trkpt lat="48.25384" lon="-3.4863">
        <ele>116.3</ele>
        <time>2022-06-12T12:52:10Z</time>
      </trkpt>
      <trkpt lat="48.25385" lon="-3.48629">
        <ele>116.3</ele>
        <time>2022-06-12T12:52:11Z</time>
      </trkpt>
      <trkpt lat="48.25385" lon="-3.48629">
        <ele>116.3</ele>
        <time>2022-06-12T12:52:12Z</time>
      </trkpt>
      <trkpt lat="48.25385" lon="-3.48629">
        <ele>116.3</ele>
        <time>2022-06-12T12:52:13Z</time>
      </trkpt>
      <trkpt lat="48.25385" lon="-3.48628">
        <ele>116.3</ele>
        <time>2022-06-12T12:52:14Z</time>
      </trkpt>
      <trkpt lat="48.25386" lon="-3.48627">
        <ele>116.4</ele>
        <time>2022-06-12T12:52:15Z</time>
      </trkpt>
      <trkpt lat="48.25387" lon="-3.48626">
        <ele>116.4</ele>
        <time>2022-06-12T12:52:16Z</time>
      </trkpt>
      <trkpt lat="48.25389" lon="-3.48625">
        <ele>116.4</ele>
        <time>2022-06-12T12:52:18Z</time>
      </trkpt>
      <trkpt lat="48.2539" lon="-3.48624">
        <ele>116.4</ele>
        <time>2022-06-12T12:52:19Z</time>
      </trkpt>
      <trkpt lat="48.25391" lon="-3.48623">
        <ele>116.4</ele>
        <time>2022-06-12T12:52:20Z</time>
      </trkpt>
      <trkpt lat="48.25393" lon="-3.48622">
        <ele>116.4</ele>
        <time>2022-06-12T12:52:21Z</time>
      </trkpt>
      <trkpt lat="48.25394" lon="-3.48621">
        <ele>116.4</ele>
        <time>2022-06-12T12:52:22Z</time>
      </trkpt>
      <trkpt lat="48.25395" lon="-3.48619">
        <ele>116.4</ele>
        <time>2022-06-12T12:52:23Z</time>
      </trkpt>
      <trkpt lat="48.25396" lon="-3.48618">
        <ele>116.4</ele>
        <time>2022-06-12T12:52:24Z</time>
      </trkpt>
      <trkpt lat="48.25398" lon="-3.48617">
        <ele>116.4</ele>
        <time>2022-06-12T12:52:25Z</time>
      </trkpt>
      <trkpt lat="48.25398" lon="-3.48616">
        <ele>116.4</ele>
        <time>2022-06-12T12:52:26Z</time>
      </trkpt>
      <trkpt lat="48.25399" lon="-3.48615">
        <ele>116.4</ele>
        <time>2022-06-12T12:52:27Z</time>
      </trkpt>
      <trkpt lat="48.254" lon="-3.48614">
        <ele>116.4</ele>
        <time>2022-06-12T12:52:28Z</time>
      </trkpt>
      <trkpt lat="48.25401" lon="-3.48613">
        <ele>116.4</ele>
        <time>2022-06-12T12:52:29Z</time>
      </trkpt>
      <trkpt lat="48.25402" lon="-3.48611">
        <ele>116.4</ele>
        <time>2022-06-12T12:52:30Z</time>
      </trkpt>
      <trkpt lat="48.25403" lon="-3.4861">
        <ele>116.4</ele>
        <time>2022-06-12T12:52:31Z</time>
      </trkpt>
      <trkpt lat="48.25404" lon="-3.48608">
        <ele>116.4</ele>
        <time>2022-06-12T12:52:33Z</time>
      </trkpt>
      <trkpt lat="48.25405" lon="-3.48606">
        <ele>116.4</ele>
        <time>2022-06-12T12:52:34Z</time>
      </trkpt>
      <trkpt lat="48.25406" lon="-3.48604">
        <ele>116.4</ele>
        <time>2022-06-12T12:52:35Z</time>
      </trkpt>
      <trkpt lat="48.25407" lon="-3.48602">
        <ele>116.4</ele>
        <time>2022-06-12T12:52:36Z</time>
      </trkpt>
      <trkpt lat="48.25408" lon="-3.486">
        <ele>116.4</ele>
        <time>2022-06-12T12:52:37Z</time>
      </trkpt>
      <trkpt lat="48.25409" lon="-3.48599">
        <ele>116.4</ele>
        <time>2022-06-12T12:52:38Z</time>
      </trkpt>
      <trkpt lat="48.2541" lon="-3.48597">
        <ele>116.4</ele>
        <time>2022-06-12T12:52:39Z</time>
      </trkpt>
      <trkpt lat="48.25411" lon="-3.48596">
        <ele>116.4</ele>
        <time>2022-06-12T12:52:40Z</time>
      </trkpt>
      <trkpt lat="48.25412" lon="-3.48594">
        <ele>116.4</ele>
        <time>2022-06-12T12:52:41Z</time>
      </trkpt>
      <trkpt lat="48.25413" lon="-3.48593">
        <ele>116.4</ele>
        <time>2022-06-12T12:52:42Z</time>
      </trkpt>
      <trkpt lat="48.25414" lon="-3.48591">
        <ele>116.4</ele>
        <time>2022-06-12T12:52:43Z</time>
      </trkpt>
      <trkpt lat="48.25415" lon="-3.4859">
        <ele>116.4</ele>
        <time>2022-06-12T12:52:44Z</time>
      </trkpt>
      <trkpt lat="48.25416" lon="-3.48588">
        <ele>116.4</ele>
        <time>2022-06-12T12:52:45Z</time>
      </trkpt>
      <trkpt lat="48.25417" lon="-3.48587">
        <ele>116.4</ele>
        <time>2022-06-12T12:52:46Z</time>
      </trkpt>
      <trkpt lat="48.25418" lon="-3.48585">
        <ele>116.5</ele>
        <time>2022-06-12T12:52:48Z</time>
      </trkpt>
      <trkpt lat="48.25419" lon="-3.48583">
        <ele>116.5</ele>
        <time>2022-06-12T12:52:49Z</time>
      </trkpt>
      <trkpt lat="48.2542" lon="-3.48582">
        <ele>116.5</ele>
        <time>2022-06-12T12:52:50Z</time>
      </trkpt>
      <trkpt lat="48.25421" lon="-3.4858">
        <ele>116.5</ele>
        <time>2022-06-12T12:52:51Z</time>
      </trkpt>
      <trkpt lat="48.25422" lon="-3.48578">
        <ele>116.5</ele>
        <time>2022-06-12T12:52:52Z</time>
      </trkpt>
      <trkpt lat="48.25423" lon="-3.48577">
        <ele>116.5</ele>
        <time>2022-06-12T12:52:53Z</time>
      </trkpt>
      <trkpt lat="48.25424" lon="-3.48575">
        <ele>116.5</ele>
        <time>2022-06-12T12:52:54Z</time>
      </trkpt>
      <trkpt lat="48.25425" lon="-3.48573">
        <ele>116.5</ele>
        <time>2022-06-12T12:52:55Z</time>
      </trkpt>
      <trkpt lat="48.25427" lon="-3.48572">
        <ele>116.5</ele>
        <time>2022-06-12T12:52:56Z</time>
      </trkpt>
      <trkpt lat="48.25428" lon="-3.4857">
        <ele>116.5</ele>
        <time>2022-06-12T12:52:57Z</time>
      </trkpt>
      <trkpt lat="48.2543" lon="-3.48567">
        <ele>116.5</ele>
        <time>2022-06-12T12:52:59Z</time>
      </trkpt>
      <trkpt lat="48.2543" lon="-3.48566">
        <ele>116.5</ele>
        <time>2022-06-12T12:53:00Z</time>
      </trkpt>
      <trkpt lat="48.25431" lon="-3.48564">
        <ele>116.5</ele>
        <time>2022-06-12T12:53:01Z</time>
      </trkpt>
      <trkpt lat="48.25432" lon="-3.48562">
        <ele>116.5</ele>
        <time>2022-06-12T12:53:02Z</time>
      </trkpt>
      <trkpt lat="48.25434" lon="-3.4856">
        <ele>116.5</ele>
        <time>2022-06-12T12:53:03Z</time>
      </trkpt>
      <trkpt lat="48.25435" lon="-3.48558">
        <ele>116.5</ele>
        <time>2022-06-12T12:53:04Z</time>
      </trkpt>
      <trkpt lat="48.25437" lon="-3.48553">
        <ele>116.6</ele>
        <time>2022-06-12T12:53:06Z</time>
      </trkpt>
      <trkpt lat="48.25438" lon="-3.48551">
        <ele>116.6</ele>
        <time>2022-06-12T12:53:07Z</time>
      </trkpt>
      <trkpt lat="48.25438" lon="-3.4855">
        <ele>116.6</ele>
        <time>2022-06-12T12:53:08Z</time>
      </trkpt>
      <trkpt lat="48.25439" lon="-3.48548">
        <ele>116.6</ele>
        <time>2022-06-12T12:53:09Z</time>
      </trkpt>
      <trkpt lat="48.2544" lon="-3.48547">
        <ele>116.6</ele>
        <time>2022-06-12T12:53:10Z</time>
      </trkpt>
      <trkpt lat="48.25441" lon="-3.48544">
        <ele>116.6</ele>
        <time>2022-06-12T12:53:11Z</time>
      </trkpt>
      <trkpt lat="48.25442" lon="-3.48543">
        <ele>116.6</ele>
        <time>2022-06-12T12:53:12Z</time>
      </trkpt>
      <trkpt lat="48.25442" lon="-3.48542">
        <ele>116.6</ele>
        <time>2022-06-12T12:53:13Z</time>
      </trkpt>
      <trkpt lat="48.25443" lon="-3.48541">
        <ele>116.6</ele>
        <time>2022-06-12T12:53:14Z</time>
      </trkpt>
      <trkpt lat="48.25444" lon="-3.48539">
        <ele>116.6</ele>
        <time>2022-06-12T12:53:15Z</time>
      </trkpt>
      <trkpt lat="48.25445" lon="-3.48536">
        <ele>116.6</ele>
        <time>2022-06-12T12:53:16Z</time>
      </trkpt>
      <trkpt lat="48.25446" lon="-3.48534">
        <ele>116.6</ele>
        <time>2022-06-12T12:53:18Z</time>
      </trkpt>
      <trkpt lat="48.25446" lon="-3.48533">
        <ele>116.6</ele>
        <time>2022-06-12T12:53:19Z</time>
      </trkpt>
      <trkpt lat="48.25446" lon="-3.48532">
        <ele>116.6</ele>
        <time>2022-06-12T12:53:20Z</time>
      </trkpt>
      <trkpt lat="48.25447" lon="-3.4853">
        <ele>116.6</ele>
        <time>2022-06-12T12:53:21Z</time>
      </trkpt>
      <trkpt lat="48.25448" lon="-3.48527">
        <ele>116.6</ele>
        <time>2022-06-12T12:53:22Z</time>
      </trkpt>
      <trkpt lat="48.25448" lon="-3.48526">
        <ele>116.6</ele>
        <time>2022-06-12T12:53:23Z</time>
      </trkpt>
      <trkpt lat="48.25449" lon="-3.48525">
        <ele>116.6</ele>
        <time>2022-06-12T12:53:24Z</time>
      </trkpt>
      <trkpt lat="48.2545" lon="-3.48523">
        <ele>116.6</ele>
        <time>2022-06-12T12:53:25Z</time>
      </trkpt>
      <trkpt lat="48.2545" lon="-3.48522">
        <ele>116.6</ele>
        <time>2022-06-12T12:53:26Z</time>
      </trkpt>
      <trkpt lat="48.25451" lon="-3.4852">
        <ele>116.6</ele>
        <time>2022-06-12T12:53:27Z</time>
      </trkpt>
      <trkpt lat="48.25452" lon="-3.48519">
        <ele>116.6</ele>
        <time>2022-06-12T12:53:28Z</time>
      </trkpt>
      <trkpt lat="48.25453" lon="-3.48517">
        <ele>116.6</ele>
        <time>2022-06-12T12:53:30Z</time>
      </trkpt>
      <trkpt lat="48.25454" lon="-3.48516">
        <ele>116.6</ele>
        <time>2022-06-12T12:53:31Z</time>
      </trkpt>
      <trkpt lat="48.25455" lon="-3.48515">
        <ele>116.6</ele>
        <time>2022-06-12T12:53:32Z</time>
      </trkpt>
      <trkpt lat="48.25456" lon="-3.48513">
        <ele>116.6</ele>
        <time>2022-06-12T12:53:33Z</time>
      </trkpt>
      <trkpt lat="48.25457" lon="-3.48512">
        <ele>116.6</ele>
        <time>2022-06-12T12:53:34Z</time>
      </trkpt>
      <trkpt lat="48.25459" lon="-3.48511">
        <ele>116.6</ele>
        <time>2022-06-12T12:53:35Z</time>
      </trkpt>
      <trkpt lat="48.2546" lon="-3.48511">
        <ele>116.6</ele>
        <time>2022-06-12T12:53:36Z</time>
      </trkpt>
      <trkpt lat="48.25461" lon="-3.4851">
        <ele>116.6</ele>
        <time>2022-06-12T12:53:38Z</time>
      </trkpt>
      <trkpt lat="48.25463" lon="-3.48509">
        <ele>116.6</ele>
        <time>2022-06-12T12:53:39Z</time>
      </trkpt>
      <trkpt lat="48.25465" lon="-3.48507">
        <ele>116.6</ele>
        <time>2022-06-12T12:53:40Z</time>
      </trkpt>
      <trkpt lat="48.25465" lon="-3.48507">
        <ele>116.6</ele>
        <time>2022-06-12T12:53:41Z</time>
      </trkpt>
      <trkpt lat="48.25466" lon="-3.48506">
        <ele>116.6</ele>
        <time>2022-06-12T12:53:42Z</time>
      </trkpt>
      <trkpt lat="48.25467" lon="-3.48505">
        <ele>116.6</ele>
        <time>2022-06-12T12:53:43Z</time>
      </trkpt>
      <trkpt lat="48.25468" lon="-3.48505">
        <ele>116.6</ele>
        <time>2022-06-12T12:53:45Z</time>
      </trkpt>
      <trkpt lat="48.25469" lon="-3.48504">
        <ele>116.6</ele>
        <time>2022-06-12T12:53:46Z</time>
      </trkpt>
      <trkpt lat="48.25471" lon="-3.48503">
        <ele>116.6</ele>
        <time>2022-06-12T12:53:47Z</time>
      </trkpt>
      <trkpt lat="48.25471" lon="-3.48502">
        <ele>116.7</ele>
        <time>2022-06-12T12:53:48Z</time>
      </trkpt>
      <trkpt lat="48.25472" lon="-3.48501">
        <ele>116.7</ele>
        <time>2022-06-12T12:53:49Z</time>
      </trkpt>
      <trkpt lat="48.25473" lon="-3.48502">
        <ele>116.7</ele>
        <time>2022-06-12T12:53:50Z</time>
      </trkpt>
      <trkpt lat="48.25473" lon="-3.48502">
        <ele>116.7</ele>
        <time>2022-06-12T12:53:51Z</time>
      </trkpt>
      <trkpt lat="48.25473" lon="-3.48502">
        <ele>116.7</ele>
        <time>2022-06-12T12:53:52Z</time>
      </trkpt>
      <trkpt lat="48.25473" lon="-3.48502">
        <ele>116.7</ele>
        <time>2022-06-12T12:53:53Z</time>
      </trkpt>
      <trkpt lat="48.25473" lon="-3.48502">
        <ele>116.7</ele>
        <time>2022-06-12T12:53:54Z</time>
      </trkpt>
      <trkpt lat="48.25473" lon="-3.48502">
        <ele>116.7</ele>
        <time>2022-06-12T12:53:55Z</time>
      </trkpt>
      <trkpt lat="48.25473" lon="-3.48502">
        <ele>116.7</ele>
        <time>2022-06-12T12:53:57Z</time>
      </trkpt>
      <trkpt lat="48.25473" lon="-3.48503">
        <ele>116.7</ele>
        <time>2022-06-12T12:53:58Z</time>
      </trkpt>
      <trkpt lat="48.25473" lon="-3.48503">
        <ele>116.7</ele>
        <time>2022-06-12T12:53:59Z</time>
      </trkpt>
      <trkpt lat="48.25473" lon="-3.48503">
        <ele>116.7</ele>
        <time>2022-06-12T12:54:00Z</time>
      </trkpt>
      <trkpt lat="48.25473" lon="-3.48503">
        <ele>116.7</ele>
        <time>2022-06-12T12:54:01Z</time>
      </trkpt>
      <trkpt lat="48.25473" lon="-3.48503">
        <ele>116.7</ele>
        <time>2022-06-12T12:54:02Z</time>
      </trkpt>
      <trkpt lat="48.25473" lon="-3.48503">
        <ele>116.7</ele>
        <time>2022-06-12T12:54:04Z</time>
      </trkpt>
      <trkpt lat="48.25473" lon="-3.48503">
        <ele>116.7</ele>
        <time>2022-06-12T12:54:05Z</time>
      </trkpt>
      <trkpt lat="48.25473" lon="-3.48503">
        <ele>116.7</ele>
        <time>2022-06-12T12:54:06Z</time>
      </trkpt>
      <trkpt lat="48.25473" lon="-3.48503">
        <ele>116.7</ele>
        <time>2022-06-12T12:54:07Z</time>
      </trkpt>
      <trkpt lat="48.25473" lon="-3.48504">
        <ele>116.7</ele>
        <time>2022-06-12T12:54:08Z</time>
      </trkpt>
      <trkpt lat="48.25473" lon="-3.48504">
        <ele>116.7</ele>
        <time>2022-06-12T12:54:09Z</time>
      </trkpt>
      <trkpt lat="48.25473" lon="-3.48504">
        <ele>116.7</ele>
        <time>2022-06-12T12:54:10Z</time>
      </trkpt>
      <trkpt lat="48.25473" lon="-3.48504">
        <ele>116.7</ele>
        <time>2022-06-12T12:54:11Z</time>
      </trkpt>
      <trkpt lat="48.25473" lon="-3.48504">
        <ele>116.7</ele>
        <time>2022-06-12T12:54:12Z</time>
      </trkpt>
      <trkpt lat="48.25473" lon="-3.48504">
        <ele>116.7</ele>
        <time>2022-06-12T12:54:13Z</time>
      </trkpt>
      <trkpt lat="48.25473" lon="-3.48504">
        <ele>116.7</ele>
        <time>2022-06-12T12:54:14Z</time>
      </trkpt>
      <trkpt lat="48.25473" lon="-3.48504">
        <ele>116.7</ele>
        <time>2022-06-12T12:54:15Z</time>
      </trkpt>
      <trkpt lat="48.25473" lon="-3.48504">
        <ele>116.7</ele>
        <time>2022-06-12T12:54:16Z</time>
      </trkpt>
      <trkpt lat="48.25473" lon="-3.48505">
        <ele>116.7</ele>
        <time>2022-06-12T12:54:17Z</time>
      </trkpt>
      <trkpt lat="48.25473" lon="-3.48505">
        <ele>116.7</ele>
        <time>2022-06-12T12:54:18Z</time>
      </trkpt>
      <trkpt lat="48.25473" lon="-3.48505">
        <ele>116.7</ele>
        <time>2022-06-12T12:54:19Z</time>
      </trkpt>
      <trkpt lat="48.25473" lon="-3.48505">
        <ele>116.7</ele>
        <time>2022-06-12T12:54:20Z</time>
      </trkpt>
      <trkpt lat="48.25473" lon="-3.48505">
        <ele>116.7</ele>
        <time>2022-06-12T12:54:21Z</time>
      </trkpt>
      <trkpt lat="48.25473" lon="-3.48505">
        <ele>116.7</ele>
        <time>2022-06-12T12:54:22Z</time>
      </trkpt>
      <trkpt lat="48.25473" lon="-3.48505">
        <ele>116.7</ele>
        <time>2022-06-12T12:54:23Z</time>
      </trkpt>
      <trkpt lat="48.25473" lon="-3.48505">
        <ele>116.7</ele>
        <time>2022-06-12T12:54:24Z</time>
      </trkpt>
      <trkpt lat="48.25473" lon="-3.48505">
        <ele>116.7</ele>
        <time>2022-06-12T12:54:25Z</time>
      </trkpt>
      <trkpt lat="48.25473" lon="-3.48506">
        <ele>116.7</ele>
        <time>2022-06-12T12:54:26Z</time>
      </trkpt>
      <trkpt lat="48.25473" lon="-3.48506">
        <ele>116.7</ele>
        <time>2022-06-12T12:54:27Z</time>
      </trkpt>
      <trkpt lat="48.25473" lon="-3.48506">
        <ele>116.7</ele>
        <time>2022-06-12T12:54:28Z</time>
      </trkpt>
      <trkpt lat="48.25473" lon="-3.48506">
        <ele>116.7</ele>
        <time>2022-06-12T12:54:29Z</time>
      </trkpt>
      <trkpt lat="48.25473" lon="-3.48506">
        <ele>116.7</ele>
        <time>2022-06-12T12:54:30Z</time>
      </trkpt>
      <trkpt lat="48.25473" lon="-3.48506">
        <ele>116.7</ele>
        <time>2022-06-12T12:54:31Z</time>
      </trkpt>
      <trkpt lat="48.25473" lon="-3.48506">
        <ele>116.7</ele>
        <time>2022-06-12T12:54:32Z</time>
      </trkpt>
      <trkpt lat="48.25473" lon="-3.48506">
        <ele>116.7</ele>
        <time>2022-06-12T12:54:33Z</time>
      </trkpt>
      <trkpt lat="48.25473" lon="-3.48506">
        <ele>116.7</ele>
        <time>2022-06-12T12:54:34Z</time>
      </trkpt>
      <trkpt lat="48.25473" lon="-3.48507">
        <ele>116.7</ele>
        <time>2022-06-12T12:54:35Z</time>
      </trkpt>
      <trkpt lat="48.25473" lon="-3.48507">
        <ele>116.7</ele>
        <time>2022-06-12T12:54:36Z</time>
      </trkpt>
      <trkpt lat="48.25473" lon="-3.48507">
        <ele>116.7</ele>
        <time>2022-06-12T12:54:37Z</time>
      </trkpt>
      <trkpt lat="48.25473" lon="-3.48507">
        <ele>116.7</ele>
        <time>2022-06-12T12:54:38Z</time>
      </trkpt>
      <trkpt lat="48.25473" lon="-3.48507">
        <ele>116.7</ele>
        <time>2022-06-12T12:54:39Z</time>
      </trkpt>
      <trkpt lat="48.25473" lon="-3.48507">
        <ele>116.7</ele>
        <time>2022-06-12T12:54:40Z</time>
      </trkpt>
      <trkpt lat="48.25473" lon="-3.48507">
        <ele>116.7</ele>
        <time>2022-06-12T12:54:41Z</time>
      </trkpt>
      <trkpt lat="48.25473" lon="-3.48507">
        <ele>116.7</ele>
        <time>2022-06-12T12:54:42Z</time>
      </trkpt>
      <trkpt lat="48.25473" lon="-3.48507">
        <ele>116.7</ele>
        <time>2022-06-12T12:54:43Z</time>
      </trkpt>
      <trkpt lat="48.25473" lon="-3.48508">
        <ele>116.7</ele>
        <time>2022-06-12T12:54:44Z</time>
      </trkpt>
      <trkpt lat="48.25473" lon="-3.48508">
        <ele>116.7</ele>
        <time>2022-06-12T12:54:45Z</time>
      </trkpt>
      <trkpt lat="48.25473" lon="-3.48508">
        <ele>116.7</ele>
        <time>2022-06-12T12:54:46Z</time>
      </trkpt>
      <trkpt lat="48.25473" lon="-3.48508">
        <ele>116.7</ele>
        <time>2022-06-12T12:54:47Z</time>
      </trkpt>
      <trkpt lat="48.25473" lon="-3.48508">
        <ele>116.7</ele>
        <time>2022-06-12T12:54:48Z</time>
      </trkpt>
      <trkpt lat="48.25473" lon="-3.48508">
        <ele>116.7</ele>
        <time>2022-06-12T12:54:49Z</time>
      </trkpt>
      <trkpt lat="48.25473" lon="-3.48508">
        <ele>116.7</ele>
        <time>2022-06-12T12:54:50Z</time>
      </trkpt>
      <trkpt lat="48.25473" lon="-3.48508">
        <ele>116.7</ele>
        <time>2022-06-12T12:54:51Z</time>
      </trkpt>
      <trkpt lat="48.25473" lon="-3.48508">
        <ele>116.7</ele>
        <time>2022-06-12T12:54:52Z</time>
      </trkpt>
      <trkpt lat="48.25473" lon="-3.48509">
        <ele>116.7</ele>
        <time>2022-06-12T12:54:53Z</time>
      </trkpt>
      <trkpt lat="48.25474" lon="-3.48509">
        <ele>116.7</ele>
        <time>2022-06-12T12:54:54Z</time>
      </trkpt>
      <trkpt lat="48.25474" lon="-3.48509">
        <ele>116.7</ele>
        <time>2022-06-12T12:54:55Z</time>
      </trkpt>
      <trkpt lat="48.25474" lon="-3.48509">
        <ele>116.7</ele>
        <time>2022-06-12T12:54:56Z</time>
      </trkpt>
      <trkpt lat="48.25474" lon="-3.48509">
        <ele>116.7</ele>
        <time>2022-06-12T12:54:57Z</time>
      </trkpt>
      <trkpt lat="48.25474" lon="-3.48509">
        <ele>116.7</ele>
        <time>2022-06-12T12:54:58Z</time>
      </trkpt>
      <trkpt lat="48.25474" lon="-3.48509">
        <ele>116.7</ele>
        <time>2022-06-12T12:54:59Z</time>
      </trkpt>
      <trkpt lat="48.25474" lon="-3.48509">
        <ele>116.7</ele>
        <time>2022-06-12T12:55:00Z</time>
      </trkpt>
      <trkpt lat="48.25474" lon="-3.48509">
        <ele>116.7</ele>
        <time>2022-06-12T12:55:01Z</time>
      </trkpt>
      <trkpt lat="48.25474" lon="-3.4851">
        <ele>116.7</ele>
        <time>2022-06-12T12:55:02Z</time>
      </trkpt>
      <trkpt lat="48.25474" lon="-3.4851">
        <ele>116.7</ele>
        <time>2022-06-12T12:55:03Z</time>
      </trkpt>
      <trkpt lat="48.25474" lon="-3.4851">
        <ele>116.7</ele>
        <time>2022-06-12T12:55:04Z</time>
      </trkpt>
      <trkpt lat="48.25474" lon="-3.4851">
        <ele>116.7</ele>
        <time>2022-06-12T12:55:05Z</time>
      </trkpt>
      <trkpt lat="48.25474" lon="-3.4851">
        <ele>116.7</ele>
        <time>2022-06-12T12:55:06Z</time>
      </trkpt>
      <trkpt lat="48.25474" lon="-3.4851">
        <ele>116.7</ele>
        <time>2022-06-12T12:55:07Z</time>
      </trkpt>
      <trkpt lat="48.25474" lon="-3.4851">
        <ele>116.7</ele>
        <time>2022-06-12T12:55:08Z</time>
      </trkpt>
      <trkpt lat="48.25474" lon="-3.4851">
        <ele>116.7</ele>
        <time>2022-06-12T12:55:09Z</time>
      </trkpt>
      <trkpt lat="48.25474" lon="-3.4851">
        <ele>116.7</ele>
        <time>2022-06-12T12:55:10Z</time>
      </trkpt>
      <trkpt lat="48.25474" lon="-3.48511">
        <ele>116.7</ele>
        <time>2022-06-12T12:55:11Z</time>
      </trkpt>
      <trkpt lat="48.25474" lon="-3.48514">
        <ele>116.7</ele>
        <time>2022-06-12T12:55:12Z</time>
      </trkpt>
      <trkpt lat="48.25474" lon="-3.48515">
        <ele>116.7</ele>
        <time>2022-06-12T12:55:13Z</time>
      </trkpt>
      <trkpt lat="48.25474" lon="-3.48516">
        <ele>116.7</ele>
        <time>2022-06-12T12:55:14Z</time>
      </trkpt>
      <trkpt lat="48.25474" lon="-3.48516">
        <ele>116.7</ele>
        <time>2022-06-12T12:55:15Z</time>
      </trkpt>
      <trkpt lat="48.25474" lon="-3.48516">
        <ele>116.7</ele>
        <time>2022-06-12T12:55:16Z</time>
      </trkpt>
      <trkpt lat="48.25475" lon="-3.48516">
        <ele>116.7</ele>
        <time>2022-06-12T12:55:17Z</time>
      </trkpt>
      <trkpt lat="48.25475" lon="-3.48516">
        <ele>116.7</ele>
        <time>2022-06-12T12:55:18Z</time>
      </trkpt>
      <trkpt lat="48.25475" lon="-3.48514">
        <ele>116.7</ele>
        <time>2022-06-12T12:55:19Z</time>
      </trkpt>
      <trkpt lat="48.25474" lon="-3.48513">
        <ele>116.7</ele>
        <time>2022-06-12T12:55:20Z</time>
      </trkpt>
      <trkpt lat="48.25474" lon="-3.48512">
        <ele>116.7</ele>
        <time>2022-06-12T12:55:21Z</time>
      </trkpt>
      <trkpt lat="48.25474" lon="-3.48511">
        <ele>116.7</ele>
        <time>2022-06-12T12:55:22Z</time>
      </trkpt>
      <trkpt lat="48.25475" lon="-3.48509">
        <ele>116.7</ele>
        <time>2022-06-12T12:55:23Z</time>
      </trkpt>
      <trkpt lat="48.25476" lon="-3.48507">
        <ele>116.7</ele>
        <time>2022-06-12T12:55:25Z</time>
      </trkpt>
      <trkpt lat="48.25477" lon="-3.48506">
        <ele>116.7</ele>
        <time>2022-06-12T12:55:26Z</time>
      </trkpt>
      <trkpt lat="48.2548" lon="-3.48504">
        <ele>116.7</ele>
        <time>2022-06-12T12:55:27Z</time>
      </trkpt>
      <trkpt lat="48.25481" lon="-3.48504">
        <ele>116.7</ele>
        <time>2022-06-12T12:55:28Z</time>
      </trkpt>
      <trkpt lat="48.25483" lon="-3.48503">
        <ele>116.7</ele>
        <time>2022-06-12T12:55:29Z</time>
      </trkpt>
      <trkpt lat="48.25484" lon="-3.48503">
        <ele>116.7</ele>
        <time>2022-06-12T12:55:31Z</time>
      </trkpt>
      <trkpt lat="48.25486" lon="-3.48503">
        <ele>116.8</ele>
        <time>2022-06-12T12:55:32Z</time>
      </trkpt>
      <trkpt lat="48.25487" lon="-3.48502">
        <ele>116.8</ele>
        <time>2022-06-12T12:55:33Z</time>
      </trkpt>
      <trkpt lat="48.25488" lon="-3.48501">
        <ele>116.8</ele>
        <time>2022-06-12T12:55:34Z</time>
      </trkpt>
      <trkpt lat="48.25489" lon="-3.485">
        <ele>116.8</ele>
        <time>2022-06-12T12:55:35Z</time>
      </trkpt>
      <trkpt lat="48.2549" lon="-3.48499">
        <ele>116.8</ele>
        <time>2022-06-12T12:55:36Z</time>
      </trkpt>
      <trkpt lat="48.25491" lon="-3.48498">
        <ele>116.8</ele>
        <time>2022-06-12T12:55:37Z</time>
      </trkpt>
      <trkpt lat="48.25492" lon="-3.48498">
        <ele>116.8</ele>
        <time>2022-06-12T12:55:38Z</time>
      </trkpt>
      <trkpt lat="48.25493" lon="-3.48497">
        <ele>116.8</ele>
        <time>2022-06-12T12:55:39Z</time>
      </trkpt>
      <trkpt lat="48.25494" lon="-3.48496">
        <ele>116.8</ele>
        <time>2022-06-12T12:55:40Z</time>
      </trkpt>
      <trkpt lat="48.25495" lon="-3.48495">
        <ele>116.8</ele>
        <time>2022-06-12T12:55:41Z</time>
      </trkpt>
      <trkpt lat="48.25497" lon="-3.48494">
        <ele>116.8</ele>
        <time>2022-06-12T12:55:42Z</time>
      </trkpt>
      <trkpt lat="48.25498" lon="-3.48493">
        <ele>116.9</ele>
        <time>2022-06-12T12:55:43Z</time>
      </trkpt>
      <trkpt lat="48.255" lon="-3.48492">
        <ele>116.9</ele>
        <time>2022-06-12T12:55:45Z</time>
      </trkpt>
      <trkpt lat="48.25501" lon="-3.48491">
        <ele>116.9</ele>
        <time>2022-06-12T12:55:46Z</time>
      </trkpt>
      <trkpt lat="48.25502" lon="-3.4849">
        <ele>116.9</ele>
        <time>2022-06-12T12:55:47Z</time>
      </trkpt>
      <trkpt lat="48.25504" lon="-3.48488">
        <ele>116.9</ele>
        <time>2022-06-12T12:55:48Z</time>
      </trkpt>
      <trkpt lat="48.25505" lon="-3.48487">
        <ele>116.9</ele>
        <time>2022-06-12T12:55:49Z</time>
      </trkpt>
      <trkpt lat="48.25506" lon="-3.48486">
        <ele>116.9</ele>
        <time>2022-06-12T12:55:50Z</time>
      </trkpt>
      <trkpt lat="48.25508" lon="-3.48485">
        <ele>116.9</ele>
        <time>2022-06-12T12:55:51Z</time>
      </trkpt>
      <trkpt lat="48.25509" lon="-3.48484">
        <ele>117</ele>
        <time>2022-06-12T12:55:52Z</time>
      </trkpt>
      <trkpt lat="48.2551" lon="-3.48482">
        <ele>117</ele>
        <time>2022-06-12T12:55:53Z</time>
      </trkpt>
      <trkpt lat="48.25511" lon="-3.48481">
        <ele>117</ele>
        <time>2022-06-12T12:55:54Z</time>
      </trkpt>
      <trkpt lat="48.25513" lon="-3.48479">
        <ele>117</ele>
        <time>2022-06-12T12:55:56Z</time>
      </trkpt>
      <trkpt lat="48.25514" lon="-3.48477">
        <ele>117</ele>
        <time>2022-06-12T12:55:57Z</time>
      </trkpt>
      <trkpt lat="48.25515" lon="-3.48476">
        <ele>117</ele>
        <time>2022-06-12T12:55:58Z</time>
      </trkpt>
      <trkpt lat="48.25516" lon="-3.48472">
        <ele>117</ele>
        <time>2022-06-12T12:55:59Z</time>
      </trkpt>
      <trkpt lat="48.25517" lon="-3.48471">
        <ele>117</ele>
        <time>2022-06-12T12:56:00Z</time>
      </trkpt>
      <trkpt lat="48.25518" lon="-3.48467">
        <ele>117.1</ele>
        <time>2022-06-12T12:56:02Z</time>
      </trkpt>
      <trkpt lat="48.25519" lon="-3.48466">
        <ele>117.1</ele>
        <time>2022-06-12T12:56:03Z</time>
      </trkpt>
      <trkpt lat="48.2552" lon="-3.48464">
        <ele>117.1</ele>
        <time>2022-06-12T12:56:04Z</time>
      </trkpt>
      <trkpt lat="48.25521" lon="-3.48462">
        <ele>117.1</ele>
        <time>2022-06-12T12:56:05Z</time>
      </trkpt>
      <trkpt lat="48.25522" lon="-3.48458">
        <ele>117.1</ele>
        <time>2022-06-12T12:56:06Z</time>
      </trkpt>
      <trkpt lat="48.25522" lon="-3.48457">
        <ele>117.1</ele>
        <time>2022-06-12T12:56:07Z</time>
      </trkpt>
      <trkpt lat="48.25523" lon="-3.48453">
        <ele>117.2</ele>
        <time>2022-06-12T12:56:08Z</time>
      </trkpt>
      <trkpt lat="48.25523" lon="-3.48451">
        <ele>117.2</ele>
        <time>2022-06-12T12:56:09Z</time>
      </trkpt>
      <trkpt lat="48.25524" lon="-3.48447">
        <ele>117.2</ele>
        <time>2022-06-12T12:56:10Z</time>
      </trkpt>
      <trkpt lat="48.25524" lon="-3.48446">
        <ele>117.2</ele>
        <time>2022-06-12T12:56:11Z</time>
      </trkpt>
      <trkpt lat="48.25525" lon="-3.48442">
        <ele>117.2</ele>
        <time>2022-06-12T12:56:13Z</time>
      </trkpt>
      <trkpt lat="48.25525" lon="-3.48441">
        <ele>117.2</ele>
        <time>2022-06-12T12:56:14Z</time>
      </trkpt>
      <trkpt lat="48.25526" lon="-3.48438">
        <ele>117.2</ele>
        <time>2022-06-12T12:56:15Z</time>
      </trkpt>
      <trkpt lat="48.25527" lon="-3.48436">
        <ele>117.3</ele>
        <time>2022-06-12T12:56:16Z</time>
      </trkpt>
      <trkpt lat="48.25527" lon="-3.48433">
        <ele>117.3</ele>
        <time>2022-06-12T12:56:17Z</time>
      </trkpt>
      <trkpt lat="48.25528" lon="-3.48431">
        <ele>117.3</ele>
        <time>2022-06-12T12:56:18Z</time>
      </trkpt>
      <trkpt lat="48.25528" lon="-3.48429">
        <ele>117.3</ele>
        <time>2022-06-12T12:56:19Z</time>
      </trkpt>
      <trkpt lat="48.25529" lon="-3.48427">
        <ele>117.3</ele>
        <time>2022-06-12T12:56:20Z</time>
      </trkpt>
      <trkpt lat="48.25529" lon="-3.48424">
        <ele>117.2</ele>
        <time>2022-06-12T12:56:21Z</time>
      </trkpt>
      <trkpt lat="48.25529" lon="-3.48423">
        <ele>117.3</ele>
        <time>2022-06-12T12:56:22Z</time>
      </trkpt>
      <trkpt lat="48.25529" lon="-3.48422">
        <ele>117.3</ele>
        <time>2022-06-12T12:56:23Z</time>
      </trkpt>
      <trkpt lat="48.2553" lon="-3.4842">
        <ele>117.3</ele>
        <time>2022-06-12T12:56:24Z</time>
      </trkpt>
      <trkpt lat="48.2553" lon="-3.48417">
        <ele>117.3</ele>
        <time>2022-06-12T12:56:25Z</time>
      </trkpt>
      <trkpt lat="48.25531" lon="-3.48415">
        <ele>117.3</ele>
        <time>2022-06-12T12:56:26Z</time>
      </trkpt>
      <trkpt lat="48.25531" lon="-3.48412">
        <ele>117.3</ele>
        <time>2022-06-12T12:56:27Z</time>
      </trkpt>
      <trkpt lat="48.25531" lon="-3.4841">
        <ele>117.3</ele>
        <time>2022-06-12T12:56:29Z</time>
      </trkpt>
      <trkpt lat="48.25532" lon="-3.48408">
        <ele>117.4</ele>
        <time>2022-06-12T12:56:30Z</time>
      </trkpt>
      <trkpt lat="48.25532" lon="-3.48406">
        <ele>117.4</ele>
        <time>2022-06-12T12:56:31Z</time>
      </trkpt>
      <trkpt lat="48.25532" lon="-3.48404">
        <ele>117.4</ele>
        <time>2022-06-12T12:56:32Z</time>
      </trkpt>
      <trkpt lat="48.25532" lon="-3.48401">
        <ele>117.4</ele>
        <time>2022-06-12T12:56:33Z</time>
      </trkpt>
      <trkpt lat="48.25532" lon="-3.48399">
        <ele>117.4</ele>
        <time>2022-06-12T12:56:34Z</time>
      </trkpt>
      <trkpt lat="48.25533" lon="-3.48397">
        <ele>117.4</ele>
        <time>2022-06-12T12:56:35Z</time>
      </trkpt>
      <trkpt lat="48.25533" lon="-3.48395">
        <ele>117.4</ele>
        <time>2022-06-12T12:56:36Z</time>
      </trkpt>
      <trkpt lat="48.25533" lon="-3.48393">
        <ele>117.5</ele>
        <time>2022-06-12T12:56:37Z</time>
      </trkpt>
      <trkpt lat="48.25533" lon="-3.48392">
        <ele>117.5</ele>
        <time>2022-06-12T12:56:38Z</time>
      </trkpt>
      <trkpt lat="48.25533" lon="-3.4839">
        <ele>117.5</ele>
        <time>2022-06-12T12:56:39Z</time>
      </trkpt>
      <trkpt lat="48.25534" lon="-3.48388">
        <ele>117.5</ele>
        <time>2022-06-12T12:56:40Z</time>
      </trkpt>
      <trkpt lat="48.25534" lon="-3.48386">
        <ele>117.5</ele>
        <time>2022-06-12T12:56:41Z</time>
      </trkpt>
      <trkpt lat="48.25534" lon="-3.48385">
        <ele>117.5</ele>
        <time>2022-06-12T12:56:42Z</time>
      </trkpt>
      <trkpt lat="48.25534" lon="-3.48383">
        <ele>117.5</ele>
        <time>2022-06-12T12:56:44Z</time>
      </trkpt>
      <trkpt lat="48.25535" lon="-3.48381">
        <ele>117.5</ele>
        <time>2022-06-12T12:56:45Z</time>
      </trkpt>
      <trkpt lat="48.25535" lon="-3.4838">
        <ele>117.6</ele>
        <time>2022-06-12T12:56:46Z</time>
      </trkpt>
      <trkpt lat="48.25535" lon="-3.48379">
        <ele>117.6</ele>
        <time>2022-06-12T12:56:47Z</time>
      </trkpt>
      <trkpt lat="48.25536" lon="-3.48377">
        <ele>117.6</ele>
        <time>2022-06-12T12:56:48Z</time>
      </trkpt>
      <trkpt lat="48.25536" lon="-3.48375">
        <ele>117.6</ele>
        <time>2022-06-12T12:56:50Z</time>
      </trkpt>
      <trkpt lat="48.25537" lon="-3.48374">
        <ele>117.6</ele>
        <time>2022-06-12T12:56:51Z</time>
      </trkpt>
      <trkpt lat="48.25537" lon="-3.48373">
        <ele>117.6</ele>
        <time>2022-06-12T12:56:52Z</time>
      </trkpt>
      <trkpt lat="48.25538" lon="-3.48371">
        <ele>117.6</ele>
        <time>2022-06-12T12:56:53Z</time>
      </trkpt>
      <trkpt lat="48.25538" lon="-3.4837">
        <ele>117.6</ele>
        <time>2022-06-12T12:56:54Z</time>
      </trkpt>
      <trkpt lat="48.25538" lon="-3.48368">
        <ele>117.6</ele>
        <time>2022-06-12T12:56:55Z</time>
      </trkpt>
      <trkpt lat="48.25539" lon="-3.48365">
        <ele>117.6</ele>
        <time>2022-06-12T12:56:56Z</time>
      </trkpt>
      <trkpt lat="48.25539" lon="-3.48364">
        <ele>117.7</ele>
        <time>2022-06-12T12:56:58Z</time>
      </trkpt>
      <trkpt lat="48.2554" lon="-3.48363">
        <ele>117.7</ele>
        <time>2022-06-12T12:56:59Z</time>
      </trkpt>
      <trkpt lat="48.2554" lon="-3.48362">
        <ele>117.7</ele>
        <time>2022-06-12T12:57:00Z</time>
      </trkpt>
      <trkpt lat="48.25541" lon="-3.4836">
        <ele>117.7</ele>
        <time>2022-06-12T12:57:01Z</time>
      </trkpt>
      <trkpt lat="48.25542" lon="-3.48359">
        <ele>117.7</ele>
        <time>2022-06-12T12:57:02Z</time>
      </trkpt>
      <trkpt lat="48.25542" lon="-3.48358">
        <ele>117.7</ele>
        <time>2022-06-12T12:57:03Z</time>
      </trkpt>
      <trkpt lat="48.25543" lon="-3.48357">
        <ele>117.7</ele>
        <time>2022-06-12T12:57:04Z</time>
      </trkpt>
      <trkpt lat="48.25544" lon="-3.48356">
        <ele>117.7</ele>
        <time>2022-06-12T12:57:05Z</time>
      </trkpt>
      <trkpt lat="48.25544" lon="-3.48354">
        <ele>117.7</ele>
        <time>2022-06-12T12:57:07Z</time>
      </trkpt>
      <trkpt lat="48.25545" lon="-3.48353">
        <ele>117.7</ele>
        <time>2022-06-12T12:57:08Z</time>
      </trkpt>
      <trkpt lat="48.25546" lon="-3.48353">
        <ele>117.7</ele>
        <time>2022-06-12T12:57:09Z</time>
      </trkpt>
      <trkpt lat="48.25546" lon="-3.48352">
        <ele>117.7</ele>
        <time>2022-06-12T12:57:10Z</time>
      </trkpt>
      <trkpt lat="48.25547" lon="-3.48351">
        <ele>117.7</ele>
        <time>2022-06-12T12:57:11Z</time>
      </trkpt>
      <trkpt lat="48.25547" lon="-3.4835">
        <ele>117.7</ele>
        <time>2022-06-12T12:57:12Z</time>
      </trkpt>
      <trkpt lat="48.25548" lon="-3.48349">
        <ele>117.7</ele>
        <time>2022-06-12T12:57:13Z</time>
      </trkpt>
      <trkpt lat="48.25548" lon="-3.48347">
        <ele>117.7</ele>
        <time>2022-06-12T12:57:14Z</time>
      </trkpt>
      <trkpt lat="48.25548" lon="-3.48346">
        <ele>117.7</ele>
        <time>2022-06-12T12:57:16Z</time>
      </trkpt>
      <trkpt lat="48.25548" lon="-3.48344">
        <ele>117.8</ele>
        <time>2022-06-12T12:57:17Z</time>
      </trkpt>
      <trkpt lat="48.25548" lon="-3.48343">
        <ele>117.8</ele>
        <time>2022-06-12T12:57:18Z</time>
      </trkpt>
      <trkpt lat="48.25548" lon="-3.48341">
        <ele>117.8</ele>
        <time>2022-06-12T12:57:19Z</time>
      </trkpt>
      <trkpt lat="48.25548" lon="-3.4834">
        <ele>117.8</ele>
        <time>2022-06-12T12:57:20Z</time>
      </trkpt>
      <trkpt lat="48.25548" lon="-3.48338">
        <ele>117.8</ele>
        <time>2022-06-12T12:57:21Z</time>
      </trkpt>
      <trkpt lat="48.25547" lon="-3.48337">
        <ele>117.8</ele>
        <time>2022-06-12T12:57:22Z</time>
      </trkpt>
      <trkpt lat="48.25547" lon="-3.48335">
        <ele>117.8</ele>
        <time>2022-06-12T12:57:23Z</time>
      </trkpt>
      <trkpt lat="48.25546" lon="-3.48333">
        <ele>117.8</ele>
        <time>2022-06-12T12:57:24Z</time>
      </trkpt>
      <trkpt lat="48.25546" lon="-3.48331">
        <ele>117.8</ele>
        <time>2022-06-12T12:57:26Z</time>
      </trkpt>
      <trkpt lat="48.25546" lon="-3.4833">
        <ele>117.8</ele>
        <time>2022-06-12T12:57:27Z</time>
      </trkpt>
      <trkpt lat="48.25545" lon="-3.48328">
        <ele>117.8</ele>
        <time>2022-06-12T12:57:28Z</time>
      </trkpt>
      <trkpt lat="48.25545" lon="-3.48327">
        <ele>117.8</ele>
        <time>2022-06-12T12:57:29Z</time>
      </trkpt>
      <trkpt lat="48.25544" lon="-3.48324">
        <ele>117.8</ele>
        <time>2022-06-12T12:57:30Z</time>
      </trkpt>
      <trkpt lat="48.25544" lon="-3.48322">
        <ele>117.8</ele>
        <time>2022-06-12T12:57:31Z</time>
      </trkpt>
      <trkpt lat="48.25544" lon="-3.48321">
        <ele>117.8</ele>
        <time>2022-06-12T12:57:32Z</time>
      </trkpt>
      <trkpt lat="48.25544" lon="-3.48319">
        <ele>117.9</ele>
        <time>2022-06-12T12:57:34Z</time>
      </trkpt>
      <trkpt lat="48.25543" lon="-3.48318">
        <ele>117.9</ele>
        <time>2022-06-12T12:57:35Z</time>
      </trkpt>
      <trkpt lat="48.25543" lon="-3.48316">
        <ele>117.9</ele>
        <time>2022-06-12T12:57:36Z</time>
      </trkpt>
      <trkpt lat="48.25543" lon="-3.48315">
        <ele>117.9</ele>
        <time>2022-06-12T12:57:37Z</time>
      </trkpt>
      <trkpt lat="48.25543" lon="-3.48313">
        <ele>117.9</ele>
        <time>2022-06-12T12:57:38Z</time>
      </trkpt>
      <trkpt lat="48.25542" lon="-3.48312">
        <ele>117.9</ele>
        <time>2022-06-12T12:57:39Z</time>
      </trkpt>
      <trkpt lat="48.25542" lon="-3.4831">
        <ele>117.9</ele>
        <time>2022-06-12T12:57:40Z</time>
      </trkpt>
      <trkpt lat="48.25542" lon="-3.48308">
        <ele>117.9</ele>
        <time>2022-06-12T12:57:41Z</time>
      </trkpt>
      <trkpt lat="48.25542" lon="-3.48307">
        <ele>117.9</ele>
        <time>2022-06-12T12:57:42Z</time>
      </trkpt>
      <trkpt lat="48.25542" lon="-3.48306">
        <ele>117.9</ele>
        <time>2022-06-12T12:57:43Z</time>
      </trkpt>
      <trkpt lat="48.25541" lon="-3.48304">
        <ele>117.9</ele>
        <time>2022-06-12T12:57:44Z</time>
      </trkpt>
      <trkpt lat="48.25541" lon="-3.48302">
        <ele>117.9</ele>
        <time>2022-06-12T12:57:45Z</time>
      </trkpt>
      <trkpt lat="48.25541" lon="-3.48299">
        <ele>117.9</ele>
        <time>2022-06-12T12:57:46Z</time>
      </trkpt>
      <trkpt lat="48.2554" lon="-3.48298">
        <ele>117.9</ele>
        <time>2022-06-12T12:57:47Z</time>
      </trkpt>
      <trkpt lat="48.2554" lon="-3.48297">
        <ele>117.9</ele>
        <time>2022-06-12T12:57:48Z</time>
      </trkpt>
      <trkpt lat="48.2554" lon="-3.48294">
        <ele>117.9</ele>
        <time>2022-06-12T12:57:50Z</time>
      </trkpt>
      <trkpt lat="48.25539" lon="-3.48292">
        <ele>117.9</ele>
        <time>2022-06-12T12:57:51Z</time>
      </trkpt>
      <trkpt lat="48.25539" lon="-3.48291">
        <ele>117.9</ele>
        <time>2022-06-12T12:57:52Z</time>
      </trkpt>
      <trkpt lat="48.25539" lon="-3.4829">
        <ele>117.9</ele>
        <time>2022-06-12T12:57:53Z</time>
      </trkpt>
      <trkpt lat="48.25539" lon="-3.48288">
        <ele>117.9</ele>
        <time>2022-06-12T12:57:54Z</time>
      </trkpt>
      <trkpt lat="48.25539" lon="-3.48286">
        <ele>117.9</ele>
        <time>2022-06-12T12:57:55Z</time>
      </trkpt>
      <trkpt lat="48.25538" lon="-3.48285">
        <ele>117.9</ele>
        <time>2022-06-12T12:57:56Z</time>
      </trkpt>
      <trkpt lat="48.25538" lon="-3.48283">
        <ele>117.9</ele>
        <time>2022-06-12T12:57:57Z</time>
      </trkpt>
      <trkpt lat="48.25537" lon="-3.48281">
        <ele>117.9</ele>
        <time>2022-06-12T12:57:59Z</time>
      </trkpt>
      <trkpt lat="48.25537" lon="-3.48279">
        <ele>117.9</ele>
        <time>2022-06-12T12:58:00Z</time>
      </trkpt>
      <trkpt lat="48.25537" lon="-3.48278">
        <ele>117.9</ele>
        <time>2022-06-12T12:58:01Z</time>
      </trkpt>
      <trkpt lat="48.25536" lon="-3.48276">
        <ele>117.9</ele>
        <time>2022-06-12T12:58:02Z</time>
      </trkpt>
      <trkpt lat="48.25536" lon="-3.48275">
        <ele>117.9</ele>
        <time>2022-06-12T12:58:03Z</time>
      </trkpt>
      <trkpt lat="48.25535" lon="-3.48273">
        <ele>117.9</ele>
        <time>2022-06-12T12:58:04Z</time>
      </trkpt>
      <trkpt lat="48.25535" lon="-3.48271">
        <ele>117.9</ele>
        <time>2022-06-12T12:58:06Z</time>
      </trkpt>
      <trkpt lat="48.25534" lon="-3.48268">
        <ele>117.9</ele>
        <time>2022-06-12T12:58:07Z</time>
      </trkpt>
      <trkpt lat="48.25533" lon="-3.48267">
        <ele>117.9</ele>
        <time>2022-06-12T12:58:08Z</time>
      </trkpt>
      <trkpt lat="48.25533" lon="-3.48266">
        <ele>117.9</ele>
        <time>2022-06-12T12:58:09Z</time>
      </trkpt>
      <trkpt lat="48.25532" lon="-3.48265">
        <ele>117.9</ele>
        <time>2022-06-12T12:58:10Z</time>
      </trkpt>
      <trkpt lat="48.25532" lon="-3.48263">
        <ele>117.9</ele>
        <time>2022-06-12T12:58:11Z</time>
      </trkpt>
      <trkpt lat="48.25532" lon="-3.48262">
        <ele>117.9</ele>
        <time>2022-06-12T12:58:12Z</time>
      </trkpt>
      <trkpt lat="48.2553" lon="-3.48259">
        <ele>117.9</ele>
        <time>2022-06-12T12:58:13Z</time>
      </trkpt>
      <trkpt lat="48.2553" lon="-3.48258">
        <ele>117.9</ele>
        <time>2022-06-12T12:58:14Z</time>
      </trkpt>
      <trkpt lat="48.25529" lon="-3.48257">
        <ele>117.9</ele>
        <time>2022-06-12T12:58:15Z</time>
      </trkpt>
      <trkpt lat="48.25528" lon="-3.48253">
        <ele>117.9</ele>
        <time>2022-06-12T12:58:16Z</time>
      </trkpt>
      <trkpt lat="48.25528" lon="-3.48252">
        <ele>117.9</ele>
        <time>2022-06-12T12:58:18Z</time>
      </trkpt>
      <trkpt lat="48.25527" lon="-3.4825">
        <ele>117.9</ele>
        <time>2022-06-12T12:58:19Z</time>
      </trkpt>
      <trkpt lat="48.25527" lon="-3.48249">
        <ele>117.9</ele>
        <time>2022-06-12T12:58:20Z</time>
      </trkpt>
      <trkpt lat="48.25526" lon="-3.48248">
        <ele>117.9</ele>
        <time>2022-06-12T12:58:21Z</time>
      </trkpt>
      <trkpt lat="48.25525" lon="-3.48246">
        <ele>117.9</ele>
        <time>2022-06-12T12:58:22Z</time>
      </trkpt>
      <trkpt lat="48.25525" lon="-3.48244">
        <ele>117.9</ele>
        <time>2022-06-12T12:58:23Z</time>
      </trkpt>
      <trkpt lat="48.25524" lon="-3.48242">
        <ele>117.9</ele>
        <time>2022-06-12T12:58:24Z</time>
      </trkpt>
      <trkpt lat="48.25523" lon="-3.48239">
        <ele>117.9</ele>
        <time>2022-06-12T12:58:26Z</time>
      </trkpt>
      <trkpt lat="48.25522" lon="-3.48237">
        <ele>117.9</ele>
        <time>2022-06-12T12:58:27Z</time>
      </trkpt>
      <trkpt lat="48.25522" lon="-3.48235">
        <ele>117.9</ele>
        <time>2022-06-12T12:58:28Z</time>
      </trkpt>
      <trkpt lat="48.25521" lon="-3.48233">
        <ele>118</ele>
        <time>2022-06-12T12:58:29Z</time>
      </trkpt>
      <trkpt lat="48.2552" lon="-3.48231">
        <ele>118</ele>
        <time>2022-06-12T12:58:30Z</time>
      </trkpt>
      <trkpt lat="48.2552" lon="-3.48229">
        <ele>118</ele>
        <time>2022-06-12T12:58:31Z</time>
      </trkpt>
      <trkpt lat="48.25519" lon="-3.48227">
        <ele>118</ele>
        <time>2022-06-12T12:58:32Z</time>
      </trkpt>
      <trkpt lat="48.25519" lon="-3.48226">
        <ele>118</ele>
        <time>2022-06-12T12:58:33Z</time>
      </trkpt>
      <trkpt lat="48.25518" lon="-3.48224">
        <ele>118</ele>
        <time>2022-06-12T12:58:34Z</time>
      </trkpt>
      <trkpt lat="48.25517" lon="-3.48222">
        <ele>118</ele>
        <time>2022-06-12T12:58:36Z</time>
      </trkpt>
      <trkpt lat="48.25517" lon="-3.48218">
        <ele>118</ele>
        <time>2022-06-12T12:58:37Z</time>
      </trkpt>
      <trkpt lat="48.25517" lon="-3.48217">
        <ele>118</ele>
        <time>2022-06-12T12:58:38Z</time>
      </trkpt>
      <trkpt lat="48.25517" lon="-3.48216">
        <ele>118</ele>
        <time>2022-06-12T12:58:39Z</time>
      </trkpt>
      <trkpt lat="48.25516" lon="-3.48214">
        <ele>118</ele>
        <time>2022-06-12T12:58:40Z</time>
      </trkpt>
      <trkpt lat="48.25516" lon="-3.48211">
        <ele>118</ele>
        <time>2022-06-12T12:58:41Z</time>
      </trkpt>
      <trkpt lat="48.25516" lon="-3.48208">
        <ele>118</ele>
        <time>2022-06-12T12:58:42Z</time>
      </trkpt>
      <trkpt lat="48.25516" lon="-3.48207">
        <ele>118</ele>
        <time>2022-06-12T12:58:43Z</time>
      </trkpt>
      <trkpt lat="48.25516" lon="-3.48206">
        <ele>118</ele>
        <time>2022-06-12T12:58:44Z</time>
      </trkpt>
      <trkpt lat="48.25516" lon="-3.48203">
        <ele>118</ele>
        <time>2022-06-12T12:58:46Z</time>
      </trkpt>
      <trkpt lat="48.25516" lon="-3.48202">
        <ele>118</ele>
        <time>2022-06-12T12:58:47Z</time>
      </trkpt>
      <trkpt lat="48.25516" lon="-3.482">
        <ele>118</ele>
        <time>2022-06-12T12:58:48Z</time>
      </trkpt>
      <trkpt lat="48.25516" lon="-3.48198">
        <ele>118</ele>
        <time>2022-06-12T12:58:49Z</time>
      </trkpt>
      <trkpt lat="48.25516" lon="-3.48196">
        <ele>118</ele>
        <time>2022-06-12T12:58:50Z</time>
      </trkpt>
      <trkpt lat="48.25517" lon="-3.48195">
        <ele>118</ele>
        <time>2022-06-12T12:58:51Z</time>
      </trkpt>
      <trkpt lat="48.25517" lon="-3.48193">
        <ele>118</ele>
        <time>2022-06-12T12:58:52Z</time>
      </trkpt>
      <trkpt lat="48.25517" lon="-3.48191">
        <ele>118</ele>
        <time>2022-06-12T12:58:53Z</time>
      </trkpt>
      <trkpt lat="48.25517" lon="-3.48189">
        <ele>118</ele>
        <time>2022-06-12T12:58:54Z</time>
      </trkpt>
      <trkpt lat="48.25517" lon="-3.48187">
        <ele>118</ele>
        <time>2022-06-12T12:58:55Z</time>
      </trkpt>
      <trkpt lat="48.25517" lon="-3.48185">
        <ele>118</ele>
        <time>2022-06-12T12:58:56Z</time>
      </trkpt>
      <trkpt lat="48.25517" lon="-3.48183">
        <ele>118</ele>
        <time>2022-06-12T12:58:57Z</time>
      </trkpt>
      <trkpt lat="48.25517" lon="-3.48181">
        <ele>118</ele>
        <time>2022-06-12T12:58:59Z</time>
      </trkpt>
      <trkpt lat="48.25516" lon="-3.48179">
        <ele>118</ele>
        <time>2022-06-12T12:59:00Z</time>
      </trkpt>
      <trkpt lat="48.25516" lon="-3.48178">
        <ele>118</ele>
        <time>2022-06-12T12:59:01Z</time>
      </trkpt>
      <trkpt lat="48.25516" lon="-3.48176">
        <ele>118.1</ele>
        <time>2022-06-12T12:59:02Z</time>
      </trkpt>
      <trkpt lat="48.25515" lon="-3.48173">
        <ele>118.1</ele>
        <time>2022-06-12T12:59:03Z</time>
      </trkpt>
      <trkpt lat="48.25515" lon="-3.48172">
        <ele>118.1</ele>
        <time>2022-06-12T12:59:04Z</time>
      </trkpt>
      <trkpt lat="48.25515" lon="-3.48171">
        <ele>118.1</ele>
        <time>2022-06-12T12:59:05Z</time>
      </trkpt>
      <trkpt lat="48.25514" lon="-3.48168">
        <ele>118.1</ele>
        <time>2022-06-12T12:59:06Z</time>
      </trkpt>
      <trkpt lat="48.25514" lon="-3.48167">
        <ele>118.1</ele>
        <time>2022-06-12T12:59:07Z</time>
      </trkpt>
      <trkpt lat="48.25514" lon="-3.48166">
        <ele>118.1</ele>
        <time>2022-06-12T12:59:08Z</time>
      </trkpt>
      <trkpt lat="48.25513" lon="-3.48163">
        <ele>118.1</ele>
        <time>2022-06-12T12:59:09Z</time>
      </trkpt>
      <trkpt lat="48.25513" lon="-3.48162">
        <ele>118.1</ele>
        <time>2022-06-12T12:59:10Z</time>
      </trkpt>
      <trkpt lat="48.25512" lon="-3.48161">
        <ele>118.1</ele>
        <time>2022-06-12T12:59:11Z</time>
      </trkpt>
      <trkpt lat="48.25511" lon="-3.48158">
        <ele>118.1</ele>
        <time>2022-06-12T12:59:12Z</time>
      </trkpt>
      <trkpt lat="48.25511" lon="-3.48156">
        <ele>118.1</ele>
        <time>2022-06-12T12:59:13Z</time>
      </trkpt>
      <trkpt lat="48.2551" lon="-3.48155">
        <ele>118.1</ele>
        <time>2022-06-12T12:59:14Z</time>
      </trkpt>
      <trkpt lat="48.2551" lon="-3.48153">
        <ele>118.1</ele>
        <time>2022-06-12T12:59:15Z</time>
      </trkpt>
      <trkpt lat="48.25509" lon="-3.48152">
        <ele>118.1</ele>
        <time>2022-06-12T12:59:16Z</time>
      </trkpt>
      <trkpt lat="48.25508" lon="-3.48149">
        <ele>118.1</ele>
        <time>2022-06-12T12:59:17Z</time>
      </trkpt>
      <trkpt lat="48.25507" lon="-3.48148">
        <ele>118.1</ele>
        <time>2022-06-12T12:59:19Z</time>
      </trkpt>
      <trkpt lat="48.25507" lon="-3.48147">
        <ele>118.1</ele>
        <time>2022-06-12T12:59:20Z</time>
      </trkpt>
      <trkpt lat="48.25506" lon="-3.48144">
        <ele>118.1</ele>
        <time>2022-06-12T12:59:21Z</time>
      </trkpt>
      <trkpt lat="48.25505" lon="-3.48143">
        <ele>118.1</ele>
        <time>2022-06-12T12:59:22Z</time>
      </trkpt>
      <trkpt lat="48.25505" lon="-3.48142">
        <ele>118.1</ele>
        <time>2022-06-12T12:59:23Z</time>
      </trkpt>
      <trkpt lat="48.25503" lon="-3.4814">
        <ele>118.1</ele>
        <time>2022-06-12T12:59:24Z</time>
      </trkpt>
      <trkpt lat="48.25503" lon="-3.48139">
        <ele>118.1</ele>
        <time>2022-06-12T12:59:25Z</time>
      </trkpt>
      <trkpt lat="48.25502" lon="-3.48138">
        <ele>118.1</ele>
        <time>2022-06-12T12:59:26Z</time>
      </trkpt>
      <trkpt lat="48.25501" lon="-3.48135">
        <ele>118.1</ele>
        <time>2022-06-12T12:59:27Z</time>
      </trkpt>
      <trkpt lat="48.25501" lon="-3.48134">
        <ele>118.1</ele>
        <time>2022-06-12T12:59:28Z</time>
      </trkpt>
      <trkpt lat="48.255" lon="-3.48133">
        <ele>118.1</ele>
        <time>2022-06-12T12:59:29Z</time>
      </trkpt>
      <trkpt lat="48.255" lon="-3.48131">
        <ele>118.1</ele>
        <time>2022-06-12T12:59:30Z</time>
      </trkpt>
      <trkpt lat="48.25499" lon="-3.4813">
        <ele>118.1</ele>
        <time>2022-06-12T12:59:31Z</time>
      </trkpt>
      <trkpt lat="48.25499" lon="-3.48128">
        <ele>118.1</ele>
        <time>2022-06-12T12:59:32Z</time>
      </trkpt>
      <trkpt lat="48.25497" lon="-3.48126">
        <ele>118.1</ele>
        <time>2022-06-12T12:59:33Z</time>
      </trkpt>
      <trkpt lat="48.25497" lon="-3.48125">
        <ele>118.2</ele>
        <time>2022-06-12T12:59:34Z</time>
      </trkpt>
      <trkpt lat="48.25496" lon="-3.48123">
        <ele>118.2</ele>
        <time>2022-06-12T12:59:35Z</time>
      </trkpt>
      <trkpt lat="48.25496" lon="-3.48121">
        <ele>118.2</ele>
        <time>2022-06-12T12:59:36Z</time>
      </trkpt>
      <trkpt lat="48.25495" lon="-3.48119">
        <ele>118.2</ele>
        <time>2022-06-12T12:59:37Z</time>
      </trkpt>
      <trkpt lat="48.25494" lon="-3.48117">
        <ele>118.2</ele>
        <time>2022-06-12T12:59:39Z</time>
      </trkpt>
      <trkpt lat="48.25493" lon="-3.48115">
        <ele>118.2</ele>
        <time>2022-06-12T12:59:40Z</time>
      </trkpt>
      <trkpt lat="48.25493" lon="-3.48113">
        <ele>118.2</ele>
        <time>2022-06-12T12:59:41Z</time>
      </trkpt>
      <trkpt lat="48.25492" lon="-3.48111">
        <ele>118.2</ele>
        <time>2022-06-12T12:59:42Z</time>
      </trkpt>
      <trkpt lat="48.25492" lon="-3.48109">
        <ele>118.2</ele>
        <time>2022-06-12T12:59:43Z</time>
      </trkpt>
      <trkpt lat="48.25491" lon="-3.48107">
        <ele>118.2</ele>
        <time>2022-06-12T12:59:44Z</time>
      </trkpt>
      <trkpt lat="48.2549" lon="-3.48103">
        <ele>118.2</ele>
        <time>2022-06-12T12:59:45Z</time>
      </trkpt>
      <trkpt lat="48.2549" lon="-3.48102">
        <ele>118.2</ele>
        <time>2022-06-12T12:59:47Z</time>
      </trkpt>
      <trkpt lat="48.25489" lon="-3.481">
        <ele>118.2</ele>
        <time>2022-06-12T12:59:48Z</time>
      </trkpt>
      <trkpt lat="48.25489" lon="-3.48098">
        <ele>118.2</ele>
        <time>2022-06-12T12:59:49Z</time>
      </trkpt>
      <trkpt lat="48.25488" lon="-3.48097">
        <ele>118.2</ele>
        <time>2022-06-12T12:59:50Z</time>
      </trkpt>
      <trkpt lat="48.25488" lon="-3.48095">
        <ele>118.2</ele>
        <time>2022-06-12T12:59:51Z</time>
      </trkpt>
      <trkpt lat="48.25488" lon="-3.48093">
        <ele>118.2</ele>
        <time>2022-06-12T12:59:52Z</time>
      </trkpt>
      <trkpt lat="48.25487" lon="-3.48091">
        <ele>118.2</ele>
        <time>2022-06-12T12:59:53Z</time>
      </trkpt>
      <trkpt lat="48.25487" lon="-3.48089">
        <ele>118.2</ele>
        <time>2022-06-12T12:59:54Z</time>
      </trkpt>
      <trkpt lat="48.25486" lon="-3.48086">
        <ele>118.2</ele>
        <time>2022-06-12T12:59:56Z</time>
      </trkpt>
      <trkpt lat="48.25486" lon="-3.48085">
        <ele>118.2</ele>
        <time>2022-06-12T12:59:57Z</time>
      </trkpt>
      <trkpt lat="48.25485" lon="-3.48082">
        <ele>118.2</ele>
        <time>2022-06-12T12:59:58Z</time>
      </trkpt>
      <trkpt lat="48.25485" lon="-3.4808">
        <ele>118.2</ele>
        <time>2022-06-12T12:59:59Z</time>
      </trkpt>
      <trkpt lat="48.25484" lon="-3.48079">
        <ele>118.2</ele>
        <time>2022-06-12T13:00:00Z</time>
      </trkpt>
      <trkpt lat="48.25484" lon="-3.48077">
        <ele>118.2</ele>
        <time>2022-06-12T13:00:01Z</time>
      </trkpt>
      <trkpt lat="48.25483" lon="-3.48075">
        <ele>118.2</ele>
        <time>2022-06-12T13:00:02Z</time>
      </trkpt>
      <trkpt lat="48.25483" lon="-3.48073">
        <ele>118.2</ele>
        <time>2022-06-12T13:00:04Z</time>
      </trkpt>
      <trkpt lat="48.25483" lon="-3.48071">
        <ele>118.2</ele>
        <time>2022-06-12T13:00:05Z</time>
      </trkpt>
      <trkpt lat="48.25482" lon="-3.48069">
        <ele>118.2</ele>
        <time>2022-06-12T13:00:06Z</time>
      </trkpt>
      <trkpt lat="48.25482" lon="-3.48068">
        <ele>118.2</ele>
        <time>2022-06-12T13:00:07Z</time>
      </trkpt>
      <trkpt lat="48.25481" lon="-3.48065">
        <ele>118.2</ele>
        <time>2022-06-12T13:00:08Z</time>
      </trkpt>
      <trkpt lat="48.25481" lon="-3.48064">
        <ele>118.2</ele>
        <time>2022-06-12T13:00:09Z</time>
      </trkpt>
      <trkpt lat="48.2548" lon="-3.48062">
        <ele>118.2</ele>
        <time>2022-06-12T13:00:10Z</time>
      </trkpt>
      <trkpt lat="48.2548" lon="-3.4806">
        <ele>118.2</ele>
        <time>2022-06-12T13:00:11Z</time>
      </trkpt>
      <trkpt lat="48.2548" lon="-3.48058">
        <ele>118.3</ele>
        <time>2022-06-12T13:00:12Z</time>
      </trkpt>
      <trkpt lat="48.25479" lon="-3.48056">
        <ele>118.3</ele>
        <time>2022-06-12T13:00:14Z</time>
      </trkpt>
      <trkpt lat="48.25479" lon="-3.48054">
        <ele>118.3</ele>
        <time>2022-06-12T13:00:15Z</time>
      </trkpt>
      <trkpt lat="48.25479" lon="-3.48051">
        <ele>118.3</ele>
        <time>2022-06-12T13:00:16Z</time>
      </trkpt>
      <trkpt lat="48.25479" lon="-3.4805">
        <ele>118.3</ele>
        <time>2022-06-12T13:00:17Z</time>
      </trkpt>
      <trkpt lat="48.25479" lon="-3.48049">
        <ele>118.3</ele>
        <time>2022-06-12T13:00:18Z</time>
      </trkpt>
      <trkpt lat="48.25478" lon="-3.48047">
        <ele>118.3</ele>
        <time>2022-06-12T13:00:20Z</time>
      </trkpt>
      <trkpt lat="48.25477" lon="-3.48045">
        <ele>118.3</ele>
        <time>2022-06-12T13:00:21Z</time>
      </trkpt>
      <trkpt lat="48.25477" lon="-3.48042">
        <ele>118.3</ele>
        <time>2022-06-12T13:00:22Z</time>
      </trkpt>
      <trkpt lat="48.25476" lon="-3.48041">
        <ele>118.3</ele>
        <time>2022-06-12T13:00:23Z</time>
      </trkpt>
      <trkpt lat="48.25476" lon="-3.4804">
        <ele>118.3</ele>
        <time>2022-06-12T13:00:24Z</time>
      </trkpt>
      <trkpt lat="48.25476" lon="-3.48037">
        <ele>118.3</ele>
        <time>2022-06-12T13:00:25Z</time>
      </trkpt>
      <trkpt lat="48.25475" lon="-3.48035">
        <ele>118.3</ele>
        <time>2022-06-12T13:00:26Z</time>
      </trkpt>
      <trkpt lat="48.25475" lon="-3.48034">
        <ele>118.3</ele>
        <time>2022-06-12T13:00:27Z</time>
      </trkpt>
      <trkpt lat="48.25475" lon="-3.48031">
        <ele>118.3</ele>
        <time>2022-06-12T13:00:28Z</time>
      </trkpt>
      <trkpt lat="48.25475" lon="-3.48029">
        <ele>118.3</ele>
        <time>2022-06-12T13:00:29Z</time>
      </trkpt>
      <trkpt lat="48.25475" lon="-3.48028">
        <ele>118.3</ele>
        <time>2022-06-12T13:00:30Z</time>
      </trkpt>
      <trkpt lat="48.25474" lon="-3.48025">
        <ele>118.4</ele>
        <time>2022-06-12T13:00:32Z</time>
      </trkpt>
      <trkpt lat="48.25474" lon="-3.48023">
        <ele>118.4</ele>
        <time>2022-06-12T13:00:33Z</time>
      </trkpt>
      <trkpt lat="48.25474" lon="-3.48022">
        <ele>118.4</ele>
        <time>2022-06-12T13:00:34Z</time>
      </trkpt>
      <trkpt lat="48.25473" lon="-3.48019">
        <ele>118.4</ele>
        <time>2022-06-12T13:00:35Z</time>
      </trkpt>
      <trkpt lat="48.25473" lon="-3.48018">
        <ele>118.4</ele>
        <time>2022-06-12T13:00:36Z</time>
      </trkpt>
      <trkpt lat="48.25472" lon="-3.48017">
        <ele>118.4</ele>
        <time>2022-06-12T13:00:37Z</time>
      </trkpt>
      <trkpt lat="48.25472" lon="-3.48014">
        <ele>118.4</ele>
        <time>2022-06-12T13:00:38Z</time>
      </trkpt>
      <trkpt lat="48.25471" lon="-3.48013">
        <ele>118.4</ele>
        <time>2022-06-12T13:00:39Z</time>
      </trkpt>
      <trkpt lat="48.25471" lon="-3.48011">
        <ele>118.4</ele>
        <time>2022-06-12T13:00:40Z</time>
      </trkpt>
      <trkpt lat="48.25471" lon="-3.4801">
        <ele>118.4</ele>
        <time>2022-06-12T13:00:41Z</time>
      </trkpt>
      <trkpt lat="48.2547" lon="-3.48008">
        <ele>118.4</ele>
        <time>2022-06-12T13:00:42Z</time>
      </trkpt>
      <trkpt lat="48.2547" lon="-3.48006">
        <ele>118.4</ele>
        <time>2022-06-12T13:00:43Z</time>
      </trkpt>
      <trkpt lat="48.2547" lon="-3.48005">
        <ele>118.5</ele>
        <time>2022-06-12T13:00:44Z</time>
      </trkpt>
      <trkpt lat="48.25469" lon="-3.48002">
        <ele>118.5</ele>
        <time>2022-06-12T13:00:45Z</time>
      </trkpt>
      <trkpt lat="48.25469" lon="-3.48">
        <ele>118.5</ele>
        <time>2022-06-12T13:00:46Z</time>
      </trkpt>
      <trkpt lat="48.25469" lon="-3.47998">
        <ele>118.5</ele>
        <time>2022-06-12T13:00:47Z</time>
      </trkpt>
      <trkpt lat="48.25468" lon="-3.47997">
        <ele>118.5</ele>
        <time>2022-06-12T13:00:49Z</time>
      </trkpt>
      <trkpt lat="48.25468" lon="-3.47995">
        <ele>118.5</ele>
        <time>2022-06-12T13:00:50Z</time>
      </trkpt>
      <trkpt lat="48.25468" lon="-3.47993">
        <ele>118.5</ele>
        <time>2022-06-12T13:00:51Z</time>
      </trkpt>
      <trkpt lat="48.25468" lon="-3.47992">
        <ele>118.5</ele>
        <time>2022-06-12T13:00:52Z</time>
      </trkpt>
      <trkpt lat="48.25468" lon="-3.47989">
        <ele>118.6</ele>
        <time>2022-06-12T13:00:53Z</time>
      </trkpt>
      <trkpt lat="48.25468" lon="-3.47987">
        <ele>118.6</ele>
        <time>2022-06-12T13:00:54Z</time>
      </trkpt>
      <trkpt lat="48.25469" lon="-3.47986">
        <ele>118.6</ele>
        <time>2022-06-12T13:00:55Z</time>
      </trkpt>
      <trkpt lat="48.25469" lon="-3.47983">
        <ele>118.6</ele>
        <time>2022-06-12T13:00:56Z</time>
      </trkpt>
      <trkpt lat="48.25469" lon="-3.47981">
        <ele>118.6</ele>
        <time>2022-06-12T13:00:57Z</time>
      </trkpt>
      <trkpt lat="48.25469" lon="-3.4798">
        <ele>118.6</ele>
        <time>2022-06-12T13:00:58Z</time>
      </trkpt>
      <trkpt lat="48.2547" lon="-3.47979">
        <ele>118.6</ele>
        <time>2022-06-12T13:00:59Z</time>
      </trkpt>
      <trkpt lat="48.2547" lon="-3.47977">
        <ele>118.6</ele>
        <time>2022-06-12T13:01:00Z</time>
      </trkpt>
      <trkpt lat="48.25471" lon="-3.47975">
        <ele>118.7</ele>
        <time>2022-06-12T13:01:01Z</time>
      </trkpt>
      <trkpt lat="48.25471" lon="-3.47973">
        <ele>118.7</ele>
        <time>2022-06-12T13:01:02Z</time>
      </trkpt>
      <trkpt lat="48.25471" lon="-3.47971">
        <ele>118.7</ele>
        <time>2022-06-12T13:01:03Z</time>
      </trkpt>
      <trkpt lat="48.25472" lon="-3.47969">
        <ele>118.7</ele>
        <time>2022-06-12T13:01:05Z</time>
      </trkpt>
      <trkpt lat="48.25472" lon="-3.47967">
        <ele>118.7</ele>
        <time>2022-06-12T13:01:06Z</time>
      </trkpt>
      <trkpt lat="48.25472" lon="-3.47966">
        <ele>118.7</ele>
        <time>2022-06-12T13:01:07Z</time>
      </trkpt>
      <trkpt lat="48.25473" lon="-3.47964">
        <ele>118.7</ele>
        <time>2022-06-12T13:01:08Z</time>
      </trkpt>
      <trkpt lat="48.25473" lon="-3.47962">
        <ele>118.8</ele>
        <time>2022-06-12T13:01:09Z</time>
      </trkpt>
      <trkpt lat="48.25474" lon="-3.47959">
        <ele>118.8</ele>
        <time>2022-06-12T13:01:10Z</time>
      </trkpt>
      <trkpt lat="48.25474" lon="-3.47958">
        <ele>118.8</ele>
        <time>2022-06-12T13:01:11Z</time>
      </trkpt>
      <trkpt lat="48.25474" lon="-3.47957">
        <ele>118.8</ele>
        <time>2022-06-12T13:01:12Z</time>
      </trkpt>
      <trkpt lat="48.25475" lon="-3.47956">
        <ele>118.8</ele>
        <time>2022-06-12T13:01:13Z</time>
      </trkpt>
      <trkpt lat="48.25475" lon="-3.47954">
        <ele>118.8</ele>
        <time>2022-06-12T13:01:14Z</time>
      </trkpt>
      <trkpt lat="48.25476" lon="-3.47952">
        <ele>118.8</ele>
        <time>2022-06-12T13:01:15Z</time>
      </trkpt>
      <trkpt lat="48.25476" lon="-3.4795">
        <ele>118.8</ele>
        <time>2022-06-12T13:01:17Z</time>
      </trkpt>
      <trkpt lat="48.25477" lon="-3.47948">
        <ele>118.9</ele>
        <time>2022-06-12T13:01:18Z</time>
      </trkpt>
      <trkpt lat="48.25477" lon="-3.47945">
        <ele>118.9</ele>
        <time>2022-06-12T13:01:19Z</time>
      </trkpt>
      <trkpt lat="48.25477" lon="-3.47944">
        <ele>118.9</ele>
        <time>2022-06-12T13:01:20Z</time>
      </trkpt>
      <trkpt lat="48.25478" lon="-3.47942">
        <ele>118.9</ele>
        <time>2022-06-12T13:01:21Z</time>
      </trkpt>
      <trkpt lat="48.25478" lon="-3.47939">
        <ele>118.9</ele>
        <time>2022-06-12T13:01:22Z</time>
      </trkpt>
      <trkpt lat="48.25478" lon="-3.47938">
        <ele>118.9</ele>
        <time>2022-06-12T13:01:23Z</time>
      </trkpt>
      <trkpt lat="48.25478" lon="-3.47937">
        <ele>118.9</ele>
        <time>2022-06-12T13:01:24Z</time>
      </trkpt>
      <trkpt lat="48.25479" lon="-3.47934">
        <ele>118.9</ele>
        <time>2022-06-12T13:01:26Z</time>
      </trkpt>
      <trkpt lat="48.25479" lon="-3.47931">
        <ele>118.9</ele>
        <time>2022-06-12T13:01:27Z</time>
      </trkpt>
      <trkpt lat="48.25479" lon="-3.4793">
        <ele>118.9</ele>
        <time>2022-06-12T13:01:28Z</time>
      </trkpt>
      <trkpt lat="48.25479" lon="-3.47928">
        <ele>118.9</ele>
        <time>2022-06-12T13:01:29Z</time>
      </trkpt>
      <trkpt lat="48.2548" lon="-3.47927">
        <ele>118.9</ele>
        <time>2022-06-12T13:01:30Z</time>
      </trkpt>
      <trkpt lat="48.2548" lon="-3.47924">
        <ele>119</ele>
        <time>2022-06-12T13:01:31Z</time>
      </trkpt>
      <trkpt lat="48.2548" lon="-3.47922">
        <ele>119</ele>
        <time>2022-06-12T13:01:32Z</time>
      </trkpt>
      <trkpt lat="48.2548" lon="-3.47918">
        <ele>119</ele>
        <time>2022-06-12T13:01:33Z</time>
      </trkpt>
      <trkpt lat="48.2548" lon="-3.47917">
        <ele>119</ele>
        <time>2022-06-12T13:01:35Z</time>
      </trkpt>
      <trkpt lat="48.2548" lon="-3.47915">
        <ele>119</ele>
        <time>2022-06-12T13:01:36Z</time>
      </trkpt>
      <trkpt lat="48.2548" lon="-3.47913">
        <ele>119</ele>
        <time>2022-06-12T13:01:37Z</time>
      </trkpt>
      <trkpt lat="48.25481" lon="-3.47912">
        <ele>119</ele>
        <time>2022-06-12T13:01:38Z</time>
      </trkpt>
      <trkpt lat="48.25481" lon="-3.4791">
        <ele>119</ele>
        <time>2022-06-12T13:01:39Z</time>
      </trkpt>
      <trkpt lat="48.25481" lon="-3.47908">
        <ele>119</ele>
        <time>2022-06-12T13:01:40Z</time>
      </trkpt>
      <trkpt lat="48.25481" lon="-3.47906">
        <ele>119</ele>
        <time>2022-06-12T13:01:41Z</time>
      </trkpt>
      <trkpt lat="48.25482" lon="-3.47905">
        <ele>119</ele>
        <time>2022-06-12T13:01:42Z</time>
      </trkpt>
      <trkpt lat="48.25482" lon="-3.47903">
        <ele>119</ele>
        <time>2022-06-12T13:01:43Z</time>
      </trkpt>
      <trkpt lat="48.25483" lon="-3.47901">
        <ele>119</ele>
        <time>2022-06-12T13:01:44Z</time>
      </trkpt>
      <trkpt lat="48.25483" lon="-3.47899">
        <ele>119</ele>
        <time>2022-06-12T13:01:45Z</time>
      </trkpt>
      <trkpt lat="48.25484" lon="-3.47897">
        <ele>119</ele>
        <time>2022-06-12T13:01:46Z</time>
      </trkpt>
      <trkpt lat="48.25485" lon="-3.47895">
        <ele>119</ele>
        <time>2022-06-12T13:01:47Z</time>
      </trkpt>
      <trkpt lat="48.25485" lon="-3.47893">
        <ele>119</ele>
        <time>2022-06-12T13:01:48Z</time>
      </trkpt>
      <trkpt lat="48.25486" lon="-3.47891">
        <ele>119</ele>
        <time>2022-06-12T13:01:49Z</time>
      </trkpt>
      <trkpt lat="48.25486" lon="-3.47888">
        <ele>119</ele>
        <time>2022-06-12T13:01:51Z</time>
      </trkpt>
      <trkpt lat="48.25487" lon="-3.47887">
        <ele>119</ele>
        <time>2022-06-12T13:01:52Z</time>
      </trkpt>
      <trkpt lat="48.25487" lon="-3.47885">
        <ele>118.9</ele>
        <time>2022-06-12T13:01:53Z</time>
      </trkpt>
      <trkpt lat="48.25487" lon="-3.47883">
        <ele>118.9</ele>
        <time>2022-06-12T13:01:54Z</time>
      </trkpt>
      <trkpt lat="48.25487" lon="-3.47881">
        <ele>118.9</ele>
        <time>2022-06-12T13:01:55Z</time>
      </trkpt>
      <trkpt lat="48.25488" lon="-3.47878">
        <ele>118.9</ele>
        <time>2022-06-12T13:01:56Z</time>
      </trkpt>
      <trkpt lat="48.25488" lon="-3.47877">
        <ele>118.9</ele>
        <time>2022-06-12T13:01:57Z</time>
      </trkpt>
      <trkpt lat="48.25488" lon="-3.47875">
        <ele>118.9</ele>
        <time>2022-06-12T13:01:58Z</time>
      </trkpt>
      <trkpt lat="48.25489" lon="-3.47873">
        <ele>118.9</ele>
        <time>2022-06-12T13:01:59Z</time>
      </trkpt>
      <trkpt lat="48.25489" lon="-3.47871">
        <ele>118.9</ele>
        <time>2022-06-12T13:02:00Z</time>
      </trkpt>
      <trkpt lat="48.25489" lon="-3.4787">
        <ele>118.9</ele>
        <time>2022-06-12T13:02:01Z</time>
      </trkpt>
      <trkpt lat="48.2549" lon="-3.47868">
        <ele>118.9</ele>
        <time>2022-06-12T13:02:02Z</time>
      </trkpt>
      <trkpt lat="48.2549" lon="-3.47866">
        <ele>118.9</ele>
        <time>2022-06-12T13:02:03Z</time>
      </trkpt>
      <trkpt lat="48.2549" lon="-3.47863">
        <ele>118.9</ele>
        <time>2022-06-12T13:02:05Z</time>
      </trkpt>
      <trkpt lat="48.2549" lon="-3.47861">
        <ele>118.9</ele>
        <time>2022-06-12T13:02:06Z</time>
      </trkpt>
      <trkpt lat="48.2549" lon="-3.4786">
        <ele>118.9</ele>
        <time>2022-06-12T13:02:07Z</time>
      </trkpt>
      <trkpt lat="48.2549" lon="-3.47857">
        <ele>118.9</ele>
        <time>2022-06-12T13:02:08Z</time>
      </trkpt>
      <trkpt lat="48.2549" lon="-3.47856">
        <ele>118.9</ele>
        <time>2022-06-12T13:02:09Z</time>
      </trkpt>
      <trkpt lat="48.2549" lon="-3.47853">
        <ele>118.9</ele>
        <time>2022-06-12T13:02:10Z</time>
      </trkpt>
      <trkpt lat="48.2549" lon="-3.47851">
        <ele>118.9</ele>
        <time>2022-06-12T13:02:11Z</time>
      </trkpt>
      <trkpt lat="48.2549" lon="-3.47848">
        <ele>118.9</ele>
        <time>2022-06-12T13:02:12Z</time>
      </trkpt>
      <trkpt lat="48.2549" lon="-3.47846">
        <ele>118.9</ele>
        <time>2022-06-12T13:02:14Z</time>
      </trkpt>
      <trkpt lat="48.2549" lon="-3.47844">
        <ele>118.9</ele>
        <time>2022-06-12T13:02:15Z</time>
      </trkpt>
      <trkpt lat="48.2549" lon="-3.47842">
        <ele>118.9</ele>
        <time>2022-06-12T13:02:16Z</time>
      </trkpt>
      <trkpt lat="48.2549" lon="-3.4784">
        <ele>118.9</ele>
        <time>2022-06-12T13:02:17Z</time>
      </trkpt>
      <trkpt lat="48.2549" lon="-3.47838">
        <ele>118.9</ele>
        <time>2022-06-12T13:02:18Z</time>
      </trkpt>
      <trkpt lat="48.25491" lon="-3.47836">
        <ele>118.9</ele>
        <time>2022-06-12T13:02:19Z</time>
      </trkpt>
      <trkpt lat="48.25491" lon="-3.47834">
        <ele>118.9</ele>
        <time>2022-06-12T13:02:20Z</time>
      </trkpt>
      <trkpt lat="48.25491" lon="-3.47832">
        <ele>118.9</ele>
        <time>2022-06-12T13:02:21Z</time>
      </trkpt>
      <trkpt lat="48.25492" lon="-3.4783">
        <ele>118.9</ele>
        <time>2022-06-12T13:02:22Z</time>
      </trkpt>
      <trkpt lat="48.25493" lon="-3.47827">
        <ele>118.9</ele>
        <time>2022-06-12T13:02:24Z</time>
      </trkpt>
      <trkpt lat="48.25494" lon="-3.47825">
        <ele>118.9</ele>
        <time>2022-06-12T13:02:25Z</time>
      </trkpt>
      <trkpt lat="48.25494" lon="-3.47823">
        <ele>118.9</ele>
        <time>2022-06-12T13:02:26Z</time>
      </trkpt>
      <trkpt lat="48.25495" lon="-3.47821">
        <ele>118.9</ele>
        <time>2022-06-12T13:02:27Z</time>
      </trkpt>
      <trkpt lat="48.25496" lon="-3.47819">
        <ele>118.9</ele>
        <time>2022-06-12T13:02:28Z</time>
      </trkpt>
      <trkpt lat="48.25497" lon="-3.47817">
        <ele>118.9</ele>
        <time>2022-06-12T13:02:29Z</time>
      </trkpt>
      <trkpt lat="48.25498" lon="-3.47815">
        <ele>118.9</ele>
        <time>2022-06-12T13:02:30Z</time>
      </trkpt>
      <trkpt lat="48.25498" lon="-3.47814">
        <ele>118.9</ele>
        <time>2022-06-12T13:02:31Z</time>
      </trkpt>
      <trkpt lat="48.25499" lon="-3.47813">
        <ele>118.9</ele>
        <time>2022-06-12T13:02:32Z</time>
      </trkpt>
      <trkpt lat="48.255" lon="-3.47811">
        <ele>118.9</ele>
        <time>2022-06-12T13:02:33Z</time>
      </trkpt>
      <trkpt lat="48.255" lon="-3.47809">
        <ele>118.9</ele>
        <time>2022-06-12T13:02:34Z</time>
      </trkpt>
      <trkpt lat="48.25501" lon="-3.47807">
        <ele>118.9</ele>
        <time>2022-06-12T13:02:35Z</time>
      </trkpt>
      <trkpt lat="48.25502" lon="-3.47804">
        <ele>118.9</ele>
        <time>2022-06-12T13:02:37Z</time>
      </trkpt>
      <trkpt lat="48.25503" lon="-3.47803">
        <ele>118.9</ele>
        <time>2022-06-12T13:02:38Z</time>
      </trkpt>
      <trkpt lat="48.25504" lon="-3.47801">
        <ele>119</ele>
        <time>2022-06-12T13:02:39Z</time>
      </trkpt>
      <trkpt lat="48.25504" lon="-3.478">
        <ele>119</ele>
        <time>2022-06-12T13:02:40Z</time>
      </trkpt>
      <trkpt lat="48.25505" lon="-3.47799">
        <ele>119</ele>
        <time>2022-06-12T13:02:41Z</time>
      </trkpt>
      <trkpt lat="48.25506" lon="-3.47796">
        <ele>119</ele>
        <time>2022-06-12T13:02:42Z</time>
      </trkpt>
      <trkpt lat="48.25507" lon="-3.47795">
        <ele>119</ele>
        <time>2022-06-12T13:02:43Z</time>
      </trkpt>
      <trkpt lat="48.25507" lon="-3.47794">
        <ele>119</ele>
        <time>2022-06-12T13:02:44Z</time>
      </trkpt>
      <trkpt lat="48.25509" lon="-3.47792">
        <ele>119</ele>
        <time>2022-06-12T13:02:45Z</time>
      </trkpt>
      <trkpt lat="48.25509" lon="-3.47791">
        <ele>119</ele>
        <time>2022-06-12T13:02:46Z</time>
      </trkpt>
      <trkpt lat="48.2551" lon="-3.4779">
        <ele>119</ele>
        <time>2022-06-12T13:02:47Z</time>
      </trkpt>
      <trkpt lat="48.25511" lon="-3.47788">
        <ele>119</ele>
        <time>2022-06-12T13:02:48Z</time>
      </trkpt>
      <trkpt lat="48.25512" lon="-3.47786">
        <ele>119</ele>
        <time>2022-06-12T13:02:49Z</time>
      </trkpt>
      <trkpt lat="48.25513" lon="-3.47784">
        <ele>119</ele>
        <time>2022-06-12T13:02:50Z</time>
      </trkpt>
      <trkpt lat="48.25514" lon="-3.47783">
        <ele>119</ele>
        <time>2022-06-12T13:02:52Z</time>
      </trkpt>
      <trkpt lat="48.25514" lon="-3.47782">
        <ele>119</ele>
        <time>2022-06-12T13:02:53Z</time>
      </trkpt>
      <trkpt lat="48.25516" lon="-3.4778">
        <ele>119</ele>
        <time>2022-06-12T13:02:54Z</time>
      </trkpt>
      <trkpt lat="48.25517" lon="-3.47779">
        <ele>119</ele>
        <time>2022-06-12T13:02:55Z</time>
      </trkpt>
      <trkpt lat="48.25517" lon="-3.47779">
        <ele>119</ele>
        <time>2022-06-12T13:02:56Z</time>
      </trkpt>
      <trkpt lat="48.25519" lon="-3.47777">
        <ele>119</ele>
        <time>2022-06-12T13:02:57Z</time>
      </trkpt>
      <trkpt lat="48.2552" lon="-3.47776">
        <ele>119</ele>
        <time>2022-06-12T13:02:58Z</time>
      </trkpt>
      <trkpt lat="48.2552" lon="-3.47775">
        <ele>119</ele>
        <time>2022-06-12T13:02:59Z</time>
      </trkpt>
      <trkpt lat="48.25521" lon="-3.47774">
        <ele>119</ele>
        <time>2022-06-12T13:03:00Z</time>
      </trkpt>
      <trkpt lat="48.25522" lon="-3.47773">
        <ele>119</ele>
        <time>2022-06-12T13:03:01Z</time>
      </trkpt>
      <trkpt lat="48.25523" lon="-3.47772">
        <ele>119</ele>
        <time>2022-06-12T13:03:02Z</time>
      </trkpt>
      <trkpt lat="48.25524" lon="-3.47771">
        <ele>119</ele>
        <time>2022-06-12T13:03:03Z</time>
      </trkpt>
      <trkpt lat="48.25525" lon="-3.47769">
        <ele>119</ele>
        <time>2022-06-12T13:03:04Z</time>
      </trkpt>
      <trkpt lat="48.25526" lon="-3.47767">
        <ele>119</ele>
        <time>2022-06-12T13:03:05Z</time>
      </trkpt>
      <trkpt lat="48.25526" lon="-3.47766">
        <ele>119.1</ele>
        <time>2022-06-12T13:03:07Z</time>
      </trkpt>
      <trkpt lat="48.25527" lon="-3.47765">
        <ele>119.1</ele>
        <time>2022-06-12T13:03:08Z</time>
      </trkpt>
      <trkpt lat="48.25528" lon="-3.47763">
        <ele>119.1</ele>
        <time>2022-06-12T13:03:09Z</time>
      </trkpt>
      <trkpt lat="48.25528" lon="-3.47762">
        <ele>119.1</ele>
        <time>2022-06-12T13:03:10Z</time>
      </trkpt>
      <trkpt lat="48.25529" lon="-3.4776">
        <ele>119.1</ele>
        <time>2022-06-12T13:03:11Z</time>
      </trkpt>
      <trkpt lat="48.25529" lon="-3.47759">
        <ele>119.1</ele>
        <time>2022-06-12T13:03:12Z</time>
      </trkpt>
      <trkpt lat="48.2553" lon="-3.47757">
        <ele>119.1</ele>
        <time>2022-06-12T13:03:13Z</time>
      </trkpt>
      <trkpt lat="48.2553" lon="-3.47756">
        <ele>119.1</ele>
        <time>2022-06-12T13:03:14Z</time>
      </trkpt>
      <trkpt lat="48.25531" lon="-3.47754">
        <ele>119.1</ele>
        <time>2022-06-12T13:03:15Z</time>
      </trkpt>
      <trkpt lat="48.25531" lon="-3.47753">
        <ele>119.1</ele>
        <time>2022-06-12T13:03:16Z</time>
      </trkpt>
      <trkpt lat="48.25532" lon="-3.47751">
        <ele>119.1</ele>
        <time>2022-06-12T13:03:17Z</time>
      </trkpt>
      <trkpt lat="48.25533" lon="-3.47748">
        <ele>119.1</ele>
        <time>2022-06-12T13:03:18Z</time>
      </trkpt>
      <trkpt lat="48.25533" lon="-3.47747">
        <ele>119.1</ele>
        <time>2022-06-12T13:03:19Z</time>
      </trkpt>
      <trkpt lat="48.25533" lon="-3.47746">
        <ele>119.1</ele>
        <time>2022-06-12T13:03:20Z</time>
      </trkpt>
      <trkpt lat="48.25534" lon="-3.47743">
        <ele>119.1</ele>
        <time>2022-06-12T13:03:21Z</time>
      </trkpt>
      <trkpt lat="48.25535" lon="-3.47741">
        <ele>119.1</ele>
        <time>2022-06-12T13:03:23Z</time>
      </trkpt>
      <trkpt lat="48.25535" lon="-3.4774">
        <ele>119.1</ele>
        <time>2022-06-12T13:03:24Z</time>
      </trkpt>
      <trkpt lat="48.25535" lon="-3.47738">
        <ele>119.1</ele>
        <time>2022-06-12T13:03:25Z</time>
      </trkpt>
      <trkpt lat="48.25536" lon="-3.47737">
        <ele>119.1</ele>
        <time>2022-06-12T13:03:26Z</time>
      </trkpt>
      <trkpt lat="48.25536" lon="-3.47735">
        <ele>119.1</ele>
        <time>2022-06-12T13:03:27Z</time>
      </trkpt>
      <trkpt lat="48.25537" lon="-3.47733">
        <ele>119.1</ele>
        <time>2022-06-12T13:03:28Z</time>
      </trkpt>
      <trkpt lat="48.25537" lon="-3.4773">
        <ele>119.1</ele>
        <time>2022-06-12T13:03:30Z</time>
      </trkpt>
      <trkpt lat="48.25537" lon="-3.47728">
        <ele>119.1</ele>
        <time>2022-06-12T13:03:31Z</time>
      </trkpt>
      <trkpt lat="48.25538" lon="-3.47726">
        <ele>119.1</ele>
        <time>2022-06-12T13:03:32Z</time>
      </trkpt>
      <trkpt lat="48.25538" lon="-3.47724">
        <ele>119.1</ele>
        <time>2022-06-12T13:03:33Z</time>
      </trkpt>
      <trkpt lat="48.25538" lon="-3.47722">
        <ele>119.1</ele>
        <time>2022-06-12T13:03:34Z</time>
      </trkpt>
      <trkpt lat="48.25539" lon="-3.4772">
        <ele>119.1</ele>
        <time>2022-06-12T13:03:35Z</time>
      </trkpt>
      <trkpt lat="48.25539" lon="-3.47718">
        <ele>119.1</ele>
        <time>2022-06-12T13:03:36Z</time>
      </trkpt>
      <trkpt lat="48.25539" lon="-3.47715">
        <ele>119.1</ele>
        <time>2022-06-12T13:03:37Z</time>
      </trkpt>
      <trkpt lat="48.25539" lon="-3.47713">
        <ele>119.1</ele>
        <time>2022-06-12T13:03:38Z</time>
      </trkpt>
      <trkpt lat="48.2554" lon="-3.47709">
        <ele>119.1</ele>
        <time>2022-06-12T13:03:39Z</time>
      </trkpt>
      <trkpt lat="48.2554" lon="-3.47708">
        <ele>119.1</ele>
        <time>2022-06-12T13:03:41Z</time>
      </trkpt>
      <trkpt lat="48.2554" lon="-3.47706">
        <ele>119.1</ele>
        <time>2022-06-12T13:03:42Z</time>
      </trkpt>
      <trkpt lat="48.2554" lon="-3.47705">
        <ele>119.1</ele>
        <time>2022-06-12T13:03:43Z</time>
      </trkpt>
      <trkpt lat="48.2554" lon="-3.47703">
        <ele>119.1</ele>
        <time>2022-06-12T13:03:44Z</time>
      </trkpt>
      <trkpt lat="48.25541" lon="-3.477">
        <ele>119.1</ele>
        <time>2022-06-12T13:03:45Z</time>
      </trkpt>
      <trkpt lat="48.25541" lon="-3.47699">
        <ele>119.1</ele>
        <time>2022-06-12T13:03:46Z</time>
      </trkpt>
      <trkpt lat="48.25541" lon="-3.47697">
        <ele>119.1</ele>
        <time>2022-06-12T13:03:47Z</time>
      </trkpt>
      <trkpt lat="48.25542" lon="-3.47695">
        <ele>119.1</ele>
        <time>2022-06-12T13:03:48Z</time>
      </trkpt>
      <trkpt lat="48.25543" lon="-3.47693">
        <ele>119.1</ele>
        <time>2022-06-12T13:03:49Z</time>
      </trkpt>
      <trkpt lat="48.25543" lon="-3.47692">
        <ele>119.1</ele>
        <time>2022-06-12T13:03:50Z</time>
      </trkpt>
      <trkpt lat="48.25545" lon="-3.4769">
        <ele>119.1</ele>
        <time>2022-06-12T13:03:51Z</time>
      </trkpt>
      <trkpt lat="48.25545" lon="-3.47689">
        <ele>119.1</ele>
        <time>2022-06-12T13:03:52Z</time>
      </trkpt>
      <trkpt lat="48.25546" lon="-3.47688">
        <ele>119.1</ele>
        <time>2022-06-12T13:03:53Z</time>
      </trkpt>
      <trkpt lat="48.25547" lon="-3.47686">
        <ele>119.1</ele>
        <time>2022-06-12T13:03:54Z</time>
      </trkpt>
      <trkpt lat="48.25548" lon="-3.47684">
        <ele>119.1</ele>
        <time>2022-06-12T13:03:55Z</time>
      </trkpt>
      <trkpt lat="48.25548" lon="-3.47683">
        <ele>119.1</ele>
        <time>2022-06-12T13:03:57Z</time>
      </trkpt>
      <trkpt lat="48.25549" lon="-3.47682">
        <ele>119.1</ele>
        <time>2022-06-12T13:03:58Z</time>
      </trkpt>
      <trkpt lat="48.25549" lon="-3.4768">
        <ele>119.1</ele>
        <time>2022-06-12T13:03:59Z</time>
      </trkpt>
      <trkpt lat="48.2555" lon="-3.47679">
        <ele>119.1</ele>
        <time>2022-06-12T13:04:00Z</time>
      </trkpt>
      <trkpt lat="48.2555" lon="-3.47677">
        <ele>119.1</ele>
        <time>2022-06-12T13:04:01Z</time>
      </trkpt>
      <trkpt lat="48.25551" lon="-3.47675">
        <ele>119.1</ele>
        <time>2022-06-12T13:04:02Z</time>
      </trkpt>
      <trkpt lat="48.25552" lon="-3.47672">
        <ele>119.1</ele>
        <time>2022-06-12T13:04:03Z</time>
      </trkpt>
      <trkpt lat="48.25552" lon="-3.47671">
        <ele>119.1</ele>
        <time>2022-06-12T13:04:04Z</time>
      </trkpt>
      <trkpt lat="48.25553" lon="-3.4767">
        <ele>119.1</ele>
        <time>2022-06-12T13:04:05Z</time>
      </trkpt>
      <trkpt lat="48.25554" lon="-3.47667">
        <ele>119.1</ele>
        <time>2022-06-12T13:04:06Z</time>
      </trkpt>
      <trkpt lat="48.25554" lon="-3.47666">
        <ele>119.1</ele>
        <time>2022-06-12T13:04:07Z</time>
      </trkpt>
      <trkpt lat="48.25555" lon="-3.47665">
        <ele>119.1</ele>
        <time>2022-06-12T13:04:08Z</time>
      </trkpt>
      <trkpt lat="48.25556" lon="-3.47662">
        <ele>119.1</ele>
        <time>2022-06-12T13:04:09Z</time>
      </trkpt>
      <trkpt lat="48.25556" lon="-3.47661">
        <ele>119.1</ele>
        <time>2022-06-12T13:04:10Z</time>
      </trkpt>
      <trkpt lat="48.25557" lon="-3.47659">
        <ele>119.1</ele>
        <time>2022-06-12T13:04:11Z</time>
      </trkpt>
      <trkpt lat="48.25557" lon="-3.47657">
        <ele>119.1</ele>
        <time>2022-06-12T13:04:12Z</time>
      </trkpt>
      <trkpt lat="48.25558" lon="-3.47655">
        <ele>119.1</ele>
        <time>2022-06-12T13:04:14Z</time>
      </trkpt>
      <trkpt lat="48.25559" lon="-3.47653">
        <ele>119.1</ele>
        <time>2022-06-12T13:04:15Z</time>
      </trkpt>
      <trkpt lat="48.25559" lon="-3.47652">
        <ele>119.1</ele>
        <time>2022-06-12T13:04:16Z</time>
      </trkpt>
      <trkpt lat="48.2556" lon="-3.4765">
        <ele>119.1</ele>
        <time>2022-06-12T13:04:17Z</time>
      </trkpt>
      <trkpt lat="48.2556" lon="-3.47649">
        <ele>119.1</ele>
        <time>2022-06-12T13:04:18Z</time>
      </trkpt>
      <trkpt lat="48.25561" lon="-3.47648">
        <ele>119.1</ele>
        <time>2022-06-12T13:04:19Z</time>
      </trkpt>
      <trkpt lat="48.25561" lon="-3.47646">
        <ele>119.1</ele>
        <time>2022-06-12T13:04:20Z</time>
      </trkpt>
      <trkpt lat="48.25562" lon="-3.47643">
        <ele>119.1</ele>
        <time>2022-06-12T13:04:21Z</time>
      </trkpt>
      <trkpt lat="48.25563" lon="-3.47642">
        <ele>119.1</ele>
        <time>2022-06-12T13:04:22Z</time>
      </trkpt>
      <trkpt lat="48.25563" lon="-3.47641">
        <ele>119.1</ele>
        <time>2022-06-12T13:04:23Z</time>
      </trkpt>
      <trkpt lat="48.25564" lon="-3.47638">
        <ele>119.2</ele>
        <time>2022-06-12T13:04:24Z</time>
      </trkpt>
      <trkpt lat="48.25565" lon="-3.47637">
        <ele>119.2</ele>
        <time>2022-06-12T13:04:25Z</time>
      </trkpt>
      <trkpt lat="48.25565" lon="-3.47636">
        <ele>119.2</ele>
        <time>2022-06-12T13:04:26Z</time>
      </trkpt>
      <trkpt lat="48.25566" lon="-3.47634">
        <ele>119.2</ele>
        <time>2022-06-12T13:04:27Z</time>
      </trkpt>
      <trkpt lat="48.25567" lon="-3.47632">
        <ele>119.2</ele>
        <time>2022-06-12T13:04:28Z</time>
      </trkpt>
      <trkpt lat="48.25568" lon="-3.47629">
        <ele>119.2</ele>
        <time>2022-06-12T13:04:30Z</time>
      </trkpt>
      <trkpt lat="48.25568" lon="-3.47627">
        <ele>119.2</ele>
        <time>2022-06-12T13:04:31Z</time>
      </trkpt>
      <trkpt lat="48.25569" lon="-3.47626">
        <ele>119.2</ele>
        <time>2022-06-12T13:04:32Z</time>
      </trkpt>
      <trkpt lat="48.25569" lon="-3.47625">
        <ele>119.2</ele>
        <time>2022-06-12T13:04:33Z</time>
      </trkpt>
      <trkpt lat="48.2557" lon="-3.47624">
        <ele>119.2</ele>
        <time>2022-06-12T13:04:34Z</time>
      </trkpt>
      <trkpt lat="48.25571" lon="-3.47621">
        <ele>119.2</ele>
        <time>2022-06-12T13:04:35Z</time>
      </trkpt>
      <trkpt lat="48.25571" lon="-3.4762">
        <ele>119.2</ele>
        <time>2022-06-12T13:04:36Z</time>
      </trkpt>
      <trkpt lat="48.25571" lon="-3.47619">
        <ele>119.2</ele>
        <time>2022-06-12T13:04:37Z</time>
      </trkpt>
      <trkpt lat="48.25573" lon="-3.47616">
        <ele>119.2</ele>
        <time>2022-06-12T13:04:38Z</time>
      </trkpt>
      <trkpt lat="48.25573" lon="-3.47615">
        <ele>119.2</ele>
        <time>2022-06-12T13:04:39Z</time>
      </trkpt>
      <trkpt lat="48.25573" lon="-3.47614">
        <ele>119.2</ele>
        <time>2022-06-12T13:04:40Z</time>
      </trkpt>
      <trkpt lat="48.25574" lon="-3.47613">
        <ele>119.2</ele>
        <time>2022-06-12T13:04:41Z</time>
      </trkpt>
      <trkpt lat="48.25575" lon="-3.47612">
        <ele>119.2</ele>
        <time>2022-06-12T13:04:42Z</time>
      </trkpt>
      <trkpt lat="48.25576" lon="-3.4761">
        <ele>119.2</ele>
        <time>2022-06-12T13:04:43Z</time>
      </trkpt>
      <trkpt lat="48.25577" lon="-3.47608">
        <ele>119.2</ele>
        <time>2022-06-12T13:04:45Z</time>
      </trkpt>
      <trkpt lat="48.25578" lon="-3.47606">
        <ele>119.2</ele>
        <time>2022-06-12T13:04:46Z</time>
      </trkpt>
      <trkpt lat="48.25578" lon="-3.47604">
        <ele>119.2</ele>
        <time>2022-06-12T13:04:47Z</time>
      </trkpt>
      <trkpt lat="48.25579" lon="-3.47602">
        <ele>119.2</ele>
        <time>2022-06-12T13:04:48Z</time>
      </trkpt>
      <trkpt lat="48.25579" lon="-3.47601">
        <ele>119.2</ele>
        <time>2022-06-12T13:04:49Z</time>
      </trkpt>
      <trkpt lat="48.2558" lon="-3.47599">
        <ele>119.2</ele>
        <time>2022-06-12T13:04:50Z</time>
      </trkpt>
      <trkpt lat="48.2558" lon="-3.47596">
        <ele>119.2</ele>
        <time>2022-06-12T13:04:52Z</time>
      </trkpt>
      <trkpt lat="48.25581" lon="-3.47594">
        <ele>119.2</ele>
        <time>2022-06-12T13:04:53Z</time>
      </trkpt>
      <trkpt lat="48.25581" lon="-3.47592">
        <ele>119.2</ele>
        <time>2022-06-12T13:04:54Z</time>
      </trkpt>
      <trkpt lat="48.25581" lon="-3.47589">
        <ele>119.2</ele>
        <time>2022-06-12T13:04:55Z</time>
      </trkpt>
      <trkpt lat="48.25581" lon="-3.47588">
        <ele>119.2</ele>
        <time>2022-06-12T13:04:56Z</time>
      </trkpt>
      <trkpt lat="48.25582" lon="-3.47587">
        <ele>119.2</ele>
        <time>2022-06-12T13:04:57Z</time>
      </trkpt>
      <trkpt lat="48.25582" lon="-3.47584">
        <ele>119.2</ele>
        <time>2022-06-12T13:04:58Z</time>
      </trkpt>
      <trkpt lat="48.25582" lon="-3.47583">
        <ele>119.2</ele>
        <time>2022-06-12T13:04:59Z</time>
      </trkpt>
      <trkpt lat="48.25582" lon="-3.47581">
        <ele>119.2</ele>
        <time>2022-06-12T13:05:00Z</time>
      </trkpt>
      <trkpt lat="48.25583" lon="-3.47579">
        <ele>119.2</ele>
        <time>2022-06-12T13:05:01Z</time>
      </trkpt>
      <trkpt lat="48.25583" lon="-3.47577">
        <ele>119.2</ele>
        <time>2022-06-12T13:05:02Z</time>
      </trkpt>
      <trkpt lat="48.25584" lon="-3.47575">
        <ele>119.2</ele>
        <time>2022-06-12T13:05:03Z</time>
      </trkpt>
      <trkpt lat="48.25584" lon="-3.47574">
        <ele>119.2</ele>
        <time>2022-06-12T13:05:05Z</time>
      </trkpt>
      <trkpt lat="48.25585" lon="-3.47572">
        <ele>119.2</ele>
        <time>2022-06-12T13:05:06Z</time>
      </trkpt>
      <trkpt lat="48.25585" lon="-3.47571">
        <ele>119.2</ele>
        <time>2022-06-12T13:05:07Z</time>
      </trkpt>
      <trkpt lat="48.25586" lon="-3.47569">
        <ele>119.2</ele>
        <time>2022-06-12T13:05:08Z</time>
      </trkpt>
      <trkpt lat="48.25586" lon="-3.47568">
        <ele>119.2</ele>
        <time>2022-06-12T13:05:09Z</time>
      </trkpt>
      <trkpt lat="48.25587" lon="-3.47565">
        <ele>119.2</ele>
        <time>2022-06-12T13:05:10Z</time>
      </trkpt>
      <trkpt lat="48.25588" lon="-3.47564">
        <ele>119.2</ele>
        <time>2022-06-12T13:05:11Z</time>
      </trkpt>
      <trkpt lat="48.25588" lon="-3.47563">
        <ele>119.2</ele>
        <time>2022-06-12T13:05:12Z</time>
      </trkpt>
      <trkpt lat="48.25589" lon="-3.47562">
        <ele>119.2</ele>
        <time>2022-06-12T13:05:13Z</time>
      </trkpt>
      <trkpt lat="48.2559" lon="-3.47561">
        <ele>119.2</ele>
        <time>2022-06-12T13:05:14Z</time>
      </trkpt>
      <trkpt lat="48.2559" lon="-3.47559">
        <ele>119.2</ele>
        <time>2022-06-12T13:05:15Z</time>
      </trkpt>
      <trkpt lat="48.25591" lon="-3.47557">
        <ele>119.2</ele>
        <time>2022-06-12T13:05:16Z</time>
      </trkpt>
      <trkpt lat="48.25592" lon="-3.47556">
        <ele>119.2</ele>
        <time>2022-06-12T13:05:17Z</time>
      </trkpt>
      <trkpt lat="48.25593" lon="-3.47554">
        <ele>119.2</ele>
        <time>2022-06-12T13:05:18Z</time>
      </trkpt>
      <trkpt lat="48.25594" lon="-3.47553">
        <ele>119.2</ele>
        <time>2022-06-12T13:05:19Z</time>
      </trkpt>
      <trkpt lat="48.25594" lon="-3.47551">
        <ele>119.2</ele>
        <time>2022-06-12T13:05:21Z</time>
      </trkpt>
      <trkpt lat="48.25596" lon="-3.47549">
        <ele>119.2</ele>
        <time>2022-06-12T13:05:22Z</time>
      </trkpt>
      <trkpt lat="48.25597" lon="-3.47547">
        <ele>119.2</ele>
        <time>2022-06-12T13:05:23Z</time>
      </trkpt>
      <trkpt lat="48.25598" lon="-3.47546">
        <ele>119.2</ele>
        <time>2022-06-12T13:05:24Z</time>
      </trkpt>
      <trkpt lat="48.25598" lon="-3.47545">
        <ele>119.2</ele>
        <time>2022-06-12T13:05:25Z</time>
      </trkpt>
      <trkpt lat="48.25599" lon="-3.47542">
        <ele>119.2</ele>
        <time>2022-06-12T13:05:26Z</time>
      </trkpt>
      <trkpt lat="48.25599" lon="-3.47541">
        <ele>119.2</ele>
        <time>2022-06-12T13:05:27Z</time>
      </trkpt>
      <trkpt lat="48.256" lon="-3.47539">
        <ele>119.2</ele>
        <time>2022-06-12T13:05:28Z</time>
      </trkpt>
      <trkpt lat="48.256" lon="-3.47538">
        <ele>119.2</ele>
        <time>2022-06-12T13:05:29Z</time>
      </trkpt>
      <trkpt lat="48.25601" lon="-3.47536">
        <ele>119.2</ele>
        <time>2022-06-12T13:05:30Z</time>
      </trkpt>
      <trkpt lat="48.25602" lon="-3.47535">
        <ele>119.2</ele>
        <time>2022-06-12T13:05:31Z</time>
      </trkpt>
      <trkpt lat="48.25603" lon="-3.47533">
        <ele>119.2</ele>
        <time>2022-06-12T13:05:32Z</time>
      </trkpt>
      <trkpt lat="48.25604" lon="-3.47532">
        <ele>119.2</ele>
        <time>2022-06-12T13:05:33Z</time>
      </trkpt>
      <trkpt lat="48.25604" lon="-3.47531">
        <ele>119.2</ele>
        <time>2022-06-12T13:05:34Z</time>
      </trkpt>
      <trkpt lat="48.25605" lon="-3.47529">
        <ele>119.2</ele>
        <time>2022-06-12T13:05:36Z</time>
      </trkpt>
      <trkpt lat="48.25606" lon="-3.47527">
        <ele>119.2</ele>
        <time>2022-06-12T13:05:37Z</time>
      </trkpt>
      <trkpt lat="48.25607" lon="-3.47525">
        <ele>119.2</ele>
        <time>2022-06-12T13:05:38Z</time>
      </trkpt>
      <trkpt lat="48.25607" lon="-3.47523">
        <ele>119.2</ele>
        <time>2022-06-12T13:05:39Z</time>
      </trkpt>
      <trkpt lat="48.25608" lon="-3.47521">
        <ele>119.2</ele>
        <time>2022-06-12T13:05:40Z</time>
      </trkpt>
      <trkpt lat="48.25608" lon="-3.47519">
        <ele>119.2</ele>
        <time>2022-06-12T13:05:41Z</time>
      </trkpt>
      <trkpt lat="48.25609" lon="-3.47517">
        <ele>119.2</ele>
        <time>2022-06-12T13:05:43Z</time>
      </trkpt>
      <trkpt lat="48.2561" lon="-3.47515">
        <ele>119.2</ele>
        <time>2022-06-12T13:05:44Z</time>
      </trkpt>
      <trkpt lat="48.25611" lon="-3.47513">
        <ele>119.2</ele>
        <time>2022-06-12T13:05:45Z</time>
      </trkpt>
      <trkpt lat="48.25611" lon="-3.47511">
        <ele>119.2</ele>
        <time>2022-06-12T13:05:46Z</time>
      </trkpt>
      <trkpt lat="48.25612" lon="-3.4751">
        <ele>119.2</ele>
        <time>2022-06-12T13:05:47Z</time>
      </trkpt>
      <trkpt lat="48.25612" lon="-3.47508">
        <ele>119.2</ele>
        <time>2022-06-12T13:05:48Z</time>
      </trkpt>
      <trkpt lat="48.25613" lon="-3.47506">
        <ele>119.3</ele>
        <time>2022-06-12T13:05:49Z</time>
      </trkpt>
      <trkpt lat="48.25613" lon="-3.47505">
        <ele>119.3</ele>
        <time>2022-06-12T13:05:50Z</time>
      </trkpt>
      <trkpt lat="48.25614" lon="-3.47502">
        <ele>119.3</ele>
        <time>2022-06-12T13:05:51Z</time>
      </trkpt>
      <trkpt lat="48.25614" lon="-3.47501">
        <ele>119.3</ele>
        <time>2022-06-12T13:05:52Z</time>
      </trkpt>
      <trkpt lat="48.25615" lon="-3.475">
        <ele>119.3</ele>
        <time>2022-06-12T13:05:53Z</time>
      </trkpt>
      <trkpt lat="48.25615" lon="-3.47498">
        <ele>119.3</ele>
        <time>2022-06-12T13:05:54Z</time>
      </trkpt>
      <trkpt lat="48.25616" lon="-3.47497">
        <ele>119.3</ele>
        <time>2022-06-12T13:05:55Z</time>
      </trkpt>
      <trkpt lat="48.25617" lon="-3.47494">
        <ele>119.3</ele>
        <time>2022-06-12T13:05:57Z</time>
      </trkpt>
      <trkpt lat="48.25618" lon="-3.47491">
        <ele>119.3</ele>
        <time>2022-06-12T13:05:58Z</time>
      </trkpt>
      <trkpt lat="48.25618" lon="-3.4749">
        <ele>119.3</ele>
        <time>2022-06-12T13:05:59Z</time>
      </trkpt>
      <trkpt lat="48.25618" lon="-3.47489">
        <ele>119.3</ele>
        <time>2022-06-12T13:06:00Z</time>
      </trkpt>
      <trkpt lat="48.25619" lon="-3.47486">
        <ele>119.3</ele>
        <time>2022-06-12T13:06:01Z</time>
      </trkpt>
      <trkpt lat="48.25619" lon="-3.47485">
        <ele>119.3</ele>
        <time>2022-06-12T13:06:02Z</time>
      </trkpt>
      <trkpt lat="48.25619" lon="-3.47483">
        <ele>119.3</ele>
        <time>2022-06-12T13:06:03Z</time>
      </trkpt>
      <trkpt lat="48.2562" lon="-3.47482">
        <ele>119.3</ele>
        <time>2022-06-12T13:06:04Z</time>
      </trkpt>
      <trkpt lat="48.2562" lon="-3.47479">
        <ele>119.3</ele>
        <time>2022-06-12T13:06:06Z</time>
      </trkpt>
      <trkpt lat="48.25621" lon="-3.47477">
        <ele>119.3</ele>
        <time>2022-06-12T13:06:07Z</time>
      </trkpt>
      <trkpt lat="48.25621" lon="-3.47476">
        <ele>119.3</ele>
        <time>2022-06-12T13:06:08Z</time>
      </trkpt>
      <trkpt lat="48.25621" lon="-3.47474">
        <ele>119.4</ele>
        <time>2022-06-12T13:06:09Z</time>
      </trkpt>
      <trkpt lat="48.25621" lon="-3.47472">
        <ele>119.4</ele>
        <time>2022-06-12T13:06:10Z</time>
      </trkpt>
      <trkpt lat="48.25622" lon="-3.47471">
        <ele>119.4</ele>
        <time>2022-06-12T13:06:11Z</time>
      </trkpt>
      <trkpt lat="48.25622" lon="-3.47469">
        <ele>119.4</ele>
        <time>2022-06-12T13:06:13Z</time>
      </trkpt>
      <trkpt lat="48.25623" lon="-3.47467">
        <ele>119.4</ele>
        <time>2022-06-12T13:06:14Z</time>
      </trkpt>
      <trkpt lat="48.25623" lon="-3.47466">
        <ele>119.4</ele>
        <time>2022-06-12T13:06:15Z</time>
      </trkpt>
      <trkpt lat="48.25623" lon="-3.47464">
        <ele>119.4</ele>
        <time>2022-06-12T13:06:16Z</time>
      </trkpt>
      <trkpt lat="48.25624" lon="-3.47461">
        <ele>119.4</ele>
        <time>2022-06-12T13:06:17Z</time>
      </trkpt>
      <trkpt lat="48.25625" lon="-3.4746">
        <ele>119.4</ele>
        <time>2022-06-12T13:06:18Z</time>
      </trkpt>
      <trkpt lat="48.25625" lon="-3.47459">
        <ele>119.4</ele>
        <time>2022-06-12T13:06:19Z</time>
      </trkpt>
      <trkpt lat="48.25626" lon="-3.47458">
        <ele>119.4</ele>
        <time>2022-06-12T13:06:20Z</time>
      </trkpt>
      <trkpt lat="48.25627" lon="-3.47457">
        <ele>119.4</ele>
        <time>2022-06-12T13:06:21Z</time>
      </trkpt>
      <trkpt lat="48.25627" lon="-3.47456">
        <ele>119.4</ele>
        <time>2022-06-12T13:06:22Z</time>
      </trkpt>
      <trkpt lat="48.25628" lon="-3.47454">
        <ele>119.4</ele>
        <time>2022-06-12T13:06:23Z</time>
      </trkpt>
      <trkpt lat="48.25629" lon="-3.47453">
        <ele>119.4</ele>
        <time>2022-06-12T13:06:24Z</time>
      </trkpt>
      <trkpt lat="48.25629" lon="-3.47452">
        <ele>119.4</ele>
        <time>2022-06-12T13:06:26Z</time>
      </trkpt>
      <trkpt lat="48.2563" lon="-3.4745">
        <ele>119.4</ele>
        <time>2022-06-12T13:06:27Z</time>
      </trkpt>
      <trkpt lat="48.2563" lon="-3.47449">
        <ele>119.4</ele>
        <time>2022-06-12T13:06:28Z</time>
      </trkpt>
      <trkpt lat="48.25631" lon="-3.47448">
        <ele>119.4</ele>
        <time>2022-06-12T13:06:29Z</time>
      </trkpt>
      <trkpt lat="48.25632" lon="-3.47446">
        <ele>119.4</ele>
        <time>2022-06-12T13:06:30Z</time>
      </trkpt>
      <trkpt lat="48.25632" lon="-3.47445">
        <ele>119.4</ele>
        <time>2022-06-12T13:06:31Z</time>
      </trkpt>
      <trkpt lat="48.25633" lon="-3.47443">
        <ele>119.4</ele>
        <time>2022-06-12T13:06:32Z</time>
      </trkpt>
      <trkpt lat="48.25633" lon="-3.47442">
        <ele>119.4</ele>
        <time>2022-06-12T13:06:33Z</time>
      </trkpt>
      <trkpt lat="48.25634" lon="-3.47441">
        <ele>119.4</ele>
        <time>2022-06-12T13:06:34Z</time>
      </trkpt>
      <trkpt lat="48.25635" lon="-3.47439">
        <ele>119.4</ele>
        <time>2022-06-12T13:06:35Z</time>
      </trkpt>
      <trkpt lat="48.25635" lon="-3.47437">
        <ele>119.4</ele>
        <time>2022-06-12T13:06:36Z</time>
      </trkpt>
      <trkpt lat="48.25636" lon="-3.47435">
        <ele>119.5</ele>
        <time>2022-06-12T13:06:37Z</time>
      </trkpt>
      <trkpt lat="48.25637" lon="-3.47434">
        <ele>119.5</ele>
        <time>2022-06-12T13:06:38Z</time>
      </trkpt>
      <trkpt lat="48.25638" lon="-3.47433">
        <ele>119.5</ele>
        <time>2022-06-12T13:06:40Z</time>
      </trkpt>
      <trkpt lat="48.25638" lon="-3.47431">
        <ele>119.5</ele>
        <time>2022-06-12T13:06:41Z</time>
      </trkpt>
      <trkpt lat="48.25639" lon="-3.47429">
        <ele>119.5</ele>
        <time>2022-06-12T13:06:42Z</time>
      </trkpt>
      <trkpt lat="48.25639" lon="-3.47428">
        <ele>119.5</ele>
        <time>2022-06-12T13:06:43Z</time>
      </trkpt>
      <trkpt lat="48.25639" lon="-3.47426">
        <ele>119.5</ele>
        <time>2022-06-12T13:06:44Z</time>
      </trkpt>
      <trkpt lat="48.2564" lon="-3.47425">
        <ele>119.5</ele>
        <time>2022-06-12T13:06:45Z</time>
      </trkpt>
      <trkpt lat="48.2564" lon="-3.47424">
        <ele>119.5</ele>
        <time>2022-06-12T13:06:46Z</time>
      </trkpt>
      <trkpt lat="48.25641" lon="-3.47422">
        <ele>119.5</ele>
        <time>2022-06-12T13:06:47Z</time>
      </trkpt>
      <trkpt lat="48.25642" lon="-3.47419">
        <ele>119.5</ele>
        <time>2022-06-12T13:06:48Z</time>
      </trkpt>
      <trkpt lat="48.25642" lon="-3.47418">
        <ele>119.5</ele>
        <time>2022-06-12T13:06:49Z</time>
      </trkpt>
      <trkpt lat="48.25642" lon="-3.47417">
        <ele>119.5</ele>
        <time>2022-06-12T13:06:50Z</time>
      </trkpt>
      <trkpt lat="48.25643" lon="-3.47414">
        <ele>119.5</ele>
        <time>2022-06-12T13:06:51Z</time>
      </trkpt>
      <trkpt lat="48.25644" lon="-3.47413">
        <ele>119.5</ele>
        <time>2022-06-12T13:06:52Z</time>
      </trkpt>
      <trkpt lat="48.25644" lon="-3.47412">
        <ele>119.5</ele>
        <time>2022-06-12T13:06:53Z</time>
      </trkpt>
      <trkpt lat="48.25645" lon="-3.4741">
        <ele>119.5</ele>
        <time>2022-06-12T13:06:55Z</time>
      </trkpt>
      <trkpt lat="48.25646" lon="-3.47409">
        <ele>119.5</ele>
        <time>2022-06-12T13:06:56Z</time>
      </trkpt>
      <trkpt lat="48.25646" lon="-3.47407">
        <ele>119.5</ele>
        <time>2022-06-12T13:06:57Z</time>
      </trkpt>
      <trkpt lat="48.25646" lon="-3.47406">
        <ele>119.5</ele>
        <time>2022-06-12T13:06:58Z</time>
      </trkpt>
      <trkpt lat="48.25647" lon="-3.47403">
        <ele>119.5</ele>
        <time>2022-06-12T13:06:59Z</time>
      </trkpt>
      <trkpt lat="48.25647" lon="-3.47401">
        <ele>119.5</ele>
        <time>2022-06-12T13:07:00Z</time>
      </trkpt>
      <trkpt lat="48.25647" lon="-3.474">
        <ele>119.6</ele>
        <time>2022-06-12T13:07:01Z</time>
      </trkpt>
      <trkpt lat="48.25647" lon="-3.47398">
        <ele>119.6</ele>
        <time>2022-06-12T13:07:02Z</time>
      </trkpt>
      <trkpt lat="48.25647" lon="-3.47396">
        <ele>119.6</ele>
        <time>2022-06-12T13:07:03Z</time>
      </trkpt>
      <trkpt lat="48.25646" lon="-3.47394">
        <ele>119.6</ele>
        <time>2022-06-12T13:07:04Z</time>
      </trkpt>
      <trkpt lat="48.25646" lon="-3.47391">
        <ele>119.6</ele>
        <time>2022-06-12T13:07:05Z</time>
      </trkpt>
      <trkpt lat="48.25647" lon="-3.47389">
        <ele>119.6</ele>
        <time>2022-06-12T13:07:06Z</time>
      </trkpt>
      <trkpt lat="48.25647" lon="-3.47386">
        <ele>119.6</ele>
        <time>2022-06-12T13:07:08Z</time>
      </trkpt>
      <trkpt lat="48.25647" lon="-3.47384">
        <ele>119.6</ele>
        <time>2022-06-12T13:07:09Z</time>
      </trkpt>
      <trkpt lat="48.25647" lon="-3.47383">
        <ele>119.6</ele>
        <time>2022-06-12T13:07:10Z</time>
      </trkpt>
      <trkpt lat="48.25647" lon="-3.4738">
        <ele>119.6</ele>
        <time>2022-06-12T13:07:11Z</time>
      </trkpt>
      <trkpt lat="48.25648" lon="-3.47378">
        <ele>119.6</ele>
        <time>2022-06-12T13:07:12Z</time>
      </trkpt>
      <trkpt lat="48.25648" lon="-3.47376">
        <ele>119.6</ele>
        <time>2022-06-12T13:07:13Z</time>
      </trkpt>
      <trkpt lat="48.25648" lon="-3.47373">
        <ele>119.6</ele>
        <time>2022-06-12T13:07:14Z</time>
      </trkpt>
      <trkpt lat="48.25649" lon="-3.47371">
        <ele>119.6</ele>
        <time>2022-06-12T13:07:15Z</time>
      </trkpt>
      <trkpt lat="48.25649" lon="-3.47369">
        <ele>119.6</ele>
        <time>2022-06-12T13:07:16Z</time>
      </trkpt>
      <trkpt lat="48.25649" lon="-3.47367">
        <ele>119.6</ele>
        <time>2022-06-12T13:07:17Z</time>
      </trkpt>
      <trkpt lat="48.25649" lon="-3.47365">
        <ele>119.6</ele>
        <time>2022-06-12T13:07:19Z</time>
      </trkpt>
      <trkpt lat="48.2565" lon="-3.47362">
        <ele>119.6</ele>
        <time>2022-06-12T13:07:20Z</time>
      </trkpt>
      <trkpt lat="48.2565" lon="-3.4736">
        <ele>119.6</ele>
        <time>2022-06-12T13:07:21Z</time>
      </trkpt>
      <trkpt lat="48.25651" lon="-3.47359">
        <ele>119.6</ele>
        <time>2022-06-12T13:07:22Z</time>
      </trkpt>
      <trkpt lat="48.25651" lon="-3.47357">
        <ele>119.6</ele>
        <time>2022-06-12T13:07:23Z</time>
      </trkpt>
      <trkpt lat="48.25652" lon="-3.47354">
        <ele>119.6</ele>
        <time>2022-06-12T13:07:24Z</time>
      </trkpt>
      <trkpt lat="48.25653" lon="-3.47353">
        <ele>119.6</ele>
        <time>2022-06-12T13:07:26Z</time>
      </trkpt>
      <trkpt lat="48.25653" lon="-3.47351">
        <ele>119.6</ele>
        <time>2022-06-12T13:07:27Z</time>
      </trkpt>
      <trkpt lat="48.25654" lon="-3.47349">
        <ele>119.6</ele>
        <time>2022-06-12T13:07:28Z</time>
      </trkpt>
      <trkpt lat="48.25654" lon="-3.47348">
        <ele>119.6</ele>
        <time>2022-06-12T13:07:29Z</time>
      </trkpt>
      <trkpt lat="48.25655" lon="-3.47346">
        <ele>119.6</ele>
        <time>2022-06-12T13:07:30Z</time>
      </trkpt>
      <trkpt lat="48.25655" lon="-3.47344">
        <ele>119.6</ele>
        <time>2022-06-12T13:07:31Z</time>
      </trkpt>
      <trkpt lat="48.25655" lon="-3.47343">
        <ele>119.6</ele>
        <time>2022-06-12T13:07:32Z</time>
      </trkpt>
      <trkpt lat="48.25656" lon="-3.4734">
        <ele>119.6</ele>
        <time>2022-06-12T13:07:33Z</time>
      </trkpt>
      <trkpt lat="48.25656" lon="-3.47338">
        <ele>119.6</ele>
        <time>2022-06-12T13:07:34Z</time>
      </trkpt>
      <trkpt lat="48.25656" lon="-3.47337">
        <ele>119.6</ele>
        <time>2022-06-12T13:07:35Z</time>
      </trkpt>
      <trkpt lat="48.25657" lon="-3.47335">
        <ele>119.6</ele>
        <time>2022-06-12T13:07:37Z</time>
      </trkpt>
      <trkpt lat="48.25658" lon="-3.47334">
        <ele>119.6</ele>
        <time>2022-06-12T13:07:38Z</time>
      </trkpt>
      <trkpt lat="48.25659" lon="-3.47331">
        <ele>119.6</ele>
        <time>2022-06-12T13:07:39Z</time>
      </trkpt>
      <trkpt lat="48.2566" lon="-3.4733">
        <ele>119.6</ele>
        <time>2022-06-12T13:07:40Z</time>
      </trkpt>
      <trkpt lat="48.2566" lon="-3.47328">
        <ele>119.7</ele>
        <time>2022-06-12T13:07:41Z</time>
      </trkpt>
      <trkpt lat="48.2566" lon="-3.47327">
        <ele>119.7</ele>
        <time>2022-06-12T13:07:42Z</time>
      </trkpt>
      <trkpt lat="48.25661" lon="-3.47324">
        <ele>119.7</ele>
        <time>2022-06-12T13:07:43Z</time>
      </trkpt>
      <trkpt lat="48.25661" lon="-3.47322">
        <ele>119.7</ele>
        <time>2022-06-12T13:07:44Z</time>
      </trkpt>
      <trkpt lat="48.25661" lon="-3.47319">
        <ele>119.7</ele>
        <time>2022-06-12T13:07:46Z</time>
      </trkpt>
      <trkpt lat="48.25661" lon="-3.47317">
        <ele>119.7</ele>
        <time>2022-06-12T13:07:47Z</time>
      </trkpt>
      <trkpt lat="48.25661" lon="-3.47315">
        <ele>119.7</ele>
        <time>2022-06-12T13:07:48Z</time>
      </trkpt>
      <trkpt lat="48.25661" lon="-3.47313">
        <ele>119.7</ele>
        <time>2022-06-12T13:07:49Z</time>
      </trkpt>
      <trkpt lat="48.25661" lon="-3.47312">
        <ele>119.7</ele>
        <time>2022-06-12T13:07:50Z</time>
      </trkpt>
      <trkpt lat="48.25662" lon="-3.4731">
        <ele>119.7</ele>
        <time>2022-06-12T13:07:51Z</time>
      </trkpt>
      <trkpt lat="48.25662" lon="-3.47308">
        <ele>119.7</ele>
        <time>2022-06-12T13:07:52Z</time>
      </trkpt>
      <trkpt lat="48.25662" lon="-3.47305">
        <ele>119.7</ele>
        <time>2022-06-12T13:07:53Z</time>
      </trkpt>
      <trkpt lat="48.25662" lon="-3.47304">
        <ele>119.7</ele>
        <time>2022-06-12T13:07:55Z</time>
      </trkpt>
      <trkpt lat="48.25662" lon="-3.47302">
        <ele>119.7</ele>
        <time>2022-06-12T13:07:56Z</time>
      </trkpt>
      <trkpt lat="48.25662" lon="-3.47301">
        <ele>119.7</ele>
        <time>2022-06-12T13:07:57Z</time>
      </trkpt>
      <trkpt lat="48.25662" lon="-3.47298">
        <ele>119.7</ele>
        <time>2022-06-12T13:07:58Z</time>
      </trkpt>
      <trkpt lat="48.25662" lon="-3.47297">
        <ele>119.7</ele>
        <time>2022-06-12T13:07:59Z</time>
      </trkpt>
      <trkpt lat="48.25663" lon="-3.47296">
        <ele>119.7</ele>
        <time>2022-06-12T13:08:00Z</time>
      </trkpt>
      <trkpt lat="48.25663" lon="-3.47293">
        <ele>119.7</ele>
        <time>2022-06-12T13:08:02Z</time>
      </trkpt>
      <trkpt lat="48.25663" lon="-3.47292">
        <ele>119.7</ele>
        <time>2022-06-12T13:08:03Z</time>
      </trkpt>
      <trkpt lat="48.25663" lon="-3.4729">
        <ele>119.7</ele>
        <time>2022-06-12T13:08:04Z</time>
      </trkpt>
      <trkpt lat="48.25664" lon="-3.47289">
        <ele>119.7</ele>
        <time>2022-06-12T13:08:05Z</time>
      </trkpt>
      <trkpt lat="48.25664" lon="-3.47287">
        <ele>119.7</ele>
        <time>2022-06-12T13:08:06Z</time>
      </trkpt>
      <trkpt lat="48.25665" lon="-3.47287">
        <ele>119.7</ele>
        <time>2022-06-12T13:08:08Z</time>
      </trkpt>
      <trkpt lat="48.25666" lon="-3.47288">
        <ele>119.7</ele>
        <time>2022-06-12T13:08:09Z</time>
      </trkpt>
      <trkpt lat="48.25666" lon="-3.47288">
        <ele>119.8</ele>
        <time>2022-06-12T13:08:10Z</time>
      </trkpt>
      <trkpt lat="48.25667" lon="-3.47287">
        <ele>119.8</ele>
        <time>2022-06-12T13:08:11Z</time>
      </trkpt>
      <trkpt lat="48.25667" lon="-3.47285">
        <ele>119.8</ele>
        <time>2022-06-12T13:08:12Z</time>
      </trkpt>
      <trkpt lat="48.25667" lon="-3.47283">
        <ele>119.8</ele>
        <time>2022-06-12T13:08:13Z</time>
      </trkpt>
      <trkpt lat="48.25667" lon="-3.47281">
        <ele>119.8</ele>
        <time>2022-06-12T13:08:14Z</time>
      </trkpt>
      <trkpt lat="48.25667" lon="-3.4728">
        <ele>119.8</ele>
        <time>2022-06-12T13:08:15Z</time>
      </trkpt>
      <trkpt lat="48.25668" lon="-3.47278">
        <ele>119.8</ele>
        <time>2022-06-12T13:08:16Z</time>
      </trkpt>
      <trkpt lat="48.25669" lon="-3.47278">
        <ele>119.8</ele>
        <time>2022-06-12T13:08:17Z</time>
      </trkpt>
      <trkpt lat="48.25669" lon="-3.47277">
        <ele>119.8</ele>
        <time>2022-06-12T13:08:18Z</time>
      </trkpt>
      <trkpt lat="48.25669" lon="-3.47276">
        <ele>119.8</ele>
        <time>2022-06-12T13:08:19Z</time>
      </trkpt>
      <trkpt lat="48.25668" lon="-3.47275">
        <ele>119.8</ele>
        <time>2022-06-12T13:08:20Z</time>
      </trkpt>
      <trkpt lat="48.25668" lon="-3.47274">
        <ele>119.8</ele>
        <time>2022-06-12T13:08:22Z</time>
      </trkpt>
      <trkpt lat="48.25668" lon="-3.47273">
        <ele>119.8</ele>
        <time>2022-06-12T13:08:23Z</time>
      </trkpt>
      <trkpt lat="48.25668" lon="-3.47272">
        <ele>119.8</ele>
        <time>2022-06-12T13:08:24Z</time>
      </trkpt>
      <trkpt lat="48.25668" lon="-3.47271">
        <ele>119.8</ele>
        <time>2022-06-12T13:08:25Z</time>
      </trkpt>
      <trkpt lat="48.25668" lon="-3.47269">
        <ele>119.8</ele>
        <time>2022-06-12T13:08:26Z</time>
      </trkpt>
      <trkpt lat="48.25668" lon="-3.47268">
        <ele>119.9</ele>
        <time>2022-06-12T13:08:27Z</time>
      </trkpt>
      <trkpt lat="48.25667" lon="-3.47266">
        <ele>119.9</ele>
        <time>2022-06-12T13:08:28Z</time>
      </trkpt>
      <trkpt lat="48.25667" lon="-3.47263">
        <ele>119.9</ele>
        <time>2022-06-12T13:08:30Z</time>
      </trkpt>
      <trkpt lat="48.25666" lon="-3.47262">
        <ele>119.9</ele>
        <time>2022-06-12T13:08:31Z</time>
      </trkpt>
      <trkpt lat="48.25666" lon="-3.4726">
        <ele>119.9</ele>
        <time>2022-06-12T13:08:32Z</time>
      </trkpt>
      <trkpt lat="48.25666" lon="-3.47259">
        <ele>119.9</ele>
        <time>2022-06-12T13:08:33Z</time>
      </trkpt>
      <trkpt lat="48.25665" lon="-3.47256">
        <ele>120</ele>
        <time>2022-06-12T13:08:34Z</time>
      </trkpt>
      <trkpt lat="48.25665" lon="-3.47254">
        <ele>120</ele>
        <time>2022-06-12T13:08:35Z</time>
      </trkpt>
      <trkpt lat="48.25665" lon="-3.47253">
        <ele>120</ele>
        <time>2022-06-12T13:08:36Z</time>
      </trkpt>
      <trkpt lat="48.25665" lon="-3.47251">
        <ele>120</ele>
        <time>2022-06-12T13:08:37Z</time>
      </trkpt>
      <trkpt lat="48.25664" lon="-3.4725">
        <ele>120</ele>
        <time>2022-06-12T13:08:38Z</time>
      </trkpt>
      <trkpt lat="48.25664" lon="-3.47247">
        <ele>120</ele>
        <time>2022-06-12T13:08:39Z</time>
      </trkpt>
      <trkpt lat="48.25663" lon="-3.47246">
        <ele>120</ele>
        <time>2022-06-12T13:08:40Z</time>
      </trkpt>
      <trkpt lat="48.25663" lon="-3.47245">
        <ele>120</ele>
        <time>2022-06-12T13:08:41Z</time>
      </trkpt>
      <trkpt lat="48.25663" lon="-3.47243">
        <ele>120.1</ele>
        <time>2022-06-12T13:08:42Z</time>
      </trkpt>
      <trkpt lat="48.25663" lon="-3.47241">
        <ele>120.1</ele>
        <time>2022-06-12T13:08:44Z</time>
      </trkpt>
      <trkpt lat="48.25662" lon="-3.47239">
        <ele>120.1</ele>
        <time>2022-06-12T13:08:45Z</time>
      </trkpt>
      <trkpt lat="48.25662" lon="-3.47238">
        <ele>120.1</ele>
        <time>2022-06-12T13:08:46Z</time>
      </trkpt>
      <trkpt lat="48.25662" lon="-3.47236">
        <ele>120.2</ele>
        <time>2022-06-12T13:08:47Z</time>
      </trkpt>
      <trkpt lat="48.25661" lon="-3.47235">
        <ele>120.2</ele>
        <time>2022-06-12T13:08:48Z</time>
      </trkpt>
      <trkpt lat="48.25661" lon="-3.47232">
        <ele>120.2</ele>
        <time>2022-06-12T13:08:49Z</time>
      </trkpt>
      <trkpt lat="48.25661" lon="-3.47232">
        <ele>120.2</ele>
        <time>2022-06-12T13:08:50Z</time>
      </trkpt>
      <trkpt lat="48.25661" lon="-3.47231">
        <ele>120.2</ele>
        <time>2022-06-12T13:08:51Z</time>
      </trkpt>
      <trkpt lat="48.2566" lon="-3.47229">
        <ele>120.3</ele>
        <time>2022-06-12T13:08:52Z</time>
      </trkpt>
      <trkpt lat="48.2566" lon="-3.47228">
        <ele>120.3</ele>
        <time>2022-06-12T13:08:53Z</time>
      </trkpt>
      <trkpt lat="48.25659" lon="-3.47225">
        <ele>120.3</ele>
        <time>2022-06-12T13:08:54Z</time>
      </trkpt>
      <trkpt lat="48.25659" lon="-3.47224">
        <ele>120.3</ele>
        <time>2022-06-12T13:08:55Z</time>
      </trkpt>
      <trkpt lat="48.25659" lon="-3.47223">
        <ele>120.3</ele>
        <time>2022-06-12T13:08:56Z</time>
      </trkpt>
      <trkpt lat="48.25659" lon="-3.47221">
        <ele>120.4</ele>
        <time>2022-06-12T13:08:58Z</time>
      </trkpt>
      <trkpt lat="48.25658" lon="-3.47218">
        <ele>120.4</ele>
        <time>2022-06-12T13:08:59Z</time>
      </trkpt>
      <trkpt lat="48.25658" lon="-3.47216">
        <ele>120.4</ele>
        <time>2022-06-12T13:09:00Z</time>
      </trkpt>
      <trkpt lat="48.25658" lon="-3.47215">
        <ele>120.4</ele>
        <time>2022-06-12T13:09:01Z</time>
      </trkpt>
      <trkpt lat="48.25658" lon="-3.47214">
        <ele>120.5</ele>
        <time>2022-06-12T13:09:02Z</time>
      </trkpt>
      <trkpt lat="48.25657" lon="-3.47213">
        <ele>120.5</ele>
        <time>2022-06-12T13:09:03Z</time>
      </trkpt>
      <trkpt lat="48.25657" lon="-3.47211">
        <ele>120.5</ele>
        <time>2022-06-12T13:09:05Z</time>
      </trkpt>
      <trkpt lat="48.25657" lon="-3.47209">
        <ele>120.5</ele>
        <time>2022-06-12T13:09:06Z</time>
      </trkpt>
      <trkpt lat="48.25656" lon="-3.47208">
        <ele>120.5</ele>
        <time>2022-06-12T13:09:07Z</time>
      </trkpt>
      <trkpt lat="48.25656" lon="-3.47206">
        <ele>120.6</ele>
        <time>2022-06-12T13:09:08Z</time>
      </trkpt>
      <trkpt lat="48.25655" lon="-3.47203">
        <ele>120.6</ele>
        <time>2022-06-12T13:09:09Z</time>
      </trkpt>
      <trkpt lat="48.25655" lon="-3.47202">
        <ele>120.6</ele>
        <time>2022-06-12T13:09:10Z</time>
      </trkpt>
      <trkpt lat="48.25655" lon="-3.47201">
        <ele>120.6</ele>
        <time>2022-06-12T13:09:11Z</time>
      </trkpt>
      <trkpt lat="48.25654" lon="-3.47199">
        <ele>120.7</ele>
        <time>2022-06-12T13:09:12Z</time>
      </trkpt>
      <trkpt lat="48.25653" lon="-3.47196">
        <ele>120.7</ele>
        <time>2022-06-12T13:09:14Z</time>
      </trkpt>
      <trkpt lat="48.25653" lon="-3.47194">
        <ele>120.7</ele>
        <time>2022-06-12T13:09:15Z</time>
      </trkpt>
      <trkpt lat="48.25652" lon="-3.47193">
        <ele>120.8</ele>
        <time>2022-06-12T13:09:16Z</time>
      </trkpt>
      <trkpt lat="48.25651" lon="-3.47192">
        <ele>120.8</ele>
        <time>2022-06-12T13:09:17Z</time>
      </trkpt>
      <trkpt lat="48.25651" lon="-3.47191">
        <ele>120.8</ele>
        <time>2022-06-12T13:09:18Z</time>
      </trkpt>
      <trkpt lat="48.2565" lon="-3.47188">
        <ele>120.8</ele>
        <time>2022-06-12T13:09:19Z</time>
      </trkpt>
      <trkpt lat="48.25649" lon="-3.47187">
        <ele>120.9</ele>
        <time>2022-06-12T13:09:20Z</time>
      </trkpt>
      <trkpt lat="48.25648" lon="-3.47183">
        <ele>120.9</ele>
        <time>2022-06-12T13:09:22Z</time>
      </trkpt>
      <trkpt lat="48.25647" lon="-3.47182">
        <ele>121</ele>
        <time>2022-06-12T13:09:23Z</time>
      </trkpt>
      <trkpt lat="48.25646" lon="-3.4718">
        <ele>121</ele>
        <time>2022-06-12T13:09:24Z</time>
      </trkpt>
      <trkpt lat="48.25645" lon="-3.47177">
        <ele>121</ele>
        <time>2022-06-12T13:09:25Z</time>
      </trkpt>
      <trkpt lat="48.25644" lon="-3.47175">
        <ele>121.1</ele>
        <time>2022-06-12T13:09:27Z</time>
      </trkpt>
      <trkpt lat="48.25643" lon="-3.47174">
        <ele>121.1</ele>
        <time>2022-06-12T13:09:28Z</time>
      </trkpt>
      <trkpt lat="48.25642" lon="-3.47172">
        <ele>121.1</ele>
        <time>2022-06-12T13:09:29Z</time>
      </trkpt>
      <trkpt lat="48.25642" lon="-3.47171">
        <ele>121.1</ele>
        <time>2022-06-12T13:09:30Z</time>
      </trkpt>
      <trkpt lat="48.25641" lon="-3.4717">
        <ele>121.2</ele>
        <time>2022-06-12T13:09:31Z</time>
      </trkpt>
      <trkpt lat="48.25641" lon="-3.4717">
        <ele>121.2</ele>
        <time>2022-06-12T13:09:32Z</time>
      </trkpt>
      <trkpt lat="48.2564" lon="-3.47169">
        <ele>121.2</ele>
        <time>2022-06-12T13:09:33Z</time>
      </trkpt>
      <trkpt lat="48.2564" lon="-3.47168">
        <ele>121.2</ele>
        <time>2022-06-12T13:09:34Z</time>
      </trkpt>
      <trkpt lat="48.25641" lon="-3.47168">
        <ele>121.2</ele>
        <time>2022-06-12T13:09:35Z</time>
      </trkpt>
      <trkpt lat="48.25641" lon="-3.47168">
        <ele>121.2</ele>
        <time>2022-06-12T13:09:36Z</time>
      </trkpt>
      <trkpt lat="48.25641" lon="-3.47167">
        <ele>121.2</ele>
        <time>2022-06-12T13:09:37Z</time>
      </trkpt>
      <trkpt lat="48.25641" lon="-3.47168">
        <ele>121.2</ele>
        <time>2022-06-12T13:09:38Z</time>
      </trkpt>
      <trkpt lat="48.25642" lon="-3.47168">
        <ele>121.2</ele>
        <time>2022-06-12T13:09:40Z</time>
      </trkpt>
      <trkpt lat="48.25642" lon="-3.47167">
        <ele>121.2</ele>
        <time>2022-06-12T13:09:41Z</time>
      </trkpt>
      <trkpt lat="48.25641" lon="-3.47167">
        <ele>121.2</ele>
        <time>2022-06-12T13:09:42Z</time>
      </trkpt>
      <trkpt lat="48.25641" lon="-3.47167">
        <ele>121.2</ele>
        <time>2022-06-12T13:09:43Z</time>
      </trkpt>
      <trkpt lat="48.2564" lon="-3.47168">
        <ele>121.3</ele>
        <time>2022-06-12T13:09:45Z</time>
      </trkpt>
      <trkpt lat="48.25639" lon="-3.47169">
        <ele>121.3</ele>
        <time>2022-06-12T13:09:46Z</time>
      </trkpt>
      <trkpt lat="48.25639" lon="-3.4717">
        <ele>121.3</ele>
        <time>2022-06-12T13:09:47Z</time>
      </trkpt>
      <trkpt lat="48.25639" lon="-3.4717">
        <ele>121.3</ele>
        <time>2022-06-12T13:09:48Z</time>
      </trkpt>
      <trkpt lat="48.25639" lon="-3.4717">
        <ele>121.3</ele>
        <time>2022-06-12T13:09:49Z</time>
      </trkpt>
      <trkpt lat="48.25639" lon="-3.4717">
        <ele>121.3</ele>
        <time>2022-06-12T13:09:50Z</time>
      </trkpt>
      <trkpt lat="48.25639" lon="-3.47171">
        <ele>121.3</ele>
        <time>2022-06-12T13:09:51Z</time>
      </trkpt>
      <trkpt lat="48.25639" lon="-3.47171">
        <ele>121.3</ele>
        <time>2022-06-12T13:09:52Z</time>
      </trkpt>
      <trkpt lat="48.25639" lon="-3.47171">
        <ele>121.3</ele>
        <time>2022-06-12T13:09:54Z</time>
      </trkpt>
      <trkpt lat="48.25639" lon="-3.4717">
        <ele>121.3</ele>
        <time>2022-06-12T13:09:55Z</time>
      </trkpt>
      <trkpt lat="48.25639" lon="-3.4717">
        <ele>121.3</ele>
        <time>2022-06-12T13:09:57Z</time>
      </trkpt>
      <trkpt lat="48.25639" lon="-3.4717">
        <ele>121.3</ele>
        <time>2022-06-12T13:09:58Z</time>
      </trkpt>
      <trkpt lat="48.25639" lon="-3.47169">
        <ele>121.3</ele>
        <time>2022-06-12T13:09:59Z</time>
      </trkpt>
      <trkpt lat="48.25638" lon="-3.47169">
        <ele>121.3</ele>
        <time>2022-06-12T13:10:00Z</time>
      </trkpt>
      <trkpt lat="48.25638" lon="-3.47168">
        <ele>121.3</ele>
        <time>2022-06-12T13:10:01Z</time>
      </trkpt>
      <trkpt lat="48.25638" lon="-3.47168">
        <ele>121.3</ele>
        <time>2022-06-12T13:10:02Z</time>
      </trkpt>
      <trkpt lat="48.25638" lon="-3.47167">
        <ele>121.3</ele>
        <time>2022-06-12T13:10:03Z</time>
      </trkpt>
      <trkpt lat="48.25638" lon="-3.47167">
        <ele>121.3</ele>
        <time>2022-06-12T13:10:05Z</time>
      </trkpt>
      <trkpt lat="48.25639" lon="-3.47166">
        <ele>121.3</ele>
        <time>2022-06-12T13:10:07Z</time>
      </trkpt>
      <trkpt lat="48.25639" lon="-3.47166">
        <ele>121.3</ele>
        <time>2022-06-12T13:10:08Z</time>
      </trkpt>
      <trkpt lat="48.2564" lon="-3.47166">
        <ele>121.3</ele>
        <time>2022-06-12T13:10:09Z</time>
      </trkpt>
      <trkpt lat="48.25641" lon="-3.47166">
        <ele>121.3</ele>
        <time>2022-06-12T13:10:10Z</time>
      </trkpt>
      <trkpt lat="48.25641" lon="-3.47166">
        <ele>121.3</ele>
        <time>2022-06-12T13:10:11Z</time>
      </trkpt>
      <trkpt lat="48.25642" lon="-3.47166">
        <ele>121.3</ele>
        <time>2022-06-12T13:10:12Z</time>
      </trkpt>
      <trkpt lat="48.25642" lon="-3.47166">
        <ele>121.3</ele>
        <time>2022-06-12T13:10:13Z</time>
      </trkpt>
      <trkpt lat="48.25643" lon="-3.47166">
        <ele>121.3</ele>
        <time>2022-06-12T13:10:14Z</time>
      </trkpt>
      <trkpt lat="48.25643" lon="-3.47165">
        <ele>121.3</ele>
        <time>2022-06-12T13:10:16Z</time>
      </trkpt>
      <trkpt lat="48.25643" lon="-3.47165">
        <ele>121.3</ele>
        <time>2022-06-12T13:10:17Z</time>
      </trkpt>
      <trkpt lat="48.25644" lon="-3.47165">
        <ele>121.3</ele>
        <time>2022-06-12T13:10:18Z</time>
      </trkpt>
      <trkpt lat="48.25644" lon="-3.47165">
        <ele>121.3</ele>
        <time>2022-06-12T13:10:19Z</time>
      </trkpt>
      <trkpt lat="48.25645" lon="-3.47165">
        <ele>121.3</ele>
        <time>2022-06-12T13:10:20Z</time>
      </trkpt>
      <trkpt lat="48.25646" lon="-3.47165">
        <ele>121.3</ele>
        <time>2022-06-12T13:10:21Z</time>
      </trkpt>
      <trkpt lat="48.25647" lon="-3.47165">
        <ele>121.3</ele>
        <time>2022-06-12T13:10:22Z</time>
      </trkpt>
      <trkpt lat="48.25647" lon="-3.47165">
        <ele>121.3</ele>
        <time>2022-06-12T13:10:23Z</time>
      </trkpt>
      <trkpt lat="48.25647" lon="-3.47165">
        <ele>121.3</ele>
        <time>2022-06-12T13:10:24Z</time>
      </trkpt>
      <trkpt lat="48.25647" lon="-3.47164">
        <ele>121.3</ele>
        <time>2022-06-12T13:10:25Z</time>
      </trkpt>
      <trkpt lat="48.25647" lon="-3.47164">
        <ele>121.3</ele>
        <time>2022-06-12T13:10:26Z</time>
      </trkpt>
      <trkpt lat="48.25647" lon="-3.47163">
        <ele>121.3</ele>
        <time>2022-06-12T13:10:27Z</time>
      </trkpt>
      <trkpt lat="48.25647" lon="-3.47163">
        <ele>121.3</ele>
        <time>2022-06-12T13:10:28Z</time>
      </trkpt>
      <trkpt lat="48.25647" lon="-3.47162">
        <ele>121.3</ele>
        <time>2022-06-12T13:10:29Z</time>
      </trkpt>
      <trkpt lat="48.25646" lon="-3.47162">
        <ele>121.3</ele>
        <time>2022-06-12T13:10:30Z</time>
      </trkpt>
      <trkpt lat="48.25646" lon="-3.47161">
        <ele>121.3</ele>
        <time>2022-06-12T13:10:31Z</time>
      </trkpt>
      <trkpt lat="48.25646" lon="-3.4716">
        <ele>121.3</ele>
        <time>2022-06-12T13:10:32Z</time>
      </trkpt>
      <trkpt lat="48.25645" lon="-3.47159">
        <ele>121.3</ele>
        <time>2022-06-12T13:10:34Z</time>
      </trkpt>
      <trkpt lat="48.25645" lon="-3.47157">
        <ele>121.3</ele>
        <time>2022-06-12T13:10:35Z</time>
      </trkpt>
      <trkpt lat="48.25645" lon="-3.47156">
        <ele>121.3</ele>
        <time>2022-06-12T13:10:36Z</time>
      </trkpt>
      <trkpt lat="48.25645" lon="-3.47154">
        <ele>121.3</ele>
        <time>2022-06-12T13:10:37Z</time>
      </trkpt>
      <trkpt lat="48.25644" lon="-3.47152">
        <ele>121.3</ele>
        <time>2022-06-12T13:10:39Z</time>
      </trkpt>
      <trkpt lat="48.25644" lon="-3.4715">
        <ele>121.3</ele>
        <time>2022-06-12T13:10:40Z</time>
      </trkpt>
      <trkpt lat="48.25643" lon="-3.47148">
        <ele>121.3</ele>
        <time>2022-06-12T13:10:41Z</time>
      </trkpt>
      <trkpt lat="48.25645" lon="-3.4715">
        <ele>121.3</ele>
        <time>2022-06-12T13:10:43Z</time>
      </trkpt>
      <trkpt lat="48.25644" lon="-3.4715">
        <ele>121.3</ele>
        <time>2022-06-12T13:10:44Z</time>
      </trkpt>
      <trkpt lat="48.25644" lon="-3.4715">
        <ele>121.3</ele>
        <time>2022-06-12T13:10:45Z</time>
      </trkpt>
      <trkpt lat="48.25643" lon="-3.47149">
        <ele>121.3</ele>
        <time>2022-06-12T13:10:46Z</time>
      </trkpt>
      <trkpt lat="48.25641" lon="-3.47149">
        <ele>121.3</ele>
        <time>2022-06-12T13:10:48Z</time>
      </trkpt>
      <trkpt lat="48.25642" lon="-3.47148">
        <ele>121.3</ele>
        <time>2022-06-12T13:10:49Z</time>
      </trkpt>
      <trkpt lat="48.25642" lon="-3.47148">
        <ele>121.3</ele>
        <time>2022-06-12T13:10:50Z</time>
      </trkpt>
      <trkpt lat="48.25642" lon="-3.47147">
        <ele>121.3</ele>
        <time>2022-06-12T13:10:51Z</time>
      </trkpt>
      <trkpt lat="48.25642" lon="-3.47147">
        <ele>121.3</ele>
        <time>2022-06-12T13:10:52Z</time>
      </trkpt>
      <trkpt lat="48.25643" lon="-3.47147">
        <ele>121.3</ele>
        <time>2022-06-12T13:10:53Z</time>
      </trkpt>
      <trkpt lat="48.25643" lon="-3.47147">
        <ele>121.3</ele>
        <time>2022-06-12T13:10:54Z</time>
      </trkpt>
      <trkpt lat="48.25643" lon="-3.47147">
        <ele>121.3</ele>
        <time>2022-06-12T13:10:55Z</time>
      </trkpt>
      <trkpt lat="48.25644" lon="-3.47148">
        <ele>121.2</ele>
        <time>2022-06-12T13:10:56Z</time>
      </trkpt>
      <trkpt lat="48.25644" lon="-3.47148">
        <ele>121.2</ele>
        <time>2022-06-12T13:10:57Z</time>
      </trkpt>
      <trkpt lat="48.25644" lon="-3.47148">
        <ele>121.2</ele>
        <time>2022-06-12T13:10:58Z</time>
      </trkpt>
      <trkpt lat="48.25644" lon="-3.47148">
        <ele>121.2</ele>
        <time>2022-06-12T13:10:59Z</time>
      </trkpt>
      <trkpt lat="48.25644" lon="-3.47148">
        <ele>121.2</ele>
        <time>2022-06-12T13:11:00Z</time>
      </trkpt>
      <trkpt lat="48.25644" lon="-3.47148">
        <ele>121.2</ele>
        <time>2022-06-12T13:11:01Z</time>
      </trkpt>
      <trkpt lat="48.25644" lon="-3.47148">
        <ele>121.2</ele>
        <time>2022-06-12T13:11:02Z</time>
      </trkpt>
      <trkpt lat="48.25644" lon="-3.47148">
        <ele>121.2</ele>
        <time>2022-06-12T13:11:03Z</time>
      </trkpt>
      <trkpt lat="48.25644" lon="-3.47148">
        <ele>121.2</ele>
        <time>2022-06-12T13:11:04Z</time>
      </trkpt>
      <trkpt lat="48.25644" lon="-3.47148">
        <ele>121.2</ele>
        <time>2022-06-12T13:11:05Z</time>
      </trkpt>
      <trkpt lat="48.25644" lon="-3.47148">
        <ele>121.2</ele>
        <time>2022-06-12T13:11:06Z</time>
      </trkpt>
      <trkpt lat="48.25644" lon="-3.47148">
        <ele>121.2</ele>
        <time>2022-06-12T13:11:07Z</time>
      </trkpt>
      <trkpt lat="48.25645" lon="-3.47149">
        <ele>121.2</ele>
        <time>2022-06-12T13:11:08Z</time>
      </trkpt>
      <trkpt lat="48.25645" lon="-3.47149">
        <ele>121.2</ele>
        <time>2022-06-12T13:11:09Z</time>
      </trkpt>
      <trkpt lat="48.25645" lon="-3.47149">
        <ele>121.2</ele>
        <time>2022-06-12T13:11:10Z</time>
      </trkpt>
      <trkpt lat="48.25645" lon="-3.47149">
        <ele>121.2</ele>
        <time>2022-06-12T13:11:11Z</time>
      </trkpt>
      <trkpt lat="48.25645" lon="-3.47149">
        <ele>121.2</ele>
        <time>2022-06-12T13:11:12Z</time>
      </trkpt>
      <trkpt lat="48.25645" lon="-3.47149">
        <ele>121.2</ele>
        <time>2022-06-12T13:11:13Z</time>
      </trkpt>
      <trkpt lat="48.25645" lon="-3.47149">
        <ele>121.2</ele>
        <time>2022-06-12T13:11:14Z</time>
      </trkpt>
      <trkpt lat="48.25645" lon="-3.47149">
        <ele>121.2</ele>
        <time>2022-06-12T13:11:15Z</time>
      </trkpt>
      <trkpt lat="48.25645" lon="-3.47149">
        <ele>121.2</ele>
        <time>2022-06-12T13:11:16Z</time>
      </trkpt>
      <trkpt lat="48.25645" lon="-3.47149">
        <ele>121.2</ele>
        <time>2022-06-12T13:11:17Z</time>
      </trkpt>
      <trkpt lat="48.25645" lon="-3.47149">
        <ele>121.2</ele>
        <time>2022-06-12T13:11:18Z</time>
      </trkpt>
      <trkpt lat="48.25645" lon="-3.47149">
        <ele>121.2</ele>
        <time>2022-06-12T13:11:19Z</time>
      </trkpt>
      <trkpt lat="48.25645" lon="-3.47149">
        <ele>121.2</ele>
        <time>2022-06-12T13:11:20Z</time>
      </trkpt>
      <trkpt lat="48.25645" lon="-3.47148">
        <ele>121.2</ele>
        <time>2022-06-12T13:11:21Z</time>
      </trkpt>
      <trkpt lat="48.25644" lon="-3.47148">
        <ele>121.2</ele>
        <time>2022-06-12T13:11:22Z</time>
      </trkpt>
      <trkpt lat="48.25644" lon="-3.47147">
        <ele>121.2</ele>
        <time>2022-06-12T13:11:24Z</time>
      </trkpt>
      <trkpt lat="48.25644" lon="-3.47146">
        <ele>121.2</ele>
        <time>2022-06-12T13:11:25Z</time>
      </trkpt>
      <trkpt lat="48.25643" lon="-3.47145">
        <ele>121.2</ele>
        <time>2022-06-12T13:11:26Z</time>
      </trkpt>
      <trkpt lat="48.25643" lon="-3.47143">
        <ele>121.2</ele>
        <time>2022-06-12T13:11:27Z</time>
      </trkpt>
      <trkpt lat="48.25642" lon="-3.47141">
        <ele>121.2</ele>
        <time>2022-06-12T13:11:29Z</time>
      </trkpt>
      <trkpt lat="48.25641" lon="-3.47139">
        <ele>121.2</ele>
        <time>2022-06-12T13:11:30Z</time>
      </trkpt>
      <trkpt lat="48.25641" lon="-3.47137">
        <ele>121.2</ele>
        <time>2022-06-12T13:11:31Z</time>
      </trkpt>
      <trkpt lat="48.2564" lon="-3.47135">
        <ele>121.2</ele>
        <time>2022-06-12T13:11:32Z</time>
      </trkpt>
      <trkpt lat="48.2564" lon="-3.47133">
        <ele>121.2</ele>
        <time>2022-06-12T13:11:33Z</time>
      </trkpt>
      <trkpt lat="48.25638" lon="-3.47131">
        <ele>121.2</ele>
        <time>2022-06-12T13:11:34Z</time>
      </trkpt>
      <trkpt lat="48.25636" lon="-3.47127">
        <ele>121.2</ele>
        <time>2022-06-12T13:11:36Z</time>
      </trkpt>
      <trkpt lat="48.25635" lon="-3.47126">
        <ele>121.2</ele>
        <time>2022-06-12T13:11:37Z</time>
      </trkpt>
      <trkpt lat="48.25634" lon="-3.47125">
        <ele>121.2</ele>
        <time>2022-06-12T13:11:38Z</time>
      </trkpt>
      <trkpt lat="48.25634" lon="-3.47125">
        <ele>121.2</ele>
        <time>2022-06-12T13:11:39Z</time>
      </trkpt>
      <trkpt lat="48.25634" lon="-3.47125">
        <ele>121.2</ele>
        <time>2022-06-12T13:11:40Z</time>
      </trkpt>
      <trkpt lat="48.25633" lon="-3.47125">
        <ele>121.2</ele>
        <time>2022-06-12T13:11:41Z</time>
      </trkpt>
      <trkpt lat="48.25633" lon="-3.47126">
        <ele>121.2</ele>
        <time>2022-06-12T13:11:42Z</time>
      </trkpt>
      <trkpt lat="48.25633" lon="-3.47126">
        <ele>121.2</ele>
        <time>2022-06-12T13:11:43Z</time>
      </trkpt>
      <trkpt lat="48.25633" lon="-3.47126">
        <ele>121.2</ele>
        <time>2022-06-12T13:11:44Z</time>
      </trkpt>
      <trkpt lat="48.25633" lon="-3.47126">
        <ele>121.2</ele>
        <time>2022-06-12T13:11:45Z</time>
      </trkpt>
      <trkpt lat="48.25633" lon="-3.47126">
        <ele>121.2</ele>
        <time>2022-06-12T13:11:46Z</time>
      </trkpt>
      <trkpt lat="48.25633" lon="-3.47126">
        <ele>121.2</ele>
        <time>2022-06-12T13:11:47Z</time>
      </trkpt>
      <trkpt lat="48.25633" lon="-3.47125">
        <ele>121.2</ele>
        <time>2022-06-12T13:11:48Z</time>
      </trkpt>
      <trkpt lat="48.25633" lon="-3.47125">
        <ele>121.2</ele>
        <time>2022-06-12T13:11:49Z</time>
      </trkpt>
      <trkpt lat="48.25633" lon="-3.47125">
        <ele>121.2</ele>
        <time>2022-06-12T13:11:50Z</time>
      </trkpt>
      <trkpt lat="48.25633" lon="-3.47124">
        <ele>121.2</ele>
        <time>2022-06-12T13:11:51Z</time>
      </trkpt>
      <trkpt lat="48.25633" lon="-3.47124">
        <ele>121.2</ele>
        <time>2022-06-12T13:11:52Z</time>
      </trkpt>
      <trkpt lat="48.25632" lon="-3.47124">
        <ele>121.2</ele>
        <time>2022-06-12T13:11:53Z</time>
      </trkpt>
      <trkpt lat="48.25632" lon="-3.47124">
        <ele>121.2</ele>
        <time>2022-06-12T13:11:54Z</time>
      </trkpt>
      <trkpt lat="48.25632" lon="-3.47124">
        <ele>121.2</ele>
        <time>2022-06-12T13:11:55Z</time>
      </trkpt>
      <trkpt lat="48.25632" lon="-3.47124">
        <ele>121.2</ele>
        <time>2022-06-12T13:11:56Z</time>
      </trkpt>
      <trkpt lat="48.25633" lon="-3.47123">
        <ele>121.2</ele>
        <time>2022-06-12T13:11:57Z</time>
      </trkpt>
      <trkpt lat="48.25633" lon="-3.47123">
        <ele>121.2</ele>
        <time>2022-06-12T13:11:58Z</time>
      </trkpt>
      <trkpt lat="48.25633" lon="-3.47123">
        <ele>121.2</ele>
        <time>2022-06-12T13:11:59Z</time>
      </trkpt>
      <trkpt lat="48.25633" lon="-3.47123">
        <ele>121.2</ele>
        <time>2022-06-12T13:12:00Z</time>
      </trkpt>
      <trkpt lat="48.25633" lon="-3.47123">
        <ele>121.2</ele>
        <time>2022-06-12T13:12:01Z</time>
      </trkpt>
      <trkpt lat="48.25633" lon="-3.47123">
        <ele>121.2</ele>
        <time>2022-06-12T13:12:02Z</time>
      </trkpt>
      <trkpt lat="48.25633" lon="-3.47123">
        <ele>121.2</ele>
        <time>2022-06-12T13:12:03Z</time>
      </trkpt>
      <trkpt lat="48.25633" lon="-3.47123">
        <ele>121.2</ele>
        <time>2022-06-12T13:12:04Z</time>
      </trkpt>
      <trkpt lat="48.25633" lon="-3.47123">
        <ele>121.2</ele>
        <time>2022-06-12T13:12:05Z</time>
      </trkpt>
      <trkpt lat="48.25633" lon="-3.47123">
        <ele>121.2</ele>
        <time>2022-06-12T13:12:06Z</time>
      </trkpt>
      <trkpt lat="48.25633" lon="-3.47123">
        <ele>121.2</ele>
        <time>2022-06-12T13:12:07Z</time>
      </trkpt>
      <trkpt lat="48.25633" lon="-3.47123">
        <ele>121.2</ele>
        <time>2022-06-12T13:12:08Z</time>
      </trkpt>
      <trkpt lat="48.25633" lon="-3.47123">
        <ele>121.2</ele>
        <time>2022-06-12T13:12:09Z</time>
      </trkpt>
      <trkpt lat="48.25633" lon="-3.47123">
        <ele>121.2</ele>
        <time>2022-06-12T13:12:10Z</time>
      </trkpt>
      <trkpt lat="48.25633" lon="-3.47123">
        <ele>121.2</ele>
        <time>2022-06-12T13:12:11Z</time>
      </trkpt>
      <trkpt lat="48.25633" lon="-3.47123">
        <ele>121.2</ele>
        <time>2022-06-12T13:12:12Z</time>
      </trkpt>
      <trkpt lat="48.25633" lon="-3.47123">
        <ele>121.2</ele>
        <time>2022-06-12T13:12:13Z</time>
      </trkpt>
      <trkpt lat="48.25633" lon="-3.47123">
        <ele>121.2</ele>
        <time>2022-06-12T13:12:14Z</time>
      </trkpt>
      <trkpt lat="48.25633" lon="-3.47123">
        <ele>121.2</ele>
        <time>2022-06-12T13:12:15Z</time>
      </trkpt>
      <trkpt lat="48.25633" lon="-3.47123">
        <ele>121.2</ele>
        <time>2022-06-12T13:12:16Z</time>
      </trkpt>
      <trkpt lat="48.25633" lon="-3.47123">
        <ele>121.2</ele>
        <time>2022-06-12T13:12:17Z</time>
      </trkpt>
      <trkpt lat="48.25633" lon="-3.47123">
        <ele>121.2</ele>
        <time>2022-06-12T13:12:18Z</time>
      </trkpt>
      <trkpt lat="48.25633" lon="-3.47123">
        <ele>121.2</ele>
        <time>2022-06-12T13:12:19Z</time>
      </trkpt>
      <trkpt lat="48.25633" lon="-3.47123">
        <ele>121.2</ele>
        <time>2022-06-12T13:12:20Z</time>
      </trkpt>
      <trkpt lat="48.25633" lon="-3.47123">
        <ele>121.2</ele>
        <time>2022-06-12T13:12:21Z</time>
      </trkpt>
      <trkpt lat="48.25633" lon="-3.47123">
        <ele>121.2</ele>
        <time>2022-06-12T13:12:22Z</time>
      </trkpt>
      <trkpt lat="48.25633" lon="-3.47123">
        <ele>121.2</ele>
        <time>2022-06-12T13:12:23Z</time>
      </trkpt>
      <trkpt lat="48.25633" lon="-3.47123">
        <ele>121.2</ele>
        <time>2022-06-12T13:12:24Z</time>
      </trkpt>
      <trkpt lat="48.25633" lon="-3.47123">
        <ele>121.2</ele>
        <time>2022-06-12T13:12:25Z</time>
      </trkpt>
      <trkpt lat="48.25633" lon="-3.47123">
        <ele>121.2</ele>
        <time>2022-06-12T13:12:26Z</time>
      </trkpt>
      <trkpt lat="48.25633" lon="-3.47123">
        <ele>121.2</ele>
        <time>2022-06-12T13:12:27Z</time>
      </trkpt>
      <trkpt lat="48.25633" lon="-3.47123">
        <ele>121.2</ele>
        <time>2022-06-12T13:12:28Z</time>
      </trkpt>
      <trkpt lat="48.25633" lon="-3.47123">
        <ele>121.2</ele>
        <time>2022-06-12T13:12:29Z</time>
      </trkpt>
      <trkpt lat="48.25633" lon="-3.47123">
        <ele>121.2</ele>
        <time>2022-06-12T13:12:30Z</time>
      </trkpt>
      <trkpt lat="48.25633" lon="-3.47123">
        <ele>121.2</ele>
        <time>2022-06-12T13:12:31Z</time>
      </trkpt>
      <trkpt lat="48.25633" lon="-3.47123">
        <ele>121.2</ele>
        <time>2022-06-12T13:12:32Z</time>
      </trkpt>
      <trkpt lat="48.25633" lon="-3.47123">
        <ele>121.2</ele>
        <time>2022-06-12T13:12:33Z</time>
      </trkpt>
      <trkpt lat="48.25633" lon="-3.47123">
        <ele>121.2</ele>
        <time>2022-06-12T13:12:34Z</time>
      </trkpt>
      <trkpt lat="48.25633" lon="-3.47123">
        <ele>121.2</ele>
        <time>2022-06-12T13:12:35Z</time>
      </trkpt>
      <trkpt lat="48.25633" lon="-3.47123">
        <ele>121.2</ele>
        <time>2022-06-12T13:12:36Z</time>
      </trkpt>
      <trkpt lat="48.25633" lon="-3.47123">
        <ele>121.2</ele>
        <time>2022-06-12T13:12:37Z</time>
      </trkpt>
      <trkpt lat="48.25633" lon="-3.47123">
        <ele>121.2</ele>
        <time>2022-06-12T13:12:38Z</time>
      </trkpt>
      <trkpt lat="48.25633" lon="-3.47123">
        <ele>121.2</ele>
        <time>2022-06-12T13:12:39Z</time>
      </trkpt>
      <trkpt lat="48.25633" lon="-3.47123">
        <ele>121.2</ele>
        <time>2022-06-12T13:12:40Z</time>
      </trkpt>
      <trkpt lat="48.25633" lon="-3.47123">
        <ele>121.2</ele>
        <time>2022-06-12T13:12:41Z</time>
      </trkpt>
      <trkpt lat="48.25633" lon="-3.47123">
        <ele>121.2</ele>
        <time>2022-06-12T13:12:42Z</time>
      </trkpt>
      <trkpt lat="48.25633" lon="-3.47123">
        <ele>121.2</ele>
        <time>2022-06-12T13:12:43Z</time>
      </trkpt>
      <trkpt lat="48.25633" lon="-3.47123">
        <ele>121.2</ele>
        <time>2022-06-12T13:12:44Z</time>
      </trkpt>
      <trkpt lat="48.25633" lon="-3.47123">
        <ele>121.2</ele>
        <time>2022-06-12T13:12:45Z</time>
      </trkpt>
      <trkpt lat="48.25633" lon="-3.47123">
        <ele>121.2</ele>
        <time>2022-06-12T13:12:46Z</time>
      </trkpt>
      <trkpt lat="48.25633" lon="-3.47123">
        <ele>121.2</ele>
        <time>2022-06-12T13:12:47Z</time>
      </trkpt>
      <trkpt lat="48.25633" lon="-3.47123">
        <ele>121.2</ele>
        <time>2022-06-12T13:12:48Z</time>
      </trkpt>
      <trkpt lat="48.25633" lon="-3.47123">
        <ele>121.2</ele>
        <time>2022-06-12T13:12:49Z</time>
      </trkpt>
      <trkpt lat="48.25633" lon="-3.47123">
        <ele>121.2</ele>
        <time>2022-06-12T13:12:50Z</time>
      </trkpt>
      <trkpt lat="48.25633" lon="-3.47123">
        <ele>121.2</ele>
        <time>2022-06-12T13:12:51Z</time>
      </trkpt>
      <trkpt lat="48.25633" lon="-3.47123">
        <ele>121.2</ele>
        <time>2022-06-12T13:12:52Z</time>
      </trkpt>
      <trkpt lat="48.25633" lon="-3.47123">
        <ele>121.2</ele>
        <time>2022-06-12T13:12:53Z</time>
      </trkpt>
      <trkpt lat="48.25633" lon="-3.47123">
        <ele>121.2</ele>
        <time>2022-06-12T13:12:54Z</time>
      </trkpt>
      <trkpt lat="48.25633" lon="-3.47123">
        <ele>121.2</ele>
        <time>2022-06-12T13:12:55Z</time>
      </trkpt>
      <trkpt lat="48.25633" lon="-3.47123">
        <ele>121.2</ele>
        <time>2022-06-12T13:12:56Z</time>
      </trkpt>
      <trkpt lat="48.25633" lon="-3.47123">
        <ele>121.2</ele>
        <time>2022-06-12T13:12:57Z</time>
      </trkpt>
      <trkpt lat="48.25633" lon="-3.47123">
        <ele>121.2</ele>
        <time>2022-06-12T13:12:58Z</time>
      </trkpt>
      <trkpt lat="48.25633" lon="-3.47123">
        <ele>121.2</ele>
        <time>2022-06-12T13:12:59Z</time>
      </trkpt>
      <trkpt lat="48.25633" lon="-3.47123">
        <ele>121.2</ele>
        <time>2022-06-12T13:13:00Z</time>
      </trkpt>
      <trkpt lat="48.25633" lon="-3.47123">
        <ele>121.2</ele>
        <time>2022-06-12T13:13:01Z</time>
      </trkpt>
      <trkpt lat="48.25633" lon="-3.47123">
        <ele>121.2</ele>
        <time>2022-06-12T13:13:02Z</time>
      </trkpt>
      <trkpt lat="48.25633" lon="-3.47123">
        <ele>121.2</ele>
        <time>2022-06-12T13:13:03Z</time>
      </trkpt>
      <trkpt lat="48.25633" lon="-3.47123">
        <ele>121.2</ele>
        <time>2022-06-12T13:13:04Z</time>
      </trkpt>
      <trkpt lat="48.25633" lon="-3.47123">
        <ele>121.2</ele>
        <time>2022-06-12T13:13:05Z</time>
      </trkpt>
      <trkpt lat="48.25633" lon="-3.47123">
        <ele>121.2</ele>
        <time>2022-06-12T13:13:06Z</time>
      </trkpt>
      <trkpt lat="48.25633" lon="-3.47123">
        <ele>121.2</ele>
        <time>2022-06-12T13:13:07Z</time>
      </trkpt>
      <trkpt lat="48.25632" lon="-3.47123">
        <ele>121.2</ele>
        <time>2022-06-12T13:13:08Z</time>
      </trkpt>
      <trkpt lat="48.25632" lon="-3.47123">
        <ele>121.2</ele>
        <time>2022-06-12T13:13:09Z</time>
      </trkpt>
      <trkpt lat="48.25632" lon="-3.47123">
        <ele>121.2</ele>
        <time>2022-06-12T13:13:10Z</time>
      </trkpt>
      <trkpt lat="48.25632" lon="-3.47123">
        <ele>121.2</ele>
        <time>2022-06-12T13:13:11Z</time>
      </trkpt>
      <trkpt lat="48.25632" lon="-3.47123">
        <ele>121.2</ele>
        <time>2022-06-12T13:13:12Z</time>
      </trkpt>
      <trkpt lat="48.25632" lon="-3.47123">
        <ele>121.2</ele>
        <time>2022-06-12T13:13:13Z</time>
      </trkpt>
      <trkpt lat="48.25632" lon="-3.47123">
        <ele>121.2</ele>
        <time>2022-06-12T13:13:14Z</time>
      </trkpt>
      <trkpt lat="48.25632" lon="-3.47123">
        <ele>121.2</ele>
        <time>2022-06-12T13:13:15Z</time>
      </trkpt>
      <trkpt lat="48.25632" lon="-3.47123">
        <ele>121.2</ele>
        <time>2022-06-12T13:13:16Z</time>
      </trkpt>
      <trkpt lat="48.25632" lon="-3.47122">
        <ele>121.2</ele>
        <time>2022-06-12T13:13:17Z</time>
      </trkpt>
      <trkpt lat="48.25632" lon="-3.47121">
        <ele>121.2</ele>
        <time>2022-06-12T13:13:19Z</time>
      </trkpt>
      <trkpt lat="48.25632" lon="-3.47121">
        <ele>121.2</ele>
        <time>2022-06-12T13:13:20Z</time>
      </trkpt>
      <trkpt lat="48.25632" lon="-3.4712">
        <ele>121.2</ele>
        <time>2022-06-12T13:13:21Z</time>
      </trkpt>
      <trkpt lat="48.25633" lon="-3.47118">
        <ele>121.2</ele>
        <time>2022-06-12T13:13:22Z</time>
      </trkpt>
      <trkpt lat="48.25633" lon="-3.47117">
        <ele>121.2</ele>
        <time>2022-06-12T13:13:23Z</time>
      </trkpt>
      <trkpt lat="48.25633" lon="-3.47116">
        <ele>121.2</ele>
        <time>2022-06-12T13:13:25Z</time>
      </trkpt>
      <trkpt lat="48.25633" lon="-3.47114">
        <ele>121.2</ele>
        <time>2022-06-12T13:13:26Z</time>
      </trkpt>
      <trkpt lat="48.25634" lon="-3.47112">
        <ele>121.2</ele>
        <time>2022-06-12T13:13:27Z</time>
      </trkpt>
      <trkpt lat="48.25633" lon="-3.47111">
        <ele>121.2</ele>
        <time>2022-06-12T13:13:28Z</time>
      </trkpt>
      <trkpt lat="48.25633" lon="-3.47109">
        <ele>121.2</ele>
        <time>2022-06-12T13:13:29Z</time>
      </trkpt>
      <trkpt lat="48.25634" lon="-3.47108">
        <ele>121.2</ele>
        <time>2022-06-12T13:13:30Z</time>
      </trkpt>
      <trkpt lat="48.25634" lon="-3.47105">
        <ele>121.2</ele>
        <time>2022-06-12T13:13:31Z</time>
      </trkpt>
      <trkpt lat="48.25633" lon="-3.47104">
        <ele>121.2</ele>
        <time>2022-06-12T13:13:33Z</time>
      </trkpt>
      <trkpt lat="48.25633" lon="-3.47102">
        <ele>121.2</ele>
        <time>2022-06-12T13:13:34Z</time>
      </trkpt>
      <trkpt lat="48.25632" lon="-3.471">
        <ele>121.2</ele>
        <time>2022-06-12T13:13:35Z</time>
      </trkpt>
      <trkpt lat="48.25632" lon="-3.47099">
        <ele>121.2</ele>
        <time>2022-06-12T13:13:36Z</time>
      </trkpt>
      <trkpt lat="48.25631" lon="-3.47097">
        <ele>121.2</ele>
        <time>2022-06-12T13:13:37Z</time>
      </trkpt>
      <trkpt lat="48.2563" lon="-3.47095">
        <ele>121.2</ele>
        <time>2022-06-12T13:13:39Z</time>
      </trkpt>
      <trkpt lat="48.2563" lon="-3.47093">
        <ele>121.2</ele>
        <time>2022-06-12T13:13:40Z</time>
      </trkpt>
      <trkpt lat="48.2563" lon="-3.47092">
        <ele>121.2</ele>
        <time>2022-06-12T13:13:41Z</time>
      </trkpt>
      <trkpt lat="48.25629" lon="-3.47088">
        <ele>121.2</ele>
        <time>2022-06-12T13:13:42Z</time>
      </trkpt>
      <trkpt lat="48.25629" lon="-3.47087">
        <ele>121.2</ele>
        <time>2022-06-12T13:13:43Z</time>
      </trkpt>
      <trkpt lat="48.25629" lon="-3.47086">
        <ele>121.2</ele>
        <time>2022-06-12T13:13:44Z</time>
      </trkpt>
      <trkpt lat="48.25628" lon="-3.47084">
        <ele>121.2</ele>
        <time>2022-06-12T13:13:45Z</time>
      </trkpt>
      <trkpt lat="48.25628" lon="-3.47081">
        <ele>121.2</ele>
        <time>2022-06-12T13:13:46Z</time>
      </trkpt>
      <trkpt lat="48.25628" lon="-3.4708">
        <ele>121.2</ele>
        <time>2022-06-12T13:13:48Z</time>
      </trkpt>
      <trkpt lat="48.25628" lon="-3.47079">
        <ele>121.2</ele>
        <time>2022-06-12T13:13:49Z</time>
      </trkpt>
      <trkpt lat="48.25628" lon="-3.47078">
        <ele>121.2</ele>
        <time>2022-06-12T13:13:50Z</time>
      </trkpt>
      <trkpt lat="48.25627" lon="-3.47076">
        <ele>121.2</ele>
        <time>2022-06-12T13:13:51Z</time>
      </trkpt>
      <trkpt lat="48.25627" lon="-3.47074">
        <ele>121.2</ele>
        <time>2022-06-12T13:13:52Z</time>
      </trkpt>
      <trkpt lat="48.25627" lon="-3.47071">
        <ele>121.2</ele>
        <time>2022-06-12T13:13:53Z</time>
      </trkpt>
      <trkpt lat="48.25627" lon="-3.4707">
        <ele>121.2</ele>
        <time>2022-06-12T13:13:54Z</time>
      </trkpt>
      <trkpt lat="48.25627" lon="-3.47069">
        <ele>121.2</ele>
        <time>2022-06-12T13:13:55Z</time>
      </trkpt>
      <trkpt lat="48.25627" lon="-3.47067">
        <ele>121.2</ele>
        <time>2022-06-12T13:13:56Z</time>
      </trkpt>
      <trkpt lat="48.25627" lon="-3.47064">
        <ele>121.2</ele>
        <time>2022-06-12T13:13:57Z</time>
      </trkpt>
      <trkpt lat="48.25627" lon="-3.47062">
        <ele>121.2</ele>
        <time>2022-06-12T13:13:58Z</time>
      </trkpt>
      <trkpt lat="48.25627" lon="-3.4706">
        <ele>121.2</ele>
        <time>2022-06-12T13:13:59Z</time>
      </trkpt>
      <trkpt lat="48.25627" lon="-3.47058">
        <ele>121.2</ele>
        <time>2022-06-12T13:14:01Z</time>
      </trkpt>
      <trkpt lat="48.25627" lon="-3.47055">
        <ele>121.2</ele>
        <time>2022-06-12T13:14:02Z</time>
      </trkpt>
      <trkpt lat="48.25627" lon="-3.47053">
        <ele>121.2</ele>
        <time>2022-06-12T13:14:03Z</time>
      </trkpt>
      <trkpt lat="48.25627" lon="-3.47051">
        <ele>121.2</ele>
        <time>2022-06-12T13:14:04Z</time>
      </trkpt>
      <trkpt lat="48.25627" lon="-3.47049">
        <ele>121.2</ele>
        <time>2022-06-12T13:14:05Z</time>
      </trkpt>
      <trkpt lat="48.25627" lon="-3.47047">
        <ele>121.2</ele>
        <time>2022-06-12T13:14:06Z</time>
      </trkpt>
      <trkpt lat="48.25628" lon="-3.47045">
        <ele>121.2</ele>
        <time>2022-06-12T13:14:07Z</time>
      </trkpt>
      <trkpt lat="48.25628" lon="-3.47043">
        <ele>121.2</ele>
        <time>2022-06-12T13:14:08Z</time>
      </trkpt>
      <trkpt lat="48.25627" lon="-3.47041">
        <ele>121.2</ele>
        <time>2022-06-12T13:14:09Z</time>
      </trkpt>
      <trkpt lat="48.25627" lon="-3.47039">
        <ele>121.2</ele>
        <time>2022-06-12T13:14:10Z</time>
      </trkpt>
      <trkpt lat="48.25627" lon="-3.47037">
        <ele>121.2</ele>
        <time>2022-06-12T13:14:11Z</time>
      </trkpt>
      <trkpt lat="48.25627" lon="-3.47034">
        <ele>121.2</ele>
        <time>2022-06-12T13:14:12Z</time>
      </trkpt>
      <trkpt lat="48.25627" lon="-3.47032">
        <ele>121.2</ele>
        <time>2022-06-12T13:14:13Z</time>
      </trkpt>
      <trkpt lat="48.25627" lon="-3.4703">
        <ele>121.2</ele>
        <time>2022-06-12T13:14:15Z</time>
      </trkpt>
      <trkpt lat="48.25627" lon="-3.47028">
        <ele>121.2</ele>
        <time>2022-06-12T13:14:16Z</time>
      </trkpt>
      <trkpt lat="48.25627" lon="-3.47025">
        <ele>121.2</ele>
        <time>2022-06-12T13:14:17Z</time>
      </trkpt>
      <trkpt lat="48.25627" lon="-3.47022">
        <ele>121.2</ele>
        <time>2022-06-12T13:14:18Z</time>
      </trkpt>
      <trkpt lat="48.25627" lon="-3.47021">
        <ele>121.2</ele>
        <time>2022-06-12T13:14:19Z</time>
      </trkpt>
      <trkpt lat="48.25627" lon="-3.47019">
        <ele>121.2</ele>
        <time>2022-06-12T13:14:20Z</time>
      </trkpt>
      <trkpt lat="48.25626" lon="-3.47017">
        <ele>121.2</ele>
        <time>2022-06-12T13:14:21Z</time>
      </trkpt>
      <trkpt lat="48.25626" lon="-3.47015">
        <ele>121.2</ele>
        <time>2022-06-12T13:14:22Z</time>
      </trkpt>
      <trkpt lat="48.25626" lon="-3.47013">
        <ele>121.2</ele>
        <time>2022-06-12T13:14:23Z</time>
      </trkpt>
      <trkpt lat="48.25625" lon="-3.47011">
        <ele>121.2</ele>
        <time>2022-06-12T13:14:24Z</time>
      </trkpt>
      <trkpt lat="48.25625" lon="-3.47009">
        <ele>121.2</ele>
        <time>2022-06-12T13:14:25Z</time>
      </trkpt>
      <trkpt lat="48.25624" lon="-3.47006">
        <ele>121.2</ele>
        <time>2022-06-12T13:14:27Z</time>
      </trkpt>
      <trkpt lat="48.25623" lon="-3.47006">
        <ele>121.2</ele>
        <time>2022-06-12T13:14:28Z</time>
      </trkpt>
      <trkpt lat="48.25622" lon="-3.47005">
        <ele>121.2</ele>
        <time>2022-06-12T13:14:29Z</time>
      </trkpt>
      <trkpt lat="48.25622" lon="-3.47004">
        <ele>121.2</ele>
        <time>2022-06-12T13:14:30Z</time>
      </trkpt>
      <trkpt lat="48.25621" lon="-3.47002">
        <ele>121.2</ele>
        <time>2022-06-12T13:14:31Z</time>
      </trkpt>
      <trkpt lat="48.25621" lon="-3.47001">
        <ele>121.2</ele>
        <time>2022-06-12T13:14:32Z</time>
      </trkpt>
      <trkpt lat="48.2562" lon="-3.46997">
        <ele>121.2</ele>
        <time>2022-06-12T13:14:34Z</time>
      </trkpt>
      <trkpt lat="48.2562" lon="-3.46996">
        <ele>121.2</ele>
        <time>2022-06-12T13:14:35Z</time>
      </trkpt>
      <trkpt lat="48.2562" lon="-3.46994">
        <ele>121.2</ele>
        <time>2022-06-12T13:14:36Z</time>
      </trkpt>
      <trkpt lat="48.25619" lon="-3.46993">
        <ele>121.2</ele>
        <time>2022-06-12T13:14:37Z</time>
      </trkpt>
      <trkpt lat="48.25619" lon="-3.46992">
        <ele>121.2</ele>
        <time>2022-06-12T13:14:38Z</time>
      </trkpt>
      <trkpt lat="48.25618" lon="-3.4699">
        <ele>121.2</ele>
        <time>2022-06-12T13:14:39Z</time>
      </trkpt>
      <trkpt lat="48.25617" lon="-3.4699">
        <ele>121.2</ele>
        <time>2022-06-12T13:14:40Z</time>
      </trkpt>
      <trkpt lat="48.25616" lon="-3.46991">
        <ele>121.2</ele>
        <time>2022-06-12T13:14:41Z</time>
      </trkpt>
      <trkpt lat="48.25616" lon="-3.46992">
        <ele>121.2</ele>
        <time>2022-06-12T13:14:42Z</time>
      </trkpt>
      <trkpt lat="48.25616" lon="-3.46994">
        <ele>121.2</ele>
        <time>2022-06-12T13:14:43Z</time>
      </trkpt>
      <trkpt lat="48.25616" lon="-3.46994">
        <ele>121.2</ele>
        <time>2022-06-12T13:14:44Z</time>
      </trkpt>
      <trkpt lat="48.25616" lon="-3.46995">
        <ele>121.2</ele>
        <time>2022-06-12T13:14:45Z</time>
      </trkpt>
      <trkpt lat="48.25616" lon="-3.46996">
        <ele>121.2</ele>
        <time>2022-06-12T13:14:46Z</time>
      </trkpt>
      <trkpt lat="48.25616" lon="-3.46996">
        <ele>121.2</ele>
        <time>2022-06-12T13:14:47Z</time>
      </trkpt>
      <trkpt lat="48.25616" lon="-3.46996">
        <ele>121.2</ele>
        <time>2022-06-12T13:14:48Z</time>
      </trkpt>
      <trkpt lat="48.25616" lon="-3.46996">
        <ele>121.2</ele>
        <time>2022-06-12T13:14:49Z</time>
      </trkpt>
      <trkpt lat="48.25616" lon="-3.46996">
        <ele>121.2</ele>
        <time>2022-06-12T13:14:50Z</time>
      </trkpt>
      <trkpt lat="48.25616" lon="-3.46996">
        <ele>121.2</ele>
        <time>2022-06-12T13:14:51Z</time>
      </trkpt>
      <trkpt lat="48.25616" lon="-3.46996">
        <ele>121.2</ele>
        <time>2022-06-12T13:14:52Z</time>
      </trkpt>
      <trkpt lat="48.25616" lon="-3.46996">
        <ele>121.2</ele>
        <time>2022-06-12T13:14:53Z</time>
      </trkpt>
      <trkpt lat="48.25616" lon="-3.46997">
        <ele>121.2</ele>
        <time>2022-06-12T13:14:54Z</time>
      </trkpt>
      <trkpt lat="48.25616" lon="-3.46997">
        <ele>121.2</ele>
        <time>2022-06-12T13:14:55Z</time>
      </trkpt>
      <trkpt lat="48.25616" lon="-3.46997">
        <ele>121.2</ele>
        <time>2022-06-12T13:14:56Z</time>
      </trkpt>
      <trkpt lat="48.25616" lon="-3.46997">
        <ele>121.2</ele>
        <time>2022-06-12T13:14:57Z</time>
      </trkpt>
      <trkpt lat="48.25616" lon="-3.46996">
        <ele>121.2</ele>
        <time>2022-06-12T13:14:58Z</time>
      </trkpt>
      <trkpt lat="48.25616" lon="-3.46996">
        <ele>121.2</ele>
        <time>2022-06-12T13:14:59Z</time>
      </trkpt>
      <trkpt lat="48.25616" lon="-3.46996">
        <ele>121.2</ele>
        <time>2022-06-12T13:15:00Z</time>
      </trkpt>
      <trkpt lat="48.25616" lon="-3.46996">
        <ele>121.2</ele>
        <time>2022-06-12T13:15:01Z</time>
      </trkpt>
      <trkpt lat="48.25616" lon="-3.46996">
        <ele>121.2</ele>
        <time>2022-06-12T13:15:02Z</time>
      </trkpt>
      <trkpt lat="48.25618" lon="-3.46998">
        <ele>121.2</ele>
        <time>2022-06-12T13:15:03Z</time>
      </trkpt>
      <trkpt lat="48.25618" lon="-3.46998">
        <ele>121.2</ele>
        <time>2022-06-12T13:15:04Z</time>
      </trkpt>
      <trkpt lat="48.25618" lon="-3.46999">
        <ele>121.2</ele>
        <time>2022-06-12T13:15:05Z</time>
      </trkpt>
      <trkpt lat="48.25619" lon="-3.46999">
        <ele>121.2</ele>
        <time>2022-06-12T13:15:06Z</time>
      </trkpt>
      <trkpt lat="48.25619" lon="-3.46999">
        <ele>121.2</ele>
        <time>2022-06-12T13:15:07Z</time>
      </trkpt>
      <trkpt lat="48.25618" lon="-3.46999">
        <ele>121.2</ele>
        <time>2022-06-12T13:15:08Z</time>
      </trkpt>
      <trkpt lat="48.25617" lon="-3.47">
        <ele>121.2</ele>
        <time>2022-06-12T13:15:09Z</time>
      </trkpt>
      <trkpt lat="48.25617" lon="-3.47">
        <ele>121.2</ele>
        <time>2022-06-12T13:15:10Z</time>
      </trkpt>
      <trkpt lat="48.25617" lon="-3.47001">
        <ele>121.2</ele>
        <time>2022-06-12T13:15:11Z</time>
      </trkpt>
      <trkpt lat="48.25616" lon="-3.47002">
        <ele>121.2</ele>
        <time>2022-06-12T13:15:12Z</time>
      </trkpt>
      <trkpt lat="48.25616" lon="-3.47001">
        <ele>121.2</ele>
        <time>2022-06-12T13:15:13Z</time>
      </trkpt>
      <trkpt lat="48.25615" lon="-3.47001">
        <ele>121.2</ele>
        <time>2022-06-12T13:15:14Z</time>
      </trkpt>
      <trkpt lat="48.25615" lon="-3.47001">
        <ele>121.2</ele>
        <time>2022-06-12T13:15:15Z</time>
      </trkpt>
      <trkpt lat="48.25615" lon="-3.47">
        <ele>121.2</ele>
        <time>2022-06-12T13:15:16Z</time>
      </trkpt>
      <trkpt lat="48.25614" lon="-3.46999">
        <ele>121.2</ele>
        <time>2022-06-12T13:15:17Z</time>
      </trkpt>
      <trkpt lat="48.25614" lon="-3.46997">
        <ele>121.2</ele>
        <time>2022-06-12T13:15:18Z</time>
      </trkpt>
      <trkpt lat="48.25613" lon="-3.46995">
        <ele>121.2</ele>
        <time>2022-06-12T13:15:19Z</time>
      </trkpt>
      <trkpt lat="48.25612" lon="-3.46991">
        <ele>121.2</ele>
        <time>2022-06-12T13:15:21Z</time>
      </trkpt>
      <trkpt lat="48.25612" lon="-3.46989">
        <ele>121.2</ele>
        <time>2022-06-12T13:15:22Z</time>
      </trkpt>
      <trkpt lat="48.25611" lon="-3.46985">
        <ele>121.2</ele>
        <time>2022-06-12T13:15:24Z</time>
      </trkpt>
      <trkpt lat="48.25611" lon="-3.46982">
        <ele>121.2</ele>
        <time>2022-06-12T13:15:25Z</time>
      </trkpt>
      <trkpt lat="48.2561" lon="-3.4698">
        <ele>121.2</ele>
        <time>2022-06-12T13:15:26Z</time>
      </trkpt>
      <trkpt lat="48.2561" lon="-3.46975">
        <ele>121.2</ele>
        <time>2022-06-12T13:15:27Z</time>
      </trkpt>
      <trkpt lat="48.2561" lon="-3.46973">
        <ele>121.2</ele>
        <time>2022-06-12T13:15:28Z</time>
      </trkpt>
      <trkpt lat="48.2561" lon="-3.46969">
        <ele>121.2</ele>
        <time>2022-06-12T13:15:30Z</time>
      </trkpt>
      <trkpt lat="48.2561" lon="-3.46968">
        <ele>121.1</ele>
        <time>2022-06-12T13:15:31Z</time>
      </trkpt>
      <trkpt lat="48.25609" lon="-3.46964">
        <ele>121.1</ele>
        <time>2022-06-12T13:15:32Z</time>
      </trkpt>
      <trkpt lat="48.25608" lon="-3.46962">
        <ele>121.1</ele>
        <time>2022-06-12T13:15:33Z</time>
      </trkpt>
      <trkpt lat="48.25608" lon="-3.4696">
        <ele>121.1</ele>
        <time>2022-06-12T13:15:34Z</time>
      </trkpt>
      <trkpt lat="48.25608" lon="-3.46958">
        <ele>121.1</ele>
        <time>2022-06-12T13:15:35Z</time>
      </trkpt>
      <trkpt lat="48.25608" lon="-3.46955">
        <ele>121.1</ele>
        <time>2022-06-12T13:15:37Z</time>
      </trkpt>
      <trkpt lat="48.25608" lon="-3.46953">
        <ele>121.1</ele>
        <time>2022-06-12T13:15:38Z</time>
      </trkpt>
      <trkpt lat="48.25607" lon="-3.4695">
        <ele>121.1</ele>
        <time>2022-06-12T13:15:39Z</time>
      </trkpt>
      <trkpt lat="48.25607" lon="-3.46948">
        <ele>121.2</ele>
        <time>2022-06-12T13:15:40Z</time>
      </trkpt>
      <trkpt lat="48.25607" lon="-3.46946">
        <ele>121.2</ele>
        <time>2022-06-12T13:15:41Z</time>
      </trkpt>
      <trkpt lat="48.25606" lon="-3.46945">
        <ele>121.2</ele>
        <time>2022-06-12T13:15:42Z</time>
      </trkpt>
      <trkpt lat="48.25606" lon="-3.46943">
        <ele>121.2</ele>
        <time>2022-06-12T13:15:43Z</time>
      </trkpt>
      <trkpt lat="48.25606" lon="-3.46943">
        <ele>121.2</ele>
        <time>2022-06-12T13:15:44Z</time>
      </trkpt>
      <trkpt lat="48.25606" lon="-3.46942">
        <ele>121.2</ele>
        <time>2022-06-12T13:15:45Z</time>
      </trkpt>
      <trkpt lat="48.25606" lon="-3.46942">
        <ele>121.2</ele>
        <time>2022-06-12T13:15:46Z</time>
      </trkpt>
      <trkpt lat="48.25607" lon="-3.46941">
        <ele>121.2</ele>
        <time>2022-06-12T13:15:47Z</time>
      </trkpt>
      <trkpt lat="48.25608" lon="-3.46941">
        <ele>121.2</ele>
        <time>2022-06-12T13:15:48Z</time>
      </trkpt>
      <trkpt lat="48.25608" lon="-3.46941">
        <ele>121.2</ele>
        <time>2022-06-12T13:15:49Z</time>
      </trkpt>
      <trkpt lat="48.25608" lon="-3.46941">
        <ele>121.2</ele>
        <time>2022-06-12T13:15:50Z</time>
      </trkpt>
      <trkpt lat="48.25608" lon="-3.46941">
        <ele>121.2</ele>
        <time>2022-06-12T13:15:51Z</time>
      </trkpt>
      <trkpt lat="48.25609" lon="-3.46941">
        <ele>121.2</ele>
        <time>2022-06-12T13:15:52Z</time>
      </trkpt>
      <trkpt lat="48.25609" lon="-3.46941">
        <ele>121.2</ele>
        <time>2022-06-12T13:15:53Z</time>
      </trkpt>
      <trkpt lat="48.25609" lon="-3.46941">
        <ele>121.2</ele>
        <time>2022-06-12T13:15:54Z</time>
      </trkpt>
      <trkpt lat="48.25609" lon="-3.46942">
        <ele>121.2</ele>
        <time>2022-06-12T13:15:55Z</time>
      </trkpt>
      <trkpt lat="48.25609" lon="-3.46942">
        <ele>121.2</ele>
        <time>2022-06-12T13:15:56Z</time>
      </trkpt>
      <trkpt lat="48.25609" lon="-3.46942">
        <ele>121.2</ele>
        <time>2022-06-12T13:15:57Z</time>
      </trkpt>
      <trkpt lat="48.25609" lon="-3.46942">
        <ele>121.2</ele>
        <time>2022-06-12T13:15:58Z</time>
      </trkpt>
      <trkpt lat="48.25609" lon="-3.46942">
        <ele>121.2</ele>
        <time>2022-06-12T13:15:59Z</time>
      </trkpt>
      <trkpt lat="48.25609" lon="-3.46942">
        <ele>121.2</ele>
        <time>2022-06-12T13:16:00Z</time>
      </trkpt>
      <trkpt lat="48.25609" lon="-3.46942">
        <ele>121.2</ele>
        <time>2022-06-12T13:16:01Z</time>
      </trkpt>
      <trkpt lat="48.25609" lon="-3.46942">
        <ele>121.2</ele>
        <time>2022-06-12T13:16:02Z</time>
      </trkpt>
      <trkpt lat="48.25609" lon="-3.46942">
        <ele>121.2</ele>
        <time>2022-06-12T13:16:03Z</time>
      </trkpt>
      <trkpt lat="48.25609" lon="-3.46942">
        <ele>121.2</ele>
        <time>2022-06-12T13:16:04Z</time>
      </trkpt>
      <trkpt lat="48.25609" lon="-3.46942">
        <ele>121.2</ele>
        <time>2022-06-12T13:16:05Z</time>
      </trkpt>
      <trkpt lat="48.25609" lon="-3.46942">
        <ele>121.2</ele>
        <time>2022-06-12T13:16:06Z</time>
      </trkpt>
      <trkpt lat="48.25609" lon="-3.46942">
        <ele>121.2</ele>
        <time>2022-06-12T13:16:07Z</time>
      </trkpt>
      <trkpt lat="48.25609" lon="-3.46942">
        <ele>121.2</ele>
        <time>2022-06-12T13:16:08Z</time>
      </trkpt>
      <trkpt lat="48.25609" lon="-3.46942">
        <ele>121.2</ele>
        <time>2022-06-12T13:16:09Z</time>
      </trkpt>
      <trkpt lat="48.25609" lon="-3.46942">
        <ele>121.2</ele>
        <time>2022-06-12T13:16:10Z</time>
      </trkpt>
      <trkpt lat="48.25609" lon="-3.46942">
        <ele>121.2</ele>
        <time>2022-06-12T13:16:11Z</time>
      </trkpt>
      <trkpt lat="48.25609" lon="-3.46942">
        <ele>121.2</ele>
        <time>2022-06-12T13:16:12Z</time>
      </trkpt>
      <trkpt lat="48.25609" lon="-3.46942">
        <ele>121.2</ele>
        <time>2022-06-12T13:16:13Z</time>
      </trkpt>
      <trkpt lat="48.25609" lon="-3.46942">
        <ele>121.2</ele>
        <time>2022-06-12T13:16:14Z</time>
      </trkpt>
      <trkpt lat="48.25609" lon="-3.46942">
        <ele>121.2</ele>
        <time>2022-06-12T13:16:15Z</time>
      </trkpt>
      <trkpt lat="48.25609" lon="-3.46942">
        <ele>121.2</ele>
        <time>2022-06-12T13:16:16Z</time>
      </trkpt>
      <trkpt lat="48.25609" lon="-3.46942">
        <ele>121.2</ele>
        <time>2022-06-12T13:16:17Z</time>
      </trkpt>
      <trkpt lat="48.25609" lon="-3.46942">
        <ele>121.2</ele>
        <time>2022-06-12T13:16:18Z</time>
      </trkpt>
      <trkpt lat="48.25609" lon="-3.46942">
        <ele>121.2</ele>
        <time>2022-06-12T13:16:19Z</time>
      </trkpt>
      <trkpt lat="48.25609" lon="-3.46942">
        <ele>121.2</ele>
        <time>2022-06-12T13:16:20Z</time>
      </trkpt>
      <trkpt lat="48.25609" lon="-3.46942">
        <ele>121.2</ele>
        <time>2022-06-12T13:16:21Z</time>
      </trkpt>
      <trkpt lat="48.25609" lon="-3.46942">
        <ele>121.2</ele>
        <time>2022-06-12T13:16:22Z</time>
      </trkpt>
      <trkpt lat="48.25609" lon="-3.46942">
        <ele>121.2</ele>
        <time>2022-06-12T13:16:23Z</time>
      </trkpt>
      <trkpt lat="48.25609" lon="-3.46942">
        <ele>121.2</ele>
        <time>2022-06-12T13:16:24Z</time>
      </trkpt>
      <trkpt lat="48.25609" lon="-3.46942">
        <ele>121.2</ele>
        <time>2022-06-12T13:16:25Z</time>
      </trkpt>
      <trkpt lat="48.25609" lon="-3.46942">
        <ele>121.2</ele>
        <time>2022-06-12T13:16:26Z</time>
      </trkpt>
      <trkpt lat="48.25609" lon="-3.46942">
        <ele>121.2</ele>
        <time>2022-06-12T13:16:27Z</time>
      </trkpt>
      <trkpt lat="48.25609" lon="-3.46942">
        <ele>121.2</ele>
        <time>2022-06-12T13:16:28Z</time>
      </trkpt>
      <trkpt lat="48.25609" lon="-3.46942">
        <ele>121.2</ele>
        <time>2022-06-12T13:16:29Z</time>
      </trkpt>
      <trkpt lat="48.25609" lon="-3.46942">
        <ele>121.2</ele>
        <time>2022-06-12T13:16:30Z</time>
      </trkpt>
      <trkpt lat="48.25609" lon="-3.46942">
        <ele>121.2</ele>
        <time>2022-06-12T13:16:31Z</time>
      </trkpt>
      <trkpt lat="48.25609" lon="-3.46942">
        <ele>121.2</ele>
        <time>2022-06-12T13:16:32Z</time>
      </trkpt>
      <trkpt lat="48.25609" lon="-3.46942">
        <ele>121.2</ele>
        <time>2022-06-12T13:16:33Z</time>
      </trkpt>
      <trkpt lat="48.25609" lon="-3.46942">
        <ele>121.2</ele>
        <time>2022-06-12T13:16:34Z</time>
      </trkpt>
      <trkpt lat="48.25609" lon="-3.46942">
        <ele>121.2</ele>
        <time>2022-06-12T13:16:35Z</time>
      </trkpt>
      <trkpt lat="48.25609" lon="-3.46942">
        <ele>121.2</ele>
        <time>2022-06-12T13:16:36Z</time>
      </trkpt>
      <trkpt lat="48.25609" lon="-3.46942">
        <ele>121.2</ele>
        <time>2022-06-12T13:16:37Z</time>
      </trkpt>
      <trkpt lat="48.25609" lon="-3.46942">
        <ele>121.2</ele>
        <time>2022-06-12T13:16:38Z</time>
      </trkpt>
      <trkpt lat="48.25609" lon="-3.46942">
        <ele>121.2</ele>
        <time>2022-06-12T13:16:39Z</time>
      </trkpt>
      <trkpt lat="48.25609" lon="-3.46942">
        <ele>121.2</ele>
        <time>2022-06-12T13:16:40Z</time>
      </trkpt>
      <trkpt lat="48.25609" lon="-3.46942">
        <ele>121.2</ele>
        <time>2022-06-12T13:16:41Z</time>
      </trkpt>
      <trkpt lat="48.25609" lon="-3.46942">
        <ele>121.2</ele>
        <time>2022-06-12T13:16:42Z</time>
      </trkpt>
      <trkpt lat="48.25609" lon="-3.46942">
        <ele>121.2</ele>
        <time>2022-06-12T13:16:43Z</time>
      </trkpt>
      <trkpt lat="48.25609" lon="-3.46942">
        <ele>121.2</ele>
        <time>2022-06-12T13:16:44Z</time>
      </trkpt>
      <trkpt lat="48.25609" lon="-3.46942">
        <ele>121.2</ele>
        <time>2022-06-12T13:16:45Z</time>
      </trkpt>
      <trkpt lat="48.25609" lon="-3.46942">
        <ele>121.2</ele>
        <time>2022-06-12T13:16:46Z</time>
      </trkpt>
      <trkpt lat="48.25609" lon="-3.46942">
        <ele>121.2</ele>
        <time>2022-06-12T13:16:47Z</time>
      </trkpt>
      <trkpt lat="48.25609" lon="-3.46942">
        <ele>121.2</ele>
        <time>2022-06-12T13:16:48Z</time>
      </trkpt>
      <trkpt lat="48.25609" lon="-3.46942">
        <ele>121.2</ele>
        <time>2022-06-12T13:16:49Z</time>
      </trkpt>
      <trkpt lat="48.25609" lon="-3.46942">
        <ele>121.2</ele>
        <time>2022-06-12T13:16:50Z</time>
      </trkpt>
      <trkpt lat="48.25609" lon="-3.46942">
        <ele>121.2</ele>
        <time>2022-06-12T13:16:51Z</time>
      </trkpt>
      <trkpt lat="48.25609" lon="-3.46942">
        <ele>121.2</ele>
        <time>2022-06-12T13:16:52Z</time>
      </trkpt>
      <trkpt lat="48.25609" lon="-3.46942">
        <ele>121.2</ele>
        <time>2022-06-12T13:16:53Z</time>
      </trkpt>
      <trkpt lat="48.25609" lon="-3.46942">
        <ele>121.2</ele>
        <time>2022-06-12T13:16:54Z</time>
      </trkpt>
      <trkpt lat="48.25609" lon="-3.46942">
        <ele>121.2</ele>
        <time>2022-06-12T13:16:55Z</time>
      </trkpt>
      <trkpt lat="48.25609" lon="-3.46942">
        <ele>121.2</ele>
        <time>2022-06-12T13:16:56Z</time>
      </trkpt>
      <trkpt lat="48.25609" lon="-3.46942">
        <ele>121.2</ele>
        <time>2022-06-12T13:16:57Z</time>
      </trkpt>
      <trkpt lat="48.25609" lon="-3.46942">
        <ele>121.2</ele>
        <time>2022-06-12T13:16:58Z</time>
      </trkpt>
      <trkpt lat="48.25609" lon="-3.46942">
        <ele>121.2</ele>
        <time>2022-06-12T13:16:59Z</time>
      </trkpt>
      <trkpt lat="48.25609" lon="-3.46942">
        <ele>121.2</ele>
        <time>2022-06-12T13:17:00Z</time>
      </trkpt>
      <trkpt lat="48.25609" lon="-3.46942">
        <ele>121.2</ele>
        <time>2022-06-12T13:17:01Z</time>
      </trkpt>
      <trkpt lat="48.25609" lon="-3.46942">
        <ele>121.2</ele>
        <time>2022-06-12T13:17:02Z</time>
      </trkpt>
      <trkpt lat="48.25609" lon="-3.46942">
        <ele>121.2</ele>
        <time>2022-06-12T13:17:03Z</time>
      </trkpt>
      <trkpt lat="48.25609" lon="-3.46942">
        <ele>121.2</ele>
        <time>2022-06-12T13:17:04Z</time>
      </trkpt>
      <trkpt lat="48.25609" lon="-3.46942">
        <ele>121.2</ele>
        <time>2022-06-12T13:17:05Z</time>
      </trkpt>
      <trkpt lat="48.25609" lon="-3.46942">
        <ele>121.2</ele>
        <time>2022-06-12T13:17:06Z</time>
      </trkpt>
      <trkpt lat="48.25609" lon="-3.46942">
        <ele>121.2</ele>
        <time>2022-06-12T13:17:07Z</time>
      </trkpt>
      <trkpt lat="48.25609" lon="-3.46942">
        <ele>121.2</ele>
        <time>2022-06-12T13:17:08Z</time>
      </trkpt>
      <trkpt lat="48.2561" lon="-3.46943">
        <ele>121.2</ele>
        <time>2022-06-12T13:17:09Z</time>
      </trkpt>
      <trkpt lat="48.2561" lon="-3.46943">
        <ele>121.2</ele>
        <time>2022-06-12T13:17:10Z</time>
      </trkpt>
      <trkpt lat="48.2561" lon="-3.46943">
        <ele>121.2</ele>
        <time>2022-06-12T13:17:11Z</time>
      </trkpt>
      <trkpt lat="48.2561" lon="-3.46943">
        <ele>121.2</ele>
        <time>2022-06-12T13:17:12Z</time>
      </trkpt>
      <trkpt lat="48.2561" lon="-3.46943">
        <ele>121.2</ele>
        <time>2022-06-12T13:17:13Z</time>
      </trkpt>
      <trkpt lat="48.2561" lon="-3.46943">
        <ele>121.2</ele>
        <time>2022-06-12T13:17:14Z</time>
      </trkpt>
      <trkpt lat="48.25611" lon="-3.46943">
        <ele>121.2</ele>
        <time>2022-06-12T13:17:15Z</time>
      </trkpt>
      <trkpt lat="48.25611" lon="-3.46942">
        <ele>121.2</ele>
        <time>2022-06-12T13:17:16Z</time>
      </trkpt>
      <trkpt lat="48.25611" lon="-3.46942">
        <ele>121.2</ele>
        <time>2022-06-12T13:17:17Z</time>
      </trkpt>
      <trkpt lat="48.2561" lon="-3.46942">
        <ele>121.2</ele>
        <time>2022-06-12T13:17:18Z</time>
      </trkpt>
      <trkpt lat="48.2561" lon="-3.46942">
        <ele>121.2</ele>
        <time>2022-06-12T13:17:19Z</time>
      </trkpt>
      <trkpt lat="48.2561" lon="-3.46942">
        <ele>121.2</ele>
        <time>2022-06-12T13:17:20Z</time>
      </trkpt>
      <trkpt lat="48.2561" lon="-3.46942">
        <ele>121.2</ele>
        <time>2022-06-12T13:17:21Z</time>
      </trkpt>
      <trkpt lat="48.2561" lon="-3.46942">
        <ele>121.2</ele>
        <time>2022-06-12T13:17:22Z</time>
      </trkpt>
      <trkpt lat="48.2561" lon="-3.46941">
        <ele>121.2</ele>
        <time>2022-06-12T13:17:23Z</time>
      </trkpt>
      <trkpt lat="48.2561" lon="-3.46941">
        <ele>121.2</ele>
        <time>2022-06-12T13:17:24Z</time>
      </trkpt>
      <trkpt lat="48.2561" lon="-3.46941">
        <ele>121.2</ele>
        <time>2022-06-12T13:17:25Z</time>
      </trkpt>
      <trkpt lat="48.2561" lon="-3.46941">
        <ele>121.2</ele>
        <time>2022-06-12T13:17:26Z</time>
      </trkpt>
      <trkpt lat="48.2561" lon="-3.46941">
        <ele>121.2</ele>
        <time>2022-06-12T13:17:27Z</time>
      </trkpt>
      <trkpt lat="48.2561" lon="-3.46941">
        <ele>121.2</ele>
        <time>2022-06-12T13:17:28Z</time>
      </trkpt>
      <trkpt lat="48.2561" lon="-3.46941">
        <ele>121.2</ele>
        <time>2022-06-12T13:17:29Z</time>
      </trkpt>
      <trkpt lat="48.25609" lon="-3.4694">
        <ele>121.2</ele>
        <time>2022-06-12T13:17:30Z</time>
      </trkpt>
      <trkpt lat="48.25609" lon="-3.4694">
        <ele>121.2</ele>
        <time>2022-06-12T13:17:31Z</time>
      </trkpt>
      <trkpt lat="48.25609" lon="-3.4694">
        <ele>121.2</ele>
        <time>2022-06-12T13:17:32Z</time>
      </trkpt>
      <trkpt lat="48.25609" lon="-3.4694">
        <ele>121.2</ele>
        <time>2022-06-12T13:17:33Z</time>
      </trkpt>
      <trkpt lat="48.25609" lon="-3.4694">
        <ele>121.2</ele>
        <time>2022-06-12T13:17:34Z</time>
      </trkpt>
      <trkpt lat="48.25609" lon="-3.4694">
        <ele>121.2</ele>
        <time>2022-06-12T13:17:35Z</time>
      </trkpt>
      <trkpt lat="48.25609" lon="-3.4694">
        <ele>121.2</ele>
        <time>2022-06-12T13:17:36Z</time>
      </trkpt>
      <trkpt lat="48.25609" lon="-3.46939">
        <ele>121.2</ele>
        <time>2022-06-12T13:17:37Z</time>
      </trkpt>
      <trkpt lat="48.25609" lon="-3.46939">
        <ele>121.2</ele>
        <time>2022-06-12T13:17:38Z</time>
      </trkpt>
      <trkpt lat="48.25609" lon="-3.46939">
        <ele>121.2</ele>
        <time>2022-06-12T13:17:39Z</time>
      </trkpt>
      <trkpt lat="48.25609" lon="-3.46939">
        <ele>121.2</ele>
        <time>2022-06-12T13:17:40Z</time>
      </trkpt>
      <trkpt lat="48.25609" lon="-3.46939">
        <ele>121.2</ele>
        <time>2022-06-12T13:17:41Z</time>
      </trkpt>
      <trkpt lat="48.25608" lon="-3.46939">
        <ele>121.2</ele>
        <time>2022-06-12T13:17:42Z</time>
      </trkpt>
      <trkpt lat="48.25608" lon="-3.46939">
        <ele>121.2</ele>
        <time>2022-06-12T13:17:43Z</time>
      </trkpt>
      <trkpt lat="48.25608" lon="-3.46938">
        <ele>121.2</ele>
        <time>2022-06-12T13:17:44Z</time>
      </trkpt>
      <trkpt lat="48.25608" lon="-3.46938">
        <ele>121.2</ele>
        <time>2022-06-12T13:17:45Z</time>
      </trkpt>
      <trkpt lat="48.25608" lon="-3.46938">
        <ele>121.2</ele>
        <time>2022-06-12T13:17:46Z</time>
      </trkpt>
      <trkpt lat="48.25608" lon="-3.46938">
        <ele>121.2</ele>
        <time>2022-06-12T13:17:47Z</time>
      </trkpt>
      <trkpt lat="48.25608" lon="-3.46938">
        <ele>121.3</ele>
        <time>2022-06-12T13:17:49Z</time>
      </trkpt>
      <trkpt lat="48.25608" lon="-3.46938">
        <ele>121.3</ele>
        <time>2022-06-12T13:17:50Z</time>
      </trkpt>
      <trkpt lat="48.25608" lon="-3.46938">
        <ele>121.3</ele>
        <time>2022-06-12T13:17:51Z</time>
      </trkpt>
      <trkpt lat="48.25608" lon="-3.46937">
        <ele>121.3</ele>
        <time>2022-06-12T13:17:52Z</time>
      </trkpt>
      <trkpt lat="48.25608" lon="-3.46937">
        <ele>121.3</ele>
        <time>2022-06-12T13:17:53Z</time>
      </trkpt>
      <trkpt lat="48.25607" lon="-3.46933">
        <ele>121.3</ele>
        <time>2022-06-12T13:17:54Z</time>
      </trkpt>
      <trkpt lat="48.25606" lon="-3.46931">
        <ele>121.3</ele>
        <time>2022-06-12T13:17:56Z</time>
      </trkpt>
      <trkpt lat="48.25606" lon="-3.46928">
        <ele>121.3</ele>
        <time>2022-06-12T13:17:57Z</time>
      </trkpt>
      <trkpt lat="48.25605" lon="-3.46926">
        <ele>121.3</ele>
        <time>2022-06-12T13:17:58Z</time>
      </trkpt>
      <trkpt lat="48.25605" lon="-3.46924">
        <ele>121.3</ele>
        <time>2022-06-12T13:18:00Z</time>
      </trkpt>
      <trkpt lat="48.25604" lon="-3.46921">
        <ele>121.3</ele>
        <time>2022-06-12T13:18:01Z</time>
      </trkpt>
      <trkpt lat="48.25603" lon="-3.46918">
        <ele>121.3</ele>
        <time>2022-06-12T13:18:02Z</time>
      </trkpt>
      <trkpt lat="48.25603" lon="-3.46916">
        <ele>121.3</ele>
        <time>2022-06-12T13:18:03Z</time>
      </trkpt>
      <trkpt lat="48.25603" lon="-3.46915">
        <ele>121.3</ele>
        <time>2022-06-12T13:18:04Z</time>
      </trkpt>
      <trkpt lat="48.25602" lon="-3.46913">
        <ele>121.3</ele>
        <time>2022-06-12T13:18:05Z</time>
      </trkpt>
      <trkpt lat="48.25602" lon="-3.46911">
        <ele>121.3</ele>
        <time>2022-06-12T13:18:06Z</time>
      </trkpt>
      <trkpt lat="48.25602" lon="-3.46909">
        <ele>121.3</ele>
        <time>2022-06-12T13:18:07Z</time>
      </trkpt>
      <trkpt lat="48.25602" lon="-3.46905">
        <ele>121.4</ele>
        <time>2022-06-12T13:18:09Z</time>
      </trkpt>
      <trkpt lat="48.25602" lon="-3.46904">
        <ele>121.4</ele>
        <time>2022-06-12T13:18:10Z</time>
      </trkpt>
      <trkpt lat="48.25601" lon="-3.46902">
        <ele>121.4</ele>
        <time>2022-06-12T13:18:11Z</time>
      </trkpt>
      <trkpt lat="48.25601" lon="-3.469">
        <ele>121.4</ele>
        <time>2022-06-12T13:18:12Z</time>
      </trkpt>
      <trkpt lat="48.256" lon="-3.46895">
        <ele>121.4</ele>
        <time>2022-06-12T13:18:14Z</time>
      </trkpt>
      <trkpt lat="48.256" lon="-3.46893">
        <ele>121.4</ele>
        <time>2022-06-12T13:18:15Z</time>
      </trkpt>
      <trkpt lat="48.256" lon="-3.46892">
        <ele>121.4</ele>
        <time>2022-06-12T13:18:16Z</time>
      </trkpt>
      <trkpt lat="48.256" lon="-3.46891">
        <ele>121.4</ele>
        <time>2022-06-12T13:18:17Z</time>
      </trkpt>
      <trkpt lat="48.25599" lon="-3.46887">
        <ele>121.4</ele>
        <time>2022-06-12T13:18:18Z</time>
      </trkpt>
      <trkpt lat="48.25599" lon="-3.46886">
        <ele>121.4</ele>
        <time>2022-06-12T13:18:19Z</time>
      </trkpt>
      <trkpt lat="48.25598" lon="-3.46884">
        <ele>121.4</ele>
        <time>2022-06-12T13:18:20Z</time>
      </trkpt>
      <trkpt lat="48.25598" lon="-3.46882">
        <ele>121.4</ele>
        <time>2022-06-12T13:18:21Z</time>
      </trkpt>
      <trkpt lat="48.25597" lon="-3.46878">
        <ele>121.4</ele>
        <time>2022-06-12T13:18:23Z</time>
      </trkpt>
      <trkpt lat="48.25596" lon="-3.46876">
        <ele>121.4</ele>
        <time>2022-06-12T13:18:24Z</time>
      </trkpt>
      <trkpt lat="48.25595" lon="-3.46873">
        <ele>121.4</ele>
        <time>2022-06-12T13:18:25Z</time>
      </trkpt>
      <trkpt lat="48.25595" lon="-3.46872">
        <ele>121.4</ele>
        <time>2022-06-12T13:18:26Z</time>
      </trkpt>
      <trkpt lat="48.25595" lon="-3.4687">
        <ele>121.4</ele>
        <time>2022-06-12T13:18:27Z</time>
      </trkpt>
      <trkpt lat="48.25593" lon="-3.46866">
        <ele>121.4</ele>
        <time>2022-06-12T13:18:28Z</time>
      </trkpt>
      <trkpt lat="48.25593" lon="-3.46863">
        <ele>121.4</ele>
        <time>2022-06-12T13:18:29Z</time>
      </trkpt>
      <trkpt lat="48.25592" lon="-3.46862">
        <ele>121.4</ele>
        <time>2022-06-12T13:18:31Z</time>
      </trkpt>
      <trkpt lat="48.25591" lon="-3.4686">
        <ele>121.4</ele>
        <time>2022-06-12T13:18:32Z</time>
      </trkpt>
      <trkpt lat="48.2559" lon="-3.46857">
        <ele>121.4</ele>
        <time>2022-06-12T13:18:33Z</time>
      </trkpt>
      <trkpt lat="48.25589" lon="-3.46855">
        <ele>121.4</ele>
        <time>2022-06-12T13:18:34Z</time>
      </trkpt>
      <trkpt lat="48.25588" lon="-3.46853">
        <ele>121.4</ele>
        <time>2022-06-12T13:18:36Z</time>
      </trkpt>
      <trkpt lat="48.25588" lon="-3.46851">
        <ele>121.4</ele>
        <time>2022-06-12T13:18:37Z</time>
      </trkpt>
      <trkpt lat="48.25587" lon="-3.46849">
        <ele>121.4</ele>
        <time>2022-06-12T13:18:38Z</time>
      </trkpt>
      <trkpt lat="48.25585" lon="-3.46847">
        <ele>121.4</ele>
        <time>2022-06-12T13:18:39Z</time>
      </trkpt>
      <trkpt lat="48.25585" lon="-3.46848">
        <ele>121.4</ele>
        <time>2022-06-12T13:18:40Z</time>
      </trkpt>
      <trkpt lat="48.25584" lon="-3.4685">
        <ele>121.4</ele>
        <time>2022-06-12T13:18:41Z</time>
      </trkpt>
      <trkpt lat="48.25584" lon="-3.46851">
        <ele>121.5</ele>
        <time>2022-06-12T13:18:42Z</time>
      </trkpt>
      <trkpt lat="48.25584" lon="-3.46854">
        <ele>121.5</ele>
        <time>2022-06-12T13:18:43Z</time>
      </trkpt>
      <trkpt lat="48.25584" lon="-3.46856">
        <ele>121.5</ele>
        <time>2022-06-12T13:18:44Z</time>
      </trkpt>
      <trkpt lat="48.25583" lon="-3.46857">
        <ele>121.5</ele>
        <time>2022-06-12T13:18:45Z</time>
      </trkpt>
      <trkpt lat="48.25583" lon="-3.46859">
        <ele>121.5</ele>
        <time>2022-06-12T13:18:46Z</time>
      </trkpt>
      <trkpt lat="48.25582" lon="-3.4686">
        <ele>121.5</ele>
        <time>2022-06-12T13:18:47Z</time>
      </trkpt>
      <trkpt lat="48.25581" lon="-3.46861">
        <ele>121.5</ele>
        <time>2022-06-12T13:18:48Z</time>
      </trkpt>
      <trkpt lat="48.25581" lon="-3.46861">
        <ele>121.5</ele>
        <time>2022-06-12T13:18:49Z</time>
      </trkpt>
      <trkpt lat="48.25581" lon="-3.46862">
        <ele>121.5</ele>
        <time>2022-06-12T13:18:51Z</time>
      </trkpt>
      <trkpt lat="48.25581" lon="-3.46863">
        <ele>121.5</ele>
        <time>2022-06-12T13:18:52Z</time>
      </trkpt>
      <trkpt lat="48.25582" lon="-3.46863">
        <ele>121.5</ele>
        <time>2022-06-12T13:18:53Z</time>
      </trkpt>
      <trkpt lat="48.25582" lon="-3.46864">
        <ele>121.5</ele>
        <time>2022-06-12T13:18:54Z</time>
      </trkpt>
      <trkpt lat="48.25582" lon="-3.46865">
        <ele>121.5</ele>
        <time>2022-06-12T13:18:55Z</time>
      </trkpt>
      <trkpt lat="48.25582" lon="-3.46865">
        <ele>121.5</ele>
        <time>2022-06-12T13:18:56Z</time>
      </trkpt>
      <trkpt lat="48.25582" lon="-3.46865">
        <ele>121.5</ele>
        <time>2022-06-12T13:18:57Z</time>
      </trkpt>
      <trkpt lat="48.25582" lon="-3.46865">
        <ele>121.5</ele>
        <time>2022-06-12T13:18:58Z</time>
      </trkpt>
      <trkpt lat="48.25582" lon="-3.46865">
        <ele>121.5</ele>
        <time>2022-06-12T13:18:59Z</time>
      </trkpt>
      <trkpt lat="48.25582" lon="-3.46865">
        <ele>121.5</ele>
        <time>2022-06-12T13:19:00Z</time>
      </trkpt>
      <trkpt lat="48.25582" lon="-3.46865">
        <ele>121.5</ele>
        <time>2022-06-12T13:19:01Z</time>
      </trkpt>
      <trkpt lat="48.25582" lon="-3.46865">
        <ele>121.5</ele>
        <time>2022-06-12T13:19:02Z</time>
      </trkpt>
      <trkpt lat="48.25582" lon="-3.46865">
        <ele>121.5</ele>
        <time>2022-06-12T13:19:03Z</time>
      </trkpt>
      <trkpt lat="48.25582" lon="-3.46865">
        <ele>121.5</ele>
        <time>2022-06-12T13:19:04Z</time>
      </trkpt>
      <trkpt lat="48.25582" lon="-3.46865">
        <ele>121.5</ele>
        <time>2022-06-12T13:19:05Z</time>
      </trkpt>
      <trkpt lat="48.25582" lon="-3.46865">
        <ele>121.5</ele>
        <time>2022-06-12T13:19:06Z</time>
      </trkpt>
      <trkpt lat="48.25582" lon="-3.46865">
        <ele>121.5</ele>
        <time>2022-06-12T13:19:07Z</time>
      </trkpt>
      <trkpt lat="48.25582" lon="-3.46865">
        <ele>121.5</ele>
        <time>2022-06-12T13:19:08Z</time>
      </trkpt>
      <trkpt lat="48.25582" lon="-3.46865">
        <ele>121.5</ele>
        <time>2022-06-12T13:19:09Z</time>
      </trkpt>
      <trkpt lat="48.25582" lon="-3.46865">
        <ele>121.5</ele>
        <time>2022-06-12T13:19:10Z</time>
      </trkpt>
      <trkpt lat="48.25582" lon="-3.46865">
        <ele>121.5</ele>
        <time>2022-06-12T13:19:11Z</time>
      </trkpt>
      <trkpt lat="48.25582" lon="-3.46865">
        <ele>121.5</ele>
        <time>2022-06-12T13:19:12Z</time>
      </trkpt>
      <trkpt lat="48.25582" lon="-3.46865">
        <ele>121.5</ele>
        <time>2022-06-12T13:19:13Z</time>
      </trkpt>
      <trkpt lat="48.25582" lon="-3.46865">
        <ele>121.5</ele>
        <time>2022-06-12T13:19:14Z</time>
      </trkpt>
      <trkpt lat="48.25582" lon="-3.46865">
        <ele>121.5</ele>
        <time>2022-06-12T13:19:15Z</time>
      </trkpt>
      <trkpt lat="48.25582" lon="-3.46865">
        <ele>121.5</ele>
        <time>2022-06-12T13:19:16Z</time>
      </trkpt>
      <trkpt lat="48.25582" lon="-3.46865">
        <ele>121.5</ele>
        <time>2022-06-12T13:19:17Z</time>
      </trkpt>
      <trkpt lat="48.25582" lon="-3.46865">
        <ele>121.5</ele>
        <time>2022-06-12T13:19:18Z</time>
      </trkpt>
      <trkpt lat="48.25582" lon="-3.46865">
        <ele>121.5</ele>
        <time>2022-06-12T13:19:19Z</time>
      </trkpt>
      <trkpt lat="48.25582" lon="-3.46864">
        <ele>121.5</ele>
        <time>2022-06-12T13:19:20Z</time>
      </trkpt>
      <trkpt lat="48.25582" lon="-3.46864">
        <ele>121.5</ele>
        <time>2022-06-12T13:19:21Z</time>
      </trkpt>
      <trkpt lat="48.25582" lon="-3.46864">
        <ele>121.5</ele>
        <time>2022-06-12T13:19:22Z</time>
      </trkpt>
      <trkpt lat="48.25582" lon="-3.46864">
        <ele>121.5</ele>
        <time>2022-06-12T13:19:23Z</time>
      </trkpt>
      <trkpt lat="48.25582" lon="-3.46864">
        <ele>121.5</ele>
        <time>2022-06-12T13:19:24Z</time>
      </trkpt>
      <trkpt lat="48.25582" lon="-3.46864">
        <ele>121.5</ele>
        <time>2022-06-12T13:19:25Z</time>
      </trkpt>
      <trkpt lat="48.25582" lon="-3.46864">
        <ele>121.5</ele>
        <time>2022-06-12T13:19:26Z</time>
      </trkpt>
      <trkpt lat="48.25582" lon="-3.46864">
        <ele>121.5</ele>
        <time>2022-06-12T13:19:27Z</time>
      </trkpt>
      <trkpt lat="48.25582" lon="-3.46864">
        <ele>121.5</ele>
        <time>2022-06-12T13:19:28Z</time>
      </trkpt>
      <trkpt lat="48.25582" lon="-3.46864">
        <ele>121.5</ele>
        <time>2022-06-12T13:19:29Z</time>
      </trkpt>
      <trkpt lat="48.25582" lon="-3.46864">
        <ele>121.5</ele>
        <time>2022-06-12T13:19:30Z</time>
      </trkpt>
      <trkpt lat="48.25582" lon="-3.46864">
        <ele>121.5</ele>
        <time>2022-06-12T13:19:31Z</time>
      </trkpt>
      <trkpt lat="48.25582" lon="-3.46864">
        <ele>121.5</ele>
        <time>2022-06-12T13:19:32Z</time>
      </trkpt>
      <trkpt lat="48.25582" lon="-3.46864">
        <ele>121.5</ele>
        <time>2022-06-12T13:19:33Z</time>
      </trkpt>
      <trkpt lat="48.25582" lon="-3.46864">
        <ele>121.5</ele>
        <time>2022-06-12T13:19:34Z</time>
      </trkpt>
      <trkpt lat="48.25582" lon="-3.46864">
        <ele>121.5</ele>
        <time>2022-06-12T13:19:35Z</time>
      </trkpt>
      <trkpt lat="48.25583" lon="-3.46864">
        <ele>121.5</ele>
        <time>2022-06-12T13:19:36Z</time>
      </trkpt>
      <trkpt lat="48.25583" lon="-3.46864">
        <ele>121.5</ele>
        <time>2022-06-12T13:19:37Z</time>
      </trkpt>
      <trkpt lat="48.25583" lon="-3.46864">
        <ele>121.5</ele>
        <time>2022-06-12T13:19:38Z</time>
      </trkpt>
      <trkpt lat="48.25583" lon="-3.46864">
        <ele>121.5</ele>
        <time>2022-06-12T13:19:39Z</time>
      </trkpt>
      <trkpt lat="48.25583" lon="-3.46864">
        <ele>121.5</ele>
        <time>2022-06-12T13:19:40Z</time>
      </trkpt>
      <trkpt lat="48.25583" lon="-3.46864">
        <ele>121.5</ele>
        <time>2022-06-12T13:19:41Z</time>
      </trkpt>
      <trkpt lat="48.25583" lon="-3.46864">
        <ele>121.5</ele>
        <time>2022-06-12T13:19:42Z</time>
      </trkpt>
      <trkpt lat="48.25583" lon="-3.46864">
        <ele>121.5</ele>
        <time>2022-06-12T13:19:43Z</time>
      </trkpt>
      <trkpt lat="48.25583" lon="-3.46864">
        <ele>121.5</ele>
        <time>2022-06-12T13:19:44Z</time>
      </trkpt>
      <trkpt lat="48.25583" lon="-3.46864">
        <ele>121.5</ele>
        <time>2022-06-12T13:19:45Z</time>
      </trkpt>
      <trkpt lat="48.25583" lon="-3.46864">
        <ele>121.5</ele>
        <time>2022-06-12T13:19:46Z</time>
      </trkpt>
      <trkpt lat="48.25583" lon="-3.46864">
        <ele>121.5</ele>
        <time>2022-06-12T13:19:47Z</time>
      </trkpt>
      <trkpt lat="48.25583" lon="-3.46864">
        <ele>121.5</ele>
        <time>2022-06-12T13:19:48Z</time>
      </trkpt>
      <trkpt lat="48.25583" lon="-3.46864">
        <ele>121.5</ele>
        <time>2022-06-12T13:19:49Z</time>
      </trkpt>
      <trkpt lat="48.25583" lon="-3.46864">
        <ele>121.5</ele>
        <time>2022-06-12T13:19:50Z</time>
      </trkpt>
      <trkpt lat="48.25583" lon="-3.46864">
        <ele>121.5</ele>
        <time>2022-06-12T13:19:51Z</time>
      </trkpt>
      <trkpt lat="48.25583" lon="-3.46864">
        <ele>121.5</ele>
        <time>2022-06-12T13:19:52Z</time>
      </trkpt>
      <trkpt lat="48.25583" lon="-3.46864">
        <ele>121.5</ele>
        <time>2022-06-12T13:19:53Z</time>
      </trkpt>
      <trkpt lat="48.25583" lon="-3.46864">
        <ele>121.5</ele>
        <time>2022-06-12T13:19:54Z</time>
      </trkpt>
      <trkpt lat="48.25583" lon="-3.46864">
        <ele>121.5</ele>
        <time>2022-06-12T13:19:55Z</time>
      </trkpt>
      <trkpt lat="48.25583" lon="-3.46864">
        <ele>121.5</ele>
        <time>2022-06-12T13:19:56Z</time>
      </trkpt>
      <trkpt lat="48.25583" lon="-3.46864">
        <ele>121.5</ele>
        <time>2022-06-12T13:19:57Z</time>
      </trkpt>
      <trkpt lat="48.25583" lon="-3.46864">
        <ele>121.5</ele>
        <time>2022-06-12T13:19:58Z</time>
      </trkpt>
      <trkpt lat="48.25583" lon="-3.46863">
        <ele>121.5</ele>
        <time>2022-06-12T13:19:59Z</time>
      </trkpt>
      <trkpt lat="48.25583" lon="-3.46863">
        <ele>121.5</ele>
        <time>2022-06-12T13:20:00Z</time>
      </trkpt>
      <trkpt lat="48.25583" lon="-3.46863">
        <ele>121.5</ele>
        <time>2022-06-12T13:20:01Z</time>
      </trkpt>
      <trkpt lat="48.25583" lon="-3.46863">
        <ele>121.5</ele>
        <time>2022-06-12T13:20:02Z</time>
      </trkpt>
      <trkpt lat="48.25583" lon="-3.46863">
        <ele>121.5</ele>
        <time>2022-06-12T13:20:03Z</time>
      </trkpt>
      <trkpt lat="48.25583" lon="-3.46863">
        <ele>121.5</ele>
        <time>2022-06-12T13:20:05Z</time>
      </trkpt>
      <trkpt lat="48.25583" lon="-3.46863">
        <ele>121.5</ele>
        <time>2022-06-12T13:20:06Z</time>
      </trkpt>
      <trkpt lat="48.25583" lon="-3.46863">
        <ele>121.5</ele>
        <time>2022-06-12T13:20:08Z</time>
      </trkpt>
      <trkpt lat="48.25583" lon="-3.46863">
        <ele>121.5</ele>
        <time>2022-06-12T13:20:09Z</time>
      </trkpt>
      <trkpt lat="48.25583" lon="-3.46863">
        <ele>121.5</ele>
        <time>2022-06-12T13:20:10Z</time>
      </trkpt>
      <trkpt lat="48.25583" lon="-3.46863">
        <ele>121.5</ele>
        <time>2022-06-12T13:20:11Z</time>
      </trkpt>
      <trkpt lat="48.25583" lon="-3.46863">
        <ele>121.5</ele>
        <time>2022-06-12T13:20:12Z</time>
      </trkpt>
      <trkpt lat="48.25583" lon="-3.46863">
        <ele>121.5</ele>
        <time>2022-06-12T13:20:14Z</time>
      </trkpt>
      <trkpt lat="48.25583" lon="-3.46863">
        <ele>121.5</ele>
        <time>2022-06-12T13:20:16Z</time>
      </trkpt>
      <trkpt lat="48.25583" lon="-3.46863">
        <ele>121.5</ele>
        <time>2022-06-12T13:20:16Z</time>
      </trkpt>
      <trkpt lat="48.25584" lon="-3.46863">
        <ele>121.5</ele>
        <time>2022-06-12T13:20:17Z</time>
      </trkpt>
      <trkpt lat="48.25586" lon="-3.46863">
        <ele>121.5</ele>
        <time>2022-06-12T13:20:18Z</time>
      </trkpt>
      <trkpt lat="48.25587" lon="-3.46864">
        <ele>121.5</ele>
        <time>2022-06-12T13:20:19Z</time>
      </trkpt>
      <trkpt lat="48.25588" lon="-3.46864">
        <ele>121.5</ele>
        <time>2022-06-12T13:20:20Z</time>
      </trkpt>
      <trkpt lat="48.25592" lon="-3.46864">
        <ele>121.5</ele>
        <time>2022-06-12T13:20:21Z</time>
      </trkpt>
      <trkpt lat="48.25592" lon="-3.46863">
        <ele>121.5</ele>
        <time>2022-06-12T13:20:22Z</time>
      </trkpt>
      <trkpt lat="48.25592" lon="-3.46863">
        <ele>121.5</ele>
        <time>2022-06-12T13:20:23Z</time>
      </trkpt>
      <trkpt lat="48.25591" lon="-3.46862">
        <ele>121.5</ele>
        <time>2022-06-12T13:20:24Z</time>
      </trkpt>
      <trkpt lat="48.25591" lon="-3.46861">
        <ele>121.6</ele>
        <time>2022-06-12T13:20:25Z</time>
      </trkpt>
      <trkpt lat="48.2559" lon="-3.46859">
        <ele>121.6</ele>
        <time>2022-06-12T13:20:26Z</time>
      </trkpt>
      <trkpt lat="48.2559" lon="-3.46859">
        <ele>121.6</ele>
        <time>2022-06-12T13:20:27Z</time>
      </trkpt>
      <trkpt lat="48.2559" lon="-3.46858">
        <ele>121.6</ele>
        <time>2022-06-12T13:20:28Z</time>
      </trkpt>
      <trkpt lat="48.25591" lon="-3.46857">
        <ele>121.6</ele>
        <time>2022-06-12T13:20:29Z</time>
      </trkpt>
      <trkpt lat="48.25592" lon="-3.46857">
        <ele>121.6</ele>
        <time>2022-06-12T13:20:31Z</time>
      </trkpt>
      <trkpt lat="48.25593" lon="-3.46856">
        <ele>121.6</ele>
        <time>2022-06-12T13:20:32Z</time>
      </trkpt>
      <trkpt lat="48.25593" lon="-3.46853">
        <ele>121.6</ele>
        <time>2022-06-12T13:20:33Z</time>
      </trkpt>
      <trkpt lat="48.25593" lon="-3.4685">
        <ele>121.6</ele>
        <time>2022-06-12T13:20:35Z</time>
      </trkpt>
      <trkpt lat="48.25594" lon="-3.46846">
        <ele>121.7</ele>
        <time>2022-06-12T13:20:36Z</time>
      </trkpt>
      <trkpt lat="48.25593" lon="-3.46844">
        <ele>121.7</ele>
        <time>2022-06-12T13:20:37Z</time>
      </trkpt>
      <trkpt lat="48.25593" lon="-3.46843">
        <ele>121.7</ele>
        <time>2022-06-12T13:20:38Z</time>
      </trkpt>
      <trkpt lat="48.25593" lon="-3.46839">
        <ele>121.7</ele>
        <time>2022-06-12T13:20:40Z</time>
      </trkpt>
      <trkpt lat="48.25593" lon="-3.46836">
        <ele>121.7</ele>
        <time>2022-06-12T13:20:41Z</time>
      </trkpt>
      <trkpt lat="48.25592" lon="-3.46836">
        <ele>121.7</ele>
        <time>2022-06-12T13:20:42Z</time>
      </trkpt>
      <trkpt lat="48.25591" lon="-3.46837">
        <ele>121.7</ele>
        <time>2022-06-12T13:20:43Z</time>
      </trkpt>
      <trkpt lat="48.25591" lon="-3.46836">
        <ele>121.7</ele>
        <time>2022-06-12T13:20:44Z</time>
      </trkpt>
      <trkpt lat="48.2559" lon="-3.46833">
        <ele>121.8</ele>
        <time>2022-06-12T13:20:45Z</time>
      </trkpt>
      <trkpt lat="48.2559" lon="-3.46832">
        <ele>121.8</ele>
        <time>2022-06-12T13:20:47Z</time>
      </trkpt>
      <trkpt lat="48.2559" lon="-3.4683">
        <ele>121.8</ele>
        <time>2022-06-12T13:20:48Z</time>
      </trkpt>
      <trkpt lat="48.25589" lon="-3.46826">
        <ele>121.8</ele>
        <time>2022-06-12T13:20:49Z</time>
      </trkpt>
      <trkpt lat="48.25589" lon="-3.46825">
        <ele>121.8</ele>
        <time>2022-06-12T13:20:50Z</time>
      </trkpt>
      <trkpt lat="48.25587" lon="-3.46819">
        <ele>121.8</ele>
        <time>2022-06-12T13:20:52Z</time>
      </trkpt>
      <trkpt lat="48.25586" lon="-3.46817">
        <ele>121.9</ele>
        <time>2022-06-12T13:20:53Z</time>
      </trkpt>
      <trkpt lat="48.25586" lon="-3.46815">
        <ele>121.9</ele>
        <time>2022-06-12T13:20:54Z</time>
      </trkpt>
      <trkpt lat="48.25585" lon="-3.46813">
        <ele>121.9</ele>
        <time>2022-06-12T13:20:55Z</time>
      </trkpt>
      <trkpt lat="48.25585" lon="-3.46811">
        <ele>121.9</ele>
        <time>2022-06-12T13:20:56Z</time>
      </trkpt>
      <trkpt lat="48.25584" lon="-3.46808">
        <ele>121.9</ele>
        <time>2022-06-12T13:20:57Z</time>
      </trkpt>
      <trkpt lat="48.25583" lon="-3.46807">
        <ele>121.9</ele>
        <time>2022-06-12T13:20:58Z</time>
      </trkpt>
      <trkpt lat="48.25583" lon="-3.46806">
        <ele>121.9</ele>
        <time>2022-06-12T13:21:00Z</time>
      </trkpt>
      <trkpt lat="48.25582" lon="-3.46805">
        <ele>121.9</ele>
        <time>2022-06-12T13:21:01Z</time>
      </trkpt>
      <trkpt lat="48.25582" lon="-3.46803">
        <ele>121.9</ele>
        <time>2022-06-12T13:21:02Z</time>
      </trkpt>
      <trkpt lat="48.25581" lon="-3.468">
        <ele>121.9</ele>
        <time>2022-06-12T13:21:03Z</time>
      </trkpt>
      <trkpt lat="48.25581" lon="-3.46798">
        <ele>122</ele>
        <time>2022-06-12T13:21:04Z</time>
      </trkpt>
      <trkpt lat="48.25581" lon="-3.46797">
        <ele>122</ele>
        <time>2022-06-12T13:21:05Z</time>
      </trkpt>
      <trkpt lat="48.2558" lon="-3.46794">
        <ele>122</ele>
        <time>2022-06-12T13:21:06Z</time>
      </trkpt>
      <trkpt lat="48.2558" lon="-3.46792">
        <ele>122</ele>
        <time>2022-06-12T13:21:07Z</time>
      </trkpt>
      <trkpt lat="48.2558" lon="-3.46791">
        <ele>122</ele>
        <time>2022-06-12T13:21:08Z</time>
      </trkpt>
      <trkpt lat="48.25579" lon="-3.46788">
        <ele>122</ele>
        <time>2022-06-12T13:21:10Z</time>
      </trkpt>
      <trkpt lat="48.25579" lon="-3.46786">
        <ele>122</ele>
        <time>2022-06-12T13:21:11Z</time>
      </trkpt>
      <trkpt lat="48.25578" lon="-3.46783">
        <ele>122</ele>
        <time>2022-06-12T13:21:12Z</time>
      </trkpt>
      <trkpt lat="48.25578" lon="-3.46782">
        <ele>122</ele>
        <time>2022-06-12T13:21:13Z</time>
      </trkpt>
      <trkpt lat="48.25578" lon="-3.46781">
        <ele>122</ele>
        <time>2022-06-12T13:21:14Z</time>
      </trkpt>
      <trkpt lat="48.25578" lon="-3.46778">
        <ele>122.1</ele>
        <time>2022-06-12T13:21:15Z</time>
      </trkpt>
      <trkpt lat="48.25577" lon="-3.46777">
        <ele>122.1</ele>
        <time>2022-06-12T13:21:16Z</time>
      </trkpt>
      <trkpt lat="48.25577" lon="-3.46775">
        <ele>122.1</ele>
        <time>2022-06-12T13:21:17Z</time>
      </trkpt>
      <trkpt lat="48.25577" lon="-3.46774">
        <ele>122.1</ele>
        <time>2022-06-12T13:21:18Z</time>
      </trkpt>
      <trkpt lat="48.25576" lon="-3.4677">
        <ele>122.1</ele>
        <time>2022-06-12T13:21:20Z</time>
      </trkpt>
      <trkpt lat="48.25576" lon="-3.46769">
        <ele>122.1</ele>
        <time>2022-06-12T13:21:21Z</time>
      </trkpt>
      <trkpt lat="48.25576" lon="-3.46767">
        <ele>122.1</ele>
        <time>2022-06-12T13:21:22Z</time>
      </trkpt>
      <trkpt lat="48.25576" lon="-3.46766">
        <ele>122.1</ele>
        <time>2022-06-12T13:21:23Z</time>
      </trkpt>
      <trkpt lat="48.25576" lon="-3.46764">
        <ele>122.1</ele>
        <time>2022-06-12T13:21:24Z</time>
      </trkpt>
      <trkpt lat="48.25576" lon="-3.46761">
        <ele>122.1</ele>
        <time>2022-06-12T13:21:25Z</time>
      </trkpt>
      <trkpt lat="48.25576" lon="-3.4676">
        <ele>122.1</ele>
        <time>2022-06-12T13:21:26Z</time>
      </trkpt>
      <trkpt lat="48.25576" lon="-3.46759">
        <ele>122.1</ele>
        <time>2022-06-12T13:21:27Z</time>
      </trkpt>
      <trkpt lat="48.25576" lon="-3.46757">
        <ele>122.1</ele>
        <time>2022-06-12T13:21:28Z</time>
      </trkpt>
      <trkpt lat="48.25576" lon="-3.46756">
        <ele>122.1</ele>
        <time>2022-06-12T13:21:29Z</time>
      </trkpt>
      <trkpt lat="48.25576" lon="-3.46753">
        <ele>122.1</ele>
        <time>2022-06-12T13:21:30Z</time>
      </trkpt>
      <trkpt lat="48.25576" lon="-3.46751">
        <ele>122.1</ele>
        <time>2022-06-12T13:21:31Z</time>
      </trkpt>
      <trkpt lat="48.25576" lon="-3.4675">
        <ele>122.1</ele>
        <time>2022-06-12T13:21:33Z</time>
      </trkpt>
      <trkpt lat="48.25576" lon="-3.46748">
        <ele>122.2</ele>
        <time>2022-06-12T13:21:34Z</time>
      </trkpt>
      <trkpt lat="48.25577" lon="-3.46745">
        <ele>122.2</ele>
        <time>2022-06-12T13:21:35Z</time>
      </trkpt>
      <trkpt lat="48.25577" lon="-3.46743">
        <ele>122.2</ele>
        <time>2022-06-12T13:21:36Z</time>
      </trkpt>
      <trkpt lat="48.25577" lon="-3.46742">
        <ele>122.2</ele>
        <time>2022-06-12T13:21:37Z</time>
      </trkpt>
      <trkpt lat="48.25577" lon="-3.4674">
        <ele>122.2</ele>
        <time>2022-06-12T13:21:38Z</time>
      </trkpt>
      <trkpt lat="48.25577" lon="-3.46739">
        <ele>122.2</ele>
        <time>2022-06-12T13:21:39Z</time>
      </trkpt>
      <trkpt lat="48.25578" lon="-3.46735">
        <ele>122.2</ele>
        <time>2022-06-12T13:21:40Z</time>
      </trkpt>
      <trkpt lat="48.25578" lon="-3.46733">
        <ele>122.2</ele>
        <time>2022-06-12T13:21:42Z</time>
      </trkpt>
      <trkpt lat="48.25578" lon="-3.46732">
        <ele>122.2</ele>
        <time>2022-06-12T13:21:43Z</time>
      </trkpt>
      <trkpt lat="48.25578" lon="-3.4673">
        <ele>122.2</ele>
        <time>2022-06-12T13:21:44Z</time>
      </trkpt>
      <trkpt lat="48.25579" lon="-3.46729">
        <ele>122.2</ele>
        <time>2022-06-12T13:21:45Z</time>
      </trkpt>
      <trkpt lat="48.25579" lon="-3.46727">
        <ele>122.2</ele>
        <time>2022-06-12T13:21:46Z</time>
      </trkpt>
      <trkpt lat="48.25579" lon="-3.46726">
        <ele>122.2</ele>
        <time>2022-06-12T13:21:47Z</time>
      </trkpt>
      <trkpt lat="48.2558" lon="-3.46724">
        <ele>122.2</ele>
        <time>2022-06-12T13:21:48Z</time>
      </trkpt>
      <trkpt lat="48.2558" lon="-3.46722">
        <ele>122.2</ele>
        <time>2022-06-12T13:21:50Z</time>
      </trkpt>
      <trkpt lat="48.2558" lon="-3.46719">
        <ele>122.3</ele>
        <time>2022-06-12T13:21:51Z</time>
      </trkpt>
      <trkpt lat="48.25581" lon="-3.46718">
        <ele>122.3</ele>
        <time>2022-06-12T13:21:52Z</time>
      </trkpt>
      <trkpt lat="48.25581" lon="-3.46716">
        <ele>122.3</ele>
        <time>2022-06-12T13:21:53Z</time>
      </trkpt>
      <trkpt lat="48.25581" lon="-3.46714">
        <ele>122.3</ele>
        <time>2022-06-12T13:21:54Z</time>
      </trkpt>
      <trkpt lat="48.25582" lon="-3.46711">
        <ele>122.3</ele>
        <time>2022-06-12T13:21:55Z</time>
      </trkpt>
      <trkpt lat="48.25582" lon="-3.4671">
        <ele>122.3</ele>
        <time>2022-06-12T13:21:56Z</time>
      </trkpt>
      <trkpt lat="48.25582" lon="-3.46709">
        <ele>122.3</ele>
        <time>2022-06-12T13:21:57Z</time>
      </trkpt>
      <trkpt lat="48.25583" lon="-3.46706">
        <ele>122.3</ele>
        <time>2022-06-12T13:21:58Z</time>
      </trkpt>
      <trkpt lat="48.25583" lon="-3.46704">
        <ele>122.3</ele>
        <time>2022-06-12T13:22:00Z</time>
      </trkpt>
      <trkpt lat="48.25583" lon="-3.46703">
        <ele>122.3</ele>
        <time>2022-06-12T13:22:01Z</time>
      </trkpt>
      <trkpt lat="48.25584" lon="-3.467">
        <ele>122.3</ele>
        <time>2022-06-12T13:22:02Z</time>
      </trkpt>
      <trkpt lat="48.25585" lon="-3.46698">
        <ele>122.4</ele>
        <time>2022-06-12T13:22:03Z</time>
      </trkpt>
      <trkpt lat="48.25585" lon="-3.46697">
        <ele>122.4</ele>
        <time>2022-06-12T13:22:04Z</time>
      </trkpt>
      <trkpt lat="48.25586" lon="-3.46694">
        <ele>122.4</ele>
        <time>2022-06-12T13:22:05Z</time>
      </trkpt>
      <trkpt lat="48.25587" lon="-3.46693">
        <ele>122.4</ele>
        <time>2022-06-12T13:22:06Z</time>
      </trkpt>
      <trkpt lat="48.25587" lon="-3.46691">
        <ele>122.4</ele>
        <time>2022-06-12T13:22:07Z</time>
      </trkpt>
      <trkpt lat="48.25588" lon="-3.46688">
        <ele>122.4</ele>
        <time>2022-06-12T13:22:08Z</time>
      </trkpt>
      <trkpt lat="48.25589" lon="-3.46686">
        <ele>122.4</ele>
        <time>2022-06-12T13:22:09Z</time>
      </trkpt>
      <trkpt lat="48.25591" lon="-3.46682">
        <ele>122.4</ele>
        <time>2022-06-12T13:22:10Z</time>
      </trkpt>
      <trkpt lat="48.25591" lon="-3.4668">
        <ele>122.4</ele>
        <time>2022-06-12T13:22:11Z</time>
      </trkpt>
      <trkpt lat="48.25593" lon="-3.46676">
        <ele>122.5</ele>
        <time>2022-06-12T13:22:13Z</time>
      </trkpt>
      <trkpt lat="48.25593" lon="-3.46675">
        <ele>122.5</ele>
        <time>2022-06-12T13:22:14Z</time>
      </trkpt>
      <trkpt lat="48.25594" lon="-3.46672">
        <ele>122.5</ele>
        <time>2022-06-12T13:22:15Z</time>
      </trkpt>
      <trkpt lat="48.25595" lon="-3.4667">
        <ele>122.5</ele>
        <time>2022-06-12T13:22:16Z</time>
      </trkpt>
      <trkpt lat="48.25596" lon="-3.46669">
        <ele>122.5</ele>
        <time>2022-06-12T13:22:17Z</time>
      </trkpt>
      <trkpt lat="48.25597" lon="-3.46667">
        <ele>122.5</ele>
        <time>2022-06-12T13:22:19Z</time>
      </trkpt>
      <trkpt lat="48.25597" lon="-3.46664">
        <ele>122.5</ele>
        <time>2022-06-12T13:22:20Z</time>
      </trkpt>
      <trkpt lat="48.25598" lon="-3.46661">
        <ele>122.5</ele>
        <time>2022-06-12T13:22:22Z</time>
      </trkpt>
      <trkpt lat="48.25599" lon="-3.46658">
        <ele>122.5</ele>
        <time>2022-06-12T13:22:23Z</time>
      </trkpt>
      <trkpt lat="48.256" lon="-3.46656">
        <ele>122.5</ele>
        <time>2022-06-12T13:22:24Z</time>
      </trkpt>
      <trkpt lat="48.256" lon="-3.46655">
        <ele>122.5</ele>
        <time>2022-06-12T13:22:25Z</time>
      </trkpt>
      <trkpt lat="48.25601" lon="-3.46653">
        <ele>122.5</ele>
        <time>2022-06-12T13:22:26Z</time>
      </trkpt>
      <trkpt lat="48.25601" lon="-3.46651">
        <ele>122.5</ele>
        <time>2022-06-12T13:22:27Z</time>
      </trkpt>
      <trkpt lat="48.25602" lon="-3.46648">
        <ele>122.5</ele>
        <time>2022-06-12T13:22:28Z</time>
      </trkpt>
      <trkpt lat="48.25602" lon="-3.46647">
        <ele>122.5</ele>
        <time>2022-06-12T13:22:29Z</time>
      </trkpt>
      <trkpt lat="48.25602" lon="-3.46646">
        <ele>122.5</ele>
        <time>2022-06-12T13:22:31Z</time>
      </trkpt>
      <trkpt lat="48.25603" lon="-3.46644">
        <ele>122.5</ele>
        <time>2022-06-12T13:22:32Z</time>
      </trkpt>
      <trkpt lat="48.25603" lon="-3.46643">
        <ele>122.5</ele>
        <time>2022-06-12T13:22:33Z</time>
      </trkpt>
      <trkpt lat="48.25603" lon="-3.46642">
        <ele>122.5</ele>
        <time>2022-06-12T13:22:34Z</time>
      </trkpt>
      <trkpt lat="48.25603" lon="-3.46642">
        <ele>122.5</ele>
        <time>2022-06-12T13:22:35Z</time>
      </trkpt>
      <trkpt lat="48.25603" lon="-3.46641">
        <ele>122.5</ele>
        <time>2022-06-12T13:22:36Z</time>
      </trkpt>
      <trkpt lat="48.25604" lon="-3.4664">
        <ele>122.5</ele>
        <time>2022-06-12T13:22:37Z</time>
      </trkpt>
      <trkpt lat="48.25604" lon="-3.46639">
        <ele>122.5</ele>
        <time>2022-06-12T13:22:38Z</time>
      </trkpt>
      <trkpt lat="48.25604" lon="-3.46637">
        <ele>122.6</ele>
        <time>2022-06-12T13:22:39Z</time>
      </trkpt>
      <trkpt lat="48.25605" lon="-3.46634">
        <ele>122.6</ele>
        <time>2022-06-12T13:22:41Z</time>
      </trkpt>
      <trkpt lat="48.25605" lon="-3.46633">
        <ele>122.6</ele>
        <time>2022-06-12T13:22:42Z</time>
      </trkpt>
      <trkpt lat="48.25605" lon="-3.46631">
        <ele>122.6</ele>
        <time>2022-06-12T13:22:43Z</time>
      </trkpt>
      <trkpt lat="48.25605" lon="-3.4663">
        <ele>122.6</ele>
        <time>2022-06-12T13:22:44Z</time>
      </trkpt>
      <trkpt lat="48.25606" lon="-3.46628">
        <ele>122.6</ele>
        <time>2022-06-12T13:22:45Z</time>
      </trkpt>
      <trkpt lat="48.25606" lon="-3.46626">
        <ele>122.6</ele>
        <time>2022-06-12T13:22:46Z</time>
      </trkpt>
      <trkpt lat="48.25606" lon="-3.46624">
        <ele>122.6</ele>
        <time>2022-06-12T13:22:48Z</time>
      </trkpt>
      <trkpt lat="48.25606" lon="-3.46621">
        <ele>122.6</ele>
        <time>2022-06-12T13:22:49Z</time>
      </trkpt>
      <trkpt lat="48.25606" lon="-3.46619">
        <ele>122.6</ele>
        <time>2022-06-12T13:22:50Z</time>
      </trkpt>
      <trkpt lat="48.25607" lon="-3.46617">
        <ele>122.6</ele>
        <time>2022-06-12T13:22:51Z</time>
      </trkpt>
      <trkpt lat="48.25608" lon="-3.46615">
        <ele>122.6</ele>
        <time>2022-06-12T13:22:52Z</time>
      </trkpt>
      <trkpt lat="48.25608" lon="-3.46613">
        <ele>122.6</ele>
        <time>2022-06-12T13:22:53Z</time>
      </trkpt>
      <trkpt lat="48.25608" lon="-3.4661">
        <ele>122.6</ele>
        <time>2022-06-12T13:22:54Z</time>
      </trkpt>
      <trkpt lat="48.25609" lon="-3.46609">
        <ele>122.6</ele>
        <time>2022-06-12T13:22:55Z</time>
      </trkpt>
      <trkpt lat="48.25609" lon="-3.46607">
        <ele>122.6</ele>
        <time>2022-06-12T13:22:56Z</time>
      </trkpt>
      <trkpt lat="48.2561" lon="-3.46604">
        <ele>122.6</ele>
        <time>2022-06-12T13:22:58Z</time>
      </trkpt>
      <trkpt lat="48.25611" lon="-3.46602">
        <ele>122.6</ele>
        <time>2022-06-12T13:22:59Z</time>
      </trkpt>
      <trkpt lat="48.25612" lon="-3.46601">
        <ele>122.6</ele>
        <time>2022-06-12T13:23:01Z</time>
      </trkpt>
      <trkpt lat="48.25612" lon="-3.46599">
        <ele>122.6</ele>
        <time>2022-06-12T13:23:02Z</time>
      </trkpt>
      <trkpt lat="48.25613" lon="-3.46598">
        <ele>122.6</ele>
        <time>2022-06-12T13:23:03Z</time>
      </trkpt>
      <trkpt lat="48.25614" lon="-3.46596">
        <ele>122.6</ele>
        <time>2022-06-12T13:23:04Z</time>
      </trkpt>
      <trkpt lat="48.25615" lon="-3.46594">
        <ele>122.6</ele>
        <time>2022-06-12T13:23:05Z</time>
      </trkpt>
      <trkpt lat="48.25615" lon="-3.46593">
        <ele>122.6</ele>
        <time>2022-06-12T13:23:06Z</time>
      </trkpt>
      <trkpt lat="48.25616" lon="-3.4659">
        <ele>122.6</ele>
        <time>2022-06-12T13:23:07Z</time>
      </trkpt>
      <trkpt lat="48.25617" lon="-3.46589">
        <ele>122.6</ele>
        <time>2022-06-12T13:23:09Z</time>
      </trkpt>
      <trkpt lat="48.25618" lon="-3.46588">
        <ele>122.6</ele>
        <time>2022-06-12T13:23:10Z</time>
      </trkpt>
      <trkpt lat="48.25618" lon="-3.46587">
        <ele>122.6</ele>
        <time>2022-06-12T13:23:11Z</time>
      </trkpt>
      <trkpt lat="48.25619" lon="-3.46586">
        <ele>122.6</ele>
        <time>2022-06-12T13:23:12Z</time>
      </trkpt>
      <trkpt lat="48.2562" lon="-3.46584">
        <ele>122.6</ele>
        <time>2022-06-12T13:23:13Z</time>
      </trkpt>
      <trkpt lat="48.2562" lon="-3.46585">
        <ele>122.6</ele>
        <time>2022-06-12T13:23:14Z</time>
      </trkpt>
      <trkpt lat="48.25621" lon="-3.46586">
        <ele>122.6</ele>
        <time>2022-06-12T13:23:15Z</time>
      </trkpt>
      <trkpt lat="48.25622" lon="-3.46585">
        <ele>122.6</ele>
        <time>2022-06-12T13:23:16Z</time>
      </trkpt>
      <trkpt lat="48.25623" lon="-3.46584">
        <ele>122.6</ele>
        <time>2022-06-12T13:23:17Z</time>
      </trkpt>
      <trkpt lat="48.25623" lon="-3.46583">
        <ele>122.6</ele>
        <time>2022-06-12T13:23:18Z</time>
      </trkpt>
      <trkpt lat="48.25624" lon="-3.46581">
        <ele>122.6</ele>
        <time>2022-06-12T13:23:19Z</time>
      </trkpt>
      <trkpt lat="48.25625" lon="-3.46578">
        <ele>122.6</ele>
        <time>2022-06-12T13:23:21Z</time>
      </trkpt>
      <trkpt lat="48.25626" lon="-3.46577">
        <ele>122.6</ele>
        <time>2022-06-12T13:23:22Z</time>
      </trkpt>
      <trkpt lat="48.25626" lon="-3.46576">
        <ele>122.6</ele>
        <time>2022-06-12T13:23:23Z</time>
      </trkpt>
      <trkpt lat="48.25627" lon="-3.46574">
        <ele>122.6</ele>
        <time>2022-06-12T13:23:24Z</time>
      </trkpt>
      <trkpt lat="48.25628" lon="-3.46572">
        <ele>122.6</ele>
        <time>2022-06-12T13:23:25Z</time>
      </trkpt>
      <trkpt lat="48.25628" lon="-3.4657">
        <ele>122.6</ele>
        <time>2022-06-12T13:23:26Z</time>
      </trkpt>
      <trkpt lat="48.25629" lon="-3.46568">
        <ele>122.7</ele>
        <time>2022-06-12T13:23:28Z</time>
      </trkpt>
      <trkpt lat="48.2563" lon="-3.46566">
        <ele>122.7</ele>
        <time>2022-06-12T13:23:29Z</time>
      </trkpt>
      <trkpt lat="48.25631" lon="-3.46564">
        <ele>122.7</ele>
        <time>2022-06-12T13:23:30Z</time>
      </trkpt>
      <trkpt lat="48.25631" lon="-3.46563">
        <ele>122.7</ele>
        <time>2022-06-12T13:23:31Z</time>
      </trkpt>
      <trkpt lat="48.25632" lon="-3.46561">
        <ele>122.7</ele>
        <time>2022-06-12T13:23:32Z</time>
      </trkpt>
      <trkpt lat="48.25633" lon="-3.46559">
        <ele>122.7</ele>
        <time>2022-06-12T13:23:34Z</time>
      </trkpt>
      <trkpt lat="48.25634" lon="-3.46557">
        <ele>122.7</ele>
        <time>2022-06-12T13:23:35Z</time>
      </trkpt>
      <trkpt lat="48.25635" lon="-3.46556">
        <ele>122.7</ele>
        <time>2022-06-12T13:23:36Z</time>
      </trkpt>
      <trkpt lat="48.25636" lon="-3.46552">
        <ele>122.7</ele>
        <time>2022-06-12T13:23:37Z</time>
      </trkpt>
      <trkpt lat="48.25637" lon="-3.4655">
        <ele>122.7</ele>
        <time>2022-06-12T13:23:38Z</time>
      </trkpt>
      <trkpt lat="48.25637" lon="-3.46549">
        <ele>122.7</ele>
        <time>2022-06-12T13:23:41Z</time>
      </trkpt>
      <trkpt lat="48.25638" lon="-3.46547">
        <ele>122.7</ele>
        <time>2022-06-12T13:23:42Z</time>
      </trkpt>
      <trkpt lat="48.25639" lon="-3.46545">
        <ele>122.7</ele>
        <time>2022-06-12T13:23:43Z</time>
      </trkpt>
      <trkpt lat="48.25639" lon="-3.46543">
        <ele>122.7</ele>
        <time>2022-06-12T13:23:44Z</time>
      </trkpt>
      <trkpt lat="48.2564" lon="-3.46541">
        <ele>122.7</ele>
        <time>2022-06-12T13:23:45Z</time>
      </trkpt>
      <trkpt lat="48.2564" lon="-3.46539">
        <ele>122.7</ele>
        <time>2022-06-12T13:23:46Z</time>
      </trkpt>
      <trkpt lat="48.2564" lon="-3.46537">
        <ele>122.7</ele>
        <time>2022-06-12T13:23:48Z</time>
      </trkpt>
      <trkpt lat="48.25641" lon="-3.46535">
        <ele>122.7</ele>
        <time>2022-06-12T13:23:49Z</time>
      </trkpt>
      <trkpt lat="48.25642" lon="-3.46532">
        <ele>122.7</ele>
        <time>2022-06-12T13:23:50Z</time>
      </trkpt>
      <trkpt lat="48.25642" lon="-3.46531">
        <ele>122.7</ele>
        <time>2022-06-12T13:23:51Z</time>
      </trkpt>
      <trkpt lat="48.25642" lon="-3.46527">
        <ele>122.7</ele>
        <time>2022-06-12T13:23:52Z</time>
      </trkpt>
      <trkpt lat="48.25643" lon="-3.46526">
        <ele>122.7</ele>
        <time>2022-06-12T13:23:53Z</time>
      </trkpt>
      <trkpt lat="48.25643" lon="-3.46525">
        <ele>122.7</ele>
        <time>2022-06-12T13:23:54Z</time>
      </trkpt>
      <trkpt lat="48.25644" lon="-3.46522">
        <ele>122.7</ele>
        <time>2022-06-12T13:23:55Z</time>
      </trkpt>
      <trkpt lat="48.25644" lon="-3.46521">
        <ele>122.7</ele>
        <time>2022-06-12T13:23:56Z</time>
      </trkpt>
      <trkpt lat="48.25645" lon="-3.46519">
        <ele>122.7</ele>
        <time>2022-06-12T13:23:58Z</time>
      </trkpt>
      <trkpt lat="48.25645" lon="-3.46516">
        <ele>122.7</ele>
        <time>2022-06-12T13:23:59Z</time>
      </trkpt>
      <trkpt lat="48.25646" lon="-3.46513">
        <ele>122.7</ele>
        <time>2022-06-12T13:24:00Z</time>
      </trkpt>
      <trkpt lat="48.25646" lon="-3.46512">
        <ele>122.7</ele>
        <time>2022-06-12T13:24:01Z</time>
      </trkpt>
      <trkpt lat="48.25647" lon="-3.46509">
        <ele>122.7</ele>
        <time>2022-06-12T13:24:02Z</time>
      </trkpt>
      <trkpt lat="48.25647" lon="-3.46508">
        <ele>122.7</ele>
        <time>2022-06-12T13:24:03Z</time>
      </trkpt>
      <trkpt lat="48.25647" lon="-3.46507">
        <ele>122.7</ele>
        <time>2022-06-12T13:24:04Z</time>
      </trkpt>
      <trkpt lat="48.25648" lon="-3.46504">
        <ele>122.7</ele>
        <time>2022-06-12T13:24:06Z</time>
      </trkpt>
      <trkpt lat="48.25648" lon="-3.46503">
        <ele>122.7</ele>
        <time>2022-06-12T13:24:07Z</time>
      </trkpt>
      <trkpt lat="48.25649" lon="-3.465">
        <ele>122.7</ele>
        <time>2022-06-12T13:24:08Z</time>
      </trkpt>
      <trkpt lat="48.2565" lon="-3.46499">
        <ele>122.7</ele>
        <time>2022-06-12T13:24:09Z</time>
      </trkpt>
      <trkpt lat="48.2565" lon="-3.46498">
        <ele>122.7</ele>
        <time>2022-06-12T13:24:10Z</time>
      </trkpt>
      <trkpt lat="48.25651" lon="-3.46496">
        <ele>122.7</ele>
        <time>2022-06-12T13:24:11Z</time>
      </trkpt>
      <trkpt lat="48.25651" lon="-3.46495">
        <ele>122.7</ele>
        <time>2022-06-12T13:24:12Z</time>
      </trkpt>
      <trkpt lat="48.25652" lon="-3.46493">
        <ele>122.7</ele>
        <time>2022-06-12T13:24:14Z</time>
      </trkpt>
      <trkpt lat="48.25653" lon="-3.4649">
        <ele>122.7</ele>
        <time>2022-06-12T13:24:16Z</time>
      </trkpt>
      <trkpt lat="48.25653" lon="-3.46489">
        <ele>122.7</ele>
        <time>2022-06-12T13:24:17Z</time>
      </trkpt>
      <trkpt lat="48.25654" lon="-3.46486">
        <ele>122.7</ele>
        <time>2022-06-12T13:24:18Z</time>
      </trkpt>
      <trkpt lat="48.25654" lon="-3.46485">
        <ele>122.7</ele>
        <time>2022-06-12T13:24:19Z</time>
      </trkpt>
      <trkpt lat="48.25654" lon="-3.46484">
        <ele>122.7</ele>
        <time>2022-06-12T13:24:20Z</time>
      </trkpt>
      <trkpt lat="48.25655" lon="-3.46482">
        <ele>122.7</ele>
        <time>2022-06-12T13:24:21Z</time>
      </trkpt>
      <trkpt lat="48.25656" lon="-3.4648">
        <ele>122.7</ele>
        <time>2022-06-12T13:24:23Z</time>
      </trkpt>
      <trkpt lat="48.25656" lon="-3.46478">
        <ele>122.7</ele>
        <time>2022-06-12T13:24:24Z</time>
      </trkpt>
      <trkpt lat="48.25657" lon="-3.46476">
        <ele>122.7</ele>
        <time>2022-06-12T13:24:25Z</time>
      </trkpt>
      <trkpt lat="48.25659" lon="-3.46474">
        <ele>122.7</ele>
        <time>2022-06-12T13:24:26Z</time>
      </trkpt>
      <trkpt lat="48.2566" lon="-3.46473">
        <ele>122.7</ele>
        <time>2022-06-12T13:24:27Z</time>
      </trkpt>
      <trkpt lat="48.25661" lon="-3.46473">
        <ele>122.7</ele>
        <time>2022-06-12T13:24:28Z</time>
      </trkpt>
      <trkpt lat="48.25662" lon="-3.46469">
        <ele>122.7</ele>
        <time>2022-06-12T13:24:30Z</time>
      </trkpt>
      <trkpt lat="48.25662" lon="-3.46467">
        <ele>122.7</ele>
        <time>2022-06-12T13:24:31Z</time>
      </trkpt>
      <trkpt lat="48.25662" lon="-3.46466">
        <ele>122.7</ele>
        <time>2022-06-12T13:24:32Z</time>
      </trkpt>
      <trkpt lat="48.25663" lon="-3.46464">
        <ele>122.7</ele>
        <time>2022-06-12T13:24:33Z</time>
      </trkpt>
      <trkpt lat="48.25663" lon="-3.46462">
        <ele>122.7</ele>
        <time>2022-06-12T13:24:34Z</time>
      </trkpt>
      <trkpt lat="48.25664" lon="-3.4646">
        <ele>122.8</ele>
        <time>2022-06-12T13:24:35Z</time>
      </trkpt>
      <trkpt lat="48.25664" lon="-3.46458">
        <ele>122.8</ele>
        <time>2022-06-12T13:24:36Z</time>
      </trkpt>
      <trkpt lat="48.25665" lon="-3.46455">
        <ele>122.8</ele>
        <time>2022-06-12T13:24:37Z</time>
      </trkpt>
      <trkpt lat="48.25665" lon="-3.46454">
        <ele>122.8</ele>
        <time>2022-06-12T13:24:39Z</time>
      </trkpt>
      <trkpt lat="48.25665" lon="-3.46453">
        <ele>122.8</ele>
        <time>2022-06-12T13:24:40Z</time>
      </trkpt>
      <trkpt lat="48.25665" lon="-3.4645">
        <ele>122.8</ele>
        <time>2022-06-12T13:24:41Z</time>
      </trkpt>
      <trkpt lat="48.25665" lon="-3.46449">
        <ele>122.8</ele>
        <time>2022-06-12T13:24:42Z</time>
      </trkpt>
      <trkpt lat="48.25666" lon="-3.46446">
        <ele>122.8</ele>
        <time>2022-06-12T13:24:43Z</time>
      </trkpt>
      <trkpt lat="48.25666" lon="-3.46444">
        <ele>122.8</ele>
        <time>2022-06-12T13:24:44Z</time>
      </trkpt>
      <trkpt lat="48.25666" lon="-3.46443">
        <ele>122.8</ele>
        <time>2022-06-12T13:24:45Z</time>
      </trkpt>
      <trkpt lat="48.25666" lon="-3.4644">
        <ele>122.9</ele>
        <time>2022-06-12T13:24:46Z</time>
      </trkpt>
      <trkpt lat="48.25666" lon="-3.46438">
        <ele>122.9</ele>
        <time>2022-06-12T13:24:47Z</time>
      </trkpt>
      <trkpt lat="48.25666" lon="-3.46434">
        <ele>122.9</ele>
        <time>2022-06-12T13:24:48Z</time>
      </trkpt>
      <trkpt lat="48.25666" lon="-3.46433">
        <ele>122.9</ele>
        <time>2022-06-12T13:24:49Z</time>
      </trkpt>
      <trkpt lat="48.25666" lon="-3.46431">
        <ele>122.9</ele>
        <time>2022-06-12T13:24:50Z</time>
      </trkpt>
      <trkpt lat="48.25666" lon="-3.46428">
        <ele>122.9</ele>
        <time>2022-06-12T13:24:52Z</time>
      </trkpt>
      <trkpt lat="48.25666" lon="-3.46426">
        <ele>123</ele>
        <time>2022-06-12T13:24:53Z</time>
      </trkpt>
      <trkpt lat="48.25666" lon="-3.46425">
        <ele>123</ele>
        <time>2022-06-12T13:24:54Z</time>
      </trkpt>
      <trkpt lat="48.25666" lon="-3.4642">
        <ele>123</ele>
        <time>2022-06-12T13:24:55Z</time>
      </trkpt>
      <trkpt lat="48.25665" lon="-3.46419">
        <ele>123</ele>
        <time>2022-06-12T13:24:57Z</time>
      </trkpt>
      <trkpt lat="48.25665" lon="-3.46418">
        <ele>123</ele>
        <time>2022-06-12T13:24:58Z</time>
      </trkpt>
      <trkpt lat="48.25665" lon="-3.46416">
        <ele>123</ele>
        <time>2022-06-12T13:24:59Z</time>
      </trkpt>
      <trkpt lat="48.25665" lon="-3.46414">
        <ele>123</ele>
        <time>2022-06-12T13:25:00Z</time>
      </trkpt>
      <trkpt lat="48.25665" lon="-3.4641">
        <ele>123.1</ele>
        <time>2022-06-12T13:25:01Z</time>
      </trkpt>
      <trkpt lat="48.25665" lon="-3.46409">
        <ele>123.1</ele>
        <time>2022-06-12T13:25:02Z</time>
      </trkpt>
      <trkpt lat="48.25665" lon="-3.46407">
        <ele>123.1</ele>
        <time>2022-06-12T13:25:03Z</time>
      </trkpt>
      <trkpt lat="48.25665" lon="-3.46405">
        <ele>123.1</ele>
        <time>2022-06-12T13:25:05Z</time>
      </trkpt>
      <trkpt lat="48.25664" lon="-3.46402">
        <ele>123.1</ele>
        <time>2022-06-12T13:25:06Z</time>
      </trkpt>
      <trkpt lat="48.25664" lon="-3.46401">
        <ele>123.1</ele>
        <time>2022-06-12T13:25:07Z</time>
      </trkpt>
      <trkpt lat="48.25664" lon="-3.46398">
        <ele>123.2</ele>
        <time>2022-06-12T13:25:09Z</time>
      </trkpt>
      <trkpt lat="48.25664" lon="-3.46396">
        <ele>123.2</ele>
        <time>2022-06-12T13:25:10Z</time>
      </trkpt>
      <trkpt lat="48.25664" lon="-3.46394">
        <ele>123.2</ele>
        <time>2022-06-12T13:25:11Z</time>
      </trkpt>
      <trkpt lat="48.25664" lon="-3.46393">
        <ele>123.2</ele>
        <time>2022-06-12T13:25:12Z</time>
      </trkpt>
      <trkpt lat="48.25664" lon="-3.46391">
        <ele>123.2</ele>
        <time>2022-06-12T13:25:13Z</time>
      </trkpt>
      <trkpt lat="48.25664" lon="-3.4639">
        <ele>123.2</ele>
        <time>2022-06-12T13:25:14Z</time>
      </trkpt>
      <trkpt lat="48.25664" lon="-3.46387">
        <ele>123.2</ele>
        <time>2022-06-12T13:25:16Z</time>
      </trkpt>
      <trkpt lat="48.25664" lon="-3.46386">
        <ele>123.2</ele>
        <time>2022-06-12T13:25:17Z</time>
      </trkpt>
      <trkpt lat="48.25664" lon="-3.46385">
        <ele>123.2</ele>
        <time>2022-06-12T13:25:18Z</time>
      </trkpt>
      <trkpt lat="48.25664" lon="-3.46384">
        <ele>123.2</ele>
        <time>2022-06-12T13:25:19Z</time>
      </trkpt>
      <trkpt lat="48.25664" lon="-3.46382">
        <ele>123.3</ele>
        <time>2022-06-12T13:25:20Z</time>
      </trkpt>
      <trkpt lat="48.25663" lon="-3.4638">
        <ele>123.3</ele>
        <time>2022-06-12T13:25:21Z</time>
      </trkpt>
      <trkpt lat="48.25663" lon="-3.46378">
        <ele>123.3</ele>
        <time>2022-06-12T13:25:22Z</time>
      </trkpt>
      <trkpt lat="48.25663" lon="-3.46377">
        <ele>123.3</ele>
        <time>2022-06-12T13:25:23Z</time>
      </trkpt>
      <trkpt lat="48.25663" lon="-3.46374">
        <ele>123.3</ele>
        <time>2022-06-12T13:25:24Z</time>
      </trkpt>
      <trkpt lat="48.25663" lon="-3.46373">
        <ele>123.3</ele>
        <time>2022-06-12T13:25:25Z</time>
      </trkpt>
      <trkpt lat="48.25662" lon="-3.46371">
        <ele>123.3</ele>
        <time>2022-06-12T13:25:26Z</time>
      </trkpt>
      <trkpt lat="48.25662" lon="-3.46369">
        <ele>123.3</ele>
        <time>2022-06-12T13:25:28Z</time>
      </trkpt>
      <trkpt lat="48.25661" lon="-3.46368">
        <ele>123.3</ele>
        <time>2022-06-12T13:25:29Z</time>
      </trkpt>
      <trkpt lat="48.25661" lon="-3.46366">
        <ele>123.3</ele>
        <time>2022-06-12T13:25:30Z</time>
      </trkpt>
      <trkpt lat="48.25661" lon="-3.46365">
        <ele>123.3</ele>
        <time>2022-06-12T13:25:31Z</time>
      </trkpt>
      <trkpt lat="48.25661" lon="-3.46364">
        <ele>123.4</ele>
        <time>2022-06-12T13:25:32Z</time>
      </trkpt>
      <trkpt lat="48.2566" lon="-3.46362">
        <ele>123.4</ele>
        <time>2022-06-12T13:25:34Z</time>
      </trkpt>
      <trkpt lat="48.2566" lon="-3.4636">
        <ele>123.4</ele>
        <time>2022-06-12T13:25:35Z</time>
      </trkpt>
      <trkpt lat="48.25659" lon="-3.46358">
        <ele>123.4</ele>
        <time>2022-06-12T13:25:36Z</time>
      </trkpt>
      <trkpt lat="48.25659" lon="-3.46357">
        <ele>123.4</ele>
        <time>2022-06-12T13:25:37Z</time>
      </trkpt>
      <trkpt lat="48.25658" lon="-3.46355">
        <ele>123.4</ele>
        <time>2022-06-12T13:25:38Z</time>
      </trkpt>
      <trkpt lat="48.25658" lon="-3.46354">
        <ele>123.4</ele>
        <time>2022-06-12T13:25:39Z</time>
      </trkpt>
      <trkpt lat="48.25657" lon="-3.46353">
        <ele>123.4</ele>
        <time>2022-06-12T13:25:40Z</time>
      </trkpt>
      <trkpt lat="48.25656" lon="-3.46351">
        <ele>123.4</ele>
        <time>2022-06-12T13:25:41Z</time>
      </trkpt>
      <trkpt lat="48.25656" lon="-3.4635">
        <ele>123.4</ele>
        <time>2022-06-12T13:25:42Z</time>
      </trkpt>
      <trkpt lat="48.25656" lon="-3.46349">
        <ele>123.4</ele>
        <time>2022-06-12T13:25:43Z</time>
      </trkpt>
      <trkpt lat="48.25655" lon="-3.46348">
        <ele>123.4</ele>
        <time>2022-06-12T13:25:44Z</time>
      </trkpt>
      <trkpt lat="48.25655" lon="-3.46347">
        <ele>123.5</ele>
        <time>2022-06-12T13:25:45Z</time>
      </trkpt>
      <trkpt lat="48.25654" lon="-3.46345">
        <ele>123.5</ele>
        <time>2022-06-12T13:25:47Z</time>
      </trkpt>
      <trkpt lat="48.25654" lon="-3.46344">
        <ele>123.5</ele>
        <time>2022-06-12T13:25:48Z</time>
      </trkpt>
      <trkpt lat="48.25653" lon="-3.46342">
        <ele>123.5</ele>
        <time>2022-06-12T13:25:49Z</time>
      </trkpt>
      <trkpt lat="48.25653" lon="-3.46341">
        <ele>123.5</ele>
        <time>2022-06-12T13:25:50Z</time>
      </trkpt>
      <trkpt lat="48.25652" lon="-3.46339">
        <ele>123.5</ele>
        <time>2022-06-12T13:25:51Z</time>
      </trkpt>
      <trkpt lat="48.25651" lon="-3.46338">
        <ele>123.5</ele>
        <time>2022-06-12T13:25:52Z</time>
      </trkpt>
      <trkpt lat="48.25651" lon="-3.46337">
        <ele>123.5</ele>
        <time>2022-06-12T13:25:53Z</time>
      </trkpt>
      <trkpt lat="48.25651" lon="-3.46336">
        <ele>123.5</ele>
        <time>2022-06-12T13:25:54Z</time>
      </trkpt>
      <trkpt lat="48.2565" lon="-3.46334">
        <ele>123.5</ele>
        <time>2022-06-12T13:25:55Z</time>
      </trkpt>
      <trkpt lat="48.25649" lon="-3.46332">
        <ele>123.5</ele>
        <time>2022-06-12T13:25:56Z</time>
      </trkpt>
      <trkpt lat="48.25648" lon="-3.46331">
        <ele>123.5</ele>
        <time>2022-06-12T13:25:57Z</time>
      </trkpt>
      <trkpt lat="48.25648" lon="-3.4633">
        <ele>123.5</ele>
        <time>2022-06-12T13:25:59Z</time>
      </trkpt>
      <trkpt lat="48.25647" lon="-3.46328">
        <ele>123.5</ele>
        <time>2022-06-12T13:26:00Z</time>
      </trkpt>
      <trkpt lat="48.25646" lon="-3.46327">
        <ele>123.5</ele>
        <time>2022-06-12T13:26:01Z</time>
      </trkpt>
      <trkpt lat="48.25645" lon="-3.46326">
        <ele>123.5</ele>
        <time>2022-06-12T13:26:02Z</time>
      </trkpt>
      <trkpt lat="48.25645" lon="-3.46325">
        <ele>123.5</ele>
        <time>2022-06-12T13:26:03Z</time>
      </trkpt>
      <trkpt lat="48.25644" lon="-3.46323">
        <ele>123.5</ele>
        <time>2022-06-12T13:26:04Z</time>
      </trkpt>
      <trkpt lat="48.25643" lon="-3.46322">
        <ele>123.6</ele>
        <time>2022-06-12T13:26:05Z</time>
      </trkpt>
      <trkpt lat="48.25642" lon="-3.46321">
        <ele>123.6</ele>
        <time>2022-06-12T13:26:06Z</time>
      </trkpt>
      <trkpt lat="48.25641" lon="-3.46319">
        <ele>123.6</ele>
        <time>2022-06-12T13:26:08Z</time>
      </trkpt>
      <trkpt lat="48.2564" lon="-3.46318">
        <ele>123.6</ele>
        <time>2022-06-12T13:26:09Z</time>
      </trkpt>
      <trkpt lat="48.2564" lon="-3.46317">
        <ele>123.6</ele>
        <time>2022-06-12T13:26:10Z</time>
      </trkpt>
      <trkpt lat="48.25638" lon="-3.46315">
        <ele>123.6</ele>
        <time>2022-06-12T13:26:12Z</time>
      </trkpt>
      <trkpt lat="48.25637" lon="-3.46314">
        <ele>123.6</ele>
        <time>2022-06-12T13:26:13Z</time>
      </trkpt>
      <trkpt lat="48.25636" lon="-3.46313">
        <ele>123.6</ele>
        <time>2022-06-12T13:26:14Z</time>
      </trkpt>
      <trkpt lat="48.25635" lon="-3.46312">
        <ele>123.6</ele>
        <time>2022-06-12T13:26:15Z</time>
      </trkpt>
      <trkpt lat="48.25634" lon="-3.46311">
        <ele>123.6</ele>
        <time>2022-06-12T13:26:16Z</time>
      </trkpt>
      <trkpt lat="48.25633" lon="-3.4631">
        <ele>123.6</ele>
        <time>2022-06-12T13:26:17Z</time>
      </trkpt>
      <trkpt lat="48.25632" lon="-3.4631">
        <ele>123.6</ele>
        <time>2022-06-12T13:26:19Z</time>
      </trkpt>
      <trkpt lat="48.2563" lon="-3.46308">
        <ele>123.7</ele>
        <time>2022-06-12T13:26:20Z</time>
      </trkpt>
      <trkpt lat="48.25629" lon="-3.46308">
        <ele>123.7</ele>
        <time>2022-06-12T13:26:21Z</time>
      </trkpt>
      <trkpt lat="48.25628" lon="-3.46307">
        <ele>123.7</ele>
        <time>2022-06-12T13:26:22Z</time>
      </trkpt>
      <trkpt lat="48.25627" lon="-3.46306">
        <ele>123.7</ele>
        <time>2022-06-12T13:26:23Z</time>
      </trkpt>
      <trkpt lat="48.25626" lon="-3.46306">
        <ele>123.7</ele>
        <time>2022-06-12T13:26:24Z</time>
      </trkpt>
      <trkpt lat="48.25625" lon="-3.46305">
        <ele>123.7</ele>
        <time>2022-06-12T13:26:25Z</time>
      </trkpt>
      <trkpt lat="48.25622" lon="-3.46303">
        <ele>123.7</ele>
        <time>2022-06-12T13:26:26Z</time>
      </trkpt>
      <trkpt lat="48.25622" lon="-3.46303">
        <ele>123.7</ele>
        <time>2022-06-12T13:26:27Z</time>
      </trkpt>
      <trkpt lat="48.25621" lon="-3.46303">
        <ele>123.7</ele>
        <time>2022-06-12T13:26:28Z</time>
      </trkpt>
      <trkpt lat="48.25619" lon="-3.46301">
        <ele>123.8</ele>
        <time>2022-06-12T13:26:30Z</time>
      </trkpt>
      <trkpt lat="48.25618" lon="-3.463">
        <ele>123.8</ele>
        <time>2022-06-12T13:26:31Z</time>
      </trkpt>
      <trkpt lat="48.25617" lon="-3.463">
        <ele>123.8</ele>
        <time>2022-06-12T13:26:32Z</time>
      </trkpt>
      <trkpt lat="48.25616" lon="-3.46299">
        <ele>123.8</ele>
        <time>2022-06-12T13:26:34Z</time>
      </trkpt>
      <trkpt lat="48.25615" lon="-3.46298">
        <ele>123.8</ele>
        <time>2022-06-12T13:26:35Z</time>
      </trkpt>
      <trkpt lat="48.25613" lon="-3.46296">
        <ele>123.8</ele>
        <time>2022-06-12T13:26:37Z</time>
      </trkpt>
      <trkpt lat="48.25612" lon="-3.46295">
        <ele>123.8</ele>
        <time>2022-06-12T13:26:38Z</time>
      </trkpt>
      <trkpt lat="48.2561" lon="-3.46294">
        <ele>123.8</ele>
        <time>2022-06-12T13:26:39Z</time>
      </trkpt>
      <trkpt lat="48.25609" lon="-3.46294">
        <ele>123.8</ele>
        <time>2022-06-12T13:26:40Z</time>
      </trkpt>
      <trkpt lat="48.25607" lon="-3.46293">
        <ele>123.8</ele>
        <time>2022-06-12T13:26:42Z</time>
      </trkpt>
      <trkpt lat="48.25606" lon="-3.46292">
        <ele>123.8</ele>
        <time>2022-06-12T13:26:43Z</time>
      </trkpt>
      <trkpt lat="48.25606" lon="-3.46291">
        <ele>123.8</ele>
        <time>2022-06-12T13:26:44Z</time>
      </trkpt>
      <trkpt lat="48.25605" lon="-3.4629">
        <ele>123.8</ele>
        <time>2022-06-12T13:26:45Z</time>
      </trkpt>
      <trkpt lat="48.25604" lon="-3.46289">
        <ele>123.8</ele>
        <time>2022-06-12T13:26:47Z</time>
      </trkpt>
      <trkpt lat="48.25602" lon="-3.46288">
        <ele>123.8</ele>
        <time>2022-06-12T13:26:48Z</time>
      </trkpt>
      <trkpt lat="48.25601" lon="-3.46288">
        <ele>123.8</ele>
        <time>2022-06-12T13:26:49Z</time>
      </trkpt>
      <trkpt lat="48.256" lon="-3.46287">
        <ele>123.8</ele>
        <time>2022-06-12T13:26:50Z</time>
      </trkpt>
      <trkpt lat="48.25599" lon="-3.46288">
        <ele>123.8</ele>
        <time>2022-06-12T13:26:51Z</time>
      </trkpt>
      <trkpt lat="48.25598" lon="-3.46288">
        <ele>123.9</ele>
        <time>2022-06-12T13:26:52Z</time>
      </trkpt>
      <trkpt lat="48.25597" lon="-3.46288">
        <ele>123.9</ele>
        <time>2022-06-12T13:26:54Z</time>
      </trkpt>
      <trkpt lat="48.25597" lon="-3.46288">
        <ele>123.9</ele>
        <time>2022-06-12T13:26:55Z</time>
      </trkpt>
      <trkpt lat="48.25596" lon="-3.46288">
        <ele>123.9</ele>
        <time>2022-06-12T13:26:56Z</time>
      </trkpt>
      <trkpt lat="48.25595" lon="-3.46288">
        <ele>123.9</ele>
        <time>2022-06-12T13:26:57Z</time>
      </trkpt>
      <trkpt lat="48.25594" lon="-3.46288">
        <ele>123.9</ele>
        <time>2022-06-12T13:26:58Z</time>
      </trkpt>
      <trkpt lat="48.25594" lon="-3.46288">
        <ele>123.9</ele>
        <time>2022-06-12T13:26:59Z</time>
      </trkpt>
      <trkpt lat="48.25595" lon="-3.46287">
        <ele>123.9</ele>
        <time>2022-06-12T13:27:00Z</time>
      </trkpt>
      <trkpt lat="48.25594" lon="-3.46287">
        <ele>123.9</ele>
        <time>2022-06-12T13:27:02Z</time>
      </trkpt>
      <trkpt lat="48.25594" lon="-3.46286">
        <ele>123.9</ele>
        <time>2022-06-12T13:27:03Z</time>
      </trkpt>
      <trkpt lat="48.25595" lon="-3.46285">
        <ele>123.9</ele>
        <time>2022-06-12T13:27:04Z</time>
      </trkpt>
      <trkpt lat="48.25594" lon="-3.46284">
        <ele>123.9</ele>
        <time>2022-06-12T13:27:06Z</time>
      </trkpt>
      <trkpt lat="48.25593" lon="-3.46283">
        <ele>123.9</ele>
        <time>2022-06-12T13:27:07Z</time>
      </trkpt>
      <trkpt lat="48.25592" lon="-3.46283">
        <ele>123.9</ele>
        <time>2022-06-12T13:27:08Z</time>
      </trkpt>
      <trkpt lat="48.25591" lon="-3.46283">
        <ele>123.9</ele>
        <time>2022-06-12T13:27:09Z</time>
      </trkpt>
      <trkpt lat="48.2559" lon="-3.46282">
        <ele>123.9</ele>
        <time>2022-06-12T13:27:10Z</time>
      </trkpt>
      <trkpt lat="48.25587" lon="-3.46281">
        <ele>124</ele>
        <time>2022-06-12T13:27:12Z</time>
      </trkpt>
      <trkpt lat="48.25587" lon="-3.46281">
        <ele>124</ele>
        <time>2022-06-12T13:27:13Z</time>
      </trkpt>
      <trkpt lat="48.25586" lon="-3.4628">
        <ele>124</ele>
        <time>2022-06-12T13:27:14Z</time>
      </trkpt>
      <trkpt lat="48.25585" lon="-3.4628">
        <ele>124</ele>
        <time>2022-06-12T13:27:15Z</time>
      </trkpt>
      <trkpt lat="48.25584" lon="-3.46279">
        <ele>124</ele>
        <time>2022-06-12T13:27:16Z</time>
      </trkpt>
      <trkpt lat="48.25583" lon="-3.46278">
        <ele>124</ele>
        <time>2022-06-12T13:27:17Z</time>
      </trkpt>
      <trkpt lat="48.25582" lon="-3.46277">
        <ele>124</ele>
        <time>2022-06-12T13:27:18Z</time>
      </trkpt>
      <trkpt lat="48.25581" lon="-3.46277">
        <ele>124</ele>
        <time>2022-06-12T13:27:20Z</time>
      </trkpt>
      <trkpt lat="48.2558" lon="-3.46276">
        <ele>124</ele>
        <time>2022-06-12T13:27:21Z</time>
      </trkpt>
      <trkpt lat="48.2558" lon="-3.46275">
        <ele>124.1</ele>
        <time>2022-06-12T13:27:22Z</time>
      </trkpt>
      <trkpt lat="48.2558" lon="-3.46274">
        <ele>124.1</ele>
        <time>2022-06-12T13:27:23Z</time>
      </trkpt>
      <trkpt lat="48.25579" lon="-3.46274">
        <ele>124.1</ele>
        <time>2022-06-12T13:27:24Z</time>
      </trkpt>
      <trkpt lat="48.25578" lon="-3.46273">
        <ele>124.1</ele>
        <time>2022-06-12T13:27:25Z</time>
      </trkpt>
      <trkpt lat="48.25577" lon="-3.46272">
        <ele>124.1</ele>
        <time>2022-06-12T13:27:26Z</time>
      </trkpt>
      <trkpt lat="48.25574" lon="-3.46271">
        <ele>124.1</ele>
        <time>2022-06-12T13:27:28Z</time>
      </trkpt>
      <trkpt lat="48.25573" lon="-3.46272">
        <ele>124.1</ele>
        <time>2022-06-12T13:27:29Z</time>
      </trkpt>
      <trkpt lat="48.25571" lon="-3.46272">
        <ele>124.2</ele>
        <time>2022-06-12T13:27:30Z</time>
      </trkpt>
      <trkpt lat="48.25569" lon="-3.46272">
        <ele>124.2</ele>
        <time>2022-06-12T13:27:31Z</time>
      </trkpt>
      <trkpt lat="48.25567" lon="-3.46272">
        <ele>124.2</ele>
        <time>2022-06-12T13:27:32Z</time>
      </trkpt>
      <trkpt lat="48.25566" lon="-3.46272">
        <ele>124.2</ele>
        <time>2022-06-12T13:27:34Z</time>
      </trkpt>
      <trkpt lat="48.25565" lon="-3.46271">
        <ele>124.2</ele>
        <time>2022-06-12T13:27:35Z</time>
      </trkpt>
      <trkpt lat="48.25563" lon="-3.4627">
        <ele>124.2</ele>
        <time>2022-06-12T13:27:36Z</time>
      </trkpt>
      <trkpt lat="48.25561" lon="-3.46269">
        <ele>124.3</ele>
        <time>2022-06-12T13:27:38Z</time>
      </trkpt>
      <trkpt lat="48.2556" lon="-3.46267">
        <ele>124.3</ele>
        <time>2022-06-12T13:27:39Z</time>
      </trkpt>
      <trkpt lat="48.25559" lon="-3.46266">
        <ele>124.3</ele>
        <time>2022-06-12T13:27:40Z</time>
      </trkpt>
      <trkpt lat="48.25559" lon="-3.46265">
        <ele>124.3</ele>
        <time>2022-06-12T13:27:41Z</time>
      </trkpt>
      <trkpt lat="48.25557" lon="-3.46263">
        <ele>124.4</ele>
        <time>2022-06-12T13:27:42Z</time>
      </trkpt>
      <trkpt lat="48.25556" lon="-3.46262">
        <ele>124.4</ele>
        <time>2022-06-12T13:27:44Z</time>
      </trkpt>
      <trkpt lat="48.25555" lon="-3.46261">
        <ele>124.4</ele>
        <time>2022-06-12T13:27:45Z</time>
      </trkpt>
      <trkpt lat="48.25554" lon="-3.4626">
        <ele>124.4</ele>
        <time>2022-06-12T13:27:46Z</time>
      </trkpt>
      <trkpt lat="48.25553" lon="-3.46259">
        <ele>124.4</ele>
        <time>2022-06-12T13:27:47Z</time>
      </trkpt>
      <trkpt lat="48.25552" lon="-3.46256">
        <ele>124.5</ele>
        <time>2022-06-12T13:27:48Z</time>
      </trkpt>
      <trkpt lat="48.25551" lon="-3.46255">
        <ele>124.5</ele>
        <time>2022-06-12T13:27:49Z</time>
      </trkpt>
      <trkpt lat="48.25551" lon="-3.46254">
        <ele>124.5</ele>
        <time>2022-06-12T13:27:50Z</time>
      </trkpt>
      <trkpt lat="48.2555" lon="-3.46253">
        <ele>124.5</ele>
        <time>2022-06-12T13:27:51Z</time>
      </trkpt>
      <trkpt lat="48.25548" lon="-3.46251">
        <ele>124.5</ele>
        <time>2022-06-12T13:27:52Z</time>
      </trkpt>
      <trkpt lat="48.25548" lon="-3.46251">
        <ele>124.5</ele>
        <time>2022-06-12T13:27:54Z</time>
      </trkpt>
      <trkpt lat="48.25547" lon="-3.4625">
        <ele>124.5</ele>
        <time>2022-06-12T13:27:55Z</time>
      </trkpt>
      <trkpt lat="48.25546" lon="-3.46249">
        <ele>124.6</ele>
        <time>2022-06-12T13:27:56Z</time>
      </trkpt>
      <trkpt lat="48.25544" lon="-3.46248">
        <ele>124.6</ele>
        <time>2022-06-12T13:27:57Z</time>
      </trkpt>
      <trkpt lat="48.25543" lon="-3.46248">
        <ele>124.6</ele>
        <time>2022-06-12T13:27:58Z</time>
      </trkpt>
      <trkpt lat="48.25542" lon="-3.46247">
        <ele>124.6</ele>
        <time>2022-06-12T13:27:59Z</time>
      </trkpt>
      <trkpt lat="48.25541" lon="-3.46246">
        <ele>124.6</ele>
        <time>2022-06-12T13:28:00Z</time>
      </trkpt>
      <trkpt lat="48.2554" lon="-3.46246">
        <ele>124.7</ele>
        <time>2022-06-12T13:28:01Z</time>
      </trkpt>
      <trkpt lat="48.25538" lon="-3.46245">
        <ele>124.7</ele>
        <time>2022-06-12T13:28:02Z</time>
      </trkpt>
      <trkpt lat="48.25537" lon="-3.46244">
        <ele>124.7</ele>
        <time>2022-06-12T13:28:03Z</time>
      </trkpt>
      <trkpt lat="48.25537" lon="-3.46244">
        <ele>124.7</ele>
        <time>2022-06-12T13:28:05Z</time>
      </trkpt>
      <trkpt lat="48.25536" lon="-3.46244">
        <ele>124.7</ele>
        <time>2022-06-12T13:28:06Z</time>
      </trkpt>
      <trkpt lat="48.25535" lon="-3.46244">
        <ele>124.7</ele>
        <time>2022-06-12T13:28:07Z</time>
      </trkpt>
      <trkpt lat="48.25534" lon="-3.46243">
        <ele>124.7</ele>
        <time>2022-06-12T13:28:08Z</time>
      </trkpt>
      <trkpt lat="48.25533" lon="-3.46243">
        <ele>124.8</ele>
        <time>2022-06-12T13:28:09Z</time>
      </trkpt>
      <trkpt lat="48.25532" lon="-3.46242">
        <ele>124.8</ele>
        <time>2022-06-12T13:28:10Z</time>
      </trkpt>
      <trkpt lat="48.25531" lon="-3.46242">
        <ele>124.8</ele>
        <time>2022-06-12T13:28:11Z</time>
      </trkpt>
      <trkpt lat="48.25529" lon="-3.46241">
        <ele>124.8</ele>
        <time>2022-06-12T13:28:12Z</time>
      </trkpt>
      <trkpt lat="48.25528" lon="-3.46241">
        <ele>124.8</ele>
        <time>2022-06-12T13:28:13Z</time>
      </trkpt>
      <trkpt lat="48.25527" lon="-3.4624">
        <ele>124.8</ele>
        <time>2022-06-12T13:28:15Z</time>
      </trkpt>
      <trkpt lat="48.25526" lon="-3.4624">
        <ele>124.9</ele>
        <time>2022-06-12T13:28:16Z</time>
      </trkpt>
      <trkpt lat="48.25525" lon="-3.46239">
        <ele>124.9</ele>
        <time>2022-06-12T13:28:17Z</time>
      </trkpt>
      <trkpt lat="48.25523" lon="-3.46238">
        <ele>124.9</ele>
        <time>2022-06-12T13:28:18Z</time>
      </trkpt>
      <trkpt lat="48.25522" lon="-3.46238">
        <ele>124.9</ele>
        <time>2022-06-12T13:28:19Z</time>
      </trkpt>
      <trkpt lat="48.2552" lon="-3.46236">
        <ele>124.9</ele>
        <time>2022-06-12T13:28:20Z</time>
      </trkpt>
      <trkpt lat="48.25519" lon="-3.46236">
        <ele>124.9</ele>
        <time>2022-06-12T13:28:21Z</time>
      </trkpt>
      <trkpt lat="48.25518" lon="-3.46235">
        <ele>125</ele>
        <time>2022-06-12T13:28:22Z</time>
      </trkpt>
      <trkpt lat="48.25517" lon="-3.46235">
        <ele>125</ele>
        <time>2022-06-12T13:28:23Z</time>
      </trkpt>
      <trkpt lat="48.25516" lon="-3.46234">
        <ele>125</ele>
        <time>2022-06-12T13:28:25Z</time>
      </trkpt>
      <trkpt lat="48.25515" lon="-3.46234">
        <ele>125</ele>
        <time>2022-06-12T13:28:26Z</time>
      </trkpt>
      <trkpt lat="48.25513" lon="-3.46233">
        <ele>125</ele>
        <time>2022-06-12T13:28:27Z</time>
      </trkpt>
      <trkpt lat="48.25512" lon="-3.46233">
        <ele>125</ele>
        <time>2022-06-12T13:28:28Z</time>
      </trkpt>
      <trkpt lat="48.25511" lon="-3.46233">
        <ele>125</ele>
        <time>2022-06-12T13:28:30Z</time>
      </trkpt>
      <trkpt lat="48.2551" lon="-3.46233">
        <ele>125</ele>
        <time>2022-06-12T13:28:31Z</time>
      </trkpt>
      <trkpt lat="48.25508" lon="-3.46233">
        <ele>125.1</ele>
        <time>2022-06-12T13:28:33Z</time>
      </trkpt>
      <trkpt lat="48.25507" lon="-3.46233">
        <ele>125.1</ele>
        <time>2022-06-12T13:28:34Z</time>
      </trkpt>
      <trkpt lat="48.25507" lon="-3.46232">
        <ele>125.1</ele>
        <time>2022-06-12T13:28:35Z</time>
      </trkpt>
      <trkpt lat="48.25508" lon="-3.46232">
        <ele>125.1</ele>
        <time>2022-06-12T13:28:36Z</time>
      </trkpt>
      <trkpt lat="48.2551" lon="-3.46231">
        <ele>125.1</ele>
        <time>2022-06-12T13:28:37Z</time>
      </trkpt>
      <trkpt lat="48.25511" lon="-3.46231">
        <ele>125.1</ele>
        <time>2022-06-12T13:28:38Z</time>
      </trkpt>
      <trkpt lat="48.25511" lon="-3.46231">
        <ele>125.1</ele>
        <time>2022-06-12T13:28:39Z</time>
      </trkpt>
      <trkpt lat="48.25512" lon="-3.46231">
        <ele>125.1</ele>
        <time>2022-06-12T13:28:40Z</time>
      </trkpt>
      <trkpt lat="48.25512" lon="-3.46231">
        <ele>125.1</ele>
        <time>2022-06-12T13:28:41Z</time>
      </trkpt>
      <trkpt lat="48.25513" lon="-3.46231">
        <ele>125.1</ele>
        <time>2022-06-12T13:28:42Z</time>
      </trkpt>
      <trkpt lat="48.25513" lon="-3.46232">
        <ele>125.1</ele>
        <time>2022-06-12T13:28:44Z</time>
      </trkpt>
      <trkpt lat="48.25513" lon="-3.46232">
        <ele>125.1</ele>
        <time>2022-06-12T13:28:45Z</time>
      </trkpt>
      <trkpt lat="48.25513" lon="-3.46232">
        <ele>125.1</ele>
        <time>2022-06-12T13:28:46Z</time>
      </trkpt>
      <trkpt lat="48.25513" lon="-3.46232">
        <ele>125.1</ele>
        <time>2022-06-12T13:28:48Z</time>
      </trkpt>
      <trkpt lat="48.25513" lon="-3.46232">
        <ele>125.1</ele>
        <time>2022-06-12T13:28:49Z</time>
      </trkpt>
      <trkpt lat="48.25513" lon="-3.46232">
        <ele>125.1</ele>
        <time>2022-06-12T13:28:50Z</time>
      </trkpt>
      <trkpt lat="48.25513" lon="-3.46233">
        <ele>125.1</ele>
        <time>2022-06-12T13:28:51Z</time>
      </trkpt>
      <trkpt lat="48.25513" lon="-3.46233">
        <ele>125.1</ele>
        <time>2022-06-12T13:28:53Z</time>
      </trkpt>
      <trkpt lat="48.25513" lon="-3.46233">
        <ele>125.1</ele>
        <time>2022-06-12T13:28:54Z</time>
      </trkpt>
      <trkpt lat="48.25513" lon="-3.46233">
        <ele>125.1</ele>
        <time>2022-06-12T13:28:55Z</time>
      </trkpt>
      <trkpt lat="48.25513" lon="-3.46233">
        <ele>125.1</ele>
        <time>2022-06-12T13:28:56Z</time>
      </trkpt>
      <trkpt lat="48.25512" lon="-3.46233">
        <ele>125.1</ele>
        <time>2022-06-12T13:28:57Z</time>
      </trkpt>
      <trkpt lat="48.25512" lon="-3.46233">
        <ele>125.1</ele>
        <time>2022-06-12T13:28:58Z</time>
      </trkpt>
      <trkpt lat="48.25512" lon="-3.46234">
        <ele>125.1</ele>
        <time>2022-06-12T13:28:59Z</time>
      </trkpt>
      <trkpt lat="48.25512" lon="-3.46234">
        <ele>125.1</ele>
        <time>2022-06-12T13:29:00Z</time>
      </trkpt>
      <trkpt lat="48.25512" lon="-3.46234">
        <ele>125.1</ele>
        <time>2022-06-12T13:29:01Z</time>
      </trkpt>
      <trkpt lat="48.25512" lon="-3.46234">
        <ele>125.1</ele>
        <time>2022-06-12T13:29:02Z</time>
      </trkpt>
      <trkpt lat="48.25511" lon="-3.46234">
        <ele>125.1</ele>
        <time>2022-06-12T13:29:03Z</time>
      </trkpt>
      <trkpt lat="48.25511" lon="-3.46234">
        <ele>125.1</ele>
        <time>2022-06-12T13:29:04Z</time>
      </trkpt>
      <trkpt lat="48.25511" lon="-3.46234">
        <ele>125.1</ele>
        <time>2022-06-12T13:29:05Z</time>
      </trkpt>
      <trkpt lat="48.25511" lon="-3.46235">
        <ele>125.1</ele>
        <time>2022-06-12T13:29:06Z</time>
      </trkpt>
      <trkpt lat="48.25511" lon="-3.46235">
        <ele>125.1</ele>
        <time>2022-06-12T13:29:07Z</time>
      </trkpt>
      <trkpt lat="48.25511" lon="-3.46235">
        <ele>125.1</ele>
        <time>2022-06-12T13:29:08Z</time>
      </trkpt>
      <trkpt lat="48.25511" lon="-3.46235">
        <ele>125.1</ele>
        <time>2022-06-12T13:29:09Z</time>
      </trkpt>
      <trkpt lat="48.2551" lon="-3.46235">
        <ele>125.1</ele>
        <time>2022-06-12T13:29:10Z</time>
      </trkpt>
      <trkpt lat="48.2551" lon="-3.46235">
        <ele>125.1</ele>
        <time>2022-06-12T13:29:11Z</time>
      </trkpt>
      <trkpt lat="48.2551" lon="-3.46235">
        <ele>125.1</ele>
        <time>2022-06-12T13:29:12Z</time>
      </trkpt>
      <trkpt lat="48.2551" lon="-3.46236">
        <ele>125.1</ele>
        <time>2022-06-12T13:29:13Z</time>
      </trkpt>
      <trkpt lat="48.2551" lon="-3.46236">
        <ele>125.1</ele>
        <time>2022-06-12T13:29:14Z</time>
      </trkpt>
      <trkpt lat="48.2551" lon="-3.46236">
        <ele>125.1</ele>
        <time>2022-06-12T13:29:15Z</time>
      </trkpt>
      <trkpt lat="48.25509" lon="-3.46236">
        <ele>125.1</ele>
        <time>2022-06-12T13:29:16Z</time>
      </trkpt>
      <trkpt lat="48.25509" lon="-3.46236">
        <ele>125.1</ele>
        <time>2022-06-12T13:29:17Z</time>
      </trkpt>
      <trkpt lat="48.25509" lon="-3.46236">
        <ele>125.1</ele>
        <time>2022-06-12T13:29:18Z</time>
      </trkpt>
      <trkpt lat="48.25509" lon="-3.46236">
        <ele>125.1</ele>
        <time>2022-06-12T13:29:19Z</time>
      </trkpt>
      <trkpt lat="48.25509" lon="-3.46235">
        <ele>125.1</ele>
        <time>2022-06-12T13:29:20Z</time>
      </trkpt>
      <trkpt lat="48.25508" lon="-3.46235">
        <ele>125.1</ele>
        <time>2022-06-12T13:29:21Z</time>
      </trkpt>
      <trkpt lat="48.25508" lon="-3.46234">
        <ele>125.1</ele>
        <time>2022-06-12T13:29:22Z</time>
      </trkpt>
      <trkpt lat="48.25508" lon="-3.46234">
        <ele>125.1</ele>
        <time>2022-06-12T13:29:23Z</time>
      </trkpt>
      <trkpt lat="48.25507" lon="-3.46235">
        <ele>125.1</ele>
        <time>2022-06-12T13:29:24Z</time>
      </trkpt>
      <trkpt lat="48.25507" lon="-3.46236">
        <ele>125.1</ele>
        <time>2022-06-12T13:29:25Z</time>
      </trkpt>
      <trkpt lat="48.25507" lon="-3.46236">
        <ele>125.1</ele>
        <time>2022-06-12T13:29:26Z</time>
      </trkpt>
      <trkpt lat="48.25507" lon="-3.46236">
        <ele>125.1</ele>
        <time>2022-06-12T13:29:27Z</time>
      </trkpt>
      <trkpt lat="48.25507" lon="-3.46236">
        <ele>125.1</ele>
        <time>2022-06-12T13:29:28Z</time>
      </trkpt>
      <trkpt lat="48.25507" lon="-3.46236">
        <ele>125.1</ele>
        <time>2022-06-12T13:29:29Z</time>
      </trkpt>
      <trkpt lat="48.25507" lon="-3.46236">
        <ele>125.1</ele>
        <time>2022-06-12T13:29:30Z</time>
      </trkpt>
      <trkpt lat="48.25507" lon="-3.46236">
        <ele>125.1</ele>
        <time>2022-06-12T13:29:31Z</time>
      </trkpt>
      <trkpt lat="48.25507" lon="-3.46236">
        <ele>125.1</ele>
        <time>2022-06-12T13:29:32Z</time>
      </trkpt>
      <trkpt lat="48.25507" lon="-3.46236">
        <ele>125.1</ele>
        <time>2022-06-12T13:29:33Z</time>
      </trkpt>
      <trkpt lat="48.25507" lon="-3.46236">
        <ele>125.1</ele>
        <time>2022-06-12T13:29:34Z</time>
      </trkpt>
      <trkpt lat="48.25507" lon="-3.46236">
        <ele>125.1</ele>
        <time>2022-06-12T13:29:35Z</time>
      </trkpt>
      <trkpt lat="48.25507" lon="-3.46236">
        <ele>125.1</ele>
        <time>2022-06-12T13:29:36Z</time>
      </trkpt>
      <trkpt lat="48.25507" lon="-3.46236">
        <ele>125.1</ele>
        <time>2022-06-12T13:29:37Z</time>
      </trkpt>
      <trkpt lat="48.25507" lon="-3.46236">
        <ele>125.1</ele>
        <time>2022-06-12T13:29:38Z</time>
      </trkpt>
      <trkpt lat="48.25507" lon="-3.46236">
        <ele>125.1</ele>
        <time>2022-06-12T13:29:39Z</time>
      </trkpt>
      <trkpt lat="48.25507" lon="-3.46236">
        <ele>125.1</ele>
        <time>2022-06-12T13:29:40Z</time>
      </trkpt>
      <trkpt lat="48.25507" lon="-3.46236">
        <ele>125.1</ele>
        <time>2022-06-12T13:29:41Z</time>
      </trkpt>
      <trkpt lat="48.25507" lon="-3.46236">
        <ele>125.1</ele>
        <time>2022-06-12T13:29:42Z</time>
      </trkpt>
      <trkpt lat="48.25507" lon="-3.46236">
        <ele>125.1</ele>
        <time>2022-06-12T13:29:43Z</time>
      </trkpt>
      <trkpt lat="48.25507" lon="-3.46238">
        <ele>125.1</ele>
        <time>2022-06-12T13:29:44Z</time>
      </trkpt>
      <trkpt lat="48.25506" lon="-3.46239">
        <ele>125.1</ele>
        <time>2022-06-12T13:29:45Z</time>
      </trkpt>
      <trkpt lat="48.25506" lon="-3.4624">
        <ele>125.1</ele>
        <time>2022-06-12T13:29:46Z</time>
      </trkpt>
      <trkpt lat="48.25506" lon="-3.4624">
        <ele>125.1</ele>
        <time>2022-06-12T13:29:47Z</time>
      </trkpt>
      <trkpt lat="48.25504" lon="-3.46239">
        <ele>125.1</ele>
        <time>2022-06-12T13:29:48Z</time>
      </trkpt>
      <trkpt lat="48.25503" lon="-3.46239">
        <ele>125.1</ele>
        <time>2022-06-12T13:29:49Z</time>
      </trkpt>
      <trkpt lat="48.25502" lon="-3.46237">
        <ele>125.1</ele>
        <time>2022-06-12T13:29:50Z</time>
      </trkpt>
      <trkpt lat="48.25501" lon="-3.46235">
        <ele>125</ele>
        <time>2022-06-12T13:29:52Z</time>
      </trkpt>
      <trkpt lat="48.255" lon="-3.46234">
        <ele>125</ele>
        <time>2022-06-12T13:29:53Z</time>
      </trkpt>
      <trkpt lat="48.25499" lon="-3.46233">
        <ele>125</ele>
        <time>2022-06-12T13:29:54Z</time>
      </trkpt>
      <trkpt lat="48.25498" lon="-3.46232">
        <ele>125</ele>
        <time>2022-06-12T13:29:56Z</time>
      </trkpt>
      <trkpt lat="48.25497" lon="-3.46231">
        <ele>125</ele>
        <time>2022-06-12T13:29:57Z</time>
      </trkpt>
      <trkpt lat="48.25496" lon="-3.46229">
        <ele>125</ele>
        <time>2022-06-12T13:29:58Z</time>
      </trkpt>
      <trkpt lat="48.25495" lon="-3.46229">
        <ele>125</ele>
        <time>2022-06-12T13:29:59Z</time>
      </trkpt>
      <trkpt lat="48.25494" lon="-3.46228">
        <ele>125</ele>
        <time>2022-06-12T13:30:00Z</time>
      </trkpt>
      <trkpt lat="48.25493" lon="-3.46228">
        <ele>125</ele>
        <time>2022-06-12T13:30:01Z</time>
      </trkpt>
      <trkpt lat="48.25492" lon="-3.46227">
        <ele>125</ele>
        <time>2022-06-12T13:30:02Z</time>
      </trkpt>
      <trkpt lat="48.2549" lon="-3.46227">
        <ele>125</ele>
        <time>2022-06-12T13:30:03Z</time>
      </trkpt>
      <trkpt lat="48.25489" lon="-3.46226">
        <ele>125</ele>
        <time>2022-06-12T13:30:05Z</time>
      </trkpt>
      <trkpt lat="48.25488" lon="-3.46225">
        <ele>125</ele>
        <time>2022-06-12T13:30:06Z</time>
      </trkpt>
      <trkpt lat="48.25486" lon="-3.46223">
        <ele>125</ele>
        <time>2022-06-12T13:30:07Z</time>
      </trkpt>
      <trkpt lat="48.25485" lon="-3.46222">
        <ele>125</ele>
        <time>2022-06-12T13:30:08Z</time>
      </trkpt>
      <trkpt lat="48.25484" lon="-3.46221">
        <ele>125</ele>
        <time>2022-06-12T13:30:09Z</time>
      </trkpt>
      <trkpt lat="48.25482" lon="-3.46219">
        <ele>125</ele>
        <time>2022-06-12T13:30:11Z</time>
      </trkpt>
      <trkpt lat="48.25481" lon="-3.46218">
        <ele>124.9</ele>
        <time>2022-06-12T13:30:12Z</time>
      </trkpt>
      <trkpt lat="48.2548" lon="-3.46216">
        <ele>124.9</ele>
        <time>2022-06-12T13:30:13Z</time>
      </trkpt>
      <trkpt lat="48.25479" lon="-3.46214">
        <ele>124.9</ele>
        <time>2022-06-12T13:30:14Z</time>
      </trkpt>
      <trkpt lat="48.25479" lon="-3.46213">
        <ele>124.9</ele>
        <time>2022-06-12T13:30:15Z</time>
      </trkpt>
      <trkpt lat="48.25478" lon="-3.46212">
        <ele>124.9</ele>
        <time>2022-06-12T13:30:16Z</time>
      </trkpt>
      <trkpt lat="48.25477" lon="-3.46211">
        <ele>124.9</ele>
        <time>2022-06-12T13:30:18Z</time>
      </trkpt>
      <trkpt lat="48.25476" lon="-3.4621">
        <ele>124.9</ele>
        <time>2022-06-12T13:30:19Z</time>
      </trkpt>
      <trkpt lat="48.25475" lon="-3.46209">
        <ele>124.9</ele>
        <time>2022-06-12T13:30:20Z</time>
      </trkpt>
      <trkpt lat="48.25474" lon="-3.46208">
        <ele>124.9</ele>
        <time>2022-06-12T13:30:21Z</time>
      </trkpt>
      <trkpt lat="48.25472" lon="-3.46206">
        <ele>124.9</ele>
        <time>2022-06-12T13:30:22Z</time>
      </trkpt>
      <trkpt lat="48.25471" lon="-3.46206">
        <ele>124.9</ele>
        <time>2022-06-12T13:30:23Z</time>
      </trkpt>
      <trkpt lat="48.2547" lon="-3.46205">
        <ele>124.9</ele>
        <time>2022-06-12T13:30:24Z</time>
      </trkpt>
      <trkpt lat="48.25468" lon="-3.46203">
        <ele>124.9</ele>
        <time>2022-06-12T13:30:25Z</time>
      </trkpt>
      <trkpt lat="48.25468" lon="-3.46203">
        <ele>124.9</ele>
        <time>2022-06-12T13:30:26Z</time>
      </trkpt>
      <trkpt lat="48.25467" lon="-3.46203">
        <ele>124.9</ele>
        <time>2022-06-12T13:30:27Z</time>
      </trkpt>
      <trkpt lat="48.25464" lon="-3.46201">
        <ele>124.9</ele>
        <time>2022-06-12T13:30:28Z</time>
      </trkpt>
      <trkpt lat="48.25463" lon="-3.462">
        <ele>124.9</ele>
        <time>2022-06-12T13:30:29Z</time>
      </trkpt>
      <trkpt lat="48.25461" lon="-3.46199">
        <ele>124.9</ele>
        <time>2022-06-12T13:30:31Z</time>
      </trkpt>
      <trkpt lat="48.25461" lon="-3.46199">
        <ele>124.9</ele>
        <time>2022-06-12T13:30:32Z</time>
      </trkpt>
      <trkpt lat="48.2546" lon="-3.46198">
        <ele>124.9</ele>
        <time>2022-06-12T13:30:33Z</time>
      </trkpt>
      <trkpt lat="48.25457" lon="-3.46196">
        <ele>124.9</ele>
        <time>2022-06-12T13:30:35Z</time>
      </trkpt>
      <trkpt lat="48.25456" lon="-3.46195">
        <ele>124.9</ele>
        <time>2022-06-12T13:30:36Z</time>
      </trkpt>
      <trkpt lat="48.25455" lon="-3.46193">
        <ele>125</ele>
        <time>2022-06-12T13:30:37Z</time>
      </trkpt>
      <trkpt lat="48.25454" lon="-3.46191">
        <ele>125</ele>
        <time>2022-06-12T13:30:38Z</time>
      </trkpt>
      <trkpt lat="48.25452" lon="-3.4619">
        <ele>125</ele>
        <time>2022-06-12T13:30:39Z</time>
      </trkpt>
      <trkpt lat="48.25449" lon="-3.46186">
        <ele>125</ele>
        <time>2022-06-12T13:30:40Z</time>
      </trkpt>
      <trkpt lat="48.25448" lon="-3.46185">
        <ele>125</ele>
        <time>2022-06-12T13:30:41Z</time>
      </trkpt>
      <trkpt lat="48.25447" lon="-3.46185">
        <ele>125</ele>
        <time>2022-06-12T13:30:43Z</time>
      </trkpt>
      <trkpt lat="48.25446" lon="-3.46184">
        <ele>125.1</ele>
        <time>2022-06-12T13:30:44Z</time>
      </trkpt>
      <trkpt lat="48.25445" lon="-3.46183">
        <ele>125.1</ele>
        <time>2022-06-12T13:30:45Z</time>
      </trkpt>
      <trkpt lat="48.25445" lon="-3.46183">
        <ele>125.1</ele>
        <time>2022-06-12T13:30:46Z</time>
      </trkpt>
      <trkpt lat="48.25444" lon="-3.46183">
        <ele>125.1</ele>
        <time>2022-06-12T13:30:47Z</time>
      </trkpt>
      <trkpt lat="48.25443" lon="-3.46183">
        <ele>125.1</ele>
        <time>2022-06-12T13:30:48Z</time>
      </trkpt>
      <trkpt lat="48.2544" lon="-3.46181">
        <ele>125.2</ele>
        <time>2022-06-12T13:30:50Z</time>
      </trkpt>
      <trkpt lat="48.2544" lon="-3.46181">
        <ele>125.2</ele>
        <time>2022-06-12T13:30:51Z</time>
      </trkpt>
      <trkpt lat="48.25439" lon="-3.46181">
        <ele>125.2</ele>
        <time>2022-06-12T13:30:52Z</time>
      </trkpt>
      <trkpt lat="48.25438" lon="-3.4618">
        <ele>125.3</ele>
        <time>2022-06-12T13:30:53Z</time>
      </trkpt>
      <trkpt lat="48.25435" lon="-3.46179">
        <ele>125.3</ele>
        <time>2022-06-12T13:30:55Z</time>
      </trkpt>
      <trkpt lat="48.25434" lon="-3.46179">
        <ele>125.4</ele>
        <time>2022-06-12T13:30:56Z</time>
      </trkpt>
      <trkpt lat="48.25433" lon="-3.46179">
        <ele>125.4</ele>
        <time>2022-06-12T13:30:57Z</time>
      </trkpt>
      <trkpt lat="48.25432" lon="-3.46179">
        <ele>125.4</ele>
        <time>2022-06-12T13:30:59Z</time>
      </trkpt>
      <trkpt lat="48.2543" lon="-3.46178">
        <ele>125.5</ele>
        <time>2022-06-12T13:31:00Z</time>
      </trkpt>
      <trkpt lat="48.25429" lon="-3.46178">
        <ele>125.5</ele>
        <time>2022-06-12T13:31:01Z</time>
      </trkpt>
      <trkpt lat="48.25429" lon="-3.46178">
        <ele>125.6</ele>
        <time>2022-06-12T13:31:02Z</time>
      </trkpt>
      <trkpt lat="48.25427" lon="-3.46177">
        <ele>125.6</ele>
        <time>2022-06-12T13:31:03Z</time>
      </trkpt>
      <trkpt lat="48.25426" lon="-3.46177">
        <ele>125.7</ele>
        <time>2022-06-12T13:31:04Z</time>
      </trkpt>
      <trkpt lat="48.25425" lon="-3.46177">
        <ele>125.7</ele>
        <time>2022-06-12T13:31:05Z</time>
      </trkpt>
      <trkpt lat="48.25424" lon="-3.46177">
        <ele>125.7</ele>
        <time>2022-06-12T13:31:06Z</time>
      </trkpt>
      <trkpt lat="48.25423" lon="-3.46176">
        <ele>125.8</ele>
        <time>2022-06-12T13:31:07Z</time>
      </trkpt>
      <trkpt lat="48.25422" lon="-3.46176">
        <ele>125.8</ele>
        <time>2022-06-12T13:31:09Z</time>
      </trkpt>
      <trkpt lat="48.2542" lon="-3.46176">
        <ele>125.9</ele>
        <time>2022-06-12T13:31:10Z</time>
      </trkpt>
      <trkpt lat="48.25419" lon="-3.46176">
        <ele>125.9</ele>
        <time>2022-06-12T13:31:11Z</time>
      </trkpt>
      <trkpt lat="48.25419" lon="-3.46176">
        <ele>125.9</ele>
        <time>2022-06-12T13:31:12Z</time>
      </trkpt>
      <trkpt lat="48.25418" lon="-3.46175">
        <ele>126</ele>
        <time>2022-06-12T13:31:13Z</time>
      </trkpt>
      <trkpt lat="48.25417" lon="-3.46175">
        <ele>126</ele>
        <time>2022-06-12T13:31:14Z</time>
      </trkpt>
      <trkpt lat="48.25415" lon="-3.46175">
        <ele>126.1</ele>
        <time>2022-06-12T13:31:15Z</time>
      </trkpt>
      <trkpt lat="48.25415" lon="-3.46175">
        <ele>126.1</ele>
        <time>2022-06-12T13:31:16Z</time>
      </trkpt>
      <trkpt lat="48.25414" lon="-3.46174">
        <ele>126.1</ele>
        <time>2022-06-12T13:31:17Z</time>
      </trkpt>
      <trkpt lat="48.25413" lon="-3.46174">
        <ele>126.2</ele>
        <time>2022-06-12T13:31:18Z</time>
      </trkpt>
      <trkpt lat="48.25412" lon="-3.46174">
        <ele>126.2</ele>
        <time>2022-06-12T13:31:19Z</time>
      </trkpt>
      <trkpt lat="48.2541" lon="-3.46174">
        <ele>126.3</ele>
        <time>2022-06-12T13:31:21Z</time>
      </trkpt>
      <trkpt lat="48.2541" lon="-3.46174">
        <ele>126.3</ele>
        <time>2022-06-12T13:31:22Z</time>
      </trkpt>
      <trkpt lat="48.25409" lon="-3.46174">
        <ele>126.3</ele>
        <time>2022-06-12T13:31:23Z</time>
      </trkpt>
      <trkpt lat="48.25408" lon="-3.46174">
        <ele>126.3</ele>
        <time>2022-06-12T13:31:24Z</time>
      </trkpt>
      <trkpt lat="48.25406" lon="-3.46173">
        <ele>126.4</ele>
        <time>2022-06-12T13:31:25Z</time>
      </trkpt>
      <trkpt lat="48.25406" lon="-3.46173">
        <ele>126.4</ele>
        <time>2022-06-12T13:31:26Z</time>
      </trkpt>
      <trkpt lat="48.25405" lon="-3.46172">
        <ele>126.4</ele>
        <time>2022-06-12T13:31:27Z</time>
      </trkpt>
      <trkpt lat="48.25404" lon="-3.46172">
        <ele>126.4</ele>
        <time>2022-06-12T13:31:28Z</time>
      </trkpt>
      <trkpt lat="48.25403" lon="-3.46171">
        <ele>126.5</ele>
        <time>2022-06-12T13:31:30Z</time>
      </trkpt>
      <trkpt lat="48.25402" lon="-3.46171">
        <ele>126.5</ele>
        <time>2022-06-12T13:31:31Z</time>
      </trkpt>
      <trkpt lat="48.25401" lon="-3.4617">
        <ele>126.5</ele>
        <time>2022-06-12T13:31:32Z</time>
      </trkpt>
      <trkpt lat="48.254" lon="-3.4617">
        <ele>126.5</ele>
        <time>2022-06-12T13:31:33Z</time>
      </trkpt>
      <trkpt lat="48.254" lon="-3.46169">
        <ele>126.5</ele>
        <time>2022-06-12T13:31:34Z</time>
      </trkpt>
      <trkpt lat="48.25399" lon="-3.46168">
        <ele>126.5</ele>
        <time>2022-06-12T13:31:35Z</time>
      </trkpt>
      <trkpt lat="48.25398" lon="-3.46168">
        <ele>126.6</ele>
        <time>2022-06-12T13:31:36Z</time>
      </trkpt>
      <trkpt lat="48.25397" lon="-3.46167">
        <ele>126.6</ele>
        <time>2022-06-12T13:31:38Z</time>
      </trkpt>
      <trkpt lat="48.25397" lon="-3.46166">
        <ele>126.6</ele>
        <time>2022-06-12T13:31:39Z</time>
      </trkpt>
      <trkpt lat="48.25395" lon="-3.46165">
        <ele>126.6</ele>
        <time>2022-06-12T13:31:40Z</time>
      </trkpt>
      <trkpt lat="48.25395" lon="-3.46164">
        <ele>126.6</ele>
        <time>2022-06-12T13:31:41Z</time>
      </trkpt>
      <trkpt lat="48.25394" lon="-3.46163">
        <ele>126.6</ele>
        <time>2022-06-12T13:31:42Z</time>
      </trkpt>
      <trkpt lat="48.25394" lon="-3.46162">
        <ele>126.6</ele>
        <time>2022-06-12T13:31:43Z</time>
      </trkpt>
      <trkpt lat="48.25393" lon="-3.4616">
        <ele>126.6</ele>
        <time>2022-06-12T13:31:44Z</time>
      </trkpt>
      <trkpt lat="48.25392" lon="-3.46158">
        <ele>126.6</ele>
        <time>2022-06-12T13:31:46Z</time>
      </trkpt>
      <trkpt lat="48.25392" lon="-3.46157">
        <ele>126.6</ele>
        <time>2022-06-12T13:31:47Z</time>
      </trkpt>
      <trkpt lat="48.25391" lon="-3.46156">
        <ele>126.6</ele>
        <time>2022-06-12T13:31:48Z</time>
      </trkpt>
      <trkpt lat="48.2539" lon="-3.46155">
        <ele>126.6</ele>
        <time>2022-06-12T13:31:49Z</time>
      </trkpt>
      <trkpt lat="48.25389" lon="-3.46153">
        <ele>126.6</ele>
        <time>2022-06-12T13:31:50Z</time>
      </trkpt>
      <trkpt lat="48.25388" lon="-3.46152">
        <ele>126.6</ele>
        <time>2022-06-12T13:31:51Z</time>
      </trkpt>
      <trkpt lat="48.25387" lon="-3.46151">
        <ele>126.6</ele>
        <time>2022-06-12T13:31:52Z</time>
      </trkpt>
      <trkpt lat="48.25386" lon="-3.4615">
        <ele>126.6</ele>
        <time>2022-06-12T13:31:54Z</time>
      </trkpt>
      <trkpt lat="48.25385" lon="-3.46149">
        <ele>126.6</ele>
        <time>2022-06-12T13:31:55Z</time>
      </trkpt>
      <trkpt lat="48.25384" lon="-3.46147">
        <ele>126.6</ele>
        <time>2022-06-12T13:31:56Z</time>
      </trkpt>
      <trkpt lat="48.25383" lon="-3.46146">
        <ele>126.7</ele>
        <time>2022-06-12T13:31:57Z</time>
      </trkpt>
      <trkpt lat="48.25381" lon="-3.46144">
        <ele>126.7</ele>
        <time>2022-06-12T13:31:58Z</time>
      </trkpt>
      <trkpt lat="48.25381" lon="-3.46143">
        <ele>126.7</ele>
        <time>2022-06-12T13:31:59Z</time>
      </trkpt>
      <trkpt lat="48.2538" lon="-3.46142">
        <ele>126.7</ele>
        <time>2022-06-12T13:32:00Z</time>
      </trkpt>
      <trkpt lat="48.25378" lon="-3.4614">
        <ele>126.7</ele>
        <time>2022-06-12T13:32:01Z</time>
      </trkpt>
      <trkpt lat="48.25378" lon="-3.4614">
        <ele>126.7</ele>
        <time>2022-06-12T13:32:02Z</time>
      </trkpt>
      <trkpt lat="48.25377" lon="-3.46139">
        <ele>126.7</ele>
        <time>2022-06-12T13:32:03Z</time>
      </trkpt>
      <trkpt lat="48.25376" lon="-3.46138">
        <ele>126.7</ele>
        <time>2022-06-12T13:32:04Z</time>
      </trkpt>
      <trkpt lat="48.25374" lon="-3.46136">
        <ele>126.7</ele>
        <time>2022-06-12T13:32:06Z</time>
      </trkpt>
      <trkpt lat="48.25372" lon="-3.46135">
        <ele>126.7</ele>
        <time>2022-06-12T13:32:07Z</time>
      </trkpt>
      <trkpt lat="48.25371" lon="-3.46134">
        <ele>126.7</ele>
        <time>2022-06-12T13:32:08Z</time>
      </trkpt>
      <trkpt lat="48.25369" lon="-3.46132">
        <ele>126.6</ele>
        <time>2022-06-12T13:32:09Z</time>
      </trkpt>
      <trkpt lat="48.25368" lon="-3.46131">
        <ele>126.6</ele>
        <time>2022-06-12T13:32:10Z</time>
      </trkpt>
      <trkpt lat="48.25366" lon="-3.4613">
        <ele>126.6</ele>
        <time>2022-06-12T13:32:11Z</time>
      </trkpt>
      <trkpt lat="48.25365" lon="-3.46129">
        <ele>126.6</ele>
        <time>2022-06-12T13:32:12Z</time>
      </trkpt>
      <trkpt lat="48.25364" lon="-3.46127">
        <ele>126.6</ele>
        <time>2022-06-12T13:32:14Z</time>
      </trkpt>
      <trkpt lat="48.25363" lon="-3.46126">
        <ele>126.6</ele>
        <time>2022-06-12T13:32:15Z</time>
      </trkpt>
      <trkpt lat="48.25361" lon="-3.46125">
        <ele>126.6</ele>
        <time>2022-06-12T13:32:16Z</time>
      </trkpt>
      <trkpt lat="48.2536" lon="-3.46123">
        <ele>126.6</ele>
        <time>2022-06-12T13:32:17Z</time>
      </trkpt>
      <trkpt lat="48.25358" lon="-3.46122">
        <ele>126.6</ele>
        <time>2022-06-12T13:32:18Z</time>
      </trkpt>
      <trkpt lat="48.25357" lon="-3.46121">
        <ele>126.6</ele>
        <time>2022-06-12T13:32:19Z</time>
      </trkpt>
      <trkpt lat="48.25355" lon="-3.46119">
        <ele>126.6</ele>
        <time>2022-06-12T13:32:20Z</time>
      </trkpt>
      <trkpt lat="48.25354" lon="-3.46118">
        <ele>126.6</ele>
        <time>2022-06-12T13:32:21Z</time>
      </trkpt>
      <trkpt lat="48.25354" lon="-3.46117">
        <ele>126.6</ele>
        <time>2022-06-12T13:32:22Z</time>
      </trkpt>
      <trkpt lat="48.25353" lon="-3.46116">
        <ele>126.6</ele>
        <time>2022-06-12T13:32:23Z</time>
      </trkpt>
      <trkpt lat="48.25352" lon="-3.46115">
        <ele>126.6</ele>
        <time>2022-06-12T13:32:24Z</time>
      </trkpt>
      <trkpt lat="48.2535" lon="-3.46114">
        <ele>126.6</ele>
        <time>2022-06-12T13:32:26Z</time>
      </trkpt>
      <trkpt lat="48.25349" lon="-3.46113">
        <ele>126.6</ele>
        <time>2022-06-12T13:32:27Z</time>
      </trkpt>
      <trkpt lat="48.25347" lon="-3.46111">
        <ele>126.6</ele>
        <time>2022-06-12T13:32:28Z</time>
      </trkpt>
      <trkpt lat="48.25346" lon="-3.4611">
        <ele>126.6</ele>
        <time>2022-06-12T13:32:29Z</time>
      </trkpt>
      <trkpt lat="48.25345" lon="-3.46109">
        <ele>126.6</ele>
        <time>2022-06-12T13:32:30Z</time>
      </trkpt>
      <trkpt lat="48.25345" lon="-3.46108">
        <ele>126.6</ele>
        <time>2022-06-12T13:32:31Z</time>
      </trkpt>
      <trkpt lat="48.25344" lon="-3.46107">
        <ele>126.6</ele>
        <time>2022-06-12T13:32:32Z</time>
      </trkpt>
      <trkpt lat="48.25343" lon="-3.46105">
        <ele>126.6</ele>
        <time>2022-06-12T13:32:33Z</time>
      </trkpt>
      <trkpt lat="48.25341" lon="-3.46102">
        <ele>126.6</ele>
        <time>2022-06-12T13:32:35Z</time>
      </trkpt>
      <trkpt lat="48.25341" lon="-3.46101">
        <ele>126.6</ele>
        <time>2022-06-12T13:32:36Z</time>
      </trkpt>
      <trkpt lat="48.2534" lon="-3.461">
        <ele>126.6</ele>
        <time>2022-06-12T13:32:37Z</time>
      </trkpt>
      <trkpt lat="48.2534" lon="-3.46099">
        <ele>126.6</ele>
        <time>2022-06-12T13:32:38Z</time>
      </trkpt>
      <trkpt lat="48.25339" lon="-3.46098">
        <ele>126.6</ele>
        <time>2022-06-12T13:32:39Z</time>
      </trkpt>
      <trkpt lat="48.25338" lon="-3.46097">
        <ele>126.6</ele>
        <time>2022-06-12T13:32:40Z</time>
      </trkpt>
      <trkpt lat="48.25337" lon="-3.46095">
        <ele>126.6</ele>
        <time>2022-06-12T13:32:42Z</time>
      </trkpt>
      <trkpt lat="48.25336" lon="-3.46094">
        <ele>126.6</ele>
        <time>2022-06-12T13:32:43Z</time>
      </trkpt>
      <trkpt lat="48.25335" lon="-3.46092">
        <ele>126.6</ele>
        <time>2022-06-12T13:32:44Z</time>
      </trkpt>
      <trkpt lat="48.25334" lon="-3.46091">
        <ele>126.6</ele>
        <time>2022-06-12T13:32:45Z</time>
      </trkpt>
      <trkpt lat="48.25332" lon="-3.46089">
        <ele>126.6</ele>
        <time>2022-06-12T13:32:46Z</time>
      </trkpt>
      <trkpt lat="48.25331" lon="-3.46089">
        <ele>126.6</ele>
        <time>2022-06-12T13:32:47Z</time>
      </trkpt>
      <trkpt lat="48.2533" lon="-3.46088">
        <ele>126.6</ele>
        <time>2022-06-12T13:32:48Z</time>
      </trkpt>
      <trkpt lat="48.25329" lon="-3.46087">
        <ele>126.6</ele>
        <time>2022-06-12T13:32:49Z</time>
      </trkpt>
      <trkpt lat="48.25328" lon="-3.46086">
        <ele>126.6</ele>
        <time>2022-06-12T13:32:50Z</time>
      </trkpt>
      <trkpt lat="48.25326" lon="-3.46085">
        <ele>126.6</ele>
        <time>2022-06-12T13:32:51Z</time>
      </trkpt>
      <trkpt lat="48.25325" lon="-3.46084">
        <ele>126.6</ele>
        <time>2022-06-12T13:32:53Z</time>
      </trkpt>
      <trkpt lat="48.25324" lon="-3.46084">
        <ele>126.6</ele>
        <time>2022-06-12T13:32:54Z</time>
      </trkpt>
      <trkpt lat="48.25323" lon="-3.46083">
        <ele>126.6</ele>
        <time>2022-06-12T13:32:55Z</time>
      </trkpt>
      <trkpt lat="48.25322" lon="-3.46083">
        <ele>126.6</ele>
        <time>2022-06-12T13:32:56Z</time>
      </trkpt>
      <trkpt lat="48.25321" lon="-3.46083">
        <ele>126.6</ele>
        <time>2022-06-12T13:32:57Z</time>
      </trkpt>
      <trkpt lat="48.2532" lon="-3.46083">
        <ele>126.6</ele>
        <time>2022-06-12T13:32:58Z</time>
      </trkpt>
      <trkpt lat="48.25319" lon="-3.46082">
        <ele>126.6</ele>
        <time>2022-06-12T13:32:59Z</time>
      </trkpt>
      <trkpt lat="48.25315" lon="-3.4608">
        <ele>126.6</ele>
        <time>2022-06-12T13:33:01Z</time>
      </trkpt>
      <trkpt lat="48.25314" lon="-3.46079">
        <ele>126.6</ele>
        <time>2022-06-12T13:33:02Z</time>
      </trkpt>
      <trkpt lat="48.25314" lon="-3.46079">
        <ele>126.6</ele>
        <time>2022-06-12T13:33:04Z</time>
      </trkpt>
      <trkpt lat="48.25313" lon="-3.46078">
        <ele>126.6</ele>
        <time>2022-06-12T13:33:05Z</time>
      </trkpt>
      <trkpt lat="48.25311" lon="-3.46076">
        <ele>126.6</ele>
        <time>2022-06-12T13:33:06Z</time>
      </trkpt>
      <trkpt lat="48.2531" lon="-3.46076">
        <ele>126.6</ele>
        <time>2022-06-12T13:33:07Z</time>
      </trkpt>
      <trkpt lat="48.25309" lon="-3.46075">
        <ele>126.6</ele>
        <time>2022-06-12T13:33:08Z</time>
      </trkpt>
      <trkpt lat="48.25308" lon="-3.46074">
        <ele>126.6</ele>
        <time>2022-06-12T13:33:09Z</time>
      </trkpt>
      <trkpt lat="48.25306" lon="-3.46074">
        <ele>126.6</ele>
        <time>2022-06-12T13:33:10Z</time>
      </trkpt>
      <trkpt lat="48.25303" lon="-3.46072">
        <ele>126.6</ele>
        <time>2022-06-12T13:33:12Z</time>
      </trkpt>
      <trkpt lat="48.25302" lon="-3.46071">
        <ele>126.6</ele>
        <time>2022-06-12T13:33:13Z</time>
      </trkpt>
      <trkpt lat="48.25301" lon="-3.46071">
        <ele>126.6</ele>
        <time>2022-06-12T13:33:14Z</time>
      </trkpt>
      <trkpt lat="48.25301" lon="-3.4607">
        <ele>126.6</ele>
        <time>2022-06-12T13:33:15Z</time>
      </trkpt>
      <trkpt lat="48.253" lon="-3.4607">
        <ele>126.6</ele>
        <time>2022-06-12T13:33:16Z</time>
      </trkpt>
      <trkpt lat="48.25299" lon="-3.46069">
        <ele>126.6</ele>
        <time>2022-06-12T13:33:17Z</time>
      </trkpt>
      <trkpt lat="48.25298" lon="-3.46069">
        <ele>126.6</ele>
        <time>2022-06-12T13:33:18Z</time>
      </trkpt>
      <trkpt lat="48.25297" lon="-3.46068">
        <ele>126.6</ele>
        <time>2022-06-12T13:33:19Z</time>
      </trkpt>
      <trkpt lat="48.25295" lon="-3.46067">
        <ele>126.7</ele>
        <time>2022-06-12T13:33:21Z</time>
      </trkpt>
      <trkpt lat="48.25295" lon="-3.46066">
        <ele>126.7</ele>
        <time>2022-06-12T13:33:22Z</time>
      </trkpt>
      <trkpt lat="48.25294" lon="-3.46065">
        <ele>126.7</ele>
        <time>2022-06-12T13:33:23Z</time>
      </trkpt>
      <trkpt lat="48.25293" lon="-3.46064">
        <ele>126.7</ele>
        <time>2022-06-12T13:33:24Z</time>
      </trkpt>
      <trkpt lat="48.25292" lon="-3.46063">
        <ele>126.7</ele>
        <time>2022-06-12T13:33:25Z</time>
      </trkpt>
      <trkpt lat="48.25291" lon="-3.46062">
        <ele>126.7</ele>
        <time>2022-06-12T13:33:26Z</time>
      </trkpt>
      <trkpt lat="48.2529" lon="-3.46062">
        <ele>126.7</ele>
        <time>2022-06-12T13:33:27Z</time>
      </trkpt>
      <trkpt lat="48.2529" lon="-3.46061">
        <ele>126.7</ele>
        <time>2022-06-12T13:33:28Z</time>
      </trkpt>
      <trkpt lat="48.25289" lon="-3.4606">
        <ele>126.7</ele>
        <time>2022-06-12T13:33:29Z</time>
      </trkpt>
      <trkpt lat="48.25288" lon="-3.4606">
        <ele>126.7</ele>
        <time>2022-06-12T13:33:30Z</time>
      </trkpt>
      <trkpt lat="48.25286" lon="-3.46058">
        <ele>126.7</ele>
        <time>2022-06-12T13:33:31Z</time>
      </trkpt>
      <trkpt lat="48.25286" lon="-3.46057">
        <ele>126.7</ele>
        <time>2022-06-12T13:33:32Z</time>
      </trkpt>
      <trkpt lat="48.25284" lon="-3.46055">
        <ele>126.7</ele>
        <time>2022-06-12T13:33:34Z</time>
      </trkpt>
      <trkpt lat="48.25283" lon="-3.46054">
        <ele>126.7</ele>
        <time>2022-06-12T13:33:35Z</time>
      </trkpt>
      <trkpt lat="48.25282" lon="-3.46054">
        <ele>126.7</ele>
        <time>2022-06-12T13:33:36Z</time>
      </trkpt>
      <trkpt lat="48.25282" lon="-3.46053">
        <ele>126.8</ele>
        <time>2022-06-12T13:33:37Z</time>
      </trkpt>
      <trkpt lat="48.25281" lon="-3.46052">
        <ele>126.8</ele>
        <time>2022-06-12T13:33:38Z</time>
      </trkpt>
      <trkpt lat="48.2528" lon="-3.46051">
        <ele>126.8</ele>
        <time>2022-06-12T13:33:39Z</time>
      </trkpt>
      <trkpt lat="48.25279" lon="-3.4605">
        <ele>126.8</ele>
        <time>2022-06-12T13:33:40Z</time>
      </trkpt>
      <trkpt lat="48.25278" lon="-3.46049">
        <ele>126.8</ele>
        <time>2022-06-12T13:33:41Z</time>
      </trkpt>
      <trkpt lat="48.25277" lon="-3.46046">
        <ele>126.8</ele>
        <time>2022-06-12T13:33:42Z</time>
      </trkpt>
      <trkpt lat="48.25276" lon="-3.46045">
        <ele>126.8</ele>
        <time>2022-06-12T13:33:44Z</time>
      </trkpt>
      <trkpt lat="48.25276" lon="-3.46044">
        <ele>126.8</ele>
        <time>2022-06-12T13:33:45Z</time>
      </trkpt>
      <trkpt lat="48.25275" lon="-3.46042">
        <ele>126.7</ele>
        <time>2022-06-12T13:33:46Z</time>
      </trkpt>
      <trkpt lat="48.25274" lon="-3.46041">
        <ele>126.7</ele>
        <time>2022-06-12T13:33:47Z</time>
      </trkpt>
      <trkpt lat="48.25273" lon="-3.46039">
        <ele>126.7</ele>
        <time>2022-06-12T13:33:48Z</time>
      </trkpt>
      <trkpt lat="48.25272" lon="-3.46038">
        <ele>126.7</ele>
        <time>2022-06-12T13:33:49Z</time>
      </trkpt>
      <trkpt lat="48.25271" lon="-3.46038">
        <ele>126.7</ele>
        <time>2022-06-12T13:33:50Z</time>
      </trkpt>
      <trkpt lat="48.25269" lon="-3.46036">
        <ele>126.7</ele>
        <time>2022-06-12T13:33:51Z</time>
      </trkpt>
      <trkpt lat="48.25268" lon="-3.46035">
        <ele>126.7</ele>
        <time>2022-06-12T13:33:53Z</time>
      </trkpt>
      <trkpt lat="48.25266" lon="-3.46033">
        <ele>126.7</ele>
        <time>2022-06-12T13:33:54Z</time>
      </trkpt>
      <trkpt lat="48.25265" lon="-3.46032">
        <ele>126.7</ele>
        <time>2022-06-12T13:33:55Z</time>
      </trkpt>
      <trkpt lat="48.25264" lon="-3.46032">
        <ele>126.7</ele>
        <time>2022-06-12T13:33:56Z</time>
      </trkpt>
      <trkpt lat="48.25263" lon="-3.46031">
        <ele>126.7</ele>
        <time>2022-06-12T13:33:57Z</time>
      </trkpt>
      <trkpt lat="48.25262" lon="-3.46031">
        <ele>126.7</ele>
        <time>2022-06-12T13:33:58Z</time>
      </trkpt>
      <trkpt lat="48.25261" lon="-3.4603">
        <ele>126.7</ele>
        <time>2022-06-12T13:33:59Z</time>
      </trkpt>
      <trkpt lat="48.25259" lon="-3.46028">
        <ele>126.7</ele>
        <time>2022-06-12T13:34:01Z</time>
      </trkpt>
      <trkpt lat="48.25257" lon="-3.46028">
        <ele>126.7</ele>
        <time>2022-06-12T13:34:02Z</time>
      </trkpt>
      <trkpt lat="48.25256" lon="-3.46027">
        <ele>126.7</ele>
        <time>2022-06-12T13:34:03Z</time>
      </trkpt>
      <trkpt lat="48.25255" lon="-3.46027">
        <ele>126.7</ele>
        <time>2022-06-12T13:34:05Z</time>
      </trkpt>
      <trkpt lat="48.25253" lon="-3.46026">
        <ele>126.7</ele>
        <time>2022-06-12T13:34:06Z</time>
      </trkpt>
      <trkpt lat="48.25252" lon="-3.46025">
        <ele>126.7</ele>
        <time>2022-06-12T13:34:07Z</time>
      </trkpt>
      <trkpt lat="48.25251" lon="-3.46024">
        <ele>126.7</ele>
        <time>2022-06-12T13:34:08Z</time>
      </trkpt>
      <trkpt lat="48.2525" lon="-3.46024">
        <ele>126.7</ele>
        <time>2022-06-12T13:34:09Z</time>
      </trkpt>
      <trkpt lat="48.25249" lon="-3.46023">
        <ele>126.7</ele>
        <time>2022-06-12T13:34:10Z</time>
      </trkpt>
      <trkpt lat="48.25247" lon="-3.46022">
        <ele>126.7</ele>
        <time>2022-06-12T13:34:11Z</time>
      </trkpt>
      <trkpt lat="48.25246" lon="-3.46022">
        <ele>126.7</ele>
        <time>2022-06-12T13:34:12Z</time>
      </trkpt>
      <trkpt lat="48.25244" lon="-3.4602">
        <ele>126.8</ele>
        <time>2022-06-12T13:34:13Z</time>
      </trkpt>
      <trkpt lat="48.25243" lon="-3.46019">
        <ele>126.8</ele>
        <time>2022-06-12T13:34:14Z</time>
      </trkpt>
      <trkpt lat="48.25243" lon="-3.46019">
        <ele>126.8</ele>
        <time>2022-06-12T13:34:15Z</time>
      </trkpt>
      <trkpt lat="48.25241" lon="-3.46017">
        <ele>126.8</ele>
        <time>2022-06-12T13:34:17Z</time>
      </trkpt>
      <trkpt lat="48.2524" lon="-3.46016">
        <ele>126.8</ele>
        <time>2022-06-12T13:34:18Z</time>
      </trkpt>
      <trkpt lat="48.25239" lon="-3.46015">
        <ele>126.8</ele>
        <time>2022-06-12T13:34:19Z</time>
      </trkpt>
      <trkpt lat="48.25238" lon="-3.46013">
        <ele>126.8</ele>
        <time>2022-06-12T13:34:20Z</time>
      </trkpt>
      <trkpt lat="48.25235" lon="-3.4601">
        <ele>126.8</ele>
        <time>2022-06-12T13:34:21Z</time>
      </trkpt>
      <trkpt lat="48.25235" lon="-3.4601">
        <ele>126.8</ele>
        <time>2022-06-12T13:34:22Z</time>
      </trkpt>
      <trkpt lat="48.25234" lon="-3.46008">
        <ele>126.8</ele>
        <time>2022-06-12T13:34:24Z</time>
      </trkpt>
      <trkpt lat="48.25233" lon="-3.46006">
        <ele>126.8</ele>
        <time>2022-06-12T13:34:25Z</time>
      </trkpt>
      <trkpt lat="48.25231" lon="-3.46004">
        <ele>126.8</ele>
        <time>2022-06-12T13:34:26Z</time>
      </trkpt>
      <trkpt lat="48.25231" lon="-3.46002">
        <ele>126.8</ele>
        <time>2022-06-12T13:34:27Z</time>
      </trkpt>
      <trkpt lat="48.25229" lon="-3.45998">
        <ele>126.8</ele>
        <time>2022-06-12T13:34:28Z</time>
      </trkpt>
      <trkpt lat="48.25228" lon="-3.45996">
        <ele>126.8</ele>
        <time>2022-06-12T13:34:30Z</time>
      </trkpt>
      <trkpt lat="48.25227" lon="-3.45995">
        <ele>126.8</ele>
        <time>2022-06-12T13:34:31Z</time>
      </trkpt>
      <trkpt lat="48.25226" lon="-3.45994">
        <ele>126.8</ele>
        <time>2022-06-12T13:34:32Z</time>
      </trkpt>
      <trkpt lat="48.25225" lon="-3.45992">
        <ele>126.8</ele>
        <time>2022-06-12T13:34:33Z</time>
      </trkpt>
      <trkpt lat="48.25223" lon="-3.45991">
        <ele>126.8</ele>
        <time>2022-06-12T13:34:34Z</time>
      </trkpt>
      <trkpt lat="48.25222" lon="-3.4599">
        <ele>126.9</ele>
        <time>2022-06-12T13:34:35Z</time>
      </trkpt>
      <trkpt lat="48.2522" lon="-3.45988">
        <ele>126.9</ele>
        <time>2022-06-12T13:34:37Z</time>
      </trkpt>
      <trkpt lat="48.25219" lon="-3.45987">
        <ele>126.9</ele>
        <time>2022-06-12T13:34:38Z</time>
      </trkpt>
      <trkpt lat="48.25218" lon="-3.45986">
        <ele>126.9</ele>
        <time>2022-06-12T13:34:39Z</time>
      </trkpt>
      <trkpt lat="48.25217" lon="-3.45985">
        <ele>126.9</ele>
        <time>2022-06-12T13:34:40Z</time>
      </trkpt>
      <trkpt lat="48.25216" lon="-3.45984">
        <ele>126.9</ele>
        <time>2022-06-12T13:34:41Z</time>
      </trkpt>
      <trkpt lat="48.25214" lon="-3.45982">
        <ele>126.9</ele>
        <time>2022-06-12T13:34:42Z</time>
      </trkpt>
      <trkpt lat="48.25213" lon="-3.45981">
        <ele>126.9</ele>
        <time>2022-06-12T13:34:43Z</time>
      </trkpt>
      <trkpt lat="48.25212" lon="-3.4598">
        <ele>126.9</ele>
        <time>2022-06-12T13:34:44Z</time>
      </trkpt>
      <trkpt lat="48.25211" lon="-3.45979">
        <ele>126.9</ele>
        <time>2022-06-12T13:34:45Z</time>
      </trkpt>
      <trkpt lat="48.25209" lon="-3.45977">
        <ele>126.9</ele>
        <time>2022-06-12T13:34:47Z</time>
      </trkpt>
      <trkpt lat="48.25208" lon="-3.45976">
        <ele>126.9</ele>
        <time>2022-06-12T13:34:48Z</time>
      </trkpt>
      <trkpt lat="48.25207" lon="-3.45974">
        <ele>126.9</ele>
        <time>2022-06-12T13:34:49Z</time>
      </trkpt>
      <trkpt lat="48.25206" lon="-3.45973">
        <ele>126.9</ele>
        <time>2022-06-12T13:34:50Z</time>
      </trkpt>
      <trkpt lat="48.25203" lon="-3.4597">
        <ele>126.8</ele>
        <time>2022-06-12T13:34:52Z</time>
      </trkpt>
      <trkpt lat="48.25202" lon="-3.45968">
        <ele>126.8</ele>
        <time>2022-06-12T13:34:53Z</time>
      </trkpt>
      <trkpt lat="48.25201" lon="-3.45966">
        <ele>126.8</ele>
        <time>2022-06-12T13:34:54Z</time>
      </trkpt>
      <trkpt lat="48.252" lon="-3.45964">
        <ele>126.8</ele>
        <time>2022-06-12T13:34:55Z</time>
      </trkpt>
      <trkpt lat="48.25198" lon="-3.4596">
        <ele>126.8</ele>
        <time>2022-06-12T13:34:57Z</time>
      </trkpt>
      <trkpt lat="48.25197" lon="-3.45958">
        <ele>126.8</ele>
        <time>2022-06-12T13:34:58Z</time>
      </trkpt>
      <trkpt lat="48.25196" lon="-3.45957">
        <ele>126.8</ele>
        <time>2022-06-12T13:34:59Z</time>
      </trkpt>
      <trkpt lat="48.25196" lon="-3.45956">
        <ele>126.8</ele>
        <time>2022-06-12T13:35:00Z</time>
      </trkpt>
      <trkpt lat="48.25194" lon="-3.45953">
        <ele>126.8</ele>
        <time>2022-06-12T13:35:01Z</time>
      </trkpt>
      <trkpt lat="48.25193" lon="-3.45951">
        <ele>126.8</ele>
        <time>2022-06-12T13:35:02Z</time>
      </trkpt>
      <trkpt lat="48.25193" lon="-3.4595">
        <ele>126.8</ele>
        <time>2022-06-12T13:35:03Z</time>
      </trkpt>
      <trkpt lat="48.25192" lon="-3.45948">
        <ele>126.8</ele>
        <time>2022-06-12T13:35:05Z</time>
      </trkpt>
      <trkpt lat="48.25191" lon="-3.45947">
        <ele>126.8</ele>
        <time>2022-06-12T13:35:06Z</time>
      </trkpt>
      <trkpt lat="48.2519" lon="-3.45945">
        <ele>126.8</ele>
        <time>2022-06-12T13:35:07Z</time>
      </trkpt>
      <trkpt lat="48.25188" lon="-3.45942">
        <ele>126.8</ele>
        <time>2022-06-12T13:35:08Z</time>
      </trkpt>
      <trkpt lat="48.25188" lon="-3.45941">
        <ele>126.8</ele>
        <time>2022-06-12T13:35:09Z</time>
      </trkpt>
      <trkpt lat="48.25187" lon="-3.45939">
        <ele>126.8</ele>
        <time>2022-06-12T13:35:10Z</time>
      </trkpt>
      <trkpt lat="48.25186" lon="-3.45938">
        <ele>126.8</ele>
        <time>2022-06-12T13:35:12Z</time>
      </trkpt>
      <trkpt lat="48.25186" lon="-3.45937">
        <ele>126.8</ele>
        <time>2022-06-12T13:35:13Z</time>
      </trkpt>
      <trkpt lat="48.25185" lon="-3.45935">
        <ele>126.9</ele>
        <time>2022-06-12T13:35:14Z</time>
      </trkpt>
      <trkpt lat="48.25184" lon="-3.45933">
        <ele>126.9</ele>
        <time>2022-06-12T13:35:15Z</time>
      </trkpt>
      <trkpt lat="48.25183" lon="-3.45932">
        <ele>126.9</ele>
        <time>2022-06-12T13:35:16Z</time>
      </trkpt>
      <trkpt lat="48.25182" lon="-3.45929">
        <ele>126.9</ele>
        <time>2022-06-12T13:35:17Z</time>
      </trkpt>
      <trkpt lat="48.25181" lon="-3.45926">
        <ele>126.9</ele>
        <time>2022-06-12T13:35:18Z</time>
      </trkpt>
      <trkpt lat="48.25181" lon="-3.45925">
        <ele>126.9</ele>
        <time>2022-06-12T13:35:20Z</time>
      </trkpt>
      <trkpt lat="48.2518" lon="-3.45924">
        <ele>126.9</ele>
        <time>2022-06-12T13:35:21Z</time>
      </trkpt>
      <trkpt lat="48.25179" lon="-3.45921">
        <ele>126.9</ele>
        <time>2022-06-12T13:35:22Z</time>
      </trkpt>
      <trkpt lat="48.25179" lon="-3.45919">
        <ele>126.9</ele>
        <time>2022-06-12T13:35:23Z</time>
      </trkpt>
      <trkpt lat="48.25178" lon="-3.45918">
        <ele>126.9</ele>
        <time>2022-06-12T13:35:24Z</time>
      </trkpt>
      <trkpt lat="48.25177" lon="-3.45916">
        <ele>126.9</ele>
        <time>2022-06-12T13:35:25Z</time>
      </trkpt>
      <trkpt lat="48.25176" lon="-3.45913">
        <ele>126.9</ele>
        <time>2022-06-12T13:35:27Z</time>
      </trkpt>
      <trkpt lat="48.25176" lon="-3.45912">
        <ele>126.9</ele>
        <time>2022-06-12T13:35:28Z</time>
      </trkpt>
      <trkpt lat="48.25176" lon="-3.45911">
        <ele>126.9</ele>
        <time>2022-06-12T13:35:29Z</time>
      </trkpt>
      <trkpt lat="48.25175" lon="-3.45909">
        <ele>126.9</ele>
        <time>2022-06-12T13:35:30Z</time>
      </trkpt>
      <trkpt lat="48.25175" lon="-3.45908">
        <ele>126.9</ele>
        <time>2022-06-12T13:35:31Z</time>
      </trkpt>
      <trkpt lat="48.25174" lon="-3.45905">
        <ele>126.9</ele>
        <time>2022-06-12T13:35:32Z</time>
      </trkpt>
      <trkpt lat="48.25175" lon="-3.45904">
        <ele>126.9</ele>
        <time>2022-06-12T13:35:33Z</time>
      </trkpt>
      <trkpt lat="48.25175" lon="-3.45902">
        <ele>126.9</ele>
        <time>2022-06-12T13:35:34Z</time>
      </trkpt>
      <trkpt lat="48.25175" lon="-3.459">
        <ele>126.9</ele>
        <time>2022-06-12T13:35:36Z</time>
      </trkpt>
      <trkpt lat="48.25175" lon="-3.45897">
        <ele>126.9</ele>
        <time>2022-06-12T13:35:37Z</time>
      </trkpt>
      <trkpt lat="48.25175" lon="-3.45896">
        <ele>126.9</ele>
        <time>2022-06-12T13:35:38Z</time>
      </trkpt>
      <trkpt lat="48.25175" lon="-3.45894">
        <ele>126.9</ele>
        <time>2022-06-12T13:35:39Z</time>
      </trkpt>
      <trkpt lat="48.25175" lon="-3.45893">
        <ele>126.9</ele>
        <time>2022-06-12T13:35:40Z</time>
      </trkpt>
      <trkpt lat="48.25175" lon="-3.45891">
        <ele>126.9</ele>
        <time>2022-06-12T13:35:41Z</time>
      </trkpt>
      <trkpt lat="48.25174" lon="-3.45888">
        <ele>126.9</ele>
        <time>2022-06-12T13:35:42Z</time>
      </trkpt>
      <trkpt lat="48.25174" lon="-3.45887">
        <ele>126.9</ele>
        <time>2022-06-12T13:35:43Z</time>
      </trkpt>
      <trkpt lat="48.25173" lon="-3.45884">
        <ele>126.9</ele>
        <time>2022-06-12T13:35:45Z</time>
      </trkpt>
      <trkpt lat="48.25173" lon="-3.45883">
        <ele>126.9</ele>
        <time>2022-06-12T13:35:46Z</time>
      </trkpt>
      <trkpt lat="48.25172" lon="-3.45881">
        <ele>126.9</ele>
        <time>2022-06-12T13:35:47Z</time>
      </trkpt>
      <trkpt lat="48.25172" lon="-3.4588">
        <ele>126.9</ele>
        <time>2022-06-12T13:35:48Z</time>
      </trkpt>
      <trkpt lat="48.25172" lon="-3.45879">
        <ele>126.9</ele>
        <time>2022-06-12T13:35:49Z</time>
      </trkpt>
      <trkpt lat="48.25171" lon="-3.45878">
        <ele>126.9</ele>
        <time>2022-06-12T13:35:50Z</time>
      </trkpt>
      <trkpt lat="48.25171" lon="-3.45877">
        <ele>126.9</ele>
        <time>2022-06-12T13:35:51Z</time>
      </trkpt>
      <trkpt lat="48.2517" lon="-3.45874">
        <ele>126.9</ele>
        <time>2022-06-12T13:35:52Z</time>
      </trkpt>
      <trkpt lat="48.2517" lon="-3.45873">
        <ele>126.9</ele>
        <time>2022-06-12T13:35:53Z</time>
      </trkpt>
      <trkpt lat="48.25169" lon="-3.45871">
        <ele>126.9</ele>
        <time>2022-06-12T13:35:54Z</time>
      </trkpt>
      <trkpt lat="48.25169" lon="-3.45869">
        <ele>126.9</ele>
        <time>2022-06-12T13:35:55Z</time>
      </trkpt>
      <trkpt lat="48.25168" lon="-3.45868">
        <ele>126.9</ele>
        <time>2022-06-12T13:35:57Z</time>
      </trkpt>
      <trkpt lat="48.25167" lon="-3.45865">
        <ele>126.9</ele>
        <time>2022-06-12T13:35:58Z</time>
      </trkpt>
      <trkpt lat="48.25167" lon="-3.45863">
        <ele>126.9</ele>
        <time>2022-06-12T13:35:59Z</time>
      </trkpt>
      <trkpt lat="48.25166" lon="-3.4586">
        <ele>126.9</ele>
        <time>2022-06-12T13:36:00Z</time>
      </trkpt>
      <trkpt lat="48.25165" lon="-3.45858">
        <ele>126.9</ele>
        <time>2022-06-12T13:36:01Z</time>
      </trkpt>
      <trkpt lat="48.25165" lon="-3.45857">
        <ele>126.9</ele>
        <time>2022-06-12T13:36:02Z</time>
      </trkpt>
      <trkpt lat="48.25165" lon="-3.45855">
        <ele>126.9</ele>
        <time>2022-06-12T13:36:03Z</time>
      </trkpt>
      <trkpt lat="48.25165" lon="-3.45854">
        <ele>126.9</ele>
        <time>2022-06-12T13:36:04Z</time>
      </trkpt>
      <trkpt lat="48.25164" lon="-3.45851">
        <ele>126.9</ele>
        <time>2022-06-12T13:36:06Z</time>
      </trkpt>
      <trkpt lat="48.25163" lon="-3.45848">
        <ele>126.9</ele>
        <time>2022-06-12T13:36:07Z</time>
      </trkpt>
      <trkpt lat="48.25163" lon="-3.45846">
        <ele>126.9</ele>
        <time>2022-06-12T13:36:08Z</time>
      </trkpt>
      <trkpt lat="48.25162" lon="-3.45843">
        <ele>126.9</ele>
        <time>2022-06-12T13:36:09Z</time>
      </trkpt>
      <trkpt lat="48.25162" lon="-3.45842">
        <ele>126.9</ele>
        <time>2022-06-12T13:36:10Z</time>
      </trkpt>
      <trkpt lat="48.25162" lon="-3.4584">
        <ele>127</ele>
        <time>2022-06-12T13:36:11Z</time>
      </trkpt>
      <trkpt lat="48.25161" lon="-3.45838">
        <ele>127</ele>
        <time>2022-06-12T13:36:12Z</time>
      </trkpt>
      <trkpt lat="48.25161" lon="-3.45836">
        <ele>127</ele>
        <time>2022-06-12T13:36:13Z</time>
      </trkpt>
      <trkpt lat="48.2516" lon="-3.45833">
        <ele>127</ele>
        <time>2022-06-12T13:36:14Z</time>
      </trkpt>
      <trkpt lat="48.2516" lon="-3.45832">
        <ele>127</ele>
        <time>2022-06-12T13:36:16Z</time>
      </trkpt>
      <trkpt lat="48.2516" lon="-3.45831">
        <ele>127</ele>
        <time>2022-06-12T13:36:17Z</time>
      </trkpt>
      <trkpt lat="48.25159" lon="-3.45828">
        <ele>127</ele>
        <time>2022-06-12T13:36:18Z</time>
      </trkpt>
      <trkpt lat="48.25158" lon="-3.45826">
        <ele>127</ele>
        <time>2022-06-12T13:36:19Z</time>
      </trkpt>
      <trkpt lat="48.25158" lon="-3.45825">
        <ele>127.1</ele>
        <time>2022-06-12T13:36:20Z</time>
      </trkpt>
      <trkpt lat="48.25157" lon="-3.45823">
        <ele>127.1</ele>
        <time>2022-06-12T13:36:21Z</time>
      </trkpt>
      <trkpt lat="48.25157" lon="-3.45821">
        <ele>127.1</ele>
        <time>2022-06-12T13:36:23Z</time>
      </trkpt>
      <trkpt lat="48.25156" lon="-3.45819">
        <ele>127.1</ele>
        <time>2022-06-12T13:36:24Z</time>
      </trkpt>
      <trkpt lat="48.25156" lon="-3.45817">
        <ele>127.1</ele>
        <time>2022-06-12T13:36:25Z</time>
      </trkpt>
      <trkpt lat="48.25155" lon="-3.45815">
        <ele>127.1</ele>
        <time>2022-06-12T13:36:26Z</time>
      </trkpt>
      <trkpt lat="48.25155" lon="-3.45814">
        <ele>127.1</ele>
        <time>2022-06-12T13:36:27Z</time>
      </trkpt>
      <trkpt lat="48.25154" lon="-3.45811">
        <ele>127.2</ele>
        <time>2022-06-12T13:36:28Z</time>
      </trkpt>
      <trkpt lat="48.25154" lon="-3.45809">
        <ele>127.2</ele>
        <time>2022-06-12T13:36:29Z</time>
      </trkpt>
      <trkpt lat="48.25154" lon="-3.45808">
        <ele>127.2</ele>
        <time>2022-06-12T13:36:30Z</time>
      </trkpt>
      <trkpt lat="48.25153" lon="-3.45806">
        <ele>127.2</ele>
        <time>2022-06-12T13:36:31Z</time>
      </trkpt>
      <trkpt lat="48.25153" lon="-3.45803">
        <ele>127.2</ele>
        <time>2022-06-12T13:36:32Z</time>
      </trkpt>
      <trkpt lat="48.25153" lon="-3.45802">
        <ele>127.3</ele>
        <time>2022-06-12T13:36:33Z</time>
      </trkpt>
      <trkpt lat="48.25152" lon="-3.458">
        <ele>127.3</ele>
        <time>2022-06-12T13:36:34Z</time>
      </trkpt>
      <trkpt lat="48.25152" lon="-3.45799">
        <ele>127.3</ele>
        <time>2022-06-12T13:36:35Z</time>
      </trkpt>
      <trkpt lat="48.25152" lon="-3.45797">
        <ele>127.3</ele>
        <time>2022-06-12T13:36:36Z</time>
      </trkpt>
      <trkpt lat="48.25152" lon="-3.45794">
        <ele>127.3</ele>
        <time>2022-06-12T13:36:37Z</time>
      </trkpt>
      <trkpt lat="48.25152" lon="-3.45792">
        <ele>127.4</ele>
        <time>2022-06-12T13:36:39Z</time>
      </trkpt>
      <trkpt lat="48.25152" lon="-3.4579">
        <ele>127.4</ele>
        <time>2022-06-12T13:36:40Z</time>
      </trkpt>
      <trkpt lat="48.25152" lon="-3.45789">
        <ele>127.4</ele>
        <time>2022-06-12T13:36:41Z</time>
      </trkpt>
      <trkpt lat="48.25152" lon="-3.45787">
        <ele>127.4</ele>
        <time>2022-06-12T13:36:42Z</time>
      </trkpt>
      <trkpt lat="48.25152" lon="-3.45784">
        <ele>127.4</ele>
        <time>2022-06-12T13:36:43Z</time>
      </trkpt>
      <trkpt lat="48.25152" lon="-3.45783">
        <ele>127.5</ele>
        <time>2022-06-12T13:36:44Z</time>
      </trkpt>
      <trkpt lat="48.25153" lon="-3.45781">
        <ele>127.5</ele>
        <time>2022-06-12T13:36:45Z</time>
      </trkpt>
      <trkpt lat="48.25153" lon="-3.45779">
        <ele>127.5</ele>
        <time>2022-06-12T13:36:46Z</time>
      </trkpt>
      <trkpt lat="48.25153" lon="-3.45777">
        <ele>127.5</ele>
        <time>2022-06-12T13:36:47Z</time>
      </trkpt>
      <trkpt lat="48.25153" lon="-3.45774">
        <ele>127.5</ele>
        <time>2022-06-12T13:36:48Z</time>
      </trkpt>
      <trkpt lat="48.25153" lon="-3.45773">
        <ele>127.6</ele>
        <time>2022-06-12T13:36:49Z</time>
      </trkpt>
      <trkpt lat="48.25153" lon="-3.4577">
        <ele>127.6</ele>
        <time>2022-06-12T13:36:50Z</time>
      </trkpt>
      <trkpt lat="48.25154" lon="-3.45769">
        <ele>127.6</ele>
        <time>2022-06-12T13:36:51Z</time>
      </trkpt>
      <trkpt lat="48.25154" lon="-3.45768">
        <ele>127.6</ele>
        <time>2022-06-12T13:36:52Z</time>
      </trkpt>
      <trkpt lat="48.25154" lon="-3.45766">
        <ele>127.6</ele>
        <time>2022-06-12T13:36:53Z</time>
      </trkpt>
      <trkpt lat="48.25154" lon="-3.45765">
        <ele>127.6</ele>
        <time>2022-06-12T13:36:54Z</time>
      </trkpt>
      <trkpt lat="48.25154" lon="-3.45763">
        <ele>127.7</ele>
        <time>2022-06-12T13:36:56Z</time>
      </trkpt>
      <trkpt lat="48.25155" lon="-3.45762">
        <ele>127.7</ele>
        <time>2022-06-12T13:36:57Z</time>
      </trkpt>
      <trkpt lat="48.25155" lon="-3.4576">
        <ele>127.7</ele>
        <time>2022-06-12T13:36:58Z</time>
      </trkpt>
      <trkpt lat="48.25155" lon="-3.45759">
        <ele>127.7</ele>
        <time>2022-06-12T13:36:59Z</time>
      </trkpt>
      <trkpt lat="48.25154" lon="-3.45757">
        <ele>127.7</ele>
        <time>2022-06-12T13:37:00Z</time>
      </trkpt>
      <trkpt lat="48.25154" lon="-3.45756">
        <ele>127.7</ele>
        <time>2022-06-12T13:37:01Z</time>
      </trkpt>
      <trkpt lat="48.25154" lon="-3.45754">
        <ele>127.7</ele>
        <time>2022-06-12T13:37:02Z</time>
      </trkpt>
      <trkpt lat="48.25153" lon="-3.45753">
        <ele>127.8</ele>
        <time>2022-06-12T13:37:03Z</time>
      </trkpt>
      <trkpt lat="48.25153" lon="-3.45751">
        <ele>127.8</ele>
        <time>2022-06-12T13:37:04Z</time>
      </trkpt>
      <trkpt lat="48.25153" lon="-3.4575">
        <ele>127.8</ele>
        <time>2022-06-12T13:37:06Z</time>
      </trkpt>
      <trkpt lat="48.25154" lon="-3.45747">
        <ele>127.8</ele>
        <time>2022-06-12T13:37:08Z</time>
      </trkpt>
      <trkpt lat="48.25155" lon="-3.45746">
        <ele>127.8</ele>
        <time>2022-06-12T13:37:09Z</time>
      </trkpt>
      <trkpt lat="48.25156" lon="-3.45746">
        <ele>127.8</ele>
        <time>2022-06-12T13:37:10Z</time>
      </trkpt>
      <trkpt lat="48.25156" lon="-3.45746">
        <ele>127.8</ele>
        <time>2022-06-12T13:37:11Z</time>
      </trkpt>
      <trkpt lat="48.25157" lon="-3.45744">
        <ele>127.8</ele>
        <time>2022-06-12T13:37:13Z</time>
      </trkpt>
      <trkpt lat="48.25156" lon="-3.45744">
        <ele>127.8</ele>
        <time>2022-06-12T13:37:14Z</time>
      </trkpt>
      <trkpt lat="48.25156" lon="-3.45743">
        <ele>127.8</ele>
        <time>2022-06-12T13:37:15Z</time>
      </trkpt>
      <trkpt lat="48.25156" lon="-3.45742">
        <ele>127.9</ele>
        <time>2022-06-12T13:37:16Z</time>
      </trkpt>
      <trkpt lat="48.25156" lon="-3.4574">
        <ele>127.9</ele>
        <time>2022-06-12T13:37:17Z</time>
      </trkpt>
      <trkpt lat="48.25155" lon="-3.45738">
        <ele>127.9</ele>
        <time>2022-06-12T13:37:18Z</time>
      </trkpt>
      <trkpt lat="48.25155" lon="-3.45737">
        <ele>127.9</ele>
        <time>2022-06-12T13:37:19Z</time>
      </trkpt>
      <trkpt lat="48.25154" lon="-3.45734">
        <ele>127.9</ele>
        <time>2022-06-12T13:37:21Z</time>
      </trkpt>
      <trkpt lat="48.25154" lon="-3.45733">
        <ele>127.9</ele>
        <time>2022-06-12T13:37:22Z</time>
      </trkpt>
      <trkpt lat="48.25154" lon="-3.4573">
        <ele>128</ele>
        <time>2022-06-12T13:37:24Z</time>
      </trkpt>
      <trkpt lat="48.25153" lon="-3.45728">
        <ele>128</ele>
        <time>2022-06-12T13:37:25Z</time>
      </trkpt>
      <trkpt lat="48.25153" lon="-3.45726">
        <ele>128</ele>
        <time>2022-06-12T13:37:26Z</time>
      </trkpt>
      <trkpt lat="48.25153" lon="-3.45725">
        <ele>128</ele>
        <time>2022-06-12T13:37:27Z</time>
      </trkpt>
      <trkpt lat="48.25153" lon="-3.45722">
        <ele>128</ele>
        <time>2022-06-12T13:37:28Z</time>
      </trkpt>
      <trkpt lat="48.25153" lon="-3.4572">
        <ele>128</ele>
        <time>2022-06-12T13:37:29Z</time>
      </trkpt>
      <trkpt lat="48.25152" lon="-3.45718">
        <ele>128</ele>
        <time>2022-06-12T13:37:31Z</time>
      </trkpt>
      <trkpt lat="48.25152" lon="-3.45716">
        <ele>128.1</ele>
        <time>2022-06-12T13:37:32Z</time>
      </trkpt>
      <trkpt lat="48.25151" lon="-3.45713">
        <ele>128.1</ele>
        <time>2022-06-12T13:37:33Z</time>
      </trkpt>
      <trkpt lat="48.25151" lon="-3.45712">
        <ele>128.1</ele>
        <time>2022-06-12T13:37:34Z</time>
      </trkpt>
      <trkpt lat="48.25151" lon="-3.45711">
        <ele>128.1</ele>
        <time>2022-06-12T13:37:35Z</time>
      </trkpt>
      <trkpt lat="48.25151" lon="-3.45709">
        <ele>128.1</ele>
        <time>2022-06-12T13:37:36Z</time>
      </trkpt>
      <trkpt lat="48.25151" lon="-3.45707">
        <ele>128.1</ele>
        <time>2022-06-12T13:37:37Z</time>
      </trkpt>
      <trkpt lat="48.25151" lon="-3.45703">
        <ele>128.2</ele>
        <time>2022-06-12T13:37:38Z</time>
      </trkpt>
      <trkpt lat="48.25152" lon="-3.45702">
        <ele>128.2</ele>
        <time>2022-06-12T13:37:39Z</time>
      </trkpt>
      <trkpt lat="48.25152" lon="-3.45699">
        <ele>128.2</ele>
        <time>2022-06-12T13:37:41Z</time>
      </trkpt>
      <trkpt lat="48.25154" lon="-3.45698">
        <ele>128.2</ele>
        <time>2022-06-12T13:37:42Z</time>
      </trkpt>
      <trkpt lat="48.25154" lon="-3.45696">
        <ele>128.3</ele>
        <time>2022-06-12T13:37:43Z</time>
      </trkpt>
      <trkpt lat="48.25154" lon="-3.45695">
        <ele>128.3</ele>
        <time>2022-06-12T13:37:44Z</time>
      </trkpt>
      <trkpt lat="48.25154" lon="-3.45693">
        <ele>128.3</ele>
        <time>2022-06-12T13:37:45Z</time>
      </trkpt>
      <trkpt lat="48.25154" lon="-3.45691">
        <ele>128.3</ele>
        <time>2022-06-12T13:37:46Z</time>
      </trkpt>
      <trkpt lat="48.25154" lon="-3.45689">
        <ele>128.3</ele>
        <time>2022-06-12T13:37:47Z</time>
      </trkpt>
      <trkpt lat="48.25154" lon="-3.45685">
        <ele>128.4</ele>
        <time>2022-06-12T13:37:48Z</time>
      </trkpt>
      <trkpt lat="48.25154" lon="-3.45683">
        <ele>128.4</ele>
        <time>2022-06-12T13:37:50Z</time>
      </trkpt>
      <trkpt lat="48.25154" lon="-3.45681">
        <ele>128.4</ele>
        <time>2022-06-12T13:37:51Z</time>
      </trkpt>
      <trkpt lat="48.25154" lon="-3.4568">
        <ele>128.4</ele>
        <time>2022-06-12T13:37:52Z</time>
      </trkpt>
      <trkpt lat="48.25154" lon="-3.45678">
        <ele>128.4</ele>
        <time>2022-06-12T13:37:53Z</time>
      </trkpt>
      <trkpt lat="48.25154" lon="-3.45677">
        <ele>128.4</ele>
        <time>2022-06-12T13:37:54Z</time>
      </trkpt>
      <trkpt lat="48.25154" lon="-3.45675">
        <ele>128.5</ele>
        <time>2022-06-12T13:37:55Z</time>
      </trkpt>
      <trkpt lat="48.25154" lon="-3.45674">
        <ele>128.5</ele>
        <time>2022-06-12T13:37:56Z</time>
      </trkpt>
      <trkpt lat="48.25154" lon="-3.45671">
        <ele>128.5</ele>
        <time>2022-06-12T13:37:57Z</time>
      </trkpt>
      <trkpt lat="48.25154" lon="-3.4567">
        <ele>128.5</ele>
        <time>2022-06-12T13:37:58Z</time>
      </trkpt>
      <trkpt lat="48.25154" lon="-3.45668">
        <ele>128.5</ele>
        <time>2022-06-12T13:37:59Z</time>
      </trkpt>
      <trkpt lat="48.25154" lon="-3.45667">
        <ele>128.5</ele>
        <time>2022-06-12T13:38:00Z</time>
      </trkpt>
      <trkpt lat="48.25154" lon="-3.45665">
        <ele>128.5</ele>
        <time>2022-06-12T13:38:01Z</time>
      </trkpt>
      <trkpt lat="48.25154" lon="-3.45663">
        <ele>128.6</ele>
        <time>2022-06-12T13:38:03Z</time>
      </trkpt>
      <trkpt lat="48.25154" lon="-3.4566">
        <ele>128.6</ele>
        <time>2022-06-12T13:38:04Z</time>
      </trkpt>
      <trkpt lat="48.25154" lon="-3.45659">
        <ele>128.6</ele>
        <time>2022-06-12T13:38:05Z</time>
      </trkpt>
      <trkpt lat="48.25154" lon="-3.45655">
        <ele>128.6</ele>
        <time>2022-06-12T13:38:06Z</time>
      </trkpt>
      <trkpt lat="48.25154" lon="-3.45654">
        <ele>128.6</ele>
        <time>2022-06-12T13:38:07Z</time>
      </trkpt>
      <trkpt lat="48.25154" lon="-3.45652">
        <ele>128.7</ele>
        <time>2022-06-12T13:38:08Z</time>
      </trkpt>
      <trkpt lat="48.25154" lon="-3.45651">
        <ele>128.7</ele>
        <time>2022-06-12T13:38:09Z</time>
      </trkpt>
      <trkpt lat="48.25154" lon="-3.4565">
        <ele>128.7</ele>
        <time>2022-06-12T13:38:10Z</time>
      </trkpt>
      <trkpt lat="48.25153" lon="-3.45648">
        <ele>128.7</ele>
        <time>2022-06-12T13:38:11Z</time>
      </trkpt>
      <trkpt lat="48.25153" lon="-3.45646">
        <ele>128.7</ele>
        <time>2022-06-12T13:38:12Z</time>
      </trkpt>
      <trkpt lat="48.25153" lon="-3.45644">
        <ele>128.7</ele>
        <time>2022-06-12T13:38:13Z</time>
      </trkpt>
      <trkpt lat="48.25153" lon="-3.45642">
        <ele>128.8</ele>
        <time>2022-06-12T13:38:14Z</time>
      </trkpt>
      <trkpt lat="48.25152" lon="-3.4564">
        <ele>128.8</ele>
        <time>2022-06-12T13:38:16Z</time>
      </trkpt>
      <trkpt lat="48.25152" lon="-3.45639">
        <ele>128.8</ele>
        <time>2022-06-12T13:38:17Z</time>
      </trkpt>
      <trkpt lat="48.25152" lon="-3.45637">
        <ele>128.8</ele>
        <time>2022-06-12T13:38:18Z</time>
      </trkpt>
      <trkpt lat="48.25152" lon="-3.45634">
        <ele>128.8</ele>
        <time>2022-06-12T13:38:19Z</time>
      </trkpt>
      <trkpt lat="48.25152" lon="-3.45633">
        <ele>128.8</ele>
        <time>2022-06-12T13:38:20Z</time>
      </trkpt>
      <trkpt lat="48.25151" lon="-3.45631">
        <ele>128.9</ele>
        <time>2022-06-12T13:38:21Z</time>
      </trkpt>
      <trkpt lat="48.25151" lon="-3.4563">
        <ele>128.9</ele>
        <time>2022-06-12T13:38:22Z</time>
      </trkpt>
      <trkpt lat="48.25151" lon="-3.45627">
        <ele>128.9</ele>
        <time>2022-06-12T13:38:23Z</time>
      </trkpt>
      <trkpt lat="48.2515" lon="-3.45625">
        <ele>128.9</ele>
        <time>2022-06-12T13:38:25Z</time>
      </trkpt>
      <trkpt lat="48.2515" lon="-3.45624">
        <ele>128.9</ele>
        <time>2022-06-12T13:38:26Z</time>
      </trkpt>
      <trkpt lat="48.25149" lon="-3.45623">
        <ele>129</ele>
        <time>2022-06-12T13:38:27Z</time>
      </trkpt>
      <trkpt lat="48.25149" lon="-3.4562">
        <ele>129</ele>
        <time>2022-06-12T13:38:29Z</time>
      </trkpt>
      <trkpt lat="48.25149" lon="-3.45619">
        <ele>129</ele>
        <time>2022-06-12T13:38:30Z</time>
      </trkpt>
      <trkpt lat="48.25149" lon="-3.45617">
        <ele>129</ele>
        <time>2022-06-12T13:38:31Z</time>
      </trkpt>
      <trkpt lat="48.25149" lon="-3.45615">
        <ele>129</ele>
        <time>2022-06-12T13:38:32Z</time>
      </trkpt>
      <trkpt lat="48.25149" lon="-3.45612">
        <ele>129</ele>
        <time>2022-06-12T13:38:33Z</time>
      </trkpt>
      <trkpt lat="48.25149" lon="-3.4561">
        <ele>129</ele>
        <time>2022-06-12T13:38:34Z</time>
      </trkpt>
      <trkpt lat="48.25149" lon="-3.45609">
        <ele>129.1</ele>
        <time>2022-06-12T13:38:35Z</time>
      </trkpt>
      <trkpt lat="48.2515" lon="-3.45607">
        <ele>129.1</ele>
        <time>2022-06-12T13:38:37Z</time>
      </trkpt>
      <trkpt lat="48.2515" lon="-3.45606">
        <ele>129.1</ele>
        <time>2022-06-12T13:38:38Z</time>
      </trkpt>
      <trkpt lat="48.2515" lon="-3.45603">
        <ele>129.1</ele>
        <time>2022-06-12T13:38:39Z</time>
      </trkpt>
      <trkpt lat="48.2515" lon="-3.45602">
        <ele>129.1</ele>
        <time>2022-06-12T13:38:40Z</time>
      </trkpt>
      <trkpt lat="48.25151" lon="-3.45599">
        <ele>129.1</ele>
        <time>2022-06-12T13:38:41Z</time>
      </trkpt>
      <trkpt lat="48.25151" lon="-3.45598">
        <ele>129.1</ele>
        <time>2022-06-12T13:38:42Z</time>
      </trkpt>
      <trkpt lat="48.25151" lon="-3.45596">
        <ele>129.1</ele>
        <time>2022-06-12T13:38:43Z</time>
      </trkpt>
      <trkpt lat="48.25151" lon="-3.45595">
        <ele>129.1</ele>
        <time>2022-06-12T13:38:44Z</time>
      </trkpt>
      <trkpt lat="48.25152" lon="-3.45593">
        <ele>129.1</ele>
        <time>2022-06-12T13:38:45Z</time>
      </trkpt>
      <trkpt lat="48.25152" lon="-3.45591">
        <ele>129.1</ele>
        <time>2022-06-12T13:38:46Z</time>
      </trkpt>
      <trkpt lat="48.25152" lon="-3.45586">
        <ele>129.1</ele>
        <time>2022-06-12T13:38:49Z</time>
      </trkpt>
      <trkpt lat="48.25152" lon="-3.45583">
        <ele>129</ele>
        <time>2022-06-12T13:38:51Z</time>
      </trkpt>
      <trkpt lat="48.25152" lon="-3.45581">
        <ele>129</ele>
        <time>2022-06-12T13:38:52Z</time>
      </trkpt>
      <trkpt lat="48.25152" lon="-3.4558">
        <ele>129</ele>
        <time>2022-06-12T13:38:53Z</time>
      </trkpt>
      <trkpt lat="48.25152" lon="-3.45577">
        <ele>129</ele>
        <time>2022-06-12T13:38:54Z</time>
      </trkpt>
      <trkpt lat="48.25151" lon="-3.45575">
        <ele>129</ele>
        <time>2022-06-12T13:38:55Z</time>
      </trkpt>
      <trkpt lat="48.25151" lon="-3.45574">
        <ele>129</ele>
        <time>2022-06-12T13:38:56Z</time>
      </trkpt>
      <trkpt lat="48.25151" lon="-3.45572">
        <ele>129</ele>
        <time>2022-06-12T13:38:58Z</time>
      </trkpt>
      <trkpt lat="48.25151" lon="-3.45569">
        <ele>128.9</ele>
        <time>2022-06-12T13:38:59Z</time>
      </trkpt>
      <trkpt lat="48.25151" lon="-3.45567">
        <ele>128.9</ele>
        <time>2022-06-12T13:39:00Z</time>
      </trkpt>
      <trkpt lat="48.25151" lon="-3.45565">
        <ele>128.9</ele>
        <time>2022-06-12T13:39:01Z</time>
      </trkpt>
      <trkpt lat="48.25151" lon="-3.45563">
        <ele>128.9</ele>
        <time>2022-06-12T13:39:02Z</time>
      </trkpt>
      <trkpt lat="48.25151" lon="-3.45558">
        <ele>128.9</ele>
        <time>2022-06-12T13:39:03Z</time>
      </trkpt>
      <trkpt lat="48.25152" lon="-3.45555">
        <ele>128.9</ele>
        <time>2022-06-12T13:39:05Z</time>
      </trkpt>
      <trkpt lat="48.25152" lon="-3.45553">
        <ele>128.9</ele>
        <time>2022-06-12T13:39:06Z</time>
      </trkpt>
      <trkpt lat="48.25152" lon="-3.45551">
        <ele>128.8</ele>
        <time>2022-06-12T13:39:07Z</time>
      </trkpt>
      <trkpt lat="48.25152" lon="-3.45549">
        <ele>128.8</ele>
        <time>2022-06-12T13:39:08Z</time>
      </trkpt>
      <trkpt lat="48.25152" lon="-3.45546">
        <ele>128.8</ele>
        <time>2022-06-12T13:39:09Z</time>
      </trkpt>
      <trkpt lat="48.25152" lon="-3.45544">
        <ele>128.8</ele>
        <time>2022-06-12T13:39:10Z</time>
      </trkpt>
      <trkpt lat="48.25152" lon="-3.4554">
        <ele>128.8</ele>
        <time>2022-06-12T13:39:12Z</time>
      </trkpt>
      <trkpt lat="48.25152" lon="-3.45539">
        <ele>128.8</ele>
        <time>2022-06-12T13:39:13Z</time>
      </trkpt>
      <trkpt lat="48.25152" lon="-3.45536">
        <ele>128.8</ele>
        <time>2022-06-12T13:39:14Z</time>
      </trkpt>
      <trkpt lat="48.25152" lon="-3.45533">
        <ele>128.8</ele>
        <time>2022-06-12T13:39:16Z</time>
      </trkpt>
      <trkpt lat="48.25152" lon="-3.4553">
        <ele>128.8</ele>
        <time>2022-06-12T13:39:17Z</time>
      </trkpt>
      <trkpt lat="48.25152" lon="-3.45528">
        <ele>128.8</ele>
        <time>2022-06-12T13:39:18Z</time>
      </trkpt>
      <trkpt lat="48.25152" lon="-3.45527">
        <ele>128.8</ele>
        <time>2022-06-12T13:39:19Z</time>
      </trkpt>
      <trkpt lat="48.25151" lon="-3.45524">
        <ele>128.8</ele>
        <time>2022-06-12T13:39:20Z</time>
      </trkpt>
      <trkpt lat="48.25151" lon="-3.45523">
        <ele>128.8</ele>
        <time>2022-06-12T13:39:21Z</time>
      </trkpt>
      <trkpt lat="48.25151" lon="-3.45521">
        <ele>128.8</ele>
        <time>2022-06-12T13:39:22Z</time>
      </trkpt>
      <trkpt lat="48.25151" lon="-3.4552">
        <ele>128.8</ele>
        <time>2022-06-12T13:39:23Z</time>
      </trkpt>
      <trkpt lat="48.25151" lon="-3.45519">
        <ele>128.8</ele>
        <time>2022-06-12T13:39:24Z</time>
      </trkpt>
      <trkpt lat="48.25151" lon="-3.45517">
        <ele>128.8</ele>
        <time>2022-06-12T13:39:26Z</time>
      </trkpt>
      <trkpt lat="48.25151" lon="-3.45516">
        <ele>128.8</ele>
        <time>2022-06-12T13:39:27Z</time>
      </trkpt>
      <trkpt lat="48.25151" lon="-3.45514">
        <ele>128.9</ele>
        <time>2022-06-12T13:39:28Z</time>
      </trkpt>
      <trkpt lat="48.25151" lon="-3.45512">
        <ele>128.9</ele>
        <time>2022-06-12T13:39:29Z</time>
      </trkpt>
      <trkpt lat="48.25152" lon="-3.4551">
        <ele>128.9</ele>
        <time>2022-06-12T13:39:30Z</time>
      </trkpt>
      <trkpt lat="48.25152" lon="-3.45507">
        <ele>128.9</ele>
        <time>2022-06-12T13:39:31Z</time>
      </trkpt>
      <trkpt lat="48.25152" lon="-3.45506">
        <ele>128.9</ele>
        <time>2022-06-12T13:39:33Z</time>
      </trkpt>
      <trkpt lat="48.25152" lon="-3.45504">
        <ele>128.9</ele>
        <time>2022-06-12T13:39:34Z</time>
      </trkpt>
      <trkpt lat="48.25152" lon="-3.45504">
        <ele>128.9</ele>
        <time>2022-06-12T13:39:35Z</time>
      </trkpt>
      <trkpt lat="48.25153" lon="-3.45503">
        <ele>128.9</ele>
        <time>2022-06-12T13:39:36Z</time>
      </trkpt>
      <trkpt lat="48.25154" lon="-3.45503">
        <ele>128.9</ele>
        <time>2022-06-12T13:39:37Z</time>
      </trkpt>
      <trkpt lat="48.25155" lon="-3.45502">
        <ele>128.9</ele>
        <time>2022-06-12T13:39:38Z</time>
      </trkpt>
      <trkpt lat="48.25155" lon="-3.455">
        <ele>128.9</ele>
        <time>2022-06-12T13:39:39Z</time>
      </trkpt>
      <trkpt lat="48.25155" lon="-3.45499">
        <ele>128.9</ele>
        <time>2022-06-12T13:39:40Z</time>
      </trkpt>
      <trkpt lat="48.25155" lon="-3.45497">
        <ele>129</ele>
        <time>2022-06-12T13:39:41Z</time>
      </trkpt>
      <trkpt lat="48.25155" lon="-3.45495">
        <ele>129</ele>
        <time>2022-06-12T13:39:42Z</time>
      </trkpt>
      <trkpt lat="48.25155" lon="-3.45492">
        <ele>129</ele>
        <time>2022-06-12T13:39:44Z</time>
      </trkpt>
      <trkpt lat="48.25155" lon="-3.4549">
        <ele>129</ele>
        <time>2022-06-12T13:39:45Z</time>
      </trkpt>
      <trkpt lat="48.25155" lon="-3.45488">
        <ele>129</ele>
        <time>2022-06-12T13:39:46Z</time>
      </trkpt>
      <trkpt lat="48.25155" lon="-3.45487">
        <ele>129</ele>
        <time>2022-06-12T13:39:47Z</time>
      </trkpt>
      <trkpt lat="48.25155" lon="-3.45485">
        <ele>129</ele>
        <time>2022-06-12T13:39:48Z</time>
      </trkpt>
      <trkpt lat="48.25155" lon="-3.45483">
        <ele>129</ele>
        <time>2022-06-12T13:39:49Z</time>
      </trkpt>
      <trkpt lat="48.25154" lon="-3.45481">
        <ele>129</ele>
        <time>2022-06-12T13:39:50Z</time>
      </trkpt>
      <trkpt lat="48.25154" lon="-3.45479">
        <ele>129</ele>
        <time>2022-06-12T13:39:52Z</time>
      </trkpt>
      <trkpt lat="48.25154" lon="-3.45477">
        <ele>129</ele>
        <time>2022-06-12T13:39:53Z</time>
      </trkpt>
      <trkpt lat="48.25154" lon="-3.45475">
        <ele>129</ele>
        <time>2022-06-12T13:39:54Z</time>
      </trkpt>
      <trkpt lat="48.25154" lon="-3.45475">
        <ele>129</ele>
        <time>2022-06-12T13:39:55Z</time>
      </trkpt>
      <trkpt lat="48.25153" lon="-3.45475">
        <ele>129</ele>
        <time>2022-06-12T13:39:56Z</time>
      </trkpt>
      <trkpt lat="48.25153" lon="-3.45476">
        <ele>129</ele>
        <time>2022-06-12T13:39:58Z</time>
      </trkpt>
      <trkpt lat="48.25153" lon="-3.45478">
        <ele>129</ele>
        <time>2022-06-12T13:39:59Z</time>
      </trkpt>
      <trkpt lat="48.25153" lon="-3.45478">
        <ele>129</ele>
        <time>2022-06-12T13:40:00Z</time>
      </trkpt>
      <trkpt lat="48.25153" lon="-3.45479">
        <ele>129</ele>
        <time>2022-06-12T13:40:01Z</time>
      </trkpt>
      <trkpt lat="48.25153" lon="-3.4548">
        <ele>129</ele>
        <time>2022-06-12T13:40:03Z</time>
      </trkpt>
      <trkpt lat="48.25153" lon="-3.4548">
        <ele>129</ele>
        <time>2022-06-12T13:40:04Z</time>
      </trkpt>
      <trkpt lat="48.25152" lon="-3.4548">
        <ele>129</ele>
        <time>2022-06-12T13:40:05Z</time>
      </trkpt>
      <trkpt lat="48.25152" lon="-3.4548">
        <ele>129</ele>
        <time>2022-06-12T13:40:06Z</time>
      </trkpt>
      <trkpt lat="48.25152" lon="-3.4548">
        <ele>129</ele>
        <time>2022-06-12T13:40:07Z</time>
      </trkpt>
      <trkpt lat="48.25152" lon="-3.4548">
        <ele>129</ele>
        <time>2022-06-12T13:40:08Z</time>
      </trkpt>
      <trkpt lat="48.25152" lon="-3.4548">
        <ele>129</ele>
        <time>2022-06-12T13:40:09Z</time>
      </trkpt>
      <trkpt lat="48.25152" lon="-3.4548">
        <ele>129</ele>
        <time>2022-06-12T13:40:10Z</time>
      </trkpt>
      <trkpt lat="48.25152" lon="-3.4548">
        <ele>129</ele>
        <time>2022-06-12T13:40:11Z</time>
      </trkpt>
      <trkpt lat="48.25152" lon="-3.4548">
        <ele>129</ele>
        <time>2022-06-12T13:40:12Z</time>
      </trkpt>
      <trkpt lat="48.25152" lon="-3.4548">
        <ele>129</ele>
        <time>2022-06-12T13:40:13Z</time>
      </trkpt>
      <trkpt lat="48.25151" lon="-3.4548">
        <ele>129</ele>
        <time>2022-06-12T13:40:14Z</time>
      </trkpt>
      <trkpt lat="48.25151" lon="-3.4548">
        <ele>129</ele>
        <time>2022-06-12T13:40:15Z</time>
      </trkpt>
      <trkpt lat="48.25151" lon="-3.45479">
        <ele>129</ele>
        <time>2022-06-12T13:40:16Z</time>
      </trkpt>
      <trkpt lat="48.25151" lon="-3.45479">
        <ele>129.1</ele>
        <time>2022-06-12T13:40:17Z</time>
      </trkpt>
      <trkpt lat="48.25151" lon="-3.45479">
        <ele>129.1</ele>
        <time>2022-06-12T13:40:18Z</time>
      </trkpt>
      <trkpt lat="48.25151" lon="-3.45479">
        <ele>129.1</ele>
        <time>2022-06-12T13:40:19Z</time>
      </trkpt>
      <trkpt lat="48.25151" lon="-3.45479">
        <ele>129.1</ele>
        <time>2022-06-12T13:40:20Z</time>
      </trkpt>
      <trkpt lat="48.25151" lon="-3.45479">
        <ele>129.1</ele>
        <time>2022-06-12T13:40:21Z</time>
      </trkpt>
      <trkpt lat="48.25151" lon="-3.45479">
        <ele>129.1</ele>
        <time>2022-06-12T13:40:22Z</time>
      </trkpt>
      <trkpt lat="48.25151" lon="-3.45479">
        <ele>129.1</ele>
        <time>2022-06-12T13:40:23Z</time>
      </trkpt>
      <trkpt lat="48.25151" lon="-3.45479">
        <ele>129.1</ele>
        <time>2022-06-12T13:40:24Z</time>
      </trkpt>
      <trkpt lat="48.25151" lon="-3.45479">
        <ele>129.1</ele>
        <time>2022-06-12T13:40:25Z</time>
      </trkpt>
      <trkpt lat="48.25151" lon="-3.45479">
        <ele>129.1</ele>
        <time>2022-06-12T13:40:26Z</time>
      </trkpt>
      <trkpt lat="48.25151" lon="-3.45479">
        <ele>129.1</ele>
        <time>2022-06-12T13:40:27Z</time>
      </trkpt>
      <trkpt lat="48.25151" lon="-3.45479">
        <ele>129.1</ele>
        <time>2022-06-12T13:40:28Z</time>
      </trkpt>
      <trkpt lat="48.25151" lon="-3.45479">
        <ele>129.1</ele>
        <time>2022-06-12T13:40:29Z</time>
      </trkpt>
      <trkpt lat="48.25151" lon="-3.45479">
        <ele>129.1</ele>
        <time>2022-06-12T13:40:30Z</time>
      </trkpt>
      <trkpt lat="48.25151" lon="-3.45479">
        <ele>129.1</ele>
        <time>2022-06-12T13:40:31Z</time>
      </trkpt>
      <trkpt lat="48.25151" lon="-3.45479">
        <ele>129.1</ele>
        <time>2022-06-12T13:40:32Z</time>
      </trkpt>
      <trkpt lat="48.25151" lon="-3.45479">
        <ele>129.1</ele>
        <time>2022-06-12T13:40:33Z</time>
      </trkpt>
      <trkpt lat="48.25151" lon="-3.45479">
        <ele>129.1</ele>
        <time>2022-06-12T13:40:34Z</time>
      </trkpt>
      <trkpt lat="48.25151" lon="-3.45479">
        <ele>129.1</ele>
        <time>2022-06-12T13:40:35Z</time>
      </trkpt>
      <trkpt lat="48.25151" lon="-3.45479">
        <ele>129.1</ele>
        <time>2022-06-12T13:40:36Z</time>
      </trkpt>
      <trkpt lat="48.25151" lon="-3.45479">
        <ele>129.1</ele>
        <time>2022-06-12T13:40:37Z</time>
      </trkpt>
      <trkpt lat="48.25151" lon="-3.45479">
        <ele>129.1</ele>
        <time>2022-06-12T13:40:38Z</time>
      </trkpt>
      <trkpt lat="48.25151" lon="-3.45479">
        <ele>129.1</ele>
        <time>2022-06-12T13:40:39Z</time>
      </trkpt>
      <trkpt lat="48.25151" lon="-3.45479">
        <ele>129.1</ele>
        <time>2022-06-12T13:40:40Z</time>
      </trkpt>
      <trkpt lat="48.25151" lon="-3.45479">
        <ele>129.1</ele>
        <time>2022-06-12T13:40:41Z</time>
      </trkpt>
      <trkpt lat="48.25151" lon="-3.45479">
        <ele>129.1</ele>
        <time>2022-06-12T13:40:42Z</time>
      </trkpt>
      <trkpt lat="48.25151" lon="-3.45479">
        <ele>129.1</ele>
        <time>2022-06-12T13:40:43Z</time>
      </trkpt>
      <trkpt lat="48.25151" lon="-3.45479">
        <ele>129.1</ele>
        <time>2022-06-12T13:40:44Z</time>
      </trkpt>
      <trkpt lat="48.25151" lon="-3.45479">
        <ele>129.1</ele>
        <time>2022-06-12T13:40:45Z</time>
      </trkpt>
      <trkpt lat="48.25151" lon="-3.45479">
        <ele>129.1</ele>
        <time>2022-06-12T13:40:46Z</time>
      </trkpt>
      <trkpt lat="48.25151" lon="-3.45479">
        <ele>129.1</ele>
        <time>2022-06-12T13:40:47Z</time>
      </trkpt>
      <trkpt lat="48.25151" lon="-3.45479">
        <ele>129.1</ele>
        <time>2022-06-12T13:40:48Z</time>
      </trkpt>
      <trkpt lat="48.25151" lon="-3.45479">
        <ele>129.1</ele>
        <time>2022-06-12T13:40:49Z</time>
      </trkpt>
      <trkpt lat="48.25151" lon="-3.45479">
        <ele>129.1</ele>
        <time>2022-06-12T13:40:50Z</time>
      </trkpt>
      <trkpt lat="48.25151" lon="-3.45479">
        <ele>129.1</ele>
        <time>2022-06-12T13:40:51Z</time>
      </trkpt>
      <trkpt lat="48.25151" lon="-3.45479">
        <ele>129.1</ele>
        <time>2022-06-12T13:40:52Z</time>
      </trkpt>
      <trkpt lat="48.25151" lon="-3.45479">
        <ele>129.1</ele>
        <time>2022-06-12T13:40:53Z</time>
      </trkpt>
      <trkpt lat="48.25151" lon="-3.45479">
        <ele>129.1</ele>
        <time>2022-06-12T13:40:54Z</time>
      </trkpt>
      <trkpt lat="48.25151" lon="-3.45479">
        <ele>129.1</ele>
        <time>2022-06-12T13:40:55Z</time>
      </trkpt>
      <trkpt lat="48.25151" lon="-3.45479">
        <ele>129.1</ele>
        <time>2022-06-12T13:40:56Z</time>
      </trkpt>
      <trkpt lat="48.25151" lon="-3.45479">
        <ele>129.1</ele>
        <time>2022-06-12T13:40:57Z</time>
      </trkpt>
      <trkpt lat="48.25151" lon="-3.45479">
        <ele>129.1</ele>
        <time>2022-06-12T13:40:58Z</time>
      </trkpt>
      <trkpt lat="48.25151" lon="-3.45479">
        <ele>129.1</ele>
        <time>2022-06-12T13:40:59Z</time>
      </trkpt>
      <trkpt lat="48.25151" lon="-3.45479">
        <ele>129.1</ele>
        <time>2022-06-12T13:41:00Z</time>
      </trkpt>
      <trkpt lat="48.25151" lon="-3.45479">
        <ele>129.1</ele>
        <time>2022-06-12T13:41:01Z</time>
      </trkpt>
      <trkpt lat="48.25151" lon="-3.45479">
        <ele>129.1</ele>
        <time>2022-06-12T13:41:02Z</time>
      </trkpt>
      <trkpt lat="48.25151" lon="-3.45479">
        <ele>129.1</ele>
        <time>2022-06-12T13:41:03Z</time>
      </trkpt>
      <trkpt lat="48.25151" lon="-3.45479">
        <ele>129.1</ele>
        <time>2022-06-12T13:41:04Z</time>
      </trkpt>
      <trkpt lat="48.25151" lon="-3.45479">
        <ele>129.1</ele>
        <time>2022-06-12T13:41:05Z</time>
      </trkpt>
      <trkpt lat="48.25151" lon="-3.45479">
        <ele>129.1</ele>
        <time>2022-06-12T13:41:06Z</time>
      </trkpt>
      <trkpt lat="48.25151" lon="-3.45479">
        <ele>129.1</ele>
        <time>2022-06-12T13:41:07Z</time>
      </trkpt>
      <trkpt lat="48.25151" lon="-3.45479">
        <ele>129.1</ele>
        <time>2022-06-12T13:41:08Z</time>
      </trkpt>
      <trkpt lat="48.25151" lon="-3.45479">
        <ele>129.1</ele>
        <time>2022-06-12T13:41:09Z</time>
      </trkpt>
      <trkpt lat="48.25151" lon="-3.45479">
        <ele>129.1</ele>
        <time>2022-06-12T13:41:10Z</time>
      </trkpt>
      <trkpt lat="48.25151" lon="-3.45479">
        <ele>129.1</ele>
        <time>2022-06-12T13:41:11Z</time>
      </trkpt>
      <trkpt lat="48.25151" lon="-3.45479">
        <ele>129.1</ele>
        <time>2022-06-12T13:41:12Z</time>
      </trkpt>
      <trkpt lat="48.25151" lon="-3.45479">
        <ele>129.1</ele>
        <time>2022-06-12T13:41:13Z</time>
      </trkpt>
      <trkpt lat="48.25151" lon="-3.45479">
        <ele>129.1</ele>
        <time>2022-06-12T13:41:14Z</time>
      </trkpt>
      <trkpt lat="48.25151" lon="-3.45479">
        <ele>129.1</ele>
        <time>2022-06-12T13:41:15Z</time>
      </trkpt>
      <trkpt lat="48.25151" lon="-3.45479">
        <ele>129.1</ele>
        <time>2022-06-12T13:41:16Z</time>
      </trkpt>
      <trkpt lat="48.25151" lon="-3.45479">
        <ele>129.1</ele>
        <time>2022-06-12T13:41:17Z</time>
      </trkpt>
      <trkpt lat="48.25151" lon="-3.45479">
        <ele>129.1</ele>
        <time>2022-06-12T13:41:18Z</time>
      </trkpt>
      <trkpt lat="48.25151" lon="-3.45479">
        <ele>129.1</ele>
        <time>2022-06-12T13:41:19Z</time>
      </trkpt>
      <trkpt lat="48.25151" lon="-3.45479">
        <ele>129.1</ele>
        <time>2022-06-12T13:41:20Z</time>
      </trkpt>
      <trkpt lat="48.25151" lon="-3.45479">
        <ele>129.1</ele>
        <time>2022-06-12T13:41:21Z</time>
      </trkpt>
      <trkpt lat="48.25151" lon="-3.45479">
        <ele>129.1</ele>
        <time>2022-06-12T13:41:22Z</time>
      </trkpt>
      <trkpt lat="48.25151" lon="-3.45479">
        <ele>129.1</ele>
        <time>2022-06-12T13:41:23Z</time>
      </trkpt>
      <trkpt lat="48.25151" lon="-3.45479">
        <ele>129.1</ele>
        <time>2022-06-12T13:41:24Z</time>
      </trkpt>
      <trkpt lat="48.25151" lon="-3.45479">
        <ele>129.1</ele>
        <time>2022-06-12T13:41:25Z</time>
      </trkpt>
      <trkpt lat="48.25151" lon="-3.45479">
        <ele>129.1</ele>
        <time>2022-06-12T13:41:26Z</time>
      </trkpt>
      <trkpt lat="48.25151" lon="-3.45479">
        <ele>129.1</ele>
        <time>2022-06-12T13:41:27Z</time>
      </trkpt>
      <trkpt lat="48.25151" lon="-3.45479">
        <ele>129.1</ele>
        <time>2022-06-12T13:41:28Z</time>
      </trkpt>
      <trkpt lat="48.25151" lon="-3.45479">
        <ele>129.1</ele>
        <time>2022-06-12T13:41:29Z</time>
      </trkpt>
      <trkpt lat="48.25151" lon="-3.45479">
        <ele>129.1</ele>
        <time>2022-06-12T13:41:30Z</time>
      </trkpt>
      <trkpt lat="48.25151" lon="-3.45479">
        <ele>129.1</ele>
        <time>2022-06-12T13:41:31Z</time>
      </trkpt>
      <trkpt lat="48.25151" lon="-3.45479">
        <ele>129.1</ele>
        <time>2022-06-12T13:41:32Z</time>
      </trkpt>
      <trkpt lat="48.25151" lon="-3.45479">
        <ele>129.1</ele>
        <time>2022-06-12T13:41:33Z</time>
      </trkpt>
      <trkpt lat="48.25151" lon="-3.45479">
        <ele>129.1</ele>
        <time>2022-06-12T13:41:34Z</time>
      </trkpt>
      <trkpt lat="48.25151" lon="-3.45479">
        <ele>129.1</ele>
        <time>2022-06-12T13:41:35Z</time>
      </trkpt>
      <trkpt lat="48.25151" lon="-3.45479">
        <ele>129.1</ele>
        <time>2022-06-12T13:41:36Z</time>
      </trkpt>
      <trkpt lat="48.25151" lon="-3.45479">
        <ele>129.1</ele>
        <time>2022-06-12T13:41:37Z</time>
      </trkpt>
      <trkpt lat="48.25151" lon="-3.45479">
        <ele>129.1</ele>
        <time>2022-06-12T13:41:38Z</time>
      </trkpt>
      <trkpt lat="48.25151" lon="-3.45479">
        <ele>129.1</ele>
        <time>2022-06-12T13:41:39Z</time>
      </trkpt>
      <trkpt lat="48.25151" lon="-3.45479">
        <ele>129.1</ele>
        <time>2022-06-12T13:41:40Z</time>
      </trkpt>
      <trkpt lat="48.25151" lon="-3.45479">
        <ele>129.1</ele>
        <time>2022-06-12T13:41:41Z</time>
      </trkpt>
      <trkpt lat="48.25151" lon="-3.45479">
        <ele>129.1</ele>
        <time>2022-06-12T13:41:42Z</time>
      </trkpt>
      <trkpt lat="48.25151" lon="-3.45479">
        <ele>129.1</ele>
        <time>2022-06-12T13:41:43Z</time>
      </trkpt>
      <trkpt lat="48.25151" lon="-3.45479">
        <ele>129.1</ele>
        <time>2022-06-12T13:41:44Z</time>
      </trkpt>
      <trkpt lat="48.25151" lon="-3.45479">
        <ele>129.1</ele>
        <time>2022-06-12T13:41:45Z</time>
      </trkpt>
      <trkpt lat="48.25151" lon="-3.45479">
        <ele>129.1</ele>
        <time>2022-06-12T13:41:46Z</time>
      </trkpt>
      <trkpt lat="48.25151" lon="-3.45479">
        <ele>129.1</ele>
        <time>2022-06-12T13:41:47Z</time>
      </trkpt>
      <trkpt lat="48.25151" lon="-3.45479">
        <ele>129.1</ele>
        <time>2022-06-12T13:41:48Z</time>
      </trkpt>
      <trkpt lat="48.25151" lon="-3.45479">
        <ele>129.1</ele>
        <time>2022-06-12T13:41:49Z</time>
      </trkpt>
      <trkpt lat="48.25151" lon="-3.45479">
        <ele>129.1</ele>
        <time>2022-06-12T13:41:50Z</time>
      </trkpt>
      <trkpt lat="48.2515" lon="-3.4548">
        <ele>129.1</ele>
        <time>2022-06-12T13:41:51Z</time>
      </trkpt>
      <trkpt lat="48.2515" lon="-3.45481">
        <ele>129.1</ele>
        <time>2022-06-12T13:41:52Z</time>
      </trkpt>
      <trkpt lat="48.25149" lon="-3.45482">
        <ele>129.1</ele>
        <time>2022-06-12T13:41:53Z</time>
      </trkpt>
      <trkpt lat="48.25149" lon="-3.45482">
        <ele>129.1</ele>
        <time>2022-06-12T13:41:54Z</time>
      </trkpt>
      <trkpt lat="48.25149" lon="-3.45482">
        <ele>129.1</ele>
        <time>2022-06-12T13:41:55Z</time>
      </trkpt>
      <trkpt lat="48.25149" lon="-3.45482">
        <ele>129.1</ele>
        <time>2022-06-12T13:41:56Z</time>
      </trkpt>
      <trkpt lat="48.25149" lon="-3.45482">
        <ele>129.1</ele>
        <time>2022-06-12T13:41:57Z</time>
      </trkpt>
      <trkpt lat="48.25149" lon="-3.45482">
        <ele>129.1</ele>
        <time>2022-06-12T13:41:58Z</time>
      </trkpt>
      <trkpt lat="48.25149" lon="-3.45482">
        <ele>129.1</ele>
        <time>2022-06-12T13:41:59Z</time>
      </trkpt>
      <trkpt lat="48.25149" lon="-3.45482">
        <ele>129.1</ele>
        <time>2022-06-12T13:42:00Z</time>
      </trkpt>
      <trkpt lat="48.25149" lon="-3.45482">
        <ele>129.1</ele>
        <time>2022-06-12T13:42:01Z</time>
      </trkpt>
      <trkpt lat="48.25149" lon="-3.45482">
        <ele>129.1</ele>
        <time>2022-06-12T13:42:02Z</time>
      </trkpt>
      <trkpt lat="48.25149" lon="-3.45482">
        <ele>129.1</ele>
        <time>2022-06-12T13:42:03Z</time>
      </trkpt>
      <trkpt lat="48.25149" lon="-3.45482">
        <ele>129.1</ele>
        <time>2022-06-12T13:42:04Z</time>
      </trkpt>
      <trkpt lat="48.25149" lon="-3.45482">
        <ele>129.1</ele>
        <time>2022-06-12T13:42:05Z</time>
      </trkpt>
      <trkpt lat="48.25149" lon="-3.45482">
        <ele>129.1</ele>
        <time>2022-06-12T13:42:06Z</time>
      </trkpt>
      <trkpt lat="48.25149" lon="-3.45482">
        <ele>129.1</ele>
        <time>2022-06-12T13:42:07Z</time>
      </trkpt>
      <trkpt lat="48.25149" lon="-3.45482">
        <ele>129.1</ele>
        <time>2022-06-12T13:42:08Z</time>
      </trkpt>
      <trkpt lat="48.25149" lon="-3.45482">
        <ele>129.1</ele>
        <time>2022-06-12T13:42:09Z</time>
      </trkpt>
      <trkpt lat="48.25149" lon="-3.45482">
        <ele>129.1</ele>
        <time>2022-06-12T13:42:10Z</time>
      </trkpt>
      <trkpt lat="48.25149" lon="-3.45482">
        <ele>129.1</ele>
        <time>2022-06-12T13:42:11Z</time>
      </trkpt>
      <trkpt lat="48.25149" lon="-3.45482">
        <ele>129.1</ele>
        <time>2022-06-12T13:42:12Z</time>
      </trkpt>
      <trkpt lat="48.25149" lon="-3.45482">
        <ele>129.1</ele>
        <time>2022-06-12T13:42:13Z</time>
      </trkpt>
      <trkpt lat="48.25149" lon="-3.45482">
        <ele>129.1</ele>
        <time>2022-06-12T13:42:14Z</time>
      </trkpt>
      <trkpt lat="48.25149" lon="-3.45482">
        <ele>129.1</ele>
        <time>2022-06-12T13:42:15Z</time>
      </trkpt>
      <trkpt lat="48.25149" lon="-3.45482">
        <ele>129.1</ele>
        <time>2022-06-12T13:42:16Z</time>
      </trkpt>
      <trkpt lat="48.25149" lon="-3.45482">
        <ele>129.1</ele>
        <time>2022-06-12T13:42:17Z</time>
      </trkpt>
      <trkpt lat="48.25149" lon="-3.45482">
        <ele>129.1</ele>
        <time>2022-06-12T13:42:18Z</time>
      </trkpt>
      <trkpt lat="48.25149" lon="-3.45481">
        <ele>129.1</ele>
        <time>2022-06-12T13:42:19Z</time>
      </trkpt>
      <trkpt lat="48.25149" lon="-3.45481">
        <ele>129.1</ele>
        <time>2022-06-12T13:42:20Z</time>
      </trkpt>
      <trkpt lat="48.2515" lon="-3.45481">
        <ele>129.1</ele>
        <time>2022-06-12T13:42:21Z</time>
      </trkpt>
      <trkpt lat="48.2515" lon="-3.45483">
        <ele>129.1</ele>
        <time>2022-06-12T13:42:22Z</time>
      </trkpt>
      <trkpt lat="48.25151" lon="-3.45483">
        <ele>129.1</ele>
        <time>2022-06-12T13:42:23Z</time>
      </trkpt>
      <trkpt lat="48.25151" lon="-3.45484">
        <ele>129.1</ele>
        <time>2022-06-12T13:42:24Z</time>
      </trkpt>
      <trkpt lat="48.25151" lon="-3.45484">
        <ele>129.1</ele>
        <time>2022-06-12T13:42:25Z</time>
      </trkpt>
      <trkpt lat="48.25151" lon="-3.45484">
        <ele>129.1</ele>
        <time>2022-06-12T13:42:26Z</time>
      </trkpt>
      <trkpt lat="48.25151" lon="-3.45484">
        <ele>129.1</ele>
        <time>2022-06-12T13:42:27Z</time>
      </trkpt>
      <trkpt lat="48.25151" lon="-3.45484">
        <ele>129.1</ele>
        <time>2022-06-12T13:42:28Z</time>
      </trkpt>
      <trkpt lat="48.25151" lon="-3.45484">
        <ele>129.1</ele>
        <time>2022-06-12T13:42:29Z</time>
      </trkpt>
      <trkpt lat="48.25151" lon="-3.45484">
        <ele>129.1</ele>
        <time>2022-06-12T13:42:30Z</time>
      </trkpt>
      <trkpt lat="48.25151" lon="-3.45484">
        <ele>129.1</ele>
        <time>2022-06-12T13:42:31Z</time>
      </trkpt>
      <trkpt lat="48.25151" lon="-3.45484">
        <ele>129.1</ele>
        <time>2022-06-12T13:42:32Z</time>
      </trkpt>
      <trkpt lat="48.25151" lon="-3.45484">
        <ele>129.1</ele>
        <time>2022-06-12T13:42:33Z</time>
      </trkpt>
      <trkpt lat="48.25151" lon="-3.45484">
        <ele>129.1</ele>
        <time>2022-06-12T13:42:34Z</time>
      </trkpt>
      <trkpt lat="48.25151" lon="-3.45484">
        <ele>129.1</ele>
        <time>2022-06-12T13:42:35Z</time>
      </trkpt>
      <trkpt lat="48.25151" lon="-3.45484">
        <ele>129.1</ele>
        <time>2022-06-12T13:42:36Z</time>
      </trkpt>
      <trkpt lat="48.25151" lon="-3.45484">
        <ele>129.1</ele>
        <time>2022-06-12T13:42:37Z</time>
      </trkpt>
      <trkpt lat="48.25151" lon="-3.45484">
        <ele>129.1</ele>
        <time>2022-06-12T13:42:38Z</time>
      </trkpt>
      <trkpt lat="48.25151" lon="-3.45484">
        <ele>129.1</ele>
        <time>2022-06-12T13:42:39Z</time>
      </trkpt>
      <trkpt lat="48.25151" lon="-3.45484">
        <ele>129.1</ele>
        <time>2022-06-12T13:42:40Z</time>
      </trkpt>
      <trkpt lat="48.25151" lon="-3.45484">
        <ele>129.1</ele>
        <time>2022-06-12T13:42:41Z</time>
      </trkpt>
      <trkpt lat="48.25151" lon="-3.45484">
        <ele>129.1</ele>
        <time>2022-06-12T13:42:42Z</time>
      </trkpt>
      <trkpt lat="48.25151" lon="-3.45484">
        <ele>129.1</ele>
        <time>2022-06-12T13:42:43Z</time>
      </trkpt>
      <trkpt lat="48.25151" lon="-3.45484">
        <ele>129.1</ele>
        <time>2022-06-12T13:42:44Z</time>
      </trkpt>
      <trkpt lat="48.25151" lon="-3.45484">
        <ele>129.1</ele>
        <time>2022-06-12T13:42:45Z</time>
      </trkpt>
      <trkpt lat="48.25151" lon="-3.45484">
        <ele>129.1</ele>
        <time>2022-06-12T13:42:46Z</time>
      </trkpt>
      <trkpt lat="48.25151" lon="-3.45484">
        <ele>129.1</ele>
        <time>2022-06-12T13:42:47Z</time>
      </trkpt>
      <trkpt lat="48.25151" lon="-3.45484">
        <ele>129.1</ele>
        <time>2022-06-12T13:42:48Z</time>
      </trkpt>
      <trkpt lat="48.25151" lon="-3.45484">
        <ele>129.1</ele>
        <time>2022-06-12T13:42:49Z</time>
      </trkpt>
      <trkpt lat="48.25151" lon="-3.45484">
        <ele>129.1</ele>
        <time>2022-06-12T13:42:50Z</time>
      </trkpt>
      <trkpt lat="48.25151" lon="-3.45484">
        <ele>129.1</ele>
        <time>2022-06-12T13:42:51Z</time>
      </trkpt>
      <trkpt lat="48.25151" lon="-3.45484">
        <ele>129.1</ele>
        <time>2022-06-12T13:42:52Z</time>
      </trkpt>
      <trkpt lat="48.25151" lon="-3.45484">
        <ele>129.1</ele>
        <time>2022-06-12T13:42:53Z</time>
      </trkpt>
      <trkpt lat="48.25151" lon="-3.45484">
        <ele>129.1</ele>
        <time>2022-06-12T13:42:54Z</time>
      </trkpt>
      <trkpt lat="48.25151" lon="-3.45484">
        <ele>129.1</ele>
        <time>2022-06-12T13:42:55Z</time>
      </trkpt>
      <trkpt lat="48.25151" lon="-3.45484">
        <ele>129.1</ele>
        <time>2022-06-12T13:42:56Z</time>
      </trkpt>
      <trkpt lat="48.25151" lon="-3.45484">
        <ele>129.1</ele>
        <time>2022-06-12T13:42:57Z</time>
      </trkpt>
      <trkpt lat="48.25151" lon="-3.45484">
        <ele>129.1</ele>
        <time>2022-06-12T13:42:58Z</time>
      </trkpt>
      <trkpt lat="48.25151" lon="-3.45484">
        <ele>129.1</ele>
        <time>2022-06-12T13:42:59Z</time>
      </trkpt>
      <trkpt lat="48.25151" lon="-3.45484">
        <ele>129.1</ele>
        <time>2022-06-12T13:43:00Z</time>
      </trkpt>
      <trkpt lat="48.25151" lon="-3.45484">
        <ele>129.1</ele>
        <time>2022-06-12T13:43:01Z</time>
      </trkpt>
      <trkpt lat="48.25151" lon="-3.45484">
        <ele>129.1</ele>
        <time>2022-06-12T13:43:02Z</time>
      </trkpt>
      <trkpt lat="48.25151" lon="-3.45484">
        <ele>129.1</ele>
        <time>2022-06-12T13:43:03Z</time>
      </trkpt>
      <trkpt lat="48.25151" lon="-3.45484">
        <ele>129.1</ele>
        <time>2022-06-12T13:43:04Z</time>
      </trkpt>
      <trkpt lat="48.25151" lon="-3.45484">
        <ele>129.1</ele>
        <time>2022-06-12T13:43:05Z</time>
      </trkpt>
      <trkpt lat="48.25151" lon="-3.45484">
        <ele>129.1</ele>
        <time>2022-06-12T13:43:06Z</time>
      </trkpt>
      <trkpt lat="48.25151" lon="-3.45484">
        <ele>129.1</ele>
        <time>2022-06-12T13:43:07Z</time>
      </trkpt>
      <trkpt lat="48.25151" lon="-3.45484">
        <ele>129.1</ele>
        <time>2022-06-12T13:43:08Z</time>
      </trkpt>
      <trkpt lat="48.25151" lon="-3.45484">
        <ele>129.1</ele>
        <time>2022-06-12T13:43:09Z</time>
      </trkpt>
      <trkpt lat="48.25151" lon="-3.45484">
        <ele>129.1</ele>
        <time>2022-06-12T13:43:10Z</time>
      </trkpt>
      <trkpt lat="48.25151" lon="-3.45484">
        <ele>129.1</ele>
        <time>2022-06-12T13:43:11Z</time>
      </trkpt>
      <trkpt lat="48.25151" lon="-3.45484">
        <ele>129.1</ele>
        <time>2022-06-12T13:43:12Z</time>
      </trkpt>
      <trkpt lat="48.25151" lon="-3.45484">
        <ele>129.1</ele>
        <time>2022-06-12T13:43:13Z</time>
      </trkpt>
      <trkpt lat="48.25151" lon="-3.45484">
        <ele>129.1</ele>
        <time>2022-06-12T13:43:14Z</time>
      </trkpt>
      <trkpt lat="48.25151" lon="-3.45484">
        <ele>129.1</ele>
        <time>2022-06-12T13:43:15Z</time>
      </trkpt>
      <trkpt lat="48.25151" lon="-3.45484">
        <ele>129.1</ele>
        <time>2022-06-12T13:43:16Z</time>
      </trkpt>
      <trkpt lat="48.25151" lon="-3.45484">
        <ele>129.1</ele>
        <time>2022-06-12T13:43:17Z</time>
      </trkpt>
      <trkpt lat="48.25151" lon="-3.45484">
        <ele>129.1</ele>
        <time>2022-06-12T13:43:18Z</time>
      </trkpt>
      <trkpt lat="48.25151" lon="-3.45484">
        <ele>129.1</ele>
        <time>2022-06-12T13:43:19Z</time>
      </trkpt>
      <trkpt lat="48.25151" lon="-3.45484">
        <ele>129.1</ele>
        <time>2022-06-12T13:43:20Z</time>
      </trkpt>
      <trkpt lat="48.25151" lon="-3.45484">
        <ele>129.1</ele>
        <time>2022-06-12T13:43:21Z</time>
      </trkpt>
      <trkpt lat="48.25151" lon="-3.45484">
        <ele>129.1</ele>
        <time>2022-06-12T13:43:22Z</time>
      </trkpt>
      <trkpt lat="48.25151" lon="-3.45484">
        <ele>129.1</ele>
        <time>2022-06-12T13:43:23Z</time>
      </trkpt>
      <trkpt lat="48.25151" lon="-3.45484">
        <ele>129.1</ele>
        <time>2022-06-12T13:43:24Z</time>
      </trkpt>
      <trkpt lat="48.25151" lon="-3.45484">
        <ele>129.1</ele>
        <time>2022-06-12T13:43:25Z</time>
      </trkpt>
      <trkpt lat="48.25151" lon="-3.45484">
        <ele>129.1</ele>
        <time>2022-06-12T13:43:26Z</time>
      </trkpt>
      <trkpt lat="48.25151" lon="-3.45484">
        <ele>129.1</ele>
        <time>2022-06-12T13:43:27Z</time>
      </trkpt>
      <trkpt lat="48.25151" lon="-3.45484">
        <ele>129.1</ele>
        <time>2022-06-12T13:43:28Z</time>
      </trkpt>
      <trkpt lat="48.25151" lon="-3.45484">
        <ele>129.1</ele>
        <time>2022-06-12T13:43:29Z</time>
      </trkpt>
      <trkpt lat="48.25151" lon="-3.45484">
        <ele>129.1</ele>
        <time>2022-06-12T13:43:30Z</time>
      </trkpt>
      <trkpt lat="48.25151" lon="-3.45484">
        <ele>129.1</ele>
        <time>2022-06-12T13:43:31Z</time>
      </trkpt>
      <trkpt lat="48.25151" lon="-3.45484">
        <ele>129.1</ele>
        <time>2022-06-12T13:43:32Z</time>
      </trkpt>
      <trkpt lat="48.2515" lon="-3.45483">
        <ele>129.1</ele>
        <time>2022-06-12T13:43:33Z</time>
      </trkpt>
      <trkpt lat="48.2515" lon="-3.45483">
        <ele>129.1</ele>
        <time>2022-06-12T13:43:34Z</time>
      </trkpt>
      <trkpt lat="48.2515" lon="-3.45483">
        <ele>129.1</ele>
        <time>2022-06-12T13:43:35Z</time>
      </trkpt>
      <trkpt lat="48.2515" lon="-3.45483">
        <ele>129.1</ele>
        <time>2022-06-12T13:43:36Z</time>
      </trkpt>
      <trkpt lat="48.2515" lon="-3.45483">
        <ele>129.1</ele>
        <time>2022-06-12T13:43:37Z</time>
      </trkpt>
      <trkpt lat="48.2515" lon="-3.45483">
        <ele>129.1</ele>
        <time>2022-06-12T13:43:38Z</time>
      </trkpt>
      <trkpt lat="48.2515" lon="-3.45483">
        <ele>129.1</ele>
        <time>2022-06-12T13:43:39Z</time>
      </trkpt>
      <trkpt lat="48.2515" lon="-3.45483">
        <ele>129.1</ele>
        <time>2022-06-12T13:43:40Z</time>
      </trkpt>
      <trkpt lat="48.2515" lon="-3.45483">
        <ele>129.1</ele>
        <time>2022-06-12T13:43:41Z</time>
      </trkpt>
      <trkpt lat="48.2515" lon="-3.45483">
        <ele>129.1</ele>
        <time>2022-06-12T13:43:42Z</time>
      </trkpt>
      <trkpt lat="48.2515" lon="-3.45483">
        <ele>129.1</ele>
        <time>2022-06-12T13:43:43Z</time>
      </trkpt>
      <trkpt lat="48.2515" lon="-3.45483">
        <ele>129.1</ele>
        <time>2022-06-12T13:43:44Z</time>
      </trkpt>
      <trkpt lat="48.2515" lon="-3.45483">
        <ele>129.1</ele>
        <time>2022-06-12T13:43:45Z</time>
      </trkpt>
      <trkpt lat="48.2515" lon="-3.45483">
        <ele>129.1</ele>
        <time>2022-06-12T13:43:46Z</time>
      </trkpt>
      <trkpt lat="48.2515" lon="-3.45483">
        <ele>129.1</ele>
        <time>2022-06-12T13:43:47Z</time>
      </trkpt>
      <trkpt lat="48.2515" lon="-3.45483">
        <ele>129.1</ele>
        <time>2022-06-12T13:43:48Z</time>
      </trkpt>
      <trkpt lat="48.2515" lon="-3.45483">
        <ele>129.1</ele>
        <time>2022-06-12T13:43:49Z</time>
      </trkpt>
      <trkpt lat="48.2515" lon="-3.45483">
        <ele>129.1</ele>
        <time>2022-06-12T13:43:50Z</time>
      </trkpt>
      <trkpt lat="48.2515" lon="-3.45483">
        <ele>129.1</ele>
        <time>2022-06-12T13:43:51Z</time>
      </trkpt>
      <trkpt lat="48.2515" lon="-3.45483">
        <ele>129.1</ele>
        <time>2022-06-12T13:43:52Z</time>
      </trkpt>
      <trkpt lat="48.2515" lon="-3.45483">
        <ele>129.1</ele>
        <time>2022-06-12T13:43:53Z</time>
      </trkpt>
      <trkpt lat="48.2515" lon="-3.45483">
        <ele>129.1</ele>
        <time>2022-06-12T13:43:54Z</time>
      </trkpt>
      <trkpt lat="48.2515" lon="-3.45483">
        <ele>129.1</ele>
        <time>2022-06-12T13:43:55Z</time>
      </trkpt>
      <trkpt lat="48.2515" lon="-3.45483">
        <ele>129.1</ele>
        <time>2022-06-12T13:43:56Z</time>
      </trkpt>
      <trkpt lat="48.2515" lon="-3.45483">
        <ele>129.1</ele>
        <time>2022-06-12T13:43:57Z</time>
      </trkpt>
      <trkpt lat="48.2515" lon="-3.45483">
        <ele>129.1</ele>
        <time>2022-06-12T13:43:58Z</time>
      </trkpt>
      <trkpt lat="48.2515" lon="-3.45483">
        <ele>129.1</ele>
        <time>2022-06-12T13:43:59Z</time>
      </trkpt>
      <trkpt lat="48.2515" lon="-3.45483">
        <ele>129.1</ele>
        <time>2022-06-12T13:44:00Z</time>
      </trkpt>
      <trkpt lat="48.2515" lon="-3.45483">
        <ele>129.1</ele>
        <time>2022-06-12T13:44:01Z</time>
      </trkpt>
      <trkpt lat="48.2515" lon="-3.45483">
        <ele>129.1</ele>
        <time>2022-06-12T13:44:02Z</time>
      </trkpt>
      <trkpt lat="48.2515" lon="-3.45483">
        <ele>129.1</ele>
        <time>2022-06-12T13:44:03Z</time>
      </trkpt>
      <trkpt lat="48.2515" lon="-3.45483">
        <ele>129.1</ele>
        <time>2022-06-12T13:44:04Z</time>
      </trkpt>
      <trkpt lat="48.2515" lon="-3.45483">
        <ele>129.1</ele>
        <time>2022-06-12T13:44:05Z</time>
      </trkpt>
      <trkpt lat="48.2515" lon="-3.45483">
        <ele>129.1</ele>
        <time>2022-06-12T13:44:06Z</time>
      </trkpt>
      <trkpt lat="48.2515" lon="-3.45483">
        <ele>129.1</ele>
        <time>2022-06-12T13:44:07Z</time>
      </trkpt>
      <trkpt lat="48.2515" lon="-3.45483">
        <ele>129.1</ele>
        <time>2022-06-12T13:44:08Z</time>
      </trkpt>
      <trkpt lat="48.2515" lon="-3.45483">
        <ele>129.1</ele>
        <time>2022-06-12T13:44:09Z</time>
      </trkpt>
      <trkpt lat="48.2515" lon="-3.45483">
        <ele>129.1</ele>
        <time>2022-06-12T13:44:10Z</time>
      </trkpt>
      <trkpt lat="48.2515" lon="-3.45483">
        <ele>129.1</ele>
        <time>2022-06-12T13:44:11Z</time>
      </trkpt>
      <trkpt lat="48.2515" lon="-3.45483">
        <ele>129.1</ele>
        <time>2022-06-12T13:44:13Z</time>
      </trkpt>
      <trkpt lat="48.2515" lon="-3.45483">
        <ele>129.1</ele>
        <time>2022-06-12T13:44:14Z</time>
      </trkpt>
      <trkpt lat="48.2515" lon="-3.45483">
        <ele>129.1</ele>
        <time>2022-06-12T13:44:15Z</time>
      </trkpt>
      <trkpt lat="48.2515" lon="-3.45483">
        <ele>129.1</ele>
        <time>2022-06-12T13:44:16Z</time>
      </trkpt>
      <trkpt lat="48.2515" lon="-3.45483">
        <ele>129.1</ele>
        <time>2022-06-12T13:44:17Z</time>
      </trkpt>
      <trkpt lat="48.25151" lon="-3.45482">
        <ele>129.1</ele>
        <time>2022-06-12T13:44:18Z</time>
      </trkpt>
      <trkpt lat="48.25151" lon="-3.45481">
        <ele>129.1</ele>
        <time>2022-06-12T13:44:19Z</time>
      </trkpt>
      <trkpt lat="48.25152" lon="-3.4548">
        <ele>129.1</ele>
        <time>2022-06-12T13:44:20Z</time>
      </trkpt>
      <trkpt lat="48.25152" lon="-3.45478">
        <ele>129.1</ele>
        <time>2022-06-12T13:44:21Z</time>
      </trkpt>
      <trkpt lat="48.25152" lon="-3.45477">
        <ele>129.1</ele>
        <time>2022-06-12T13:44:22Z</time>
      </trkpt>
      <trkpt lat="48.25151" lon="-3.45477">
        <ele>129.1</ele>
        <time>2022-06-12T13:44:23Z</time>
      </trkpt>
      <trkpt lat="48.25151" lon="-3.45475">
        <ele>129.1</ele>
        <time>2022-06-12T13:44:24Z</time>
      </trkpt>
      <trkpt lat="48.25151" lon="-3.45474">
        <ele>129.1</ele>
        <time>2022-06-12T13:44:25Z</time>
      </trkpt>
      <trkpt lat="48.2515" lon="-3.45473">
        <ele>129.1</ele>
        <time>2022-06-12T13:44:26Z</time>
      </trkpt>
      <trkpt lat="48.2515" lon="-3.45472">
        <ele>129.1</ele>
        <time>2022-06-12T13:44:28Z</time>
      </trkpt>
      <trkpt lat="48.25149" lon="-3.45469">
        <ele>129.1</ele>
        <time>2022-06-12T13:44:29Z</time>
      </trkpt>
      <trkpt lat="48.25149" lon="-3.45466">
        <ele>129.1</ele>
        <time>2022-06-12T13:44:30Z</time>
      </trkpt>
      <trkpt lat="48.25149" lon="-3.45465">
        <ele>129.1</ele>
        <time>2022-06-12T13:44:31Z</time>
      </trkpt>
      <trkpt lat="48.25149" lon="-3.45464">
        <ele>129.1</ele>
        <time>2022-06-12T13:44:32Z</time>
      </trkpt>
      <trkpt lat="48.25148" lon="-3.45462">
        <ele>129.1</ele>
        <time>2022-06-12T13:44:33Z</time>
      </trkpt>
      <trkpt lat="48.25148" lon="-3.4546">
        <ele>129.1</ele>
        <time>2022-06-12T13:44:34Z</time>
      </trkpt>
      <trkpt lat="48.25148" lon="-3.45458">
        <ele>129.1</ele>
        <time>2022-06-12T13:44:35Z</time>
      </trkpt>
      <trkpt lat="48.25148" lon="-3.45457">
        <ele>129.1</ele>
        <time>2022-06-12T13:44:37Z</time>
      </trkpt>
      <trkpt lat="48.25148" lon="-3.45455">
        <ele>129.1</ele>
        <time>2022-06-12T13:44:38Z</time>
      </trkpt>
      <trkpt lat="48.25148" lon="-3.45454">
        <ele>129.1</ele>
        <time>2022-06-12T13:44:39Z</time>
      </trkpt>
      <trkpt lat="48.25149" lon="-3.45453">
        <ele>129.2</ele>
        <time>2022-06-12T13:44:41Z</time>
      </trkpt>
      <trkpt lat="48.25149" lon="-3.45452">
        <ele>129.2</ele>
        <time>2022-06-12T13:44:42Z</time>
      </trkpt>
      <trkpt lat="48.25149" lon="-3.4545">
        <ele>129.2</ele>
        <time>2022-06-12T13:44:43Z</time>
      </trkpt>
      <trkpt lat="48.25149" lon="-3.45448">
        <ele>129.2</ele>
        <time>2022-06-12T13:44:44Z</time>
      </trkpt>
      <trkpt lat="48.25149" lon="-3.45448">
        <ele>129.2</ele>
        <time>2022-06-12T13:44:45Z</time>
      </trkpt>
      <trkpt lat="48.2515" lon="-3.45446">
        <ele>129.2</ele>
        <time>2022-06-12T13:44:47Z</time>
      </trkpt>
      <trkpt lat="48.2515" lon="-3.45444">
        <ele>129.2</ele>
        <time>2022-06-12T13:44:48Z</time>
      </trkpt>
      <trkpt lat="48.2515" lon="-3.45441">
        <ele>129.2</ele>
        <time>2022-06-12T13:44:49Z</time>
      </trkpt>
      <trkpt lat="48.2515" lon="-3.4544">
        <ele>129.2</ele>
        <time>2022-06-12T13:44:50Z</time>
      </trkpt>
      <trkpt lat="48.2515" lon="-3.45439">
        <ele>129.2</ele>
        <time>2022-06-12T13:44:51Z</time>
      </trkpt>
      <trkpt lat="48.2515" lon="-3.45438">
        <ele>129.2</ele>
        <time>2022-06-12T13:44:52Z</time>
      </trkpt>
      <trkpt lat="48.2515" lon="-3.45436">
        <ele>129.2</ele>
        <time>2022-06-12T13:44:54Z</time>
      </trkpt>
      <trkpt lat="48.2515" lon="-3.45433">
        <ele>129.2</ele>
        <time>2022-06-12T13:44:55Z</time>
      </trkpt>
      <trkpt lat="48.2515" lon="-3.45431">
        <ele>129.2</ele>
        <time>2022-06-12T13:44:56Z</time>
      </trkpt>
      <trkpt lat="48.25151" lon="-3.4543">
        <ele>129.2</ele>
        <time>2022-06-12T13:44:57Z</time>
      </trkpt>
      <trkpt lat="48.25151" lon="-3.45428">
        <ele>129.2</ele>
        <time>2022-06-12T13:44:58Z</time>
      </trkpt>
      <trkpt lat="48.25151" lon="-3.45426">
        <ele>129.2</ele>
        <time>2022-06-12T13:44:59Z</time>
      </trkpt>
      <trkpt lat="48.25151" lon="-3.45423">
        <ele>129.2</ele>
        <time>2022-06-12T13:45:00Z</time>
      </trkpt>
      <trkpt lat="48.25151" lon="-3.45422">
        <ele>129.2</ele>
        <time>2022-06-12T13:45:01Z</time>
      </trkpt>
      <trkpt lat="48.25151" lon="-3.4542">
        <ele>129.2</ele>
        <time>2022-06-12T13:45:02Z</time>
      </trkpt>
      <trkpt lat="48.25151" lon="-3.45418">
        <ele>129.2</ele>
        <time>2022-06-12T13:45:04Z</time>
      </trkpt>
      <trkpt lat="48.25152" lon="-3.45415">
        <ele>129.2</ele>
        <time>2022-06-12T13:45:06Z</time>
      </trkpt>
      <trkpt lat="48.25152" lon="-3.45413">
        <ele>129.2</ele>
        <time>2022-06-12T13:45:07Z</time>
      </trkpt>
      <trkpt lat="48.25152" lon="-3.45412">
        <ele>129.2</ele>
        <time>2022-06-12T13:45:08Z</time>
      </trkpt>
      <trkpt lat="48.25151" lon="-3.4541">
        <ele>129.2</ele>
        <time>2022-06-12T13:45:09Z</time>
      </trkpt>
      <trkpt lat="48.25152" lon="-3.45408">
        <ele>129.2</ele>
        <time>2022-06-12T13:45:10Z</time>
      </trkpt>
      <trkpt lat="48.25152" lon="-3.45408">
        <ele>129.2</ele>
        <time>2022-06-12T13:45:11Z</time>
      </trkpt>
      <trkpt lat="48.25152" lon="-3.45406">
        <ele>129.2</ele>
        <time>2022-06-12T13:45:12Z</time>
      </trkpt>
      <trkpt lat="48.25152" lon="-3.45405">
        <ele>129.2</ele>
        <time>2022-06-12T13:45:13Z</time>
      </trkpt>
      <trkpt lat="48.25153" lon="-3.45401">
        <ele>129.2</ele>
        <time>2022-06-12T13:45:15Z</time>
      </trkpt>
      <trkpt lat="48.25153" lon="-3.454">
        <ele>129.2</ele>
        <time>2022-06-12T13:45:16Z</time>
      </trkpt>
      <trkpt lat="48.25153" lon="-3.45399">
        <ele>129.3</ele>
        <time>2022-06-12T13:45:17Z</time>
      </trkpt>
      <trkpt lat="48.25153" lon="-3.45397">
        <ele>129.3</ele>
        <time>2022-06-12T13:45:18Z</time>
      </trkpt>
      <trkpt lat="48.25154" lon="-3.45395">
        <ele>129.3</ele>
        <time>2022-06-12T13:45:19Z</time>
      </trkpt>
      <trkpt lat="48.25154" lon="-3.45393">
        <ele>129.3</ele>
        <time>2022-06-12T13:45:21Z</time>
      </trkpt>
      <trkpt lat="48.25154" lon="-3.4539">
        <ele>129.3</ele>
        <time>2022-06-12T13:45:22Z</time>
      </trkpt>
      <trkpt lat="48.25154" lon="-3.45388">
        <ele>129.3</ele>
        <time>2022-06-12T13:45:23Z</time>
      </trkpt>
      <trkpt lat="48.25155" lon="-3.45386">
        <ele>129.3</ele>
        <time>2022-06-12T13:45:24Z</time>
      </trkpt>
      <trkpt lat="48.25155" lon="-3.45387">
        <ele>129.3</ele>
        <time>2022-06-12T13:45:26Z</time>
      </trkpt>
      <trkpt lat="48.25155" lon="-3.45387">
        <ele>129.3</ele>
        <time>2022-06-12T13:45:27Z</time>
      </trkpt>
      <trkpt lat="48.25156" lon="-3.45385">
        <ele>129.3</ele>
        <time>2022-06-12T13:45:28Z</time>
      </trkpt>
      <trkpt lat="48.25156" lon="-3.45383">
        <ele>129.3</ele>
        <time>2022-06-12T13:45:29Z</time>
      </trkpt>
      <trkpt lat="48.25156" lon="-3.4538">
        <ele>129.3</ele>
        <time>2022-06-12T13:45:30Z</time>
      </trkpt>
      <trkpt lat="48.25156" lon="-3.45378">
        <ele>129.3</ele>
        <time>2022-06-12T13:45:31Z</time>
      </trkpt>
      <trkpt lat="48.25156" lon="-3.45377">
        <ele>129.4</ele>
        <time>2022-06-12T13:45:32Z</time>
      </trkpt>
      <trkpt lat="48.25157" lon="-3.45374">
        <ele>129.4</ele>
        <time>2022-06-12T13:45:33Z</time>
      </trkpt>
      <trkpt lat="48.25157" lon="-3.45372">
        <ele>129.4</ele>
        <time>2022-06-12T13:45:34Z</time>
      </trkpt>
      <trkpt lat="48.25157" lon="-3.4537">
        <ele>129.4</ele>
        <time>2022-06-12T13:45:36Z</time>
      </trkpt>
      <trkpt lat="48.25157" lon="-3.45367">
        <ele>129.4</ele>
        <time>2022-06-12T13:45:37Z</time>
      </trkpt>
      <trkpt lat="48.25157" lon="-3.45365">
        <ele>129.4</ele>
        <time>2022-06-12T13:45:38Z</time>
      </trkpt>
      <trkpt lat="48.25157" lon="-3.45362">
        <ele>129.4</ele>
        <time>2022-06-12T13:45:39Z</time>
      </trkpt>
      <trkpt lat="48.25157" lon="-3.45359">
        <ele>129.4</ele>
        <time>2022-06-12T13:45:40Z</time>
      </trkpt>
      <trkpt lat="48.25157" lon="-3.45357">
        <ele>129.5</ele>
        <time>2022-06-12T13:45:41Z</time>
      </trkpt>
      <trkpt lat="48.25157" lon="-3.45355">
        <ele>129.5</ele>
        <time>2022-06-12T13:45:42Z</time>
      </trkpt>
      <trkpt lat="48.25157" lon="-3.45353">
        <ele>129.5</ele>
        <time>2022-06-12T13:45:43Z</time>
      </trkpt>
      <trkpt lat="48.25157" lon="-3.45349">
        <ele>129.5</ele>
        <time>2022-06-12T13:45:44Z</time>
      </trkpt>
      <trkpt lat="48.25157" lon="-3.45348">
        <ele>129.5</ele>
        <time>2022-06-12T13:45:45Z</time>
      </trkpt>
      <trkpt lat="48.25157" lon="-3.45347">
        <ele>129.5</ele>
        <time>2022-06-12T13:45:46Z</time>
      </trkpt>
      <trkpt lat="48.25157" lon="-3.45345">
        <ele>129.5</ele>
        <time>2022-06-12T13:45:47Z</time>
      </trkpt>
      <trkpt lat="48.25157" lon="-3.45342">
        <ele>129.5</ele>
        <time>2022-06-12T13:45:48Z</time>
      </trkpt>
      <trkpt lat="48.25157" lon="-3.45341">
        <ele>129.5</ele>
        <time>2022-06-12T13:45:49Z</time>
      </trkpt>
      <trkpt lat="48.25157" lon="-3.45339">
        <ele>129.5</ele>
        <time>2022-06-12T13:45:50Z</time>
      </trkpt>
      <trkpt lat="48.25157" lon="-3.45336">
        <ele>129.5</ele>
        <time>2022-06-12T13:45:52Z</time>
      </trkpt>
      <trkpt lat="48.25157" lon="-3.45335">
        <ele>129.5</ele>
        <time>2022-06-12T13:45:54Z</time>
      </trkpt>
      <trkpt lat="48.25157" lon="-3.45333">
        <ele>129.5</ele>
        <time>2022-06-12T13:45:55Z</time>
      </trkpt>
      <trkpt lat="48.25157" lon="-3.45331">
        <ele>129.5</ele>
        <time>2022-06-12T13:45:56Z</time>
      </trkpt>
      <trkpt lat="48.25157" lon="-3.45329">
        <ele>129.5</ele>
        <time>2022-06-12T13:45:57Z</time>
      </trkpt>
      <trkpt lat="48.25157" lon="-3.45327">
        <ele>129.6</ele>
        <time>2022-06-12T13:45:58Z</time>
      </trkpt>
      <trkpt lat="48.25156" lon="-3.45324">
        <ele>129.6</ele>
        <time>2022-06-12T13:45:59Z</time>
      </trkpt>
      <trkpt lat="48.25156" lon="-3.45323">
        <ele>129.6</ele>
        <time>2022-06-12T13:46:00Z</time>
      </trkpt>
      <trkpt lat="48.25156" lon="-3.4532">
        <ele>129.6</ele>
        <time>2022-06-12T13:46:01Z</time>
      </trkpt>
      <trkpt lat="48.25156" lon="-3.45318">
        <ele>129.6</ele>
        <time>2022-06-12T13:46:03Z</time>
      </trkpt>
      <trkpt lat="48.25156" lon="-3.45316">
        <ele>129.6</ele>
        <time>2022-06-12T13:46:04Z</time>
      </trkpt>
      <trkpt lat="48.25156" lon="-3.45314">
        <ele>129.6</ele>
        <time>2022-06-12T13:46:05Z</time>
      </trkpt>
      <trkpt lat="48.25157" lon="-3.45312">
        <ele>129.6</ele>
        <time>2022-06-12T13:46:06Z</time>
      </trkpt>
      <trkpt lat="48.25157" lon="-3.4531">
        <ele>129.6</ele>
        <time>2022-06-12T13:46:07Z</time>
      </trkpt>
      <trkpt lat="48.25157" lon="-3.45309">
        <ele>129.6</ele>
        <time>2022-06-12T13:46:08Z</time>
      </trkpt>
      <trkpt lat="48.25157" lon="-3.45306">
        <ele>129.7</ele>
        <time>2022-06-12T13:46:09Z</time>
      </trkpt>
      <trkpt lat="48.25157" lon="-3.45304">
        <ele>129.7</ele>
        <time>2022-06-12T13:46:10Z</time>
      </trkpt>
      <trkpt lat="48.25157" lon="-3.45303">
        <ele>129.7</ele>
        <time>2022-06-12T13:46:11Z</time>
      </trkpt>
      <trkpt lat="48.25157" lon="-3.45301">
        <ele>129.7</ele>
        <time>2022-06-12T13:46:13Z</time>
      </trkpt>
      <trkpt lat="48.25157" lon="-3.45299">
        <ele>129.7</ele>
        <time>2022-06-12T13:46:14Z</time>
      </trkpt>
      <trkpt lat="48.25157" lon="-3.45297">
        <ele>129.7</ele>
        <time>2022-06-12T13:46:15Z</time>
      </trkpt>
      <trkpt lat="48.25157" lon="-3.45295">
        <ele>129.8</ele>
        <time>2022-06-12T13:46:16Z</time>
      </trkpt>
      <trkpt lat="48.25157" lon="-3.45292">
        <ele>129.8</ele>
        <time>2022-06-12T13:46:17Z</time>
      </trkpt>
      <trkpt lat="48.25156" lon="-3.45291">
        <ele>129.8</ele>
        <time>2022-06-12T13:46:18Z</time>
      </trkpt>
      <trkpt lat="48.25156" lon="-3.45288">
        <ele>129.8</ele>
        <time>2022-06-12T13:46:20Z</time>
      </trkpt>
      <trkpt lat="48.25156" lon="-3.45286">
        <ele>129.8</ele>
        <time>2022-06-12T13:46:21Z</time>
      </trkpt>
      <trkpt lat="48.25156" lon="-3.45284">
        <ele>129.8</ele>
        <time>2022-06-12T13:46:22Z</time>
      </trkpt>
      <trkpt lat="48.25156" lon="-3.45282">
        <ele>129.9</ele>
        <time>2022-06-12T13:46:23Z</time>
      </trkpt>
      <trkpt lat="48.25156" lon="-3.45281">
        <ele>129.9</ele>
        <time>2022-06-12T13:46:24Z</time>
      </trkpt>
      <trkpt lat="48.25156" lon="-3.45278">
        <ele>129.9</ele>
        <time>2022-06-12T13:46:25Z</time>
      </trkpt>
      <trkpt lat="48.25156" lon="-3.45275">
        <ele>129.9</ele>
        <time>2022-06-12T13:46:26Z</time>
      </trkpt>
      <trkpt lat="48.25156" lon="-3.45274">
        <ele>129.9</ele>
        <time>2022-06-12T13:46:28Z</time>
      </trkpt>
      <trkpt lat="48.25156" lon="-3.45272">
        <ele>129.9</ele>
        <time>2022-06-12T13:46:29Z</time>
      </trkpt>
      <trkpt lat="48.25156" lon="-3.4527">
        <ele>129.9</ele>
        <time>2022-06-12T13:46:30Z</time>
      </trkpt>
      <trkpt lat="48.25156" lon="-3.45268">
        <ele>129.9</ele>
        <time>2022-06-12T13:46:31Z</time>
      </trkpt>
      <trkpt lat="48.25156" lon="-3.45264">
        <ele>130</ele>
        <time>2022-06-12T13:46:32Z</time>
      </trkpt>
      <trkpt lat="48.25156" lon="-3.45263">
        <ele>130</ele>
        <time>2022-06-12T13:46:33Z</time>
      </trkpt>
      <trkpt lat="48.25156" lon="-3.45261">
        <ele>130</ele>
        <time>2022-06-12T13:46:34Z</time>
      </trkpt>
      <trkpt lat="48.25156" lon="-3.45259">
        <ele>130</ele>
        <time>2022-06-12T13:46:35Z</time>
      </trkpt>
      <trkpt lat="48.25156" lon="-3.45257">
        <ele>130</ele>
        <time>2022-06-12T13:46:36Z</time>
      </trkpt>
      <trkpt lat="48.25155" lon="-3.45255">
        <ele>130</ele>
        <time>2022-06-12T13:46:37Z</time>
      </trkpt>
      <trkpt lat="48.25155" lon="-3.45254">
        <ele>130</ele>
        <time>2022-06-12T13:46:38Z</time>
      </trkpt>
      <trkpt lat="48.25155" lon="-3.45251">
        <ele>130.1</ele>
        <time>2022-06-12T13:46:39Z</time>
      </trkpt>
      <trkpt lat="48.25155" lon="-3.45249">
        <ele>130.1</ele>
        <time>2022-06-12T13:46:41Z</time>
      </trkpt>
      <trkpt lat="48.25155" lon="-3.45248">
        <ele>130.1</ele>
        <time>2022-06-12T13:46:42Z</time>
      </trkpt>
      <trkpt lat="48.25155" lon="-3.45246">
        <ele>130.1</ele>
        <time>2022-06-12T13:46:43Z</time>
      </trkpt>
      <trkpt lat="48.25155" lon="-3.45245">
        <ele>130.1</ele>
        <time>2022-06-12T13:46:44Z</time>
      </trkpt>
      <trkpt lat="48.25154" lon="-3.45243">
        <ele>130.1</ele>
        <time>2022-06-12T13:46:45Z</time>
      </trkpt>
      <trkpt lat="48.25154" lon="-3.45242">
        <ele>130.1</ele>
        <time>2022-06-12T13:46:46Z</time>
      </trkpt>
      <trkpt lat="48.25154" lon="-3.4524">
        <ele>130.1</ele>
        <time>2022-06-12T13:46:47Z</time>
      </trkpt>
      <trkpt lat="48.25154" lon="-3.45239">
        <ele>130.2</ele>
        <time>2022-06-12T13:46:48Z</time>
      </trkpt>
      <trkpt lat="48.25153" lon="-3.45235">
        <ele>130.2</ele>
        <time>2022-06-12T13:46:49Z</time>
      </trkpt>
      <trkpt lat="48.25153" lon="-3.45233">
        <ele>130.2</ele>
        <time>2022-06-12T13:46:51Z</time>
      </trkpt>
      <trkpt lat="48.25153" lon="-3.45231">
        <ele>130.2</ele>
        <time>2022-06-12T13:46:52Z</time>
      </trkpt>
      <trkpt lat="48.25153" lon="-3.4523">
        <ele>130.2</ele>
        <time>2022-06-12T13:46:53Z</time>
      </trkpt>
      <trkpt lat="48.25153" lon="-3.45229">
        <ele>130.3</ele>
        <time>2022-06-12T13:46:54Z</time>
      </trkpt>
      <trkpt lat="48.25152" lon="-3.45226">
        <ele>130.3</ele>
        <time>2022-06-12T13:46:55Z</time>
      </trkpt>
      <trkpt lat="48.25152" lon="-3.45224">
        <ele>130.3</ele>
        <time>2022-06-12T13:46:56Z</time>
      </trkpt>
      <trkpt lat="48.25152" lon="-3.45222">
        <ele>130.3</ele>
        <time>2022-06-12T13:46:57Z</time>
      </trkpt>
      <trkpt lat="48.25152" lon="-3.4522">
        <ele>130.3</ele>
        <time>2022-06-12T13:46:59Z</time>
      </trkpt>
      <trkpt lat="48.25153" lon="-3.45218">
        <ele>130.4</ele>
        <time>2022-06-12T13:47:00Z</time>
      </trkpt>
      <trkpt lat="48.25153" lon="-3.45217">
        <ele>130.4</ele>
        <time>2022-06-12T13:47:01Z</time>
      </trkpt>
      <trkpt lat="48.25153" lon="-3.45213">
        <ele>130.4</ele>
        <time>2022-06-12T13:47:02Z</time>
      </trkpt>
      <trkpt lat="48.25153" lon="-3.45211">
        <ele>130.4</ele>
        <time>2022-06-12T13:47:04Z</time>
      </trkpt>
      <trkpt lat="48.25154" lon="-3.45207">
        <ele>130.5</ele>
        <time>2022-06-12T13:47:05Z</time>
      </trkpt>
      <trkpt lat="48.25154" lon="-3.45205">
        <ele>130.5</ele>
        <time>2022-06-12T13:47:06Z</time>
      </trkpt>
      <trkpt lat="48.25155" lon="-3.45203">
        <ele>130.5</ele>
        <time>2022-06-12T13:47:07Z</time>
      </trkpt>
      <trkpt lat="48.25155" lon="-3.45201">
        <ele>130.6</ele>
        <time>2022-06-12T13:47:08Z</time>
      </trkpt>
      <trkpt lat="48.25156" lon="-3.45199">
        <ele>130.6</ele>
        <time>2022-06-12T13:47:09Z</time>
      </trkpt>
      <trkpt lat="48.25156" lon="-3.45197">
        <ele>130.6</ele>
        <time>2022-06-12T13:47:11Z</time>
      </trkpt>
      <trkpt lat="48.25157" lon="-3.45195">
        <ele>130.7</ele>
        <time>2022-06-12T13:47:12Z</time>
      </trkpt>
      <trkpt lat="48.25157" lon="-3.45192">
        <ele>130.7</ele>
        <time>2022-06-12T13:47:13Z</time>
      </trkpt>
      <trkpt lat="48.25158" lon="-3.4519">
        <ele>130.7</ele>
        <time>2022-06-12T13:47:14Z</time>
      </trkpt>
      <trkpt lat="48.25158" lon="-3.45188">
        <ele>130.8</ele>
        <time>2022-06-12T13:47:15Z</time>
      </trkpt>
      <trkpt lat="48.25159" lon="-3.45186">
        <ele>130.8</ele>
        <time>2022-06-12T13:47:16Z</time>
      </trkpt>
      <trkpt lat="48.2516" lon="-3.45183">
        <ele>130.8</ele>
        <time>2022-06-12T13:47:17Z</time>
      </trkpt>
      <trkpt lat="48.2516" lon="-3.45181">
        <ele>130.9</ele>
        <time>2022-06-12T13:47:18Z</time>
      </trkpt>
      <trkpt lat="48.25161" lon="-3.4518">
        <ele>130.9</ele>
        <time>2022-06-12T13:47:19Z</time>
      </trkpt>
      <trkpt lat="48.25161" lon="-3.45178">
        <ele>130.9</ele>
        <time>2022-06-12T13:47:20Z</time>
      </trkpt>
      <trkpt lat="48.25162" lon="-3.45175">
        <ele>131</ele>
        <time>2022-06-12T13:47:21Z</time>
      </trkpt>
      <trkpt lat="48.25163" lon="-3.45173">
        <ele>131</ele>
        <time>2022-06-12T13:47:23Z</time>
      </trkpt>
      <trkpt lat="48.25163" lon="-3.45171">
        <ele>131</ele>
        <time>2022-06-12T13:47:24Z</time>
      </trkpt>
      <trkpt lat="48.25164" lon="-3.45169">
        <ele>131.1</ele>
        <time>2022-06-12T13:47:25Z</time>
      </trkpt>
      <trkpt lat="48.25165" lon="-3.45167">
        <ele>131.1</ele>
        <time>2022-06-12T13:47:26Z</time>
      </trkpt>
      <trkpt lat="48.25166" lon="-3.45165">
        <ele>131.2</ele>
        <time>2022-06-12T13:47:27Z</time>
      </trkpt>
      <trkpt lat="48.25166" lon="-3.45163">
        <ele>131.2</ele>
        <time>2022-06-12T13:47:28Z</time>
      </trkpt>
      <trkpt lat="48.25167" lon="-3.45161">
        <ele>131.2</ele>
        <time>2022-06-12T13:47:29Z</time>
      </trkpt>
      <trkpt lat="48.25167" lon="-3.4516">
        <ele>131.2</ele>
        <time>2022-06-12T13:47:30Z</time>
      </trkpt>
      <trkpt lat="48.25168" lon="-3.45156">
        <ele>131.3</ele>
        <time>2022-06-12T13:47:32Z</time>
      </trkpt>
      <trkpt lat="48.25169" lon="-3.45155">
        <ele>131.3</ele>
        <time>2022-06-12T13:47:33Z</time>
      </trkpt>
      <trkpt lat="48.2517" lon="-3.45152">
        <ele>131.4</ele>
        <time>2022-06-12T13:47:34Z</time>
      </trkpt>
      <trkpt lat="48.2517" lon="-3.45151">
        <ele>131.4</ele>
        <time>2022-06-12T13:47:35Z</time>
      </trkpt>
      <trkpt lat="48.25171" lon="-3.4515">
        <ele>131.4</ele>
        <time>2022-06-12T13:47:36Z</time>
      </trkpt>
      <trkpt lat="48.25172" lon="-3.45147">
        <ele>131.5</ele>
        <time>2022-06-12T13:47:38Z</time>
      </trkpt>
      <trkpt lat="48.25172" lon="-3.45146">
        <ele>131.5</ele>
        <time>2022-06-12T13:47:39Z</time>
      </trkpt>
      <trkpt lat="48.25173" lon="-3.45143">
        <ele>131.6</ele>
        <time>2022-06-12T13:47:40Z</time>
      </trkpt>
      <trkpt lat="48.25174" lon="-3.45142">
        <ele>131.6</ele>
        <time>2022-06-12T13:47:41Z</time>
      </trkpt>
      <trkpt lat="48.25175" lon="-3.45141">
        <ele>131.6</ele>
        <time>2022-06-12T13:47:42Z</time>
      </trkpt>
      <trkpt lat="48.25176" lon="-3.45139">
        <ele>131.7</ele>
        <time>2022-06-12T13:47:43Z</time>
      </trkpt>
      <trkpt lat="48.25176" lon="-3.45139">
        <ele>131.7</ele>
        <time>2022-06-12T13:47:44Z</time>
      </trkpt>
      <trkpt lat="48.25177" lon="-3.45138">
        <ele>131.7</ele>
        <time>2022-06-12T13:47:45Z</time>
      </trkpt>
      <trkpt lat="48.25177" lon="-3.45137">
        <ele>131.7</ele>
        <time>2022-06-12T13:47:46Z</time>
      </trkpt>
      <trkpt lat="48.25179" lon="-3.45135">
        <ele>131.7</ele>
        <time>2022-06-12T13:47:47Z</time>
      </trkpt>
      <trkpt lat="48.25179" lon="-3.45134">
        <ele>131.7</ele>
        <time>2022-06-12T13:47:48Z</time>
      </trkpt>
      <trkpt lat="48.25181" lon="-3.45132">
        <ele>131.8</ele>
        <time>2022-06-12T13:47:50Z</time>
      </trkpt>
      <trkpt lat="48.25182" lon="-3.45131">
        <ele>131.8</ele>
        <time>2022-06-12T13:47:51Z</time>
      </trkpt>
      <trkpt lat="48.25182" lon="-3.45131">
        <ele>131.8</ele>
        <time>2022-06-12T13:47:52Z</time>
      </trkpt>
      <trkpt lat="48.25184" lon="-3.45129">
        <ele>131.8</ele>
        <time>2022-06-12T13:47:53Z</time>
      </trkpt>
      <trkpt lat="48.25185" lon="-3.45128">
        <ele>131.8</ele>
        <time>2022-06-12T13:47:54Z</time>
      </trkpt>
      <trkpt lat="48.25187" lon="-3.45126">
        <ele>131.8</ele>
        <time>2022-06-12T13:47:55Z</time>
      </trkpt>
      <trkpt lat="48.25188" lon="-3.45125">
        <ele>131.9</ele>
        <time>2022-06-12T13:47:56Z</time>
      </trkpt>
      <trkpt lat="48.25189" lon="-3.45124">
        <ele>131.9</ele>
        <time>2022-06-12T13:47:57Z</time>
      </trkpt>
      <trkpt lat="48.2519" lon="-3.45124">
        <ele>131.9</ele>
        <time>2022-06-12T13:47:59Z</time>
      </trkpt>
      <trkpt lat="48.25192" lon="-3.45122">
        <ele>131.9</ele>
        <time>2022-06-12T13:48:00Z</time>
      </trkpt>
      <trkpt lat="48.25193" lon="-3.45122">
        <ele>131.9</ele>
        <time>2022-06-12T13:48:01Z</time>
      </trkpt>
      <trkpt lat="48.25194" lon="-3.45121">
        <ele>131.9</ele>
        <time>2022-06-12T13:48:02Z</time>
      </trkpt>
      <trkpt lat="48.25197" lon="-3.4512">
        <ele>131.9</ele>
        <time>2022-06-12T13:48:03Z</time>
      </trkpt>
      <trkpt lat="48.25199" lon="-3.45119">
        <ele>131.9</ele>
        <time>2022-06-12T13:48:05Z</time>
      </trkpt>
      <trkpt lat="48.25201" lon="-3.45117">
        <ele>131.9</ele>
        <time>2022-06-12T13:48:06Z</time>
      </trkpt>
      <trkpt lat="48.25203" lon="-3.45116">
        <ele>131.9</ele>
        <time>2022-06-12T13:48:07Z</time>
      </trkpt>
      <trkpt lat="48.25204" lon="-3.45116">
        <ele>131.9</ele>
        <time>2022-06-12T13:48:08Z</time>
      </trkpt>
      <trkpt lat="48.25205" lon="-3.45115">
        <ele>131.9</ele>
        <time>2022-06-12T13:48:09Z</time>
      </trkpt>
      <trkpt lat="48.25207" lon="-3.45114">
        <ele>131.9</ele>
        <time>2022-06-12T13:48:11Z</time>
      </trkpt>
      <trkpt lat="48.25208" lon="-3.45114">
        <ele>131.9</ele>
        <time>2022-06-12T13:48:12Z</time>
      </trkpt>
      <trkpt lat="48.2521" lon="-3.45112">
        <ele>131.9</ele>
        <time>2022-06-12T13:48:13Z</time>
      </trkpt>
      <trkpt lat="48.25211" lon="-3.45111">
        <ele>131.9</ele>
        <time>2022-06-12T13:48:14Z</time>
      </trkpt>
      <trkpt lat="48.2521" lon="-3.4511">
        <ele>131.9</ele>
        <time>2022-06-12T13:48:15Z</time>
      </trkpt>
      <trkpt lat="48.2521" lon="-3.45108">
        <ele>131.9</ele>
        <time>2022-06-12T13:48:16Z</time>
      </trkpt>
      <trkpt lat="48.25212" lon="-3.45106">
        <ele>131.9</ele>
        <time>2022-06-12T13:48:18Z</time>
      </trkpt>
      <trkpt lat="48.25212" lon="-3.45105">
        <ele>131.9</ele>
        <time>2022-06-12T13:48:19Z</time>
      </trkpt>
      <trkpt lat="48.25212" lon="-3.45103">
        <ele>131.9</ele>
        <time>2022-06-12T13:48:20Z</time>
      </trkpt>
      <trkpt lat="48.25212" lon="-3.45102">
        <ele>131.8</ele>
        <time>2022-06-12T13:48:21Z</time>
      </trkpt>
      <trkpt lat="48.25212" lon="-3.45101">
        <ele>131.8</ele>
        <time>2022-06-12T13:48:22Z</time>
      </trkpt>
      <trkpt lat="48.25212" lon="-3.45099">
        <ele>131.8</ele>
        <time>2022-06-12T13:48:23Z</time>
      </trkpt>
      <trkpt lat="48.25212" lon="-3.45098">
        <ele>131.8</ele>
        <time>2022-06-12T13:48:25Z</time>
      </trkpt>
      <trkpt lat="48.25213" lon="-3.45097">
        <ele>131.8</ele>
        <time>2022-06-12T13:48:26Z</time>
      </trkpt>
      <trkpt lat="48.25213" lon="-3.45096">
        <ele>131.8</ele>
        <time>2022-06-12T13:48:27Z</time>
      </trkpt>
      <trkpt lat="48.25214" lon="-3.45095">
        <ele>131.8</ele>
        <time>2022-06-12T13:48:28Z</time>
      </trkpt>
      <trkpt lat="48.25215" lon="-3.45094">
        <ele>131.8</ele>
        <time>2022-06-12T13:48:29Z</time>
      </trkpt>
      <trkpt lat="48.25216" lon="-3.45094">
        <ele>131.8</ele>
        <time>2022-06-12T13:48:30Z</time>
      </trkpt>
      <trkpt lat="48.25217" lon="-3.45093">
        <ele>131.8</ele>
        <time>2022-06-12T13:48:31Z</time>
      </trkpt>
      <trkpt lat="48.25218" lon="-3.45092">
        <ele>131.8</ele>
        <time>2022-06-12T13:48:32Z</time>
      </trkpt>
      <trkpt lat="48.25219" lon="-3.45091">
        <ele>131.8</ele>
        <time>2022-06-12T13:48:33Z</time>
      </trkpt>
      <trkpt lat="48.25221" lon="-3.4509">
        <ele>131.8</ele>
        <time>2022-06-12T13:48:35Z</time>
      </trkpt>
      <trkpt lat="48.25221" lon="-3.45089">
        <ele>131.8</ele>
        <time>2022-06-12T13:48:36Z</time>
      </trkpt>
      <trkpt lat="48.25222" lon="-3.45089">
        <ele>131.8</ele>
        <time>2022-06-12T13:48:37Z</time>
      </trkpt>
      <trkpt lat="48.25224" lon="-3.45088">
        <ele>131.8</ele>
        <time>2022-06-12T13:48:38Z</time>
      </trkpt>
      <trkpt lat="48.25225" lon="-3.45088">
        <ele>131.8</ele>
        <time>2022-06-12T13:48:39Z</time>
      </trkpt>
      <trkpt lat="48.25226" lon="-3.45087">
        <ele>131.8</ele>
        <time>2022-06-12T13:48:41Z</time>
      </trkpt>
      <trkpt lat="48.25228" lon="-3.45087">
        <ele>131.8</ele>
        <time>2022-06-12T13:48:42Z</time>
      </trkpt>
      <trkpt lat="48.25229" lon="-3.45086">
        <ele>131.8</ele>
        <time>2022-06-12T13:48:43Z</time>
      </trkpt>
      <trkpt lat="48.2523" lon="-3.45085">
        <ele>131.8</ele>
        <time>2022-06-12T13:48:44Z</time>
      </trkpt>
      <trkpt lat="48.25231" lon="-3.45084">
        <ele>131.8</ele>
        <time>2022-06-12T13:48:46Z</time>
      </trkpt>
      <trkpt lat="48.25234" lon="-3.45082">
        <ele>131.7</ele>
        <time>2022-06-12T13:48:47Z</time>
      </trkpt>
      <trkpt lat="48.25234" lon="-3.45081">
        <ele>131.7</ele>
        <time>2022-06-12T13:48:48Z</time>
      </trkpt>
      <trkpt lat="48.25236" lon="-3.45079">
        <ele>131.7</ele>
        <time>2022-06-12T13:48:49Z</time>
      </trkpt>
      <trkpt lat="48.25237" lon="-3.45078">
        <ele>131.7</ele>
        <time>2022-06-12T13:48:50Z</time>
      </trkpt>
      <trkpt lat="48.25237" lon="-3.45077">
        <ele>131.7</ele>
        <time>2022-06-12T13:48:51Z</time>
      </trkpt>
      <trkpt lat="48.25238" lon="-3.45076">
        <ele>131.7</ele>
        <time>2022-06-12T13:48:53Z</time>
      </trkpt>
      <trkpt lat="48.25239" lon="-3.45074">
        <ele>131.7</ele>
        <time>2022-06-12T13:48:54Z</time>
      </trkpt>
      <trkpt lat="48.2524" lon="-3.45073">
        <ele>131.7</ele>
        <time>2022-06-12T13:48:55Z</time>
      </trkpt>
      <trkpt lat="48.25241" lon="-3.45072">
        <ele>131.7</ele>
        <time>2022-06-12T13:48:56Z</time>
      </trkpt>
      <trkpt lat="48.25242" lon="-3.45071">
        <ele>131.7</ele>
        <time>2022-06-12T13:48:57Z</time>
      </trkpt>
      <trkpt lat="48.25243" lon="-3.45069">
        <ele>131.7</ele>
        <time>2022-06-12T13:48:58Z</time>
      </trkpt>
      <trkpt lat="48.25244" lon="-3.45068">
        <ele>131.7</ele>
        <time>2022-06-12T13:48:59Z</time>
      </trkpt>
      <trkpt lat="48.25245" lon="-3.45066">
        <ele>131.7</ele>
        <time>2022-06-12T13:49:00Z</time>
      </trkpt>
      <trkpt lat="48.25246" lon="-3.45065">
        <ele>131.7</ele>
        <time>2022-06-12T13:49:01Z</time>
      </trkpt>
      <trkpt lat="48.25247" lon="-3.45064">
        <ele>131.7</ele>
        <time>2022-06-12T13:49:02Z</time>
      </trkpt>
      <trkpt lat="48.25248" lon="-3.45062">
        <ele>131.7</ele>
        <time>2022-06-12T13:49:04Z</time>
      </trkpt>
      <trkpt lat="48.25249" lon="-3.45061">
        <ele>131.7</ele>
        <time>2022-06-12T13:49:05Z</time>
      </trkpt>
      <trkpt lat="48.2525" lon="-3.45059">
        <ele>131.7</ele>
        <time>2022-06-12T13:49:06Z</time>
      </trkpt>
      <trkpt lat="48.25251" lon="-3.45058">
        <ele>131.7</ele>
        <time>2022-06-12T13:49:07Z</time>
      </trkpt>
      <trkpt lat="48.25252" lon="-3.45057">
        <ele>131.7</ele>
        <time>2022-06-12T13:49:08Z</time>
      </trkpt>
      <trkpt lat="48.25253" lon="-3.45055">
        <ele>131.7</ele>
        <time>2022-06-12T13:49:09Z</time>
      </trkpt>
      <trkpt lat="48.25253" lon="-3.45055">
        <ele>131.7</ele>
        <time>2022-06-12T13:49:10Z</time>
      </trkpt>
      <trkpt lat="48.25254" lon="-3.45054">
        <ele>131.7</ele>
        <time>2022-06-12T13:49:11Z</time>
      </trkpt>
      <trkpt lat="48.25254" lon="-3.45053">
        <ele>131.7</ele>
        <time>2022-06-12T13:49:12Z</time>
      </trkpt>
      <trkpt lat="48.25256" lon="-3.45051">
        <ele>131.7</ele>
        <time>2022-06-12T13:49:14Z</time>
      </trkpt>
      <trkpt lat="48.25257" lon="-3.4505">
        <ele>131.7</ele>
        <time>2022-06-12T13:49:15Z</time>
      </trkpt>
      <trkpt lat="48.25259" lon="-3.45049">
        <ele>131.6</ele>
        <time>2022-06-12T13:49:17Z</time>
      </trkpt>
      <trkpt lat="48.25261" lon="-3.45047">
        <ele>131.6</ele>
        <time>2022-06-12T13:49:19Z</time>
      </trkpt>
      <trkpt lat="48.25262" lon="-3.45046">
        <ele>131.6</ele>
        <time>2022-06-12T13:49:20Z</time>
      </trkpt>
      <trkpt lat="48.25263" lon="-3.45045">
        <ele>131.6</ele>
        <time>2022-06-12T13:49:21Z</time>
      </trkpt>
      <trkpt lat="48.25265" lon="-3.45043">
        <ele>131.6</ele>
        <time>2022-06-12T13:49:22Z</time>
      </trkpt>
      <trkpt lat="48.25266" lon="-3.45041">
        <ele>131.6</ele>
        <time>2022-06-12T13:49:23Z</time>
      </trkpt>
      <trkpt lat="48.25267" lon="-3.4504">
        <ele>131.6</ele>
        <time>2022-06-12T13:49:24Z</time>
      </trkpt>
      <trkpt lat="48.25267" lon="-3.45039">
        <ele>131.6</ele>
        <time>2022-06-12T13:49:25Z</time>
      </trkpt>
      <trkpt lat="48.25268" lon="-3.45037">
        <ele>131.6</ele>
        <time>2022-06-12T13:49:27Z</time>
      </trkpt>
      <trkpt lat="48.2527" lon="-3.45035">
        <ele>131.6</ele>
        <time>2022-06-12T13:49:28Z</time>
      </trkpt>
      <trkpt lat="48.2527" lon="-3.45034">
        <ele>131.6</ele>
        <time>2022-06-12T13:49:29Z</time>
      </trkpt>
      <trkpt lat="48.25271" lon="-3.45032">
        <ele>131.6</ele>
        <time>2022-06-12T13:49:31Z</time>
      </trkpt>
      <trkpt lat="48.25273" lon="-3.45031">
        <ele>131.6</ele>
        <time>2022-06-12T13:49:32Z</time>
      </trkpt>
      <trkpt lat="48.25274" lon="-3.45031">
        <ele>131.6</ele>
        <time>2022-06-12T13:49:33Z</time>
      </trkpt>
      <trkpt lat="48.25275" lon="-3.4503">
        <ele>131.6</ele>
        <time>2022-06-12T13:49:34Z</time>
      </trkpt>
      <trkpt lat="48.25275" lon="-3.4503">
        <ele>131.6</ele>
        <time>2022-06-12T13:49:35Z</time>
      </trkpt>
      <trkpt lat="48.25276" lon="-3.45029">
        <ele>131.6</ele>
        <time>2022-06-12T13:49:36Z</time>
      </trkpt>
      <trkpt lat="48.25277" lon="-3.45028">
        <ele>131.6</ele>
        <time>2022-06-12T13:49:37Z</time>
      </trkpt>
      <trkpt lat="48.25279" lon="-3.45026">
        <ele>131.6</ele>
        <time>2022-06-12T13:49:38Z</time>
      </trkpt>
      <trkpt lat="48.2528" lon="-3.45026">
        <ele>131.6</ele>
        <time>2022-06-12T13:49:40Z</time>
      </trkpt>
      <trkpt lat="48.25282" lon="-3.45025">
        <ele>131.6</ele>
        <time>2022-06-12T13:49:41Z</time>
      </trkpt>
      <trkpt lat="48.25283" lon="-3.45025">
        <ele>131.6</ele>
        <time>2022-06-12T13:49:42Z</time>
      </trkpt>
      <trkpt lat="48.25287" lon="-3.45025">
        <ele>131.6</ele>
        <time>2022-06-12T13:49:44Z</time>
      </trkpt>
      <trkpt lat="48.25288" lon="-3.45025">
        <ele>131.6</ele>
        <time>2022-06-12T13:49:45Z</time>
      </trkpt>
      <trkpt lat="48.2529" lon="-3.45027">
        <ele>131.6</ele>
        <time>2022-06-12T13:49:46Z</time>
      </trkpt>
      <trkpt lat="48.25291" lon="-3.45027">
        <ele>131.6</ele>
        <time>2022-06-12T13:49:47Z</time>
      </trkpt>
      <trkpt lat="48.25294" lon="-3.45028">
        <ele>131.6</ele>
        <time>2022-06-12T13:49:49Z</time>
      </trkpt>
      <trkpt lat="48.25295" lon="-3.45029">
        <ele>131.6</ele>
        <time>2022-06-12T13:49:50Z</time>
      </trkpt>
      <trkpt lat="48.25296" lon="-3.45029">
        <ele>131.6</ele>
        <time>2022-06-12T13:49:51Z</time>
      </trkpt>
      <trkpt lat="48.25297" lon="-3.45029">
        <ele>131.6</ele>
        <time>2022-06-12T13:49:52Z</time>
      </trkpt>
      <trkpt lat="48.25299" lon="-3.45029">
        <ele>131.6</ele>
        <time>2022-06-12T13:49:53Z</time>
      </trkpt>
      <trkpt lat="48.253" lon="-3.45029">
        <ele>131.6</ele>
        <time>2022-06-12T13:49:54Z</time>
      </trkpt>
      <trkpt lat="48.253" lon="-3.45029">
        <ele>131.6</ele>
        <time>2022-06-12T13:49:55Z</time>
      </trkpt>
      <trkpt lat="48.25301" lon="-3.45029">
        <ele>131.6</ele>
        <time>2022-06-12T13:49:56Z</time>
      </trkpt>
      <trkpt lat="48.25302" lon="-3.4503">
        <ele>131.6</ele>
        <time>2022-06-12T13:49:57Z</time>
      </trkpt>
      <trkpt lat="48.25303" lon="-3.4503">
        <ele>131.6</ele>
        <time>2022-06-12T13:49:58Z</time>
      </trkpt>
      <trkpt lat="48.25304" lon="-3.45031">
        <ele>131.6</ele>
        <time>2022-06-12T13:49:59Z</time>
      </trkpt>
      <trkpt lat="48.25305" lon="-3.45031">
        <ele>131.6</ele>
        <time>2022-06-12T13:50:00Z</time>
      </trkpt>
      <trkpt lat="48.25306" lon="-3.45032">
        <ele>131.6</ele>
        <time>2022-06-12T13:50:01Z</time>
      </trkpt>
      <trkpt lat="48.25307" lon="-3.45032">
        <ele>131.6</ele>
        <time>2022-06-12T13:50:02Z</time>
      </trkpt>
      <trkpt lat="48.25308" lon="-3.45032">
        <ele>131.6</ele>
        <time>2022-06-12T13:50:03Z</time>
      </trkpt>
      <trkpt lat="48.25309" lon="-3.45031">
        <ele>131.6</ele>
        <time>2022-06-12T13:50:04Z</time>
      </trkpt>
      <trkpt lat="48.2531" lon="-3.45028">
        <ele>131.6</ele>
        <time>2022-06-12T13:50:05Z</time>
      </trkpt>
      <trkpt lat="48.25311" lon="-3.45028">
        <ele>131.6</ele>
        <time>2022-06-12T13:50:07Z</time>
      </trkpt>
      <trkpt lat="48.25312" lon="-3.45027">
        <ele>131.6</ele>
        <time>2022-06-12T13:50:08Z</time>
      </trkpt>
      <trkpt lat="48.25314" lon="-3.45025">
        <ele>131.6</ele>
        <time>2022-06-12T13:50:09Z</time>
      </trkpt>
      <trkpt lat="48.25314" lon="-3.45024">
        <ele>131.6</ele>
        <time>2022-06-12T13:50:10Z</time>
      </trkpt>
      <trkpt lat="48.25316" lon="-3.45023">
        <ele>131.7</ele>
        <time>2022-06-12T13:50:11Z</time>
      </trkpt>
      <trkpt lat="48.25317" lon="-3.45022">
        <ele>131.7</ele>
        <time>2022-06-12T13:50:12Z</time>
      </trkpt>
      <trkpt lat="48.25318" lon="-3.45022">
        <ele>131.7</ele>
        <time>2022-06-12T13:50:13Z</time>
      </trkpt>
      <trkpt lat="48.25319" lon="-3.45021">
        <ele>131.7</ele>
        <time>2022-06-12T13:50:14Z</time>
      </trkpt>
      <trkpt lat="48.25321" lon="-3.4502">
        <ele>131.7</ele>
        <time>2022-06-12T13:50:16Z</time>
      </trkpt>
      <trkpt lat="48.25322" lon="-3.45019">
        <ele>131.7</ele>
        <time>2022-06-12T13:50:17Z</time>
      </trkpt>
      <trkpt lat="48.25323" lon="-3.45018">
        <ele>131.7</ele>
        <time>2022-06-12T13:50:18Z</time>
      </trkpt>
      <trkpt lat="48.25325" lon="-3.45016">
        <ele>131.7</ele>
        <time>2022-06-12T13:50:19Z</time>
      </trkpt>
      <trkpt lat="48.25326" lon="-3.45016">
        <ele>131.7</ele>
        <time>2022-06-12T13:50:20Z</time>
      </trkpt>
      <trkpt lat="48.25327" lon="-3.45015">
        <ele>131.7</ele>
        <time>2022-06-12T13:50:21Z</time>
      </trkpt>
      <trkpt lat="48.25328" lon="-3.45013">
        <ele>131.7</ele>
        <time>2022-06-12T13:50:22Z</time>
      </trkpt>
      <trkpt lat="48.2533" lon="-3.45012">
        <ele>131.7</ele>
        <time>2022-06-12T13:50:24Z</time>
      </trkpt>
      <trkpt lat="48.2533" lon="-3.45011">
        <ele>131.7</ele>
        <time>2022-06-12T13:50:25Z</time>
      </trkpt>
      <trkpt lat="48.25331" lon="-3.4501">
        <ele>131.7</ele>
        <time>2022-06-12T13:50:26Z</time>
      </trkpt>
      <trkpt lat="48.25331" lon="-3.45009">
        <ele>131.7</ele>
        <time>2022-06-12T13:50:27Z</time>
      </trkpt>
      <trkpt lat="48.25333" lon="-3.45007">
        <ele>131.7</ele>
        <time>2022-06-12T13:50:29Z</time>
      </trkpt>
      <trkpt lat="48.25333" lon="-3.45006">
        <ele>131.7</ele>
        <time>2022-06-12T13:50:30Z</time>
      </trkpt>
      <trkpt lat="48.25334" lon="-3.45005">
        <ele>131.7</ele>
        <time>2022-06-12T13:50:31Z</time>
      </trkpt>
      <trkpt lat="48.25334" lon="-3.45005">
        <ele>131.7</ele>
        <time>2022-06-12T13:50:32Z</time>
      </trkpt>
      <trkpt lat="48.25335" lon="-3.45004">
        <ele>131.7</ele>
        <time>2022-06-12T13:50:33Z</time>
      </trkpt>
      <trkpt lat="48.25336" lon="-3.45002">
        <ele>131.7</ele>
        <time>2022-06-12T13:50:34Z</time>
      </trkpt>
      <trkpt lat="48.25337" lon="-3.45001">
        <ele>131.7</ele>
        <time>2022-06-12T13:50:35Z</time>
      </trkpt>
      <trkpt lat="48.25339" lon="-3.45">
        <ele>131.7</ele>
        <time>2022-06-12T13:50:36Z</time>
      </trkpt>
      <trkpt lat="48.2534" lon="-3.44999">
        <ele>131.7</ele>
        <time>2022-06-12T13:50:37Z</time>
      </trkpt>
      <trkpt lat="48.25341" lon="-3.44999">
        <ele>131.7</ele>
        <time>2022-06-12T13:50:38Z</time>
      </trkpt>
      <trkpt lat="48.25343" lon="-3.44997">
        <ele>131.7</ele>
        <time>2022-06-12T13:50:39Z</time>
      </trkpt>
      <trkpt lat="48.25344" lon="-3.44996">
        <ele>131.7</ele>
        <time>2022-06-12T13:50:41Z</time>
      </trkpt>
      <trkpt lat="48.25345" lon="-3.44995">
        <ele>131.7</ele>
        <time>2022-06-12T13:50:42Z</time>
      </trkpt>
      <trkpt lat="48.25346" lon="-3.44993">
        <ele>131.7</ele>
        <time>2022-06-12T13:50:43Z</time>
      </trkpt>
      <trkpt lat="48.25348" lon="-3.44992">
        <ele>131.7</ele>
        <time>2022-06-12T13:50:44Z</time>
      </trkpt>
      <trkpt lat="48.25349" lon="-3.4499">
        <ele>131.7</ele>
        <time>2022-06-12T13:50:45Z</time>
      </trkpt>
      <trkpt lat="48.2535" lon="-3.44989">
        <ele>131.7</ele>
        <time>2022-06-12T13:50:46Z</time>
      </trkpt>
      <trkpt lat="48.25351" lon="-3.44989">
        <ele>131.7</ele>
        <time>2022-06-12T13:50:47Z</time>
      </trkpt>
      <trkpt lat="48.25352" lon="-3.44988">
        <ele>131.7</ele>
        <time>2022-06-12T13:50:48Z</time>
      </trkpt>
      <trkpt lat="48.25354" lon="-3.44986">
        <ele>131.7</ele>
        <time>2022-06-12T13:50:49Z</time>
      </trkpt>
      <trkpt lat="48.25355" lon="-3.44985">
        <ele>131.7</ele>
        <time>2022-06-12T13:50:51Z</time>
      </trkpt>
      <trkpt lat="48.25355" lon="-3.44985">
        <ele>131.7</ele>
        <time>2022-06-12T13:50:52Z</time>
      </trkpt>
      <trkpt lat="48.25356" lon="-3.44984">
        <ele>131.7</ele>
        <time>2022-06-12T13:50:53Z</time>
      </trkpt>
      <trkpt lat="48.25357" lon="-3.44983">
        <ele>131.7</ele>
        <time>2022-06-12T13:50:54Z</time>
      </trkpt>
      <trkpt lat="48.25358" lon="-3.44983">
        <ele>131.7</ele>
        <time>2022-06-12T13:50:55Z</time>
      </trkpt>
      <trkpt lat="48.25359" lon="-3.44983">
        <ele>131.7</ele>
        <time>2022-06-12T13:50:56Z</time>
      </trkpt>
      <trkpt lat="48.2536" lon="-3.44983">
        <ele>131.7</ele>
        <time>2022-06-12T13:50:58Z</time>
      </trkpt>
      <trkpt lat="48.25361" lon="-3.44982">
        <ele>131.7</ele>
        <time>2022-06-12T13:50:59Z</time>
      </trkpt>
      <trkpt lat="48.25362" lon="-3.44981">
        <ele>131.7</ele>
        <time>2022-06-12T13:51:00Z</time>
      </trkpt>
      <trkpt lat="48.25366" lon="-3.44979">
        <ele>131.7</ele>
        <time>2022-06-12T13:51:02Z</time>
      </trkpt>
      <trkpt lat="48.25367" lon="-3.44979">
        <ele>131.7</ele>
        <time>2022-06-12T13:51:03Z</time>
      </trkpt>
      <trkpt lat="48.25367" lon="-3.44978">
        <ele>131.7</ele>
        <time>2022-06-12T13:51:04Z</time>
      </trkpt>
      <trkpt lat="48.25368" lon="-3.44978">
        <ele>131.7</ele>
        <time>2022-06-12T13:51:05Z</time>
      </trkpt>
      <trkpt lat="48.25371" lon="-3.44976">
        <ele>131.8</ele>
        <time>2022-06-12T13:51:07Z</time>
      </trkpt>
      <trkpt lat="48.25372" lon="-3.44975">
        <ele>131.8</ele>
        <time>2022-06-12T13:51:08Z</time>
      </trkpt>
      <trkpt lat="48.25374" lon="-3.44974">
        <ele>131.8</ele>
        <time>2022-06-12T13:51:10Z</time>
      </trkpt>
      <trkpt lat="48.25375" lon="-3.44973">
        <ele>131.8</ele>
        <time>2022-06-12T13:51:11Z</time>
      </trkpt>
      <trkpt lat="48.25376" lon="-3.44973">
        <ele>131.8</ele>
        <time>2022-06-12T13:51:12Z</time>
      </trkpt>
      <trkpt lat="48.25376" lon="-3.44973">
        <ele>131.8</ele>
        <time>2022-06-12T13:51:13Z</time>
      </trkpt>
      <trkpt lat="48.25377" lon="-3.44972">
        <ele>131.8</ele>
        <time>2022-06-12T13:51:14Z</time>
      </trkpt>
      <trkpt lat="48.25379" lon="-3.44971">
        <ele>131.8</ele>
        <time>2022-06-12T13:51:16Z</time>
      </trkpt>
      <trkpt lat="48.2538" lon="-3.4497">
        <ele>131.8</ele>
        <time>2022-06-12T13:51:17Z</time>
      </trkpt>
      <trkpt lat="48.25382" lon="-3.44969">
        <ele>131.8</ele>
        <time>2022-06-12T13:51:19Z</time>
      </trkpt>
      <trkpt lat="48.25383" lon="-3.44968">
        <ele>131.8</ele>
        <time>2022-06-12T13:51:20Z</time>
      </trkpt>
      <trkpt lat="48.25385" lon="-3.44967">
        <ele>131.8</ele>
        <time>2022-06-12T13:51:21Z</time>
      </trkpt>
      <trkpt lat="48.25386" lon="-3.44966">
        <ele>131.8</ele>
        <time>2022-06-12T13:51:22Z</time>
      </trkpt>
      <trkpt lat="48.25388" lon="-3.44965">
        <ele>131.8</ele>
        <time>2022-06-12T13:51:24Z</time>
      </trkpt>
      <trkpt lat="48.25389" lon="-3.44964">
        <ele>131.8</ele>
        <time>2022-06-12T13:51:25Z</time>
      </trkpt>
      <trkpt lat="48.2539" lon="-3.44963">
        <ele>131.8</ele>
        <time>2022-06-12T13:51:26Z</time>
      </trkpt>
      <trkpt lat="48.25391" lon="-3.44962">
        <ele>131.9</ele>
        <time>2022-06-12T13:51:27Z</time>
      </trkpt>
      <trkpt lat="48.25392" lon="-3.44961">
        <ele>131.9</ele>
        <time>2022-06-12T13:51:28Z</time>
      </trkpt>
      <trkpt lat="48.25393" lon="-3.4496">
        <ele>131.9</ele>
        <time>2022-06-12T13:51:29Z</time>
      </trkpt>
      <trkpt lat="48.25394" lon="-3.4496">
        <ele>131.9</ele>
        <time>2022-06-12T13:51:30Z</time>
      </trkpt>
      <trkpt lat="48.25394" lon="-3.44958">
        <ele>131.9</ele>
        <time>2022-06-12T13:51:32Z</time>
      </trkpt>
      <trkpt lat="48.25393" lon="-3.44957">
        <ele>131.9</ele>
        <time>2022-06-12T13:51:33Z</time>
      </trkpt>
      <trkpt lat="48.25394" lon="-3.44955">
        <ele>131.9</ele>
        <time>2022-06-12T13:51:34Z</time>
      </trkpt>
      <trkpt lat="48.25395" lon="-3.44953">
        <ele>131.9</ele>
        <time>2022-06-12T13:51:35Z</time>
      </trkpt>
      <trkpt lat="48.25396" lon="-3.44952">
        <ele>132</ele>
        <time>2022-06-12T13:51:36Z</time>
      </trkpt>
      <trkpt lat="48.25397" lon="-3.44952">
        <ele>132</ele>
        <time>2022-06-12T13:51:37Z</time>
      </trkpt>
      <trkpt lat="48.25398" lon="-3.4495">
        <ele>132</ele>
        <time>2022-06-12T13:51:38Z</time>
      </trkpt>
      <trkpt lat="48.25399" lon="-3.44949">
        <ele>132</ele>
        <time>2022-06-12T13:51:39Z</time>
      </trkpt>
      <trkpt lat="48.254" lon="-3.44947">
        <ele>132</ele>
        <time>2022-06-12T13:51:40Z</time>
      </trkpt>
      <trkpt lat="48.254" lon="-3.44945">
        <ele>132.1</ele>
        <time>2022-06-12T13:51:41Z</time>
      </trkpt>
      <trkpt lat="48.25401" lon="-3.44943">
        <ele>132.1</ele>
        <time>2022-06-12T13:51:42Z</time>
      </trkpt>
      <trkpt lat="48.25402" lon="-3.44942">
        <ele>132.1</ele>
        <time>2022-06-12T13:51:44Z</time>
      </trkpt>
      <trkpt lat="48.25404" lon="-3.44941">
        <ele>132.2</ele>
        <time>2022-06-12T13:51:45Z</time>
      </trkpt>
      <trkpt lat="48.25405" lon="-3.4494">
        <ele>132.2</ele>
        <time>2022-06-12T13:51:46Z</time>
      </trkpt>
      <trkpt lat="48.25406" lon="-3.44938">
        <ele>132.2</ele>
        <time>2022-06-12T13:51:47Z</time>
      </trkpt>
      <trkpt lat="48.25407" lon="-3.44937">
        <ele>132.3</ele>
        <time>2022-06-12T13:51:48Z</time>
      </trkpt>
      <trkpt lat="48.25408" lon="-3.44936">
        <ele>132.3</ele>
        <time>2022-06-12T13:51:49Z</time>
      </trkpt>
      <trkpt lat="48.2541" lon="-3.44935">
        <ele>132.4</ele>
        <time>2022-06-12T13:51:50Z</time>
      </trkpt>
      <trkpt lat="48.25411" lon="-3.44934">
        <ele>132.4</ele>
        <time>2022-06-12T13:51:51Z</time>
      </trkpt>
      <trkpt lat="48.25412" lon="-3.44933">
        <ele>132.4</ele>
        <time>2022-06-12T13:51:52Z</time>
      </trkpt>
      <trkpt lat="48.25413" lon="-3.44931">
        <ele>132.5</ele>
        <time>2022-06-12T13:51:54Z</time>
      </trkpt>
      <trkpt lat="48.25415" lon="-3.44929">
        <ele>132.6</ele>
        <time>2022-06-12T13:51:55Z</time>
      </trkpt>
      <trkpt lat="48.25415" lon="-3.44928">
        <ele>132.6</ele>
        <time>2022-06-12T13:51:56Z</time>
      </trkpt>
      <trkpt lat="48.25416" lon="-3.44927">
        <ele>132.6</ele>
        <time>2022-06-12T13:51:57Z</time>
      </trkpt>
      <trkpt lat="48.25416" lon="-3.44925">
        <ele>132.7</ele>
        <time>2022-06-12T13:51:58Z</time>
      </trkpt>
      <trkpt lat="48.25417" lon="-3.44924">
        <ele>132.7</ele>
        <time>2022-06-12T13:51:59Z</time>
      </trkpt>
      <trkpt lat="48.25418" lon="-3.44923">
        <ele>132.8</ele>
        <time>2022-06-12T13:52:00Z</time>
      </trkpt>
      <trkpt lat="48.2542" lon="-3.44921">
        <ele>132.8</ele>
        <time>2022-06-12T13:52:01Z</time>
      </trkpt>
      <trkpt lat="48.25422" lon="-3.4492">
        <ele>132.9</ele>
        <time>2022-06-12T13:52:02Z</time>
      </trkpt>
      <trkpt lat="48.25422" lon="-3.44919">
        <ele>132.9</ele>
        <time>2022-06-12T13:52:04Z</time>
      </trkpt>
      <trkpt lat="48.25423" lon="-3.44918">
        <ele>133</ele>
        <time>2022-06-12T13:52:05Z</time>
      </trkpt>
      <trkpt lat="48.25425" lon="-3.44916">
        <ele>133</ele>
        <time>2022-06-12T13:52:06Z</time>
      </trkpt>
      <trkpt lat="48.25425" lon="-3.44916">
        <ele>133.1</ele>
        <time>2022-06-12T13:52:07Z</time>
      </trkpt>
      <trkpt lat="48.25426" lon="-3.44915">
        <ele>133.1</ele>
        <time>2022-06-12T13:52:08Z</time>
      </trkpt>
      <trkpt lat="48.25428" lon="-3.44913">
        <ele>133.2</ele>
        <time>2022-06-12T13:52:09Z</time>
      </trkpt>
      <trkpt lat="48.25428" lon="-3.44912">
        <ele>133.2</ele>
        <time>2022-06-12T13:52:10Z</time>
      </trkpt>
      <trkpt lat="48.25429" lon="-3.44911">
        <ele>133.3</ele>
        <time>2022-06-12T13:52:11Z</time>
      </trkpt>
      <trkpt lat="48.2543" lon="-3.44909">
        <ele>133.3</ele>
        <time>2022-06-12T13:52:13Z</time>
      </trkpt>
      <trkpt lat="48.25431" lon="-3.44908">
        <ele>133.4</ele>
        <time>2022-06-12T13:52:14Z</time>
      </trkpt>
      <trkpt lat="48.25432" lon="-3.44907">
        <ele>133.4</ele>
        <time>2022-06-12T13:52:15Z</time>
      </trkpt>
      <trkpt lat="48.25433" lon="-3.44905">
        <ele>133.5</ele>
        <time>2022-06-12T13:52:16Z</time>
      </trkpt>
      <trkpt lat="48.25434" lon="-3.44904">
        <ele>133.5</ele>
        <time>2022-06-12T13:52:17Z</time>
      </trkpt>
      <trkpt lat="48.25435" lon="-3.44903">
        <ele>133.6</ele>
        <time>2022-06-12T13:52:18Z</time>
      </trkpt>
      <trkpt lat="48.25436" lon="-3.44902">
        <ele>133.6</ele>
        <time>2022-06-12T13:52:19Z</time>
      </trkpt>
      <trkpt lat="48.25438" lon="-3.44901">
        <ele>133.7</ele>
        <time>2022-06-12T13:52:21Z</time>
      </trkpt>
      <trkpt lat="48.25439" lon="-3.449">
        <ele>133.7</ele>
        <time>2022-06-12T13:52:22Z</time>
      </trkpt>
      <trkpt lat="48.2544" lon="-3.44899">
        <ele>133.7</ele>
        <time>2022-06-12T13:52:23Z</time>
      </trkpt>
      <trkpt lat="48.25441" lon="-3.44898">
        <ele>133.8</ele>
        <time>2022-06-12T13:52:24Z</time>
      </trkpt>
      <trkpt lat="48.25442" lon="-3.44898">
        <ele>133.8</ele>
        <time>2022-06-12T13:52:25Z</time>
      </trkpt>
      <trkpt lat="48.25443" lon="-3.44897">
        <ele>133.9</ele>
        <time>2022-06-12T13:52:26Z</time>
      </trkpt>
      <trkpt lat="48.25444" lon="-3.44895">
        <ele>133.9</ele>
        <time>2022-06-12T13:52:28Z</time>
      </trkpt>
      <trkpt lat="48.25445" lon="-3.44894">
        <ele>133.9</ele>
        <time>2022-06-12T13:52:29Z</time>
      </trkpt>
      <trkpt lat="48.25447" lon="-3.44892">
        <ele>134</ele>
        <time>2022-06-12T13:52:30Z</time>
      </trkpt>
      <trkpt lat="48.25448" lon="-3.44892">
        <ele>134</ele>
        <time>2022-06-12T13:52:31Z</time>
      </trkpt>
      <trkpt lat="48.25448" lon="-3.44891">
        <ele>134</ele>
        <time>2022-06-12T13:52:32Z</time>
      </trkpt>
      <trkpt lat="48.25449" lon="-3.44891">
        <ele>134</ele>
        <time>2022-06-12T13:52:33Z</time>
      </trkpt>
      <trkpt lat="48.25451" lon="-3.4489">
        <ele>134.1</ele>
        <time>2022-06-12T13:52:34Z</time>
      </trkpt>
      <trkpt lat="48.25452" lon="-3.4489">
        <ele>134.1</ele>
        <time>2022-06-12T13:52:35Z</time>
      </trkpt>
      <trkpt lat="48.25454" lon="-3.44889">
        <ele>134.1</ele>
        <time>2022-06-12T13:52:37Z</time>
      </trkpt>
      <trkpt lat="48.25455" lon="-3.44888">
        <ele>134.1</ele>
        <time>2022-06-12T13:52:38Z</time>
      </trkpt>
      <trkpt lat="48.25456" lon="-3.44888">
        <ele>134.2</ele>
        <time>2022-06-12T13:52:39Z</time>
      </trkpt>
      <trkpt lat="48.25457" lon="-3.44888">
        <ele>134.2</ele>
        <time>2022-06-12T13:52:40Z</time>
      </trkpt>
      <trkpt lat="48.25458" lon="-3.44887">
        <ele>134.2</ele>
        <time>2022-06-12T13:52:42Z</time>
      </trkpt>
      <trkpt lat="48.2546" lon="-3.44886">
        <ele>134.2</ele>
        <time>2022-06-12T13:52:43Z</time>
      </trkpt>
      <trkpt lat="48.25461" lon="-3.44886">
        <ele>134.2</ele>
        <time>2022-06-12T13:52:44Z</time>
      </trkpt>
      <trkpt lat="48.25462" lon="-3.44885">
        <ele>134.2</ele>
        <time>2022-06-12T13:52:45Z</time>
      </trkpt>
      <trkpt lat="48.25462" lon="-3.44884">
        <ele>134.2</ele>
        <time>2022-06-12T13:52:46Z</time>
      </trkpt>
      <trkpt lat="48.25463" lon="-3.44883">
        <ele>134.2</ele>
        <time>2022-06-12T13:52:47Z</time>
      </trkpt>
      <trkpt lat="48.25464" lon="-3.44883">
        <ele>134.2</ele>
        <time>2022-06-12T13:52:49Z</time>
      </trkpt>
      <trkpt lat="48.25465" lon="-3.44882">
        <ele>134.3</ele>
        <time>2022-06-12T13:52:50Z</time>
      </trkpt>
      <trkpt lat="48.25465" lon="-3.44881">
        <ele>134.3</ele>
        <time>2022-06-12T13:52:51Z</time>
      </trkpt>
      <trkpt lat="48.25466" lon="-3.44881">
        <ele>134.3</ele>
        <time>2022-06-12T13:52:52Z</time>
      </trkpt>
      <trkpt lat="48.25467" lon="-3.44881">
        <ele>134.3</ele>
        <time>2022-06-12T13:52:53Z</time>
      </trkpt>
      <trkpt lat="48.25467" lon="-3.4488">
        <ele>134.3</ele>
        <time>2022-06-12T13:52:54Z</time>
      </trkpt>
      <trkpt lat="48.25468" lon="-3.4488">
        <ele>134.3</ele>
        <time>2022-06-12T13:52:55Z</time>
      </trkpt>
      <trkpt lat="48.25469" lon="-3.44879">
        <ele>134.3</ele>
        <time>2022-06-12T13:52:57Z</time>
      </trkpt>
      <trkpt lat="48.2547" lon="-3.44878">
        <ele>134.3</ele>
        <time>2022-06-12T13:52:58Z</time>
      </trkpt>
      <trkpt lat="48.2547" lon="-3.44878">
        <ele>134.3</ele>
        <time>2022-06-12T13:52:59Z</time>
      </trkpt>
      <trkpt lat="48.25471" lon="-3.44877">
        <ele>134.3</ele>
        <time>2022-06-12T13:53:00Z</time>
      </trkpt>
      <trkpt lat="48.25472" lon="-3.44876">
        <ele>134.3</ele>
        <time>2022-06-12T13:53:01Z</time>
      </trkpt>
      <trkpt lat="48.25473" lon="-3.44875">
        <ele>134.3</ele>
        <time>2022-06-12T13:53:02Z</time>
      </trkpt>
      <trkpt lat="48.25474" lon="-3.44875">
        <ele>134.3</ele>
        <time>2022-06-12T13:53:03Z</time>
      </trkpt>
      <trkpt lat="48.25475" lon="-3.44874">
        <ele>134.3</ele>
        <time>2022-06-12T13:53:05Z</time>
      </trkpt>
      <trkpt lat="48.25476" lon="-3.44874">
        <ele>134.3</ele>
        <time>2022-06-12T13:53:06Z</time>
      </trkpt>
      <trkpt lat="48.25477" lon="-3.44874">
        <ele>134.3</ele>
        <time>2022-06-12T13:53:07Z</time>
      </trkpt>
      <trkpt lat="48.25478" lon="-3.44874">
        <ele>134.3</ele>
        <time>2022-06-12T13:53:08Z</time>
      </trkpt>
      <trkpt lat="48.25479" lon="-3.44873">
        <ele>134.3</ele>
        <time>2022-06-12T13:53:09Z</time>
      </trkpt>
      <trkpt lat="48.2548" lon="-3.44873">
        <ele>134.3</ele>
        <time>2022-06-12T13:53:10Z</time>
      </trkpt>
      <trkpt lat="48.2548" lon="-3.44873">
        <ele>134.3</ele>
        <time>2022-06-12T13:53:11Z</time>
      </trkpt>
      <trkpt lat="48.2548" lon="-3.44873">
        <ele>134.3</ele>
        <time>2022-06-12T13:53:12Z</time>
      </trkpt>
      <trkpt lat="48.2548" lon="-3.44873">
        <ele>134.3</ele>
        <time>2022-06-12T13:53:13Z</time>
      </trkpt>
      <trkpt lat="48.25481" lon="-3.44872">
        <ele>134.3</ele>
        <time>2022-06-12T13:53:14Z</time>
      </trkpt>
      <trkpt lat="48.25482" lon="-3.44871">
        <ele>134.3</ele>
        <time>2022-06-12T13:53:16Z</time>
      </trkpt>
      <trkpt lat="48.25483" lon="-3.44871">
        <ele>134.3</ele>
        <time>2022-06-12T13:53:17Z</time>
      </trkpt>
      <trkpt lat="48.25485" lon="-3.4487">
        <ele>134.3</ele>
        <time>2022-06-12T13:53:18Z</time>
      </trkpt>
      <trkpt lat="48.25487" lon="-3.4487">
        <ele>134.3</ele>
        <time>2022-06-12T13:53:19Z</time>
      </trkpt>
      <trkpt lat="48.25488" lon="-3.4487">
        <ele>134.3</ele>
        <time>2022-06-12T13:53:21Z</time>
      </trkpt>
      <trkpt lat="48.2549" lon="-3.44869">
        <ele>134.3</ele>
        <time>2022-06-12T13:53:22Z</time>
      </trkpt>
      <trkpt lat="48.25491" lon="-3.44869">
        <ele>134.3</ele>
        <time>2022-06-12T13:53:23Z</time>
      </trkpt>
      <trkpt lat="48.25492" lon="-3.44869">
        <ele>134.3</ele>
        <time>2022-06-12T13:53:24Z</time>
      </trkpt>
      <trkpt lat="48.25494" lon="-3.4487">
        <ele>134.3</ele>
        <time>2022-06-12T13:53:26Z</time>
      </trkpt>
      <trkpt lat="48.25495" lon="-3.4487">
        <ele>134.3</ele>
        <time>2022-06-12T13:53:27Z</time>
      </trkpt>
      <trkpt lat="48.25495" lon="-3.44871">
        <ele>134.3</ele>
        <time>2022-06-12T13:53:28Z</time>
      </trkpt>
      <trkpt lat="48.25497" lon="-3.44872">
        <ele>134.3</ele>
        <time>2022-06-12T13:53:29Z</time>
      </trkpt>
      <trkpt lat="48.25499" lon="-3.44871">
        <ele>134.3</ele>
        <time>2022-06-12T13:53:30Z</time>
      </trkpt>
      <trkpt lat="48.255" lon="-3.44871">
        <ele>134.3</ele>
        <time>2022-06-12T13:53:31Z</time>
      </trkpt>
      <trkpt lat="48.25501" lon="-3.44871">
        <ele>134.3</ele>
        <time>2022-06-12T13:53:32Z</time>
      </trkpt>
      <trkpt lat="48.25502" lon="-3.4487">
        <ele>134.3</ele>
        <time>2022-06-12T13:53:33Z</time>
      </trkpt>
      <trkpt lat="48.25504" lon="-3.44869">
        <ele>134.3</ele>
        <time>2022-06-12T13:53:34Z</time>
      </trkpt>
      <trkpt lat="48.25505" lon="-3.44868">
        <ele>134.3</ele>
        <time>2022-06-12T13:53:35Z</time>
      </trkpt>
      <trkpt lat="48.25507" lon="-3.44867">
        <ele>134.3</ele>
        <time>2022-06-12T13:53:37Z</time>
      </trkpt>
      <trkpt lat="48.25508" lon="-3.44867">
        <ele>134.3</ele>
        <time>2022-06-12T13:53:38Z</time>
      </trkpt>
      <trkpt lat="48.2551" lon="-3.44865">
        <ele>134.3</ele>
        <time>2022-06-12T13:53:39Z</time>
      </trkpt>
      <trkpt lat="48.25511" lon="-3.44865">
        <ele>134.3</ele>
        <time>2022-06-12T13:53:40Z</time>
      </trkpt>
      <trkpt lat="48.25511" lon="-3.44864">
        <ele>134.3</ele>
        <time>2022-06-12T13:53:41Z</time>
      </trkpt>
      <trkpt lat="48.25512" lon="-3.44863">
        <ele>134.3</ele>
        <time>2022-06-12T13:53:43Z</time>
      </trkpt>
      <trkpt lat="48.25513" lon="-3.44862">
        <ele>134.3</ele>
        <time>2022-06-12T13:53:44Z</time>
      </trkpt>
      <trkpt lat="48.25514" lon="-3.4486">
        <ele>134.3</ele>
        <time>2022-06-12T13:53:45Z</time>
      </trkpt>
      <trkpt lat="48.25515" lon="-3.44859">
        <ele>134.3</ele>
        <time>2022-06-12T13:53:46Z</time>
      </trkpt>
      <trkpt lat="48.25516" lon="-3.44858">
        <ele>134.3</ele>
        <time>2022-06-12T13:53:47Z</time>
      </trkpt>
      <trkpt lat="48.25517" lon="-3.44857">
        <ele>134.3</ele>
        <time>2022-06-12T13:53:48Z</time>
      </trkpt>
      <trkpt lat="48.25518" lon="-3.44855">
        <ele>134.3</ele>
        <time>2022-06-12T13:53:49Z</time>
      </trkpt>
      <trkpt lat="48.2552" lon="-3.44853">
        <ele>134.3</ele>
        <time>2022-06-12T13:53:51Z</time>
      </trkpt>
      <trkpt lat="48.25521" lon="-3.44852">
        <ele>134.3</ele>
        <time>2022-06-12T13:53:52Z</time>
      </trkpt>
      <trkpt lat="48.25522" lon="-3.4485">
        <ele>134.3</ele>
        <time>2022-06-12T13:53:53Z</time>
      </trkpt>
      <trkpt lat="48.25523" lon="-3.4485">
        <ele>134.3</ele>
        <time>2022-06-12T13:53:54Z</time>
      </trkpt>
      <trkpt lat="48.25524" lon="-3.44849">
        <ele>134.3</ele>
        <time>2022-06-12T13:53:55Z</time>
      </trkpt>
      <trkpt lat="48.25525" lon="-3.44848">
        <ele>134.3</ele>
        <time>2022-06-12T13:53:56Z</time>
      </trkpt>
      <trkpt lat="48.25526" lon="-3.44848">
        <ele>134.3</ele>
        <time>2022-06-12T13:53:57Z</time>
      </trkpt>
      <trkpt lat="48.25527" lon="-3.44847">
        <ele>134.3</ele>
        <time>2022-06-12T13:53:59Z</time>
      </trkpt>
      <trkpt lat="48.25528" lon="-3.44846">
        <ele>134.3</ele>
        <time>2022-06-12T13:54:00Z</time>
      </trkpt>
      <trkpt lat="48.25529" lon="-3.44846">
        <ele>134.3</ele>
        <time>2022-06-12T13:54:01Z</time>
      </trkpt>
      <trkpt lat="48.2553" lon="-3.44845">
        <ele>134.3</ele>
        <time>2022-06-12T13:54:02Z</time>
      </trkpt>
      <trkpt lat="48.25531" lon="-3.44844">
        <ele>134.3</ele>
        <time>2022-06-12T13:54:03Z</time>
      </trkpt>
      <trkpt lat="48.25533" lon="-3.44843">
        <ele>134.3</ele>
        <time>2022-06-12T13:54:04Z</time>
      </trkpt>
      <trkpt lat="48.25534" lon="-3.44842">
        <ele>134.3</ele>
        <time>2022-06-12T13:54:05Z</time>
      </trkpt>
      <trkpt lat="48.25535" lon="-3.44841">
        <ele>134.3</ele>
        <time>2022-06-12T13:54:06Z</time>
      </trkpt>
      <trkpt lat="48.25536" lon="-3.44841">
        <ele>134.3</ele>
        <time>2022-06-12T13:54:07Z</time>
      </trkpt>
      <trkpt lat="48.25536" lon="-3.4484">
        <ele>134.3</ele>
        <time>2022-06-12T13:54:08Z</time>
      </trkpt>
      <trkpt lat="48.25537" lon="-3.44839">
        <ele>134.3</ele>
        <time>2022-06-12T13:54:09Z</time>
      </trkpt>
      <trkpt lat="48.25538" lon="-3.44838">
        <ele>134.3</ele>
        <time>2022-06-12T13:54:11Z</time>
      </trkpt>
      <trkpt lat="48.2554" lon="-3.44837">
        <ele>134.3</ele>
        <time>2022-06-12T13:54:12Z</time>
      </trkpt>
      <trkpt lat="48.25541" lon="-3.44836">
        <ele>134.3</ele>
        <time>2022-06-12T13:54:13Z</time>
      </trkpt>
      <trkpt lat="48.25544" lon="-3.44834">
        <ele>134.3</ele>
        <time>2022-06-12T13:54:14Z</time>
      </trkpt>
      <trkpt lat="48.25544" lon="-3.44834">
        <ele>134.3</ele>
        <time>2022-06-12T13:54:15Z</time>
      </trkpt>
      <trkpt lat="48.25546" lon="-3.44832">
        <ele>134.3</ele>
        <time>2022-06-12T13:54:17Z</time>
      </trkpt>
      <trkpt lat="48.25546" lon="-3.44832">
        <ele>134.3</ele>
        <time>2022-06-12T13:54:18Z</time>
      </trkpt>
      <trkpt lat="48.25547" lon="-3.44831">
        <ele>134.3</ele>
        <time>2022-06-12T13:54:19Z</time>
      </trkpt>
      <trkpt lat="48.25547" lon="-3.4483">
        <ele>134.3</ele>
        <time>2022-06-12T13:54:20Z</time>
      </trkpt>
      <trkpt lat="48.25549" lon="-3.44829">
        <ele>134.3</ele>
        <time>2022-06-12T13:54:21Z</time>
      </trkpt>
      <trkpt lat="48.2555" lon="-3.44828">
        <ele>134.3</ele>
        <time>2022-06-12T13:54:22Z</time>
      </trkpt>
      <trkpt lat="48.25551" lon="-3.44827">
        <ele>134.3</ele>
        <time>2022-06-12T13:54:23Z</time>
      </trkpt>
      <trkpt lat="48.25553" lon="-3.44826">
        <ele>134.3</ele>
        <time>2022-06-12T13:54:24Z</time>
      </trkpt>
      <trkpt lat="48.25554" lon="-3.44825">
        <ele>134.3</ele>
        <time>2022-06-12T13:54:26Z</time>
      </trkpt>
      <trkpt lat="48.25555" lon="-3.44823">
        <ele>134.3</ele>
        <time>2022-06-12T13:54:27Z</time>
      </trkpt>
      <trkpt lat="48.25557" lon="-3.44822">
        <ele>134.3</ele>
        <time>2022-06-12T13:54:28Z</time>
      </trkpt>
      <trkpt lat="48.25558" lon="-3.44821">
        <ele>134.3</ele>
        <time>2022-06-12T13:54:29Z</time>
      </trkpt>
      <trkpt lat="48.25559" lon="-3.44819">
        <ele>134.3</ele>
        <time>2022-06-12T13:54:30Z</time>
      </trkpt>
      <trkpt lat="48.2556" lon="-3.44817">
        <ele>134.2</ele>
        <time>2022-06-12T13:54:31Z</time>
      </trkpt>
      <trkpt lat="48.25562" lon="-3.44815">
        <ele>134.2</ele>
        <time>2022-06-12T13:54:33Z</time>
      </trkpt>
      <trkpt lat="48.25563" lon="-3.44814">
        <ele>134.2</ele>
        <time>2022-06-12T13:54:34Z</time>
      </trkpt>
      <trkpt lat="48.25564" lon="-3.44812">
        <ele>134.2</ele>
        <time>2022-06-12T13:54:35Z</time>
      </trkpt>
      <trkpt lat="48.25565" lon="-3.4481">
        <ele>134.2</ele>
        <time>2022-06-12T13:54:36Z</time>
      </trkpt>
      <trkpt lat="48.25565" lon="-3.44809">
        <ele>134.2</ele>
        <time>2022-06-12T13:54:37Z</time>
      </trkpt>
      <trkpt lat="48.25566" lon="-3.44808">
        <ele>134.2</ele>
        <time>2022-06-12T13:54:38Z</time>
      </trkpt>
      <trkpt lat="48.25567" lon="-3.44807">
        <ele>134.2</ele>
        <time>2022-06-12T13:54:39Z</time>
      </trkpt>
      <trkpt lat="48.25569" lon="-3.44806">
        <ele>134.2</ele>
        <time>2022-06-12T13:54:40Z</time>
      </trkpt>
      <trkpt lat="48.2557" lon="-3.44804">
        <ele>134.2</ele>
        <time>2022-06-12T13:54:42Z</time>
      </trkpt>
      <trkpt lat="48.25571" lon="-3.44803">
        <ele>134.2</ele>
        <time>2022-06-12T13:54:43Z</time>
      </trkpt>
      <trkpt lat="48.25572" lon="-3.44802">
        <ele>134.2</ele>
        <time>2022-06-12T13:54:44Z</time>
      </trkpt>
      <trkpt lat="48.25574" lon="-3.448">
        <ele>134.2</ele>
        <time>2022-06-12T13:54:45Z</time>
      </trkpt>
      <trkpt lat="48.25575" lon="-3.44799">
        <ele>134.2</ele>
        <time>2022-06-12T13:54:46Z</time>
      </trkpt>
      <trkpt lat="48.25575" lon="-3.44798">
        <ele>134.2</ele>
        <time>2022-06-12T13:54:47Z</time>
      </trkpt>
      <trkpt lat="48.25577" lon="-3.44796">
        <ele>134.2</ele>
        <time>2022-06-12T13:54:48Z</time>
      </trkpt>
      <trkpt lat="48.25578" lon="-3.44795">
        <ele>134.2</ele>
        <time>2022-06-12T13:54:49Z</time>
      </trkpt>
      <trkpt lat="48.25579" lon="-3.44794">
        <ele>134.2</ele>
        <time>2022-06-12T13:54:50Z</time>
      </trkpt>
      <trkpt lat="48.2558" lon="-3.44793">
        <ele>134.2</ele>
        <time>2022-06-12T13:54:52Z</time>
      </trkpt>
      <trkpt lat="48.25581" lon="-3.44792">
        <ele>134.2</ele>
        <time>2022-06-12T13:54:53Z</time>
      </trkpt>
      <trkpt lat="48.25582" lon="-3.44791">
        <ele>134.2</ele>
        <time>2022-06-12T13:54:54Z</time>
      </trkpt>
      <trkpt lat="48.25582" lon="-3.4479">
        <ele>134.3</ele>
        <time>2022-06-12T13:54:55Z</time>
      </trkpt>
      <trkpt lat="48.25583" lon="-3.44789">
        <ele>134.3</ele>
        <time>2022-06-12T13:54:56Z</time>
      </trkpt>
      <trkpt lat="48.25584" lon="-3.44788">
        <ele>134.3</ele>
        <time>2022-06-12T13:54:57Z</time>
      </trkpt>
      <trkpt lat="48.25584" lon="-3.44787">
        <ele>134.3</ele>
        <time>2022-06-12T13:54:58Z</time>
      </trkpt>
      <trkpt lat="48.25584" lon="-3.44787">
        <ele>134.3</ele>
        <time>2022-06-12T13:54:59Z</time>
      </trkpt>
      <trkpt lat="48.25585" lon="-3.44786">
        <ele>134.3</ele>
        <time>2022-06-12T13:55:00Z</time>
      </trkpt>
      <trkpt lat="48.25586" lon="-3.44785">
        <ele>134.3</ele>
        <time>2022-06-12T13:55:01Z</time>
      </trkpt>
      <trkpt lat="48.25588" lon="-3.44783">
        <ele>134.3</ele>
        <time>2022-06-12T13:55:03Z</time>
      </trkpt>
      <trkpt lat="48.2559" lon="-3.44781">
        <ele>134.3</ele>
        <time>2022-06-12T13:55:04Z</time>
      </trkpt>
      <trkpt lat="48.2559" lon="-3.4478">
        <ele>134.3</ele>
        <time>2022-06-12T13:55:05Z</time>
      </trkpt>
      <trkpt lat="48.25591" lon="-3.44779">
        <ele>134.3</ele>
        <time>2022-06-12T13:55:06Z</time>
      </trkpt>
      <trkpt lat="48.25592" lon="-3.44778">
        <ele>134.3</ele>
        <time>2022-06-12T13:55:08Z</time>
      </trkpt>
      <trkpt lat="48.25592" lon="-3.44777">
        <ele>134.4</ele>
        <time>2022-06-12T13:55:09Z</time>
      </trkpt>
      <trkpt lat="48.25592" lon="-3.44776">
        <ele>134.4</ele>
        <time>2022-06-12T13:55:10Z</time>
      </trkpt>
      <trkpt lat="48.25593" lon="-3.44775">
        <ele>134.4</ele>
        <time>2022-06-12T13:55:11Z</time>
      </trkpt>
      <trkpt lat="48.25594" lon="-3.44774">
        <ele>134.4</ele>
        <time>2022-06-12T13:55:12Z</time>
      </trkpt>
      <trkpt lat="48.25595" lon="-3.44772">
        <ele>134.4</ele>
        <time>2022-06-12T13:55:13Z</time>
      </trkpt>
      <trkpt lat="48.25596" lon="-3.44771">
        <ele>134.4</ele>
        <time>2022-06-12T13:55:14Z</time>
      </trkpt>
      <trkpt lat="48.25596" lon="-3.4477">
        <ele>134.4</ele>
        <time>2022-06-12T13:55:15Z</time>
      </trkpt>
      <trkpt lat="48.25597" lon="-3.44769">
        <ele>134.4</ele>
        <time>2022-06-12T13:55:17Z</time>
      </trkpt>
      <trkpt lat="48.25598" lon="-3.44769">
        <ele>134.4</ele>
        <time>2022-06-12T13:55:18Z</time>
      </trkpt>
      <trkpt lat="48.25598" lon="-3.44768">
        <ele>134.4</ele>
        <time>2022-06-12T13:55:19Z</time>
      </trkpt>
      <trkpt lat="48.25599" lon="-3.44767">
        <ele>134.4</ele>
        <time>2022-06-12T13:55:20Z</time>
      </trkpt>
      <trkpt lat="48.256" lon="-3.44766">
        <ele>134.4</ele>
        <time>2022-06-12T13:55:21Z</time>
      </trkpt>
      <trkpt lat="48.25601" lon="-3.44765">
        <ele>134.4</ele>
        <time>2022-06-12T13:55:22Z</time>
      </trkpt>
      <trkpt lat="48.25602" lon="-3.44764">
        <ele>134.4</ele>
        <time>2022-06-12T13:55:23Z</time>
      </trkpt>
      <trkpt lat="48.25603" lon="-3.44762">
        <ele>134.4</ele>
        <time>2022-06-12T13:55:24Z</time>
      </trkpt>
      <trkpt lat="48.25604" lon="-3.44761">
        <ele>134.4</ele>
        <time>2022-06-12T13:55:26Z</time>
      </trkpt>
      <trkpt lat="48.25604" lon="-3.4476">
        <ele>134.4</ele>
        <time>2022-06-12T13:55:27Z</time>
      </trkpt>
      <trkpt lat="48.25605" lon="-3.44758">
        <ele>134.4</ele>
        <time>2022-06-12T13:55:28Z</time>
      </trkpt>
      <trkpt lat="48.25605" lon="-3.44757">
        <ele>134.4</ele>
        <time>2022-06-12T13:55:29Z</time>
      </trkpt>
      <trkpt lat="48.25606" lon="-3.44756">
        <ele>134.4</ele>
        <time>2022-06-12T13:55:30Z</time>
      </trkpt>
      <trkpt lat="48.25607" lon="-3.44755">
        <ele>134.4</ele>
        <time>2022-06-12T13:55:31Z</time>
      </trkpt>
      <trkpt lat="48.25607" lon="-3.44753">
        <ele>134.4</ele>
        <time>2022-06-12T13:55:32Z</time>
      </trkpt>
      <trkpt lat="48.25608" lon="-3.44752">
        <ele>134.4</ele>
        <time>2022-06-12T13:55:33Z</time>
      </trkpt>
      <trkpt lat="48.25609" lon="-3.4475">
        <ele>134.4</ele>
        <time>2022-06-12T13:55:35Z</time>
      </trkpt>
      <trkpt lat="48.25609" lon="-3.44749">
        <ele>134.4</ele>
        <time>2022-06-12T13:55:36Z</time>
      </trkpt>
      <trkpt lat="48.25609" lon="-3.44748">
        <ele>134.4</ele>
        <time>2022-06-12T13:55:37Z</time>
      </trkpt>
      <trkpt lat="48.25609" lon="-3.44746">
        <ele>134.4</ele>
        <time>2022-06-12T13:55:38Z</time>
      </trkpt>
      <trkpt lat="48.25609" lon="-3.44745">
        <ele>134.4</ele>
        <time>2022-06-12T13:55:39Z</time>
      </trkpt>
      <trkpt lat="48.2561" lon="-3.44744">
        <ele>134.4</ele>
        <time>2022-06-12T13:55:40Z</time>
      </trkpt>
      <trkpt lat="48.2561" lon="-3.44742">
        <ele>134.3</ele>
        <time>2022-06-12T13:55:41Z</time>
      </trkpt>
      <trkpt lat="48.2561" lon="-3.44741">
        <ele>134.3</ele>
        <time>2022-06-12T13:55:42Z</time>
      </trkpt>
      <trkpt lat="48.25611" lon="-3.44739">
        <ele>134.3</ele>
        <time>2022-06-12T13:55:44Z</time>
      </trkpt>
      <trkpt lat="48.25612" lon="-3.44738">
        <ele>134.3</ele>
        <time>2022-06-12T13:55:45Z</time>
      </trkpt>
      <trkpt lat="48.25612" lon="-3.44737">
        <ele>134.3</ele>
        <time>2022-06-12T13:55:46Z</time>
      </trkpt>
      <trkpt lat="48.25612" lon="-3.44736">
        <ele>134.3</ele>
        <time>2022-06-12T13:55:47Z</time>
      </trkpt>
      <trkpt lat="48.25613" lon="-3.44734">
        <ele>134.4</ele>
        <time>2022-06-12T13:55:48Z</time>
      </trkpt>
      <trkpt lat="48.25613" lon="-3.44732">
        <ele>134.4</ele>
        <time>2022-06-12T13:55:49Z</time>
      </trkpt>
      <trkpt lat="48.25613" lon="-3.44731">
        <ele>134.4</ele>
        <time>2022-06-12T13:55:50Z</time>
      </trkpt>
      <trkpt lat="48.25614" lon="-3.44729">
        <ele>134.4</ele>
        <time>2022-06-12T13:55:51Z</time>
      </trkpt>
      <trkpt lat="48.25614" lon="-3.44727">
        <ele>134.4</ele>
        <time>2022-06-12T13:55:53Z</time>
      </trkpt>
      <trkpt lat="48.25615" lon="-3.44725">
        <ele>134.4</ele>
        <time>2022-06-12T13:55:54Z</time>
      </trkpt>
      <trkpt lat="48.25616" lon="-3.44723">
        <ele>134.4</ele>
        <time>2022-06-12T13:55:55Z</time>
      </trkpt>
      <trkpt lat="48.25616" lon="-3.44722">
        <ele>134.4</ele>
        <time>2022-06-12T13:55:56Z</time>
      </trkpt>
      <trkpt lat="48.25617" lon="-3.4472">
        <ele>134.5</ele>
        <time>2022-06-12T13:55:57Z</time>
      </trkpt>
      <trkpt lat="48.25617" lon="-3.44719">
        <ele>134.5</ele>
        <time>2022-06-12T13:55:58Z</time>
      </trkpt>
      <trkpt lat="48.25618" lon="-3.44717">
        <ele>134.5</ele>
        <time>2022-06-12T13:55:59Z</time>
      </trkpt>
      <trkpt lat="48.25618" lon="-3.44715">
        <ele>134.5</ele>
        <time>2022-06-12T13:56:00Z</time>
      </trkpt>
      <trkpt lat="48.25619" lon="-3.44714">
        <ele>134.5</ele>
        <time>2022-06-12T13:56:02Z</time>
      </trkpt>
      <trkpt lat="48.25619" lon="-3.44712">
        <ele>134.5</ele>
        <time>2022-06-12T13:56:03Z</time>
      </trkpt>
      <trkpt lat="48.2562" lon="-3.4471">
        <ele>134.5</ele>
        <time>2022-06-12T13:56:04Z</time>
      </trkpt>
      <trkpt lat="48.25621" lon="-3.44709">
        <ele>134.6</ele>
        <time>2022-06-12T13:56:05Z</time>
      </trkpt>
      <trkpt lat="48.25621" lon="-3.44707">
        <ele>134.6</ele>
        <time>2022-06-12T13:56:06Z</time>
      </trkpt>
      <trkpt lat="48.25622" lon="-3.44706">
        <ele>134.6</ele>
        <time>2022-06-12T13:56:07Z</time>
      </trkpt>
      <trkpt lat="48.25622" lon="-3.44704">
        <ele>134.6</ele>
        <time>2022-06-12T13:56:08Z</time>
      </trkpt>
      <trkpt lat="48.25623" lon="-3.44701">
        <ele>134.6</ele>
        <time>2022-06-12T13:56:10Z</time>
      </trkpt>
      <trkpt lat="48.25623" lon="-3.447">
        <ele>134.6</ele>
        <time>2022-06-12T13:56:11Z</time>
      </trkpt>
      <trkpt lat="48.25623" lon="-3.44699">
        <ele>134.7</ele>
        <time>2022-06-12T13:56:12Z</time>
      </trkpt>
      <trkpt lat="48.25623" lon="-3.44698">
        <ele>134.7</ele>
        <time>2022-06-12T13:56:13Z</time>
      </trkpt>
      <trkpt lat="48.25624" lon="-3.44696">
        <ele>134.7</ele>
        <time>2022-06-12T13:56:14Z</time>
      </trkpt>
      <trkpt lat="48.25624" lon="-3.44695">
        <ele>134.7</ele>
        <time>2022-06-12T13:56:16Z</time>
      </trkpt>
      <trkpt lat="48.25624" lon="-3.44693">
        <ele>134.7</ele>
        <time>2022-06-12T13:56:17Z</time>
      </trkpt>
      <trkpt lat="48.25625" lon="-3.44691">
        <ele>134.7</ele>
        <time>2022-06-12T13:56:18Z</time>
      </trkpt>
      <trkpt lat="48.25625" lon="-3.4469">
        <ele>134.8</ele>
        <time>2022-06-12T13:56:19Z</time>
      </trkpt>
      <trkpt lat="48.25625" lon="-3.44688">
        <ele>134.8</ele>
        <time>2022-06-12T13:56:20Z</time>
      </trkpt>
      <trkpt lat="48.25624" lon="-3.44686">
        <ele>134.8</ele>
        <time>2022-06-12T13:56:21Z</time>
      </trkpt>
      <trkpt lat="48.25624" lon="-3.44684">
        <ele>134.8</ele>
        <time>2022-06-12T13:56:23Z</time>
      </trkpt>
      <trkpt lat="48.25624" lon="-3.4468">
        <ele>134.9</ele>
        <time>2022-06-12T13:56:24Z</time>
      </trkpt>
      <trkpt lat="48.25624" lon="-3.44679">
        <ele>134.9</ele>
        <time>2022-06-12T13:56:25Z</time>
      </trkpt>
      <trkpt lat="48.25624" lon="-3.44678">
        <ele>134.9</ele>
        <time>2022-06-12T13:56:26Z</time>
      </trkpt>
      <trkpt lat="48.25623" lon="-3.44676">
        <ele>135</ele>
        <time>2022-06-12T13:56:27Z</time>
      </trkpt>
      <trkpt lat="48.25623" lon="-3.44673">
        <ele>135</ele>
        <time>2022-06-12T13:56:28Z</time>
      </trkpt>
      <trkpt lat="48.25623" lon="-3.44671">
        <ele>135.1</ele>
        <time>2022-06-12T13:56:30Z</time>
      </trkpt>
      <trkpt lat="48.25623" lon="-3.44669">
        <ele>135.1</ele>
        <time>2022-06-12T13:56:31Z</time>
      </trkpt>
      <trkpt lat="48.25622" lon="-3.44667">
        <ele>135.1</ele>
        <time>2022-06-12T13:56:32Z</time>
      </trkpt>
      <trkpt lat="48.25622" lon="-3.44665">
        <ele>135.1</ele>
        <time>2022-06-12T13:56:33Z</time>
      </trkpt>
      <trkpt lat="48.25622" lon="-3.44663">
        <ele>135.2</ele>
        <time>2022-06-12T13:56:34Z</time>
      </trkpt>
      <trkpt lat="48.25621" lon="-3.44661">
        <ele>135.2</ele>
        <time>2022-06-12T13:56:35Z</time>
      </trkpt>
      <trkpt lat="48.25621" lon="-3.44658">
        <ele>135.2</ele>
        <time>2022-06-12T13:56:37Z</time>
      </trkpt>
      <trkpt lat="48.25622" lon="-3.44656">
        <ele>135.2</ele>
        <time>2022-06-12T13:56:38Z</time>
      </trkpt>
      <trkpt lat="48.25622" lon="-3.44655">
        <ele>135.3</ele>
        <time>2022-06-12T13:56:39Z</time>
      </trkpt>
      <trkpt lat="48.25622" lon="-3.44654">
        <ele>135.3</ele>
        <time>2022-06-12T13:56:41Z</time>
      </trkpt>
      <trkpt lat="48.25623" lon="-3.44652">
        <ele>135.3</ele>
        <time>2022-06-12T13:56:42Z</time>
      </trkpt>
      <trkpt lat="48.25623" lon="-3.44652">
        <ele>135.3</ele>
        <time>2022-06-12T13:56:43Z</time>
      </trkpt>
      <trkpt lat="48.25623" lon="-3.44651">
        <ele>135.3</ele>
        <time>2022-06-12T13:56:44Z</time>
      </trkpt>
      <trkpt lat="48.25624" lon="-3.44651">
        <ele>135.3</ele>
        <time>2022-06-12T13:56:45Z</time>
      </trkpt>
      <trkpt lat="48.25624" lon="-3.44651">
        <ele>135.3</ele>
        <time>2022-06-12T13:56:46Z</time>
      </trkpt>
      <trkpt lat="48.25624" lon="-3.44651">
        <ele>135.3</ele>
        <time>2022-06-12T13:56:47Z</time>
      </trkpt>
      <trkpt lat="48.25624" lon="-3.44651">
        <ele>135.3</ele>
        <time>2022-06-12T13:56:48Z</time>
      </trkpt>
      <trkpt lat="48.25624" lon="-3.44651">
        <ele>135.3</ele>
        <time>2022-06-12T13:56:49Z</time>
      </trkpt>
      <trkpt lat="48.25624" lon="-3.44651">
        <ele>135.3</ele>
        <time>2022-06-12T13:56:50Z</time>
      </trkpt>
      <trkpt lat="48.25624" lon="-3.44651">
        <ele>135.3</ele>
        <time>2022-06-12T13:56:51Z</time>
      </trkpt>
      <trkpt lat="48.25624" lon="-3.44651">
        <ele>135.3</ele>
        <time>2022-06-12T13:56:52Z</time>
      </trkpt>
      <trkpt lat="48.25624" lon="-3.44651">
        <ele>135.3</ele>
        <time>2022-06-12T13:56:53Z</time>
      </trkpt>
      <trkpt lat="48.25624" lon="-3.44651">
        <ele>135.3</ele>
        <time>2022-06-12T13:56:54Z</time>
      </trkpt>
      <trkpt lat="48.25624" lon="-3.44651">
        <ele>135.3</ele>
        <time>2022-06-12T13:56:55Z</time>
      </trkpt>
      <trkpt lat="48.25624" lon="-3.44651">
        <ele>135.3</ele>
        <time>2022-06-12T13:56:56Z</time>
      </trkpt>
      <trkpt lat="48.25624" lon="-3.44651">
        <ele>135.3</ele>
        <time>2022-06-12T13:56:57Z</time>
      </trkpt>
      <trkpt lat="48.25624" lon="-3.44651">
        <ele>135.3</ele>
        <time>2022-06-12T13:56:58Z</time>
      </trkpt>
      <trkpt lat="48.25624" lon="-3.44651">
        <ele>135.3</ele>
        <time>2022-06-12T13:56:59Z</time>
      </trkpt>
      <trkpt lat="48.25624" lon="-3.44652">
        <ele>135.3</ele>
        <time>2022-06-12T13:57:01Z</time>
      </trkpt>
      <trkpt lat="48.25624" lon="-3.44652">
        <ele>135.3</ele>
        <time>2022-06-12T13:57:03Z</time>
      </trkpt>
      <trkpt lat="48.25624" lon="-3.44652">
        <ele>135.3</ele>
        <time>2022-06-12T13:57:04Z</time>
      </trkpt>
      <trkpt lat="48.25624" lon="-3.44652">
        <ele>135.3</ele>
        <time>2022-06-12T13:57:05Z</time>
      </trkpt>
      <trkpt lat="48.25624" lon="-3.44653">
        <ele>135.3</ele>
        <time>2022-06-12T13:57:06Z</time>
      </trkpt>
      <trkpt lat="48.25624" lon="-3.44653">
        <ele>135.3</ele>
        <time>2022-06-12T13:57:07Z</time>
      </trkpt>
      <trkpt lat="48.25624" lon="-3.44653">
        <ele>135.3</ele>
        <time>2022-06-12T13:57:08Z</time>
      </trkpt>
      <trkpt lat="48.25624" lon="-3.44653">
        <ele>135.3</ele>
        <time>2022-06-12T13:57:09Z</time>
      </trkpt>
      <trkpt lat="48.25624" lon="-3.44653">
        <ele>135.3</ele>
        <time>2022-06-12T13:57:10Z</time>
      </trkpt>
      <trkpt lat="48.25624" lon="-3.44653">
        <ele>135.3</ele>
        <time>2022-06-12T13:57:11Z</time>
      </trkpt>
      <trkpt lat="48.25624" lon="-3.44653">
        <ele>135.3</ele>
        <time>2022-06-12T13:57:12Z</time>
      </trkpt>
      <trkpt lat="48.25624" lon="-3.44653">
        <ele>135.3</ele>
        <time>2022-06-12T13:57:13Z</time>
      </trkpt>
      <trkpt lat="48.25624" lon="-3.44653">
        <ele>135.3</ele>
        <time>2022-06-12T13:57:14Z</time>
      </trkpt>
      <trkpt lat="48.25624" lon="-3.44653">
        <ele>135.3</ele>
        <time>2022-06-12T13:57:15Z</time>
      </trkpt>
      <trkpt lat="48.25624" lon="-3.44653">
        <ele>135.3</ele>
        <time>2022-06-12T13:57:16Z</time>
      </trkpt>
      <trkpt lat="48.25624" lon="-3.44653">
        <ele>135.3</ele>
        <time>2022-06-12T13:57:17Z</time>
      </trkpt>
      <trkpt lat="48.25624" lon="-3.44653">
        <ele>135.3</ele>
        <time>2022-06-12T13:57:18Z</time>
      </trkpt>
      <trkpt lat="48.25624" lon="-3.44653">
        <ele>135.3</ele>
        <time>2022-06-12T13:57:19Z</time>
      </trkpt>
      <trkpt lat="48.25624" lon="-3.44653">
        <ele>135.3</ele>
        <time>2022-06-12T13:57:20Z</time>
      </trkpt>
      <trkpt lat="48.25624" lon="-3.44653">
        <ele>135.3</ele>
        <time>2022-06-12T13:57:21Z</time>
      </trkpt>
      <trkpt lat="48.25623" lon="-3.44654">
        <ele>135.3</ele>
        <time>2022-06-12T13:57:22Z</time>
      </trkpt>
      <trkpt lat="48.25621" lon="-3.44656">
        <ele>135.3</ele>
        <time>2022-06-12T13:57:23Z</time>
      </trkpt>
      <trkpt lat="48.2562" lon="-3.44657">
        <ele>135.3</ele>
        <time>2022-06-12T13:57:24Z</time>
      </trkpt>
      <trkpt lat="48.2562" lon="-3.44658">
        <ele>135.3</ele>
        <time>2022-06-12T13:57:25Z</time>
      </trkpt>
      <trkpt lat="48.2562" lon="-3.44658">
        <ele>135.3</ele>
        <time>2022-06-12T13:57:26Z</time>
      </trkpt>
      <trkpt lat="48.2562" lon="-3.44659">
        <ele>135.3</ele>
        <time>2022-06-12T13:57:27Z</time>
      </trkpt>
      <trkpt lat="48.2562" lon="-3.44659">
        <ele>135.3</ele>
        <time>2022-06-12T13:57:28Z</time>
      </trkpt>
      <trkpt lat="48.2562" lon="-3.44659">
        <ele>135.3</ele>
        <time>2022-06-12T13:57:29Z</time>
      </trkpt>
      <trkpt lat="48.2562" lon="-3.4466">
        <ele>135.3</ele>
        <time>2022-06-12T13:57:30Z</time>
      </trkpt>
      <trkpt lat="48.2562" lon="-3.4466">
        <ele>135.3</ele>
        <time>2022-06-12T13:57:31Z</time>
      </trkpt>
      <trkpt lat="48.2562" lon="-3.4466">
        <ele>135.3</ele>
        <time>2022-06-12T13:57:32Z</time>
      </trkpt>
      <trkpt lat="48.25621" lon="-3.4466">
        <ele>135.3</ele>
        <time>2022-06-12T13:57:33Z</time>
      </trkpt>
      <trkpt lat="48.25621" lon="-3.4466">
        <ele>135.3</ele>
        <time>2022-06-12T13:57:34Z</time>
      </trkpt>
      <trkpt lat="48.25621" lon="-3.4466">
        <ele>135.3</ele>
        <time>2022-06-12T13:57:35Z</time>
      </trkpt>
      <trkpt lat="48.25621" lon="-3.44661">
        <ele>135.3</ele>
        <time>2022-06-12T13:57:36Z</time>
      </trkpt>
      <trkpt lat="48.25622" lon="-3.44661">
        <ele>135.3</ele>
        <time>2022-06-12T13:57:38Z</time>
      </trkpt>
      <trkpt lat="48.25622" lon="-3.44662">
        <ele>135.3</ele>
        <time>2022-06-12T13:57:39Z</time>
      </trkpt>
      <trkpt lat="48.25623" lon="-3.44662">
        <ele>135.3</ele>
        <time>2022-06-12T13:57:41Z</time>
      </trkpt>
      <trkpt lat="48.25623" lon="-3.44662">
        <ele>135.3</ele>
        <time>2022-06-12T13:57:42Z</time>
      </trkpt>
      <trkpt lat="48.25623" lon="-3.44662">
        <ele>135.3</ele>
        <time>2022-06-12T13:57:43Z</time>
      </trkpt>
      <trkpt lat="48.25622" lon="-3.44661">
        <ele>135.3</ele>
        <time>2022-06-12T13:57:45Z</time>
      </trkpt>
      <trkpt lat="48.25622" lon="-3.44661">
        <ele>135.3</ele>
        <time>2022-06-12T13:57:46Z</time>
      </trkpt>
      <trkpt lat="48.25622" lon="-3.44661">
        <ele>135.3</ele>
        <time>2022-06-12T13:57:47Z</time>
      </trkpt>
      <trkpt lat="48.25622" lon="-3.4466">
        <ele>135.3</ele>
        <time>2022-06-12T13:57:48Z</time>
      </trkpt>
      <trkpt lat="48.25622" lon="-3.4466">
        <ele>135.3</ele>
        <time>2022-06-12T13:57:49Z</time>
      </trkpt>
      <trkpt lat="48.25622" lon="-3.4466">
        <ele>135.3</ele>
        <time>2022-06-12T13:57:50Z</time>
      </trkpt>
      <trkpt lat="48.25622" lon="-3.4466">
        <ele>135.3</ele>
        <time>2022-06-12T13:57:51Z</time>
      </trkpt>
      <trkpt lat="48.25621" lon="-3.4466">
        <ele>135.3</ele>
        <time>2022-06-12T13:57:52Z</time>
      </trkpt>
      <trkpt lat="48.25621" lon="-3.4466">
        <ele>135.3</ele>
        <time>2022-06-12T13:57:53Z</time>
      </trkpt>
      <trkpt lat="48.2562" lon="-3.4466">
        <ele>135.3</ele>
        <time>2022-06-12T13:57:54Z</time>
      </trkpt>
      <trkpt lat="48.2562" lon="-3.4466">
        <ele>135.3</ele>
        <time>2022-06-12T13:57:55Z</time>
      </trkpt>
      <trkpt lat="48.2562" lon="-3.4466">
        <ele>135.3</ele>
        <time>2022-06-12T13:57:56Z</time>
      </trkpt>
      <trkpt lat="48.2562" lon="-3.4466">
        <ele>135.3</ele>
        <time>2022-06-12T13:57:57Z</time>
      </trkpt>
      <trkpt lat="48.2562" lon="-3.4466">
        <ele>135.3</ele>
        <time>2022-06-12T13:57:58Z</time>
      </trkpt>
      <trkpt lat="48.2562" lon="-3.4466">
        <ele>135.3</ele>
        <time>2022-06-12T13:57:59Z</time>
      </trkpt>
      <trkpt lat="48.2562" lon="-3.4466">
        <ele>135.3</ele>
        <time>2022-06-12T13:58:00Z</time>
      </trkpt>
      <trkpt lat="48.2562" lon="-3.4466">
        <ele>135.3</ele>
        <time>2022-06-12T13:58:01Z</time>
      </trkpt>
      <trkpt lat="48.2562" lon="-3.4466">
        <ele>135.3</ele>
        <time>2022-06-12T13:58:02Z</time>
      </trkpt>
      <trkpt lat="48.2562" lon="-3.4466">
        <ele>135.3</ele>
        <time>2022-06-12T13:58:03Z</time>
      </trkpt>
      <trkpt lat="48.2562" lon="-3.4466">
        <ele>135.3</ele>
        <time>2022-06-12T13:58:04Z</time>
      </trkpt>
      <trkpt lat="48.2562" lon="-3.4466">
        <ele>135.3</ele>
        <time>2022-06-12T13:58:05Z</time>
      </trkpt>
      <trkpt lat="48.2562" lon="-3.4466">
        <ele>135.3</ele>
        <time>2022-06-12T13:58:06Z</time>
      </trkpt>
      <trkpt lat="48.2562" lon="-3.4466">
        <ele>135.3</ele>
        <time>2022-06-12T13:58:07Z</time>
      </trkpt>
      <trkpt lat="48.2562" lon="-3.4466">
        <ele>135.3</ele>
        <time>2022-06-12T13:58:08Z</time>
      </trkpt>
      <trkpt lat="48.2562" lon="-3.4466">
        <ele>135.3</ele>
        <time>2022-06-12T13:58:09Z</time>
      </trkpt>
      <trkpt lat="48.2562" lon="-3.4466">
        <ele>135.3</ele>
        <time>2022-06-12T13:58:10Z</time>
      </trkpt>
      <trkpt lat="48.2562" lon="-3.4466">
        <ele>135.3</ele>
        <time>2022-06-12T13:58:11Z</time>
      </trkpt>
      <trkpt lat="48.2562" lon="-3.4466">
        <ele>135.3</ele>
        <time>2022-06-12T13:58:12Z</time>
      </trkpt>
      <trkpt lat="48.2562" lon="-3.4466">
        <ele>135.3</ele>
        <time>2022-06-12T13:58:13Z</time>
      </trkpt>
      <trkpt lat="48.2562" lon="-3.4466">
        <ele>135.3</ele>
        <time>2022-06-12T13:58:14Z</time>
      </trkpt>
      <trkpt lat="48.2562" lon="-3.4466">
        <ele>135.3</ele>
        <time>2022-06-12T13:58:15Z</time>
      </trkpt>
      <trkpt lat="48.2562" lon="-3.4466">
        <ele>135.3</ele>
        <time>2022-06-12T13:58:16Z</time>
      </trkpt>
      <trkpt lat="48.2562" lon="-3.4466">
        <ele>135.3</ele>
        <time>2022-06-12T13:58:17Z</time>
      </trkpt>
      <trkpt lat="48.2562" lon="-3.4466">
        <ele>135.3</ele>
        <time>2022-06-12T13:58:18Z</time>
      </trkpt>
      <trkpt lat="48.2562" lon="-3.4466">
        <ele>135.3</ele>
        <time>2022-06-12T13:58:19Z</time>
      </trkpt>
      <trkpt lat="48.2562" lon="-3.4466">
        <ele>135.3</ele>
        <time>2022-06-12T13:58:20Z</time>
      </trkpt>
      <trkpt lat="48.2562" lon="-3.4466">
        <ele>135.3</ele>
        <time>2022-06-12T13:58:21Z</time>
      </trkpt>
      <trkpt lat="48.2562" lon="-3.4466">
        <ele>135.3</ele>
        <time>2022-06-12T13:58:22Z</time>
      </trkpt>
      <trkpt lat="48.2562" lon="-3.4466">
        <ele>135.3</ele>
        <time>2022-06-12T13:58:23Z</time>
      </trkpt>
      <trkpt lat="48.2562" lon="-3.4466">
        <ele>135.3</ele>
        <time>2022-06-12T13:58:24Z</time>
      </trkpt>
      <trkpt lat="48.2562" lon="-3.4466">
        <ele>135.3</ele>
        <time>2022-06-12T13:58:25Z</time>
      </trkpt>
      <trkpt lat="48.2562" lon="-3.4466">
        <ele>135.3</ele>
        <time>2022-06-12T13:58:26Z</time>
      </trkpt>
      <trkpt lat="48.2562" lon="-3.4466">
        <ele>135.3</ele>
        <time>2022-06-12T13:58:27Z</time>
      </trkpt>
      <trkpt lat="48.2562" lon="-3.4466">
        <ele>135.3</ele>
        <time>2022-06-12T13:58:28Z</time>
      </trkpt>
      <trkpt lat="48.2562" lon="-3.4466">
        <ele>135.3</ele>
        <time>2022-06-12T13:58:29Z</time>
      </trkpt>
      <trkpt lat="48.2562" lon="-3.4466">
        <ele>135.3</ele>
        <time>2022-06-12T13:58:30Z</time>
      </trkpt>
      <trkpt lat="48.2562" lon="-3.4466">
        <ele>135.3</ele>
        <time>2022-06-12T13:58:31Z</time>
      </trkpt>
      <trkpt lat="48.2562" lon="-3.4466">
        <ele>135.3</ele>
        <time>2022-06-12T13:58:32Z</time>
      </trkpt>
      <trkpt lat="48.2562" lon="-3.4466">
        <ele>135.3</ele>
        <time>2022-06-12T13:58:33Z</time>
      </trkpt>
      <trkpt lat="48.2562" lon="-3.4466">
        <ele>135.3</ele>
        <time>2022-06-12T13:58:34Z</time>
      </trkpt>
      <trkpt lat="48.2562" lon="-3.4466">
        <ele>135.3</ele>
        <time>2022-06-12T13:58:35Z</time>
      </trkpt>
      <trkpt lat="48.2562" lon="-3.4466">
        <ele>135.3</ele>
        <time>2022-06-12T13:58:36Z</time>
      </trkpt>
      <trkpt lat="48.2562" lon="-3.4466">
        <ele>135.3</ele>
        <time>2022-06-12T13:58:37Z</time>
      </trkpt>
      <trkpt lat="48.2562" lon="-3.4466">
        <ele>135.3</ele>
        <time>2022-06-12T13:58:38Z</time>
      </trkpt>
      <trkpt lat="48.2562" lon="-3.4466">
        <ele>135.3</ele>
        <time>2022-06-12T13:58:39Z</time>
      </trkpt>
      <trkpt lat="48.2562" lon="-3.4466">
        <ele>135.3</ele>
        <time>2022-06-12T13:58:40Z</time>
      </trkpt>
      <trkpt lat="48.2562" lon="-3.4466">
        <ele>135.3</ele>
        <time>2022-06-12T13:58:41Z</time>
      </trkpt>
      <trkpt lat="48.2562" lon="-3.4466">
        <ele>135.3</ele>
        <time>2022-06-12T13:58:42Z</time>
      </trkpt>
      <trkpt lat="48.2562" lon="-3.4466">
        <ele>135.3</ele>
        <time>2022-06-12T13:58:43Z</time>
      </trkpt>
      <trkpt lat="48.2562" lon="-3.4466">
        <ele>135.3</ele>
        <time>2022-06-12T13:58:44Z</time>
      </trkpt>
      <trkpt lat="48.2562" lon="-3.4466">
        <ele>135.3</ele>
        <time>2022-06-12T13:58:45Z</time>
      </trkpt>
      <trkpt lat="48.2562" lon="-3.4466">
        <ele>135.3</ele>
        <time>2022-06-12T13:58:46Z</time>
      </trkpt>
      <trkpt lat="48.2562" lon="-3.4466">
        <ele>135.3</ele>
        <time>2022-06-12T13:58:47Z</time>
      </trkpt>
      <trkpt lat="48.2562" lon="-3.4466">
        <ele>135.3</ele>
        <time>2022-06-12T13:58:48Z</time>
      </trkpt>
      <trkpt lat="48.2562" lon="-3.4466">
        <ele>135.3</ele>
        <time>2022-06-12T13:58:49Z</time>
      </trkpt>
      <trkpt lat="48.2562" lon="-3.4466">
        <ele>135.3</ele>
        <time>2022-06-12T13:58:50Z</time>
      </trkpt>
      <trkpt lat="48.2562" lon="-3.4466">
        <ele>135.3</ele>
        <time>2022-06-12T13:58:51Z</time>
      </trkpt>
      <trkpt lat="48.2562" lon="-3.4466">
        <ele>135.3</ele>
        <time>2022-06-12T13:58:52Z</time>
      </trkpt>
      <trkpt lat="48.2562" lon="-3.4466">
        <ele>135.3</ele>
        <time>2022-06-12T13:58:53Z</time>
      </trkpt>
      <trkpt lat="48.2562" lon="-3.4466">
        <ele>135.3</ele>
        <time>2022-06-12T13:58:54Z</time>
      </trkpt>
      <trkpt lat="48.2562" lon="-3.4466">
        <ele>135.3</ele>
        <time>2022-06-12T13:58:55Z</time>
      </trkpt>
      <trkpt lat="48.2562" lon="-3.4466">
        <ele>135.3</ele>
        <time>2022-06-12T13:58:56Z</time>
      </trkpt>
      <trkpt lat="48.2562" lon="-3.4466">
        <ele>135.3</ele>
        <time>2022-06-12T13:58:57Z</time>
      </trkpt>
      <trkpt lat="48.2562" lon="-3.4466">
        <ele>135.3</ele>
        <time>2022-06-12T13:58:58Z</time>
      </trkpt>
      <trkpt lat="48.2562" lon="-3.4466">
        <ele>135.3</ele>
        <time>2022-06-12T13:58:59Z</time>
      </trkpt>
      <trkpt lat="48.2562" lon="-3.4466">
        <ele>135.3</ele>
        <time>2022-06-12T13:59:00Z</time>
      </trkpt>
      <trkpt lat="48.2562" lon="-3.4466">
        <ele>135.3</ele>
        <time>2022-06-12T13:59:01Z</time>
      </trkpt>
      <trkpt lat="48.2562" lon="-3.4466">
        <ele>135.3</ele>
        <time>2022-06-12T13:59:02Z</time>
      </trkpt>
      <trkpt lat="48.2562" lon="-3.4466">
        <ele>135.3</ele>
        <time>2022-06-12T13:59:03Z</time>
      </trkpt>
      <trkpt lat="48.2562" lon="-3.4466">
        <ele>135.3</ele>
        <time>2022-06-12T13:59:04Z</time>
      </trkpt>
      <trkpt lat="48.2562" lon="-3.4466">
        <ele>135.3</ele>
        <time>2022-06-12T13:59:05Z</time>
      </trkpt>
      <trkpt lat="48.2562" lon="-3.4466">
        <ele>135.3</ele>
        <time>2022-06-12T13:59:06Z</time>
      </trkpt>
      <trkpt lat="48.2562" lon="-3.4466">
        <ele>135.3</ele>
        <time>2022-06-12T13:59:07Z</time>
      </trkpt>
      <trkpt lat="48.2562" lon="-3.4466">
        <ele>135.3</ele>
        <time>2022-06-12T13:59:08Z</time>
      </trkpt>
      <trkpt lat="48.2562" lon="-3.4466">
        <ele>135.3</ele>
        <time>2022-06-12T13:59:09Z</time>
      </trkpt>
      <trkpt lat="48.2562" lon="-3.4466">
        <ele>135.3</ele>
        <time>2022-06-12T13:59:10Z</time>
      </trkpt>
      <trkpt lat="48.2562" lon="-3.4466">
        <ele>135.3</ele>
        <time>2022-06-12T13:59:11Z</time>
      </trkpt>
      <trkpt lat="48.2562" lon="-3.4466">
        <ele>135.3</ele>
        <time>2022-06-12T13:59:12Z</time>
      </trkpt>
      <trkpt lat="48.2562" lon="-3.4466">
        <ele>135.3</ele>
        <time>2022-06-12T13:59:13Z</time>
      </trkpt>
      <trkpt lat="48.2562" lon="-3.4466">
        <ele>135.3</ele>
        <time>2022-06-12T13:59:14Z</time>
      </trkpt>
      <trkpt lat="48.2562" lon="-3.4466">
        <ele>135.3</ele>
        <time>2022-06-12T13:59:15Z</time>
      </trkpt>
      <trkpt lat="48.2562" lon="-3.4466">
        <ele>135.3</ele>
        <time>2022-06-12T13:59:16Z</time>
      </trkpt>
      <trkpt lat="48.2562" lon="-3.4466">
        <ele>135.3</ele>
        <time>2022-06-12T13:59:17Z</time>
      </trkpt>
      <trkpt lat="48.2562" lon="-3.4466">
        <ele>135.3</ele>
        <time>2022-06-12T13:59:18Z</time>
      </trkpt>
      <trkpt lat="48.2562" lon="-3.4466">
        <ele>135.3</ele>
        <time>2022-06-12T13:59:19Z</time>
      </trkpt>
      <trkpt lat="48.2562" lon="-3.4466">
        <ele>135.3</ele>
        <time>2022-06-12T13:59:20Z</time>
      </trkpt>
      <trkpt lat="48.2562" lon="-3.4466">
        <ele>135.3</ele>
        <time>2022-06-12T13:59:21Z</time>
      </trkpt>
      <trkpt lat="48.2562" lon="-3.4466">
        <ele>135.3</ele>
        <time>2022-06-12T13:59:22Z</time>
      </trkpt>
      <trkpt lat="48.2562" lon="-3.4466">
        <ele>135.3</ele>
        <time>2022-06-12T13:59:23Z</time>
      </trkpt>
      <trkpt lat="48.2562" lon="-3.4466">
        <ele>135.3</ele>
        <time>2022-06-12T13:59:24Z</time>
      </trkpt>
      <trkpt lat="48.2562" lon="-3.4466">
        <ele>135.3</ele>
        <time>2022-06-12T13:59:25Z</time>
      </trkpt>
      <trkpt lat="48.2562" lon="-3.4466">
        <ele>135.3</ele>
        <time>2022-06-12T13:59:26Z</time>
      </trkpt>
      <trkpt lat="48.2562" lon="-3.4466">
        <ele>135.3</ele>
        <time>2022-06-12T13:59:27Z</time>
      </trkpt>
      <trkpt lat="48.2562" lon="-3.4466">
        <ele>135.3</ele>
        <time>2022-06-12T13:59:28Z</time>
      </trkpt>
      <trkpt lat="48.2562" lon="-3.4466">
        <ele>135.3</ele>
        <time>2022-06-12T13:59:29Z</time>
      </trkpt>
      <trkpt lat="48.2562" lon="-3.4466">
        <ele>135.3</ele>
        <time>2022-06-12T13:59:30Z</time>
      </trkpt>
      <trkpt lat="48.2562" lon="-3.4466">
        <ele>135.3</ele>
        <time>2022-06-12T13:59:31Z</time>
      </trkpt>
      <trkpt lat="48.2562" lon="-3.4466">
        <ele>135.3</ele>
        <time>2022-06-12T13:59:32Z</time>
      </trkpt>
      <trkpt lat="48.2562" lon="-3.4466">
        <ele>135.3</ele>
        <time>2022-06-12T13:59:33Z</time>
      </trkpt>
      <trkpt lat="48.2562" lon="-3.4466">
        <ele>135.3</ele>
        <time>2022-06-12T13:59:34Z</time>
      </trkpt>
      <trkpt lat="48.2562" lon="-3.4466">
        <ele>135.3</ele>
        <time>2022-06-12T13:59:35Z</time>
      </trkpt>
      <trkpt lat="48.2562" lon="-3.4466">
        <ele>135.3</ele>
        <time>2022-06-12T13:59:36Z</time>
      </trkpt>
      <trkpt lat="48.2562" lon="-3.4466">
        <ele>135.3</ele>
        <time>2022-06-12T13:59:37Z</time>
      </trkpt>
      <trkpt lat="48.2562" lon="-3.4466">
        <ele>135.3</ele>
        <time>2022-06-12T13:59:38Z</time>
      </trkpt>
      <trkpt lat="48.2562" lon="-3.4466">
        <ele>135.3</ele>
        <time>2022-06-12T13:59:39Z</time>
      </trkpt>
      <trkpt lat="48.2562" lon="-3.4466">
        <ele>135.3</ele>
        <time>2022-06-12T13:59:40Z</time>
      </trkpt>
      <trkpt lat="48.2562" lon="-3.4466">
        <ele>135.3</ele>
        <time>2022-06-12T13:59:41Z</time>
      </trkpt>
      <trkpt lat="48.2562" lon="-3.4466">
        <ele>135.3</ele>
        <time>2022-06-12T13:59:42Z</time>
      </trkpt>
      <trkpt lat="48.2562" lon="-3.4466">
        <ele>135.3</ele>
        <time>2022-06-12T13:59:43Z</time>
      </trkpt>
      <trkpt lat="48.2562" lon="-3.4466">
        <ele>135.3</ele>
        <time>2022-06-12T13:59:44Z</time>
      </trkpt>
      <trkpt lat="48.2562" lon="-3.4466">
        <ele>135.3</ele>
        <time>2022-06-12T13:59:45Z</time>
      </trkpt>
      <trkpt lat="48.2562" lon="-3.4466">
        <ele>135.3</ele>
        <time>2022-06-12T13:59:46Z</time>
      </trkpt>
      <trkpt lat="48.2562" lon="-3.4466">
        <ele>135.3</ele>
        <time>2022-06-12T13:59:47Z</time>
      </trkpt>
      <trkpt lat="48.2562" lon="-3.4466">
        <ele>135.3</ele>
        <time>2022-06-12T13:59:48Z</time>
      </trkpt>
      <trkpt lat="48.2562" lon="-3.44661">
        <ele>135.3</ele>
        <time>2022-06-12T13:59:49Z</time>
      </trkpt>
      <trkpt lat="48.2562" lon="-3.44661">
        <ele>135.3</ele>
        <time>2022-06-12T13:59:50Z</time>
      </trkpt>
      <trkpt lat="48.2562" lon="-3.44661">
        <ele>135.3</ele>
        <time>2022-06-12T13:59:51Z</time>
      </trkpt>
      <trkpt lat="48.2562" lon="-3.44661">
        <ele>135.3</ele>
        <time>2022-06-12T13:59:52Z</time>
      </trkpt>
      <trkpt lat="48.2562" lon="-3.44661">
        <ele>135.3</ele>
        <time>2022-06-12T13:59:53Z</time>
      </trkpt>
      <trkpt lat="48.2562" lon="-3.44661">
        <ele>135.3</ele>
        <time>2022-06-12T13:59:54Z</time>
      </trkpt>
      <trkpt lat="48.2562" lon="-3.44661">
        <ele>135.3</ele>
        <time>2022-06-12T13:59:55Z</time>
      </trkpt>
      <trkpt lat="48.25621" lon="-3.44661">
        <ele>135.3</ele>
        <time>2022-06-12T13:59:56Z</time>
      </trkpt>
      <trkpt lat="48.25621" lon="-3.44661">
        <ele>135.4</ele>
        <time>2022-06-12T13:59:57Z</time>
      </trkpt>
      <trkpt lat="48.25621" lon="-3.4466">
        <ele>135.4</ele>
        <time>2022-06-12T13:59:58Z</time>
      </trkpt>
      <trkpt lat="48.25621" lon="-3.4466">
        <ele>135.4</ele>
        <time>2022-06-12T14:00:00Z</time>
      </trkpt>
      <trkpt lat="48.25622" lon="-3.4466">
        <ele>135.4</ele>
        <time>2022-06-12T14:00:01Z</time>
      </trkpt>
      <trkpt lat="48.25622" lon="-3.4466">
        <ele>135.4</ele>
        <time>2022-06-12T14:00:02Z</time>
      </trkpt>
      <trkpt lat="48.25622" lon="-3.44659">
        <ele>135.4</ele>
        <time>2022-06-12T14:00:04Z</time>
      </trkpt>
      <trkpt lat="48.25622" lon="-3.44659">
        <ele>135.4</ele>
        <time>2022-06-12T14:00:05Z</time>
      </trkpt>
      <trkpt lat="48.25623" lon="-3.44658">
        <ele>135.4</ele>
        <time>2022-06-12T14:00:06Z</time>
      </trkpt>
      <trkpt lat="48.25623" lon="-3.44658">
        <ele>135.4</ele>
        <time>2022-06-12T14:00:07Z</time>
      </trkpt>
      <trkpt lat="48.25625" lon="-3.44657">
        <ele>135.4</ele>
        <time>2022-06-12T14:00:08Z</time>
      </trkpt>
      <trkpt lat="48.25626" lon="-3.44657">
        <ele>135.4</ele>
        <time>2022-06-12T14:00:09Z</time>
      </trkpt>
      <trkpt lat="48.25626" lon="-3.44657">
        <ele>135.4</ele>
        <time>2022-06-12T14:00:10Z</time>
      </trkpt>
      <trkpt lat="48.25627" lon="-3.44657">
        <ele>135.4</ele>
        <time>2022-06-12T14:00:11Z</time>
      </trkpt>
      <trkpt lat="48.25629" lon="-3.44658">
        <ele>135.4</ele>
        <time>2022-06-12T14:00:13Z</time>
      </trkpt>
      <trkpt lat="48.25631" lon="-3.44656">
        <ele>135.4</ele>
        <time>2022-06-12T14:00:15Z</time>
      </trkpt>
      <trkpt lat="48.25632" lon="-3.44655">
        <ele>135.4</ele>
        <time>2022-06-12T14:00:16Z</time>
      </trkpt>
      <trkpt lat="48.25634" lon="-3.44654">
        <ele>135.4</ele>
        <time>2022-06-12T14:00:17Z</time>
      </trkpt>
      <trkpt lat="48.25634" lon="-3.44653">
        <ele>135.4</ele>
        <time>2022-06-12T14:00:19Z</time>
      </trkpt>
      <trkpt lat="48.25635" lon="-3.44653">
        <ele>135.4</ele>
        <time>2022-06-12T14:00:20Z</time>
      </trkpt>
      <trkpt lat="48.25635" lon="-3.4465">
        <ele>135.5</ele>
        <time>2022-06-12T14:00:21Z</time>
      </trkpt>
      <trkpt lat="48.25635" lon="-3.44649">
        <ele>135.5</ele>
        <time>2022-06-12T14:00:23Z</time>
      </trkpt>
      <trkpt lat="48.25635" lon="-3.44649">
        <ele>135.5</ele>
        <time>2022-06-12T14:00:24Z</time>
      </trkpt>
      <trkpt lat="48.25635" lon="-3.44648">
        <ele>135.5</ele>
        <time>2022-06-12T14:00:25Z</time>
      </trkpt>
      <trkpt lat="48.25635" lon="-3.44647">
        <ele>135.5</ele>
        <time>2022-06-12T14:00:26Z</time>
      </trkpt>
      <trkpt lat="48.25634" lon="-3.44647">
        <ele>135.5</ele>
        <time>2022-06-12T14:00:28Z</time>
      </trkpt>
      <trkpt lat="48.25635" lon="-3.44647">
        <ele>135.5</ele>
        <time>2022-06-12T14:00:29Z</time>
      </trkpt>
      <trkpt lat="48.25635" lon="-3.44648">
        <ele>135.5</ele>
        <time>2022-06-12T14:00:30Z</time>
      </trkpt>
      <trkpt lat="48.25635" lon="-3.44648">
        <ele>135.5</ele>
        <time>2022-06-12T14:00:31Z</time>
      </trkpt>
      <trkpt lat="48.25634" lon="-3.44649">
        <ele>135.5</ele>
        <time>2022-06-12T14:00:33Z</time>
      </trkpt>
      <trkpt lat="48.25634" lon="-3.4465">
        <ele>135.5</ele>
        <time>2022-06-12T14:00:34Z</time>
      </trkpt>
      <trkpt lat="48.25633" lon="-3.44651">
        <ele>135.5</ele>
        <time>2022-06-12T14:00:35Z</time>
      </trkpt>
      <trkpt lat="48.25633" lon="-3.44652">
        <ele>135.5</ele>
        <time>2022-06-12T14:00:36Z</time>
      </trkpt>
      <trkpt lat="48.25632" lon="-3.44653">
        <ele>135.5</ele>
        <time>2022-06-12T14:00:37Z</time>
      </trkpt>
      <trkpt lat="48.25632" lon="-3.44654">
        <ele>135.5</ele>
        <time>2022-06-12T14:00:39Z</time>
      </trkpt>
      <trkpt lat="48.25631" lon="-3.44656">
        <ele>135.5</ele>
        <time>2022-06-12T14:00:40Z</time>
      </trkpt>
      <trkpt lat="48.25631" lon="-3.44657">
        <ele>135.5</ele>
        <time>2022-06-12T14:00:41Z</time>
      </trkpt>
      <trkpt lat="48.2563" lon="-3.44657">
        <ele>135.5</ele>
        <time>2022-06-12T14:00:42Z</time>
      </trkpt>
      <trkpt lat="48.2563" lon="-3.44658">
        <ele>135.5</ele>
        <time>2022-06-12T14:00:44Z</time>
      </trkpt>
      <trkpt lat="48.2563" lon="-3.44658">
        <ele>135.5</ele>
        <time>2022-06-12T14:00:45Z</time>
      </trkpt>
      <trkpt lat="48.2563" lon="-3.44659">
        <ele>135.6</ele>
        <time>2022-06-12T14:00:46Z</time>
      </trkpt>
      <trkpt lat="48.25629" lon="-3.44659">
        <ele>135.6</ele>
        <time>2022-06-12T14:00:47Z</time>
      </trkpt>
      <trkpt lat="48.25628" lon="-3.44659">
        <ele>135.6</ele>
        <time>2022-06-12T14:00:48Z</time>
      </trkpt>
      <trkpt lat="48.25628" lon="-3.44659">
        <ele>135.6</ele>
        <time>2022-06-12T14:00:49Z</time>
      </trkpt>
      <trkpt lat="48.25628" lon="-3.44659">
        <ele>135.6</ele>
        <time>2022-06-12T14:00:50Z</time>
      </trkpt>
      <trkpt lat="48.25627" lon="-3.4466">
        <ele>135.6</ele>
        <time>2022-06-12T14:00:51Z</time>
      </trkpt>
      <trkpt lat="48.25626" lon="-3.4466">
        <ele>135.6</ele>
        <time>2022-06-12T14:00:53Z</time>
      </trkpt>
      <trkpt lat="48.25625" lon="-3.4466">
        <ele>135.6</ele>
        <time>2022-06-12T14:00:54Z</time>
      </trkpt>
      <trkpt lat="48.25625" lon="-3.4466">
        <ele>135.6</ele>
        <time>2022-06-12T14:00:55Z</time>
      </trkpt>
      <trkpt lat="48.25624" lon="-3.44661">
        <ele>135.6</ele>
        <time>2022-06-12T14:00:56Z</time>
      </trkpt>
      <trkpt lat="48.25623" lon="-3.44661">
        <ele>135.6</ele>
        <time>2022-06-12T14:00:57Z</time>
      </trkpt>
      <trkpt lat="48.25622" lon="-3.44661">
        <ele>135.6</ele>
        <time>2022-06-12T14:00:59Z</time>
      </trkpt>
      <trkpt lat="48.25621" lon="-3.4466">
        <ele>135.6</ele>
        <time>2022-06-12T14:01:00Z</time>
      </trkpt>
      <trkpt lat="48.25621" lon="-3.4466">
        <ele>135.6</ele>
        <time>2022-06-12T14:01:01Z</time>
      </trkpt>
      <trkpt lat="48.25621" lon="-3.4466">
        <ele>135.6</ele>
        <time>2022-06-12T14:01:02Z</time>
      </trkpt>
      <trkpt lat="48.2562" lon="-3.4466">
        <ele>135.6</ele>
        <time>2022-06-12T14:01:04Z</time>
      </trkpt>
      <trkpt lat="48.2562" lon="-3.44659">
        <ele>135.6</ele>
        <time>2022-06-12T14:01:05Z</time>
      </trkpt>
      <trkpt lat="48.2562" lon="-3.4466">
        <ele>135.6</ele>
        <time>2022-06-12T14:01:06Z</time>
      </trkpt>
      <trkpt lat="48.25619" lon="-3.4466">
        <ele>135.6</ele>
        <time>2022-06-12T14:01:07Z</time>
      </trkpt>
      <trkpt lat="48.25619" lon="-3.4466">
        <ele>135.6</ele>
        <time>2022-06-12T14:01:08Z</time>
      </trkpt>
      <trkpt lat="48.25618" lon="-3.4466">
        <ele>135.6</ele>
        <time>2022-06-12T14:01:09Z</time>
      </trkpt>
      <trkpt lat="48.25618" lon="-3.44659">
        <ele>135.7</ele>
        <time>2022-06-12T14:01:10Z</time>
      </trkpt>
      <trkpt lat="48.25617" lon="-3.44659">
        <ele>135.7</ele>
        <time>2022-06-12T14:01:11Z</time>
      </trkpt>
      <trkpt lat="48.25616" lon="-3.44656">
        <ele>135.7</ele>
        <time>2022-06-12T14:01:12Z</time>
      </trkpt>
      <trkpt lat="48.25616" lon="-3.44655">
        <ele>135.7</ele>
        <time>2022-06-12T14:01:13Z</time>
      </trkpt>
      <trkpt lat="48.25615" lon="-3.44654">
        <ele>135.7</ele>
        <time>2022-06-12T14:01:15Z</time>
      </trkpt>
      <trkpt lat="48.25615" lon="-3.44652">
        <ele>135.7</ele>
        <time>2022-06-12T14:01:16Z</time>
      </trkpt>
      <trkpt lat="48.25614" lon="-3.44651">
        <ele>135.7</ele>
        <time>2022-06-12T14:01:17Z</time>
      </trkpt>
      <trkpt lat="48.25614" lon="-3.44649">
        <ele>135.7</ele>
        <time>2022-06-12T14:01:18Z</time>
      </trkpt>
      <trkpt lat="48.25614" lon="-3.44648">
        <ele>135.7</ele>
        <time>2022-06-12T14:01:19Z</time>
      </trkpt>
      <trkpt lat="48.25614" lon="-3.44646">
        <ele>135.7</ele>
        <time>2022-06-12T14:01:20Z</time>
      </trkpt>
      <trkpt lat="48.25614" lon="-3.44645">
        <ele>135.7</ele>
        <time>2022-06-12T14:01:21Z</time>
      </trkpt>
      <trkpt lat="48.25614" lon="-3.44643">
        <ele>135.7</ele>
        <time>2022-06-12T14:01:23Z</time>
      </trkpt>
      <trkpt lat="48.25614" lon="-3.44641">
        <ele>135.8</ele>
        <time>2022-06-12T14:01:24Z</time>
      </trkpt>
      <trkpt lat="48.25613" lon="-3.4464">
        <ele>135.8</ele>
        <time>2022-06-12T14:01:25Z</time>
      </trkpt>
      <trkpt lat="48.25613" lon="-3.44639">
        <ele>135.8</ele>
        <time>2022-06-12T14:01:26Z</time>
      </trkpt>
      <trkpt lat="48.25613" lon="-3.44637">
        <ele>135.8</ele>
        <time>2022-06-12T14:01:28Z</time>
      </trkpt>
      <trkpt lat="48.25614" lon="-3.44636">
        <ele>135.8</ele>
        <time>2022-06-12T14:01:29Z</time>
      </trkpt>
      <trkpt lat="48.25614" lon="-3.44635">
        <ele>135.8</ele>
        <time>2022-06-12T14:01:30Z</time>
      </trkpt>
      <trkpt lat="48.25614" lon="-3.44633">
        <ele>135.8</ele>
        <time>2022-06-12T14:01:31Z</time>
      </trkpt>
      <trkpt lat="48.25614" lon="-3.44631">
        <ele>135.8</ele>
        <time>2022-06-12T14:01:33Z</time>
      </trkpt>
      <trkpt lat="48.25615" lon="-3.4463">
        <ele>135.8</ele>
        <time>2022-06-12T14:01:34Z</time>
      </trkpt>
      <trkpt lat="48.25615" lon="-3.44628">
        <ele>135.8</ele>
        <time>2022-06-12T14:01:35Z</time>
      </trkpt>
      <trkpt lat="48.25615" lon="-3.44627">
        <ele>135.8</ele>
        <time>2022-06-12T14:01:36Z</time>
      </trkpt>
      <trkpt lat="48.25616" lon="-3.44626">
        <ele>135.8</ele>
        <time>2022-06-12T14:01:37Z</time>
      </trkpt>
      <trkpt lat="48.25616" lon="-3.44624">
        <ele>135.9</ele>
        <time>2022-06-12T14:01:39Z</time>
      </trkpt>
      <trkpt lat="48.25617" lon="-3.44623">
        <ele>135.9</ele>
        <time>2022-06-12T14:01:40Z</time>
      </trkpt>
      <trkpt lat="48.25617" lon="-3.44621">
        <ele>135.9</ele>
        <time>2022-06-12T14:01:41Z</time>
      </trkpt>
      <trkpt lat="48.25617" lon="-3.4462">
        <ele>135.9</ele>
        <time>2022-06-12T14:01:42Z</time>
      </trkpt>
      <trkpt lat="48.25617" lon="-3.4462">
        <ele>135.9</ele>
        <time>2022-06-12T14:01:43Z</time>
      </trkpt>
      <trkpt lat="48.25617" lon="-3.44619">
        <ele>135.9</ele>
        <time>2022-06-12T14:01:44Z</time>
      </trkpt>
      <trkpt lat="48.25618" lon="-3.44619">
        <ele>135.9</ele>
        <time>2022-06-12T14:01:45Z</time>
      </trkpt>
      <trkpt lat="48.25618" lon="-3.44618">
        <ele>135.9</ele>
        <time>2022-06-12T14:01:46Z</time>
      </trkpt>
      <trkpt lat="48.25617" lon="-3.44618">
        <ele>135.9</ele>
        <time>2022-06-12T14:01:48Z</time>
      </trkpt>
      <trkpt lat="48.25617" lon="-3.44618">
        <ele>135.9</ele>
        <time>2022-06-12T14:01:49Z</time>
      </trkpt>
      <trkpt lat="48.25617" lon="-3.44618">
        <ele>135.9</ele>
        <time>2022-06-12T14:01:50Z</time>
      </trkpt>
      <trkpt lat="48.25617" lon="-3.44617">
        <ele>135.9</ele>
        <time>2022-06-12T14:01:51Z</time>
      </trkpt>
      <trkpt lat="48.25617" lon="-3.44617">
        <ele>135.9</ele>
        <time>2022-06-12T14:01:52Z</time>
      </trkpt>
      <trkpt lat="48.25617" lon="-3.44616">
        <ele>135.9</ele>
        <time>2022-06-12T14:01:53Z</time>
      </trkpt>
      <trkpt lat="48.25617" lon="-3.44615">
        <ele>135.9</ele>
        <time>2022-06-12T14:01:55Z</time>
      </trkpt>
      <trkpt lat="48.25617" lon="-3.44614">
        <ele>135.9</ele>
        <time>2022-06-12T14:01:56Z</time>
      </trkpt>
      <trkpt lat="48.25616" lon="-3.44613">
        <ele>135.9</ele>
        <time>2022-06-12T14:01:57Z</time>
      </trkpt>
      <trkpt lat="48.25616" lon="-3.44612">
        <ele>135.9</ele>
        <time>2022-06-12T14:01:59Z</time>
      </trkpt>
      <trkpt lat="48.25615" lon="-3.44611">
        <ele>135.9</ele>
        <time>2022-06-12T14:02:00Z</time>
      </trkpt>
      <trkpt lat="48.25615" lon="-3.4461">
        <ele>135.9</ele>
        <time>2022-06-12T14:02:01Z</time>
      </trkpt>
      <trkpt lat="48.25616" lon="-3.44608">
        <ele>135.9</ele>
        <time>2022-06-12T14:02:03Z</time>
      </trkpt>
      <trkpt lat="48.25616" lon="-3.44607">
        <ele>135.9</ele>
        <time>2022-06-12T14:02:04Z</time>
      </trkpt>
      <trkpt lat="48.25617" lon="-3.44606">
        <ele>135.9</ele>
        <time>2022-06-12T14:02:06Z</time>
      </trkpt>
      <trkpt lat="48.25617" lon="-3.44605">
        <ele>135.9</ele>
        <time>2022-06-12T14:02:07Z</time>
      </trkpt>
      <trkpt lat="48.25617" lon="-3.44604">
        <ele>135.9</ele>
        <time>2022-06-12T14:02:08Z</time>
      </trkpt>
      <trkpt lat="48.25616" lon="-3.44603">
        <ele>135.9</ele>
        <time>2022-06-12T14:02:09Z</time>
      </trkpt>
      <trkpt lat="48.25616" lon="-3.44602">
        <ele>135.9</ele>
        <time>2022-06-12T14:02:10Z</time>
      </trkpt>
      <trkpt lat="48.25616" lon="-3.44599">
        <ele>135.9</ele>
        <time>2022-06-12T14:02:12Z</time>
      </trkpt>
      <trkpt lat="48.25615" lon="-3.44597">
        <ele>135.9</ele>
        <time>2022-06-12T14:02:13Z</time>
      </trkpt>
      <trkpt lat="48.25615" lon="-3.44593">
        <ele>135.9</ele>
        <time>2022-06-12T14:02:14Z</time>
      </trkpt>
      <trkpt lat="48.25615" lon="-3.44592">
        <ele>135.9</ele>
        <time>2022-06-12T14:02:15Z</time>
      </trkpt>
      <trkpt lat="48.25615" lon="-3.44591">
        <ele>135.9</ele>
        <time>2022-06-12T14:02:16Z</time>
      </trkpt>
      <trkpt lat="48.25615" lon="-3.44588">
        <ele>135.9</ele>
        <time>2022-06-12T14:02:18Z</time>
      </trkpt>
      <trkpt lat="48.25615" lon="-3.44586">
        <ele>135.9</ele>
        <time>2022-06-12T14:02:19Z</time>
      </trkpt>
      <trkpt lat="48.25615" lon="-3.44583">
        <ele>135.9</ele>
        <time>2022-06-12T14:02:20Z</time>
      </trkpt>
      <trkpt lat="48.25615" lon="-3.44581">
        <ele>135.9</ele>
        <time>2022-06-12T14:02:21Z</time>
      </trkpt>
      <trkpt lat="48.25615" lon="-3.44579">
        <ele>135.9</ele>
        <time>2022-06-12T14:02:22Z</time>
      </trkpt>
      <trkpt lat="48.25616" lon="-3.44577">
        <ele>135.9</ele>
        <time>2022-06-12T14:02:24Z</time>
      </trkpt>
      <trkpt lat="48.25616" lon="-3.44574">
        <ele>135.9</ele>
        <time>2022-06-12T14:02:25Z</time>
      </trkpt>
      <trkpt lat="48.25616" lon="-3.44572">
        <ele>135.9</ele>
        <time>2022-06-12T14:02:26Z</time>
      </trkpt>
      <trkpt lat="48.25617" lon="-3.4457">
        <ele>135.9</ele>
        <time>2022-06-12T14:02:27Z</time>
      </trkpt>
      <trkpt lat="48.25617" lon="-3.44568">
        <ele>135.9</ele>
        <time>2022-06-12T14:02:28Z</time>
      </trkpt>
      <trkpt lat="48.25617" lon="-3.44566">
        <ele>135.9</ele>
        <time>2022-06-12T14:02:30Z</time>
      </trkpt>
      <trkpt lat="48.25618" lon="-3.44563">
        <ele>135.9</ele>
        <time>2022-06-12T14:02:31Z</time>
      </trkpt>
      <trkpt lat="48.25618" lon="-3.44562">
        <ele>135.9</ele>
        <time>2022-06-12T14:02:32Z</time>
      </trkpt>
      <trkpt lat="48.25618" lon="-3.4456">
        <ele>135.9</ele>
        <time>2022-06-12T14:02:33Z</time>
      </trkpt>
      <trkpt lat="48.25618" lon="-3.44557">
        <ele>135.9</ele>
        <time>2022-06-12T14:02:35Z</time>
      </trkpt>
      <trkpt lat="48.25618" lon="-3.44555">
        <ele>135.9</ele>
        <time>2022-06-12T14:02:36Z</time>
      </trkpt>
      <trkpt lat="48.25618" lon="-3.44553">
        <ele>135.9</ele>
        <time>2022-06-12T14:02:37Z</time>
      </trkpt>
      <trkpt lat="48.25618" lon="-3.44551">
        <ele>135.9</ele>
        <time>2022-06-12T14:02:38Z</time>
      </trkpt>
      <trkpt lat="48.25618" lon="-3.44549">
        <ele>135.9</ele>
        <time>2022-06-12T14:02:39Z</time>
      </trkpt>
      <trkpt lat="48.25618" lon="-3.44546">
        <ele>135.9</ele>
        <time>2022-06-12T14:02:40Z</time>
      </trkpt>
      <trkpt lat="48.25618" lon="-3.44544">
        <ele>136</ele>
        <time>2022-06-12T14:02:41Z</time>
      </trkpt>
      <trkpt lat="48.25618" lon="-3.44541">
        <ele>136</ele>
        <time>2022-06-12T14:02:43Z</time>
      </trkpt>
      <trkpt lat="48.25618" lon="-3.4454">
        <ele>136</ele>
        <time>2022-06-12T14:02:44Z</time>
      </trkpt>
      <trkpt lat="48.25618" lon="-3.44538">
        <ele>136</ele>
        <time>2022-06-12T14:02:45Z</time>
      </trkpt>
      <trkpt lat="48.25618" lon="-3.44537">
        <ele>136</ele>
        <time>2022-06-12T14:02:46Z</time>
      </trkpt>
      <trkpt lat="48.25617" lon="-3.44539">
        <ele>136</ele>
        <time>2022-06-12T14:02:47Z</time>
      </trkpt>
      <trkpt lat="48.25616" lon="-3.44538">
        <ele>136</ele>
        <time>2022-06-12T14:02:48Z</time>
      </trkpt>
      <trkpt lat="48.25616" lon="-3.44535">
        <ele>136</ele>
        <time>2022-06-12T14:02:50Z</time>
      </trkpt>
      <trkpt lat="48.25616" lon="-3.44533">
        <ele>136</ele>
        <time>2022-06-12T14:02:51Z</time>
      </trkpt>
      <trkpt lat="48.25616" lon="-3.44532">
        <ele>136</ele>
        <time>2022-06-12T14:02:52Z</time>
      </trkpt>
      <trkpt lat="48.25616" lon="-3.4453">
        <ele>136</ele>
        <time>2022-06-12T14:02:53Z</time>
      </trkpt>
      <trkpt lat="48.25616" lon="-3.44528">
        <ele>136.1</ele>
        <time>2022-06-12T14:02:54Z</time>
      </trkpt>
      <trkpt lat="48.25616" lon="-3.44526">
        <ele>136.1</ele>
        <time>2022-06-12T14:02:56Z</time>
      </trkpt>
      <trkpt lat="48.25616" lon="-3.44525">
        <ele>136.1</ele>
        <time>2022-06-12T14:02:57Z</time>
      </trkpt>
      <trkpt lat="48.25615" lon="-3.44522">
        <ele>136.1</ele>
        <time>2022-06-12T14:02:58Z</time>
      </trkpt>
      <trkpt lat="48.25615" lon="-3.4452">
        <ele>136.1</ele>
        <time>2022-06-12T14:02:59Z</time>
      </trkpt>
      <trkpt lat="48.25615" lon="-3.44517">
        <ele>136.1</ele>
        <time>2022-06-12T14:03:01Z</time>
      </trkpt>
      <trkpt lat="48.25615" lon="-3.44515">
        <ele>136.1</ele>
        <time>2022-06-12T14:03:02Z</time>
      </trkpt>
      <trkpt lat="48.25616" lon="-3.44513">
        <ele>136.1</ele>
        <time>2022-06-12T14:03:03Z</time>
      </trkpt>
      <trkpt lat="48.25616" lon="-3.4451">
        <ele>136.1</ele>
        <time>2022-06-12T14:03:04Z</time>
      </trkpt>
      <trkpt lat="48.25616" lon="-3.44509">
        <ele>136.1</ele>
        <time>2022-06-12T14:03:05Z</time>
      </trkpt>
      <trkpt lat="48.25616" lon="-3.44507">
        <ele>136.1</ele>
        <time>2022-06-12T14:03:06Z</time>
      </trkpt>
      <trkpt lat="48.25616" lon="-3.44505">
        <ele>136.1</ele>
        <time>2022-06-12T14:03:07Z</time>
      </trkpt>
      <trkpt lat="48.25615" lon="-3.44503">
        <ele>136.1</ele>
        <time>2022-06-12T14:03:08Z</time>
      </trkpt>
      <trkpt lat="48.25615" lon="-3.44502">
        <ele>136.1</ele>
        <time>2022-06-12T14:03:10Z</time>
      </trkpt>
      <trkpt lat="48.25615" lon="-3.44501">
        <ele>136.1</ele>
        <time>2022-06-12T14:03:11Z</time>
      </trkpt>
      <trkpt lat="48.25615" lon="-3.44501">
        <ele>136.2</ele>
        <time>2022-06-12T14:03:12Z</time>
      </trkpt>
      <trkpt lat="48.25615" lon="-3.445">
        <ele>136.2</ele>
        <time>2022-06-12T14:03:13Z</time>
      </trkpt>
      <trkpt lat="48.25615" lon="-3.44498">
        <ele>136.2</ele>
        <time>2022-06-12T14:03:14Z</time>
      </trkpt>
      <trkpt lat="48.25615" lon="-3.44497">
        <ele>136.2</ele>
        <time>2022-06-12T14:03:15Z</time>
      </trkpt>
      <trkpt lat="48.25615" lon="-3.44495">
        <ele>136.2</ele>
        <time>2022-06-12T14:03:16Z</time>
      </trkpt>
      <trkpt lat="48.25615" lon="-3.44493">
        <ele>136.2</ele>
        <time>2022-06-12T14:03:18Z</time>
      </trkpt>
      <trkpt lat="48.25615" lon="-3.4449">
        <ele>136.2</ele>
        <time>2022-06-12T14:03:20Z</time>
      </trkpt>
      <trkpt lat="48.25615" lon="-3.44488">
        <ele>136.2</ele>
        <time>2022-06-12T14:03:21Z</time>
      </trkpt>
      <trkpt lat="48.25614" lon="-3.44486">
        <ele>136.2</ele>
        <time>2022-06-12T14:03:22Z</time>
      </trkpt>
      <trkpt lat="48.25614" lon="-3.44485">
        <ele>136.2</ele>
        <time>2022-06-12T14:03:23Z</time>
      </trkpt>
      <trkpt lat="48.25614" lon="-3.44484">
        <ele>136.3</ele>
        <time>2022-06-12T14:03:24Z</time>
      </trkpt>
      <trkpt lat="48.25614" lon="-3.44483">
        <ele>136.3</ele>
        <time>2022-06-12T14:03:25Z</time>
      </trkpt>
      <trkpt lat="48.25614" lon="-3.4448">
        <ele>136.3</ele>
        <time>2022-06-12T14:03:27Z</time>
      </trkpt>
      <trkpt lat="48.25614" lon="-3.44478">
        <ele>136.3</ele>
        <time>2022-06-12T14:03:28Z</time>
      </trkpt>
      <trkpt lat="48.25614" lon="-3.44476">
        <ele>136.3</ele>
        <time>2022-06-12T14:03:29Z</time>
      </trkpt>
      <trkpt lat="48.25614" lon="-3.44474">
        <ele>136.3</ele>
        <time>2022-06-12T14:03:30Z</time>
      </trkpt>
      <trkpt lat="48.25614" lon="-3.44472">
        <ele>136.3</ele>
        <time>2022-06-12T14:03:32Z</time>
      </trkpt>
      <trkpt lat="48.25614" lon="-3.4447">
        <ele>136.4</ele>
        <time>2022-06-12T14:03:33Z</time>
      </trkpt>
      <trkpt lat="48.25614" lon="-3.44469">
        <ele>136.4</ele>
        <time>2022-06-12T14:03:34Z</time>
      </trkpt>
      <trkpt lat="48.25614" lon="-3.44467">
        <ele>136.4</ele>
        <time>2022-06-12T14:03:35Z</time>
      </trkpt>
      <trkpt lat="48.25614" lon="-3.44465">
        <ele>136.4</ele>
        <time>2022-06-12T14:03:36Z</time>
      </trkpt>
      <trkpt lat="48.25614" lon="-3.44464">
        <ele>136.4</ele>
        <time>2022-06-12T14:03:37Z</time>
      </trkpt>
      <trkpt lat="48.25613" lon="-3.44461">
        <ele>136.4</ele>
        <time>2022-06-12T14:03:38Z</time>
      </trkpt>
      <trkpt lat="48.25613" lon="-3.4446">
        <ele>136.4</ele>
        <time>2022-06-12T14:03:40Z</time>
      </trkpt>
      <trkpt lat="48.25613" lon="-3.44458">
        <ele>136.4</ele>
        <time>2022-06-12T14:03:41Z</time>
      </trkpt>
      <trkpt lat="48.25613" lon="-3.44457">
        <ele>136.4</ele>
        <time>2022-06-12T14:03:42Z</time>
      </trkpt>
      <trkpt lat="48.25612" lon="-3.44455">
        <ele>136.4</ele>
        <time>2022-06-12T14:03:43Z</time>
      </trkpt>
      <trkpt lat="48.25612" lon="-3.44453">
        <ele>136.5</ele>
        <time>2022-06-12T14:03:44Z</time>
      </trkpt>
      <trkpt lat="48.25611" lon="-3.4445">
        <ele>136.5</ele>
        <time>2022-06-12T14:03:45Z</time>
      </trkpt>
      <trkpt lat="48.25611" lon="-3.44449">
        <ele>136.5</ele>
        <time>2022-06-12T14:03:46Z</time>
      </trkpt>
      <trkpt lat="48.25611" lon="-3.44447">
        <ele>136.5</ele>
        <time>2022-06-12T14:03:48Z</time>
      </trkpt>
      <trkpt lat="48.2561" lon="-3.44446">
        <ele>136.5</ele>
        <time>2022-06-12T14:03:49Z</time>
      </trkpt>
      <trkpt lat="48.2561" lon="-3.44444">
        <ele>136.5</ele>
        <time>2022-06-12T14:03:50Z</time>
      </trkpt>
      <trkpt lat="48.2561" lon="-3.44443">
        <ele>136.5</ele>
        <time>2022-06-12T14:03:51Z</time>
      </trkpt>
      <trkpt lat="48.2561" lon="-3.44441">
        <ele>136.5</ele>
        <time>2022-06-12T14:03:52Z</time>
      </trkpt>
      <trkpt lat="48.25609" lon="-3.44439">
        <ele>136.5</ele>
        <time>2022-06-12T14:03:53Z</time>
      </trkpt>
      <trkpt lat="48.25609" lon="-3.44437">
        <ele>136.5</ele>
        <time>2022-06-12T14:03:55Z</time>
      </trkpt>
      <trkpt lat="48.2561" lon="-3.44434">
        <ele>136.5</ele>
        <time>2022-06-12T14:03:56Z</time>
      </trkpt>
      <trkpt lat="48.2561" lon="-3.44432">
        <ele>136.5</ele>
        <time>2022-06-12T14:03:57Z</time>
      </trkpt>
      <trkpt lat="48.2561" lon="-3.44431">
        <ele>136.5</ele>
        <time>2022-06-12T14:03:58Z</time>
      </trkpt>
      <trkpt lat="48.2561" lon="-3.44429">
        <ele>136.6</ele>
        <time>2022-06-12T14:03:59Z</time>
      </trkpt>
      <trkpt lat="48.2561" lon="-3.44427">
        <ele>136.6</ele>
        <time>2022-06-12T14:04:00Z</time>
      </trkpt>
      <trkpt lat="48.2561" lon="-3.44426">
        <ele>136.6</ele>
        <time>2022-06-12T14:04:01Z</time>
      </trkpt>
      <trkpt lat="48.25612" lon="-3.44429">
        <ele>136.6</ele>
        <time>2022-06-12T14:04:03Z</time>
      </trkpt>
      <trkpt lat="48.25613" lon="-3.4443">
        <ele>136.6</ele>
        <time>2022-06-12T14:04:04Z</time>
      </trkpt>
      <trkpt lat="48.25614" lon="-3.44431">
        <ele>136.6</ele>
        <time>2022-06-12T14:04:05Z</time>
      </trkpt>
      <trkpt lat="48.25615" lon="-3.44432">
        <ele>136.6</ele>
        <time>2022-06-12T14:04:06Z</time>
      </trkpt>
      <trkpt lat="48.25616" lon="-3.44432">
        <ele>136.6</ele>
        <time>2022-06-12T14:04:07Z</time>
      </trkpt>
      <trkpt lat="48.25616" lon="-3.44432">
        <ele>136.6</ele>
        <time>2022-06-12T14:04:08Z</time>
      </trkpt>
      <trkpt lat="48.25616" lon="-3.44432">
        <ele>136.6</ele>
        <time>2022-06-12T14:04:09Z</time>
      </trkpt>
      <trkpt lat="48.25616" lon="-3.44433">
        <ele>136.6</ele>
        <time>2022-06-12T14:04:10Z</time>
      </trkpt>
      <trkpt lat="48.25616" lon="-3.44433">
        <ele>136.6</ele>
        <time>2022-06-12T14:04:11Z</time>
      </trkpt>
      <trkpt lat="48.25616" lon="-3.44433">
        <ele>136.6</ele>
        <time>2022-06-12T14:04:12Z</time>
      </trkpt>
      <trkpt lat="48.25616" lon="-3.44433">
        <ele>136.6</ele>
        <time>2022-06-12T14:04:13Z</time>
      </trkpt>
      <trkpt lat="48.25616" lon="-3.44432">
        <ele>136.6</ele>
        <time>2022-06-12T14:04:15Z</time>
      </trkpt>
      <trkpt lat="48.25615" lon="-3.44431">
        <ele>136.6</ele>
        <time>2022-06-12T14:04:16Z</time>
      </trkpt>
      <trkpt lat="48.25615" lon="-3.4443">
        <ele>136.6</ele>
        <time>2022-06-12T14:04:17Z</time>
      </trkpt>
      <trkpt lat="48.25615" lon="-3.44429">
        <ele>136.6</ele>
        <time>2022-06-12T14:04:18Z</time>
      </trkpt>
      <trkpt lat="48.25614" lon="-3.44428">
        <ele>136.6</ele>
        <time>2022-06-12T14:04:19Z</time>
      </trkpt>
      <trkpt lat="48.25613" lon="-3.44426">
        <ele>136.6</ele>
        <time>2022-06-12T14:04:21Z</time>
      </trkpt>
      <trkpt lat="48.25613" lon="-3.44424">
        <ele>136.6</ele>
        <time>2022-06-12T14:04:22Z</time>
      </trkpt>
      <trkpt lat="48.25612" lon="-3.44422">
        <ele>136.6</ele>
        <time>2022-06-12T14:04:23Z</time>
      </trkpt>
      <trkpt lat="48.25612" lon="-3.44419">
        <ele>136.6</ele>
        <time>2022-06-12T14:04:24Z</time>
      </trkpt>
      <trkpt lat="48.25611" lon="-3.44417">
        <ele>136.6</ele>
        <time>2022-06-12T14:04:25Z</time>
      </trkpt>
      <trkpt lat="48.25611" lon="-3.44415">
        <ele>136.6</ele>
        <time>2022-06-12T14:04:26Z</time>
      </trkpt>
      <trkpt lat="48.2561" lon="-3.44412">
        <ele>136.7</ele>
        <time>2022-06-12T14:04:27Z</time>
      </trkpt>
      <trkpt lat="48.2561" lon="-3.4441">
        <ele>136.7</ele>
        <time>2022-06-12T14:04:29Z</time>
      </trkpt>
      <trkpt lat="48.25609" lon="-3.44408">
        <ele>136.7</ele>
        <time>2022-06-12T14:04:30Z</time>
      </trkpt>
      <trkpt lat="48.25609" lon="-3.44405">
        <ele>136.7</ele>
        <time>2022-06-12T14:04:31Z</time>
      </trkpt>
      <trkpt lat="48.25609" lon="-3.44403">
        <ele>136.7</ele>
        <time>2022-06-12T14:04:32Z</time>
      </trkpt>
      <trkpt lat="48.25609" lon="-3.44401">
        <ele>136.7</ele>
        <time>2022-06-12T14:04:33Z</time>
      </trkpt>
      <trkpt lat="48.25609" lon="-3.44399">
        <ele>136.7</ele>
        <time>2022-06-12T14:04:34Z</time>
      </trkpt>
      <trkpt lat="48.25608" lon="-3.44397">
        <ele>136.7</ele>
        <time>2022-06-12T14:04:36Z</time>
      </trkpt>
      <trkpt lat="48.25608" lon="-3.44396">
        <ele>136.7</ele>
        <time>2022-06-12T14:04:37Z</time>
      </trkpt>
      <trkpt lat="48.25607" lon="-3.44395">
        <ele>136.7</ele>
        <time>2022-06-12T14:04:38Z</time>
      </trkpt>
      <trkpt lat="48.25607" lon="-3.44394">
        <ele>136.7</ele>
        <time>2022-06-12T14:04:39Z</time>
      </trkpt>
      <trkpt lat="48.25607" lon="-3.44393">
        <ele>136.7</ele>
        <time>2022-06-12T14:04:40Z</time>
      </trkpt>
      <trkpt lat="48.25607" lon="-3.44391">
        <ele>136.7</ele>
        <time>2022-06-12T14:04:41Z</time>
      </trkpt>
      <trkpt lat="48.25607" lon="-3.44389">
        <ele>136.7</ele>
        <time>2022-06-12T14:04:42Z</time>
      </trkpt>
      <trkpt lat="48.25607" lon="-3.44387">
        <ele>136.7</ele>
        <time>2022-06-12T14:04:44Z</time>
      </trkpt>
      <trkpt lat="48.25606" lon="-3.44385">
        <ele>136.7</ele>
        <time>2022-06-12T14:04:45Z</time>
      </trkpt>
      <trkpt lat="48.25606" lon="-3.44384">
        <ele>136.7</ele>
        <time>2022-06-12T14:04:46Z</time>
      </trkpt>
      <trkpt lat="48.25605" lon="-3.44382">
        <ele>136.7</ele>
        <time>2022-06-12T14:04:47Z</time>
      </trkpt>
      <trkpt lat="48.25605" lon="-3.4438">
        <ele>136.7</ele>
        <time>2022-06-12T14:04:48Z</time>
      </trkpt>
      <trkpt lat="48.25605" lon="-3.44378">
        <ele>136.7</ele>
        <time>2022-06-12T14:04:49Z</time>
      </trkpt>
      <trkpt lat="48.25605" lon="-3.44375">
        <ele>136.7</ele>
        <time>2022-06-12T14:04:50Z</time>
      </trkpt>
      <trkpt lat="48.25605" lon="-3.44373">
        <ele>136.7</ele>
        <time>2022-06-12T14:04:51Z</time>
      </trkpt>
      <trkpt lat="48.25605" lon="-3.4437">
        <ele>136.7</ele>
        <time>2022-06-12T14:04:52Z</time>
      </trkpt>
      <trkpt lat="48.25604" lon="-3.44368">
        <ele>136.7</ele>
        <time>2022-06-12T14:04:54Z</time>
      </trkpt>
      <trkpt lat="48.25604" lon="-3.44366">
        <ele>136.7</ele>
        <time>2022-06-12T14:04:55Z</time>
      </trkpt>
      <trkpt lat="48.25604" lon="-3.44365">
        <ele>136.7</ele>
        <time>2022-06-12T14:04:56Z</time>
      </trkpt>
      <trkpt lat="48.25603" lon="-3.44363">
        <ele>136.7</ele>
        <time>2022-06-12T14:04:57Z</time>
      </trkpt>
      <trkpt lat="48.25603" lon="-3.4436">
        <ele>136.7</ele>
        <time>2022-06-12T14:04:58Z</time>
      </trkpt>
      <trkpt lat="48.25603" lon="-3.44359">
        <ele>136.7</ele>
        <time>2022-06-12T14:04:59Z</time>
      </trkpt>
      <trkpt lat="48.25603" lon="-3.44358">
        <ele>136.7</ele>
        <time>2022-06-12T14:05:00Z</time>
      </trkpt>
      <trkpt lat="48.25602" lon="-3.44356">
        <ele>136.7</ele>
        <time>2022-06-12T14:05:01Z</time>
      </trkpt>
      <trkpt lat="48.25602" lon="-3.44354">
        <ele>136.7</ele>
        <time>2022-06-12T14:05:02Z</time>
      </trkpt>
      <trkpt lat="48.25601" lon="-3.44351">
        <ele>136.7</ele>
        <time>2022-06-12T14:05:04Z</time>
      </trkpt>
      <trkpt lat="48.25601" lon="-3.44349">
        <ele>136.7</ele>
        <time>2022-06-12T14:05:05Z</time>
      </trkpt>
      <trkpt lat="48.25601" lon="-3.44345">
        <ele>136.7</ele>
        <time>2022-06-12T14:05:07Z</time>
      </trkpt>
      <trkpt lat="48.25601" lon="-3.44344">
        <ele>136.7</ele>
        <time>2022-06-12T14:05:08Z</time>
      </trkpt>
      <trkpt lat="48.25601" lon="-3.44343">
        <ele>136.7</ele>
        <time>2022-06-12T14:05:09Z</time>
      </trkpt>
      <trkpt lat="48.25601" lon="-3.4434">
        <ele>136.7</ele>
        <time>2022-06-12T14:05:10Z</time>
      </trkpt>
      <trkpt lat="48.25601" lon="-3.44338">
        <ele>136.8</ele>
        <time>2022-06-12T14:05:11Z</time>
      </trkpt>
      <trkpt lat="48.256" lon="-3.44336">
        <ele>136.8</ele>
        <time>2022-06-12T14:05:12Z</time>
      </trkpt>
      <trkpt lat="48.256" lon="-3.44334">
        <ele>136.8</ele>
        <time>2022-06-12T14:05:14Z</time>
      </trkpt>
      <trkpt lat="48.256" lon="-3.44332">
        <ele>136.8</ele>
        <time>2022-06-12T14:05:15Z</time>
      </trkpt>
      <trkpt lat="48.256" lon="-3.4433">
        <ele>136.8</ele>
        <time>2022-06-12T14:05:16Z</time>
      </trkpt>
      <trkpt lat="48.25599" lon="-3.44329">
        <ele>136.8</ele>
        <time>2022-06-12T14:05:17Z</time>
      </trkpt>
      <trkpt lat="48.25599" lon="-3.44328">
        <ele>136.8</ele>
        <time>2022-06-12T14:05:18Z</time>
      </trkpt>
      <trkpt lat="48.25599" lon="-3.44327">
        <ele>136.8</ele>
        <time>2022-06-12T14:05:19Z</time>
      </trkpt>
      <trkpt lat="48.25599" lon="-3.44323">
        <ele>136.8</ele>
        <time>2022-06-12T14:05:21Z</time>
      </trkpt>
      <trkpt lat="48.25599" lon="-3.44322">
        <ele>136.8</ele>
        <time>2022-06-12T14:05:22Z</time>
      </trkpt>
      <trkpt lat="48.25599" lon="-3.44321">
        <ele>136.8</ele>
        <time>2022-06-12T14:05:23Z</time>
      </trkpt>
      <trkpt lat="48.25598" lon="-3.44317">
        <ele>136.8</ele>
        <time>2022-06-12T14:05:24Z</time>
      </trkpt>
      <trkpt lat="48.25598" lon="-3.44316">
        <ele>136.8</ele>
        <time>2022-06-12T14:05:26Z</time>
      </trkpt>
      <trkpt lat="48.25598" lon="-3.44314">
        <ele>136.8</ele>
        <time>2022-06-12T14:05:27Z</time>
      </trkpt>
      <trkpt lat="48.25597" lon="-3.44313">
        <ele>136.8</ele>
        <time>2022-06-12T14:05:28Z</time>
      </trkpt>
      <trkpt lat="48.25597" lon="-3.44311">
        <ele>136.8</ele>
        <time>2022-06-12T14:05:29Z</time>
      </trkpt>
      <trkpt lat="48.25597" lon="-3.44309">
        <ele>136.8</ele>
        <time>2022-06-12T14:05:31Z</time>
      </trkpt>
      <trkpt lat="48.25597" lon="-3.44307">
        <ele>136.8</ele>
        <time>2022-06-12T14:05:32Z</time>
      </trkpt>
      <trkpt lat="48.25597" lon="-3.44304">
        <ele>136.8</ele>
        <time>2022-06-12T14:05:33Z</time>
      </trkpt>
      <trkpt lat="48.25597" lon="-3.44302">
        <ele>136.8</ele>
        <time>2022-06-12T14:05:34Z</time>
      </trkpt>
      <trkpt lat="48.25597" lon="-3.443">
        <ele>136.8</ele>
        <time>2022-06-12T14:05:35Z</time>
      </trkpt>
      <trkpt lat="48.25597" lon="-3.44298">
        <ele>136.8</ele>
        <time>2022-06-12T14:05:36Z</time>
      </trkpt>
      <trkpt lat="48.25597" lon="-3.44296">
        <ele>136.8</ele>
        <time>2022-06-12T14:05:37Z</time>
      </trkpt>
      <trkpt lat="48.25597" lon="-3.44293">
        <ele>136.8</ele>
        <time>2022-06-12T14:05:38Z</time>
      </trkpt>
      <trkpt lat="48.25597" lon="-3.4429">
        <ele>136.8</ele>
        <time>2022-06-12T14:05:40Z</time>
      </trkpt>
      <trkpt lat="48.25597" lon="-3.44288">
        <ele>136.8</ele>
        <time>2022-06-12T14:05:41Z</time>
      </trkpt>
      <trkpt lat="48.25597" lon="-3.44287">
        <ele>136.8</ele>
        <time>2022-06-12T14:05:42Z</time>
      </trkpt>
      <trkpt lat="48.25597" lon="-3.44289">
        <ele>136.8</ele>
        <time>2022-06-12T14:05:43Z</time>
      </trkpt>
      <trkpt lat="48.25597" lon="-3.4429">
        <ele>136.8</ele>
        <time>2022-06-12T14:05:44Z</time>
      </trkpt>
      <trkpt lat="48.25597" lon="-3.4429">
        <ele>136.8</ele>
        <time>2022-06-12T14:05:45Z</time>
      </trkpt>
      <trkpt lat="48.25597" lon="-3.4429">
        <ele>136.8</ele>
        <time>2022-06-12T14:05:46Z</time>
      </trkpt>
      <trkpt lat="48.25597" lon="-3.4429">
        <ele>136.8</ele>
        <time>2022-06-12T14:05:47Z</time>
      </trkpt>
      <trkpt lat="48.25597" lon="-3.4429">
        <ele>136.8</ele>
        <time>2022-06-12T14:05:49Z</time>
      </trkpt>
      <trkpt lat="48.25597" lon="-3.44289">
        <ele>136.8</ele>
        <time>2022-06-12T14:05:50Z</time>
      </trkpt>
      <trkpt lat="48.25597" lon="-3.44289">
        <ele>136.8</ele>
        <time>2022-06-12T14:05:51Z</time>
      </trkpt>
      <trkpt lat="48.25597" lon="-3.44287">
        <ele>136.8</ele>
        <time>2022-06-12T14:05:53Z</time>
      </trkpt>
      <trkpt lat="48.25597" lon="-3.44286">
        <ele>136.8</ele>
        <time>2022-06-12T14:05:54Z</time>
      </trkpt>
      <trkpt lat="48.25597" lon="-3.44284">
        <ele>136.8</ele>
        <time>2022-06-12T14:05:55Z</time>
      </trkpt>
      <trkpt lat="48.25596" lon="-3.44282">
        <ele>136.8</ele>
        <time>2022-06-12T14:05:56Z</time>
      </trkpt>
      <trkpt lat="48.25596" lon="-3.44281">
        <ele>136.8</ele>
        <time>2022-06-12T14:05:57Z</time>
      </trkpt>
      <trkpt lat="48.25596" lon="-3.44279">
        <ele>136.8</ele>
        <time>2022-06-12T14:05:58Z</time>
      </trkpt>
      <trkpt lat="48.25595" lon="-3.44277">
        <ele>136.8</ele>
        <time>2022-06-12T14:06:00Z</time>
      </trkpt>
      <trkpt lat="48.25595" lon="-3.44275">
        <ele>136.8</ele>
        <time>2022-06-12T14:06:01Z</time>
      </trkpt>
      <trkpt lat="48.25595" lon="-3.44273">
        <ele>136.8</ele>
        <time>2022-06-12T14:06:02Z</time>
      </trkpt>
      <trkpt lat="48.25596" lon="-3.44271">
        <ele>136.8</ele>
        <time>2022-06-12T14:06:03Z</time>
      </trkpt>
      <trkpt lat="48.25596" lon="-3.44269">
        <ele>136.8</ele>
        <time>2022-06-12T14:06:04Z</time>
      </trkpt>
      <trkpt lat="48.25596" lon="-3.44267">
        <ele>136.8</ele>
        <time>2022-06-12T14:06:06Z</time>
      </trkpt>
      <trkpt lat="48.25597" lon="-3.44266">
        <ele>136.8</ele>
        <time>2022-06-12T14:06:07Z</time>
      </trkpt>
      <trkpt lat="48.25598" lon="-3.44265">
        <ele>136.9</ele>
        <time>2022-06-12T14:06:08Z</time>
      </trkpt>
      <trkpt lat="48.25599" lon="-3.44264">
        <ele>136.9</ele>
        <time>2022-06-12T14:06:09Z</time>
      </trkpt>
      <trkpt lat="48.25599" lon="-3.44262">
        <ele>136.9</ele>
        <time>2022-06-12T14:06:10Z</time>
      </trkpt>
      <trkpt lat="48.25599" lon="-3.44261">
        <ele>136.9</ele>
        <time>2022-06-12T14:06:11Z</time>
      </trkpt>
      <trkpt lat="48.25599" lon="-3.44259">
        <ele>136.9</ele>
        <time>2022-06-12T14:06:12Z</time>
      </trkpt>
      <trkpt lat="48.25599" lon="-3.44257">
        <ele>136.9</ele>
        <time>2022-06-12T14:06:13Z</time>
      </trkpt>
      <trkpt lat="48.25599" lon="-3.44255">
        <ele>136.9</ele>
        <time>2022-06-12T14:06:14Z</time>
      </trkpt>
      <trkpt lat="48.256" lon="-3.44253">
        <ele>136.9</ele>
        <time>2022-06-12T14:06:16Z</time>
      </trkpt>
      <trkpt lat="48.256" lon="-3.44251">
        <ele>136.9</ele>
        <time>2022-06-12T14:06:17Z</time>
      </trkpt>
      <trkpt lat="48.256" lon="-3.44249">
        <ele>136.9</ele>
        <time>2022-06-12T14:06:18Z</time>
      </trkpt>
      <trkpt lat="48.256" lon="-3.44248">
        <ele>136.9</ele>
        <time>2022-06-12T14:06:19Z</time>
      </trkpt>
      <trkpt lat="48.256" lon="-3.44246">
        <ele>136.9</ele>
        <time>2022-06-12T14:06:21Z</time>
      </trkpt>
      <trkpt lat="48.25599" lon="-3.44245">
        <ele>136.9</ele>
        <time>2022-06-12T14:06:22Z</time>
      </trkpt>
      <trkpt lat="48.25599" lon="-3.44243">
        <ele>136.9</ele>
        <time>2022-06-12T14:06:23Z</time>
      </trkpt>
      <trkpt lat="48.25599" lon="-3.44242">
        <ele>136.9</ele>
        <time>2022-06-12T14:06:24Z</time>
      </trkpt>
      <trkpt lat="48.25599" lon="-3.44241">
        <ele>136.9</ele>
        <time>2022-06-12T14:06:25Z</time>
      </trkpt>
      <trkpt lat="48.256" lon="-3.4424">
        <ele>136.9</ele>
        <time>2022-06-12T14:06:26Z</time>
      </trkpt>
      <trkpt lat="48.256" lon="-3.44239">
        <ele>136.9</ele>
        <time>2022-06-12T14:06:27Z</time>
      </trkpt>
      <trkpt lat="48.256" lon="-3.44238">
        <ele>136.9</ele>
        <time>2022-06-12T14:06:28Z</time>
      </trkpt>
      <trkpt lat="48.25599" lon="-3.44238">
        <ele>136.9</ele>
        <time>2022-06-12T14:06:29Z</time>
      </trkpt>
      <trkpt lat="48.25599" lon="-3.44238">
        <ele>136.9</ele>
        <time>2022-06-12T14:06:30Z</time>
      </trkpt>
      <trkpt lat="48.25598" lon="-3.44239">
        <ele>136.9</ele>
        <time>2022-06-12T14:06:31Z</time>
      </trkpt>
      <trkpt lat="48.25598" lon="-3.4424">
        <ele>136.9</ele>
        <time>2022-06-12T14:06:32Z</time>
      </trkpt>
      <trkpt lat="48.25598" lon="-3.44241">
        <ele>136.9</ele>
        <time>2022-06-12T14:06:33Z</time>
      </trkpt>
      <trkpt lat="48.25598" lon="-3.44242">
        <ele>136.9</ele>
        <time>2022-06-12T14:06:34Z</time>
      </trkpt>
      <trkpt lat="48.25598" lon="-3.44243">
        <ele>136.9</ele>
        <time>2022-06-12T14:06:35Z</time>
      </trkpt>
      <trkpt lat="48.25598" lon="-3.44244">
        <ele>136.9</ele>
        <time>2022-06-12T14:06:36Z</time>
      </trkpt>
      <trkpt lat="48.25598" lon="-3.44245">
        <ele>136.9</ele>
        <time>2022-06-12T14:06:37Z</time>
      </trkpt>
      <trkpt lat="48.25598" lon="-3.44245">
        <ele>136.9</ele>
        <time>2022-06-12T14:06:38Z</time>
      </trkpt>
      <trkpt lat="48.25597" lon="-3.44245">
        <ele>136.9</ele>
        <time>2022-06-12T14:06:39Z</time>
      </trkpt>
      <trkpt lat="48.25597" lon="-3.44246">
        <ele>136.9</ele>
        <time>2022-06-12T14:06:40Z</time>
      </trkpt>
      <trkpt lat="48.25597" lon="-3.44246">
        <ele>136.9</ele>
        <time>2022-06-12T14:06:41Z</time>
      </trkpt>
      <trkpt lat="48.25597" lon="-3.44246">
        <ele>136.9</ele>
        <time>2022-06-12T14:06:42Z</time>
      </trkpt>
      <trkpt lat="48.25597" lon="-3.44247">
        <ele>136.9</ele>
        <time>2022-06-12T14:06:43Z</time>
      </trkpt>
      <trkpt lat="48.25597" lon="-3.44247">
        <ele>136.9</ele>
        <time>2022-06-12T14:06:44Z</time>
      </trkpt>
      <trkpt lat="48.25597" lon="-3.44248">
        <ele>136.9</ele>
        <time>2022-06-12T14:06:45Z</time>
      </trkpt>
      <trkpt lat="48.25597" lon="-3.44248">
        <ele>136.9</ele>
        <time>2022-06-12T14:06:46Z</time>
      </trkpt>
      <trkpt lat="48.25597" lon="-3.44248">
        <ele>136.9</ele>
        <time>2022-06-12T14:06:47Z</time>
      </trkpt>
      <trkpt lat="48.25597" lon="-3.44248">
        <ele>136.9</ele>
        <time>2022-06-12T14:06:48Z</time>
      </trkpt>
      <trkpt lat="48.25597" lon="-3.44248">
        <ele>136.9</ele>
        <time>2022-06-12T14:06:49Z</time>
      </trkpt>
      <trkpt lat="48.25597" lon="-3.44248">
        <ele>136.9</ele>
        <time>2022-06-12T14:06:50Z</time>
      </trkpt>
      <trkpt lat="48.25597" lon="-3.44248">
        <ele>136.9</ele>
        <time>2022-06-12T14:06:51Z</time>
      </trkpt>
      <trkpt lat="48.25597" lon="-3.44248">
        <ele>136.9</ele>
        <time>2022-06-12T14:06:52Z</time>
      </trkpt>
      <trkpt lat="48.25597" lon="-3.44248">
        <ele>136.9</ele>
        <time>2022-06-12T14:06:53Z</time>
      </trkpt>
      <trkpt lat="48.25597" lon="-3.44248">
        <ele>136.9</ele>
        <time>2022-06-12T14:06:54Z</time>
      </trkpt>
      <trkpt lat="48.25597" lon="-3.44248">
        <ele>136.9</ele>
        <time>2022-06-12T14:06:55Z</time>
      </trkpt>
      <trkpt lat="48.25597" lon="-3.44248">
        <ele>136.9</ele>
        <time>2022-06-12T14:06:56Z</time>
      </trkpt>
      <trkpt lat="48.25597" lon="-3.44248">
        <ele>136.9</ele>
        <time>2022-06-12T14:06:57Z</time>
      </trkpt>
      <trkpt lat="48.25597" lon="-3.44248">
        <ele>136.9</ele>
        <time>2022-06-12T14:06:58Z</time>
      </trkpt>
      <trkpt lat="48.25597" lon="-3.44248">
        <ele>136.9</ele>
        <time>2022-06-12T14:06:59Z</time>
      </trkpt>
      <trkpt lat="48.25597" lon="-3.44248">
        <ele>136.9</ele>
        <time>2022-06-12T14:07:00Z</time>
      </trkpt>
      <trkpt lat="48.25597" lon="-3.44248">
        <ele>136.9</ele>
        <time>2022-06-12T14:07:01Z</time>
      </trkpt>
      <trkpt lat="48.25597" lon="-3.44248">
        <ele>136.9</ele>
        <time>2022-06-12T14:07:02Z</time>
      </trkpt>
      <trkpt lat="48.25597" lon="-3.44248">
        <ele>136.9</ele>
        <time>2022-06-12T14:07:03Z</time>
      </trkpt>
      <trkpt lat="48.25597" lon="-3.44248">
        <ele>136.9</ele>
        <time>2022-06-12T14:07:04Z</time>
      </trkpt>
      <trkpt lat="48.25597" lon="-3.44248">
        <ele>136.9</ele>
        <time>2022-06-12T14:07:05Z</time>
      </trkpt>
      <trkpt lat="48.25597" lon="-3.44248">
        <ele>136.9</ele>
        <time>2022-06-12T14:07:06Z</time>
      </trkpt>
      <trkpt lat="48.25597" lon="-3.44248">
        <ele>136.9</ele>
        <time>2022-06-12T14:07:07Z</time>
      </trkpt>
      <trkpt lat="48.25597" lon="-3.44248">
        <ele>136.9</ele>
        <time>2022-06-12T14:07:08Z</time>
      </trkpt>
      <trkpt lat="48.25597" lon="-3.44248">
        <ele>136.9</ele>
        <time>2022-06-12T14:07:09Z</time>
      </trkpt>
      <trkpt lat="48.25597" lon="-3.44248">
        <ele>136.9</ele>
        <time>2022-06-12T14:07:10Z</time>
      </trkpt>
      <trkpt lat="48.25597" lon="-3.44248">
        <ele>136.9</ele>
        <time>2022-06-12T14:07:11Z</time>
      </trkpt>
      <trkpt lat="48.25597" lon="-3.44248">
        <ele>136.9</ele>
        <time>2022-06-12T14:07:13Z</time>
      </trkpt>
      <trkpt lat="48.25597" lon="-3.44248">
        <ele>136.9</ele>
        <time>2022-06-12T14:07:14Z</time>
      </trkpt>
      <trkpt lat="48.25597" lon="-3.44248">
        <ele>136.9</ele>
        <time>2022-06-12T14:07:15Z</time>
      </trkpt>
      <trkpt lat="48.25597" lon="-3.44248">
        <ele>136.9</ele>
        <time>2022-06-12T14:07:16Z</time>
      </trkpt>
      <trkpt lat="48.25597" lon="-3.44248">
        <ele>136.9</ele>
        <time>2022-06-12T14:07:17Z</time>
      </trkpt>
      <trkpt lat="48.25597" lon="-3.44248">
        <ele>136.9</ele>
        <time>2022-06-12T14:07:18Z</time>
      </trkpt>
      <trkpt lat="48.25597" lon="-3.44248">
        <ele>136.9</ele>
        <time>2022-06-12T14:07:19Z</time>
      </trkpt>
      <trkpt lat="48.25598" lon="-3.44249">
        <ele>136.9</ele>
        <time>2022-06-12T14:07:20Z</time>
      </trkpt>
      <trkpt lat="48.25598" lon="-3.44249">
        <ele>136.9</ele>
        <time>2022-06-12T14:07:21Z</time>
      </trkpt>
      <trkpt lat="48.25598" lon="-3.44249">
        <ele>136.9</ele>
        <time>2022-06-12T14:07:22Z</time>
      </trkpt>
      <trkpt lat="48.25598" lon="-3.44249">
        <ele>136.9</ele>
        <time>2022-06-12T14:07:23Z</time>
      </trkpt>
      <trkpt lat="48.25598" lon="-3.44249">
        <ele>136.9</ele>
        <time>2022-06-12T14:07:24Z</time>
      </trkpt>
      <trkpt lat="48.25598" lon="-3.44249">
        <ele>136.9</ele>
        <time>2022-06-12T14:07:25Z</time>
      </trkpt>
      <trkpt lat="48.25598" lon="-3.44249">
        <ele>136.9</ele>
        <time>2022-06-12T14:07:26Z</time>
      </trkpt>
      <trkpt lat="48.25598" lon="-3.44249">
        <ele>136.9</ele>
        <time>2022-06-12T14:07:27Z</time>
      </trkpt>
      <trkpt lat="48.25598" lon="-3.4425">
        <ele>136.9</ele>
        <time>2022-06-12T14:07:28Z</time>
      </trkpt>
      <trkpt lat="48.25598" lon="-3.4425">
        <ele>136.9</ele>
        <time>2022-06-12T14:07:29Z</time>
      </trkpt>
      <trkpt lat="48.25598" lon="-3.4425">
        <ele>136.9</ele>
        <time>2022-06-12T14:07:30Z</time>
      </trkpt>
      <trkpt lat="48.25598" lon="-3.4425">
        <ele>136.9</ele>
        <time>2022-06-12T14:07:31Z</time>
      </trkpt>
      <trkpt lat="48.25598" lon="-3.4425">
        <ele>136.9</ele>
        <time>2022-06-12T14:07:32Z</time>
      </trkpt>
      <trkpt lat="48.25598" lon="-3.4425">
        <ele>136.9</ele>
        <time>2022-06-12T14:07:33Z</time>
      </trkpt>
      <trkpt lat="48.25598" lon="-3.4425">
        <ele>136.9</ele>
        <time>2022-06-12T14:07:34Z</time>
      </trkpt>
      <trkpt lat="48.25598" lon="-3.4425">
        <ele>136.9</ele>
        <time>2022-06-12T14:07:35Z</time>
      </trkpt>
      <trkpt lat="48.25598" lon="-3.4425">
        <ele>136.9</ele>
        <time>2022-06-12T14:07:36Z</time>
      </trkpt>
      <trkpt lat="48.25598" lon="-3.4425">
        <ele>136.9</ele>
        <time>2022-06-12T14:07:37Z</time>
      </trkpt>
      <trkpt lat="48.25598" lon="-3.4425">
        <ele>136.9</ele>
        <time>2022-06-12T14:07:38Z</time>
      </trkpt>
      <trkpt lat="48.25598" lon="-3.4425">
        <ele>136.9</ele>
        <time>2022-06-12T14:07:39Z</time>
      </trkpt>
      <trkpt lat="48.25598" lon="-3.4425">
        <ele>136.9</ele>
        <time>2022-06-12T14:07:40Z</time>
      </trkpt>
      <trkpt lat="48.25598" lon="-3.4425">
        <ele>136.9</ele>
        <time>2022-06-12T14:07:41Z</time>
      </trkpt>
      <trkpt lat="48.25598" lon="-3.4425">
        <ele>136.9</ele>
        <time>2022-06-12T14:07:42Z</time>
      </trkpt>
      <trkpt lat="48.25598" lon="-3.4425">
        <ele>136.9</ele>
        <time>2022-06-12T14:07:43Z</time>
      </trkpt>
      <trkpt lat="48.25598" lon="-3.4425">
        <ele>136.9</ele>
        <time>2022-06-12T14:07:44Z</time>
      </trkpt>
      <trkpt lat="48.25598" lon="-3.4425">
        <ele>136.9</ele>
        <time>2022-06-12T14:07:45Z</time>
      </trkpt>
      <trkpt lat="48.25598" lon="-3.4425">
        <ele>136.9</ele>
        <time>2022-06-12T14:07:46Z</time>
      </trkpt>
      <trkpt lat="48.25598" lon="-3.4425">
        <ele>136.9</ele>
        <time>2022-06-12T14:07:47Z</time>
      </trkpt>
      <trkpt lat="48.25598" lon="-3.4425">
        <ele>136.9</ele>
        <time>2022-06-12T14:07:48Z</time>
      </trkpt>
      <trkpt lat="48.25598" lon="-3.4425">
        <ele>136.9</ele>
        <time>2022-06-12T14:07:49Z</time>
      </trkpt>
      <trkpt lat="48.25598" lon="-3.4425">
        <ele>136.9</ele>
        <time>2022-06-12T14:07:50Z</time>
      </trkpt>
      <trkpt lat="48.25598" lon="-3.4425">
        <ele>136.9</ele>
        <time>2022-06-12T14:07:51Z</time>
      </trkpt>
      <trkpt lat="48.25598" lon="-3.4425">
        <ele>136.9</ele>
        <time>2022-06-12T14:07:52Z</time>
      </trkpt>
      <trkpt lat="48.25598" lon="-3.4425">
        <ele>136.9</ele>
        <time>2022-06-12T14:07:53Z</time>
      </trkpt>
      <trkpt lat="48.25598" lon="-3.4425">
        <ele>136.9</ele>
        <time>2022-06-12T14:07:54Z</time>
      </trkpt>
      <trkpt lat="48.25598" lon="-3.4425">
        <ele>136.9</ele>
        <time>2022-06-12T14:07:55Z</time>
      </trkpt>
      <trkpt lat="48.25598" lon="-3.4425">
        <ele>136.9</ele>
        <time>2022-06-12T14:07:56Z</time>
      </trkpt>
      <trkpt lat="48.25598" lon="-3.4425">
        <ele>136.9</ele>
        <time>2022-06-12T14:07:57Z</time>
      </trkpt>
      <trkpt lat="48.25598" lon="-3.4425">
        <ele>136.9</ele>
        <time>2022-06-12T14:07:58Z</time>
      </trkpt>
      <trkpt lat="48.25598" lon="-3.4425">
        <ele>136.9</ele>
        <time>2022-06-12T14:07:59Z</time>
      </trkpt>
      <trkpt lat="48.25598" lon="-3.4425">
        <ele>136.9</ele>
        <time>2022-06-12T14:08:00Z</time>
      </trkpt>
      <trkpt lat="48.25598" lon="-3.4425">
        <ele>136.9</ele>
        <time>2022-06-12T14:08:01Z</time>
      </trkpt>
      <trkpt lat="48.25598" lon="-3.4425">
        <ele>136.9</ele>
        <time>2022-06-12T14:08:02Z</time>
      </trkpt>
      <trkpt lat="48.25598" lon="-3.4425">
        <ele>136.9</ele>
        <time>2022-06-12T14:08:03Z</time>
      </trkpt>
      <trkpt lat="48.25598" lon="-3.4425">
        <ele>136.9</ele>
        <time>2022-06-12T14:08:04Z</time>
      </trkpt>
      <trkpt lat="48.25598" lon="-3.4425">
        <ele>136.9</ele>
        <time>2022-06-12T14:08:05Z</time>
      </trkpt>
      <trkpt lat="48.25598" lon="-3.4425">
        <ele>136.9</ele>
        <time>2022-06-12T14:08:06Z</time>
      </trkpt>
      <trkpt lat="48.25598" lon="-3.4425">
        <ele>136.9</ele>
        <time>2022-06-12T14:08:07Z</time>
      </trkpt>
      <trkpt lat="48.25598" lon="-3.4425">
        <ele>136.9</ele>
        <time>2022-06-12T14:08:08Z</time>
      </trkpt>
      <trkpt lat="48.25598" lon="-3.4425">
        <ele>136.9</ele>
        <time>2022-06-12T14:08:09Z</time>
      </trkpt>
      <trkpt lat="48.25598" lon="-3.4425">
        <ele>136.9</ele>
        <time>2022-06-12T14:08:10Z</time>
      </trkpt>
      <trkpt lat="48.25598" lon="-3.4425">
        <ele>136.9</ele>
        <time>2022-06-12T14:08:11Z</time>
      </trkpt>
      <trkpt lat="48.25598" lon="-3.4425">
        <ele>136.9</ele>
        <time>2022-06-12T14:08:12Z</time>
      </trkpt>
      <trkpt lat="48.25598" lon="-3.4425">
        <ele>136.9</ele>
        <time>2022-06-12T14:08:13Z</time>
      </trkpt>
      <trkpt lat="48.25598" lon="-3.4425">
        <ele>136.9</ele>
        <time>2022-06-12T14:08:14Z</time>
      </trkpt>
      <trkpt lat="48.25598" lon="-3.4425">
        <ele>136.9</ele>
        <time>2022-06-12T14:08:15Z</time>
      </trkpt>
      <trkpt lat="48.25598" lon="-3.4425">
        <ele>136.9</ele>
        <time>2022-06-12T14:08:16Z</time>
      </trkpt>
      <trkpt lat="48.25598" lon="-3.4425">
        <ele>136.9</ele>
        <time>2022-06-12T14:08:17Z</time>
      </trkpt>
      <trkpt lat="48.25598" lon="-3.4425">
        <ele>136.9</ele>
        <time>2022-06-12T14:08:18Z</time>
      </trkpt>
      <trkpt lat="48.25598" lon="-3.4425">
        <ele>136.9</ele>
        <time>2022-06-12T14:08:19Z</time>
      </trkpt>
      <trkpt lat="48.25598" lon="-3.4425">
        <ele>136.9</ele>
        <time>2022-06-12T14:08:20Z</time>
      </trkpt>
      <trkpt lat="48.25598" lon="-3.4425">
        <ele>136.9</ele>
        <time>2022-06-12T14:08:21Z</time>
      </trkpt>
      <trkpt lat="48.25598" lon="-3.4425">
        <ele>136.9</ele>
        <time>2022-06-12T14:08:22Z</time>
      </trkpt>
      <trkpt lat="48.25598" lon="-3.4425">
        <ele>136.9</ele>
        <time>2022-06-12T14:08:23Z</time>
      </trkpt>
      <trkpt lat="48.25598" lon="-3.4425">
        <ele>136.9</ele>
        <time>2022-06-12T14:08:24Z</time>
      </trkpt>
      <trkpt lat="48.25598" lon="-3.4425">
        <ele>136.9</ele>
        <time>2022-06-12T14:08:25Z</time>
      </trkpt>
      <trkpt lat="48.25598" lon="-3.4425">
        <ele>136.9</ele>
        <time>2022-06-12T14:08:26Z</time>
      </trkpt>
      <trkpt lat="48.25598" lon="-3.4425">
        <ele>136.9</ele>
        <time>2022-06-12T14:08:27Z</time>
      </trkpt>
      <trkpt lat="48.25598" lon="-3.4425">
        <ele>136.9</ele>
        <time>2022-06-12T14:08:28Z</time>
      </trkpt>
      <trkpt lat="48.25598" lon="-3.4425">
        <ele>136.9</ele>
        <time>2022-06-12T14:08:29Z</time>
      </trkpt>
      <trkpt lat="48.25598" lon="-3.4425">
        <ele>136.9</ele>
        <time>2022-06-12T14:08:30Z</time>
      </trkpt>
      <trkpt lat="48.25598" lon="-3.4425">
        <ele>136.9</ele>
        <time>2022-06-12T14:08:31Z</time>
      </trkpt>
      <trkpt lat="48.25598" lon="-3.4425">
        <ele>136.9</ele>
        <time>2022-06-12T14:08:32Z</time>
      </trkpt>
      <trkpt lat="48.25598" lon="-3.4425">
        <ele>136.9</ele>
        <time>2022-06-12T14:08:33Z</time>
      </trkpt>
      <trkpt lat="48.25598" lon="-3.4425">
        <ele>136.9</ele>
        <time>2022-06-12T14:08:34Z</time>
      </trkpt>
      <trkpt lat="48.25598" lon="-3.4425">
        <ele>136.9</ele>
        <time>2022-06-12T14:08:35Z</time>
      </trkpt>
      <trkpt lat="48.25598" lon="-3.4425">
        <ele>136.9</ele>
        <time>2022-06-12T14:08:36Z</time>
      </trkpt>
      <trkpt lat="48.25598" lon="-3.4425">
        <ele>136.9</ele>
        <time>2022-06-12T14:08:37Z</time>
      </trkpt>
      <trkpt lat="48.25598" lon="-3.4425">
        <ele>136.9</ele>
        <time>2022-06-12T14:08:38Z</time>
      </trkpt>
      <trkpt lat="48.25598" lon="-3.4425">
        <ele>136.9</ele>
        <time>2022-06-12T14:08:39Z</time>
      </trkpt>
      <trkpt lat="48.25598" lon="-3.4425">
        <ele>136.9</ele>
        <time>2022-06-12T14:08:40Z</time>
      </trkpt>
      <trkpt lat="48.25598" lon="-3.4425">
        <ele>136.9</ele>
        <time>2022-06-12T14:08:41Z</time>
      </trkpt>
      <trkpt lat="48.25598" lon="-3.4425">
        <ele>136.9</ele>
        <time>2022-06-12T14:08:42Z</time>
      </trkpt>
      <trkpt lat="48.25598" lon="-3.4425">
        <ele>136.9</ele>
        <time>2022-06-12T14:08:43Z</time>
      </trkpt>
      <trkpt lat="48.25598" lon="-3.4425">
        <ele>136.9</ele>
        <time>2022-06-12T14:08:44Z</time>
      </trkpt>
      <trkpt lat="48.25598" lon="-3.4425">
        <ele>136.9</ele>
        <time>2022-06-12T14:08:45Z</time>
      </trkpt>
      <trkpt lat="48.25598" lon="-3.4425">
        <ele>136.9</ele>
        <time>2022-06-12T14:08:46Z</time>
      </trkpt>
      <trkpt lat="48.25598" lon="-3.4425">
        <ele>136.9</ele>
        <time>2022-06-12T14:08:47Z</time>
      </trkpt>
      <trkpt lat="48.25598" lon="-3.4425">
        <ele>136.9</ele>
        <time>2022-06-12T14:08:48Z</time>
      </trkpt>
      <trkpt lat="48.25598" lon="-3.44249">
        <ele>136.9</ele>
        <time>2022-06-12T14:08:49Z</time>
      </trkpt>
      <trkpt lat="48.25598" lon="-3.44248">
        <ele>136.9</ele>
        <time>2022-06-12T14:08:50Z</time>
      </trkpt>
      <trkpt lat="48.25598" lon="-3.44247">
        <ele>136.9</ele>
        <time>2022-06-12T14:08:51Z</time>
      </trkpt>
      <trkpt lat="48.25598" lon="-3.44246">
        <ele>136.9</ele>
        <time>2022-06-12T14:08:52Z</time>
      </trkpt>
      <trkpt lat="48.25598" lon="-3.44245">
        <ele>136.9</ele>
        <time>2022-06-12T14:08:53Z</time>
      </trkpt>
      <trkpt lat="48.25598" lon="-3.44244">
        <ele>136.9</ele>
        <time>2022-06-12T14:08:54Z</time>
      </trkpt>
      <trkpt lat="48.25598" lon="-3.44244">
        <ele>136.9</ele>
        <time>2022-06-12T14:08:55Z</time>
      </trkpt>
      <trkpt lat="48.25598" lon="-3.44244">
        <ele>136.9</ele>
        <time>2022-06-12T14:08:56Z</time>
      </trkpt>
      <trkpt lat="48.25598" lon="-3.44243">
        <ele>136.9</ele>
        <time>2022-06-12T14:08:57Z</time>
      </trkpt>
      <trkpt lat="48.25598" lon="-3.44243">
        <ele>136.9</ele>
        <time>2022-06-12T14:08:58Z</time>
      </trkpt>
      <trkpt lat="48.25598" lon="-3.44243">
        <ele>136.9</ele>
        <time>2022-06-12T14:08:59Z</time>
      </trkpt>
      <trkpt lat="48.25598" lon="-3.44243">
        <ele>136.9</ele>
        <time>2022-06-12T14:09:00Z</time>
      </trkpt>
      <trkpt lat="48.25598" lon="-3.44243">
        <ele>136.9</ele>
        <time>2022-06-12T14:09:02Z</time>
      </trkpt>
      <trkpt lat="48.25598" lon="-3.44243">
        <ele>136.9</ele>
        <time>2022-06-12T14:09:03Z</time>
      </trkpt>
      <trkpt lat="48.25597" lon="-3.44243">
        <ele>136.9</ele>
        <time>2022-06-12T14:09:04Z</time>
      </trkpt>
      <trkpt lat="48.25597" lon="-3.44242">
        <ele>136.9</ele>
        <time>2022-06-12T14:09:05Z</time>
      </trkpt>
      <trkpt lat="48.25597" lon="-3.44242">
        <ele>136.9</ele>
        <time>2022-06-12T14:09:06Z</time>
      </trkpt>
      <trkpt lat="48.25598" lon="-3.44242">
        <ele>136.9</ele>
        <time>2022-06-12T14:09:07Z</time>
      </trkpt>
      <trkpt lat="48.25598" lon="-3.44242">
        <ele>136.9</ele>
        <time>2022-06-12T14:09:08Z</time>
      </trkpt>
      <trkpt lat="48.25597" lon="-3.44242">
        <ele>136.9</ele>
        <time>2022-06-12T14:09:10Z</time>
      </trkpt>
      <trkpt lat="48.25597" lon="-3.44241">
        <ele>136.9</ele>
        <time>2022-06-12T14:09:11Z</time>
      </trkpt>
      <trkpt lat="48.25597" lon="-3.44241">
        <ele>136.9</ele>
        <time>2022-06-12T14:09:12Z</time>
      </trkpt>
      <trkpt lat="48.25597" lon="-3.4424">
        <ele>136.9</ele>
        <time>2022-06-12T14:09:13Z</time>
      </trkpt>
      <trkpt lat="48.25596" lon="-3.44239">
        <ele>136.9</ele>
        <time>2022-06-12T14:09:14Z</time>
      </trkpt>
      <trkpt lat="48.25596" lon="-3.44237">
        <ele>136.9</ele>
        <time>2022-06-12T14:09:15Z</time>
      </trkpt>
      <trkpt lat="48.25596" lon="-3.44236">
        <ele>136.9</ele>
        <time>2022-06-12T14:09:17Z</time>
      </trkpt>
      <trkpt lat="48.25595" lon="-3.44235">
        <ele>136.9</ele>
        <time>2022-06-12T14:09:18Z</time>
      </trkpt>
      <trkpt lat="48.25595" lon="-3.44233">
        <ele>136.9</ele>
        <time>2022-06-12T14:09:19Z</time>
      </trkpt>
      <trkpt lat="48.25594" lon="-3.44232">
        <ele>136.9</ele>
        <time>2022-06-12T14:09:20Z</time>
      </trkpt>
      <trkpt lat="48.25594" lon="-3.44231">
        <ele>136.9</ele>
        <time>2022-06-12T14:09:21Z</time>
      </trkpt>
      <trkpt lat="48.25593" lon="-3.4423">
        <ele>136.9</ele>
        <time>2022-06-12T14:09:22Z</time>
      </trkpt>
      <trkpt lat="48.25592" lon="-3.44229">
        <ele>136.9</ele>
        <time>2022-06-12T14:09:23Z</time>
      </trkpt>
      <trkpt lat="48.25591" lon="-3.44226">
        <ele>136.9</ele>
        <time>2022-06-12T14:09:25Z</time>
      </trkpt>
      <trkpt lat="48.25591" lon="-3.44225">
        <ele>136.9</ele>
        <time>2022-06-12T14:09:26Z</time>
      </trkpt>
      <trkpt lat="48.2559" lon="-3.44223">
        <ele>136.9</ele>
        <time>2022-06-12T14:09:27Z</time>
      </trkpt>
      <trkpt lat="48.25589" lon="-3.44221">
        <ele>136.9</ele>
        <time>2022-06-12T14:09:28Z</time>
      </trkpt>
      <trkpt lat="48.25589" lon="-3.44219">
        <ele>136.9</ele>
        <time>2022-06-12T14:09:29Z</time>
      </trkpt>
      <trkpt lat="48.25588" lon="-3.44217">
        <ele>136.9</ele>
        <time>2022-06-12T14:09:30Z</time>
      </trkpt>
      <trkpt lat="48.25587" lon="-3.44215">
        <ele>136.9</ele>
        <time>2022-06-12T14:09:31Z</time>
      </trkpt>
      <trkpt lat="48.25586" lon="-3.44213">
        <ele>136.9</ele>
        <time>2022-06-12T14:09:32Z</time>
      </trkpt>
      <trkpt lat="48.25585" lon="-3.4421">
        <ele>136.9</ele>
        <time>2022-06-12T14:09:33Z</time>
      </trkpt>
      <trkpt lat="48.25585" lon="-3.44209">
        <ele>136.9</ele>
        <time>2022-06-12T14:09:34Z</time>
      </trkpt>
      <trkpt lat="48.25585" lon="-3.44208">
        <ele>136.9</ele>
        <time>2022-06-12T14:09:35Z</time>
      </trkpt>
      <trkpt lat="48.25583" lon="-3.44204">
        <ele>136.9</ele>
        <time>2022-06-12T14:09:37Z</time>
      </trkpt>
      <trkpt lat="48.25583" lon="-3.44203">
        <ele>136.9</ele>
        <time>2022-06-12T14:09:38Z</time>
      </trkpt>
      <trkpt lat="48.25582" lon="-3.44201">
        <ele>136.9</ele>
        <time>2022-06-12T14:09:39Z</time>
      </trkpt>
      <trkpt lat="48.25581" lon="-3.44199">
        <ele>136.9</ele>
        <time>2022-06-12T14:09:40Z</time>
      </trkpt>
      <trkpt lat="48.2558" lon="-3.44198">
        <ele>136.9</ele>
        <time>2022-06-12T14:09:41Z</time>
      </trkpt>
      <trkpt lat="48.25579" lon="-3.44196">
        <ele>136.9</ele>
        <time>2022-06-12T14:09:42Z</time>
      </trkpt>
      <trkpt lat="48.25578" lon="-3.44193">
        <ele>137</ele>
        <time>2022-06-12T14:09:44Z</time>
      </trkpt>
      <trkpt lat="48.25577" lon="-3.44192">
        <ele>137</ele>
        <time>2022-06-12T14:09:45Z</time>
      </trkpt>
      <trkpt lat="48.25576" lon="-3.4419">
        <ele>137</ele>
        <time>2022-06-12T14:09:46Z</time>
      </trkpt>
      <trkpt lat="48.25575" lon="-3.44188">
        <ele>137</ele>
        <time>2022-06-12T14:09:47Z</time>
      </trkpt>
      <trkpt lat="48.25575" lon="-3.44187">
        <ele>137</ele>
        <time>2022-06-12T14:09:48Z</time>
      </trkpt>
      <trkpt lat="48.25574" lon="-3.44186">
        <ele>137</ele>
        <time>2022-06-12T14:09:49Z</time>
      </trkpt>
      <trkpt lat="48.25573" lon="-3.44184">
        <ele>137</ele>
        <time>2022-06-12T14:09:51Z</time>
      </trkpt>
      <trkpt lat="48.25572" lon="-3.44182">
        <ele>137</ele>
        <time>2022-06-12T14:09:52Z</time>
      </trkpt>
      <trkpt lat="48.25571" lon="-3.4418">
        <ele>137</ele>
        <time>2022-06-12T14:09:53Z</time>
      </trkpt>
      <trkpt lat="48.2557" lon="-3.44179">
        <ele>137</ele>
        <time>2022-06-12T14:09:54Z</time>
      </trkpt>
      <trkpt lat="48.25569" lon="-3.44177">
        <ele>137</ele>
        <time>2022-06-12T14:09:55Z</time>
      </trkpt>
      <trkpt lat="48.25568" lon="-3.44174">
        <ele>137</ele>
        <time>2022-06-12T14:09:56Z</time>
      </trkpt>
      <trkpt lat="48.25567" lon="-3.44173">
        <ele>137</ele>
        <time>2022-06-12T14:09:57Z</time>
      </trkpt>
      <trkpt lat="48.25565" lon="-3.44171">
        <ele>137</ele>
        <time>2022-06-12T14:09:59Z</time>
      </trkpt>
      <trkpt lat="48.25564" lon="-3.44168">
        <ele>137</ele>
        <time>2022-06-12T14:10:01Z</time>
      </trkpt>
      <trkpt lat="48.25563" lon="-3.44166">
        <ele>137</ele>
        <time>2022-06-12T14:10:02Z</time>
      </trkpt>
      <trkpt lat="48.25562" lon="-3.44164">
        <ele>137</ele>
        <time>2022-06-12T14:10:03Z</time>
      </trkpt>
      <trkpt lat="48.25561" lon="-3.44163">
        <ele>137</ele>
        <time>2022-06-12T14:10:04Z</time>
      </trkpt>
      <trkpt lat="48.2556" lon="-3.44162">
        <ele>137</ele>
        <time>2022-06-12T14:10:05Z</time>
      </trkpt>
      <trkpt lat="48.2556" lon="-3.44161">
        <ele>137</ele>
        <time>2022-06-12T14:10:06Z</time>
      </trkpt>
      <trkpt lat="48.25559" lon="-3.4416">
        <ele>137</ele>
        <time>2022-06-12T14:10:07Z</time>
      </trkpt>
      <trkpt lat="48.25558" lon="-3.44158">
        <ele>137</ele>
        <time>2022-06-12T14:10:08Z</time>
      </trkpt>
      <trkpt lat="48.25556" lon="-3.44156">
        <ele>137.1</ele>
        <time>2022-06-12T14:10:10Z</time>
      </trkpt>
      <trkpt lat="48.25555" lon="-3.44155">
        <ele>137.1</ele>
        <time>2022-06-12T14:10:11Z</time>
      </trkpt>
      <trkpt lat="48.25554" lon="-3.44154">
        <ele>137.1</ele>
        <time>2022-06-12T14:10:12Z</time>
      </trkpt>
      <trkpt lat="48.25552" lon="-3.44152">
        <ele>137.1</ele>
        <time>2022-06-12T14:10:13Z</time>
      </trkpt>
      <trkpt lat="48.2555" lon="-3.44151">
        <ele>137.1</ele>
        <time>2022-06-12T14:10:14Z</time>
      </trkpt>
      <trkpt lat="48.2555" lon="-3.4415">
        <ele>137.1</ele>
        <time>2022-06-12T14:10:16Z</time>
      </trkpt>
      <trkpt lat="48.25549" lon="-3.4415">
        <ele>137.1</ele>
        <time>2022-06-12T14:10:17Z</time>
      </trkpt>
      <trkpt lat="48.25547" lon="-3.44148">
        <ele>137.1</ele>
        <time>2022-06-12T14:10:18Z</time>
      </trkpt>
      <trkpt lat="48.25546" lon="-3.44147">
        <ele>137.1</ele>
        <time>2022-06-12T14:10:19Z</time>
      </trkpt>
      <trkpt lat="48.25546" lon="-3.44147">
        <ele>137.1</ele>
        <time>2022-06-12T14:10:20Z</time>
      </trkpt>
      <trkpt lat="48.25545" lon="-3.44146">
        <ele>137.1</ele>
        <time>2022-06-12T14:10:21Z</time>
      </trkpt>
      <trkpt lat="48.25544" lon="-3.44145">
        <ele>137.1</ele>
        <time>2022-06-12T14:10:22Z</time>
      </trkpt>
      <trkpt lat="48.25542" lon="-3.44143">
        <ele>137.1</ele>
        <time>2022-06-12T14:10:23Z</time>
      </trkpt>
      <trkpt lat="48.25541" lon="-3.44142">
        <ele>137.1</ele>
        <time>2022-06-12T14:10:25Z</time>
      </trkpt>
      <trkpt lat="48.2554" lon="-3.44141">
        <ele>137.1</ele>
        <time>2022-06-12T14:10:26Z</time>
      </trkpt>
      <trkpt lat="48.2554" lon="-3.4414">
        <ele>137.1</ele>
        <time>2022-06-12T14:10:27Z</time>
      </trkpt>
      <trkpt lat="48.25538" lon="-3.44138">
        <ele>137.2</ele>
        <time>2022-06-12T14:10:28Z</time>
      </trkpt>
      <trkpt lat="48.25538" lon="-3.44137">
        <ele>137.2</ele>
        <time>2022-06-12T14:10:29Z</time>
      </trkpt>
      <trkpt lat="48.25537" lon="-3.44136">
        <ele>137.2</ele>
        <time>2022-06-12T14:10:30Z</time>
      </trkpt>
      <trkpt lat="48.25536" lon="-3.44134">
        <ele>137.2</ele>
        <time>2022-06-12T14:10:32Z</time>
      </trkpt>
      <trkpt lat="48.25535" lon="-3.44132">
        <ele>137.2</ele>
        <time>2022-06-12T14:10:33Z</time>
      </trkpt>
      <trkpt lat="48.25535" lon="-3.44131">
        <ele>137.2</ele>
        <time>2022-06-12T14:10:34Z</time>
      </trkpt>
      <trkpt lat="48.25534" lon="-3.4413">
        <ele>137.2</ele>
        <time>2022-06-12T14:10:35Z</time>
      </trkpt>
      <trkpt lat="48.25534" lon="-3.44129">
        <ele>137.2</ele>
        <time>2022-06-12T14:10:36Z</time>
      </trkpt>
      <trkpt lat="48.25533" lon="-3.44127">
        <ele>137.2</ele>
        <time>2022-06-12T14:10:37Z</time>
      </trkpt>
      <trkpt lat="48.25532" lon="-3.44126">
        <ele>137.2</ele>
        <time>2022-06-12T14:10:39Z</time>
      </trkpt>
      <trkpt lat="48.25531" lon="-3.44123">
        <ele>137.2</ele>
        <time>2022-06-12T14:10:40Z</time>
      </trkpt>
      <trkpt lat="48.2553" lon="-3.44122">
        <ele>137.2</ele>
        <time>2022-06-12T14:10:41Z</time>
      </trkpt>
      <trkpt lat="48.2553" lon="-3.44121">
        <ele>137.2</ele>
        <time>2022-06-12T14:10:42Z</time>
      </trkpt>
      <trkpt lat="48.25529" lon="-3.44119">
        <ele>137.2</ele>
        <time>2022-06-12T14:10:43Z</time>
      </trkpt>
      <trkpt lat="48.25528" lon="-3.44117">
        <ele>137.2</ele>
        <time>2022-06-12T14:10:44Z</time>
      </trkpt>
      <trkpt lat="48.25527" lon="-3.44115">
        <ele>137.2</ele>
        <time>2022-06-12T14:10:45Z</time>
      </trkpt>
      <trkpt lat="48.25526" lon="-3.44111">
        <ele>137.2</ele>
        <time>2022-06-12T14:10:47Z</time>
      </trkpt>
      <trkpt lat="48.25526" lon="-3.4411">
        <ele>137.2</ele>
        <time>2022-06-12T14:10:48Z</time>
      </trkpt>
      <trkpt lat="48.25526" lon="-3.44109">
        <ele>137.2</ele>
        <time>2022-06-12T14:10:49Z</time>
      </trkpt>
      <trkpt lat="48.25525" lon="-3.44108">
        <ele>137.2</ele>
        <time>2022-06-12T14:10:50Z</time>
      </trkpt>
      <trkpt lat="48.25525" lon="-3.44107">
        <ele>137.2</ele>
        <time>2022-06-12T14:10:51Z</time>
      </trkpt>
      <trkpt lat="48.25524" lon="-3.44105">
        <ele>137.2</ele>
        <time>2022-06-12T14:10:52Z</time>
      </trkpt>
      <trkpt lat="48.25523" lon="-3.44103">
        <ele>137.2</ele>
        <time>2022-06-12T14:10:53Z</time>
      </trkpt>
      <trkpt lat="48.25521" lon="-3.44101">
        <ele>137.2</ele>
        <time>2022-06-12T14:10:55Z</time>
      </trkpt>
      <trkpt lat="48.25521" lon="-3.441">
        <ele>137.2</ele>
        <time>2022-06-12T14:10:56Z</time>
      </trkpt>
      <trkpt lat="48.2552" lon="-3.44099">
        <ele>137.2</ele>
        <time>2022-06-12T14:10:57Z</time>
      </trkpt>
      <trkpt lat="48.25519" lon="-3.44097">
        <ele>137.2</ele>
        <time>2022-06-12T14:10:58Z</time>
      </trkpt>
      <trkpt lat="48.25518" lon="-3.44096">
        <ele>137.3</ele>
        <time>2022-06-12T14:10:59Z</time>
      </trkpt>
      <trkpt lat="48.25517" lon="-3.44095">
        <ele>137.3</ele>
        <time>2022-06-12T14:11:00Z</time>
      </trkpt>
      <trkpt lat="48.25516" lon="-3.44094">
        <ele>137.3</ele>
        <time>2022-06-12T14:11:01Z</time>
      </trkpt>
      <trkpt lat="48.25516" lon="-3.44093">
        <ele>137.3</ele>
        <time>2022-06-12T14:11:02Z</time>
      </trkpt>
      <trkpt lat="48.25515" lon="-3.44092">
        <ele>137.3</ele>
        <time>2022-06-12T14:11:03Z</time>
      </trkpt>
      <trkpt lat="48.25514" lon="-3.44091">
        <ele>137.3</ele>
        <time>2022-06-12T14:11:04Z</time>
      </trkpt>
      <trkpt lat="48.25513" lon="-3.44089">
        <ele>137.4</ele>
        <time>2022-06-12T14:11:06Z</time>
      </trkpt>
      <trkpt lat="48.25512" lon="-3.44087">
        <ele>137.4</ele>
        <time>2022-06-12T14:11:07Z</time>
      </trkpt>
      <trkpt lat="48.25511" lon="-3.44085">
        <ele>137.4</ele>
        <time>2022-06-12T14:11:08Z</time>
      </trkpt>
      <trkpt lat="48.2551" lon="-3.44082">
        <ele>137.5</ele>
        <time>2022-06-12T14:11:10Z</time>
      </trkpt>
      <trkpt lat="48.2551" lon="-3.44081">
        <ele>137.5</ele>
        <time>2022-06-12T14:11:11Z</time>
      </trkpt>
      <trkpt lat="48.2551" lon="-3.4408">
        <ele>137.5</ele>
        <time>2022-06-12T14:11:12Z</time>
      </trkpt>
      <trkpt lat="48.25509" lon="-3.44077">
        <ele>137.5</ele>
        <time>2022-06-12T14:11:13Z</time>
      </trkpt>
      <trkpt lat="48.25508" lon="-3.44076">
        <ele>137.6</ele>
        <time>2022-06-12T14:11:14Z</time>
      </trkpt>
      <trkpt lat="48.25508" lon="-3.44075">
        <ele>137.6</ele>
        <time>2022-06-12T14:11:15Z</time>
      </trkpt>
      <trkpt lat="48.25508" lon="-3.44071">
        <ele>137.6</ele>
        <time>2022-06-12T14:11:16Z</time>
      </trkpt>
      <trkpt lat="48.25509" lon="-3.4407">
        <ele>137.7</ele>
        <time>2022-06-12T14:11:17Z</time>
      </trkpt>
      <trkpt lat="48.25509" lon="-3.44069">
        <ele>137.7</ele>
        <time>2022-06-12T14:11:18Z</time>
      </trkpt>
      <trkpt lat="48.2551" lon="-3.44066">
        <ele>137.7</ele>
        <time>2022-06-12T14:11:20Z</time>
      </trkpt>
      <trkpt lat="48.25509" lon="-3.44064">
        <ele>137.8</ele>
        <time>2022-06-12T14:11:21Z</time>
      </trkpt>
      <trkpt lat="48.25509" lon="-3.44061">
        <ele>137.8</ele>
        <time>2022-06-12T14:11:22Z</time>
      </trkpt>
      <trkpt lat="48.25508" lon="-3.4406">
        <ele>137.9</ele>
        <time>2022-06-12T14:11:23Z</time>
      </trkpt>
      <trkpt lat="48.25508" lon="-3.44059">
        <ele>137.9</ele>
        <time>2022-06-12T14:11:24Z</time>
      </trkpt>
      <trkpt lat="48.25508" lon="-3.44058">
        <ele>137.9</ele>
        <time>2022-06-12T14:11:25Z</time>
      </trkpt>
      <trkpt lat="48.25507" lon="-3.44057">
        <ele>137.9</ele>
        <time>2022-06-12T14:11:26Z</time>
      </trkpt>
      <trkpt lat="48.25507" lon="-3.44055">
        <ele>138</ele>
        <time>2022-06-12T14:11:27Z</time>
      </trkpt>
      <trkpt lat="48.25506" lon="-3.44051">
        <ele>138.1</ele>
        <time>2022-06-12T14:11:29Z</time>
      </trkpt>
      <trkpt lat="48.25506" lon="-3.4405">
        <ele>138.1</ele>
        <time>2022-06-12T14:11:30Z</time>
      </trkpt>
      <trkpt lat="48.25505" lon="-3.44048">
        <ele>138.1</ele>
        <time>2022-06-12T14:11:31Z</time>
      </trkpt>
      <trkpt lat="48.25505" lon="-3.44046">
        <ele>138.2</ele>
        <time>2022-06-12T14:11:32Z</time>
      </trkpt>
      <trkpt lat="48.25504" lon="-3.44044">
        <ele>138.3</ele>
        <time>2022-06-12T14:11:34Z</time>
      </trkpt>
      <trkpt lat="48.25504" lon="-3.44042">
        <ele>138.3</ele>
        <time>2022-06-12T14:11:35Z</time>
      </trkpt>
      <trkpt lat="48.25503" lon="-3.44041">
        <ele>138.3</ele>
        <time>2022-06-12T14:11:36Z</time>
      </trkpt>
      <trkpt lat="48.25503" lon="-3.44039">
        <ele>138.4</ele>
        <time>2022-06-12T14:11:37Z</time>
      </trkpt>
      <trkpt lat="48.25502" lon="-3.44038">
        <ele>138.4</ele>
        <time>2022-06-12T14:11:38Z</time>
      </trkpt>
      <trkpt lat="48.25501" lon="-3.44036">
        <ele>138.5</ele>
        <time>2022-06-12T14:11:39Z</time>
      </trkpt>
      <trkpt lat="48.25501" lon="-3.44034">
        <ele>138.5</ele>
        <time>2022-06-12T14:11:41Z</time>
      </trkpt>
      <trkpt lat="48.255" lon="-3.44033">
        <ele>138.5</ele>
        <time>2022-06-12T14:11:42Z</time>
      </trkpt>
      <trkpt lat="48.255" lon="-3.44031">
        <ele>138.6</ele>
        <time>2022-06-12T14:11:43Z</time>
      </trkpt>
      <trkpt lat="48.25499" lon="-3.44029">
        <ele>138.6</ele>
        <time>2022-06-12T14:11:44Z</time>
      </trkpt>
      <trkpt lat="48.25498" lon="-3.44028">
        <ele>138.7</ele>
        <time>2022-06-12T14:11:45Z</time>
      </trkpt>
      <trkpt lat="48.25498" lon="-3.44027">
        <ele>138.7</ele>
        <time>2022-06-12T14:11:46Z</time>
      </trkpt>
      <trkpt lat="48.25498" lon="-3.44025">
        <ele>138.7</ele>
        <time>2022-06-12T14:11:47Z</time>
      </trkpt>
      <trkpt lat="48.25497" lon="-3.44023">
        <ele>138.8</ele>
        <time>2022-06-12T14:11:49Z</time>
      </trkpt>
      <trkpt lat="48.25497" lon="-3.44022">
        <ele>138.8</ele>
        <time>2022-06-12T14:11:50Z</time>
      </trkpt>
      <trkpt lat="48.25496" lon="-3.4402">
        <ele>138.9</ele>
        <time>2022-06-12T14:11:51Z</time>
      </trkpt>
      <trkpt lat="48.25496" lon="-3.44019">
        <ele>138.9</ele>
        <time>2022-06-12T14:11:52Z</time>
      </trkpt>
      <trkpt lat="48.25496" lon="-3.44017">
        <ele>138.9</ele>
        <time>2022-06-12T14:11:53Z</time>
      </trkpt>
      <trkpt lat="48.25495" lon="-3.44015">
        <ele>139</ele>
        <time>2022-06-12T14:11:54Z</time>
      </trkpt>
      <trkpt lat="48.25495" lon="-3.44014">
        <ele>139</ele>
        <time>2022-06-12T14:11:55Z</time>
      </trkpt>
      <trkpt lat="48.25494" lon="-3.44011">
        <ele>139.1</ele>
        <time>2022-06-12T14:11:57Z</time>
      </trkpt>
      <trkpt lat="48.25494" lon="-3.44009">
        <ele>139.1</ele>
        <time>2022-06-12T14:11:58Z</time>
      </trkpt>
      <trkpt lat="48.25493" lon="-3.44008">
        <ele>139.1</ele>
        <time>2022-06-12T14:11:59Z</time>
      </trkpt>
      <trkpt lat="48.25493" lon="-3.44007">
        <ele>139.2</ele>
        <time>2022-06-12T14:12:01Z</time>
      </trkpt>
      <trkpt lat="48.25492" lon="-3.44005">
        <ele>139.2</ele>
        <time>2022-06-12T14:12:02Z</time>
      </trkpt>
      <trkpt lat="48.25492" lon="-3.44004">
        <ele>139.2</ele>
        <time>2022-06-12T14:12:03Z</time>
      </trkpt>
      <trkpt lat="48.25491" lon="-3.44002">
        <ele>139.3</ele>
        <time>2022-06-12T14:12:04Z</time>
      </trkpt>
      <trkpt lat="48.2549" lon="-3.44001">
        <ele>139.3</ele>
        <time>2022-06-12T14:12:05Z</time>
      </trkpt>
      <trkpt lat="48.2549" lon="-3.44">
        <ele>139.3</ele>
        <time>2022-06-12T14:12:06Z</time>
      </trkpt>
      <trkpt lat="48.25489" lon="-3.43999">
        <ele>139.3</ele>
        <time>2022-06-12T14:12:08Z</time>
      </trkpt>
      <trkpt lat="48.25488" lon="-3.43999">
        <ele>139.3</ele>
        <time>2022-06-12T14:12:09Z</time>
      </trkpt>
      <trkpt lat="48.25488" lon="-3.44002">
        <ele>139.4</ele>
        <time>2022-06-12T14:12:10Z</time>
      </trkpt>
      <trkpt lat="48.25488" lon="-3.44004">
        <ele>139.4</ele>
        <time>2022-06-12T14:12:11Z</time>
      </trkpt>
      <trkpt lat="48.25488" lon="-3.44005">
        <ele>139.4</ele>
        <time>2022-06-12T14:12:12Z</time>
      </trkpt>
      <trkpt lat="48.25488" lon="-3.44007">
        <ele>139.4</ele>
        <time>2022-06-12T14:12:13Z</time>
      </trkpt>
      <trkpt lat="48.25488" lon="-3.44008">
        <ele>139.4</ele>
        <time>2022-06-12T14:12:14Z</time>
      </trkpt>
      <trkpt lat="48.25488" lon="-3.44009">
        <ele>139.5</ele>
        <time>2022-06-12T14:12:15Z</time>
      </trkpt>
      <trkpt lat="48.25488" lon="-3.44009">
        <ele>139.5</ele>
        <time>2022-06-12T14:12:16Z</time>
      </trkpt>
      <trkpt lat="48.25488" lon="-3.4401">
        <ele>139.5</ele>
        <time>2022-06-12T14:12:17Z</time>
      </trkpt>
      <trkpt lat="48.25488" lon="-3.4401">
        <ele>139.5</ele>
        <time>2022-06-12T14:12:18Z</time>
      </trkpt>
      <trkpt lat="48.25488" lon="-3.4401">
        <ele>139.5</ele>
        <time>2022-06-12T14:12:20Z</time>
      </trkpt>
      <trkpt lat="48.25488" lon="-3.4401">
        <ele>139.5</ele>
        <time>2022-06-12T14:12:21Z</time>
      </trkpt>
      <trkpt lat="48.25488" lon="-3.4401">
        <ele>139.5</ele>
        <time>2022-06-12T14:12:22Z</time>
      </trkpt>
      <trkpt lat="48.25488" lon="-3.4401">
        <ele>139.5</ele>
        <time>2022-06-12T14:12:23Z</time>
      </trkpt>
      <trkpt lat="48.25489" lon="-3.4401">
        <ele>139.5</ele>
        <time>2022-06-12T14:12:25Z</time>
      </trkpt>
      <trkpt lat="48.25489" lon="-3.4401">
        <ele>139.5</ele>
        <time>2022-06-12T14:12:26Z</time>
      </trkpt>
      <trkpt lat="48.25489" lon="-3.4401">
        <ele>139.5</ele>
        <time>2022-06-12T14:12:27Z</time>
      </trkpt>
      <trkpt lat="48.25489" lon="-3.4401">
        <ele>139.5</ele>
        <time>2022-06-12T14:12:28Z</time>
      </trkpt>
      <trkpt lat="48.25489" lon="-3.44009">
        <ele>139.5</ele>
        <time>2022-06-12T14:12:29Z</time>
      </trkpt>
      <trkpt lat="48.25489" lon="-3.44008">
        <ele>139.5</ele>
        <time>2022-06-12T14:12:30Z</time>
      </trkpt>
      <trkpt lat="48.25489" lon="-3.44007">
        <ele>139.5</ele>
        <time>2022-06-12T14:12:32Z</time>
      </trkpt>
      <trkpt lat="48.2549" lon="-3.44007">
        <ele>139.5</ele>
        <time>2022-06-12T14:12:33Z</time>
      </trkpt>
      <trkpt lat="48.2549" lon="-3.44007">
        <ele>139.5</ele>
        <time>2022-06-12T14:12:35Z</time>
      </trkpt>
      <trkpt lat="48.2549" lon="-3.44007">
        <ele>139.5</ele>
        <time>2022-06-12T14:12:36Z</time>
      </trkpt>
      <trkpt lat="48.2549" lon="-3.44007">
        <ele>139.5</ele>
        <time>2022-06-12T14:12:37Z</time>
      </trkpt>
      <trkpt lat="48.2549" lon="-3.44007">
        <ele>139.5</ele>
        <time>2022-06-12T14:12:38Z</time>
      </trkpt>
      <trkpt lat="48.2549" lon="-3.44007">
        <ele>139.5</ele>
        <time>2022-06-12T14:12:39Z</time>
      </trkpt>
      <trkpt lat="48.2549" lon="-3.44007">
        <ele>139.5</ele>
        <time>2022-06-12T14:12:40Z</time>
      </trkpt>
      <trkpt lat="48.2549" lon="-3.44007">
        <ele>139.5</ele>
        <time>2022-06-12T14:12:41Z</time>
      </trkpt>
      <trkpt lat="48.2549" lon="-3.44007">
        <ele>139.5</ele>
        <time>2022-06-12T14:12:42Z</time>
      </trkpt>
      <trkpt lat="48.2549" lon="-3.44007">
        <ele>139.5</ele>
        <time>2022-06-12T14:12:43Z</time>
      </trkpt>
      <trkpt lat="48.2549" lon="-3.44007">
        <ele>139.5</ele>
        <time>2022-06-12T14:12:44Z</time>
      </trkpt>
      <trkpt lat="48.2549" lon="-3.44007">
        <ele>139.5</ele>
        <time>2022-06-12T14:12:45Z</time>
      </trkpt>
      <trkpt lat="48.2549" lon="-3.44007">
        <ele>139.5</ele>
        <time>2022-06-12T14:12:46Z</time>
      </trkpt>
      <trkpt lat="48.2549" lon="-3.44007">
        <ele>139.5</ele>
        <time>2022-06-12T14:12:47Z</time>
      </trkpt>
      <trkpt lat="48.2549" lon="-3.44007">
        <ele>139.5</ele>
        <time>2022-06-12T14:12:48Z</time>
      </trkpt>
      <trkpt lat="48.2549" lon="-3.44007">
        <ele>139.5</ele>
        <time>2022-06-12T14:12:49Z</time>
      </trkpt>
      <trkpt lat="48.2549" lon="-3.44007">
        <ele>139.5</ele>
        <time>2022-06-12T14:12:50Z</time>
      </trkpt>
      <trkpt lat="48.2549" lon="-3.44007">
        <ele>139.5</ele>
        <time>2022-06-12T14:12:51Z</time>
      </trkpt>
      <trkpt lat="48.2549" lon="-3.44007">
        <ele>139.5</ele>
        <time>2022-06-12T14:12:52Z</time>
      </trkpt>
      <trkpt lat="48.2549" lon="-3.44007">
        <ele>139.5</ele>
        <time>2022-06-12T14:12:53Z</time>
      </trkpt>
      <trkpt lat="48.2549" lon="-3.44007">
        <ele>139.5</ele>
        <time>2022-06-12T14:12:54Z</time>
      </trkpt>
      <trkpt lat="48.2549" lon="-3.44006">
        <ele>139.5</ele>
        <time>2022-06-12T14:12:55Z</time>
      </trkpt>
      <trkpt lat="48.2549" lon="-3.44005">
        <ele>139.5</ele>
        <time>2022-06-12T14:12:56Z</time>
      </trkpt>
      <trkpt lat="48.25489" lon="-3.44005">
        <ele>139.5</ele>
        <time>2022-06-12T14:12:57Z</time>
      </trkpt>
      <trkpt lat="48.25489" lon="-3.44005">
        <ele>139.5</ele>
        <time>2022-06-12T14:12:58Z</time>
      </trkpt>
      <trkpt lat="48.25489" lon="-3.44005">
        <ele>139.5</ele>
        <time>2022-06-12T14:12:59Z</time>
      </trkpt>
      <trkpt lat="48.25489" lon="-3.44005">
        <ele>139.5</ele>
        <time>2022-06-12T14:13:00Z</time>
      </trkpt>
      <trkpt lat="48.25489" lon="-3.44005">
        <ele>139.5</ele>
        <time>2022-06-12T14:13:01Z</time>
      </trkpt>
      <trkpt lat="48.25489" lon="-3.44005">
        <ele>139.5</ele>
        <time>2022-06-12T14:13:02Z</time>
      </trkpt>
      <trkpt lat="48.25489" lon="-3.44006">
        <ele>139.5</ele>
        <time>2022-06-12T14:13:03Z</time>
      </trkpt>
      <trkpt lat="48.2549" lon="-3.44006">
        <ele>139.5</ele>
        <time>2022-06-12T14:13:04Z</time>
      </trkpt>
      <trkpt lat="48.2549" lon="-3.44006">
        <ele>139.5</ele>
        <time>2022-06-12T14:13:05Z</time>
      </trkpt>
      <trkpt lat="48.2549" lon="-3.44007">
        <ele>139.5</ele>
        <time>2022-06-12T14:13:06Z</time>
      </trkpt>
      <trkpt lat="48.2549" lon="-3.44007">
        <ele>139.5</ele>
        <time>2022-06-12T14:13:07Z</time>
      </trkpt>
      <trkpt lat="48.2549" lon="-3.44007">
        <ele>139.5</ele>
        <time>2022-06-12T14:13:08Z</time>
      </trkpt>
      <trkpt lat="48.2549" lon="-3.44006">
        <ele>139.5</ele>
        <time>2022-06-12T14:13:09Z</time>
      </trkpt>
      <trkpt lat="48.2549" lon="-3.44006">
        <ele>139.5</ele>
        <time>2022-06-12T14:13:10Z</time>
      </trkpt>
      <trkpt lat="48.2549" lon="-3.44006">
        <ele>139.5</ele>
        <time>2022-06-12T14:13:11Z</time>
      </trkpt>
      <trkpt lat="48.2549" lon="-3.44006">
        <ele>139.5</ele>
        <time>2022-06-12T14:13:12Z</time>
      </trkpt>
      <trkpt lat="48.2549" lon="-3.44006">
        <ele>139.5</ele>
        <time>2022-06-12T14:13:14Z</time>
      </trkpt>
      <trkpt lat="48.2549" lon="-3.44006">
        <ele>139.5</ele>
        <time>2022-06-12T14:13:15Z</time>
      </trkpt>
      <trkpt lat="48.2549" lon="-3.44006">
        <ele>139.5</ele>
        <time>2022-06-12T14:13:16Z</time>
      </trkpt>
      <trkpt lat="48.2549" lon="-3.44006">
        <ele>139.5</ele>
        <time>2022-06-12T14:13:17Z</time>
      </trkpt>
      <trkpt lat="48.2549" lon="-3.44006">
        <ele>139.5</ele>
        <time>2022-06-12T14:13:18Z</time>
      </trkpt>
      <trkpt lat="48.2549" lon="-3.44006">
        <ele>139.5</ele>
        <time>2022-06-12T14:13:19Z</time>
      </trkpt>
      <trkpt lat="48.2549" lon="-3.44006">
        <ele>139.5</ele>
        <time>2022-06-12T14:13:20Z</time>
      </trkpt>
      <trkpt lat="48.2549" lon="-3.44006">
        <ele>139.5</ele>
        <time>2022-06-12T14:13:21Z</time>
      </trkpt>
      <trkpt lat="48.25489" lon="-3.44005">
        <ele>139.5</ele>
        <time>2022-06-12T14:13:22Z</time>
      </trkpt>
      <trkpt lat="48.25489" lon="-3.44005">
        <ele>139.5</ele>
        <time>2022-06-12T14:13:23Z</time>
      </trkpt>
      <trkpt lat="48.2549" lon="-3.44006">
        <ele>139.5</ele>
        <time>2022-06-12T14:13:24Z</time>
      </trkpt>
      <trkpt lat="48.2549" lon="-3.44006">
        <ele>139.5</ele>
        <time>2022-06-12T14:13:25Z</time>
      </trkpt>
      <trkpt lat="48.2549" lon="-3.44006">
        <ele>139.5</ele>
        <time>2022-06-12T14:13:26Z</time>
      </trkpt>
      <trkpt lat="48.2549" lon="-3.44006">
        <ele>139.5</ele>
        <time>2022-06-12T14:13:27Z</time>
      </trkpt>
      <trkpt lat="48.2549" lon="-3.44006">
        <ele>139.5</ele>
        <time>2022-06-12T14:13:28Z</time>
      </trkpt>
      <trkpt lat="48.2549" lon="-3.44006">
        <ele>139.5</ele>
        <time>2022-06-12T14:13:29Z</time>
      </trkpt>
      <trkpt lat="48.2549" lon="-3.44006">
        <ele>139.5</ele>
        <time>2022-06-12T14:13:30Z</time>
      </trkpt>
      <trkpt lat="48.2549" lon="-3.44006">
        <ele>139.5</ele>
        <time>2022-06-12T14:13:31Z</time>
      </trkpt>
      <trkpt lat="48.2549" lon="-3.44006">
        <ele>139.5</ele>
        <time>2022-06-12T14:13:32Z</time>
      </trkpt>
      <trkpt lat="48.2549" lon="-3.44006">
        <ele>139.5</ele>
        <time>2022-06-12T14:13:33Z</time>
      </trkpt>
      <trkpt lat="48.2549" lon="-3.44006">
        <ele>139.5</ele>
        <time>2022-06-12T14:13:34Z</time>
      </trkpt>
      <trkpt lat="48.2549" lon="-3.44006">
        <ele>139.5</ele>
        <time>2022-06-12T14:13:35Z</time>
      </trkpt>
      <trkpt lat="48.2549" lon="-3.44006">
        <ele>139.5</ele>
        <time>2022-06-12T14:13:36Z</time>
      </trkpt>
      <trkpt lat="48.2549" lon="-3.44006">
        <ele>139.5</ele>
        <time>2022-06-12T14:13:37Z</time>
      </trkpt>
      <trkpt lat="48.2549" lon="-3.44006">
        <ele>139.5</ele>
        <time>2022-06-12T14:13:38Z</time>
      </trkpt>
      <trkpt lat="48.2549" lon="-3.44006">
        <ele>139.5</ele>
        <time>2022-06-12T14:13:39Z</time>
      </trkpt>
      <trkpt lat="48.2549" lon="-3.44006">
        <ele>139.5</ele>
        <time>2022-06-12T14:13:40Z</time>
      </trkpt>
      <trkpt lat="48.2549" lon="-3.44006">
        <ele>139.5</ele>
        <time>2022-06-12T14:13:41Z</time>
      </trkpt>
      <trkpt lat="48.2549" lon="-3.44006">
        <ele>139.5</ele>
        <time>2022-06-12T14:13:42Z</time>
      </trkpt>
      <trkpt lat="48.2549" lon="-3.44006">
        <ele>139.5</ele>
        <time>2022-06-12T14:13:43Z</time>
      </trkpt>
      <trkpt lat="48.2549" lon="-3.44006">
        <ele>139.5</ele>
        <time>2022-06-12T14:13:44Z</time>
      </trkpt>
      <trkpt lat="48.2549" lon="-3.44006">
        <ele>139.5</ele>
        <time>2022-06-12T14:13:45Z</time>
      </trkpt>
      <trkpt lat="48.2549" lon="-3.44006">
        <ele>139.5</ele>
        <time>2022-06-12T14:13:46Z</time>
      </trkpt>
      <trkpt lat="48.2549" lon="-3.44007">
        <ele>139.5</ele>
        <time>2022-06-12T14:13:47Z</time>
      </trkpt>
      <trkpt lat="48.2549" lon="-3.44006">
        <ele>139.5</ele>
        <time>2022-06-12T14:13:48Z</time>
      </trkpt>
      <trkpt lat="48.2549" lon="-3.44006">
        <ele>139.5</ele>
        <time>2022-06-12T14:13:49Z</time>
      </trkpt>
      <trkpt lat="48.2549" lon="-3.44006">
        <ele>139.5</ele>
        <time>2022-06-12T14:13:50Z</time>
      </trkpt>
      <trkpt lat="48.2549" lon="-3.44006">
        <ele>139.5</ele>
        <time>2022-06-12T14:13:51Z</time>
      </trkpt>
      <trkpt lat="48.2549" lon="-3.44006">
        <ele>139.5</ele>
        <time>2022-06-12T14:13:52Z</time>
      </trkpt>
      <trkpt lat="48.2549" lon="-3.44007">
        <ele>139.5</ele>
        <time>2022-06-12T14:13:53Z</time>
      </trkpt>
      <trkpt lat="48.2549" lon="-3.44007">
        <ele>139.5</ele>
        <time>2022-06-12T14:13:54Z</time>
      </trkpt>
      <trkpt lat="48.2549" lon="-3.44007">
        <ele>139.5</ele>
        <time>2022-06-12T14:13:55Z</time>
      </trkpt>
      <trkpt lat="48.2549" lon="-3.44006">
        <ele>139.5</ele>
        <time>2022-06-12T14:13:56Z</time>
      </trkpt>
      <trkpt lat="48.2549" lon="-3.44005">
        <ele>139.5</ele>
        <time>2022-06-12T14:13:57Z</time>
      </trkpt>
      <trkpt lat="48.25489" lon="-3.44003">
        <ele>139.5</ele>
        <time>2022-06-12T14:13:58Z</time>
      </trkpt>
      <trkpt lat="48.25489" lon="-3.44002">
        <ele>139.5</ele>
        <time>2022-06-12T14:13:59Z</time>
      </trkpt>
      <trkpt lat="48.25488" lon="-3.44001">
        <ele>139.5</ele>
        <time>2022-06-12T14:14:00Z</time>
      </trkpt>
      <trkpt lat="48.25487" lon="-3.43998">
        <ele>139.5</ele>
        <time>2022-06-12T14:14:01Z</time>
      </trkpt>
      <trkpt lat="48.25486" lon="-3.43997">
        <ele>139.5</ele>
        <time>2022-06-12T14:14:02Z</time>
      </trkpt>
      <trkpt lat="48.25486" lon="-3.43995">
        <ele>139.5</ele>
        <time>2022-06-12T14:14:03Z</time>
      </trkpt>
      <trkpt lat="48.25484" lon="-3.43993">
        <ele>139.5</ele>
        <time>2022-06-12T14:14:04Z</time>
      </trkpt>
      <trkpt lat="48.25484" lon="-3.43992">
        <ele>139.5</ele>
        <time>2022-06-12T14:14:05Z</time>
      </trkpt>
      <trkpt lat="48.25483" lon="-3.43991">
        <ele>139.5</ele>
        <time>2022-06-12T14:14:06Z</time>
      </trkpt>
      <trkpt lat="48.25482" lon="-3.43989">
        <ele>139.5</ele>
        <time>2022-06-12T14:14:07Z</time>
      </trkpt>
      <trkpt lat="48.25481" lon="-3.43987">
        <ele>139.5</ele>
        <time>2022-06-12T14:14:09Z</time>
      </trkpt>
      <trkpt lat="48.2548" lon="-3.43986">
        <ele>139.5</ele>
        <time>2022-06-12T14:14:10Z</time>
      </trkpt>
      <trkpt lat="48.25479" lon="-3.43984">
        <ele>139.5</ele>
        <time>2022-06-12T14:14:11Z</time>
      </trkpt>
      <trkpt lat="48.25478" lon="-3.43983">
        <ele>139.5</ele>
        <time>2022-06-12T14:14:12Z</time>
      </trkpt>
      <trkpt lat="48.25478" lon="-3.43983">
        <ele>139.5</ele>
        <time>2022-06-12T14:14:13Z</time>
      </trkpt>
      <trkpt lat="48.25477" lon="-3.43982">
        <ele>139.5</ele>
        <time>2022-06-12T14:14:14Z</time>
      </trkpt>
      <trkpt lat="48.25476" lon="-3.4398">
        <ele>139.5</ele>
        <time>2022-06-12T14:14:15Z</time>
      </trkpt>
      <trkpt lat="48.25475" lon="-3.43979">
        <ele>139.4</ele>
        <time>2022-06-12T14:14:16Z</time>
      </trkpt>
      <trkpt lat="48.25474" lon="-3.43978">
        <ele>139.4</ele>
        <time>2022-06-12T14:14:18Z</time>
      </trkpt>
      <trkpt lat="48.25473" lon="-3.43977">
        <ele>139.4</ele>
        <time>2022-06-12T14:14:19Z</time>
      </trkpt>
      <trkpt lat="48.25472" lon="-3.43976">
        <ele>139.4</ele>
        <time>2022-06-12T14:14:20Z</time>
      </trkpt>
      <trkpt lat="48.25472" lon="-3.43975">
        <ele>139.4</ele>
        <time>2022-06-12T14:14:21Z</time>
      </trkpt>
      <trkpt lat="48.25471" lon="-3.43974">
        <ele>139.4</ele>
        <time>2022-06-12T14:14:22Z</time>
      </trkpt>
      <trkpt lat="48.2547" lon="-3.43973">
        <ele>139.4</ele>
        <time>2022-06-12T14:14:23Z</time>
      </trkpt>
      <trkpt lat="48.25468" lon="-3.43971">
        <ele>139.4</ele>
        <time>2022-06-12T14:14:25Z</time>
      </trkpt>
      <trkpt lat="48.25467" lon="-3.4397">
        <ele>139.4</ele>
        <time>2022-06-12T14:14:26Z</time>
      </trkpt>
      <trkpt lat="48.25466" lon="-3.43969">
        <ele>139.4</ele>
        <time>2022-06-12T14:14:27Z</time>
      </trkpt>
      <trkpt lat="48.25464" lon="-3.43967">
        <ele>139.4</ele>
        <time>2022-06-12T14:14:28Z</time>
      </trkpt>
      <trkpt lat="48.25464" lon="-3.43966">
        <ele>139.4</ele>
        <time>2022-06-12T14:14:29Z</time>
      </trkpt>
      <trkpt lat="48.25463" lon="-3.43965">
        <ele>139.4</ele>
        <time>2022-06-12T14:14:30Z</time>
      </trkpt>
      <trkpt lat="48.25462" lon="-3.43963">
        <ele>139.4</ele>
        <time>2022-06-12T14:14:31Z</time>
      </trkpt>
      <trkpt lat="48.25461" lon="-3.43961">
        <ele>139.4</ele>
        <time>2022-06-12T14:14:32Z</time>
      </trkpt>
      <trkpt lat="48.2546" lon="-3.4396">
        <ele>139.4</ele>
        <time>2022-06-12T14:14:34Z</time>
      </trkpt>
      <trkpt lat="48.25459" lon="-3.43958">
        <ele>139.4</ele>
        <time>2022-06-12T14:14:35Z</time>
      </trkpt>
      <trkpt lat="48.25457" lon="-3.43955">
        <ele>139.4</ele>
        <time>2022-06-12T14:14:36Z</time>
      </trkpt>
      <trkpt lat="48.25457" lon="-3.43954">
        <ele>139.4</ele>
        <time>2022-06-12T14:14:37Z</time>
      </trkpt>
      <trkpt lat="48.25456" lon="-3.43953">
        <ele>139.4</ele>
        <time>2022-06-12T14:14:38Z</time>
      </trkpt>
      <trkpt lat="48.25456" lon="-3.43953">
        <ele>139.4</ele>
        <time>2022-06-12T14:14:39Z</time>
      </trkpt>
      <trkpt lat="48.25455" lon="-3.43952">
        <ele>139.4</ele>
        <time>2022-06-12T14:14:40Z</time>
      </trkpt>
      <trkpt lat="48.25455" lon="-3.43951">
        <ele>139.4</ele>
        <time>2022-06-12T14:14:41Z</time>
      </trkpt>
      <trkpt lat="48.25454" lon="-3.43949">
        <ele>139.4</ele>
        <time>2022-06-12T14:14:42Z</time>
      </trkpt>
      <trkpt lat="48.25453" lon="-3.43946">
        <ele>139.4</ele>
        <time>2022-06-12T14:14:43Z</time>
      </trkpt>
      <trkpt lat="48.25452" lon="-3.43945">
        <ele>139.4</ele>
        <time>2022-06-12T14:14:44Z</time>
      </trkpt>
      <trkpt lat="48.25451" lon="-3.43943">
        <ele>139.4</ele>
        <time>2022-06-12T14:14:45Z</time>
      </trkpt>
      <trkpt lat="48.25451" lon="-3.43941">
        <ele>139.4</ele>
        <time>2022-06-12T14:14:47Z</time>
      </trkpt>
      <trkpt lat="48.25451" lon="-3.4394">
        <ele>139.4</ele>
        <time>2022-06-12T14:14:48Z</time>
      </trkpt>
      <trkpt lat="48.25451" lon="-3.43939">
        <ele>139.4</ele>
        <time>2022-06-12T14:14:49Z</time>
      </trkpt>
      <trkpt lat="48.25451" lon="-3.43936">
        <ele>139.4</ele>
        <time>2022-06-12T14:14:50Z</time>
      </trkpt>
      <trkpt lat="48.25451" lon="-3.43935">
        <ele>139.4</ele>
        <time>2022-06-12T14:14:51Z</time>
      </trkpt>
      <trkpt lat="48.2545" lon="-3.43934">
        <ele>139.4</ele>
        <time>2022-06-12T14:14:52Z</time>
      </trkpt>
      <trkpt lat="48.25449" lon="-3.43931">
        <ele>139.4</ele>
        <time>2022-06-12T14:14:53Z</time>
      </trkpt>
      <trkpt lat="48.25448" lon="-3.4393">
        <ele>139.4</ele>
        <time>2022-06-12T14:14:54Z</time>
      </trkpt>
      <trkpt lat="48.25448" lon="-3.43929">
        <ele>139.4</ele>
        <time>2022-06-12T14:14:55Z</time>
      </trkpt>
      <trkpt lat="48.25447" lon="-3.43927">
        <ele>139.4</ele>
        <time>2022-06-12T14:14:57Z</time>
      </trkpt>
      <trkpt lat="48.25446" lon="-3.43925">
        <ele>139.4</ele>
        <time>2022-06-12T14:14:58Z</time>
      </trkpt>
      <trkpt lat="48.25445" lon="-3.43924">
        <ele>139.4</ele>
        <time>2022-06-12T14:14:59Z</time>
      </trkpt>
      <trkpt lat="48.25444" lon="-3.43922">
        <ele>139.4</ele>
        <time>2022-06-12T14:15:00Z</time>
      </trkpt>
      <trkpt lat="48.25444" lon="-3.4392">
        <ele>139.4</ele>
        <time>2022-06-12T14:15:01Z</time>
      </trkpt>
      <trkpt lat="48.25443" lon="-3.43918">
        <ele>139.4</ele>
        <time>2022-06-12T14:15:02Z</time>
      </trkpt>
      <trkpt lat="48.25441" lon="-3.43913">
        <ele>139.4</ele>
        <time>2022-06-12T14:15:04Z</time>
      </trkpt>
      <trkpt lat="48.25441" lon="-3.43913">
        <ele>139.4</ele>
        <time>2022-06-12T14:15:05Z</time>
      </trkpt>
      <trkpt lat="48.2544" lon="-3.43911">
        <ele>139.4</ele>
        <time>2022-06-12T14:15:06Z</time>
      </trkpt>
      <trkpt lat="48.25439" lon="-3.43908">
        <ele>139.4</ele>
        <time>2022-06-12T14:15:07Z</time>
      </trkpt>
      <trkpt lat="48.25439" lon="-3.43906">
        <ele>139.4</ele>
        <time>2022-06-12T14:15:08Z</time>
      </trkpt>
      <trkpt lat="48.25438" lon="-3.43903">
        <ele>139.4</ele>
        <time>2022-06-12T14:15:10Z</time>
      </trkpt>
      <trkpt lat="48.25437" lon="-3.439">
        <ele>139.4</ele>
        <time>2022-06-12T14:15:11Z</time>
      </trkpt>
      <trkpt lat="48.25436" lon="-3.43899">
        <ele>139.4</ele>
        <time>2022-06-12T14:15:12Z</time>
      </trkpt>
      <trkpt lat="48.25436" lon="-3.43898">
        <ele>139.4</ele>
        <time>2022-06-12T14:15:13Z</time>
      </trkpt>
      <trkpt lat="48.25435" lon="-3.43896">
        <ele>139.4</ele>
        <time>2022-06-12T14:15:14Z</time>
      </trkpt>
      <trkpt lat="48.25435" lon="-3.43894">
        <ele>139.5</ele>
        <time>2022-06-12T14:15:15Z</time>
      </trkpt>
      <trkpt lat="48.25434" lon="-3.4389">
        <ele>139.5</ele>
        <time>2022-06-12T14:15:17Z</time>
      </trkpt>
      <trkpt lat="48.25433" lon="-3.43889">
        <ele>139.5</ele>
        <time>2022-06-12T14:15:18Z</time>
      </trkpt>
      <trkpt lat="48.25433" lon="-3.43887">
        <ele>139.5</ele>
        <time>2022-06-12T14:15:19Z</time>
      </trkpt>
      <trkpt lat="48.25432" lon="-3.43885">
        <ele>139.5</ele>
        <time>2022-06-12T14:15:20Z</time>
      </trkpt>
      <trkpt lat="48.25431" lon="-3.43882">
        <ele>139.5</ele>
        <time>2022-06-12T14:15:22Z</time>
      </trkpt>
      <trkpt lat="48.25431" lon="-3.43881">
        <ele>139.5</ele>
        <time>2022-06-12T14:15:23Z</time>
      </trkpt>
      <trkpt lat="48.2543" lon="-3.43879">
        <ele>139.5</ele>
        <time>2022-06-12T14:15:24Z</time>
      </trkpt>
      <trkpt lat="48.25429" lon="-3.43877">
        <ele>139.5</ele>
        <time>2022-06-12T14:15:25Z</time>
      </trkpt>
      <trkpt lat="48.25429" lon="-3.43875">
        <ele>139.5</ele>
        <time>2022-06-12T14:15:26Z</time>
      </trkpt>
      <trkpt lat="48.25429" lon="-3.43874">
        <ele>139.5</ele>
        <time>2022-06-12T14:15:27Z</time>
      </trkpt>
      <trkpt lat="48.25428" lon="-3.43873">
        <ele>139.5</ele>
        <time>2022-06-12T14:15:28Z</time>
      </trkpt>
      <trkpt lat="48.25428" lon="-3.43872">
        <ele>139.5</ele>
        <time>2022-06-12T14:15:29Z</time>
      </trkpt>
      <trkpt lat="48.25428" lon="-3.43871">
        <ele>139.5</ele>
        <time>2022-06-12T14:15:31Z</time>
      </trkpt>
      <trkpt lat="48.25427" lon="-3.4387">
        <ele>139.5</ele>
        <time>2022-06-12T14:15:32Z</time>
      </trkpt>
      <trkpt lat="48.25427" lon="-3.43868">
        <ele>139.5</ele>
        <time>2022-06-12T14:15:33Z</time>
      </trkpt>
      <trkpt lat="48.25426" lon="-3.43866">
        <ele>139.5</ele>
        <time>2022-06-12T14:15:34Z</time>
      </trkpt>
      <trkpt lat="48.25425" lon="-3.43863">
        <ele>139.5</ele>
        <time>2022-06-12T14:15:35Z</time>
      </trkpt>
      <trkpt lat="48.25425" lon="-3.43862">
        <ele>139.5</ele>
        <time>2022-06-12T14:15:36Z</time>
      </trkpt>
      <trkpt lat="48.25424" lon="-3.4386">
        <ele>139.5</ele>
        <time>2022-06-12T14:15:37Z</time>
      </trkpt>
      <trkpt lat="48.25424" lon="-3.43859">
        <ele>139.5</ele>
        <time>2022-06-12T14:15:38Z</time>
      </trkpt>
      <trkpt lat="48.25423" lon="-3.43858">
        <ele>139.5</ele>
        <time>2022-06-12T14:15:39Z</time>
      </trkpt>
      <trkpt lat="48.25423" lon="-3.43855">
        <ele>139.5</ele>
        <time>2022-06-12T14:15:41Z</time>
      </trkpt>
      <trkpt lat="48.25421" lon="-3.43851">
        <ele>139.5</ele>
        <time>2022-06-12T14:15:42Z</time>
      </trkpt>
      <trkpt lat="48.25421" lon="-3.4385">
        <ele>139.5</ele>
        <time>2022-06-12T14:15:43Z</time>
      </trkpt>
      <trkpt lat="48.2542" lon="-3.43848">
        <ele>139.5</ele>
        <time>2022-06-12T14:15:44Z</time>
      </trkpt>
      <trkpt lat="48.25419" lon="-3.43846">
        <ele>139.5</ele>
        <time>2022-06-12T14:15:45Z</time>
      </trkpt>
      <trkpt lat="48.25419" lon="-3.43844">
        <ele>139.5</ele>
        <time>2022-06-12T14:15:46Z</time>
      </trkpt>
      <trkpt lat="48.25418" lon="-3.43843">
        <ele>139.5</ele>
        <time>2022-06-12T14:15:47Z</time>
      </trkpt>
      <trkpt lat="48.25418" lon="-3.43841">
        <ele>139.5</ele>
        <time>2022-06-12T14:15:49Z</time>
      </trkpt>
      <trkpt lat="48.25417" lon="-3.43839">
        <ele>139.4</ele>
        <time>2022-06-12T14:15:50Z</time>
      </trkpt>
      <trkpt lat="48.25416" lon="-3.43837">
        <ele>139.4</ele>
        <time>2022-06-12T14:15:51Z</time>
      </trkpt>
      <trkpt lat="48.25416" lon="-3.43835">
        <ele>139.4</ele>
        <time>2022-06-12T14:15:52Z</time>
      </trkpt>
      <trkpt lat="48.25416" lon="-3.43835">
        <ele>139.4</ele>
        <time>2022-06-12T14:15:53Z</time>
      </trkpt>
      <trkpt lat="48.25417" lon="-3.43834">
        <ele>139.4</ele>
        <time>2022-06-12T14:15:54Z</time>
      </trkpt>
      <trkpt lat="48.25417" lon="-3.43834">
        <ele>139.4</ele>
        <time>2022-06-12T14:15:55Z</time>
      </trkpt>
      <trkpt lat="48.25417" lon="-3.43836">
        <ele>139.4</ele>
        <time>2022-06-12T14:15:56Z</time>
      </trkpt>
      <trkpt lat="48.25417" lon="-3.43838">
        <ele>139.4</ele>
        <time>2022-06-12T14:15:57Z</time>
      </trkpt>
      <trkpt lat="48.25417" lon="-3.43839">
        <ele>139.4</ele>
        <time>2022-06-12T14:15:58Z</time>
      </trkpt>
      <trkpt lat="48.25417" lon="-3.43839">
        <ele>139.4</ele>
        <time>2022-06-12T14:15:59Z</time>
      </trkpt>
      <trkpt lat="48.25417" lon="-3.43839">
        <ele>139.4</ele>
        <time>2022-06-12T14:16:00Z</time>
      </trkpt>
      <trkpt lat="48.25417" lon="-3.43839">
        <ele>139.4</ele>
        <time>2022-06-12T14:16:01Z</time>
      </trkpt>
      <trkpt lat="48.25417" lon="-3.43839">
        <ele>139.4</ele>
        <time>2022-06-12T14:16:02Z</time>
      </trkpt>
      <trkpt lat="48.25417" lon="-3.4384">
        <ele>139.4</ele>
        <time>2022-06-12T14:16:03Z</time>
      </trkpt>
      <trkpt lat="48.25417" lon="-3.43839">
        <ele>139.4</ele>
        <time>2022-06-12T14:16:04Z</time>
      </trkpt>
      <trkpt lat="48.25417" lon="-3.43839">
        <ele>139.4</ele>
        <time>2022-06-12T14:16:05Z</time>
      </trkpt>
      <trkpt lat="48.25418" lon="-3.43839">
        <ele>139.4</ele>
        <time>2022-06-12T14:16:06Z</time>
      </trkpt>
      <trkpt lat="48.25418" lon="-3.4384">
        <ele>139.4</ele>
        <time>2022-06-12T14:16:07Z</time>
      </trkpt>
      <trkpt lat="48.25418" lon="-3.4384">
        <ele>139.4</ele>
        <time>2022-06-12T14:16:08Z</time>
      </trkpt>
      <trkpt lat="48.25418" lon="-3.4384">
        <ele>139.4</ele>
        <time>2022-06-12T14:16:09Z</time>
      </trkpt>
      <trkpt lat="48.25419" lon="-3.43841">
        <ele>139.4</ele>
        <time>2022-06-12T14:16:10Z</time>
      </trkpt>
      <trkpt lat="48.25419" lon="-3.43841">
        <ele>139.4</ele>
        <time>2022-06-12T14:16:11Z</time>
      </trkpt>
      <trkpt lat="48.25419" lon="-3.43841">
        <ele>139.4</ele>
        <time>2022-06-12T14:16:12Z</time>
      </trkpt>
      <trkpt lat="48.25419" lon="-3.43843">
        <ele>139.4</ele>
        <time>2022-06-12T14:16:13Z</time>
      </trkpt>
      <trkpt lat="48.25419" lon="-3.43844">
        <ele>139.4</ele>
        <time>2022-06-12T14:16:14Z</time>
      </trkpt>
      <trkpt lat="48.25419" lon="-3.43844">
        <ele>139.4</ele>
        <time>2022-06-12T14:16:15Z</time>
      </trkpt>
      <trkpt lat="48.25419" lon="-3.43845">
        <ele>139.4</ele>
        <time>2022-06-12T14:16:16Z</time>
      </trkpt>
      <trkpt lat="48.25419" lon="-3.43845">
        <ele>139.4</ele>
        <time>2022-06-12T14:16:17Z</time>
      </trkpt>
      <trkpt lat="48.25419" lon="-3.43845">
        <ele>139.4</ele>
        <time>2022-06-12T14:16:18Z</time>
      </trkpt>
      <trkpt lat="48.25419" lon="-3.43845">
        <ele>139.4</ele>
        <time>2022-06-12T14:16:19Z</time>
      </trkpt>
      <trkpt lat="48.25419" lon="-3.43845">
        <ele>139.4</ele>
        <time>2022-06-12T14:16:20Z</time>
      </trkpt>
      <trkpt lat="48.25419" lon="-3.43845">
        <ele>139.4</ele>
        <time>2022-06-12T14:16:21Z</time>
      </trkpt>
      <trkpt lat="48.25419" lon="-3.43845">
        <ele>139.4</ele>
        <time>2022-06-12T14:16:22Z</time>
      </trkpt>
      <trkpt lat="48.25418" lon="-3.43845">
        <ele>139.4</ele>
        <time>2022-06-12T14:16:24Z</time>
      </trkpt>
      <trkpt lat="48.25418" lon="-3.43844">
        <ele>139.4</ele>
        <time>2022-06-12T14:16:25Z</time>
      </trkpt>
      <trkpt lat="48.25418" lon="-3.43844">
        <ele>139.4</ele>
        <time>2022-06-12T14:16:26Z</time>
      </trkpt>
      <trkpt lat="48.25417" lon="-3.43844">
        <ele>139.4</ele>
        <time>2022-06-12T14:16:27Z</time>
      </trkpt>
      <trkpt lat="48.25416" lon="-3.43843">
        <ele>139.4</ele>
        <time>2022-06-12T14:16:29Z</time>
      </trkpt>
      <trkpt lat="48.25415" lon="-3.43842">
        <ele>139.4</ele>
        <time>2022-06-12T14:16:30Z</time>
      </trkpt>
      <trkpt lat="48.25414" lon="-3.43842">
        <ele>139.4</ele>
        <time>2022-06-12T14:16:31Z</time>
      </trkpt>
      <trkpt lat="48.25413" lon="-3.43841">
        <ele>139.4</ele>
        <time>2022-06-12T14:16:32Z</time>
      </trkpt>
      <trkpt lat="48.25413" lon="-3.4384">
        <ele>139.4</ele>
        <time>2022-06-12T14:16:33Z</time>
      </trkpt>
      <trkpt lat="48.25412" lon="-3.43839">
        <ele>139.4</ele>
        <time>2022-06-12T14:16:35Z</time>
      </trkpt>
      <trkpt lat="48.25411" lon="-3.43839">
        <ele>139.4</ele>
        <time>2022-06-12T14:16:36Z</time>
      </trkpt>
      <trkpt lat="48.25411" lon="-3.43838">
        <ele>139.4</ele>
        <time>2022-06-12T14:16:37Z</time>
      </trkpt>
      <trkpt lat="48.2541" lon="-3.43836">
        <ele>139.4</ele>
        <time>2022-06-12T14:16:38Z</time>
      </trkpt>
      <trkpt lat="48.25409" lon="-3.43835">
        <ele>139.4</ele>
        <time>2022-06-12T14:16:39Z</time>
      </trkpt>
      <trkpt lat="48.25408" lon="-3.43834">
        <ele>139.4</ele>
        <time>2022-06-12T14:16:40Z</time>
      </trkpt>
      <trkpt lat="48.25407" lon="-3.43832">
        <ele>139.5</ele>
        <time>2022-06-12T14:16:42Z</time>
      </trkpt>
      <trkpt lat="48.25406" lon="-3.43831">
        <ele>139.5</ele>
        <time>2022-06-12T14:16:43Z</time>
      </trkpt>
      <trkpt lat="48.25406" lon="-3.4383">
        <ele>139.5</ele>
        <time>2022-06-12T14:16:44Z</time>
      </trkpt>
      <trkpt lat="48.25405" lon="-3.43829">
        <ele>139.5</ele>
        <time>2022-06-12T14:16:45Z</time>
      </trkpt>
      <trkpt lat="48.25405" lon="-3.43828">
        <ele>139.5</ele>
        <time>2022-06-12T14:16:46Z</time>
      </trkpt>
      <trkpt lat="48.25404" lon="-3.43826">
        <ele>139.5</ele>
        <time>2022-06-12T14:16:47Z</time>
      </trkpt>
      <trkpt lat="48.25404" lon="-3.43825">
        <ele>139.5</ele>
        <time>2022-06-12T14:16:49Z</time>
      </trkpt>
      <trkpt lat="48.25402" lon="-3.43822">
        <ele>139.5</ele>
        <time>2022-06-12T14:16:50Z</time>
      </trkpt>
      <trkpt lat="48.25402" lon="-3.43821">
        <ele>139.5</ele>
        <time>2022-06-12T14:16:51Z</time>
      </trkpt>
      <trkpt lat="48.25402" lon="-3.4382">
        <ele>139.5</ele>
        <time>2022-06-12T14:16:52Z</time>
      </trkpt>
      <trkpt lat="48.25401" lon="-3.43819">
        <ele>139.5</ele>
        <time>2022-06-12T14:16:53Z</time>
      </trkpt>
      <trkpt lat="48.254" lon="-3.43817">
        <ele>139.5</ele>
        <time>2022-06-12T14:16:54Z</time>
      </trkpt>
      <trkpt lat="48.254" lon="-3.43816">
        <ele>139.5</ele>
        <time>2022-06-12T14:16:55Z</time>
      </trkpt>
      <trkpt lat="48.25399" lon="-3.43814">
        <ele>139.5</ele>
        <time>2022-06-12T14:16:56Z</time>
      </trkpt>
      <trkpt lat="48.25398" lon="-3.43812">
        <ele>139.5</ele>
        <time>2022-06-12T14:16:58Z</time>
      </trkpt>
      <trkpt lat="48.25397" lon="-3.43811">
        <ele>139.5</ele>
        <time>2022-06-12T14:16:59Z</time>
      </trkpt>
      <trkpt lat="48.25397" lon="-3.43809">
        <ele>139.5</ele>
        <time>2022-06-12T14:17:00Z</time>
      </trkpt>
      <trkpt lat="48.25396" lon="-3.43807">
        <ele>139.5</ele>
        <time>2022-06-12T14:17:01Z</time>
      </trkpt>
      <trkpt lat="48.25396" lon="-3.43805">
        <ele>139.5</ele>
        <time>2022-06-12T14:17:02Z</time>
      </trkpt>
      <trkpt lat="48.25395" lon="-3.43802">
        <ele>139.5</ele>
        <time>2022-06-12T14:17:03Z</time>
      </trkpt>
      <trkpt lat="48.25395" lon="-3.43801">
        <ele>139.5</ele>
        <time>2022-06-12T14:17:04Z</time>
      </trkpt>
      <trkpt lat="48.25394" lon="-3.438">
        <ele>139.5</ele>
        <time>2022-06-12T14:17:05Z</time>
      </trkpt>
      <trkpt lat="48.25394" lon="-3.43798">
        <ele>139.5</ele>
        <time>2022-06-12T14:17:07Z</time>
      </trkpt>
      <trkpt lat="48.25394" lon="-3.43797">
        <ele>139.5</ele>
        <time>2022-06-12T14:17:08Z</time>
      </trkpt>
      <trkpt lat="48.25393" lon="-3.43796">
        <ele>139.5</ele>
        <time>2022-06-12T14:17:09Z</time>
      </trkpt>
      <trkpt lat="48.25392" lon="-3.43793">
        <ele>139.5</ele>
        <time>2022-06-12T14:17:10Z</time>
      </trkpt>
      <trkpt lat="48.25392" lon="-3.43792">
        <ele>139.5</ele>
        <time>2022-06-12T14:17:11Z</time>
      </trkpt>
      <trkpt lat="48.25391" lon="-3.43792">
        <ele>139.5</ele>
        <time>2022-06-12T14:17:12Z</time>
      </trkpt>
      <trkpt lat="48.2539" lon="-3.43791">
        <ele>139.5</ele>
        <time>2022-06-12T14:17:13Z</time>
      </trkpt>
      <trkpt lat="48.2539" lon="-3.4379">
        <ele>139.5</ele>
        <time>2022-06-12T14:17:14Z</time>
      </trkpt>
      <trkpt lat="48.25388" lon="-3.43788">
        <ele>139.5</ele>
        <time>2022-06-12T14:17:16Z</time>
      </trkpt>
      <trkpt lat="48.25387" lon="-3.43787">
        <ele>139.5</ele>
        <time>2022-06-12T14:17:17Z</time>
      </trkpt>
      <trkpt lat="48.25386" lon="-3.43786">
        <ele>139.5</ele>
        <time>2022-06-12T14:17:18Z</time>
      </trkpt>
      <trkpt lat="48.25385" lon="-3.43785">
        <ele>139.5</ele>
        <time>2022-06-12T14:17:19Z</time>
      </trkpt>
      <trkpt lat="48.25384" lon="-3.43783">
        <ele>139.6</ele>
        <time>2022-06-12T14:17:20Z</time>
      </trkpt>
      <trkpt lat="48.25383" lon="-3.43782">
        <ele>139.6</ele>
        <time>2022-06-12T14:17:21Z</time>
      </trkpt>
      <trkpt lat="48.25381" lon="-3.4378">
        <ele>139.6</ele>
        <time>2022-06-12T14:17:23Z</time>
      </trkpt>
      <trkpt lat="48.2538" lon="-3.43779">
        <ele>139.6</ele>
        <time>2022-06-12T14:17:24Z</time>
      </trkpt>
      <trkpt lat="48.2538" lon="-3.43779">
        <ele>139.6</ele>
        <time>2022-06-12T14:17:25Z</time>
      </trkpt>
      <trkpt lat="48.25379" lon="-3.43778">
        <ele>139.6</ele>
        <time>2022-06-12T14:17:26Z</time>
      </trkpt>
      <trkpt lat="48.25378" lon="-3.43777">
        <ele>139.6</ele>
        <time>2022-06-12T14:17:27Z</time>
      </trkpt>
      <trkpt lat="48.25377" lon="-3.43776">
        <ele>139.6</ele>
        <time>2022-06-12T14:17:28Z</time>
      </trkpt>
      <trkpt lat="48.25376" lon="-3.43773">
        <ele>139.6</ele>
        <time>2022-06-12T14:17:29Z</time>
      </trkpt>
      <trkpt lat="48.25375" lon="-3.43772">
        <ele>139.6</ele>
        <time>2022-06-12T14:17:30Z</time>
      </trkpt>
      <trkpt lat="48.25375" lon="-3.43771">
        <ele>139.6</ele>
        <time>2022-06-12T14:17:31Z</time>
      </trkpt>
      <trkpt lat="48.25374" lon="-3.43767">
        <ele>139.6</ele>
        <time>2022-06-12T14:17:32Z</time>
      </trkpt>
      <trkpt lat="48.25373" lon="-3.43766">
        <ele>139.7</ele>
        <time>2022-06-12T14:17:34Z</time>
      </trkpt>
      <trkpt lat="48.25373" lon="-3.43764">
        <ele>139.7</ele>
        <time>2022-06-12T14:17:35Z</time>
      </trkpt>
      <trkpt lat="48.25372" lon="-3.43763">
        <ele>139.7</ele>
        <time>2022-06-12T14:17:36Z</time>
      </trkpt>
      <trkpt lat="48.25372" lon="-3.43761">
        <ele>139.7</ele>
        <time>2022-06-12T14:17:37Z</time>
      </trkpt>
      <trkpt lat="48.2537" lon="-3.43758">
        <ele>139.7</ele>
        <time>2022-06-12T14:17:38Z</time>
      </trkpt>
      <trkpt lat="48.25369" lon="-3.43756">
        <ele>139.7</ele>
        <time>2022-06-12T14:17:39Z</time>
      </trkpt>
      <trkpt lat="48.25369" lon="-3.43754">
        <ele>139.7</ele>
        <time>2022-06-12T14:17:41Z</time>
      </trkpt>
      <trkpt lat="48.25368" lon="-3.43753">
        <ele>139.8</ele>
        <time>2022-06-12T14:17:42Z</time>
      </trkpt>
      <trkpt lat="48.25367" lon="-3.43751">
        <ele>139.8</ele>
        <time>2022-06-12T14:17:43Z</time>
      </trkpt>
      <trkpt lat="48.25367" lon="-3.4375">
        <ele>139.8</ele>
        <time>2022-06-12T14:17:44Z</time>
      </trkpt>
      <trkpt lat="48.25365" lon="-3.43749">
        <ele>139.8</ele>
        <time>2022-06-12T14:17:45Z</time>
      </trkpt>
      <trkpt lat="48.25365" lon="-3.43749">
        <ele>139.8</ele>
        <time>2022-06-12T14:17:47Z</time>
      </trkpt>
      <trkpt lat="48.25364" lon="-3.43748">
        <ele>139.8</ele>
        <time>2022-06-12T14:17:48Z</time>
      </trkpt>
      <trkpt lat="48.25363" lon="-3.43747">
        <ele>139.9</ele>
        <time>2022-06-12T14:17:49Z</time>
      </trkpt>
      <trkpt lat="48.25361" lon="-3.43745">
        <ele>139.9</ele>
        <time>2022-06-12T14:17:50Z</time>
      </trkpt>
      <trkpt lat="48.2536" lon="-3.43744">
        <ele>139.9</ele>
        <time>2022-06-12T14:17:51Z</time>
      </trkpt>
      <trkpt lat="48.2536" lon="-3.43743">
        <ele>139.9</ele>
        <time>2022-06-12T14:17:52Z</time>
      </trkpt>
      <trkpt lat="48.25359" lon="-3.43742">
        <ele>139.9</ele>
        <time>2022-06-12T14:17:53Z</time>
      </trkpt>
      <trkpt lat="48.25358" lon="-3.43741">
        <ele>139.9</ele>
        <time>2022-06-12T14:17:54Z</time>
      </trkpt>
      <trkpt lat="48.25357" lon="-3.43739">
        <ele>140</ele>
        <time>2022-06-12T14:17:56Z</time>
      </trkpt>
      <trkpt lat="48.25355" lon="-3.43737">
        <ele>140</ele>
        <time>2022-06-12T14:17:57Z</time>
      </trkpt>
      <trkpt lat="48.25355" lon="-3.43737">
        <ele>140</ele>
        <time>2022-06-12T14:17:58Z</time>
      </trkpt>
      <trkpt lat="48.25354" lon="-3.43736">
        <ele>140</ele>
        <time>2022-06-12T14:17:59Z</time>
      </trkpt>
      <trkpt lat="48.25353" lon="-3.43735">
        <ele>140.1</ele>
        <time>2022-06-12T14:18:01Z</time>
      </trkpt>
      <trkpt lat="48.25352" lon="-3.43734">
        <ele>140.1</ele>
        <time>2022-06-12T14:18:02Z</time>
      </trkpt>
      <trkpt lat="48.25352" lon="-3.43734">
        <ele>140.1</ele>
        <time>2022-06-12T14:18:03Z</time>
      </trkpt>
      <trkpt lat="48.2535" lon="-3.43732">
        <ele>140.1</ele>
        <time>2022-06-12T14:18:04Z</time>
      </trkpt>
      <trkpt lat="48.2535" lon="-3.43731">
        <ele>140.2</ele>
        <time>2022-06-12T14:18:05Z</time>
      </trkpt>
      <trkpt lat="48.25349" lon="-3.4373">
        <ele>140.2</ele>
        <time>2022-06-12T14:18:07Z</time>
      </trkpt>
      <trkpt lat="48.25349" lon="-3.43728">
        <ele>140.2</ele>
        <time>2022-06-12T14:18:08Z</time>
      </trkpt>
      <trkpt lat="48.25348" lon="-3.43727">
        <ele>140.2</ele>
        <time>2022-06-12T14:18:09Z</time>
      </trkpt>
      <trkpt lat="48.25347" lon="-3.43726">
        <ele>140.2</ele>
        <time>2022-06-12T14:18:11Z</time>
      </trkpt>
      <trkpt lat="48.25347" lon="-3.43725">
        <ele>140.2</ele>
        <time>2022-06-12T14:18:12Z</time>
      </trkpt>
      <trkpt lat="48.25346" lon="-3.43723">
        <ele>140.4</ele>
        <time>2022-06-12T14:18:13Z</time>
      </trkpt>
      <trkpt lat="48.25346" lon="-3.43722">
        <ele>140.4</ele>
        <time>2022-06-12T14:18:14Z</time>
      </trkpt>
      <trkpt lat="48.25346" lon="-3.43721">
        <ele>140.4</ele>
        <time>2022-06-12T14:18:15Z</time>
      </trkpt>
      <trkpt lat="48.25345" lon="-3.4372">
        <ele>140.5</ele>
        <time>2022-06-12T14:18:16Z</time>
      </trkpt>
      <trkpt lat="48.25345" lon="-3.43718">
        <ele>140.5</ele>
        <time>2022-06-12T14:18:18Z</time>
      </trkpt>
      <trkpt lat="48.25344" lon="-3.43716">
        <ele>140.5</ele>
        <time>2022-06-12T14:18:19Z</time>
      </trkpt>
      <trkpt lat="48.25344" lon="-3.43715">
        <ele>140.6</ele>
        <time>2022-06-12T14:18:20Z</time>
      </trkpt>
      <trkpt lat="48.25344" lon="-3.43713">
        <ele>140.6</ele>
        <time>2022-06-12T14:18:21Z</time>
      </trkpt>
      <trkpt lat="48.25343" lon="-3.43711">
        <ele>140.7</ele>
        <time>2022-06-12T14:18:22Z</time>
      </trkpt>
      <trkpt lat="48.25343" lon="-3.4371">
        <ele>140.7</ele>
        <time>2022-06-12T14:18:23Z</time>
      </trkpt>
      <trkpt lat="48.25343" lon="-3.43709">
        <ele>140.7</ele>
        <time>2022-06-12T14:18:24Z</time>
      </trkpt>
      <trkpt lat="48.25342" lon="-3.43708">
        <ele>140.8</ele>
        <time>2022-06-12T14:18:25Z</time>
      </trkpt>
      <trkpt lat="48.25342" lon="-3.43706">
        <ele>140.8</ele>
        <time>2022-06-12T14:18:26Z</time>
      </trkpt>
      <trkpt lat="48.25342" lon="-3.43703">
        <ele>140.9</ele>
        <time>2022-06-12T14:18:27Z</time>
      </trkpt>
      <trkpt lat="48.25341" lon="-3.43702">
        <ele>141</ele>
        <time>2022-06-12T14:18:28Z</time>
      </trkpt>
      <trkpt lat="48.25341" lon="-3.43698">
        <ele>141.1</ele>
        <time>2022-06-12T14:18:30Z</time>
      </trkpt>
      <trkpt lat="48.25341" lon="-3.43696">
        <ele>141.1</ele>
        <time>2022-06-12T14:18:31Z</time>
      </trkpt>
      <trkpt lat="48.25341" lon="-3.43691">
        <ele>141.2</ele>
        <time>2022-06-12T14:18:32Z</time>
      </trkpt>
      <trkpt lat="48.25341" lon="-3.4369">
        <ele>141.3</ele>
        <time>2022-06-12T14:18:33Z</time>
      </trkpt>
      <trkpt lat="48.25341" lon="-3.43689">
        <ele>141.3</ele>
        <time>2022-06-12T14:18:34Z</time>
      </trkpt>
      <trkpt lat="48.25341" lon="-3.43687">
        <ele>141.3</ele>
        <time>2022-06-12T14:18:35Z</time>
      </trkpt>
      <trkpt lat="48.2534" lon="-3.43686">
        <ele>141.4</ele>
        <time>2022-06-12T14:18:36Z</time>
      </trkpt>
      <trkpt lat="48.25339" lon="-3.43683">
        <ele>141.5</ele>
        <time>2022-06-12T14:18:38Z</time>
      </trkpt>
      <trkpt lat="48.25339" lon="-3.43682">
        <ele>141.5</ele>
        <time>2022-06-12T14:18:39Z</time>
      </trkpt>
      <trkpt lat="48.25339" lon="-3.43681">
        <ele>141.5</ele>
        <time>2022-06-12T14:18:40Z</time>
      </trkpt>
      <trkpt lat="48.25338" lon="-3.4368">
        <ele>141.6</ele>
        <time>2022-06-12T14:18:41Z</time>
      </trkpt>
      <trkpt lat="48.25337" lon="-3.43678">
        <ele>141.6</ele>
        <time>2022-06-12T14:18:42Z</time>
      </trkpt>
      <trkpt lat="48.25336" lon="-3.43677">
        <ele>141.7</ele>
        <time>2022-06-12T14:18:43Z</time>
      </trkpt>
      <trkpt lat="48.25335" lon="-3.43675">
        <ele>141.7</ele>
        <time>2022-06-12T14:18:45Z</time>
      </trkpt>
      <trkpt lat="48.25334" lon="-3.43674">
        <ele>141.8</ele>
        <time>2022-06-12T14:18:46Z</time>
      </trkpt>
      <trkpt lat="48.25332" lon="-3.43672">
        <ele>141.8</ele>
        <time>2022-06-12T14:18:48Z</time>
      </trkpt>
      <trkpt lat="48.25332" lon="-3.43672">
        <ele>141.8</ele>
        <time>2022-06-12T14:18:49Z</time>
      </trkpt>
      <trkpt lat="48.25331" lon="-3.43671">
        <ele>141.9</ele>
        <time>2022-06-12T14:18:50Z</time>
      </trkpt>
      <trkpt lat="48.2533" lon="-3.43671">
        <ele>141.9</ele>
        <time>2022-06-12T14:18:51Z</time>
      </trkpt>
      <trkpt lat="48.25329" lon="-3.43671">
        <ele>141.9</ele>
        <time>2022-06-12T14:18:53Z</time>
      </trkpt>
      <trkpt lat="48.25328" lon="-3.43672">
        <ele>141.9</ele>
        <time>2022-06-12T14:18:54Z</time>
      </trkpt>
      <trkpt lat="48.25328" lon="-3.43672">
        <ele>141.9</ele>
        <time>2022-06-12T14:18:56Z</time>
      </trkpt>
      <trkpt lat="48.25327" lon="-3.43671">
        <ele>142</ele>
        <time>2022-06-12T14:18:57Z</time>
      </trkpt>
      <trkpt lat="48.25326" lon="-3.43671">
        <ele>142</ele>
        <time>2022-06-12T14:18:58Z</time>
      </trkpt>
      <trkpt lat="48.25325" lon="-3.4367">
        <ele>142</ele>
        <time>2022-06-12T14:18:59Z</time>
      </trkpt>
      <trkpt lat="48.25324" lon="-3.43669">
        <ele>142</ele>
        <time>2022-06-12T14:19:00Z</time>
      </trkpt>
      <trkpt lat="48.25324" lon="-3.43667">
        <ele>142</ele>
        <time>2022-06-12T14:19:01Z</time>
      </trkpt>
      <trkpt lat="48.25324" lon="-3.43665">
        <ele>142</ele>
        <time>2022-06-12T14:19:03Z</time>
      </trkpt>
      <trkpt lat="48.25324" lon="-3.43664">
        <ele>142.1</ele>
        <time>2022-06-12T14:19:04Z</time>
      </trkpt>
      <trkpt lat="48.25324" lon="-3.43662">
        <ele>142.1</ele>
        <time>2022-06-12T14:19:06Z</time>
      </trkpt>
      <trkpt lat="48.25324" lon="-3.43662">
        <ele>142.1</ele>
        <time>2022-06-12T14:19:07Z</time>
      </trkpt>
      <trkpt lat="48.25325" lon="-3.43662">
        <ele>142.1</ele>
        <time>2022-06-12T14:19:08Z</time>
      </trkpt>
      <trkpt lat="48.25325" lon="-3.43661">
        <ele>142.1</ele>
        <time>2022-06-12T14:19:09Z</time>
      </trkpt>
      <trkpt lat="48.25324" lon="-3.4366">
        <ele>142.1</ele>
        <time>2022-06-12T14:19:10Z</time>
      </trkpt>
      <trkpt lat="48.25324" lon="-3.43659">
        <ele>142.1</ele>
        <time>2022-06-12T14:19:12Z</time>
      </trkpt>
      <trkpt lat="48.25323" lon="-3.43657">
        <ele>142.1</ele>
        <time>2022-06-12T14:19:13Z</time>
      </trkpt>
      <trkpt lat="48.25323" lon="-3.43655">
        <ele>142.1</ele>
        <time>2022-06-12T14:19:15Z</time>
      </trkpt>
      <trkpt lat="48.25323" lon="-3.43655">
        <ele>142.1</ele>
        <time>2022-06-12T14:19:16Z</time>
      </trkpt>
      <trkpt lat="48.25324" lon="-3.43654">
        <ele>142.1</ele>
        <time>2022-06-12T14:19:17Z</time>
      </trkpt>
      <trkpt lat="48.25325" lon="-3.43655">
        <ele>142.1</ele>
        <time>2022-06-12T14:19:18Z</time>
      </trkpt>
      <trkpt lat="48.25325" lon="-3.43655">
        <ele>142.1</ele>
        <time>2022-06-12T14:19:19Z</time>
      </trkpt>
      <trkpt lat="48.25325" lon="-3.43655">
        <ele>142.1</ele>
        <time>2022-06-12T14:19:20Z</time>
      </trkpt>
      <trkpt lat="48.25325" lon="-3.43655">
        <ele>142.1</ele>
        <time>2022-06-12T14:19:22Z</time>
      </trkpt>
      <trkpt lat="48.25325" lon="-3.43655">
        <ele>142.1</ele>
        <time>2022-06-12T14:19:23Z</time>
      </trkpt>
      <trkpt lat="48.25324" lon="-3.43655">
        <ele>142.1</ele>
        <time>2022-06-12T14:19:24Z</time>
      </trkpt>
      <trkpt lat="48.25323" lon="-3.43655">
        <ele>142.1</ele>
        <time>2022-06-12T14:19:26Z</time>
      </trkpt>
      <trkpt lat="48.25322" lon="-3.43654">
        <ele>142.1</ele>
        <time>2022-06-12T14:19:27Z</time>
      </trkpt>
      <trkpt lat="48.25322" lon="-3.43654">
        <ele>142.1</ele>
        <time>2022-06-12T14:19:28Z</time>
      </trkpt>
      <trkpt lat="48.25321" lon="-3.43652">
        <ele>142.1</ele>
        <time>2022-06-12T14:19:29Z</time>
      </trkpt>
      <trkpt lat="48.25321" lon="-3.43651">
        <ele>142.1</ele>
        <time>2022-06-12T14:19:30Z</time>
      </trkpt>
      <trkpt lat="48.25321" lon="-3.43649">
        <ele>142.1</ele>
        <time>2022-06-12T14:19:31Z</time>
      </trkpt>
      <trkpt lat="48.25321" lon="-3.43646">
        <ele>142.1</ele>
        <time>2022-06-12T14:19:32Z</time>
      </trkpt>
      <trkpt lat="48.25321" lon="-3.43644">
        <ele>142.1</ele>
        <time>2022-06-12T14:19:34Z</time>
      </trkpt>
      <trkpt lat="48.25322" lon="-3.43645">
        <ele>142.1</ele>
        <time>2022-06-12T14:19:35Z</time>
      </trkpt>
      <trkpt lat="48.25323" lon="-3.43645">
        <ele>142.1</ele>
        <time>2022-06-12T14:19:36Z</time>
      </trkpt>
      <trkpt lat="48.25324" lon="-3.43645">
        <ele>142.1</ele>
        <time>2022-06-12T14:19:37Z</time>
      </trkpt>
      <trkpt lat="48.25323" lon="-3.43643">
        <ele>142.1</ele>
        <time>2022-06-12T14:19:38Z</time>
      </trkpt>
      <trkpt lat="48.25323" lon="-3.43642">
        <ele>142.1</ele>
        <time>2022-06-12T14:19:39Z</time>
      </trkpt>
      <trkpt lat="48.25323" lon="-3.4364">
        <ele>142.1</ele>
        <time>2022-06-12T14:19:41Z</time>
      </trkpt>
      <trkpt lat="48.25323" lon="-3.4364">
        <ele>142.1</ele>
        <time>2022-06-12T14:19:42Z</time>
      </trkpt>
      <trkpt lat="48.25323" lon="-3.43639">
        <ele>142.1</ele>
        <time>2022-06-12T14:19:43Z</time>
      </trkpt>
      <trkpt lat="48.25323" lon="-3.43639">
        <ele>142.1</ele>
        <time>2022-06-12T14:19:44Z</time>
      </trkpt>
      <trkpt lat="48.25323" lon="-3.43639">
        <ele>142.1</ele>
        <time>2022-06-12T14:19:45Z</time>
      </trkpt>
      <trkpt lat="48.25323" lon="-3.43639">
        <ele>142.1</ele>
        <time>2022-06-12T14:19:46Z</time>
      </trkpt>
      <trkpt lat="48.25322" lon="-3.4364">
        <ele>142.1</ele>
        <time>2022-06-12T14:19:47Z</time>
      </trkpt>
      <trkpt lat="48.25322" lon="-3.4364">
        <ele>142.1</ele>
        <time>2022-06-12T14:19:49Z</time>
      </trkpt>
      <trkpt lat="48.25322" lon="-3.4364">
        <ele>142.1</ele>
        <time>2022-06-12T14:19:51Z</time>
      </trkpt>
      <trkpt lat="48.25321" lon="-3.43639">
        <ele>142.1</ele>
        <time>2022-06-12T14:19:52Z</time>
      </trkpt>
      <trkpt lat="48.25321" lon="-3.43639">
        <ele>142.1</ele>
        <time>2022-06-12T14:19:53Z</time>
      </trkpt>
      <trkpt lat="48.25321" lon="-3.43639">
        <ele>142.1</ele>
        <time>2022-06-12T14:19:54Z</time>
      </trkpt>
      <trkpt lat="48.25321" lon="-3.43639">
        <ele>142.1</ele>
        <time>2022-06-12T14:19:55Z</time>
      </trkpt>
      <trkpt lat="48.25321" lon="-3.43639">
        <ele>142.1</ele>
        <time>2022-06-12T14:19:56Z</time>
      </trkpt>
      <trkpt lat="48.25321" lon="-3.43639">
        <ele>142.1</ele>
        <time>2022-06-12T14:19:57Z</time>
      </trkpt>
      <trkpt lat="48.25321" lon="-3.43639">
        <ele>142.1</ele>
        <time>2022-06-12T14:19:58Z</time>
      </trkpt>
      <trkpt lat="48.25321" lon="-3.43639">
        <ele>142.1</ele>
        <time>2022-06-12T14:19:59Z</time>
      </trkpt>
      <trkpt lat="48.25321" lon="-3.43639">
        <ele>142.1</ele>
        <time>2022-06-12T14:20:00Z</time>
      </trkpt>
      <trkpt lat="48.25321" lon="-3.43639">
        <ele>142.1</ele>
        <time>2022-06-12T14:20:01Z</time>
      </trkpt>
      <trkpt lat="48.25321" lon="-3.4364">
        <ele>142.1</ele>
        <time>2022-06-12T14:20:02Z</time>
      </trkpt>
      <trkpt lat="48.25321" lon="-3.4364">
        <ele>142.1</ele>
        <time>2022-06-12T14:20:04Z</time>
      </trkpt>
      <trkpt lat="48.25321" lon="-3.4364">
        <ele>142.1</ele>
        <time>2022-06-12T14:20:06Z</time>
      </trkpt>
      <trkpt lat="48.2532" lon="-3.43641">
        <ele>142.1</ele>
        <time>2022-06-12T14:20:07Z</time>
      </trkpt>
      <trkpt lat="48.2532" lon="-3.43641">
        <ele>142.1</ele>
        <time>2022-06-12T14:20:08Z</time>
      </trkpt>
      <trkpt lat="48.25319" lon="-3.43641">
        <ele>142.1</ele>
        <time>2022-06-12T14:20:10Z</time>
      </trkpt>
      <trkpt lat="48.25319" lon="-3.43641">
        <ele>142.1</ele>
        <time>2022-06-12T14:20:11Z</time>
      </trkpt>
      <trkpt lat="48.25319" lon="-3.43641">
        <ele>142.1</ele>
        <time>2022-06-12T14:20:12Z</time>
      </trkpt>
      <trkpt lat="48.25319" lon="-3.43641">
        <ele>142.1</ele>
        <time>2022-06-12T14:20:13Z</time>
      </trkpt>
      <trkpt lat="48.25319" lon="-3.43641">
        <ele>142.1</ele>
        <time>2022-06-12T14:20:14Z</time>
      </trkpt>
      <trkpt lat="48.25319" lon="-3.4364">
        <ele>142.1</ele>
        <time>2022-06-12T14:20:15Z</time>
      </trkpt>
      <trkpt lat="48.25319" lon="-3.4364">
        <ele>142.1</ele>
        <time>2022-06-12T14:20:16Z</time>
      </trkpt>
      <trkpt lat="48.25319" lon="-3.4364">
        <ele>142.1</ele>
        <time>2022-06-12T14:20:17Z</time>
      </trkpt>
      <trkpt lat="48.25319" lon="-3.4364">
        <ele>142.1</ele>
        <time>2022-06-12T14:20:18Z</time>
      </trkpt>
      <trkpt lat="48.25319" lon="-3.4364">
        <ele>142.1</ele>
        <time>2022-06-12T14:20:19Z</time>
      </trkpt>
      <trkpt lat="48.25319" lon="-3.4364">
        <ele>142.1</ele>
        <time>2022-06-12T14:20:20Z</time>
      </trkpt>
      <trkpt lat="48.25319" lon="-3.4364">
        <ele>142.1</ele>
        <time>2022-06-12T14:20:21Z</time>
      </trkpt>
      <trkpt lat="48.25319" lon="-3.4364">
        <ele>142.1</ele>
        <time>2022-06-12T14:20:22Z</time>
      </trkpt>
      <trkpt lat="48.25319" lon="-3.4364">
        <ele>142.1</ele>
        <time>2022-06-12T14:20:23Z</time>
      </trkpt>
      <trkpt lat="48.25319" lon="-3.4364">
        <ele>142.1</ele>
        <time>2022-06-12T14:20:24Z</time>
      </trkpt>
      <trkpt lat="48.25319" lon="-3.4364">
        <ele>142.1</ele>
        <time>2022-06-12T14:20:25Z</time>
      </trkpt>
      <trkpt lat="48.25319" lon="-3.4364">
        <ele>142.1</ele>
        <time>2022-06-12T14:20:26Z</time>
      </trkpt>
      <trkpt lat="48.25319" lon="-3.4364">
        <ele>142</ele>
        <time>2022-06-12T14:20:27Z</time>
      </trkpt>
      <trkpt lat="48.2532" lon="-3.4364">
        <ele>142</ele>
        <time>2022-06-12T14:20:28Z</time>
      </trkpt>
      <trkpt lat="48.2532" lon="-3.4364">
        <ele>142</ele>
        <time>2022-06-12T14:20:29Z</time>
      </trkpt>
      <trkpt lat="48.2532" lon="-3.4364">
        <ele>142</ele>
        <time>2022-06-12T14:20:30Z</time>
      </trkpt>
      <trkpt lat="48.2532" lon="-3.4364">
        <ele>142</ele>
        <time>2022-06-12T14:20:31Z</time>
      </trkpt>
      <trkpt lat="48.2532" lon="-3.4364">
        <ele>142</ele>
        <time>2022-06-12T14:20:32Z</time>
      </trkpt>
      <trkpt lat="48.2532" lon="-3.4364">
        <ele>142</ele>
        <time>2022-06-12T14:20:33Z</time>
      </trkpt>
      <trkpt lat="48.2532" lon="-3.4364">
        <ele>142</ele>
        <time>2022-06-12T14:20:34Z</time>
      </trkpt>
      <trkpt lat="48.2532" lon="-3.4364">
        <ele>142</ele>
        <time>2022-06-12T14:20:35Z</time>
      </trkpt>
      <trkpt lat="48.2532" lon="-3.4364">
        <ele>142</ele>
        <time>2022-06-12T14:20:36Z</time>
      </trkpt>
      <trkpt lat="48.2532" lon="-3.4364">
        <ele>142</ele>
        <time>2022-06-12T14:20:37Z</time>
      </trkpt>
      <trkpt lat="48.2532" lon="-3.4364">
        <ele>142</ele>
        <time>2022-06-12T14:20:38Z</time>
      </trkpt>
      <trkpt lat="48.2532" lon="-3.4364">
        <ele>142</ele>
        <time>2022-06-12T14:20:39Z</time>
      </trkpt>
      <trkpt lat="48.25318" lon="-3.43641">
        <ele>142</ele>
        <time>2022-06-12T14:20:40Z</time>
      </trkpt>
      <trkpt lat="48.25318" lon="-3.43641">
        <ele>142</ele>
        <time>2022-06-12T14:20:41Z</time>
      </trkpt>
      <trkpt lat="48.25319" lon="-3.43639">
        <ele>142</ele>
        <time>2022-06-12T14:20:43Z</time>
      </trkpt>
      <trkpt lat="48.25319" lon="-3.43638">
        <ele>142</ele>
        <time>2022-06-12T14:20:44Z</time>
      </trkpt>
      <trkpt lat="48.25319" lon="-3.43637">
        <ele>142</ele>
        <time>2022-06-12T14:20:45Z</time>
      </trkpt>
      <trkpt lat="48.25318" lon="-3.43636">
        <ele>142</ele>
        <time>2022-06-12T14:20:46Z</time>
      </trkpt>
      <trkpt lat="48.25316" lon="-3.43634">
        <ele>142</ele>
        <time>2022-06-12T14:20:48Z</time>
      </trkpt>
      <trkpt lat="48.25315" lon="-3.43633">
        <ele>142</ele>
        <time>2022-06-12T14:20:49Z</time>
      </trkpt>
      <trkpt lat="48.25315" lon="-3.43632">
        <ele>141.9</ele>
        <time>2022-06-12T14:20:51Z</time>
      </trkpt>
      <trkpt lat="48.25314" lon="-3.43631">
        <ele>141.9</ele>
        <time>2022-06-12T14:20:52Z</time>
      </trkpt>
      <trkpt lat="48.25313" lon="-3.4363">
        <ele>141.9</ele>
        <time>2022-06-12T14:20:53Z</time>
      </trkpt>
      <trkpt lat="48.25312" lon="-3.43629">
        <ele>141.9</ele>
        <time>2022-06-12T14:20:54Z</time>
      </trkpt>
      <trkpt lat="48.25311" lon="-3.43626">
        <ele>141.9</ele>
        <time>2022-06-12T14:20:55Z</time>
      </trkpt>
      <trkpt lat="48.2531" lon="-3.43625">
        <ele>141.9</ele>
        <time>2022-06-12T14:20:56Z</time>
      </trkpt>
      <trkpt lat="48.2531" lon="-3.43624">
        <ele>141.9</ele>
        <time>2022-06-12T14:20:57Z</time>
      </trkpt>
      <trkpt lat="48.25309" lon="-3.43622">
        <ele>141.9</ele>
        <time>2022-06-12T14:20:58Z</time>
      </trkpt>
      <trkpt lat="48.25309" lon="-3.43621">
        <ele>141.9</ele>
        <time>2022-06-12T14:20:59Z</time>
      </trkpt>
      <trkpt lat="48.25308" lon="-3.43619">
        <ele>141.8</ele>
        <time>2022-06-12T14:21:00Z</time>
      </trkpt>
      <trkpt lat="48.25307" lon="-3.43616">
        <ele>141.8</ele>
        <time>2022-06-12T14:21:02Z</time>
      </trkpt>
      <trkpt lat="48.25306" lon="-3.43615">
        <ele>141.8</ele>
        <time>2022-06-12T14:21:03Z</time>
      </trkpt>
      <trkpt lat="48.25306" lon="-3.43614">
        <ele>141.8</ele>
        <time>2022-06-12T14:21:04Z</time>
      </trkpt>
      <trkpt lat="48.25305" lon="-3.43612">
        <ele>141.8</ele>
        <time>2022-06-12T14:21:05Z</time>
      </trkpt>
      <trkpt lat="48.25304" lon="-3.4361">
        <ele>141.8</ele>
        <time>2022-06-12T14:21:06Z</time>
      </trkpt>
      <trkpt lat="48.25303" lon="-3.43609">
        <ele>141.8</ele>
        <time>2022-06-12T14:21:07Z</time>
      </trkpt>
      <trkpt lat="48.25303" lon="-3.43607">
        <ele>141.8</ele>
        <time>2022-06-12T14:21:08Z</time>
      </trkpt>
      <trkpt lat="48.25303" lon="-3.43606">
        <ele>141.8</ele>
        <time>2022-06-12T14:21:09Z</time>
      </trkpt>
      <trkpt lat="48.25302" lon="-3.43603">
        <ele>141.8</ele>
        <time>2022-06-12T14:21:11Z</time>
      </trkpt>
      <trkpt lat="48.25301" lon="-3.43601">
        <ele>141.7</ele>
        <time>2022-06-12T14:21:12Z</time>
      </trkpt>
      <trkpt lat="48.25301" lon="-3.436">
        <ele>141.7</ele>
        <time>2022-06-12T14:21:13Z</time>
      </trkpt>
      <trkpt lat="48.25299" lon="-3.43596">
        <ele>141.7</ele>
        <time>2022-06-12T14:21:14Z</time>
      </trkpt>
      <trkpt lat="48.25299" lon="-3.43595">
        <ele>141.7</ele>
        <time>2022-06-12T14:21:15Z</time>
      </trkpt>
      <trkpt lat="48.25297" lon="-3.43591">
        <ele>141.7</ele>
        <time>2022-06-12T14:21:16Z</time>
      </trkpt>
      <trkpt lat="48.25297" lon="-3.4359">
        <ele>141.7</ele>
        <time>2022-06-12T14:21:17Z</time>
      </trkpt>
      <trkpt lat="48.25295" lon="-3.43586">
        <ele>141.7</ele>
        <time>2022-06-12T14:21:19Z</time>
      </trkpt>
      <trkpt lat="48.25294" lon="-3.43585">
        <ele>141.7</ele>
        <time>2022-06-12T14:21:20Z</time>
      </trkpt>
      <trkpt lat="48.25293" lon="-3.43583">
        <ele>141.7</ele>
        <time>2022-06-12T14:21:21Z</time>
      </trkpt>
      <trkpt lat="48.25292" lon="-3.43581">
        <ele>141.7</ele>
        <time>2022-06-12T14:21:22Z</time>
      </trkpt>
      <trkpt lat="48.25291" lon="-3.43579">
        <ele>141.7</ele>
        <time>2022-06-12T14:21:23Z</time>
      </trkpt>
      <trkpt lat="48.2529" lon="-3.43577">
        <ele>141.7</ele>
        <time>2022-06-12T14:21:24Z</time>
      </trkpt>
      <trkpt lat="48.25289" lon="-3.43575">
        <ele>141.7</ele>
        <time>2022-06-12T14:21:25Z</time>
      </trkpt>
      <trkpt lat="48.25288" lon="-3.43574">
        <ele>141.6</ele>
        <time>2022-06-12T14:21:26Z</time>
      </trkpt>
      <trkpt lat="48.25288" lon="-3.43573">
        <ele>141.6</ele>
        <time>2022-06-12T14:21:27Z</time>
      </trkpt>
      <trkpt lat="48.25287" lon="-3.43572">
        <ele>141.6</ele>
        <time>2022-06-12T14:21:28Z</time>
      </trkpt>
      <trkpt lat="48.25286" lon="-3.43571">
        <ele>141.6</ele>
        <time>2022-06-12T14:21:29Z</time>
      </trkpt>
      <trkpt lat="48.25286" lon="-3.43571">
        <ele>141.6</ele>
        <time>2022-06-12T14:21:31Z</time>
      </trkpt>
      <trkpt lat="48.25285" lon="-3.4357">
        <ele>141.6</ele>
        <time>2022-06-12T14:21:32Z</time>
      </trkpt>
      <trkpt lat="48.25284" lon="-3.43567">
        <ele>141.6</ele>
        <time>2022-06-12T14:21:33Z</time>
      </trkpt>
      <trkpt lat="48.25283" lon="-3.43566">
        <ele>141.6</ele>
        <time>2022-06-12T14:21:34Z</time>
      </trkpt>
      <trkpt lat="48.25283" lon="-3.43565">
        <ele>141.6</ele>
        <time>2022-06-12T14:21:35Z</time>
      </trkpt>
      <trkpt lat="48.25282" lon="-3.43563">
        <ele>141.6</ele>
        <time>2022-06-12T14:21:36Z</time>
      </trkpt>
      <trkpt lat="48.25281" lon="-3.43561">
        <ele>141.6</ele>
        <time>2022-06-12T14:21:37Z</time>
      </trkpt>
      <trkpt lat="48.25279" lon="-3.43557">
        <ele>141.6</ele>
        <time>2022-06-12T14:21:38Z</time>
      </trkpt>
      <trkpt lat="48.25279" lon="-3.43556">
        <ele>141.6</ele>
        <time>2022-06-12T14:21:39Z</time>
      </trkpt>
      <trkpt lat="48.25278" lon="-3.43554">
        <ele>141.6</ele>
        <time>2022-06-12T14:21:40Z</time>
      </trkpt>
      <trkpt lat="48.25277" lon="-3.43552">
        <ele>141.6</ele>
        <time>2022-06-12T14:21:42Z</time>
      </trkpt>
      <trkpt lat="48.25276" lon="-3.4355">
        <ele>141.6</ele>
        <time>2022-06-12T14:21:43Z</time>
      </trkpt>
      <trkpt lat="48.25276" lon="-3.43549">
        <ele>141.6</ele>
        <time>2022-06-12T14:21:44Z</time>
      </trkpt>
      <trkpt lat="48.25275" lon="-3.43548">
        <ele>141.6</ele>
        <time>2022-06-12T14:21:45Z</time>
      </trkpt>
      <trkpt lat="48.25274" lon="-3.43546">
        <ele>141.6</ele>
        <time>2022-06-12T14:21:46Z</time>
      </trkpt>
      <trkpt lat="48.25273" lon="-3.43544">
        <ele>141.6</ele>
        <time>2022-06-12T14:21:47Z</time>
      </trkpt>
      <trkpt lat="48.25273" lon="-3.43543">
        <ele>141.6</ele>
        <time>2022-06-12T14:21:48Z</time>
      </trkpt>
      <trkpt lat="48.25272" lon="-3.43541">
        <ele>141.6</ele>
        <time>2022-06-12T14:21:49Z</time>
      </trkpt>
      <trkpt lat="48.25271" lon="-3.4354">
        <ele>141.6</ele>
        <time>2022-06-12T14:21:51Z</time>
      </trkpt>
      <trkpt lat="48.2527" lon="-3.43537">
        <ele>141.6</ele>
        <time>2022-06-12T14:21:52Z</time>
      </trkpt>
      <trkpt lat="48.2527" lon="-3.43536">
        <ele>141.6</ele>
        <time>2022-06-12T14:21:53Z</time>
      </trkpt>
      <trkpt lat="48.25269" lon="-3.43535">
        <ele>141.6</ele>
        <time>2022-06-12T14:21:54Z</time>
      </trkpt>
      <trkpt lat="48.25269" lon="-3.43533">
        <ele>141.6</ele>
        <time>2022-06-12T14:21:55Z</time>
      </trkpt>
      <trkpt lat="48.25268" lon="-3.43532">
        <ele>141.6</ele>
        <time>2022-06-12T14:21:56Z</time>
      </trkpt>
      <trkpt lat="48.25268" lon="-3.43531">
        <ele>141.6</ele>
        <time>2022-06-12T14:21:57Z</time>
      </trkpt>
      <trkpt lat="48.25266" lon="-3.43528">
        <ele>141.6</ele>
        <time>2022-06-12T14:21:58Z</time>
      </trkpt>
      <trkpt lat="48.25266" lon="-3.43527">
        <ele>141.6</ele>
        <time>2022-06-12T14:22:00Z</time>
      </trkpt>
      <trkpt lat="48.25266" lon="-3.43526">
        <ele>141.6</ele>
        <time>2022-06-12T14:22:01Z</time>
      </trkpt>
      <trkpt lat="48.25265" lon="-3.43522">
        <ele>141.6</ele>
        <time>2022-06-12T14:22:02Z</time>
      </trkpt>
      <trkpt lat="48.25264" lon="-3.43521">
        <ele>141.6</ele>
        <time>2022-06-12T14:22:03Z</time>
      </trkpt>
      <trkpt lat="48.25264" lon="-3.4352">
        <ele>141.6</ele>
        <time>2022-06-12T14:22:04Z</time>
      </trkpt>
      <trkpt lat="48.25263" lon="-3.43519">
        <ele>141.6</ele>
        <time>2022-06-12T14:22:05Z</time>
      </trkpt>
      <trkpt lat="48.25262" lon="-3.43517">
        <ele>141.6</ele>
        <time>2022-06-12T14:22:06Z</time>
      </trkpt>
      <trkpt lat="48.25261" lon="-3.43514">
        <ele>141.6</ele>
        <time>2022-06-12T14:22:08Z</time>
      </trkpt>
      <trkpt lat="48.2526" lon="-3.43513">
        <ele>141.6</ele>
        <time>2022-06-12T14:22:09Z</time>
      </trkpt>
      <trkpt lat="48.2526" lon="-3.43511">
        <ele>141.6</ele>
        <time>2022-06-12T14:22:10Z</time>
      </trkpt>
      <trkpt lat="48.25259" lon="-3.4351">
        <ele>141.6</ele>
        <time>2022-06-12T14:22:11Z</time>
      </trkpt>
      <trkpt lat="48.25258" lon="-3.43509">
        <ele>141.6</ele>
        <time>2022-06-12T14:22:12Z</time>
      </trkpt>
      <trkpt lat="48.25257" lon="-3.43508">
        <ele>141.6</ele>
        <time>2022-06-12T14:22:13Z</time>
      </trkpt>
      <trkpt lat="48.25256" lon="-3.43506">
        <ele>141.7</ele>
        <time>2022-06-12T14:22:14Z</time>
      </trkpt>
      <trkpt lat="48.25255" lon="-3.43505">
        <ele>141.7</ele>
        <time>2022-06-12T14:22:15Z</time>
      </trkpt>
      <trkpt lat="48.25255" lon="-3.43505">
        <ele>141.7</ele>
        <time>2022-06-12T14:22:17Z</time>
      </trkpt>
      <trkpt lat="48.25254" lon="-3.43508">
        <ele>141.7</ele>
        <time>2022-06-12T14:22:18Z</time>
      </trkpt>
      <trkpt lat="48.25254" lon="-3.43508">
        <ele>141.7</ele>
        <time>2022-06-12T14:22:19Z</time>
      </trkpt>
      <trkpt lat="48.25253" lon="-3.43507">
        <ele>141.7</ele>
        <time>2022-06-12T14:22:20Z</time>
      </trkpt>
      <trkpt lat="48.25252" lon="-3.43506">
        <ele>141.7</ele>
        <time>2022-06-12T14:22:21Z</time>
      </trkpt>
      <trkpt lat="48.25251" lon="-3.43505">
        <ele>141.7</ele>
        <time>2022-06-12T14:22:22Z</time>
      </trkpt>
      <trkpt lat="48.25251" lon="-3.43505">
        <ele>141.7</ele>
        <time>2022-06-12T14:22:23Z</time>
      </trkpt>
      <trkpt lat="48.25249" lon="-3.43503">
        <ele>141.7</ele>
        <time>2022-06-12T14:22:24Z</time>
      </trkpt>
      <trkpt lat="48.25248" lon="-3.43501">
        <ele>141.7</ele>
        <time>2022-06-12T14:22:25Z</time>
      </trkpt>
      <trkpt lat="48.25246" lon="-3.43499">
        <ele>141.8</ele>
        <time>2022-06-12T14:22:27Z</time>
      </trkpt>
      <trkpt lat="48.25245" lon="-3.43498">
        <ele>141.8</ele>
        <time>2022-06-12T14:22:28Z</time>
      </trkpt>
      <trkpt lat="48.25245" lon="-3.43497">
        <ele>141.8</ele>
        <time>2022-06-12T14:22:29Z</time>
      </trkpt>
      <trkpt lat="48.25244" lon="-3.43497">
        <ele>141.8</ele>
        <time>2022-06-12T14:22:30Z</time>
      </trkpt>
      <trkpt lat="48.25243" lon="-3.43496">
        <ele>141.8</ele>
        <time>2022-06-12T14:22:31Z</time>
      </trkpt>
      <trkpt lat="48.25243" lon="-3.43495">
        <ele>141.8</ele>
        <time>2022-06-12T14:22:32Z</time>
      </trkpt>
      <trkpt lat="48.25242" lon="-3.43494">
        <ele>141.8</ele>
        <time>2022-06-12T14:22:33Z</time>
      </trkpt>
      <trkpt lat="48.25241" lon="-3.43493">
        <ele>141.8</ele>
        <time>2022-06-12T14:22:34Z</time>
      </trkpt>
      <trkpt lat="48.2524" lon="-3.43492">
        <ele>141.8</ele>
        <time>2022-06-12T14:22:36Z</time>
      </trkpt>
      <trkpt lat="48.2524" lon="-3.43491">
        <ele>141.8</ele>
        <time>2022-06-12T14:22:37Z</time>
      </trkpt>
      <trkpt lat="48.25239" lon="-3.4349">
        <ele>141.8</ele>
        <time>2022-06-12T14:22:38Z</time>
      </trkpt>
      <trkpt lat="48.25238" lon="-3.43488">
        <ele>141.8</ele>
        <time>2022-06-12T14:22:39Z</time>
      </trkpt>
      <trkpt lat="48.25237" lon="-3.43487">
        <ele>141.8</ele>
        <time>2022-06-12T14:22:40Z</time>
      </trkpt>
      <trkpt lat="48.25237" lon="-3.43485">
        <ele>141.8</ele>
        <time>2022-06-12T14:22:41Z</time>
      </trkpt>
      <trkpt lat="48.25237" lon="-3.43484">
        <ele>141.8</ele>
        <time>2022-06-12T14:22:42Z</time>
      </trkpt>
      <trkpt lat="48.25238" lon="-3.43482">
        <ele>141.8</ele>
        <time>2022-06-12T14:22:43Z</time>
      </trkpt>
      <trkpt lat="48.25237" lon="-3.4348">
        <ele>141.8</ele>
        <time>2022-06-12T14:22:45Z</time>
      </trkpt>
      <trkpt lat="48.25238" lon="-3.43478">
        <ele>141.8</ele>
        <time>2022-06-12T14:22:46Z</time>
      </trkpt>
      <trkpt lat="48.25238" lon="-3.43477">
        <ele>141.8</ele>
        <time>2022-06-12T14:22:47Z</time>
      </trkpt>
      <trkpt lat="48.25238" lon="-3.43476">
        <ele>141.8</ele>
        <time>2022-06-12T14:22:48Z</time>
      </trkpt>
      <trkpt lat="48.25238" lon="-3.43475">
        <ele>141.8</ele>
        <time>2022-06-12T14:22:50Z</time>
      </trkpt>
      <trkpt lat="48.25237" lon="-3.43473">
        <ele>141.8</ele>
        <time>2022-06-12T14:22:51Z</time>
      </trkpt>
      <trkpt lat="48.25236" lon="-3.43472">
        <ele>141.8</ele>
        <time>2022-06-12T14:22:52Z</time>
      </trkpt>
      <trkpt lat="48.25235" lon="-3.43471">
        <ele>141.8</ele>
        <time>2022-06-12T14:22:53Z</time>
      </trkpt>
      <trkpt lat="48.25235" lon="-3.4347">
        <ele>141.8</ele>
        <time>2022-06-12T14:22:54Z</time>
      </trkpt>
      <trkpt lat="48.25234" lon="-3.43469">
        <ele>141.8</ele>
        <time>2022-06-12T14:22:55Z</time>
      </trkpt>
      <trkpt lat="48.25232" lon="-3.43467">
        <ele>141.8</ele>
        <time>2022-06-12T14:22:57Z</time>
      </trkpt>
      <trkpt lat="48.25231" lon="-3.43465">
        <ele>141.8</ele>
        <time>2022-06-12T14:22:58Z</time>
      </trkpt>
      <trkpt lat="48.2523" lon="-3.43464">
        <ele>141.8</ele>
        <time>2022-06-12T14:22:59Z</time>
      </trkpt>
      <trkpt lat="48.25229" lon="-3.43462">
        <ele>141.8</ele>
        <time>2022-06-12T14:23:00Z</time>
      </trkpt>
      <trkpt lat="48.25228" lon="-3.43461">
        <ele>141.8</ele>
        <time>2022-06-12T14:23:02Z</time>
      </trkpt>
      <trkpt lat="48.25227" lon="-3.43458">
        <ele>141.8</ele>
        <time>2022-06-12T14:23:03Z</time>
      </trkpt>
      <trkpt lat="48.25226" lon="-3.43457">
        <ele>141.8</ele>
        <time>2022-06-12T14:23:04Z</time>
      </trkpt>
      <trkpt lat="48.25225" lon="-3.43455">
        <ele>141.8</ele>
        <time>2022-06-12T14:23:06Z</time>
      </trkpt>
      <trkpt lat="48.25224" lon="-3.43453">
        <ele>141.8</ele>
        <time>2022-06-12T14:23:07Z</time>
      </trkpt>
      <trkpt lat="48.25223" lon="-3.43451">
        <ele>141.8</ele>
        <time>2022-06-12T14:23:08Z</time>
      </trkpt>
      <trkpt lat="48.25222" lon="-3.43449">
        <ele>141.8</ele>
        <time>2022-06-12T14:23:09Z</time>
      </trkpt>
      <trkpt lat="48.25222" lon="-3.43448">
        <ele>141.8</ele>
        <time>2022-06-12T14:23:10Z</time>
      </trkpt>
      <trkpt lat="48.25221" lon="-3.43446">
        <ele>141.8</ele>
        <time>2022-06-12T14:23:11Z</time>
      </trkpt>
      <trkpt lat="48.2522" lon="-3.43444">
        <ele>141.8</ele>
        <time>2022-06-12T14:23:12Z</time>
      </trkpt>
      <trkpt lat="48.25219" lon="-3.43442">
        <ele>141.8</ele>
        <time>2022-06-12T14:23:13Z</time>
      </trkpt>
      <trkpt lat="48.25219" lon="-3.4344">
        <ele>141.8</ele>
        <time>2022-06-12T14:23:14Z</time>
      </trkpt>
      <trkpt lat="48.25218" lon="-3.43438">
        <ele>141.8</ele>
        <time>2022-06-12T14:23:16Z</time>
      </trkpt>
      <trkpt lat="48.25217" lon="-3.43437">
        <ele>141.8</ele>
        <time>2022-06-12T14:23:17Z</time>
      </trkpt>
      <trkpt lat="48.25217" lon="-3.43435">
        <ele>141.9</ele>
        <time>2022-06-12T14:23:18Z</time>
      </trkpt>
      <trkpt lat="48.25216" lon="-3.43434">
        <ele>141.9</ele>
        <time>2022-06-12T14:23:19Z</time>
      </trkpt>
      <trkpt lat="48.25215" lon="-3.43432">
        <ele>141.9</ele>
        <time>2022-06-12T14:23:20Z</time>
      </trkpt>
      <trkpt lat="48.25214" lon="-3.43431">
        <ele>141.9</ele>
        <time>2022-06-12T14:23:22Z</time>
      </trkpt>
      <trkpt lat="48.25213" lon="-3.43428">
        <ele>141.9</ele>
        <time>2022-06-12T14:23:23Z</time>
      </trkpt>
      <trkpt lat="48.25212" lon="-3.43427">
        <ele>141.9</ele>
        <time>2022-06-12T14:23:24Z</time>
      </trkpt>
      <trkpt lat="48.25212" lon="-3.43426">
        <ele>141.9</ele>
        <time>2022-06-12T14:23:25Z</time>
      </trkpt>
      <trkpt lat="48.25211" lon="-3.43425">
        <ele>142</ele>
        <time>2022-06-12T14:23:26Z</time>
      </trkpt>
      <trkpt lat="48.2521" lon="-3.43424">
        <ele>142</ele>
        <time>2022-06-12T14:23:27Z</time>
      </trkpt>
      <trkpt lat="48.25208" lon="-3.43422">
        <ele>142</ele>
        <time>2022-06-12T14:23:28Z</time>
      </trkpt>
      <trkpt lat="48.25207" lon="-3.43421">
        <ele>142</ele>
        <time>2022-06-12T14:23:30Z</time>
      </trkpt>
      <trkpt lat="48.25206" lon="-3.4342">
        <ele>142.1</ele>
        <time>2022-06-12T14:23:31Z</time>
      </trkpt>
      <trkpt lat="48.25205" lon="-3.43419">
        <ele>142.1</ele>
        <time>2022-06-12T14:23:32Z</time>
      </trkpt>
      <trkpt lat="48.25204" lon="-3.43418">
        <ele>142.1</ele>
        <time>2022-06-12T14:23:33Z</time>
      </trkpt>
      <trkpt lat="48.25203" lon="-3.43417">
        <ele>142.1</ele>
        <time>2022-06-12T14:23:34Z</time>
      </trkpt>
      <trkpt lat="48.25203" lon="-3.43416">
        <ele>142.1</ele>
        <time>2022-06-12T14:23:35Z</time>
      </trkpt>
      <trkpt lat="48.25202" lon="-3.43416">
        <ele>142.2</ele>
        <time>2022-06-12T14:23:36Z</time>
      </trkpt>
      <trkpt lat="48.25201" lon="-3.43415">
        <ele>142.2</ele>
        <time>2022-06-12T14:23:37Z</time>
      </trkpt>
      <trkpt lat="48.25199" lon="-3.43413">
        <ele>142.2</ele>
        <time>2022-06-12T14:23:39Z</time>
      </trkpt>
      <trkpt lat="48.25199" lon="-3.43413">
        <ele>142.3</ele>
        <time>2022-06-12T14:23:40Z</time>
      </trkpt>
      <trkpt lat="48.25198" lon="-3.43412">
        <ele>142.3</ele>
        <time>2022-06-12T14:23:41Z</time>
      </trkpt>
      <trkpt lat="48.25197" lon="-3.43411">
        <ele>142.3</ele>
        <time>2022-06-12T14:23:42Z</time>
      </trkpt>
      <trkpt lat="48.25196" lon="-3.43409">
        <ele>142.4</ele>
        <time>2022-06-12T14:23:43Z</time>
      </trkpt>
      <trkpt lat="48.25195" lon="-3.43409">
        <ele>142.4</ele>
        <time>2022-06-12T14:23:44Z</time>
      </trkpt>
      <trkpt lat="48.25195" lon="-3.43408">
        <ele>142.4</ele>
        <time>2022-06-12T14:23:45Z</time>
      </trkpt>
      <trkpt lat="48.25194" lon="-3.43407">
        <ele>142.4</ele>
        <time>2022-06-12T14:23:46Z</time>
      </trkpt>
      <trkpt lat="48.25193" lon="-3.43406">
        <ele>142.5</ele>
        <time>2022-06-12T14:23:47Z</time>
      </trkpt>
      <trkpt lat="48.25192" lon="-3.43404">
        <ele>142.5</ele>
        <time>2022-06-12T14:23:49Z</time>
      </trkpt>
      <trkpt lat="48.25191" lon="-3.43402">
        <ele>142.6</ele>
        <time>2022-06-12T14:23:50Z</time>
      </trkpt>
      <trkpt lat="48.25191" lon="-3.43401">
        <ele>142.6</ele>
        <time>2022-06-12T14:23:51Z</time>
      </trkpt>
      <trkpt lat="48.2519" lon="-3.434">
        <ele>142.6</ele>
        <time>2022-06-12T14:23:53Z</time>
      </trkpt>
      <trkpt lat="48.25189" lon="-3.43398">
        <ele>142.7</ele>
        <time>2022-06-12T14:23:54Z</time>
      </trkpt>
      <trkpt lat="48.25189" lon="-3.43397">
        <ele>142.7</ele>
        <time>2022-06-12T14:23:55Z</time>
      </trkpt>
      <trkpt lat="48.25188" lon="-3.43396">
        <ele>142.7</ele>
        <time>2022-06-12T14:23:56Z</time>
      </trkpt>
      <trkpt lat="48.25188" lon="-3.43395">
        <ele>142.8</ele>
        <time>2022-06-12T14:23:57Z</time>
      </trkpt>
      <trkpt lat="48.25187" lon="-3.43392">
        <ele>142.8</ele>
        <time>2022-06-12T14:23:58Z</time>
      </trkpt>
      <trkpt lat="48.25186" lon="-3.4339">
        <ele>142.9</ele>
        <time>2022-06-12T14:23:59Z</time>
      </trkpt>
      <trkpt lat="48.25185" lon="-3.43389">
        <ele>142.9</ele>
        <time>2022-06-12T14:24:00Z</time>
      </trkpt>
      <trkpt lat="48.25185" lon="-3.43388">
        <ele>142.9</ele>
        <time>2022-06-12T14:24:01Z</time>
      </trkpt>
      <trkpt lat="48.25185" lon="-3.43388">
        <ele>143</ele>
        <time>2022-06-12T14:24:02Z</time>
      </trkpt>
      <trkpt lat="48.25184" lon="-3.43385">
        <ele>143</ele>
        <time>2022-06-12T14:24:03Z</time>
      </trkpt>
      <trkpt lat="48.25183" lon="-3.43384">
        <ele>143.1</ele>
        <time>2022-06-12T14:24:04Z</time>
      </trkpt>
      <trkpt lat="48.25183" lon="-3.43383">
        <ele>143.1</ele>
        <time>2022-06-12T14:24:05Z</time>
      </trkpt>
      <trkpt lat="48.25182" lon="-3.43382">
        <ele>143.1</ele>
        <time>2022-06-12T14:24:06Z</time>
      </trkpt>
      <trkpt lat="48.25182" lon="-3.4338">
        <ele>143.2</ele>
        <time>2022-06-12T14:24:07Z</time>
      </trkpt>
      <trkpt lat="48.25181" lon="-3.43377">
        <ele>143.3</ele>
        <time>2022-06-12T14:24:08Z</time>
      </trkpt>
      <trkpt lat="48.25181" lon="-3.43376">
        <ele>143.3</ele>
        <time>2022-06-12T14:24:09Z</time>
      </trkpt>
      <trkpt lat="48.2518" lon="-3.43373">
        <ele>143.4</ele>
        <time>2022-06-12T14:24:10Z</time>
      </trkpt>
      <trkpt lat="48.25179" lon="-3.43372">
        <ele>143.4</ele>
        <time>2022-06-12T14:24:12Z</time>
      </trkpt>
      <trkpt lat="48.25179" lon="-3.4337">
        <ele>143.4</ele>
        <time>2022-06-12T14:24:13Z</time>
      </trkpt>
      <trkpt lat="48.25178" lon="-3.43369">
        <ele>143.5</ele>
        <time>2022-06-12T14:24:14Z</time>
      </trkpt>
      <trkpt lat="48.25178" lon="-3.43367">
        <ele>143.5</ele>
        <time>2022-06-12T14:24:15Z</time>
      </trkpt>
      <trkpt lat="48.25177" lon="-3.43366">
        <ele>143.6</ele>
        <time>2022-06-12T14:24:16Z</time>
      </trkpt>
      <trkpt lat="48.25176" lon="-3.43364">
        <ele>143.6</ele>
        <time>2022-06-12T14:24:17Z</time>
      </trkpt>
      <trkpt lat="48.25175" lon="-3.43362">
        <ele>143.7</ele>
        <time>2022-06-12T14:24:19Z</time>
      </trkpt>
      <trkpt lat="48.25175" lon="-3.43361">
        <ele>143.7</ele>
        <time>2022-06-12T14:24:20Z</time>
      </trkpt>
      <trkpt lat="48.25175" lon="-3.43359">
        <ele>143.8</ele>
        <time>2022-06-12T14:24:21Z</time>
      </trkpt>
      <trkpt lat="48.25174" lon="-3.43358">
        <ele>143.8</ele>
        <time>2022-06-12T14:24:22Z</time>
      </trkpt>
      <trkpt lat="48.25173" lon="-3.43356">
        <ele>143.9</ele>
        <time>2022-06-12T14:24:23Z</time>
      </trkpt>
      <trkpt lat="48.25172" lon="-3.43355">
        <ele>143.9</ele>
        <time>2022-06-12T14:24:24Z</time>
      </trkpt>
      <trkpt lat="48.25172" lon="-3.43354">
        <ele>143.9</ele>
        <time>2022-06-12T14:24:26Z</time>
      </trkpt>
      <trkpt lat="48.25171" lon="-3.43352">
        <ele>143.9</ele>
        <time>2022-06-12T14:24:27Z</time>
      </trkpt>
      <trkpt lat="48.2517" lon="-3.4335">
        <ele>143.9</ele>
        <time>2022-06-12T14:24:28Z</time>
      </trkpt>
      <trkpt lat="48.25169" lon="-3.43349">
        <ele>144</ele>
        <time>2022-06-12T14:24:30Z</time>
      </trkpt>
      <trkpt lat="48.25168" lon="-3.43348">
        <ele>144</ele>
        <time>2022-06-12T14:24:31Z</time>
      </trkpt>
      <trkpt lat="48.25167" lon="-3.43347">
        <ele>144</ele>
        <time>2022-06-12T14:24:32Z</time>
      </trkpt>
      <trkpt lat="48.25166" lon="-3.43346">
        <ele>144</ele>
        <time>2022-06-12T14:24:33Z</time>
      </trkpt>
      <trkpt lat="48.25165" lon="-3.43345">
        <ele>144</ele>
        <time>2022-06-12T14:24:34Z</time>
      </trkpt>
      <trkpt lat="48.25165" lon="-3.43344">
        <ele>144</ele>
        <time>2022-06-12T14:24:35Z</time>
      </trkpt>
      <trkpt lat="48.25164" lon="-3.43343">
        <ele>144.1</ele>
        <time>2022-06-12T14:24:36Z</time>
      </trkpt>
      <trkpt lat="48.25162" lon="-3.43341">
        <ele>144.1</ele>
        <time>2022-06-12T14:24:38Z</time>
      </trkpt>
      <trkpt lat="48.25162" lon="-3.4334">
        <ele>144.1</ele>
        <time>2022-06-12T14:24:39Z</time>
      </trkpt>
      <trkpt lat="48.25161" lon="-3.43339">
        <ele>144.1</ele>
        <time>2022-06-12T14:24:40Z</time>
      </trkpt>
      <trkpt lat="48.25161" lon="-3.43337">
        <ele>144.1</ele>
        <time>2022-06-12T14:24:42Z</time>
      </trkpt>
      <trkpt lat="48.2516" lon="-3.43336">
        <ele>144.1</ele>
        <time>2022-06-12T14:24:43Z</time>
      </trkpt>
      <trkpt lat="48.25159" lon="-3.43334">
        <ele>144.1</ele>
        <time>2022-06-12T14:24:44Z</time>
      </trkpt>
      <trkpt lat="48.25159" lon="-3.43332">
        <ele>144.1</ele>
        <time>2022-06-12T14:24:45Z</time>
      </trkpt>
      <trkpt lat="48.25158" lon="-3.4333">
        <ele>144.1</ele>
        <time>2022-06-12T14:24:46Z</time>
      </trkpt>
      <trkpt lat="48.25158" lon="-3.43328">
        <ele>144.1</ele>
        <time>2022-06-12T14:24:47Z</time>
      </trkpt>
      <trkpt lat="48.25158" lon="-3.43327">
        <ele>144.1</ele>
        <time>2022-06-12T14:24:48Z</time>
      </trkpt>
      <trkpt lat="48.25157" lon="-3.43324">
        <ele>144.1</ele>
        <time>2022-06-12T14:24:49Z</time>
      </trkpt>
      <trkpt lat="48.25157" lon="-3.43323">
        <ele>144.1</ele>
        <time>2022-06-12T14:24:50Z</time>
      </trkpt>
      <trkpt lat="48.25156" lon="-3.43322">
        <ele>144.1</ele>
        <time>2022-06-12T14:24:51Z</time>
      </trkpt>
      <trkpt lat="48.25156" lon="-3.4332">
        <ele>144.1</ele>
        <time>2022-06-12T14:24:53Z</time>
      </trkpt>
      <trkpt lat="48.25156" lon="-3.43318">
        <ele>144.1</ele>
        <time>2022-06-12T14:24:54Z</time>
      </trkpt>
      <trkpt lat="48.25157" lon="-3.43314">
        <ele>144.1</ele>
        <time>2022-06-12T14:24:55Z</time>
      </trkpt>
      <trkpt lat="48.25157" lon="-3.43312">
        <ele>144.1</ele>
        <time>2022-06-12T14:24:56Z</time>
      </trkpt>
      <trkpt lat="48.25156" lon="-3.43309">
        <ele>144.1</ele>
        <time>2022-06-12T14:24:58Z</time>
      </trkpt>
      <trkpt lat="48.25156" lon="-3.43307">
        <ele>144.1</ele>
        <time>2022-06-12T14:24:59Z</time>
      </trkpt>
      <trkpt lat="48.25155" lon="-3.43305">
        <ele>144.1</ele>
        <time>2022-06-12T14:25:00Z</time>
      </trkpt>
      <trkpt lat="48.25155" lon="-3.43305">
        <ele>144.1</ele>
        <time>2022-06-12T14:25:01Z</time>
      </trkpt>
      <trkpt lat="48.25154" lon="-3.43303">
        <ele>144.1</ele>
        <time>2022-06-12T14:25:02Z</time>
      </trkpt>
      <trkpt lat="48.25153" lon="-3.43302">
        <ele>144.1</ele>
        <time>2022-06-12T14:25:03Z</time>
      </trkpt>
      <trkpt lat="48.25152" lon="-3.43301">
        <ele>144.1</ele>
        <time>2022-06-12T14:25:04Z</time>
      </trkpt>
      <trkpt lat="48.25151" lon="-3.43298">
        <ele>144.1</ele>
        <time>2022-06-12T14:25:06Z</time>
      </trkpt>
      <trkpt lat="48.2515" lon="-3.43295">
        <ele>144.1</ele>
        <time>2022-06-12T14:25:07Z</time>
      </trkpt>
      <trkpt lat="48.25149" lon="-3.43294">
        <ele>144.1</ele>
        <time>2022-06-12T14:25:08Z</time>
      </trkpt>
      <trkpt lat="48.25148" lon="-3.43293">
        <ele>144.1</ele>
        <time>2022-06-12T14:25:09Z</time>
      </trkpt>
      <trkpt lat="48.25148" lon="-3.43292">
        <ele>144.1</ele>
        <time>2022-06-12T14:25:11Z</time>
      </trkpt>
      <trkpt lat="48.25147" lon="-3.4329">
        <ele>144.1</ele>
        <time>2022-06-12T14:25:12Z</time>
      </trkpt>
      <trkpt lat="48.25146" lon="-3.43289">
        <ele>144.1</ele>
        <time>2022-06-12T14:25:13Z</time>
      </trkpt>
      <trkpt lat="48.25146" lon="-3.43287">
        <ele>144.1</ele>
        <time>2022-06-12T14:25:14Z</time>
      </trkpt>
      <trkpt lat="48.25144" lon="-3.43285">
        <ele>144.1</ele>
        <time>2022-06-12T14:25:15Z</time>
      </trkpt>
      <trkpt lat="48.25144" lon="-3.43284">
        <ele>144.1</ele>
        <time>2022-06-12T14:25:16Z</time>
      </trkpt>
      <trkpt lat="48.25143" lon="-3.43282">
        <ele>144.1</ele>
        <time>2022-06-12T14:25:17Z</time>
      </trkpt>
      <trkpt lat="48.25142" lon="-3.43281">
        <ele>144.1</ele>
        <time>2022-06-12T14:25:18Z</time>
      </trkpt>
      <trkpt lat="48.25142" lon="-3.43279">
        <ele>144.1</ele>
        <time>2022-06-12T14:25:19Z</time>
      </trkpt>
      <trkpt lat="48.25141" lon="-3.43277">
        <ele>144.1</ele>
        <time>2022-06-12T14:25:21Z</time>
      </trkpt>
      <trkpt lat="48.2514" lon="-3.43276">
        <ele>144.1</ele>
        <time>2022-06-12T14:25:22Z</time>
      </trkpt>
      <trkpt lat="48.25139" lon="-3.43275">
        <ele>144.1</ele>
        <time>2022-06-12T14:25:23Z</time>
      </trkpt>
      <trkpt lat="48.25138" lon="-3.43273">
        <ele>144.1</ele>
        <time>2022-06-12T14:25:24Z</time>
      </trkpt>
      <trkpt lat="48.25137" lon="-3.43271">
        <ele>144</ele>
        <time>2022-06-12T14:25:25Z</time>
      </trkpt>
      <trkpt lat="48.25136" lon="-3.4327">
        <ele>144</ele>
        <time>2022-06-12T14:25:27Z</time>
      </trkpt>
      <trkpt lat="48.25136" lon="-3.43268">
        <ele>144</ele>
        <time>2022-06-12T14:25:28Z</time>
      </trkpt>
      <trkpt lat="48.25135" lon="-3.43267">
        <ele>144</ele>
        <time>2022-06-12T14:25:29Z</time>
      </trkpt>
      <trkpt lat="48.25134" lon="-3.43264">
        <ele>144</ele>
        <time>2022-06-12T14:25:31Z</time>
      </trkpt>
      <trkpt lat="48.25133" lon="-3.43261">
        <ele>144</ele>
        <time>2022-06-12T14:25:32Z</time>
      </trkpt>
      <trkpt lat="48.25132" lon="-3.4326">
        <ele>144</ele>
        <time>2022-06-12T14:25:33Z</time>
      </trkpt>
      <trkpt lat="48.25132" lon="-3.43259">
        <ele>144</ele>
        <time>2022-06-12T14:25:34Z</time>
      </trkpt>
      <trkpt lat="48.25132" lon="-3.43257">
        <ele>144</ele>
        <time>2022-06-12T14:25:35Z</time>
      </trkpt>
      <trkpt lat="48.25132" lon="-3.43255">
        <ele>144</ele>
        <time>2022-06-12T14:25:36Z</time>
      </trkpt>
      <trkpt lat="48.25132" lon="-3.43251">
        <ele>144</ele>
        <time>2022-06-12T14:25:37Z</time>
      </trkpt>
      <trkpt lat="48.25131" lon="-3.43249">
        <ele>144</ele>
        <time>2022-06-12T14:25:39Z</time>
      </trkpt>
      <trkpt lat="48.25131" lon="-3.43247">
        <ele>144</ele>
        <time>2022-06-12T14:25:40Z</time>
      </trkpt>
      <trkpt lat="48.2513" lon="-3.43245">
        <ele>144</ele>
        <time>2022-06-12T14:25:41Z</time>
      </trkpt>
      <trkpt lat="48.25128" lon="-3.43242">
        <ele>144</ele>
        <time>2022-06-12T14:25:42Z</time>
      </trkpt>
      <trkpt lat="48.25127" lon="-3.4324">
        <ele>144</ele>
        <time>2022-06-12T14:25:44Z</time>
      </trkpt>
      <trkpt lat="48.25126" lon="-3.43239">
        <ele>144</ele>
        <time>2022-06-12T14:25:45Z</time>
      </trkpt>
      <trkpt lat="48.25125" lon="-3.43238">
        <ele>144</ele>
        <time>2022-06-12T14:25:46Z</time>
      </trkpt>
      <trkpt lat="48.25125" lon="-3.43237">
        <ele>144</ele>
        <time>2022-06-12T14:25:47Z</time>
      </trkpt>
      <trkpt lat="48.25124" lon="-3.43236">
        <ele>144</ele>
        <time>2022-06-12T14:25:49Z</time>
      </trkpt>
      <trkpt lat="48.25123" lon="-3.43235">
        <ele>144</ele>
        <time>2022-06-12T14:25:50Z</time>
      </trkpt>
      <trkpt lat="48.25122" lon="-3.43234">
        <ele>144</ele>
        <time>2022-06-12T14:25:51Z</time>
      </trkpt>
      <trkpt lat="48.2512" lon="-3.43232">
        <ele>144</ele>
        <time>2022-06-12T14:25:52Z</time>
      </trkpt>
      <trkpt lat="48.25119" lon="-3.43231">
        <ele>144</ele>
        <time>2022-06-12T14:25:53Z</time>
      </trkpt>
      <trkpt lat="48.25118" lon="-3.43229">
        <ele>144</ele>
        <time>2022-06-12T14:25:54Z</time>
      </trkpt>
      <trkpt lat="48.25117" lon="-3.43228">
        <ele>144</ele>
        <time>2022-06-12T14:25:55Z</time>
      </trkpt>
      <trkpt lat="48.25116" lon="-3.43228">
        <ele>144</ele>
        <time>2022-06-12T14:25:56Z</time>
      </trkpt>
      <trkpt lat="48.25116" lon="-3.43226">
        <ele>144</ele>
        <time>2022-06-12T14:25:57Z</time>
      </trkpt>
      <trkpt lat="48.25115" lon="-3.43225">
        <ele>144</ele>
        <time>2022-06-12T14:25:59Z</time>
      </trkpt>
      <trkpt lat="48.25115" lon="-3.43224">
        <ele>144</ele>
        <time>2022-06-12T14:26:00Z</time>
      </trkpt>
      <trkpt lat="48.25114" lon="-3.43223">
        <ele>144</ele>
        <time>2022-06-12T14:26:01Z</time>
      </trkpt>
      <trkpt lat="48.25113" lon="-3.43221">
        <ele>144.1</ele>
        <time>2022-06-12T14:26:02Z</time>
      </trkpt>
      <trkpt lat="48.25112" lon="-3.4322">
        <ele>144.1</ele>
        <time>2022-06-12T14:26:03Z</time>
      </trkpt>
      <trkpt lat="48.25112" lon="-3.43219">
        <ele>144.1</ele>
        <time>2022-06-12T14:26:04Z</time>
      </trkpt>
      <trkpt lat="48.25112" lon="-3.43218">
        <ele>144.1</ele>
        <time>2022-06-12T14:26:05Z</time>
      </trkpt>
      <trkpt lat="48.25111" lon="-3.43217">
        <ele>144.1</ele>
        <time>2022-06-12T14:26:06Z</time>
      </trkpt>
      <trkpt lat="48.2511" lon="-3.43216">
        <ele>144.1</ele>
        <time>2022-06-12T14:26:07Z</time>
      </trkpt>
      <trkpt lat="48.25109" lon="-3.43214">
        <ele>144.1</ele>
        <time>2022-06-12T14:26:08Z</time>
      </trkpt>
      <trkpt lat="48.25108" lon="-3.43212">
        <ele>144.1</ele>
        <time>2022-06-12T14:26:10Z</time>
      </trkpt>
      <trkpt lat="48.25107" lon="-3.43212">
        <ele>144.1</ele>
        <time>2022-06-12T14:26:11Z</time>
      </trkpt>
      <trkpt lat="48.25106" lon="-3.43211">
        <ele>144.1</ele>
        <time>2022-06-12T14:26:12Z</time>
      </trkpt>
      <trkpt lat="48.25105" lon="-3.4321">
        <ele>144.1</ele>
        <time>2022-06-12T14:26:13Z</time>
      </trkpt>
      <trkpt lat="48.25104" lon="-3.43209">
        <ele>144.1</ele>
        <time>2022-06-12T14:26:14Z</time>
      </trkpt>
      <trkpt lat="48.25102" lon="-3.43208">
        <ele>144.1</ele>
        <time>2022-06-12T14:26:15Z</time>
      </trkpt>
      <trkpt lat="48.25101" lon="-3.43207">
        <ele>144.1</ele>
        <time>2022-06-12T14:26:16Z</time>
      </trkpt>
      <trkpt lat="48.251" lon="-3.43207">
        <ele>144.1</ele>
        <time>2022-06-12T14:26:17Z</time>
      </trkpt>
      <trkpt lat="48.25099" lon="-3.43206">
        <ele>144.1</ele>
        <time>2022-06-12T14:26:18Z</time>
      </trkpt>
      <trkpt lat="48.25097" lon="-3.43205">
        <ele>144.1</ele>
        <time>2022-06-12T14:26:19Z</time>
      </trkpt>
      <trkpt lat="48.25096" lon="-3.43205">
        <ele>144.1</ele>
        <time>2022-06-12T14:26:21Z</time>
      </trkpt>
      <trkpt lat="48.25095" lon="-3.43205">
        <ele>144.1</ele>
        <time>2022-06-12T14:26:22Z</time>
      </trkpt>
      <trkpt lat="48.25094" lon="-3.43205">
        <ele>144.1</ele>
        <time>2022-06-12T14:26:23Z</time>
      </trkpt>
      <trkpt lat="48.25093" lon="-3.43205">
        <ele>144.1</ele>
        <time>2022-06-12T14:26:24Z</time>
      </trkpt>
      <trkpt lat="48.25092" lon="-3.43205">
        <ele>144.1</ele>
        <time>2022-06-12T14:26:25Z</time>
      </trkpt>
      <trkpt lat="48.25092" lon="-3.43205">
        <ele>144.1</ele>
        <time>2022-06-12T14:26:26Z</time>
      </trkpt>
      <trkpt lat="48.25091" lon="-3.43204">
        <ele>144.1</ele>
        <time>2022-06-12T14:26:27Z</time>
      </trkpt>
      <trkpt lat="48.2509" lon="-3.43204">
        <ele>144.1</ele>
        <time>2022-06-12T14:26:28Z</time>
      </trkpt>
      <trkpt lat="48.25089" lon="-3.43204">
        <ele>144.1</ele>
        <time>2022-06-12T14:26:29Z</time>
      </trkpt>
      <trkpt lat="48.25087" lon="-3.43203">
        <ele>144.1</ele>
        <time>2022-06-12T14:26:31Z</time>
      </trkpt>
      <trkpt lat="48.25086" lon="-3.43203">
        <ele>144.1</ele>
        <time>2022-06-12T14:26:32Z</time>
      </trkpt>
      <trkpt lat="48.25084" lon="-3.43203">
        <ele>144.1</ele>
        <time>2022-06-12T14:26:33Z</time>
      </trkpt>
      <trkpt lat="48.25083" lon="-3.43203">
        <ele>144.1</ele>
        <time>2022-06-12T14:26:34Z</time>
      </trkpt>
      <trkpt lat="48.25082" lon="-3.43203">
        <ele>144.2</ele>
        <time>2022-06-12T14:26:35Z</time>
      </trkpt>
      <trkpt lat="48.25082" lon="-3.43202">
        <ele>144.2</ele>
        <time>2022-06-12T14:26:36Z</time>
      </trkpt>
      <trkpt lat="48.25081" lon="-3.43202">
        <ele>144.2</ele>
        <time>2022-06-12T14:26:37Z</time>
      </trkpt>
      <trkpt lat="48.2508" lon="-3.43202">
        <ele>144.2</ele>
        <time>2022-06-12T14:26:38Z</time>
      </trkpt>
      <trkpt lat="48.25079" lon="-3.43202">
        <ele>144.2</ele>
        <time>2022-06-12T14:26:39Z</time>
      </trkpt>
      <trkpt lat="48.25077" lon="-3.43201">
        <ele>144.2</ele>
        <time>2022-06-12T14:26:40Z</time>
      </trkpt>
      <trkpt lat="48.25076" lon="-3.432">
        <ele>144.2</ele>
        <time>2022-06-12T14:26:42Z</time>
      </trkpt>
      <trkpt lat="48.25075" lon="-3.432">
        <ele>144.2</ele>
        <time>2022-06-12T14:26:43Z</time>
      </trkpt>
      <trkpt lat="48.25074" lon="-3.432">
        <ele>144.2</ele>
        <time>2022-06-12T14:26:44Z</time>
      </trkpt>
      <trkpt lat="48.25073" lon="-3.43199">
        <ele>144.2</ele>
        <time>2022-06-12T14:26:45Z</time>
      </trkpt>
      <trkpt lat="48.25072" lon="-3.43199">
        <ele>144.2</ele>
        <time>2022-06-12T14:26:46Z</time>
      </trkpt>
      <trkpt lat="48.2507" lon="-3.43198">
        <ele>144.2</ele>
        <time>2022-06-12T14:26:48Z</time>
      </trkpt>
      <trkpt lat="48.25069" lon="-3.43198">
        <ele>144.2</ele>
        <time>2022-06-12T14:26:49Z</time>
      </trkpt>
      <trkpt lat="48.25068" lon="-3.43197">
        <ele>144.2</ele>
        <time>2022-06-12T14:26:50Z</time>
      </trkpt>
      <trkpt lat="48.25067" lon="-3.43197">
        <ele>144.2</ele>
        <time>2022-06-12T14:26:51Z</time>
      </trkpt>
      <trkpt lat="48.25066" lon="-3.43196">
        <ele>144.2</ele>
        <time>2022-06-12T14:26:52Z</time>
      </trkpt>
      <trkpt lat="48.25065" lon="-3.43196">
        <ele>144.2</ele>
        <time>2022-06-12T14:26:53Z</time>
      </trkpt>
      <trkpt lat="48.25063" lon="-3.43194">
        <ele>144.2</ele>
        <time>2022-06-12T14:26:54Z</time>
      </trkpt>
      <trkpt lat="48.25062" lon="-3.43194">
        <ele>144.2</ele>
        <time>2022-06-12T14:26:55Z</time>
      </trkpt>
      <trkpt lat="48.2506" lon="-3.43193">
        <ele>144.2</ele>
        <time>2022-06-12T14:26:57Z</time>
      </trkpt>
      <trkpt lat="48.2506" lon="-3.43193">
        <ele>144.2</ele>
        <time>2022-06-12T14:26:58Z</time>
      </trkpt>
      <trkpt lat="48.25059" lon="-3.43192">
        <ele>144.2</ele>
        <time>2022-06-12T14:26:59Z</time>
      </trkpt>
      <trkpt lat="48.25056" lon="-3.43191">
        <ele>144.2</ele>
        <time>2022-06-12T14:27:00Z</time>
      </trkpt>
      <trkpt lat="48.25055" lon="-3.43191">
        <ele>144.2</ele>
        <time>2022-06-12T14:27:01Z</time>
      </trkpt>
      <trkpt lat="48.25054" lon="-3.4319">
        <ele>144.2</ele>
        <time>2022-06-12T14:27:03Z</time>
      </trkpt>
      <trkpt lat="48.25053" lon="-3.43189">
        <ele>144.2</ele>
        <time>2022-06-12T14:27:04Z</time>
      </trkpt>
      <trkpt lat="48.2505" lon="-3.43187">
        <ele>144.2</ele>
        <time>2022-06-12T14:27:06Z</time>
      </trkpt>
      <trkpt lat="48.25049" lon="-3.43187">
        <ele>144.2</ele>
        <time>2022-06-12T14:27:07Z</time>
      </trkpt>
      <trkpt lat="48.25047" lon="-3.43186">
        <ele>144.2</ele>
        <time>2022-06-12T14:27:08Z</time>
      </trkpt>
      <trkpt lat="48.25046" lon="-3.43185">
        <ele>144.2</ele>
        <time>2022-06-12T14:27:09Z</time>
      </trkpt>
      <trkpt lat="48.25044" lon="-3.43183">
        <ele>144.2</ele>
        <time>2022-06-12T14:27:10Z</time>
      </trkpt>
      <trkpt lat="48.25043" lon="-3.43183">
        <ele>144.2</ele>
        <time>2022-06-12T14:27:11Z</time>
      </trkpt>
      <trkpt lat="48.25041" lon="-3.43181">
        <ele>144.2</ele>
        <time>2022-06-12T14:27:13Z</time>
      </trkpt>
      <trkpt lat="48.2504" lon="-3.43181">
        <ele>144.2</ele>
        <time>2022-06-12T14:27:14Z</time>
      </trkpt>
      <trkpt lat="48.2504" lon="-3.4318">
        <ele>144.2</ele>
        <time>2022-06-12T14:27:15Z</time>
      </trkpt>
      <trkpt lat="48.25039" lon="-3.43179">
        <ele>144.2</ele>
        <time>2022-06-12T14:27:16Z</time>
      </trkpt>
      <trkpt lat="48.25038" lon="-3.43179">
        <ele>144.2</ele>
        <time>2022-06-12T14:27:17Z</time>
      </trkpt>
      <trkpt lat="48.25037" lon="-3.43178">
        <ele>144.2</ele>
        <time>2022-06-12T14:27:19Z</time>
      </trkpt>
      <trkpt lat="48.25035" lon="-3.43177">
        <ele>144.2</ele>
        <time>2022-06-12T14:27:20Z</time>
      </trkpt>
      <trkpt lat="48.25034" lon="-3.43176">
        <ele>144.2</ele>
        <time>2022-06-12T14:27:21Z</time>
      </trkpt>
      <trkpt lat="48.25033" lon="-3.43176">
        <ele>144.2</ele>
        <time>2022-06-12T14:27:22Z</time>
      </trkpt>
      <trkpt lat="48.25031" lon="-3.43175">
        <ele>144.2</ele>
        <time>2022-06-12T14:27:24Z</time>
      </trkpt>
      <trkpt lat="48.2503" lon="-3.43174">
        <ele>144.2</ele>
        <time>2022-06-12T14:27:25Z</time>
      </trkpt>
      <trkpt lat="48.25029" lon="-3.43174">
        <ele>144.2</ele>
        <time>2022-06-12T14:27:26Z</time>
      </trkpt>
      <trkpt lat="48.25028" lon="-3.43173">
        <ele>144.2</ele>
        <time>2022-06-12T14:27:27Z</time>
      </trkpt>
      <trkpt lat="48.25028" lon="-3.43173">
        <ele>144.2</ele>
        <time>2022-06-12T14:27:28Z</time>
      </trkpt>
      <trkpt lat="48.25027" lon="-3.43172">
        <ele>144.2</ele>
        <time>2022-06-12T14:27:29Z</time>
      </trkpt>
      <trkpt lat="48.25025" lon="-3.43172">
        <ele>144.2</ele>
        <time>2022-06-12T14:27:30Z</time>
      </trkpt>
      <trkpt lat="48.25025" lon="-3.43172">
        <ele>144.2</ele>
        <time>2022-06-12T14:27:31Z</time>
      </trkpt>
      <trkpt lat="48.25024" lon="-3.43172">
        <ele>144.2</ele>
        <time>2022-06-12T14:27:32Z</time>
      </trkpt>
      <trkpt lat="48.25023" lon="-3.43171">
        <ele>144.2</ele>
        <time>2022-06-12T14:27:33Z</time>
      </trkpt>
      <trkpt lat="48.25022" lon="-3.43171">
        <ele>144.2</ele>
        <time>2022-06-12T14:27:35Z</time>
      </trkpt>
      <trkpt lat="48.25021" lon="-3.4317">
        <ele>144.2</ele>
        <time>2022-06-12T14:27:36Z</time>
      </trkpt>
      <trkpt lat="48.25019" lon="-3.43169">
        <ele>144.2</ele>
        <time>2022-06-12T14:27:37Z</time>
      </trkpt>
      <trkpt lat="48.25018" lon="-3.43169">
        <ele>144.2</ele>
        <time>2022-06-12T14:27:38Z</time>
      </trkpt>
      <trkpt lat="48.25017" lon="-3.43168">
        <ele>144.2</ele>
        <time>2022-06-12T14:27:39Z</time>
      </trkpt>
      <trkpt lat="48.25016" lon="-3.43168">
        <ele>144.2</ele>
        <time>2022-06-12T14:27:40Z</time>
      </trkpt>
      <trkpt lat="48.25014" lon="-3.43166">
        <ele>144.2</ele>
        <time>2022-06-12T14:27:41Z</time>
      </trkpt>
      <trkpt lat="48.25014" lon="-3.43165">
        <ele>144.2</ele>
        <time>2022-06-12T14:27:42Z</time>
      </trkpt>
      <trkpt lat="48.25014" lon="-3.43164">
        <ele>144.2</ele>
        <time>2022-06-12T14:27:43Z</time>
      </trkpt>
      <trkpt lat="48.25013" lon="-3.43163">
        <ele>144.2</ele>
        <time>2022-06-12T14:27:44Z</time>
      </trkpt>
      <trkpt lat="48.25012" lon="-3.43162">
        <ele>144.2</ele>
        <time>2022-06-12T14:27:46Z</time>
      </trkpt>
      <trkpt lat="48.25011" lon="-3.43162">
        <ele>144.2</ele>
        <time>2022-06-12T14:27:47Z</time>
      </trkpt>
      <trkpt lat="48.2501" lon="-3.43161">
        <ele>144.2</ele>
        <time>2022-06-12T14:27:48Z</time>
      </trkpt>
      <trkpt lat="48.25009" lon="-3.43161">
        <ele>144.2</ele>
        <time>2022-06-12T14:27:49Z</time>
      </trkpt>
      <trkpt lat="48.25008" lon="-3.4316">
        <ele>144.2</ele>
        <time>2022-06-12T14:27:50Z</time>
      </trkpt>
      <trkpt lat="48.25007" lon="-3.43159">
        <ele>144.2</ele>
        <time>2022-06-12T14:27:51Z</time>
      </trkpt>
      <trkpt lat="48.25006" lon="-3.43158">
        <ele>144.2</ele>
        <time>2022-06-12T14:27:52Z</time>
      </trkpt>
      <trkpt lat="48.25005" lon="-3.43157">
        <ele>144.2</ele>
        <time>2022-06-12T14:27:53Z</time>
      </trkpt>
      <trkpt lat="48.25004" lon="-3.43156">
        <ele>144.2</ele>
        <time>2022-06-12T14:27:55Z</time>
      </trkpt>
      <trkpt lat="48.25002" lon="-3.43155">
        <ele>144.2</ele>
        <time>2022-06-12T14:27:56Z</time>
      </trkpt>
      <trkpt lat="48.25001" lon="-3.43154">
        <ele>144.2</ele>
        <time>2022-06-12T14:27:57Z</time>
      </trkpt>
      <trkpt lat="48.25" lon="-3.43153">
        <ele>144.2</ele>
        <time>2022-06-12T14:27:58Z</time>
      </trkpt>
      <trkpt lat="48.24999" lon="-3.43151">
        <ele>144.2</ele>
        <time>2022-06-12T14:27:59Z</time>
      </trkpt>
      <trkpt lat="48.24998" lon="-3.4315">
        <ele>144.2</ele>
        <time>2022-06-12T14:28:00Z</time>
      </trkpt>
      <trkpt lat="48.24997" lon="-3.43149">
        <ele>144.2</ele>
        <time>2022-06-12T14:28:01Z</time>
      </trkpt>
      <trkpt lat="48.24996" lon="-3.43148">
        <ele>144.2</ele>
        <time>2022-06-12T14:28:02Z</time>
      </trkpt>
      <trkpt lat="48.24995" lon="-3.43147">
        <ele>144.2</ele>
        <time>2022-06-12T14:28:03Z</time>
      </trkpt>
      <trkpt lat="48.24994" lon="-3.43146">
        <ele>144.2</ele>
        <time>2022-06-12T14:28:04Z</time>
      </trkpt>
      <trkpt lat="48.24991" lon="-3.43144">
        <ele>144.2</ele>
        <time>2022-06-12T14:28:06Z</time>
      </trkpt>
      <trkpt lat="48.2499" lon="-3.43143">
        <ele>144.2</ele>
        <time>2022-06-12T14:28:07Z</time>
      </trkpt>
      <trkpt lat="48.24989" lon="-3.43142">
        <ele>144.2</ele>
        <time>2022-06-12T14:28:08Z</time>
      </trkpt>
      <trkpt lat="48.24989" lon="-3.43142">
        <ele>144.2</ele>
        <time>2022-06-12T14:28:09Z</time>
      </trkpt>
      <trkpt lat="48.24989" lon="-3.43142">
        <ele>144.2</ele>
        <time>2022-06-12T14:28:11Z</time>
      </trkpt>
      <trkpt lat="48.24988" lon="-3.43141">
        <ele>144.2</ele>
        <time>2022-06-12T14:28:12Z</time>
      </trkpt>
      <trkpt lat="48.24986" lon="-3.4314">
        <ele>144.2</ele>
        <time>2022-06-12T14:28:13Z</time>
      </trkpt>
      <trkpt lat="48.24985" lon="-3.43139">
        <ele>144.2</ele>
        <time>2022-06-12T14:28:14Z</time>
      </trkpt>
      <trkpt lat="48.24984" lon="-3.43139">
        <ele>144.2</ele>
        <time>2022-06-12T14:28:15Z</time>
      </trkpt>
      <trkpt lat="48.24983" lon="-3.43138">
        <ele>144.2</ele>
        <time>2022-06-12T14:28:17Z</time>
      </trkpt>
      <trkpt lat="48.24982" lon="-3.43138">
        <ele>144.2</ele>
        <time>2022-06-12T14:28:18Z</time>
      </trkpt>
      <trkpt lat="48.24981" lon="-3.43137">
        <ele>144.2</ele>
        <time>2022-06-12T14:28:19Z</time>
      </trkpt>
      <trkpt lat="48.2498" lon="-3.43137">
        <ele>144.2</ele>
        <time>2022-06-12T14:28:20Z</time>
      </trkpt>
      <trkpt lat="48.24978" lon="-3.43136">
        <ele>144.2</ele>
        <time>2022-06-12T14:28:21Z</time>
      </trkpt>
      <trkpt lat="48.24977" lon="-3.43135">
        <ele>144.2</ele>
        <time>2022-06-12T14:28:22Z</time>
      </trkpt>
      <trkpt lat="48.24976" lon="-3.43134">
        <ele>144.2</ele>
        <time>2022-06-12T14:28:23Z</time>
      </trkpt>
      <trkpt lat="48.24975" lon="-3.43133">
        <ele>144.2</ele>
        <time>2022-06-12T14:28:24Z</time>
      </trkpt>
      <trkpt lat="48.24973" lon="-3.43131">
        <ele>144.2</ele>
        <time>2022-06-12T14:28:26Z</time>
      </trkpt>
      <trkpt lat="48.24973" lon="-3.4313">
        <ele>144.2</ele>
        <time>2022-06-12T14:28:27Z</time>
      </trkpt>
      <trkpt lat="48.24973" lon="-3.4313">
        <ele>144.2</ele>
        <time>2022-06-12T14:28:28Z</time>
      </trkpt>
      <trkpt lat="48.24972" lon="-3.43129">
        <ele>144.2</ele>
        <time>2022-06-12T14:28:29Z</time>
      </trkpt>
      <trkpt lat="48.24971" lon="-3.43128">
        <ele>144.2</ele>
        <time>2022-06-12T14:28:30Z</time>
      </trkpt>
      <trkpt lat="48.24969" lon="-3.43126">
        <ele>144.2</ele>
        <time>2022-06-12T14:28:31Z</time>
      </trkpt>
      <trkpt lat="48.24968" lon="-3.43126">
        <ele>144.2</ele>
        <time>2022-06-12T14:28:32Z</time>
      </trkpt>
      <trkpt lat="48.24967" lon="-3.43125">
        <ele>144.2</ele>
        <time>2022-06-12T14:28:33Z</time>
      </trkpt>
      <trkpt lat="48.24966" lon="-3.43124">
        <ele>144.2</ele>
        <time>2022-06-12T14:28:34Z</time>
      </trkpt>
      <trkpt lat="48.24965" lon="-3.43123">
        <ele>144.2</ele>
        <time>2022-06-12T14:28:36Z</time>
      </trkpt>
      <trkpt lat="48.24963" lon="-3.43122">
        <ele>144.2</ele>
        <time>2022-06-12T14:28:37Z</time>
      </trkpt>
      <trkpt lat="48.24962" lon="-3.43121">
        <ele>144.2</ele>
        <time>2022-06-12T14:28:38Z</time>
      </trkpt>
      <trkpt lat="48.24962" lon="-3.4312">
        <ele>144.2</ele>
        <time>2022-06-12T14:28:39Z</time>
      </trkpt>
      <trkpt lat="48.2496" lon="-3.43119">
        <ele>144.2</ele>
        <time>2022-06-12T14:28:40Z</time>
      </trkpt>
      <trkpt lat="48.24959" lon="-3.43118">
        <ele>144.2</ele>
        <time>2022-06-12T14:28:42Z</time>
      </trkpt>
      <trkpt lat="48.24958" lon="-3.43117">
        <ele>144.2</ele>
        <time>2022-06-12T14:28:43Z</time>
      </trkpt>
      <trkpt lat="48.24957" lon="-3.43116">
        <ele>144.2</ele>
        <time>2022-06-12T14:28:44Z</time>
      </trkpt>
      <trkpt lat="48.24956" lon="-3.43115">
        <ele>144.2</ele>
        <time>2022-06-12T14:28:45Z</time>
      </trkpt>
      <trkpt lat="48.24954" lon="-3.43114">
        <ele>144.2</ele>
        <time>2022-06-12T14:28:46Z</time>
      </trkpt>
      <trkpt lat="48.24953" lon="-3.43113">
        <ele>144.2</ele>
        <time>2022-06-12T14:28:47Z</time>
      </trkpt>
      <trkpt lat="48.2495" lon="-3.43112">
        <ele>144.2</ele>
        <time>2022-06-12T14:28:48Z</time>
      </trkpt>
      <trkpt lat="48.24949" lon="-3.43112">
        <ele>144.2</ele>
        <time>2022-06-12T14:28:50Z</time>
      </trkpt>
      <trkpt lat="48.24948" lon="-3.43111">
        <ele>144.2</ele>
        <time>2022-06-12T14:28:51Z</time>
      </trkpt>
      <trkpt lat="48.24947" lon="-3.43111">
        <ele>144.2</ele>
        <time>2022-06-12T14:28:52Z</time>
      </trkpt>
      <trkpt lat="48.24945" lon="-3.4311">
        <ele>144.3</ele>
        <time>2022-06-12T14:28:53Z</time>
      </trkpt>
      <trkpt lat="48.24944" lon="-3.43109">
        <ele>144.3</ele>
        <time>2022-06-12T14:28:54Z</time>
      </trkpt>
      <trkpt lat="48.24943" lon="-3.43109">
        <ele>144.3</ele>
        <time>2022-06-12T14:28:55Z</time>
      </trkpt>
      <trkpt lat="48.2494" lon="-3.43108">
        <ele>144.3</ele>
        <time>2022-06-12T14:28:56Z</time>
      </trkpt>
      <trkpt lat="48.24939" lon="-3.43108">
        <ele>144.4</ele>
        <time>2022-06-12T14:28:57Z</time>
      </trkpt>
      <trkpt lat="48.24938" lon="-3.43108">
        <ele>144.4</ele>
        <time>2022-06-12T14:28:59Z</time>
      </trkpt>
      <trkpt lat="48.24936" lon="-3.43108">
        <ele>144.4</ele>
        <time>2022-06-12T14:29:00Z</time>
      </trkpt>
      <trkpt lat="48.24933" lon="-3.43107">
        <ele>144.5</ele>
        <time>2022-06-12T14:29:01Z</time>
      </trkpt>
      <trkpt lat="48.24932" lon="-3.43107">
        <ele>144.5</ele>
        <time>2022-06-12T14:29:02Z</time>
      </trkpt>
      <trkpt lat="48.24931" lon="-3.43107">
        <ele>144.5</ele>
        <time>2022-06-12T14:29:03Z</time>
      </trkpt>
      <trkpt lat="48.2493" lon="-3.43107">
        <ele>144.6</ele>
        <time>2022-06-12T14:29:04Z</time>
      </trkpt>
      <trkpt lat="48.24929" lon="-3.43106">
        <ele>144.6</ele>
        <time>2022-06-12T14:29:05Z</time>
      </trkpt>
      <trkpt lat="48.24927" lon="-3.43106">
        <ele>144.6</ele>
        <time>2022-06-12T14:29:06Z</time>
      </trkpt>
      <trkpt lat="48.24926" lon="-3.43105">
        <ele>144.7</ele>
        <time>2022-06-12T14:29:08Z</time>
      </trkpt>
      <trkpt lat="48.24925" lon="-3.43105">
        <ele>144.7</ele>
        <time>2022-06-12T14:29:09Z</time>
      </trkpt>
      <trkpt lat="48.24923" lon="-3.43104">
        <ele>144.8</ele>
        <time>2022-06-12T14:29:10Z</time>
      </trkpt>
      <trkpt lat="48.24922" lon="-3.43104">
        <ele>144.8</ele>
        <time>2022-06-12T14:29:11Z</time>
      </trkpt>
      <trkpt lat="48.24922" lon="-3.43103">
        <ele>144.8</ele>
        <time>2022-06-12T14:29:12Z</time>
      </trkpt>
      <trkpt lat="48.24921" lon="-3.43103">
        <ele>144.8</ele>
        <time>2022-06-12T14:29:13Z</time>
      </trkpt>
      <trkpt lat="48.2492" lon="-3.43103">
        <ele>144.9</ele>
        <time>2022-06-12T14:29:14Z</time>
      </trkpt>
      <trkpt lat="48.24919" lon="-3.43102">
        <ele>144.9</ele>
        <time>2022-06-12T14:29:15Z</time>
      </trkpt>
      <trkpt lat="48.24918" lon="-3.43101">
        <ele>144.9</ele>
        <time>2022-06-12T14:29:17Z</time>
      </trkpt>
      <trkpt lat="48.24917" lon="-3.431">
        <ele>145</ele>
        <time>2022-06-12T14:29:18Z</time>
      </trkpt>
      <trkpt lat="48.24916" lon="-3.431">
        <ele>145</ele>
        <time>2022-06-12T14:29:19Z</time>
      </trkpt>
      <trkpt lat="48.24915" lon="-3.43099">
        <ele>145</ele>
        <time>2022-06-12T14:29:20Z</time>
      </trkpt>
      <trkpt lat="48.24914" lon="-3.43098">
        <ele>145.1</ele>
        <time>2022-06-12T14:29:21Z</time>
      </trkpt>
      <trkpt lat="48.24914" lon="-3.43097">
        <ele>145.1</ele>
        <time>2022-06-12T14:29:22Z</time>
      </trkpt>
      <trkpt lat="48.24912" lon="-3.43094">
        <ele>145.2</ele>
        <time>2022-06-12T14:29:24Z</time>
      </trkpt>
      <trkpt lat="48.24912" lon="-3.43094">
        <ele>145.2</ele>
        <time>2022-06-12T14:29:25Z</time>
      </trkpt>
      <trkpt lat="48.24911" lon="-3.43093">
        <ele>145.2</ele>
        <time>2022-06-12T14:29:26Z</time>
      </trkpt>
      <trkpt lat="48.24911" lon="-3.43092">
        <ele>145.3</ele>
        <time>2022-06-12T14:29:28Z</time>
      </trkpt>
      <trkpt lat="48.2491" lon="-3.43091">
        <ele>145.3</ele>
        <time>2022-06-12T14:29:29Z</time>
      </trkpt>
      <trkpt lat="48.24909" lon="-3.4309">
        <ele>145.3</ele>
        <time>2022-06-12T14:29:30Z</time>
      </trkpt>
      <trkpt lat="48.24908" lon="-3.43089">
        <ele>145.4</ele>
        <time>2022-06-12T14:29:31Z</time>
      </trkpt>
      <trkpt lat="48.24907" lon="-3.43088">
        <ele>145.4</ele>
        <time>2022-06-12T14:29:32Z</time>
      </trkpt>
      <trkpt lat="48.24907" lon="-3.43088">
        <ele>145.5</ele>
        <time>2022-06-12T14:29:33Z</time>
      </trkpt>
      <trkpt lat="48.24906" lon="-3.43087">
        <ele>145.5</ele>
        <time>2022-06-12T14:29:34Z</time>
      </trkpt>
      <trkpt lat="48.24904" lon="-3.43085">
        <ele>145.6</ele>
        <time>2022-06-12T14:29:37Z</time>
      </trkpt>
      <trkpt lat="48.24903" lon="-3.43084">
        <ele>145.6</ele>
        <time>2022-06-12T14:29:38Z</time>
      </trkpt>
      <trkpt lat="48.24902" lon="-3.43083">
        <ele>145.7</ele>
        <time>2022-06-12T14:29:39Z</time>
      </trkpt>
      <trkpt lat="48.24901" lon="-3.43083">
        <ele>145.8</ele>
        <time>2022-06-12T14:29:40Z</time>
      </trkpt>
      <trkpt lat="48.24901" lon="-3.43082">
        <ele>145.8</ele>
        <time>2022-06-12T14:29:41Z</time>
      </trkpt>
      <trkpt lat="48.249" lon="-3.43082">
        <ele>145.8</ele>
        <time>2022-06-12T14:29:42Z</time>
      </trkpt>
      <trkpt lat="48.24899" lon="-3.43082">
        <ele>145.8</ele>
        <time>2022-06-12T14:29:43Z</time>
      </trkpt>
      <trkpt lat="48.24899" lon="-3.43082">
        <ele>145.9</ele>
        <time>2022-06-12T14:29:44Z</time>
      </trkpt>
      <trkpt lat="48.24898" lon="-3.43081">
        <ele>145.9</ele>
        <time>2022-06-12T14:29:45Z</time>
      </trkpt>
      <trkpt lat="48.24897" lon="-3.43081">
        <ele>145.9</ele>
        <time>2022-06-12T14:29:46Z</time>
      </trkpt>
      <trkpt lat="48.24896" lon="-3.4308">
        <ele>146</ele>
        <time>2022-06-12T14:29:48Z</time>
      </trkpt>
      <trkpt lat="48.24895" lon="-3.43079">
        <ele>146</ele>
        <time>2022-06-12T14:29:49Z</time>
      </trkpt>
      <trkpt lat="48.24894" lon="-3.43079">
        <ele>146.1</ele>
        <time>2022-06-12T14:29:50Z</time>
      </trkpt>
      <trkpt lat="48.24894" lon="-3.43078">
        <ele>146.1</ele>
        <time>2022-06-12T14:29:51Z</time>
      </trkpt>
      <trkpt lat="48.24893" lon="-3.43078">
        <ele>146.1</ele>
        <time>2022-06-12T14:29:52Z</time>
      </trkpt>
      <trkpt lat="48.24893" lon="-3.43077">
        <ele>146.2</ele>
        <time>2022-06-12T14:29:53Z</time>
      </trkpt>
      <trkpt lat="48.24893" lon="-3.43077">
        <ele>146.2</ele>
        <time>2022-06-12T14:29:54Z</time>
      </trkpt>
      <trkpt lat="48.24893" lon="-3.43076">
        <ele>146.2</ele>
        <time>2022-06-12T14:29:55Z</time>
      </trkpt>
      <trkpt lat="48.24892" lon="-3.43075">
        <ele>146.4</ele>
        <time>2022-06-12T14:29:57Z</time>
      </trkpt>
      <trkpt lat="48.24892" lon="-3.43075">
        <ele>146.4</ele>
        <time>2022-06-12T14:29:58Z</time>
      </trkpt>
      <trkpt lat="48.24891" lon="-3.43074">
        <ele>146.4</ele>
        <time>2022-06-12T14:30:00Z</time>
      </trkpt>
      <trkpt lat="48.2489" lon="-3.43074">
        <ele>146.4</ele>
        <time>2022-06-12T14:30:01Z</time>
      </trkpt>
      <trkpt lat="48.2489" lon="-3.43073">
        <ele>146.4</ele>
        <time>2022-06-12T14:30:02Z</time>
      </trkpt>
      <trkpt lat="48.24889" lon="-3.43073">
        <ele>146.4</ele>
        <time>2022-06-12T14:30:03Z</time>
      </trkpt>
      <trkpt lat="48.2489" lon="-3.43073">
        <ele>146.4</ele>
        <time>2022-06-12T14:30:04Z</time>
      </trkpt>
      <trkpt lat="48.24889" lon="-3.43072">
        <ele>146.4</ele>
        <time>2022-06-12T14:30:06Z</time>
      </trkpt>
      <trkpt lat="48.24889" lon="-3.43071">
        <ele>146.4</ele>
        <time>2022-06-12T14:30:07Z</time>
      </trkpt>
      <trkpt lat="48.24888" lon="-3.43071">
        <ele>146.4</ele>
        <time>2022-06-12T14:30:08Z</time>
      </trkpt>
      <trkpt lat="48.24887" lon="-3.43072">
        <ele>146.4</ele>
        <time>2022-06-12T14:30:09Z</time>
      </trkpt>
      <trkpt lat="48.24887" lon="-3.43072">
        <ele>146.4</ele>
        <time>2022-06-12T14:30:10Z</time>
      </trkpt>
      <trkpt lat="48.24886" lon="-3.43074">
        <ele>146.5</ele>
        <time>2022-06-12T14:30:11Z</time>
      </trkpt>
      <trkpt lat="48.24886" lon="-3.43075">
        <ele>146.5</ele>
        <time>2022-06-12T14:30:12Z</time>
      </trkpt>
      <trkpt lat="48.24886" lon="-3.43076">
        <ele>146.5</ele>
        <time>2022-06-12T14:30:14Z</time>
      </trkpt>
      <trkpt lat="48.24886" lon="-3.43076">
        <ele>146.5</ele>
        <time>2022-06-12T14:30:15Z</time>
      </trkpt>
      <trkpt lat="48.24886" lon="-3.43075">
        <ele>146.5</ele>
        <time>2022-06-12T14:30:16Z</time>
      </trkpt>
      <trkpt lat="48.24885" lon="-3.43075">
        <ele>146.5</ele>
        <time>2022-06-12T14:30:17Z</time>
      </trkpt>
      <trkpt lat="48.24885" lon="-3.43074">
        <ele>146.5</ele>
        <time>2022-06-12T14:30:18Z</time>
      </trkpt>
      <trkpt lat="48.24885" lon="-3.43074">
        <ele>146.5</ele>
        <time>2022-06-12T14:30:20Z</time>
      </trkpt>
      <trkpt lat="48.24884" lon="-3.43074">
        <ele>146.5</ele>
        <time>2022-06-12T14:30:21Z</time>
      </trkpt>
      <trkpt lat="48.24883" lon="-3.43074">
        <ele>146.5</ele>
        <time>2022-06-12T14:30:23Z</time>
      </trkpt>
      <trkpt lat="48.24883" lon="-3.43074">
        <ele>146.5</ele>
        <time>2022-06-12T14:30:24Z</time>
      </trkpt>
      <trkpt lat="48.24882" lon="-3.43074">
        <ele>146.5</ele>
        <time>2022-06-12T14:30:25Z</time>
      </trkpt>
      <trkpt lat="48.24882" lon="-3.43076">
        <ele>146.5</ele>
        <time>2022-06-12T14:30:27Z</time>
      </trkpt>
      <trkpt lat="48.24881" lon="-3.43077">
        <ele>146.5</ele>
        <time>2022-06-12T14:30:28Z</time>
      </trkpt>
      <trkpt lat="48.24881" lon="-3.43077">
        <ele>146.5</ele>
        <time>2022-06-12T14:30:29Z</time>
      </trkpt>
      <trkpt lat="48.24882" lon="-3.43079">
        <ele>146.5</ele>
        <time>2022-06-12T14:30:31Z</time>
      </trkpt>
      <trkpt lat="48.24882" lon="-3.43079">
        <ele>146.5</ele>
        <time>2022-06-12T14:30:32Z</time>
      </trkpt>
      <trkpt lat="48.24882" lon="-3.4308">
        <ele>146.5</ele>
        <time>2022-06-12T14:30:33Z</time>
      </trkpt>
      <trkpt lat="48.24883" lon="-3.4308">
        <ele>146.5</ele>
        <time>2022-06-12T14:30:34Z</time>
      </trkpt>
      <trkpt lat="48.24883" lon="-3.4308">
        <ele>146.5</ele>
        <time>2022-06-12T14:30:35Z</time>
      </trkpt>
      <trkpt lat="48.24883" lon="-3.4308">
        <ele>146.5</ele>
        <time>2022-06-12T14:30:36Z</time>
      </trkpt>
      <trkpt lat="48.24884" lon="-3.4308">
        <ele>146.5</ele>
        <time>2022-06-12T14:30:37Z</time>
      </trkpt>
      <trkpt lat="48.24884" lon="-3.4308">
        <ele>146.5</ele>
        <time>2022-06-12T14:30:38Z</time>
      </trkpt>
      <trkpt lat="48.24884" lon="-3.4308">
        <ele>146.5</ele>
        <time>2022-06-12T14:30:39Z</time>
      </trkpt>
      <trkpt lat="48.24884" lon="-3.4308">
        <ele>146.5</ele>
        <time>2022-06-12T14:30:40Z</time>
      </trkpt>
      <trkpt lat="48.24884" lon="-3.4308">
        <ele>146.5</ele>
        <time>2022-06-12T14:30:41Z</time>
      </trkpt>
      <trkpt lat="48.24884" lon="-3.4308">
        <ele>146.5</ele>
        <time>2022-06-12T14:30:42Z</time>
      </trkpt>
      <trkpt lat="48.24885" lon="-3.4308">
        <ele>146.5</ele>
        <time>2022-06-12T14:30:43Z</time>
      </trkpt>
      <trkpt lat="48.24885" lon="-3.4308">
        <ele>146.5</ele>
        <time>2022-06-12T14:30:44Z</time>
      </trkpt>
      <trkpt lat="48.24885" lon="-3.4308">
        <ele>146.5</ele>
        <time>2022-06-12T14:30:45Z</time>
      </trkpt>
      <trkpt lat="48.24886" lon="-3.43079">
        <ele>146.6</ele>
        <time>2022-06-12T14:30:46Z</time>
      </trkpt>
      <trkpt lat="48.24886" lon="-3.43079">
        <ele>146.6</ele>
        <time>2022-06-12T14:30:47Z</time>
      </trkpt>
      <trkpt lat="48.24886" lon="-3.43079">
        <ele>146.6</ele>
        <time>2022-06-12T14:30:48Z</time>
      </trkpt>
      <trkpt lat="48.24886" lon="-3.43079">
        <ele>146.6</ele>
        <time>2022-06-12T14:30:49Z</time>
      </trkpt>
      <trkpt lat="48.24887" lon="-3.43079">
        <ele>146.6</ele>
        <time>2022-06-12T14:30:50Z</time>
      </trkpt>
      <trkpt lat="48.24887" lon="-3.43078">
        <ele>146.6</ele>
        <time>2022-06-12T14:30:51Z</time>
      </trkpt>
      <trkpt lat="48.24887" lon="-3.43078">
        <ele>146.6</ele>
        <time>2022-06-12T14:30:52Z</time>
      </trkpt>
      <trkpt lat="48.24888" lon="-3.43078">
        <ele>146.6</ele>
        <time>2022-06-12T14:30:53Z</time>
      </trkpt>
      <trkpt lat="48.24888" lon="-3.43078">
        <ele>146.6</ele>
        <time>2022-06-12T14:30:54Z</time>
      </trkpt>
      <trkpt lat="48.24888" lon="-3.43078">
        <ele>146.6</ele>
        <time>2022-06-12T14:30:55Z</time>
      </trkpt>
      <trkpt lat="48.24889" lon="-3.43078">
        <ele>146.6</ele>
        <time>2022-06-12T14:30:56Z</time>
      </trkpt>
      <trkpt lat="48.2489" lon="-3.43076">
        <ele>146.6</ele>
        <time>2022-06-12T14:30:57Z</time>
      </trkpt>
      <trkpt lat="48.24889" lon="-3.43075">
        <ele>146.6</ele>
        <time>2022-06-12T14:30:58Z</time>
      </trkpt>
      <trkpt lat="48.24888" lon="-3.43074">
        <ele>146.6</ele>
        <time>2022-06-12T14:30:59Z</time>
      </trkpt>
      <trkpt lat="48.24887" lon="-3.43073">
        <ele>146.6</ele>
        <time>2022-06-12T14:31:00Z</time>
      </trkpt>
      <trkpt lat="48.24887" lon="-3.43072">
        <ele>146.6</ele>
        <time>2022-06-12T14:31:01Z</time>
      </trkpt>
      <trkpt lat="48.24887" lon="-3.43072">
        <ele>146.6</ele>
        <time>2022-06-12T14:31:02Z</time>
      </trkpt>
      <trkpt lat="48.24887" lon="-3.43072">
        <ele>146.6</ele>
        <time>2022-06-12T14:31:03Z</time>
      </trkpt>
      <trkpt lat="48.24887" lon="-3.43071">
        <ele>146.6</ele>
        <time>2022-06-12T14:31:04Z</time>
      </trkpt>
      <trkpt lat="48.24887" lon="-3.43071">
        <ele>146.6</ele>
        <time>2022-06-12T14:31:05Z</time>
      </trkpt>
      <trkpt lat="48.24886" lon="-3.43071">
        <ele>146.6</ele>
        <time>2022-06-12T14:31:06Z</time>
      </trkpt>
      <trkpt lat="48.24886" lon="-3.4307">
        <ele>146.6</ele>
        <time>2022-06-12T14:31:07Z</time>
      </trkpt>
      <trkpt lat="48.24886" lon="-3.4307">
        <ele>146.6</ele>
        <time>2022-06-12T14:31:08Z</time>
      </trkpt>
      <trkpt lat="48.24886" lon="-3.4307">
        <ele>146.6</ele>
        <time>2022-06-12T14:31:09Z</time>
      </trkpt>
      <trkpt lat="48.24886" lon="-3.43069">
        <ele>146.6</ele>
        <time>2022-06-12T14:31:10Z</time>
      </trkpt>
      <trkpt lat="48.24886" lon="-3.43069">
        <ele>146.6</ele>
        <time>2022-06-12T14:31:11Z</time>
      </trkpt>
      <trkpt lat="48.24886" lon="-3.43069">
        <ele>146.6</ele>
        <time>2022-06-12T14:31:12Z</time>
      </trkpt>
      <trkpt lat="48.24886" lon="-3.43068">
        <ele>146.6</ele>
        <time>2022-06-12T14:31:13Z</time>
      </trkpt>
      <trkpt lat="48.24886" lon="-3.43068">
        <ele>146.6</ele>
        <time>2022-06-12T14:31:14Z</time>
      </trkpt>
      <trkpt lat="48.24886" lon="-3.43068">
        <ele>146.6</ele>
        <time>2022-06-12T14:31:15Z</time>
      </trkpt>
      <trkpt lat="48.24886" lon="-3.43067">
        <ele>146.6</ele>
        <time>2022-06-12T14:31:16Z</time>
      </trkpt>
      <trkpt lat="48.24886" lon="-3.43067">
        <ele>146.6</ele>
        <time>2022-06-12T14:31:17Z</time>
      </trkpt>
      <trkpt lat="48.24886" lon="-3.43067">
        <ele>146.6</ele>
        <time>2022-06-12T14:31:18Z</time>
      </trkpt>
      <trkpt lat="48.24886" lon="-3.43066">
        <ele>146.6</ele>
        <time>2022-06-12T14:31:19Z</time>
      </trkpt>
      <trkpt lat="48.24886" lon="-3.43066">
        <ele>146.6</ele>
        <time>2022-06-12T14:31:20Z</time>
      </trkpt>
      <trkpt lat="48.24886" lon="-3.43066">
        <ele>146.6</ele>
        <time>2022-06-12T14:31:22Z</time>
      </trkpt>
      <trkpt lat="48.24886" lon="-3.43065">
        <ele>146.6</ele>
        <time>2022-06-12T14:31:23Z</time>
      </trkpt>
      <trkpt lat="48.24886" lon="-3.43065">
        <ele>146.6</ele>
        <time>2022-06-12T14:31:25Z</time>
      </trkpt>
      <trkpt lat="48.24885" lon="-3.43065">
        <ele>146.6</ele>
        <time>2022-06-12T14:31:26Z</time>
      </trkpt>
      <trkpt lat="48.24885" lon="-3.43064">
        <ele>146.6</ele>
        <time>2022-06-12T14:31:27Z</time>
      </trkpt>
      <trkpt lat="48.24885" lon="-3.43064">
        <ele>146.6</ele>
        <time>2022-06-12T14:31:28Z</time>
      </trkpt>
      <trkpt lat="48.24885" lon="-3.43063">
        <ele>146.6</ele>
        <time>2022-06-12T14:31:29Z</time>
      </trkpt>
      <trkpt lat="48.24885" lon="-3.43061">
        <ele>146.6</ele>
        <time>2022-06-12T14:31:31Z</time>
      </trkpt>
      <trkpt lat="48.24885" lon="-3.4306">
        <ele>146.6</ele>
        <time>2022-06-12T14:31:32Z</time>
      </trkpt>
      <trkpt lat="48.24884" lon="-3.43058">
        <ele>146.6</ele>
        <time>2022-06-12T14:31:33Z</time>
      </trkpt>
      <trkpt lat="48.24884" lon="-3.43057">
        <ele>146.6</ele>
        <time>2022-06-12T14:31:34Z</time>
      </trkpt>
      <trkpt lat="48.24883" lon="-3.43056">
        <ele>146.6</ele>
        <time>2022-06-12T14:31:35Z</time>
      </trkpt>
      <trkpt lat="48.24882" lon="-3.43055">
        <ele>146.6</ele>
        <time>2022-06-12T14:31:36Z</time>
      </trkpt>
      <trkpt lat="48.24881" lon="-3.43053">
        <ele>146.6</ele>
        <time>2022-06-12T14:31:37Z</time>
      </trkpt>
      <trkpt lat="48.24879" lon="-3.43052">
        <ele>146.7</ele>
        <time>2022-06-12T14:31:38Z</time>
      </trkpt>
      <trkpt lat="48.24878" lon="-3.43051">
        <ele>146.7</ele>
        <time>2022-06-12T14:31:39Z</time>
      </trkpt>
      <trkpt lat="48.24877" lon="-3.43051">
        <ele>146.7</ele>
        <time>2022-06-12T14:31:40Z</time>
      </trkpt>
      <trkpt lat="48.24875" lon="-3.43049">
        <ele>146.7</ele>
        <time>2022-06-12T14:31:42Z</time>
      </trkpt>
      <trkpt lat="48.24874" lon="-3.43049">
        <ele>146.7</ele>
        <time>2022-06-12T14:31:43Z</time>
      </trkpt>
      <trkpt lat="48.24872" lon="-3.43048">
        <ele>146.7</ele>
        <time>2022-06-12T14:31:44Z</time>
      </trkpt>
      <trkpt lat="48.24871" lon="-3.43047">
        <ele>146.7</ele>
        <time>2022-06-12T14:31:45Z</time>
      </trkpt>
      <trkpt lat="48.24869" lon="-3.43046">
        <ele>146.7</ele>
        <time>2022-06-12T14:31:46Z</time>
      </trkpt>
      <trkpt lat="48.24869" lon="-3.43045">
        <ele>146.7</ele>
        <time>2022-06-12T14:31:47Z</time>
      </trkpt>
      <trkpt lat="48.24868" lon="-3.43045">
        <ele>146.7</ele>
        <time>2022-06-12T14:31:48Z</time>
      </trkpt>
      <trkpt lat="48.24867" lon="-3.43043">
        <ele>146.7</ele>
        <time>2022-06-12T14:31:49Z</time>
      </trkpt>
      <trkpt lat="48.24865" lon="-3.43042">
        <ele>146.7</ele>
        <time>2022-06-12T14:31:51Z</time>
      </trkpt>
      <trkpt lat="48.24864" lon="-3.43041">
        <ele>146.7</ele>
        <time>2022-06-12T14:31:52Z</time>
      </trkpt>
      <trkpt lat="48.24862" lon="-3.4304">
        <ele>146.7</ele>
        <time>2022-06-12T14:31:53Z</time>
      </trkpt>
      <trkpt lat="48.24861" lon="-3.43039">
        <ele>146.7</ele>
        <time>2022-06-12T14:31:55Z</time>
      </trkpt>
      <trkpt lat="48.24861" lon="-3.43039">
        <ele>146.7</ele>
        <time>2022-06-12T14:31:56Z</time>
      </trkpt>
      <trkpt lat="48.2486" lon="-3.43038">
        <ele>146.7</ele>
        <time>2022-06-12T14:31:57Z</time>
      </trkpt>
      <trkpt lat="48.2486" lon="-3.43039">
        <ele>146.7</ele>
        <time>2022-06-12T14:31:58Z</time>
      </trkpt>
      <trkpt lat="48.24859" lon="-3.43039">
        <ele>146.7</ele>
        <time>2022-06-12T14:32:00Z</time>
      </trkpt>
      <trkpt lat="48.24858" lon="-3.43039">
        <ele>146.7</ele>
        <time>2022-06-12T14:32:01Z</time>
      </trkpt>
      <trkpt lat="48.24858" lon="-3.4304">
        <ele>146.7</ele>
        <time>2022-06-12T14:32:02Z</time>
      </trkpt>
      <trkpt lat="48.24858" lon="-3.4304">
        <ele>146.7</ele>
        <time>2022-06-12T14:32:03Z</time>
      </trkpt>
      <trkpt lat="48.24857" lon="-3.43041">
        <ele>146.7</ele>
        <time>2022-06-12T14:32:04Z</time>
      </trkpt>
      <trkpt lat="48.24857" lon="-3.43041">
        <ele>146.7</ele>
        <time>2022-06-12T14:32:05Z</time>
      </trkpt>
      <trkpt lat="48.24857" lon="-3.43041">
        <ele>146.7</ele>
        <time>2022-06-12T14:32:06Z</time>
      </trkpt>
      <trkpt lat="48.24858" lon="-3.43041">
        <ele>146.7</ele>
        <time>2022-06-12T14:32:07Z</time>
      </trkpt>
      <trkpt lat="48.24858" lon="-3.43041">
        <ele>146.7</ele>
        <time>2022-06-12T14:32:08Z</time>
      </trkpt>
      <trkpt lat="48.24858" lon="-3.43041">
        <ele>146.7</ele>
        <time>2022-06-12T14:32:09Z</time>
      </trkpt>
      <trkpt lat="48.24858" lon="-3.43041">
        <ele>146.7</ele>
        <time>2022-06-12T14:32:10Z</time>
      </trkpt>
      <trkpt lat="48.24858" lon="-3.43042">
        <ele>146.7</ele>
        <time>2022-06-12T14:32:11Z</time>
      </trkpt>
      <trkpt lat="48.24858" lon="-3.43042">
        <ele>146.7</ele>
        <time>2022-06-12T14:32:12Z</time>
      </trkpt>
      <trkpt lat="48.24858" lon="-3.43042">
        <ele>146.7</ele>
        <time>2022-06-12T14:32:13Z</time>
      </trkpt>
      <trkpt lat="48.24859" lon="-3.43042">
        <ele>146.7</ele>
        <time>2022-06-12T14:32:14Z</time>
      </trkpt>
      <trkpt lat="48.24859" lon="-3.43042">
        <ele>146.7</ele>
        <time>2022-06-12T14:32:15Z</time>
      </trkpt>
      <trkpt lat="48.24859" lon="-3.43042">
        <ele>146.7</ele>
        <time>2022-06-12T14:32:16Z</time>
      </trkpt>
      <trkpt lat="48.24859" lon="-3.43042">
        <ele>146.7</ele>
        <time>2022-06-12T14:32:17Z</time>
      </trkpt>
      <trkpt lat="48.24859" lon="-3.43042">
        <ele>146.7</ele>
        <time>2022-06-12T14:32:18Z</time>
      </trkpt>
      <trkpt lat="48.24858" lon="-3.43042">
        <ele>146.7</ele>
        <time>2022-06-12T14:32:20Z</time>
      </trkpt>
      <trkpt lat="48.24858" lon="-3.43041">
        <ele>146.7</ele>
        <time>2022-06-12T14:32:21Z</time>
      </trkpt>
      <trkpt lat="48.24858" lon="-3.43041">
        <ele>146.7</ele>
        <time>2022-06-12T14:32:23Z</time>
      </trkpt>
      <trkpt lat="48.24857" lon="-3.43041">
        <ele>146.7</ele>
        <time>2022-06-12T14:32:24Z</time>
      </trkpt>
      <trkpt lat="48.24857" lon="-3.43041">
        <ele>146.7</ele>
        <time>2022-06-12T14:32:25Z</time>
      </trkpt>
      <trkpt lat="48.24857" lon="-3.43042">
        <ele>146.7</ele>
        <time>2022-06-12T14:32:26Z</time>
      </trkpt>
      <trkpt lat="48.24857" lon="-3.43042">
        <ele>146.7</ele>
        <time>2022-06-12T14:32:27Z</time>
      </trkpt>
      <trkpt lat="48.24857" lon="-3.43042">
        <ele>146.7</ele>
        <time>2022-06-12T14:32:28Z</time>
      </trkpt>
      <trkpt lat="48.24858" lon="-3.43042">
        <ele>146.7</ele>
        <time>2022-06-12T14:32:29Z</time>
      </trkpt>
      <trkpt lat="48.24858" lon="-3.43041">
        <ele>146.7</ele>
        <time>2022-06-12T14:32:30Z</time>
      </trkpt>
      <trkpt lat="48.24858" lon="-3.43041">
        <ele>146.7</ele>
        <time>2022-06-12T14:32:31Z</time>
      </trkpt>
      <trkpt lat="48.24858" lon="-3.43041">
        <ele>146.7</ele>
        <time>2022-06-12T14:32:32Z</time>
      </trkpt>
      <trkpt lat="48.24858" lon="-3.43041">
        <ele>146.7</ele>
        <time>2022-06-12T14:32:33Z</time>
      </trkpt>
      <trkpt lat="48.24858" lon="-3.43041">
        <ele>146.7</ele>
        <time>2022-06-12T14:32:34Z</time>
      </trkpt>
      <trkpt lat="48.24858" lon="-3.43041">
        <ele>146.7</ele>
        <time>2022-06-12T14:32:35Z</time>
      </trkpt>
      <trkpt lat="48.24858" lon="-3.43041">
        <ele>146.7</ele>
        <time>2022-06-12T14:32:36Z</time>
      </trkpt>
      <trkpt lat="48.24858" lon="-3.43041">
        <ele>146.7</ele>
        <time>2022-06-12T14:32:38Z</time>
      </trkpt>
      <trkpt lat="48.24857" lon="-3.43041">
        <ele>146.7</ele>
        <time>2022-06-12T14:32:39Z</time>
      </trkpt>
      <trkpt lat="48.24857" lon="-3.43041">
        <ele>146.7</ele>
        <time>2022-06-12T14:32:40Z</time>
      </trkpt>
      <trkpt lat="48.24856" lon="-3.4304">
        <ele>146.7</ele>
        <time>2022-06-12T14:32:41Z</time>
      </trkpt>
      <trkpt lat="48.24856" lon="-3.4304">
        <ele>146.7</ele>
        <time>2022-06-12T14:32:43Z</time>
      </trkpt>
      <trkpt lat="48.24855" lon="-3.4304">
        <ele>146.7</ele>
        <time>2022-06-12T14:32:44Z</time>
      </trkpt>
      <trkpt lat="48.24854" lon="-3.43039">
        <ele>146.7</ele>
        <time>2022-06-12T14:32:45Z</time>
      </trkpt>
      <trkpt lat="48.24853" lon="-3.43038">
        <ele>146.7</ele>
        <time>2022-06-12T14:32:46Z</time>
      </trkpt>
      <trkpt lat="48.24852" lon="-3.43037">
        <ele>146.7</ele>
        <time>2022-06-12T14:32:47Z</time>
      </trkpt>
      <trkpt lat="48.2485" lon="-3.43036">
        <ele>146.7</ele>
        <time>2022-06-12T14:32:49Z</time>
      </trkpt>
      <trkpt lat="48.24849" lon="-3.43035">
        <ele>146.7</ele>
        <time>2022-06-12T14:32:50Z</time>
      </trkpt>
      <trkpt lat="48.24848" lon="-3.43034">
        <ele>146.7</ele>
        <time>2022-06-12T14:32:51Z</time>
      </trkpt>
      <trkpt lat="48.24847" lon="-3.43033">
        <ele>146.7</ele>
        <time>2022-06-12T14:32:52Z</time>
      </trkpt>
      <trkpt lat="48.24846" lon="-3.43032">
        <ele>146.7</ele>
        <time>2022-06-12T14:32:53Z</time>
      </trkpt>
      <trkpt lat="48.24845" lon="-3.43032">
        <ele>146.7</ele>
        <time>2022-06-12T14:32:54Z</time>
      </trkpt>
      <trkpt lat="48.24844" lon="-3.43029">
        <ele>146.7</ele>
        <time>2022-06-12T14:32:56Z</time>
      </trkpt>
      <trkpt lat="48.24845" lon="-3.43029">
        <ele>146.7</ele>
        <time>2022-06-12T14:32:58Z</time>
      </trkpt>
      <trkpt lat="48.24845" lon="-3.43028">
        <ele>146.7</ele>
        <time>2022-06-12T14:32:59Z</time>
      </trkpt>
      <trkpt lat="48.24845" lon="-3.43029">
        <ele>146.7</ele>
        <time>2022-06-12T14:33:00Z</time>
      </trkpt>
      <trkpt lat="48.24845" lon="-3.43029">
        <ele>146.7</ele>
        <time>2022-06-12T14:33:01Z</time>
      </trkpt>
      <trkpt lat="48.24845" lon="-3.43029">
        <ele>146.7</ele>
        <time>2022-06-12T14:33:02Z</time>
      </trkpt>
      <trkpt lat="48.24845" lon="-3.43029">
        <ele>146.7</ele>
        <time>2022-06-12T14:33:03Z</time>
      </trkpt>
      <trkpt lat="48.24845" lon="-3.43029">
        <ele>146.7</ele>
        <time>2022-06-12T14:33:04Z</time>
      </trkpt>
      <trkpt lat="48.24845" lon="-3.43029">
        <ele>146.7</ele>
        <time>2022-06-12T14:33:05Z</time>
      </trkpt>
      <trkpt lat="48.24845" lon="-3.43029">
        <ele>146.7</ele>
        <time>2022-06-12T14:33:06Z</time>
      </trkpt>
      <trkpt lat="48.24845" lon="-3.43029">
        <ele>146.7</ele>
        <time>2022-06-12T14:33:07Z</time>
      </trkpt>
      <trkpt lat="48.24845" lon="-3.43029">
        <ele>146.7</ele>
        <time>2022-06-12T14:33:08Z</time>
      </trkpt>
      <trkpt lat="48.24845" lon="-3.43029">
        <ele>146.7</ele>
        <time>2022-06-12T14:33:09Z</time>
      </trkpt>
      <trkpt lat="48.24845" lon="-3.43029">
        <ele>146.7</ele>
        <time>2022-06-12T14:33:10Z</time>
      </trkpt>
      <trkpt lat="48.24845" lon="-3.43028">
        <ele>146.7</ele>
        <time>2022-06-12T14:33:11Z</time>
      </trkpt>
      <trkpt lat="48.24845" lon="-3.43028">
        <ele>146.7</ele>
        <time>2022-06-12T14:33:12Z</time>
      </trkpt>
      <trkpt lat="48.24845" lon="-3.43028">
        <ele>146.7</ele>
        <time>2022-06-12T14:33:13Z</time>
      </trkpt>
      <trkpt lat="48.24845" lon="-3.43028">
        <ele>146.7</ele>
        <time>2022-06-12T14:33:14Z</time>
      </trkpt>
      <trkpt lat="48.24844" lon="-3.43028">
        <ele>146.7</ele>
        <time>2022-06-12T14:33:15Z</time>
      </trkpt>
      <trkpt lat="48.24844" lon="-3.43028">
        <ele>146.7</ele>
        <time>2022-06-12T14:33:16Z</time>
      </trkpt>
      <trkpt lat="48.24844" lon="-3.43028">
        <ele>146.7</ele>
        <time>2022-06-12T14:33:17Z</time>
      </trkpt>
      <trkpt lat="48.24844" lon="-3.43028">
        <ele>146.7</ele>
        <time>2022-06-12T14:33:18Z</time>
      </trkpt>
      <trkpt lat="48.24844" lon="-3.43028">
        <ele>146.7</ele>
        <time>2022-06-12T14:33:19Z</time>
      </trkpt>
      <trkpt lat="48.24844" lon="-3.43028">
        <ele>146.7</ele>
        <time>2022-06-12T14:33:20Z</time>
      </trkpt>
      <trkpt lat="48.24844" lon="-3.43028">
        <ele>146.7</ele>
        <time>2022-06-12T14:33:21Z</time>
      </trkpt>
      <trkpt lat="48.24844" lon="-3.43028">
        <ele>146.7</ele>
        <time>2022-06-12T14:33:22Z</time>
      </trkpt>
      <trkpt lat="48.24844" lon="-3.43028">
        <ele>146.7</ele>
        <time>2022-06-12T14:33:23Z</time>
      </trkpt>
      <trkpt lat="48.24844" lon="-3.43028">
        <ele>146.7</ele>
        <time>2022-06-12T14:33:24Z</time>
      </trkpt>
      <trkpt lat="48.24844" lon="-3.43028">
        <ele>146.7</ele>
        <time>2022-06-12T14:33:25Z</time>
      </trkpt>
      <trkpt lat="48.24844" lon="-3.43028">
        <ele>146.7</ele>
        <time>2022-06-12T14:33:26Z</time>
      </trkpt>
      <trkpt lat="48.24844" lon="-3.43028">
        <ele>146.7</ele>
        <time>2022-06-12T14:33:27Z</time>
      </trkpt>
      <trkpt lat="48.24844" lon="-3.43028">
        <ele>146.7</ele>
        <time>2022-06-12T14:33:28Z</time>
      </trkpt>
      <trkpt lat="48.24844" lon="-3.43028">
        <ele>146.7</ele>
        <time>2022-06-12T14:33:29Z</time>
      </trkpt>
      <trkpt lat="48.24844" lon="-3.43028">
        <ele>146.7</ele>
        <time>2022-06-12T14:33:30Z</time>
      </trkpt>
      <trkpt lat="48.24844" lon="-3.43028">
        <ele>146.7</ele>
        <time>2022-06-12T14:33:31Z</time>
      </trkpt>
      <trkpt lat="48.24844" lon="-3.43028">
        <ele>146.7</ele>
        <time>2022-06-12T14:33:32Z</time>
      </trkpt>
      <trkpt lat="48.24844" lon="-3.43028">
        <ele>146.7</ele>
        <time>2022-06-12T14:33:33Z</time>
      </trkpt>
      <trkpt lat="48.24844" lon="-3.43028">
        <ele>146.7</ele>
        <time>2022-06-12T14:33:34Z</time>
      </trkpt>
      <trkpt lat="48.24844" lon="-3.43028">
        <ele>146.7</ele>
        <time>2022-06-12T14:33:35Z</time>
      </trkpt>
      <trkpt lat="48.24844" lon="-3.43028">
        <ele>146.7</ele>
        <time>2022-06-12T14:33:36Z</time>
      </trkpt>
      <trkpt lat="48.24844" lon="-3.43028">
        <ele>146.7</ele>
        <time>2022-06-12T14:33:37Z</time>
      </trkpt>
      <trkpt lat="48.24844" lon="-3.43028">
        <ele>146.7</ele>
        <time>2022-06-12T14:33:38Z</time>
      </trkpt>
      <trkpt lat="48.24844" lon="-3.43028">
        <ele>146.7</ele>
        <time>2022-06-12T14:33:39Z</time>
      </trkpt>
      <trkpt lat="48.24844" lon="-3.43028">
        <ele>146.7</ele>
        <time>2022-06-12T14:33:40Z</time>
      </trkpt>
      <trkpt lat="48.24844" lon="-3.43028">
        <ele>146.7</ele>
        <time>2022-06-12T14:33:41Z</time>
      </trkpt>
      <trkpt lat="48.24844" lon="-3.43028">
        <ele>146.7</ele>
        <time>2022-06-12T14:33:42Z</time>
      </trkpt>
      <trkpt lat="48.24844" lon="-3.43028">
        <ele>146.7</ele>
        <time>2022-06-12T14:33:43Z</time>
      </trkpt>
      <trkpt lat="48.24844" lon="-3.43028">
        <ele>146.7</ele>
        <time>2022-06-12T14:33:44Z</time>
      </trkpt>
      <trkpt lat="48.24844" lon="-3.43028">
        <ele>146.7</ele>
        <time>2022-06-12T14:33:45Z</time>
      </trkpt>
      <trkpt lat="48.24844" lon="-3.43028">
        <ele>146.7</ele>
        <time>2022-06-12T14:33:46Z</time>
      </trkpt>
      <trkpt lat="48.24844" lon="-3.43028">
        <ele>146.7</ele>
        <time>2022-06-12T14:33:47Z</time>
      </trkpt>
      <trkpt lat="48.24844" lon="-3.43028">
        <ele>146.7</ele>
        <time>2022-06-12T14:33:48Z</time>
      </trkpt>
      <trkpt lat="48.24844" lon="-3.43028">
        <ele>146.7</ele>
        <time>2022-06-12T14:33:49Z</time>
      </trkpt>
      <trkpt lat="48.24844" lon="-3.43028">
        <ele>146.7</ele>
        <time>2022-06-12T14:33:50Z</time>
      </trkpt>
      <trkpt lat="48.24844" lon="-3.43028">
        <ele>146.7</ele>
        <time>2022-06-12T14:33:51Z</time>
      </trkpt>
      <trkpt lat="48.24844" lon="-3.43028">
        <ele>146.7</ele>
        <time>2022-06-12T14:33:52Z</time>
      </trkpt>
      <trkpt lat="48.24844" lon="-3.43028">
        <ele>146.7</ele>
        <time>2022-06-12T14:33:53Z</time>
      </trkpt>
      <trkpt lat="48.24844" lon="-3.43028">
        <ele>146.7</ele>
        <time>2022-06-12T14:33:54Z</time>
      </trkpt>
      <trkpt lat="48.24844" lon="-3.43028">
        <ele>146.7</ele>
        <time>2022-06-12T14:33:55Z</time>
      </trkpt>
      <trkpt lat="48.24844" lon="-3.43028">
        <ele>146.7</ele>
        <time>2022-06-12T14:33:56Z</time>
      </trkpt>
      <trkpt lat="48.24844" lon="-3.43028">
        <ele>146.7</ele>
        <time>2022-06-12T14:33:57Z</time>
      </trkpt>
      <trkpt lat="48.24844" lon="-3.43028">
        <ele>146.7</ele>
        <time>2022-06-12T14:33:58Z</time>
      </trkpt>
      <trkpt lat="48.24844" lon="-3.43028">
        <ele>146.7</ele>
        <time>2022-06-12T14:33:59Z</time>
      </trkpt>
      <trkpt lat="48.24844" lon="-3.43028">
        <ele>146.7</ele>
        <time>2022-06-12T14:34:00Z</time>
      </trkpt>
      <trkpt lat="48.24844" lon="-3.43028">
        <ele>146.7</ele>
        <time>2022-06-12T14:34:01Z</time>
      </trkpt>
      <trkpt lat="48.24844" lon="-3.43028">
        <ele>146.7</ele>
        <time>2022-06-12T14:34:02Z</time>
      </trkpt>
      <trkpt lat="48.24844" lon="-3.43028">
        <ele>146.7</ele>
        <time>2022-06-12T14:34:03Z</time>
      </trkpt>
      <trkpt lat="48.24844" lon="-3.43028">
        <ele>146.7</ele>
        <time>2022-06-12T14:34:04Z</time>
      </trkpt>
      <trkpt lat="48.24844" lon="-3.43028">
        <ele>146.7</ele>
        <time>2022-06-12T14:34:05Z</time>
      </trkpt>
      <trkpt lat="48.24844" lon="-3.43028">
        <ele>146.7</ele>
        <time>2022-06-12T14:34:06Z</time>
      </trkpt>
      <trkpt lat="48.24844" lon="-3.43028">
        <ele>146.7</ele>
        <time>2022-06-12T14:34:07Z</time>
      </trkpt>
      <trkpt lat="48.24844" lon="-3.43028">
        <ele>146.7</ele>
        <time>2022-06-12T14:34:08Z</time>
      </trkpt>
      <trkpt lat="48.24844" lon="-3.43028">
        <ele>146.7</ele>
        <time>2022-06-12T14:34:09Z</time>
      </trkpt>
      <trkpt lat="48.24844" lon="-3.43028">
        <ele>146.7</ele>
        <time>2022-06-12T14:34:10Z</time>
      </trkpt>
      <trkpt lat="48.24844" lon="-3.43028">
        <ele>146.7</ele>
        <time>2022-06-12T14:34:11Z</time>
      </trkpt>
      <trkpt lat="48.24844" lon="-3.43028">
        <ele>146.7</ele>
        <time>2022-06-12T14:34:12Z</time>
      </trkpt>
      <trkpt lat="48.24844" lon="-3.43028">
        <ele>146.7</ele>
        <time>2022-06-12T14:34:13Z</time>
      </trkpt>
      <trkpt lat="48.24844" lon="-3.43028">
        <ele>146.7</ele>
        <time>2022-06-12T14:34:14Z</time>
      </trkpt>
      <trkpt lat="48.24844" lon="-3.43028">
        <ele>146.7</ele>
        <time>2022-06-12T14:34:15Z</time>
      </trkpt>
      <trkpt lat="48.24844" lon="-3.43028">
        <ele>146.7</ele>
        <time>2022-06-12T14:34:16Z</time>
      </trkpt>
      <trkpt lat="48.24844" lon="-3.43028">
        <ele>146.7</ele>
        <time>2022-06-12T14:34:17Z</time>
      </trkpt>
      <trkpt lat="48.24844" lon="-3.43028">
        <ele>146.7</ele>
        <time>2022-06-12T14:34:18Z</time>
      </trkpt>
      <trkpt lat="48.24844" lon="-3.43028">
        <ele>146.7</ele>
        <time>2022-06-12T14:34:19Z</time>
      </trkpt>
      <trkpt lat="48.24844" lon="-3.43028">
        <ele>146.7</ele>
        <time>2022-06-12T14:34:20Z</time>
      </trkpt>
      <trkpt lat="48.24844" lon="-3.43028">
        <ele>146.7</ele>
        <time>2022-06-12T14:34:21Z</time>
      </trkpt>
      <trkpt lat="48.24844" lon="-3.43028">
        <ele>146.7</ele>
        <time>2022-06-12T14:34:22Z</time>
      </trkpt>
      <trkpt lat="48.24844" lon="-3.43028">
        <ele>146.7</ele>
        <time>2022-06-12T14:34:23Z</time>
      </trkpt>
      <trkpt lat="48.24844" lon="-3.43028">
        <ele>146.7</ele>
        <time>2022-06-12T14:34:24Z</time>
      </trkpt>
      <trkpt lat="48.24844" lon="-3.43028">
        <ele>146.7</ele>
        <time>2022-06-12T14:34:25Z</time>
      </trkpt>
      <trkpt lat="48.24844" lon="-3.43028">
        <ele>146.7</ele>
        <time>2022-06-12T14:34:26Z</time>
      </trkpt>
      <trkpt lat="48.24844" lon="-3.43028">
        <ele>146.7</ele>
        <time>2022-06-12T14:34:27Z</time>
      </trkpt>
      <trkpt lat="48.24844" lon="-3.43028">
        <ele>146.7</ele>
        <time>2022-06-12T14:34:28Z</time>
      </trkpt>
      <trkpt lat="48.24844" lon="-3.43028">
        <ele>146.7</ele>
        <time>2022-06-12T14:34:29Z</time>
      </trkpt>
      <trkpt lat="48.24844" lon="-3.43028">
        <ele>146.7</ele>
        <time>2022-06-12T14:34:30Z</time>
      </trkpt>
      <trkpt lat="48.24844" lon="-3.43028">
        <ele>146.7</ele>
        <time>2022-06-12T14:34:31Z</time>
      </trkpt>
      <trkpt lat="48.24844" lon="-3.43028">
        <ele>146.7</ele>
        <time>2022-06-12T14:34:32Z</time>
      </trkpt>
      <trkpt lat="48.24844" lon="-3.43028">
        <ele>146.7</ele>
        <time>2022-06-12T14:34:33Z</time>
      </trkpt>
      <trkpt lat="48.24844" lon="-3.43028">
        <ele>146.7</ele>
        <time>2022-06-12T14:34:34Z</time>
      </trkpt>
      <trkpt lat="48.24844" lon="-3.43028">
        <ele>146.7</ele>
        <time>2022-06-12T14:34:35Z</time>
      </trkpt>
      <trkpt lat="48.24844" lon="-3.43028">
        <ele>146.7</ele>
        <time>2022-06-12T14:34:36Z</time>
      </trkpt>
      <trkpt lat="48.24844" lon="-3.43028">
        <ele>146.7</ele>
        <time>2022-06-12T14:34:37Z</time>
      </trkpt>
      <trkpt lat="48.24844" lon="-3.43028">
        <ele>146.7</ele>
        <time>2022-06-12T14:34:38Z</time>
      </trkpt>
      <trkpt lat="48.24844" lon="-3.43028">
        <ele>146.7</ele>
        <time>2022-06-12T14:34:39Z</time>
      </trkpt>
      <trkpt lat="48.24844" lon="-3.43028">
        <ele>146.7</ele>
        <time>2022-06-12T14:34:40Z</time>
      </trkpt>
      <trkpt lat="48.24844" lon="-3.43028">
        <ele>146.7</ele>
        <time>2022-06-12T14:34:41Z</time>
      </trkpt>
      <trkpt lat="48.24844" lon="-3.43028">
        <ele>146.7</ele>
        <time>2022-06-12T14:34:42Z</time>
      </trkpt>
      <trkpt lat="48.24844" lon="-3.43028">
        <ele>146.7</ele>
        <time>2022-06-12T14:34:43Z</time>
      </trkpt>
      <trkpt lat="48.24844" lon="-3.43028">
        <ele>146.7</ele>
        <time>2022-06-12T14:34:44Z</time>
      </trkpt>
      <trkpt lat="48.24844" lon="-3.43028">
        <ele>146.7</ele>
        <time>2022-06-12T14:34:45Z</time>
      </trkpt>
      <trkpt lat="48.24844" lon="-3.43028">
        <ele>146.7</ele>
        <time>2022-06-12T14:34:46Z</time>
      </trkpt>
      <trkpt lat="48.24844" lon="-3.43028">
        <ele>146.7</ele>
        <time>2022-06-12T14:34:47Z</time>
      </trkpt>
      <trkpt lat="48.24844" lon="-3.43028">
        <ele>146.7</ele>
        <time>2022-06-12T14:34:48Z</time>
      </trkpt>
      <trkpt lat="48.24844" lon="-3.43028">
        <ele>146.7</ele>
        <time>2022-06-12T14:34:49Z</time>
      </trkpt>
      <trkpt lat="48.24844" lon="-3.43028">
        <ele>146.7</ele>
        <time>2022-06-12T14:34:50Z</time>
      </trkpt>
      <trkpt lat="48.24844" lon="-3.43028">
        <ele>146.7</ele>
        <time>2022-06-12T14:34:51Z</time>
      </trkpt>
      <trkpt lat="48.24844" lon="-3.43028">
        <ele>146.7</ele>
        <time>2022-06-12T14:34:52Z</time>
      </trkpt>
      <trkpt lat="48.24844" lon="-3.43028">
        <ele>146.7</ele>
        <time>2022-06-12T14:34:53Z</time>
      </trkpt>
      <trkpt lat="48.24844" lon="-3.43028">
        <ele>146.7</ele>
        <time>2022-06-12T14:34:54Z</time>
      </trkpt>
      <trkpt lat="48.24844" lon="-3.43028">
        <ele>146.7</ele>
        <time>2022-06-12T14:34:55Z</time>
      </trkpt>
      <trkpt lat="48.24844" lon="-3.43028">
        <ele>146.7</ele>
        <time>2022-06-12T14:34:56Z</time>
      </trkpt>
      <trkpt lat="48.24844" lon="-3.43028">
        <ele>146.7</ele>
        <time>2022-06-12T14:34:57Z</time>
      </trkpt>
      <trkpt lat="48.24844" lon="-3.43028">
        <ele>146.7</ele>
        <time>2022-06-12T14:34:58Z</time>
      </trkpt>
      <trkpt lat="48.24844" lon="-3.43028">
        <ele>146.7</ele>
        <time>2022-06-12T14:34:59Z</time>
      </trkpt>
      <trkpt lat="48.24844" lon="-3.43028">
        <ele>146.7</ele>
        <time>2022-06-12T14:35:00Z</time>
      </trkpt>
      <trkpt lat="48.24844" lon="-3.43028">
        <ele>146.7</ele>
        <time>2022-06-12T14:35:01Z</time>
      </trkpt>
      <trkpt lat="48.24844" lon="-3.43028">
        <ele>146.7</ele>
        <time>2022-06-12T14:35:02Z</time>
      </trkpt>
      <trkpt lat="48.24844" lon="-3.43028">
        <ele>146.7</ele>
        <time>2022-06-12T14:35:03Z</time>
      </trkpt>
      <trkpt lat="48.24844" lon="-3.43028">
        <ele>146.7</ele>
        <time>2022-06-12T14:35:04Z</time>
      </trkpt>
      <trkpt lat="48.24844" lon="-3.43028">
        <ele>146.7</ele>
        <time>2022-06-12T14:35:05Z</time>
      </trkpt>
      <trkpt lat="48.24844" lon="-3.43028">
        <ele>146.7</ele>
        <time>2022-06-12T14:35:06Z</time>
      </trkpt>
      <trkpt lat="48.24844" lon="-3.43028">
        <ele>146.7</ele>
        <time>2022-06-12T14:35:07Z</time>
      </trkpt>
      <trkpt lat="48.24844" lon="-3.43028">
        <ele>146.7</ele>
        <time>2022-06-12T14:35:08Z</time>
      </trkpt>
      <trkpt lat="48.24844" lon="-3.43028">
        <ele>146.7</ele>
        <time>2022-06-12T14:35:09Z</time>
      </trkpt>
      <trkpt lat="48.24844" lon="-3.43028">
        <ele>146.7</ele>
        <time>2022-06-12T14:35:10Z</time>
      </trkpt>
      <trkpt lat="48.24844" lon="-3.43028">
        <ele>146.7</ele>
        <time>2022-06-12T14:35:11Z</time>
      </trkpt>
      <trkpt lat="48.24844" lon="-3.43028">
        <ele>146.7</ele>
        <time>2022-06-12T14:35:12Z</time>
      </trkpt>
      <trkpt lat="48.24844" lon="-3.43028">
        <ele>146.7</ele>
        <time>2022-06-12T14:35:13Z</time>
      </trkpt>
      <trkpt lat="48.24844" lon="-3.43028">
        <ele>146.7</ele>
        <time>2022-06-12T14:35:14Z</time>
      </trkpt>
      <trkpt lat="48.24844" lon="-3.43028">
        <ele>146.7</ele>
        <time>2022-06-12T14:35:15Z</time>
      </trkpt>
      <trkpt lat="48.24844" lon="-3.43028">
        <ele>146.7</ele>
        <time>2022-06-12T14:35:16Z</time>
      </trkpt>
      <trkpt lat="48.24844" lon="-3.43028">
        <ele>146.7</ele>
        <time>2022-06-12T14:35:17Z</time>
      </trkpt>
      <trkpt lat="48.24844" lon="-3.43028">
        <ele>146.7</ele>
        <time>2022-06-12T14:35:18Z</time>
      </trkpt>
      <trkpt lat="48.24844" lon="-3.43028">
        <ele>146.7</ele>
        <time>2022-06-12T14:35:19Z</time>
      </trkpt>
      <trkpt lat="48.24844" lon="-3.43028">
        <ele>146.7</ele>
        <time>2022-06-12T14:35:20Z</time>
      </trkpt>
      <trkpt lat="48.24844" lon="-3.43028">
        <ele>146.7</ele>
        <time>2022-06-12T14:35:21Z</time>
      </trkpt>
      <trkpt lat="48.24844" lon="-3.43028">
        <ele>146.7</ele>
        <time>2022-06-12T14:35:22Z</time>
      </trkpt>
      <trkpt lat="48.24844" lon="-3.43028">
        <ele>146.7</ele>
        <time>2022-06-12T14:35:23Z</time>
      </trkpt>
      <trkpt lat="48.24844" lon="-3.43028">
        <ele>146.7</ele>
        <time>2022-06-12T14:35:24Z</time>
      </trkpt>
      <trkpt lat="48.24844" lon="-3.43028">
        <ele>146.7</ele>
        <time>2022-06-12T14:35:25Z</time>
      </trkpt>
      <trkpt lat="48.24844" lon="-3.43028">
        <ele>146.7</ele>
        <time>2022-06-12T14:35:26Z</time>
      </trkpt>
      <trkpt lat="48.24844" lon="-3.43028">
        <ele>146.7</ele>
        <time>2022-06-12T14:35:27Z</time>
      </trkpt>
      <trkpt lat="48.24844" lon="-3.43028">
        <ele>146.7</ele>
        <time>2022-06-12T14:35:28Z</time>
      </trkpt>
      <trkpt lat="48.24844" lon="-3.43028">
        <ele>146.7</ele>
        <time>2022-06-12T14:35:29Z</time>
      </trkpt>
      <trkpt lat="48.24844" lon="-3.43028">
        <ele>146.7</ele>
        <time>2022-06-12T14:35:30Z</time>
      </trkpt>
      <trkpt lat="48.24844" lon="-3.43028">
        <ele>146.7</ele>
        <time>2022-06-12T14:35:31Z</time>
      </trkpt>
      <trkpt lat="48.24844" lon="-3.43028">
        <ele>146.7</ele>
        <time>2022-06-12T14:35:32Z</time>
      </trkpt>
      <trkpt lat="48.24844" lon="-3.43028">
        <ele>146.7</ele>
        <time>2022-06-12T14:35:33Z</time>
      </trkpt>
      <trkpt lat="48.24844" lon="-3.43028">
        <ele>146.7</ele>
        <time>2022-06-12T14:35:34Z</time>
      </trkpt>
      <trkpt lat="48.24844" lon="-3.43028">
        <ele>146.7</ele>
        <time>2022-06-12T14:35:35Z</time>
      </trkpt>
      <trkpt lat="48.24844" lon="-3.43028">
        <ele>146.7</ele>
        <time>2022-06-12T14:35:36Z</time>
      </trkpt>
      <trkpt lat="48.24844" lon="-3.43028">
        <ele>146.7</ele>
        <time>2022-06-12T14:35:37Z</time>
      </trkpt>
      <trkpt lat="48.24844" lon="-3.43028">
        <ele>146.7</ele>
        <time>2022-06-12T14:35:38Z</time>
      </trkpt>
      <trkpt lat="48.24844" lon="-3.43028">
        <ele>146.7</ele>
        <time>2022-06-12T14:35:39Z</time>
      </trkpt>
      <trkpt lat="48.24844" lon="-3.43028">
        <ele>146.7</ele>
        <time>2022-06-12T14:35:40Z</time>
      </trkpt>
      <trkpt lat="48.24844" lon="-3.43028">
        <ele>146.7</ele>
        <time>2022-06-12T14:35:41Z</time>
      </trkpt>
      <trkpt lat="48.24844" lon="-3.43028">
        <ele>146.7</ele>
        <time>2022-06-12T14:35:42Z</time>
      </trkpt>
      <trkpt lat="48.24844" lon="-3.43028">
        <ele>146.7</ele>
        <time>2022-06-12T14:35:43Z</time>
      </trkpt>
      <trkpt lat="48.24844" lon="-3.43028">
        <ele>146.7</ele>
        <time>2022-06-12T14:35:44Z</time>
      </trkpt>
      <trkpt lat="48.24844" lon="-3.43028">
        <ele>146.7</ele>
        <time>2022-06-12T14:35:45Z</time>
      </trkpt>
      <trkpt lat="48.24844" lon="-3.43028">
        <ele>146.7</ele>
        <time>2022-06-12T14:35:46Z</time>
      </trkpt>
      <trkpt lat="48.24844" lon="-3.43028">
        <ele>146.7</ele>
        <time>2022-06-12T14:35:47Z</time>
      </trkpt>
      <trkpt lat="48.24844" lon="-3.43028">
        <ele>146.7</ele>
        <time>2022-06-12T14:35:48Z</time>
      </trkpt>
      <trkpt lat="48.24844" lon="-3.43028">
        <ele>146.7</ele>
        <time>2022-06-12T14:35:49Z</time>
      </trkpt>
      <trkpt lat="48.24844" lon="-3.43028">
        <ele>146.7</ele>
        <time>2022-06-12T14:35:50Z</time>
      </trkpt>
      <trkpt lat="48.24844" lon="-3.43028">
        <ele>146.7</ele>
        <time>2022-06-12T14:35:51Z</time>
      </trkpt>
      <trkpt lat="48.24844" lon="-3.43028">
        <ele>146.7</ele>
        <time>2022-06-12T14:35:52Z</time>
      </trkpt>
      <trkpt lat="48.24844" lon="-3.43028">
        <ele>146.7</ele>
        <time>2022-06-12T14:35:53Z</time>
      </trkpt>
      <trkpt lat="48.24844" lon="-3.43028">
        <ele>146.7</ele>
        <time>2022-06-12T14:35:54Z</time>
      </trkpt>
      <trkpt lat="48.24844" lon="-3.43028">
        <ele>146.7</ele>
        <time>2022-06-12T14:35:55Z</time>
      </trkpt>
      <trkpt lat="48.24844" lon="-3.43028">
        <ele>146.7</ele>
        <time>2022-06-12T14:35:56Z</time>
      </trkpt>
      <trkpt lat="48.24844" lon="-3.43028">
        <ele>146.7</ele>
        <time>2022-06-12T14:35:57Z</time>
      </trkpt>
      <trkpt lat="48.24844" lon="-3.43028">
        <ele>146.7</ele>
        <time>2022-06-12T14:35:58Z</time>
      </trkpt>
      <trkpt lat="48.24844" lon="-3.43028">
        <ele>146.7</ele>
        <time>2022-06-12T14:35:59Z</time>
      </trkpt>
      <trkpt lat="48.24844" lon="-3.43028">
        <ele>146.7</ele>
        <time>2022-06-12T14:36:00Z</time>
      </trkpt>
      <trkpt lat="48.24844" lon="-3.43028">
        <ele>146.7</ele>
        <time>2022-06-12T14:36:01Z</time>
      </trkpt>
      <trkpt lat="48.24844" lon="-3.43028">
        <ele>146.7</ele>
        <time>2022-06-12T14:36:02Z</time>
      </trkpt>
      <trkpt lat="48.24844" lon="-3.43028">
        <ele>146.7</ele>
        <time>2022-06-12T14:36:03Z</time>
      </trkpt>
      <trkpt lat="48.24844" lon="-3.43028">
        <ele>146.7</ele>
        <time>2022-06-12T14:36:04Z</time>
      </trkpt>
      <trkpt lat="48.24844" lon="-3.43028">
        <ele>146.7</ele>
        <time>2022-06-12T14:36:05Z</time>
      </trkpt>
      <trkpt lat="48.24844" lon="-3.43028">
        <ele>146.7</ele>
        <time>2022-06-12T14:36:06Z</time>
      </trkpt>
      <trkpt lat="48.24844" lon="-3.43028">
        <ele>146.7</ele>
        <time>2022-06-12T14:36:07Z</time>
      </trkpt>
      <trkpt lat="48.24844" lon="-3.43028">
        <ele>146.7</ele>
        <time>2022-06-12T14:36:08Z</time>
      </trkpt>
      <trkpt lat="48.24844" lon="-3.43028">
        <ele>146.7</ele>
        <time>2022-06-12T14:36:09Z</time>
      </trkpt>
      <trkpt lat="48.24844" lon="-3.43028">
        <ele>146.7</ele>
        <time>2022-06-12T14:36:10Z</time>
      </trkpt>
      <trkpt lat="48.24844" lon="-3.43028">
        <ele>146.7</ele>
        <time>2022-06-12T14:36:11Z</time>
      </trkpt>
      <trkpt lat="48.24844" lon="-3.43028">
        <ele>146.7</ele>
        <time>2022-06-12T14:36:12Z</time>
      </trkpt>
      <trkpt lat="48.24844" lon="-3.43028">
        <ele>146.7</ele>
        <time>2022-06-12T14:36:13Z</time>
      </trkpt>
      <trkpt lat="48.24844" lon="-3.43028">
        <ele>146.7</ele>
        <time>2022-06-12T14:36:14Z</time>
      </trkpt>
      <trkpt lat="48.24844" lon="-3.43028">
        <ele>146.7</ele>
        <time>2022-06-12T14:36:15Z</time>
      </trkpt>
      <trkpt lat="48.24844" lon="-3.43028">
        <ele>146.7</ele>
        <time>2022-06-12T14:36:16Z</time>
      </trkpt>
      <trkpt lat="48.24844" lon="-3.43028">
        <ele>146.7</ele>
        <time>2022-06-12T14:36:17Z</time>
      </trkpt>
      <trkpt lat="48.24844" lon="-3.43028">
        <ele>146.7</ele>
        <time>2022-06-12T14:36:18Z</time>
      </trkpt>
      <trkpt lat="48.24844" lon="-3.43028">
        <ele>146.7</ele>
        <time>2022-06-12T14:36:19Z</time>
      </trkpt>
      <trkpt lat="48.24842" lon="-3.43032">
        <ele>146.7</ele>
        <time>2022-06-12T14:36:20Z</time>
      </trkpt>
      <trkpt lat="48.24842" lon="-3.43034">
        <ele>146.7</ele>
        <time>2022-06-12T14:36:21Z</time>
      </trkpt>
      <trkpt lat="48.24842" lon="-3.43034">
        <ele>146.7</ele>
        <time>2022-06-12T14:36:22Z</time>
      </trkpt>
      <trkpt lat="48.24842" lon="-3.43035">
        <ele>146.7</ele>
        <time>2022-06-12T14:36:23Z</time>
      </trkpt>
      <trkpt lat="48.24842" lon="-3.43035">
        <ele>146.7</ele>
        <time>2022-06-12T14:36:24Z</time>
      </trkpt>
      <trkpt lat="48.24842" lon="-3.43035">
        <ele>146.7</ele>
        <time>2022-06-12T14:36:25Z</time>
      </trkpt>
      <trkpt lat="48.24841" lon="-3.43035">
        <ele>146.7</ele>
        <time>2022-06-12T14:36:26Z</time>
      </trkpt>
      <trkpt lat="48.24841" lon="-3.43035">
        <ele>146.7</ele>
        <time>2022-06-12T14:36:27Z</time>
      </trkpt>
      <trkpt lat="48.24841" lon="-3.43035">
        <ele>146.7</ele>
        <time>2022-06-12T14:36:28Z</time>
      </trkpt>
      <trkpt lat="48.24841" lon="-3.43035">
        <ele>146.7</ele>
        <time>2022-06-12T14:36:29Z</time>
      </trkpt>
      <trkpt lat="48.24841" lon="-3.43035">
        <ele>146.7</ele>
        <time>2022-06-12T14:36:30Z</time>
      </trkpt>
      <trkpt lat="48.24841" lon="-3.43035">
        <ele>146.7</ele>
        <time>2022-06-12T14:36:31Z</time>
      </trkpt>
      <trkpt lat="48.24841" lon="-3.43035">
        <ele>146.7</ele>
        <time>2022-06-12T14:36:32Z</time>
      </trkpt>
      <trkpt lat="48.24841" lon="-3.43035">
        <ele>146.7</ele>
        <time>2022-06-12T14:36:33Z</time>
      </trkpt>
      <trkpt lat="48.24841" lon="-3.43035">
        <ele>146.7</ele>
        <time>2022-06-12T14:36:34Z</time>
      </trkpt>
      <trkpt lat="48.24841" lon="-3.43035">
        <ele>146.7</ele>
        <time>2022-06-12T14:36:35Z</time>
      </trkpt>
      <trkpt lat="48.24841" lon="-3.43035">
        <ele>146.7</ele>
        <time>2022-06-12T14:36:36Z</time>
      </trkpt>
      <trkpt lat="48.24841" lon="-3.43035">
        <ele>146.7</ele>
        <time>2022-06-12T14:36:37Z</time>
      </trkpt>
      <trkpt lat="48.24841" lon="-3.43035">
        <ele>146.7</ele>
        <time>2022-06-12T14:36:38Z</time>
      </trkpt>
      <trkpt lat="48.24841" lon="-3.43035">
        <ele>146.7</ele>
        <time>2022-06-12T14:36:39Z</time>
      </trkpt>
      <trkpt lat="48.24841" lon="-3.43035">
        <ele>146.7</ele>
        <time>2022-06-12T14:36:40Z</time>
      </trkpt>
      <trkpt lat="48.24841" lon="-3.43035">
        <ele>146.7</ele>
        <time>2022-06-12T14:36:41Z</time>
      </trkpt>
      <trkpt lat="48.24841" lon="-3.43035">
        <ele>146.7</ele>
        <time>2022-06-12T14:36:42Z</time>
      </trkpt>
      <trkpt lat="48.24841" lon="-3.43035">
        <ele>146.7</ele>
        <time>2022-06-12T14:36:43Z</time>
      </trkpt>
      <trkpt lat="48.24841" lon="-3.43035">
        <ele>146.7</ele>
        <time>2022-06-12T14:36:44Z</time>
      </trkpt>
      <trkpt lat="48.24841" lon="-3.43035">
        <ele>146.7</ele>
        <time>2022-06-12T14:36:45Z</time>
      </trkpt>
      <trkpt lat="48.24841" lon="-3.43035">
        <ele>146.7</ele>
        <time>2022-06-12T14:36:46Z</time>
      </trkpt>
      <trkpt lat="48.24841" lon="-3.43035">
        <ele>146.7</ele>
        <time>2022-06-12T14:36:47Z</time>
      </trkpt>
      <trkpt lat="48.24841" lon="-3.43035">
        <ele>146.7</ele>
        <time>2022-06-12T14:36:48Z</time>
      </trkpt>
      <trkpt lat="48.24841" lon="-3.43035">
        <ele>146.7</ele>
        <time>2022-06-12T14:36:49Z</time>
      </trkpt>
      <trkpt lat="48.24841" lon="-3.43035">
        <ele>146.7</ele>
        <time>2022-06-12T14:36:50Z</time>
      </trkpt>
      <trkpt lat="48.24841" lon="-3.43035">
        <ele>146.7</ele>
        <time>2022-06-12T14:36:51Z</time>
      </trkpt>
      <trkpt lat="48.24841" lon="-3.43035">
        <ele>146.7</ele>
        <time>2022-06-12T14:36:52Z</time>
      </trkpt>
      <trkpt lat="48.24841" lon="-3.43035">
        <ele>146.7</ele>
        <time>2022-06-12T14:36:53Z</time>
      </trkpt>
      <trkpt lat="48.24841" lon="-3.43035">
        <ele>146.7</ele>
        <time>2022-06-12T14:36:54Z</time>
      </trkpt>
      <trkpt lat="48.24841" lon="-3.43035">
        <ele>146.7</ele>
        <time>2022-06-12T14:36:55Z</time>
      </trkpt>
      <trkpt lat="48.24841" lon="-3.43035">
        <ele>146.7</ele>
        <time>2022-06-12T14:36:56Z</time>
      </trkpt>
      <trkpt lat="48.24841" lon="-3.43035">
        <ele>146.7</ele>
        <time>2022-06-12T14:36:57Z</time>
      </trkpt>
      <trkpt lat="48.24841" lon="-3.43035">
        <ele>146.7</ele>
        <time>2022-06-12T14:36:58Z</time>
      </trkpt>
      <trkpt lat="48.24841" lon="-3.43035">
        <ele>146.7</ele>
        <time>2022-06-12T14:36:59Z</time>
      </trkpt>
      <trkpt lat="48.24841" lon="-3.43035">
        <ele>146.7</ele>
        <time>2022-06-12T14:37:00Z</time>
      </trkpt>
      <trkpt lat="48.24841" lon="-3.43035">
        <ele>146.7</ele>
        <time>2022-06-12T14:37:01Z</time>
      </trkpt>
      <trkpt lat="48.24841" lon="-3.43035">
        <ele>146.7</ele>
        <time>2022-06-12T14:37:02Z</time>
      </trkpt>
      <trkpt lat="48.24841" lon="-3.43035">
        <ele>146.7</ele>
        <time>2022-06-12T14:37:03Z</time>
      </trkpt>
      <trkpt lat="48.24841" lon="-3.43035">
        <ele>146.7</ele>
        <time>2022-06-12T14:37:04Z</time>
      </trkpt>
      <trkpt lat="48.24841" lon="-3.43035">
        <ele>146.7</ele>
        <time>2022-06-12T14:37:05Z</time>
      </trkpt>
      <trkpt lat="48.24841" lon="-3.43035">
        <ele>146.7</ele>
        <time>2022-06-12T14:37:06Z</time>
      </trkpt>
      <trkpt lat="48.24841" lon="-3.43035">
        <ele>146.7</ele>
        <time>2022-06-12T14:37:07Z</time>
      </trkpt>
      <trkpt lat="48.24841" lon="-3.43035">
        <ele>146.7</ele>
        <time>2022-06-12T14:37:08Z</time>
      </trkpt>
      <trkpt lat="48.24841" lon="-3.43035">
        <ele>146.7</ele>
        <time>2022-06-12T14:37:09Z</time>
      </trkpt>
      <trkpt lat="48.24841" lon="-3.43035">
        <ele>146.7</ele>
        <time>2022-06-12T14:37:10Z</time>
      </trkpt>
      <trkpt lat="48.24841" lon="-3.43035">
        <ele>146.7</ele>
        <time>2022-06-12T14:37:11Z</time>
      </trkpt>
      <trkpt lat="48.24841" lon="-3.43035">
        <ele>146.7</ele>
        <time>2022-06-12T14:37:12Z</time>
      </trkpt>
      <trkpt lat="48.24841" lon="-3.43035">
        <ele>146.7</ele>
        <time>2022-06-12T14:37:13Z</time>
      </trkpt>
      <trkpt lat="48.24841" lon="-3.43035">
        <ele>146.7</ele>
        <time>2022-06-12T14:37:14Z</time>
      </trkpt>
      <trkpt lat="48.24841" lon="-3.43035">
        <ele>146.7</ele>
        <time>2022-06-12T14:37:15Z</time>
      </trkpt>
      <trkpt lat="48.24841" lon="-3.43035">
        <ele>146.7</ele>
        <time>2022-06-12T14:37:16Z</time>
      </trkpt>
      <trkpt lat="48.24841" lon="-3.43035">
        <ele>146.7</ele>
        <time>2022-06-12T14:37:17Z</time>
      </trkpt>
      <trkpt lat="48.24841" lon="-3.43035">
        <ele>146.7</ele>
        <time>2022-06-12T14:37:18Z</time>
      </trkpt>
      <trkpt lat="48.24841" lon="-3.43035">
        <ele>146.7</ele>
        <time>2022-06-12T14:37:19Z</time>
      </trkpt>
      <trkpt lat="48.24841" lon="-3.43035">
        <ele>146.7</ele>
        <time>2022-06-12T14:37:20Z</time>
      </trkpt>
      <trkpt lat="48.24841" lon="-3.43035">
        <ele>146.7</ele>
        <time>2022-06-12T14:37:21Z</time>
      </trkpt>
      <trkpt lat="48.24841" lon="-3.43035">
        <ele>146.7</ele>
        <time>2022-06-12T14:37:22Z</time>
      </trkpt>
      <trkpt lat="48.24841" lon="-3.43035">
        <ele>146.7</ele>
        <time>2022-06-12T14:37:23Z</time>
      </trkpt>
      <trkpt lat="48.24841" lon="-3.43035">
        <ele>146.7</ele>
        <time>2022-06-12T14:37:24Z</time>
      </trkpt>
      <trkpt lat="48.24841" lon="-3.43035">
        <ele>146.7</ele>
        <time>2022-06-12T14:37:25Z</time>
      </trkpt>
      <trkpt lat="48.24841" lon="-3.43035">
        <ele>146.7</ele>
        <time>2022-06-12T14:37:26Z</time>
      </trkpt>
      <trkpt lat="48.24841" lon="-3.43035">
        <ele>146.7</ele>
        <time>2022-06-12T14:37:27Z</time>
      </trkpt>
      <trkpt lat="48.24841" lon="-3.43035">
        <ele>146.7</ele>
        <time>2022-06-12T14:37:28Z</time>
      </trkpt>
      <trkpt lat="48.24841" lon="-3.43035">
        <ele>146.7</ele>
        <time>2022-06-12T14:37:29Z</time>
      </trkpt>
      <trkpt lat="48.24841" lon="-3.43035">
        <ele>146.7</ele>
        <time>2022-06-12T14:37:30Z</time>
      </trkpt>
      <trkpt lat="48.24841" lon="-3.43035">
        <ele>146.7</ele>
        <time>2022-06-12T14:37:31Z</time>
      </trkpt>
      <trkpt lat="48.24841" lon="-3.43035">
        <ele>146.7</ele>
        <time>2022-06-12T14:37:32Z</time>
      </trkpt>
      <trkpt lat="48.24841" lon="-3.43035">
        <ele>146.7</ele>
        <time>2022-06-12T14:37:33Z</time>
      </trkpt>
      <trkpt lat="48.24841" lon="-3.43035">
        <ele>146.7</ele>
        <time>2022-06-12T14:37:34Z</time>
      </trkpt>
      <trkpt lat="48.24841" lon="-3.43035">
        <ele>146.7</ele>
        <time>2022-06-12T14:37:35Z</time>
      </trkpt>
      <trkpt lat="48.24841" lon="-3.43035">
        <ele>146.7</ele>
        <time>2022-06-12T14:37:36Z</time>
      </trkpt>
      <trkpt lat="48.24841" lon="-3.43035">
        <ele>146.7</ele>
        <time>2022-06-12T14:37:37Z</time>
      </trkpt>
      <trkpt lat="48.24841" lon="-3.43035">
        <ele>146.7</ele>
        <time>2022-06-12T14:37:38Z</time>
      </trkpt>
      <trkpt lat="48.24841" lon="-3.43035">
        <ele>146.7</ele>
        <time>2022-06-12T14:37:39Z</time>
      </trkpt>
      <trkpt lat="48.24841" lon="-3.43035">
        <ele>146.7</ele>
        <time>2022-06-12T14:37:40Z</time>
      </trkpt>
      <trkpt lat="48.24841" lon="-3.43035">
        <ele>146.7</ele>
        <time>2022-06-12T14:37:41Z</time>
      </trkpt>
      <trkpt lat="48.24841" lon="-3.43035">
        <ele>146.7</ele>
        <time>2022-06-12T14:37:42Z</time>
      </trkpt>
      <trkpt lat="48.24841" lon="-3.43035">
        <ele>146.7</ele>
        <time>2022-06-12T14:37:43Z</time>
      </trkpt>
      <trkpt lat="48.24841" lon="-3.43035">
        <ele>146.7</ele>
        <time>2022-06-12T14:37:44Z</time>
      </trkpt>
      <trkpt lat="48.24841" lon="-3.43035">
        <ele>146.7</ele>
        <time>2022-06-12T14:37:45Z</time>
      </trkpt>
      <trkpt lat="48.24841" lon="-3.43035">
        <ele>146.7</ele>
        <time>2022-06-12T14:37:46Z</time>
      </trkpt>
      <trkpt lat="48.24841" lon="-3.43035">
        <ele>146.7</ele>
        <time>2022-06-12T14:37:47Z</time>
      </trkpt>
      <trkpt lat="48.24841" lon="-3.43035">
        <ele>146.7</ele>
        <time>2022-06-12T14:37:48Z</time>
      </trkpt>
      <trkpt lat="48.24841" lon="-3.43035">
        <ele>146.7</ele>
        <time>2022-06-12T14:37:49Z</time>
      </trkpt>
      <trkpt lat="48.24841" lon="-3.43035">
        <ele>146.7</ele>
        <time>2022-06-12T14:37:50Z</time>
      </trkpt>
      <trkpt lat="48.24841" lon="-3.43035">
        <ele>146.7</ele>
        <time>2022-06-12T14:37:51Z</time>
      </trkpt>
      <trkpt lat="48.24841" lon="-3.43035">
        <ele>146.7</ele>
        <time>2022-06-12T14:37:52Z</time>
      </trkpt>
      <trkpt lat="48.24841" lon="-3.43035">
        <ele>146.7</ele>
        <time>2022-06-12T14:37:53Z</time>
      </trkpt>
      <trkpt lat="48.24841" lon="-3.43035">
        <ele>146.7</ele>
        <time>2022-06-12T14:37:54Z</time>
      </trkpt>
      <trkpt lat="48.24841" lon="-3.43035">
        <ele>146.7</ele>
        <time>2022-06-12T14:37:55Z</time>
      </trkpt>
      <trkpt lat="48.24841" lon="-3.43035">
        <ele>146.7</ele>
        <time>2022-06-12T14:37:56Z</time>
      </trkpt>
      <trkpt lat="48.24841" lon="-3.43035">
        <ele>146.7</ele>
        <time>2022-06-12T14:37:57Z</time>
      </trkpt>
      <trkpt lat="48.24841" lon="-3.43035">
        <ele>146.7</ele>
        <time>2022-06-12T14:37:58Z</time>
      </trkpt>
      <trkpt lat="48.24841" lon="-3.43035">
        <ele>146.7</ele>
        <time>2022-06-12T14:37:59Z</time>
      </trkpt>
      <trkpt lat="48.24841" lon="-3.43035">
        <ele>146.7</ele>
        <time>2022-06-12T14:38:00Z</time>
      </trkpt>
      <trkpt lat="48.24841" lon="-3.43035">
        <ele>146.7</ele>
        <time>2022-06-12T14:38:01Z</time>
      </trkpt>
      <trkpt lat="48.24841" lon="-3.43035">
        <ele>146.7</ele>
        <time>2022-06-12T14:38:02Z</time>
      </trkpt>
      <trkpt lat="48.24841" lon="-3.43035">
        <ele>146.7</ele>
        <time>2022-06-12T14:38:03Z</time>
      </trkpt>
      <trkpt lat="48.24841" lon="-3.43035">
        <ele>146.7</ele>
        <time>2022-06-12T14:38:04Z</time>
      </trkpt>
      <trkpt lat="48.24841" lon="-3.43035">
        <ele>146.7</ele>
        <time>2022-06-12T14:38:05Z</time>
      </trkpt>
      <trkpt lat="48.24841" lon="-3.43035">
        <ele>146.7</ele>
        <time>2022-06-12T14:38:06Z</time>
      </trkpt>
      <trkpt lat="48.24841" lon="-3.43035">
        <ele>146.7</ele>
        <time>2022-06-12T14:38:07Z</time>
      </trkpt>
      <trkpt lat="48.24841" lon="-3.43035">
        <ele>146.7</ele>
        <time>2022-06-12T14:38:08Z</time>
      </trkpt>
      <trkpt lat="48.24841" lon="-3.43035">
        <ele>146.7</ele>
        <time>2022-06-12T14:38:09Z</time>
      </trkpt>
      <trkpt lat="48.24841" lon="-3.43035">
        <ele>146.7</ele>
        <time>2022-06-12T14:38:10Z</time>
      </trkpt>
      <trkpt lat="48.24841" lon="-3.43035">
        <ele>146.7</ele>
        <time>2022-06-12T14:38:11Z</time>
      </trkpt>
      <trkpt lat="48.24841" lon="-3.43035">
        <ele>146.7</ele>
        <time>2022-06-12T14:38:12Z</time>
      </trkpt>
      <trkpt lat="48.24841" lon="-3.43035">
        <ele>146.7</ele>
        <time>2022-06-12T14:38:13Z</time>
      </trkpt>
      <trkpt lat="48.24841" lon="-3.43035">
        <ele>146.7</ele>
        <time>2022-06-12T14:38:14Z</time>
      </trkpt>
      <trkpt lat="48.24841" lon="-3.43035">
        <ele>146.7</ele>
        <time>2022-06-12T14:38:15Z</time>
      </trkpt>
      <trkpt lat="48.24841" lon="-3.43035">
        <ele>146.7</ele>
        <time>2022-06-12T14:38:16Z</time>
      </trkpt>
      <trkpt lat="48.24841" lon="-3.43035">
        <ele>146.7</ele>
        <time>2022-06-12T14:38:17Z</time>
      </trkpt>
      <trkpt lat="48.24841" lon="-3.43035">
        <ele>146.7</ele>
        <time>2022-06-12T14:38:18Z</time>
      </trkpt>
      <trkpt lat="48.24841" lon="-3.43035">
        <ele>146.7</ele>
        <time>2022-06-12T14:38:19Z</time>
      </trkpt>
      <trkpt lat="48.24841" lon="-3.43035">
        <ele>146.7</ele>
        <time>2022-06-12T14:38:20Z</time>
      </trkpt>
      <trkpt lat="48.24841" lon="-3.43035">
        <ele>146.7</ele>
        <time>2022-06-12T14:38:21Z</time>
      </trkpt>
      <trkpt lat="48.24841" lon="-3.43035">
        <ele>146.7</ele>
        <time>2022-06-12T14:38:22Z</time>
      </trkpt>
      <trkpt lat="48.24841" lon="-3.43035">
        <ele>146.7</ele>
        <time>2022-06-12T14:38:23Z</time>
      </trkpt>
      <trkpt lat="48.24841" lon="-3.43035">
        <ele>146.7</ele>
        <time>2022-06-12T14:38:24Z</time>
      </trkpt>
      <trkpt lat="48.24841" lon="-3.43035">
        <ele>146.7</ele>
        <time>2022-06-12T14:38:25Z</time>
      </trkpt>
      <trkpt lat="48.24841" lon="-3.43035">
        <ele>146.7</ele>
        <time>2022-06-12T14:38:26Z</time>
      </trkpt>
      <trkpt lat="48.24841" lon="-3.43035">
        <ele>146.7</ele>
        <time>2022-06-12T14:38:27Z</time>
      </trkpt>
      <trkpt lat="48.24841" lon="-3.43035">
        <ele>146.7</ele>
        <time>2022-06-12T14:38:28Z</time>
      </trkpt>
      <trkpt lat="48.24841" lon="-3.43035">
        <ele>146.7</ele>
        <time>2022-06-12T14:38:29Z</time>
      </trkpt>
      <trkpt lat="48.24841" lon="-3.43035">
        <ele>146.7</ele>
        <time>2022-06-12T14:38:30Z</time>
      </trkpt>
      <trkpt lat="48.24841" lon="-3.43035">
        <ele>146.7</ele>
        <time>2022-06-12T14:38:31Z</time>
      </trkpt>
      <trkpt lat="48.24841" lon="-3.43035">
        <ele>146.7</ele>
        <time>2022-06-12T14:38:32Z</time>
      </trkpt>
      <trkpt lat="48.24841" lon="-3.43035">
        <ele>146.7</ele>
        <time>2022-06-12T14:38:33Z</time>
      </trkpt>
      <trkpt lat="48.24841" lon="-3.43035">
        <ele>146.7</ele>
        <time>2022-06-12T14:38:34Z</time>
      </trkpt>
      <trkpt lat="48.24841" lon="-3.43035">
        <ele>146.7</ele>
        <time>2022-06-12T14:38:35Z</time>
      </trkpt>
      <trkpt lat="48.24841" lon="-3.43035">
        <ele>146.7</ele>
        <time>2022-06-12T14:38:36Z</time>
      </trkpt>
      <trkpt lat="48.24841" lon="-3.43035">
        <ele>146.7</ele>
        <time>2022-06-12T14:38:37Z</time>
      </trkpt>
      <trkpt lat="48.24841" lon="-3.43035">
        <ele>146.7</ele>
        <time>2022-06-12T14:38:38Z</time>
      </trkpt>
      <trkpt lat="48.24841" lon="-3.43035">
        <ele>146.7</ele>
        <time>2022-06-12T14:38:39Z</time>
      </trkpt>
      <trkpt lat="48.24841" lon="-3.43035">
        <ele>146.7</ele>
        <time>2022-06-12T14:38:40Z</time>
      </trkpt>
      <trkpt lat="48.24841" lon="-3.43035">
        <ele>146.7</ele>
        <time>2022-06-12T14:38:41Z</time>
      </trkpt>
      <trkpt lat="48.24841" lon="-3.43035">
        <ele>146.7</ele>
        <time>2022-06-12T14:38:42Z</time>
      </trkpt>
      <trkpt lat="48.24841" lon="-3.43035">
        <ele>146.7</ele>
        <time>2022-06-12T14:38:43Z</time>
      </trkpt>
      <trkpt lat="48.24841" lon="-3.43035">
        <ele>146.7</ele>
        <time>2022-06-12T14:38:44Z</time>
      </trkpt>
      <trkpt lat="48.24841" lon="-3.43035">
        <ele>146.7</ele>
        <time>2022-06-12T14:38:45Z</time>
      </trkpt>
      <trkpt lat="48.24841" lon="-3.43035">
        <ele>146.7</ele>
        <time>2022-06-12T14:38:46Z</time>
      </trkpt>
      <trkpt lat="48.24841" lon="-3.43035">
        <ele>146.7</ele>
        <time>2022-06-12T14:38:47Z</time>
      </trkpt>
      <trkpt lat="48.24841" lon="-3.43035">
        <ele>146.7</ele>
        <time>2022-06-12T14:38:48Z</time>
      </trkpt>
      <trkpt lat="48.24841" lon="-3.43035">
        <ele>146.7</ele>
        <time>2022-06-12T14:38:49Z</time>
      </trkpt>
      <trkpt lat="48.24841" lon="-3.43035">
        <ele>146.7</ele>
        <time>2022-06-12T14:38:50Z</time>
      </trkpt>
      <trkpt lat="48.24841" lon="-3.43035">
        <ele>146.7</ele>
        <time>2022-06-12T14:38:51Z</time>
      </trkpt>
      <trkpt lat="48.24841" lon="-3.43035">
        <ele>146.7</ele>
        <time>2022-06-12T14:38:52Z</time>
      </trkpt>
      <trkpt lat="48.24841" lon="-3.43035">
        <ele>146.7</ele>
        <time>2022-06-12T14:38:53Z</time>
      </trkpt>
      <trkpt lat="48.24841" lon="-3.43035">
        <ele>146.7</ele>
        <time>2022-06-12T14:38:54Z</time>
      </trkpt>
      <trkpt lat="48.24841" lon="-3.43035">
        <ele>146.7</ele>
        <time>2022-06-12T14:38:55Z</time>
      </trkpt>
      <trkpt lat="48.24841" lon="-3.43035">
        <ele>146.7</ele>
        <time>2022-06-12T14:38:56Z</time>
      </trkpt>
      <trkpt lat="48.24841" lon="-3.43035">
        <ele>146.7</ele>
        <time>2022-06-12T14:38:57Z</time>
      </trkpt>
      <trkpt lat="48.24841" lon="-3.43035">
        <ele>146.7</ele>
        <time>2022-06-12T14:38:58Z</time>
      </trkpt>
      <trkpt lat="48.24841" lon="-3.43035">
        <ele>146.7</ele>
        <time>2022-06-12T14:38:59Z</time>
      </trkpt>
      <trkpt lat="48.24841" lon="-3.43035">
        <ele>146.7</ele>
        <time>2022-06-12T14:39:00Z</time>
      </trkpt>
      <trkpt lat="48.24841" lon="-3.43035">
        <ele>146.7</ele>
        <time>2022-06-12T14:39:01Z</time>
      </trkpt>
      <trkpt lat="48.24841" lon="-3.43035">
        <ele>146.7</ele>
        <time>2022-06-12T14:39:02Z</time>
      </trkpt>
      <trkpt lat="48.24841" lon="-3.43035">
        <ele>146.7</ele>
        <time>2022-06-12T14:39:03Z</time>
      </trkpt>
      <trkpt lat="48.24841" lon="-3.43035">
        <ele>146.7</ele>
        <time>2022-06-12T14:39:04Z</time>
      </trkpt>
      <trkpt lat="48.24841" lon="-3.43035">
        <ele>146.7</ele>
        <time>2022-06-12T14:39:05Z</time>
      </trkpt>
      <trkpt lat="48.24841" lon="-3.43035">
        <ele>146.7</ele>
        <time>2022-06-12T14:39:06Z</time>
      </trkpt>
      <trkpt lat="48.24841" lon="-3.43035">
        <ele>146.7</ele>
        <time>2022-06-12T14:39:07Z</time>
      </trkpt>
      <trkpt lat="48.24841" lon="-3.43035">
        <ele>146.7</ele>
        <time>2022-06-12T14:39:08Z</time>
      </trkpt>
      <trkpt lat="48.24841" lon="-3.43035">
        <ele>146.7</ele>
        <time>2022-06-12T14:39:09Z</time>
      </trkpt>
      <trkpt lat="48.24841" lon="-3.43035">
        <ele>146.7</ele>
        <time>2022-06-12T14:39:10Z</time>
      </trkpt>
      <trkpt lat="48.24841" lon="-3.43035">
        <ele>146.7</ele>
        <time>2022-06-12T14:39:11Z</time>
      </trkpt>
      <trkpt lat="48.24841" lon="-3.43035">
        <ele>146.7</ele>
        <time>2022-06-12T14:39:12Z</time>
      </trkpt>
      <trkpt lat="48.24841" lon="-3.43035">
        <ele>146.7</ele>
        <time>2022-06-12T14:39:13Z</time>
      </trkpt>
      <trkpt lat="48.24841" lon="-3.43035">
        <ele>146.7</ele>
        <time>2022-06-12T14:39:14Z</time>
      </trkpt>
      <trkpt lat="48.24841" lon="-3.43035">
        <ele>146.7</ele>
        <time>2022-06-12T14:39:15Z</time>
      </trkpt>
      <trkpt lat="48.24841" lon="-3.43035">
        <ele>146.7</ele>
        <time>2022-06-12T14:39:16Z</time>
      </trkpt>
      <trkpt lat="48.24841" lon="-3.43035">
        <ele>146.7</ele>
        <time>2022-06-12T14:39:17Z</time>
      </trkpt>
      <trkpt lat="48.24841" lon="-3.43035">
        <ele>146.7</ele>
        <time>2022-06-12T14:39:18Z</time>
      </trkpt>
      <trkpt lat="48.24841" lon="-3.43035">
        <ele>146.7</ele>
        <time>2022-06-12T14:39:19Z</time>
      </trkpt>
      <trkpt lat="48.24841" lon="-3.43035">
        <ele>146.7</ele>
        <time>2022-06-12T14:39:20Z</time>
      </trkpt>
      <trkpt lat="48.24841" lon="-3.43035">
        <ele>146.7</ele>
        <time>2022-06-12T14:39:21Z</time>
      </trkpt>
      <trkpt lat="48.24841" lon="-3.43035">
        <ele>146.7</ele>
        <time>2022-06-12T14:39:22Z</time>
      </trkpt>
      <trkpt lat="48.24841" lon="-3.43035">
        <ele>146.7</ele>
        <time>2022-06-12T14:39:23Z</time>
      </trkpt>
      <trkpt lat="48.24841" lon="-3.43035">
        <ele>146.7</ele>
        <time>2022-06-12T14:39:24Z</time>
      </trkpt>
      <trkpt lat="48.24841" lon="-3.43035">
        <ele>146.7</ele>
        <time>2022-06-12T14:39:25Z</time>
      </trkpt>
      <trkpt lat="48.24841" lon="-3.43035">
        <ele>146.7</ele>
        <time>2022-06-12T14:39:26Z</time>
      </trkpt>
      <trkpt lat="48.24841" lon="-3.43035">
        <ele>146.7</ele>
        <time>2022-06-12T14:39:27Z</time>
      </trkpt>
      <trkpt lat="48.24841" lon="-3.43035">
        <ele>146.7</ele>
        <time>2022-06-12T14:39:28Z</time>
      </trkpt>
      <trkpt lat="48.24841" lon="-3.43035">
        <ele>146.7</ele>
        <time>2022-06-12T14:39:29Z</time>
      </trkpt>
      <trkpt lat="48.24841" lon="-3.43035">
        <ele>146.7</ele>
        <time>2022-06-12T14:39:30Z</time>
      </trkpt>
      <trkpt lat="48.24841" lon="-3.43035">
        <ele>146.7</ele>
        <time>2022-06-12T14:39:31Z</time>
      </trkpt>
      <trkpt lat="48.24841" lon="-3.43035">
        <ele>146.7</ele>
        <time>2022-06-12T14:39:32Z</time>
      </trkpt>
      <trkpt lat="48.24841" lon="-3.43035">
        <ele>146.7</ele>
        <time>2022-06-12T14:39:33Z</time>
      </trkpt>
      <trkpt lat="48.24841" lon="-3.43035">
        <ele>146.7</ele>
        <time>2022-06-12T14:39:34Z</time>
      </trkpt>
      <trkpt lat="48.24841" lon="-3.43035">
        <ele>146.7</ele>
        <time>2022-06-12T14:39:35Z</time>
      </trkpt>
      <trkpt lat="48.24841" lon="-3.43035">
        <ele>146.7</ele>
        <time>2022-06-12T14:39:36Z</time>
      </trkpt>
      <trkpt lat="48.24841" lon="-3.43035">
        <ele>146.7</ele>
        <time>2022-06-12T14:39:37Z</time>
      </trkpt>
      <trkpt lat="48.24841" lon="-3.43035">
        <ele>146.7</ele>
        <time>2022-06-12T14:39:38Z</time>
      </trkpt>
      <trkpt lat="48.24841" lon="-3.43035">
        <ele>146.7</ele>
        <time>2022-06-12T14:39:39Z</time>
      </trkpt>
      <trkpt lat="48.24841" lon="-3.43035">
        <ele>146.7</ele>
        <time>2022-06-12T14:39:40Z</time>
      </trkpt>
      <trkpt lat="48.24841" lon="-3.43035">
        <ele>146.7</ele>
        <time>2022-06-12T14:39:41Z</time>
      </trkpt>
      <trkpt lat="48.24841" lon="-3.43035">
        <ele>146.7</ele>
        <time>2022-06-12T14:39:42Z</time>
      </trkpt>
      <trkpt lat="48.24841" lon="-3.43035">
        <ele>146.7</ele>
        <time>2022-06-12T14:39:43Z</time>
      </trkpt>
      <trkpt lat="48.24841" lon="-3.43035">
        <ele>146.7</ele>
        <time>2022-06-12T14:39:44Z</time>
      </trkpt>
      <trkpt lat="48.24841" lon="-3.43035">
        <ele>146.7</ele>
        <time>2022-06-12T14:39:45Z</time>
      </trkpt>
      <trkpt lat="48.24841" lon="-3.43035">
        <ele>146.7</ele>
        <time>2022-06-12T14:39:46Z</time>
      </trkpt>
      <trkpt lat="48.24841" lon="-3.43035">
        <ele>146.7</ele>
        <time>2022-06-12T14:39:47Z</time>
      </trkpt>
      <trkpt lat="48.24841" lon="-3.43035">
        <ele>146.7</ele>
        <time>2022-06-12T14:39:48Z</time>
      </trkpt>
      <trkpt lat="48.24841" lon="-3.43035">
        <ele>146.7</ele>
        <time>2022-06-12T14:39:49Z</time>
      </trkpt>
      <trkpt lat="48.24841" lon="-3.43035">
        <ele>146.7</ele>
        <time>2022-06-12T14:39:50Z</time>
      </trkpt>
      <trkpt lat="48.24841" lon="-3.43035">
        <ele>146.7</ele>
        <time>2022-06-12T14:39:51Z</time>
      </trkpt>
      <trkpt lat="48.24841" lon="-3.43035">
        <ele>146.7</ele>
        <time>2022-06-12T14:39:52Z</time>
      </trkpt>
      <trkpt lat="48.24841" lon="-3.43035">
        <ele>146.7</ele>
        <time>2022-06-12T14:39:53Z</time>
      </trkpt>
      <trkpt lat="48.24841" lon="-3.43035">
        <ele>146.7</ele>
        <time>2022-06-12T14:39:54Z</time>
      </trkpt>
      <trkpt lat="48.24841" lon="-3.43035">
        <ele>146.7</ele>
        <time>2022-06-12T14:39:55Z</time>
      </trkpt>
      <trkpt lat="48.24841" lon="-3.43035">
        <ele>146.7</ele>
        <time>2022-06-12T14:39:56Z</time>
      </trkpt>
      <trkpt lat="48.24841" lon="-3.43035">
        <ele>146.7</ele>
        <time>2022-06-12T14:39:57Z</time>
      </trkpt>
      <trkpt lat="48.24841" lon="-3.43035">
        <ele>146.7</ele>
        <time>2022-06-12T14:39:58Z</time>
      </trkpt>
      <trkpt lat="48.24841" lon="-3.43035">
        <ele>146.7</ele>
        <time>2022-06-12T14:39:59Z</time>
      </trkpt>
      <trkpt lat="48.24841" lon="-3.43035">
        <ele>146.7</ele>
        <time>2022-06-12T14:40:00Z</time>
      </trkpt>
      <trkpt lat="48.24841" lon="-3.43035">
        <ele>146.7</ele>
        <time>2022-06-12T14:40:01Z</time>
      </trkpt>
      <trkpt lat="48.24841" lon="-3.43035">
        <ele>146.7</ele>
        <time>2022-06-12T14:40:02Z</time>
      </trkpt>
      <trkpt lat="48.24841" lon="-3.43035">
        <ele>146.7</ele>
        <time>2022-06-12T14:40:03Z</time>
      </trkpt>
      <trkpt lat="48.24841" lon="-3.43035">
        <ele>146.7</ele>
        <time>2022-06-12T14:40:04Z</time>
      </trkpt>
      <trkpt lat="48.24841" lon="-3.43035">
        <ele>146.7</ele>
        <time>2022-06-12T14:40:05Z</time>
      </trkpt>
      <trkpt lat="48.24841" lon="-3.43035">
        <ele>146.7</ele>
        <time>2022-06-12T14:40:06Z</time>
      </trkpt>
      <trkpt lat="48.24841" lon="-3.43035">
        <ele>146.7</ele>
        <time>2022-06-12T14:40:07Z</time>
      </trkpt>
      <trkpt lat="48.24841" lon="-3.43035">
        <ele>146.7</ele>
        <time>2022-06-12T14:40:08Z</time>
      </trkpt>
      <trkpt lat="48.24841" lon="-3.43035">
        <ele>146.7</ele>
        <time>2022-06-12T14:40:09Z</time>
      </trkpt>
      <trkpt lat="48.24841" lon="-3.43035">
        <ele>146.7</ele>
        <time>2022-06-12T14:40:10Z</time>
      </trkpt>
      <trkpt lat="48.24841" lon="-3.43034">
        <ele>146.7</ele>
        <time>2022-06-12T14:40:11Z</time>
      </trkpt>
      <trkpt lat="48.24841" lon="-3.43035">
        <ele>146.7</ele>
        <time>2022-06-12T14:40:12Z</time>
      </trkpt>
      <trkpt lat="48.2484" lon="-3.43035">
        <ele>146.7</ele>
        <time>2022-06-12T14:40:13Z</time>
      </trkpt>
      <trkpt lat="48.2484" lon="-3.43035">
        <ele>146.7</ele>
        <time>2022-06-12T14:40:14Z</time>
      </trkpt>
      <trkpt lat="48.2484" lon="-3.43035">
        <ele>146.7</ele>
        <time>2022-06-12T14:40:15Z</time>
      </trkpt>
      <trkpt lat="48.2484" lon="-3.43035">
        <ele>146.7</ele>
        <time>2022-06-12T14:40:16Z</time>
      </trkpt>
      <trkpt lat="48.2484" lon="-3.43035">
        <ele>146.7</ele>
        <time>2022-06-12T14:40:17Z</time>
      </trkpt>
      <trkpt lat="48.2484" lon="-3.43035">
        <ele>146.7</ele>
        <time>2022-06-12T14:40:18Z</time>
      </trkpt>
      <trkpt lat="48.2484" lon="-3.43035">
        <ele>146.7</ele>
        <time>2022-06-12T14:40:19Z</time>
      </trkpt>
      <trkpt lat="48.2484" lon="-3.43035">
        <ele>146.7</ele>
        <time>2022-06-12T14:40:20Z</time>
      </trkpt>
      <trkpt lat="48.2484" lon="-3.43035">
        <ele>146.7</ele>
        <time>2022-06-12T14:40:21Z</time>
      </trkpt>
      <trkpt lat="48.2484" lon="-3.43035">
        <ele>146.7</ele>
        <time>2022-06-12T14:40:22Z</time>
      </trkpt>
      <trkpt lat="48.2484" lon="-3.43035">
        <ele>146.7</ele>
        <time>2022-06-12T14:40:23Z</time>
      </trkpt>
      <trkpt lat="48.2484" lon="-3.43035">
        <ele>146.7</ele>
        <time>2022-06-12T14:40:24Z</time>
      </trkpt>
      <trkpt lat="48.2484" lon="-3.43035">
        <ele>146.7</ele>
        <time>2022-06-12T14:40:25Z</time>
      </trkpt>
      <trkpt lat="48.2484" lon="-3.43035">
        <ele>146.7</ele>
        <time>2022-06-12T14:40:26Z</time>
      </trkpt>
      <trkpt lat="48.2484" lon="-3.43035">
        <ele>146.7</ele>
        <time>2022-06-12T14:40:27Z</time>
      </trkpt>
      <trkpt lat="48.2484" lon="-3.43035">
        <ele>146.7</ele>
        <time>2022-06-12T14:40:28Z</time>
      </trkpt>
      <trkpt lat="48.2484" lon="-3.43035">
        <ele>146.7</ele>
        <time>2022-06-12T14:40:29Z</time>
      </trkpt>
      <trkpt lat="48.2484" lon="-3.43035">
        <ele>146.7</ele>
        <time>2022-06-12T14:40:30Z</time>
      </trkpt>
      <trkpt lat="48.2484" lon="-3.43035">
        <ele>146.7</ele>
        <time>2022-06-12T14:40:31Z</time>
      </trkpt>
      <trkpt lat="48.2484" lon="-3.43035">
        <ele>146.7</ele>
        <time>2022-06-12T14:40:32Z</time>
      </trkpt>
      <trkpt lat="48.2484" lon="-3.43035">
        <ele>146.7</ele>
        <time>2022-06-12T14:40:33Z</time>
      </trkpt>
      <trkpt lat="48.2484" lon="-3.43035">
        <ele>146.7</ele>
        <time>2022-06-12T14:40:34Z</time>
      </trkpt>
      <trkpt lat="48.2484" lon="-3.43035">
        <ele>146.7</ele>
        <time>2022-06-12T14:40:35Z</time>
      </trkpt>
      <trkpt lat="48.2484" lon="-3.43035">
        <ele>146.7</ele>
        <time>2022-06-12T14:40:36Z</time>
      </trkpt>
      <trkpt lat="48.2484" lon="-3.43035">
        <ele>146.7</ele>
        <time>2022-06-12T14:40:37Z</time>
      </trkpt>
      <trkpt lat="48.2484" lon="-3.43035">
        <ele>146.7</ele>
        <time>2022-06-12T14:40:38Z</time>
      </trkpt>
      <trkpt lat="48.2484" lon="-3.43035">
        <ele>146.7</ele>
        <time>2022-06-12T14:40:39Z</time>
      </trkpt>
      <trkpt lat="48.2484" lon="-3.43035">
        <ele>146.7</ele>
        <time>2022-06-12T14:40:40Z</time>
      </trkpt>
      <trkpt lat="48.2484" lon="-3.43035">
        <ele>146.7</ele>
        <time>2022-06-12T14:40:41Z</time>
      </trkpt>
      <trkpt lat="48.2484" lon="-3.43035">
        <ele>146.7</ele>
        <time>2022-06-12T14:40:42Z</time>
      </trkpt>
      <trkpt lat="48.2484" lon="-3.43035">
        <ele>146.7</ele>
        <time>2022-06-12T14:40:43Z</time>
      </trkpt>
      <trkpt lat="48.2484" lon="-3.43035">
        <ele>146.7</ele>
        <time>2022-06-12T14:40:44Z</time>
      </trkpt>
      <trkpt lat="48.2484" lon="-3.43035">
        <ele>146.7</ele>
        <time>2022-06-12T14:40:45Z</time>
      </trkpt>
      <trkpt lat="48.2484" lon="-3.43035">
        <ele>146.7</ele>
        <time>2022-06-12T14:40:46Z</time>
      </trkpt>
      <trkpt lat="48.2484" lon="-3.43035">
        <ele>146.7</ele>
        <time>2022-06-12T14:40:47Z</time>
      </trkpt>
      <trkpt lat="48.2484" lon="-3.43035">
        <ele>146.7</ele>
        <time>2022-06-12T14:40:48Z</time>
      </trkpt>
      <trkpt lat="48.24841" lon="-3.43035">
        <ele>146.7</ele>
        <time>2022-06-12T14:40:49Z</time>
      </trkpt>
      <trkpt lat="48.24841" lon="-3.43035">
        <ele>146.7</ele>
        <time>2022-06-12T14:40:50Z</time>
      </trkpt>
      <trkpt lat="48.24841" lon="-3.43035">
        <ele>146.7</ele>
        <time>2022-06-12T14:40:51Z</time>
      </trkpt>
      <trkpt lat="48.24841" lon="-3.43035">
        <ele>146.7</ele>
        <time>2022-06-12T14:40:52Z</time>
      </trkpt>
      <trkpt lat="48.24841" lon="-3.43035">
        <ele>146.7</ele>
        <time>2022-06-12T14:40:53Z</time>
      </trkpt>
      <trkpt lat="48.24841" lon="-3.43035">
        <ele>146.7</ele>
        <time>2022-06-12T14:40:54Z</time>
      </trkpt>
      <trkpt lat="48.24841" lon="-3.43035">
        <ele>146.7</ele>
        <time>2022-06-12T14:40:55Z</time>
      </trkpt>
      <trkpt lat="48.24841" lon="-3.43035">
        <ele>146.7</ele>
        <time>2022-06-12T14:40:56Z</time>
      </trkpt>
      <trkpt lat="48.24841" lon="-3.43035">
        <ele>146.7</ele>
        <time>2022-06-12T14:40:57Z</time>
      </trkpt>
      <trkpt lat="48.24841" lon="-3.43035">
        <ele>146.7</ele>
        <time>2022-06-12T14:40:58Z</time>
      </trkpt>
      <trkpt lat="48.24841" lon="-3.43035">
        <ele>146.7</ele>
        <time>2022-06-12T14:40:59Z</time>
      </trkpt>
      <trkpt lat="48.24841" lon="-3.43035">
        <ele>146.7</ele>
        <time>2022-06-12T14:41:00Z</time>
      </trkpt>
      <trkpt lat="48.24841" lon="-3.43035">
        <ele>146.7</ele>
        <time>2022-06-12T14:41:01Z</time>
      </trkpt>
      <trkpt lat="48.24841" lon="-3.43035">
        <ele>146.7</ele>
        <time>2022-06-12T14:41:02Z</time>
      </trkpt>
      <trkpt lat="48.24841" lon="-3.43035">
        <ele>146.7</ele>
        <time>2022-06-12T14:41:03Z</time>
      </trkpt>
      <trkpt lat="48.24841" lon="-3.43035">
        <ele>146.7</ele>
        <time>2022-06-12T14:41:04Z</time>
      </trkpt>
      <trkpt lat="48.24841" lon="-3.43035">
        <ele>146.7</ele>
        <time>2022-06-12T14:41:05Z</time>
      </trkpt>
      <trkpt lat="48.24841" lon="-3.43035">
        <ele>146.7</ele>
        <time>2022-06-12T14:41:06Z</time>
      </trkpt>
      <trkpt lat="48.24841" lon="-3.43035">
        <ele>146.7</ele>
        <time>2022-06-12T14:41:07Z</time>
      </trkpt>
      <trkpt lat="48.24841" lon="-3.43035">
        <ele>146.7</ele>
        <time>2022-06-12T14:41:08Z</time>
      </trkpt>
      <trkpt lat="48.24841" lon="-3.43035">
        <ele>146.7</ele>
        <time>2022-06-12T14:41:09Z</time>
      </trkpt>
      <trkpt lat="48.24841" lon="-3.43035">
        <ele>146.7</ele>
        <time>2022-06-12T14:41:10Z</time>
      </trkpt>
      <trkpt lat="48.24841" lon="-3.43035">
        <ele>146.7</ele>
        <time>2022-06-12T14:41:11Z</time>
      </trkpt>
      <trkpt lat="48.24841" lon="-3.43035">
        <ele>146.7</ele>
        <time>2022-06-12T14:41:12Z</time>
      </trkpt>
      <trkpt lat="48.24841" lon="-3.43035">
        <ele>146.7</ele>
        <time>2022-06-12T14:41:13Z</time>
      </trkpt>
      <trkpt lat="48.24841" lon="-3.43035">
        <ele>146.7</ele>
        <time>2022-06-12T14:41:14Z</time>
      </trkpt>
      <trkpt lat="48.24841" lon="-3.43035">
        <ele>146.7</ele>
        <time>2022-06-12T14:41:15Z</time>
      </trkpt>
      <trkpt lat="48.24841" lon="-3.43035">
        <ele>146.7</ele>
        <time>2022-06-12T14:41:16Z</time>
      </trkpt>
      <trkpt lat="48.24841" lon="-3.43035">
        <ele>146.7</ele>
        <time>2022-06-12T14:41:17Z</time>
      </trkpt>
      <trkpt lat="48.24841" lon="-3.43035">
        <ele>146.7</ele>
        <time>2022-06-12T14:41:18Z</time>
      </trkpt>
      <trkpt lat="48.24841" lon="-3.43035">
        <ele>146.7</ele>
        <time>2022-06-12T14:41:19Z</time>
      </trkpt>
      <trkpt lat="48.24841" lon="-3.43035">
        <ele>146.7</ele>
        <time>2022-06-12T14:41:20Z</time>
      </trkpt>
      <trkpt lat="48.24841" lon="-3.43035">
        <ele>146.7</ele>
        <time>2022-06-12T14:41:21Z</time>
      </trkpt>
      <trkpt lat="48.24841" lon="-3.43035">
        <ele>146.7</ele>
        <time>2022-06-12T14:41:22Z</time>
      </trkpt>
      <trkpt lat="48.24841" lon="-3.43035">
        <ele>146.7</ele>
        <time>2022-06-12T14:41:23Z</time>
      </trkpt>
      <trkpt lat="48.24841" lon="-3.43035">
        <ele>146.7</ele>
        <time>2022-06-12T14:41:24Z</time>
      </trkpt>
      <trkpt lat="48.24841" lon="-3.43035">
        <ele>146.7</ele>
        <time>2022-06-12T14:41:25Z</time>
      </trkpt>
      <trkpt lat="48.24841" lon="-3.43035">
        <ele>146.7</ele>
        <time>2022-06-12T14:41:26Z</time>
      </trkpt>
      <trkpt lat="48.24841" lon="-3.43035">
        <ele>146.7</ele>
        <time>2022-06-12T14:41:27Z</time>
      </trkpt>
      <trkpt lat="48.24841" lon="-3.43035">
        <ele>146.7</ele>
        <time>2022-06-12T14:41:28Z</time>
      </trkpt>
      <trkpt lat="48.24841" lon="-3.43035">
        <ele>146.7</ele>
        <time>2022-06-12T14:41:29Z</time>
      </trkpt>
      <trkpt lat="48.24841" lon="-3.43035">
        <ele>146.7</ele>
        <time>2022-06-12T14:41:30Z</time>
      </trkpt>
      <trkpt lat="48.24841" lon="-3.43035">
        <ele>146.7</ele>
        <time>2022-06-12T14:41:31Z</time>
      </trkpt>
      <trkpt lat="48.24841" lon="-3.43035">
        <ele>146.7</ele>
        <time>2022-06-12T14:41:32Z</time>
      </trkpt>
      <trkpt lat="48.24841" lon="-3.43035">
        <ele>146.7</ele>
        <time>2022-06-12T14:41:33Z</time>
      </trkpt>
      <trkpt lat="48.24841" lon="-3.43035">
        <ele>146.7</ele>
        <time>2022-06-12T14:41:34Z</time>
      </trkpt>
      <trkpt lat="48.24841" lon="-3.43035">
        <ele>146.7</ele>
        <time>2022-06-12T14:41:35Z</time>
      </trkpt>
      <trkpt lat="48.24841" lon="-3.43034">
        <ele>146.7</ele>
        <time>2022-06-12T14:41:36Z</time>
      </trkpt>
      <trkpt lat="48.24841" lon="-3.43034">
        <ele>146.7</ele>
        <time>2022-06-12T14:41:37Z</time>
      </trkpt>
      <trkpt lat="48.24841" lon="-3.43034">
        <ele>146.7</ele>
        <time>2022-06-12T14:41:38Z</time>
      </trkpt>
      <trkpt lat="48.24841" lon="-3.43034">
        <ele>146.7</ele>
        <time>2022-06-12T14:41:39Z</time>
      </trkpt>
      <trkpt lat="48.24841" lon="-3.43034">
        <ele>146.7</ele>
        <time>2022-06-12T14:41:40Z</time>
      </trkpt>
      <trkpt lat="48.24841" lon="-3.43034">
        <ele>146.7</ele>
        <time>2022-06-12T14:41:41Z</time>
      </trkpt>
      <trkpt lat="48.24841" lon="-3.43034">
        <ele>146.7</ele>
        <time>2022-06-12T14:41:42Z</time>
      </trkpt>
      <trkpt lat="48.24841" lon="-3.43034">
        <ele>146.7</ele>
        <time>2022-06-12T14:41:43Z</time>
      </trkpt>
      <trkpt lat="48.24841" lon="-3.43034">
        <ele>146.7</ele>
        <time>2022-06-12T14:41:44Z</time>
      </trkpt>
      <trkpt lat="48.24841" lon="-3.43034">
        <ele>146.7</ele>
        <time>2022-06-12T14:41:45Z</time>
      </trkpt>
      <trkpt lat="48.24841" lon="-3.43034">
        <ele>146.7</ele>
        <time>2022-06-12T14:41:46Z</time>
      </trkpt>
      <trkpt lat="48.24841" lon="-3.43034">
        <ele>146.7</ele>
        <time>2022-06-12T14:41:47Z</time>
      </trkpt>
      <trkpt lat="48.24841" lon="-3.43034">
        <ele>146.7</ele>
        <time>2022-06-12T14:41:48Z</time>
      </trkpt>
      <trkpt lat="48.24841" lon="-3.43034">
        <ele>146.7</ele>
        <time>2022-06-12T14:41:49Z</time>
      </trkpt>
      <trkpt lat="48.24841" lon="-3.43034">
        <ele>146.7</ele>
        <time>2022-06-12T14:41:50Z</time>
      </trkpt>
      <trkpt lat="48.24841" lon="-3.43034">
        <ele>146.7</ele>
        <time>2022-06-12T14:41:51Z</time>
      </trkpt>
      <trkpt lat="48.24841" lon="-3.43034">
        <ele>146.7</ele>
        <time>2022-06-12T14:41:52Z</time>
      </trkpt>
      <trkpt lat="48.24841" lon="-3.43034">
        <ele>146.7</ele>
        <time>2022-06-12T14:41:53Z</time>
      </trkpt>
      <trkpt lat="48.24841" lon="-3.43034">
        <ele>146.7</ele>
        <time>2022-06-12T14:41:54Z</time>
      </trkpt>
      <trkpt lat="48.24841" lon="-3.43034">
        <ele>146.7</ele>
        <time>2022-06-12T14:41:55Z</time>
      </trkpt>
      <trkpt lat="48.24841" lon="-3.43034">
        <ele>146.7</ele>
        <time>2022-06-12T14:41:56Z</time>
      </trkpt>
      <trkpt lat="48.24841" lon="-3.43034">
        <ele>146.7</ele>
        <time>2022-06-12T14:41:57Z</time>
      </trkpt>
      <trkpt lat="48.24841" lon="-3.43034">
        <ele>146.7</ele>
        <time>2022-06-12T14:41:58Z</time>
      </trkpt>
      <trkpt lat="48.24841" lon="-3.43034">
        <ele>146.7</ele>
        <time>2022-06-12T14:41:59Z</time>
      </trkpt>
      <trkpt lat="48.24841" lon="-3.43034">
        <ele>146.7</ele>
        <time>2022-06-12T14:42:00Z</time>
      </trkpt>
      <trkpt lat="48.24841" lon="-3.43034">
        <ele>146.7</ele>
        <time>2022-06-12T14:42:01Z</time>
      </trkpt>
      <trkpt lat="48.24841" lon="-3.43034">
        <ele>146.7</ele>
        <time>2022-06-12T14:42:02Z</time>
      </trkpt>
      <trkpt lat="48.24841" lon="-3.43034">
        <ele>146.7</ele>
        <time>2022-06-12T14:42:03Z</time>
      </trkpt>
      <trkpt lat="48.24841" lon="-3.43034">
        <ele>146.7</ele>
        <time>2022-06-12T14:42:04Z</time>
      </trkpt>
      <trkpt lat="48.24841" lon="-3.43034">
        <ele>146.7</ele>
        <time>2022-06-12T14:42:05Z</time>
      </trkpt>
      <trkpt lat="48.24841" lon="-3.43034">
        <ele>146.7</ele>
        <time>2022-06-12T14:42:06Z</time>
      </trkpt>
      <trkpt lat="48.24841" lon="-3.43034">
        <ele>146.7</ele>
        <time>2022-06-12T14:42:07Z</time>
      </trkpt>
      <trkpt lat="48.24841" lon="-3.43034">
        <ele>146.7</ele>
        <time>2022-06-12T14:42:08Z</time>
      </trkpt>
      <trkpt lat="48.24841" lon="-3.43034">
        <ele>146.7</ele>
        <time>2022-06-12T14:42:09Z</time>
      </trkpt>
      <trkpt lat="48.24841" lon="-3.43034">
        <ele>146.7</ele>
        <time>2022-06-12T14:42:10Z</time>
      </trkpt>
      <trkpt lat="48.24841" lon="-3.43034">
        <ele>146.7</ele>
        <time>2022-06-12T14:42:11Z</time>
      </trkpt>
      <trkpt lat="48.24841" lon="-3.43034">
        <ele>146.7</ele>
        <time>2022-06-12T14:42:12Z</time>
      </trkpt>
      <trkpt lat="48.24841" lon="-3.43034">
        <ele>146.7</ele>
        <time>2022-06-12T14:42:13Z</time>
      </trkpt>
      <trkpt lat="48.24841" lon="-3.43034">
        <ele>146.7</ele>
        <time>2022-06-12T14:42:14Z</time>
      </trkpt>
      <trkpt lat="48.24841" lon="-3.43034">
        <ele>146.7</ele>
        <time>2022-06-12T14:42:15Z</time>
      </trkpt>
      <trkpt lat="48.24841" lon="-3.43034">
        <ele>146.7</ele>
        <time>2022-06-12T14:42:16Z</time>
      </trkpt>
      <trkpt lat="48.24841" lon="-3.43034">
        <ele>146.7</ele>
        <time>2022-06-12T14:42:17Z</time>
      </trkpt>
      <trkpt lat="48.24841" lon="-3.43034">
        <ele>146.7</ele>
        <time>2022-06-12T14:42:18Z</time>
      </trkpt>
      <trkpt lat="48.24841" lon="-3.43034">
        <ele>146.7</ele>
        <time>2022-06-12T14:42:19Z</time>
      </trkpt>
      <trkpt lat="48.24841" lon="-3.43034">
        <ele>146.7</ele>
        <time>2022-06-12T14:42:20Z</time>
      </trkpt>
      <trkpt lat="48.24841" lon="-3.43034">
        <ele>146.7</ele>
        <time>2022-06-12T14:42:21Z</time>
      </trkpt>
      <trkpt lat="48.24841" lon="-3.43034">
        <ele>146.7</ele>
        <time>2022-06-12T14:42:22Z</time>
      </trkpt>
      <trkpt lat="48.24841" lon="-3.43034">
        <ele>146.7</ele>
        <time>2022-06-12T14:42:23Z</time>
      </trkpt>
      <trkpt lat="48.24841" lon="-3.43034">
        <ele>146.7</ele>
        <time>2022-06-12T14:42:24Z</time>
      </trkpt>
      <trkpt lat="48.24841" lon="-3.43034">
        <ele>146.7</ele>
        <time>2022-06-12T14:42:25Z</time>
      </trkpt>
      <trkpt lat="48.24841" lon="-3.43034">
        <ele>146.7</ele>
        <time>2022-06-12T14:42:26Z</time>
      </trkpt>
      <trkpt lat="48.24841" lon="-3.43034">
        <ele>146.7</ele>
        <time>2022-06-12T14:42:27Z</time>
      </trkpt>
      <trkpt lat="48.24841" lon="-3.43034">
        <ele>146.7</ele>
        <time>2022-06-12T14:42:28Z</time>
      </trkpt>
      <trkpt lat="48.24841" lon="-3.43034">
        <ele>146.7</ele>
        <time>2022-06-12T14:42:29Z</time>
      </trkpt>
      <trkpt lat="48.24841" lon="-3.43034">
        <ele>146.7</ele>
        <time>2022-06-12T14:42:30Z</time>
      </trkpt>
      <trkpt lat="48.24841" lon="-3.43034">
        <ele>146.7</ele>
        <time>2022-06-12T14:42:31Z</time>
      </trkpt>
      <trkpt lat="48.24841" lon="-3.43034">
        <ele>146.7</ele>
        <time>2022-06-12T14:42:32Z</time>
      </trkpt>
      <trkpt lat="48.24841" lon="-3.43034">
        <ele>146.7</ele>
        <time>2022-06-12T14:42:33Z</time>
      </trkpt>
      <trkpt lat="48.24841" lon="-3.43034">
        <ele>146.7</ele>
        <time>2022-06-12T14:42:34Z</time>
      </trkpt>
      <trkpt lat="48.24841" lon="-3.43034">
        <ele>146.7</ele>
        <time>2022-06-12T14:42:35Z</time>
      </trkpt>
      <trkpt lat="48.24841" lon="-3.43034">
        <ele>146.7</ele>
        <time>2022-06-12T14:42:36Z</time>
      </trkpt>
      <trkpt lat="48.24841" lon="-3.43034">
        <ele>146.7</ele>
        <time>2022-06-12T14:42:37Z</time>
      </trkpt>
      <trkpt lat="48.24841" lon="-3.43034">
        <ele>146.7</ele>
        <time>2022-06-12T14:42:38Z</time>
      </trkpt>
      <trkpt lat="48.24841" lon="-3.43034">
        <ele>146.7</ele>
        <time>2022-06-12T14:42:39Z</time>
      </trkpt>
      <trkpt lat="48.24841" lon="-3.43034">
        <ele>146.7</ele>
        <time>2022-06-12T14:42:40Z</time>
      </trkpt>
      <trkpt lat="48.24841" lon="-3.43034">
        <ele>146.7</ele>
        <time>2022-06-12T14:42:41Z</time>
      </trkpt>
      <trkpt lat="48.24841" lon="-3.43034">
        <ele>146.7</ele>
        <time>2022-06-12T14:42:42Z</time>
      </trkpt>
      <trkpt lat="48.24842" lon="-3.43034">
        <ele>146.7</ele>
        <time>2022-06-12T14:42:43Z</time>
      </trkpt>
      <trkpt lat="48.24842" lon="-3.43034">
        <ele>146.7</ele>
        <time>2022-06-12T14:42:44Z</time>
      </trkpt>
      <trkpt lat="48.24842" lon="-3.43034">
        <ele>146.7</ele>
        <time>2022-06-12T14:42:45Z</time>
      </trkpt>
      <trkpt lat="48.24842" lon="-3.43034">
        <ele>146.7</ele>
        <time>2022-06-12T14:42:46Z</time>
      </trkpt>
      <trkpt lat="48.24842" lon="-3.43034">
        <ele>146.7</ele>
        <time>2022-06-12T14:42:47Z</time>
      </trkpt>
      <trkpt lat="48.24842" lon="-3.43034">
        <ele>146.7</ele>
        <time>2022-06-12T14:42:48Z</time>
      </trkpt>
      <trkpt lat="48.24842" lon="-3.43034">
        <ele>146.7</ele>
        <time>2022-06-12T14:42:49Z</time>
      </trkpt>
      <trkpt lat="48.24842" lon="-3.43034">
        <ele>146.7</ele>
        <time>2022-06-12T14:42:50Z</time>
      </trkpt>
      <trkpt lat="48.24842" lon="-3.43034">
        <ele>146.7</ele>
        <time>2022-06-12T14:42:51Z</time>
      </trkpt>
      <trkpt lat="48.24842" lon="-3.43034">
        <ele>146.7</ele>
        <time>2022-06-12T14:42:52Z</time>
      </trkpt>
      <trkpt lat="48.24842" lon="-3.43034">
        <ele>146.7</ele>
        <time>2022-06-12T14:42:53Z</time>
      </trkpt>
      <trkpt lat="48.24842" lon="-3.43034">
        <ele>146.7</ele>
        <time>2022-06-12T14:42:54Z</time>
      </trkpt>
      <trkpt lat="48.24842" lon="-3.43034">
        <ele>146.7</ele>
        <time>2022-06-12T14:42:55Z</time>
      </trkpt>
      <trkpt lat="48.24842" lon="-3.43034">
        <ele>146.7</ele>
        <time>2022-06-12T14:42:56Z</time>
      </trkpt>
      <trkpt lat="48.24842" lon="-3.43034">
        <ele>146.7</ele>
        <time>2022-06-12T14:42:57Z</time>
      </trkpt>
      <trkpt lat="48.24842" lon="-3.43034">
        <ele>146.7</ele>
        <time>2022-06-12T14:42:58Z</time>
      </trkpt>
      <trkpt lat="48.24842" lon="-3.43034">
        <ele>146.7</ele>
        <time>2022-06-12T14:42:59Z</time>
      </trkpt>
      <trkpt lat="48.24842" lon="-3.43034">
        <ele>146.7</ele>
        <time>2022-06-12T14:43:00Z</time>
      </trkpt>
      <trkpt lat="48.24842" lon="-3.43034">
        <ele>146.7</ele>
        <time>2022-06-12T14:43:01Z</time>
      </trkpt>
      <trkpt lat="48.24842" lon="-3.43034">
        <ele>146.7</ele>
        <time>2022-06-12T14:43:02Z</time>
      </trkpt>
      <trkpt lat="48.24842" lon="-3.43034">
        <ele>146.7</ele>
        <time>2022-06-12T14:43:03Z</time>
      </trkpt>
      <trkpt lat="48.24842" lon="-3.43034">
        <ele>146.7</ele>
        <time>2022-06-12T14:43:04Z</time>
      </trkpt>
      <trkpt lat="48.24842" lon="-3.43034">
        <ele>146.7</ele>
        <time>2022-06-12T14:43:05Z</time>
      </trkpt>
      <trkpt lat="48.24842" lon="-3.43034">
        <ele>146.7</ele>
        <time>2022-06-12T14:43:06Z</time>
      </trkpt>
      <trkpt lat="48.24842" lon="-3.43034">
        <ele>146.7</ele>
        <time>2022-06-12T14:43:07Z</time>
      </trkpt>
      <trkpt lat="48.24842" lon="-3.43034">
        <ele>146.7</ele>
        <time>2022-06-12T14:43:08Z</time>
      </trkpt>
      <trkpt lat="48.24842" lon="-3.43034">
        <ele>146.7</ele>
        <time>2022-06-12T14:43:09Z</time>
      </trkpt>
      <trkpt lat="48.24842" lon="-3.43034">
        <ele>146.7</ele>
        <time>2022-06-12T14:43:10Z</time>
      </trkpt>
      <trkpt lat="48.24842" lon="-3.43034">
        <ele>146.7</ele>
        <time>2022-06-12T14:43:11Z</time>
      </trkpt>
      <trkpt lat="48.24842" lon="-3.43034">
        <ele>146.7</ele>
        <time>2022-06-12T14:43:12Z</time>
      </trkpt>
      <trkpt lat="48.24842" lon="-3.43034">
        <ele>146.7</ele>
        <time>2022-06-12T14:43:13Z</time>
      </trkpt>
      <trkpt lat="48.24842" lon="-3.43034">
        <ele>146.7</ele>
        <time>2022-06-12T14:43:14Z</time>
      </trkpt>
      <trkpt lat="48.24842" lon="-3.43034">
        <ele>146.7</ele>
        <time>2022-06-12T14:43:15Z</time>
      </trkpt>
      <trkpt lat="48.24842" lon="-3.43034">
        <ele>146.7</ele>
        <time>2022-06-12T14:43:16Z</time>
      </trkpt>
      <trkpt lat="48.24842" lon="-3.43034">
        <ele>146.7</ele>
        <time>2022-06-12T14:43:17Z</time>
      </trkpt>
      <trkpt lat="48.24842" lon="-3.43034">
        <ele>146.7</ele>
        <time>2022-06-12T14:43:18Z</time>
      </trkpt>
      <trkpt lat="48.24842" lon="-3.43034">
        <ele>146.7</ele>
        <time>2022-06-12T14:43:19Z</time>
      </trkpt>
      <trkpt lat="48.24842" lon="-3.43034">
        <ele>146.7</ele>
        <time>2022-06-12T14:43:20Z</time>
      </trkpt>
      <trkpt lat="48.24842" lon="-3.43034">
        <ele>146.7</ele>
        <time>2022-06-12T14:43:21Z</time>
      </trkpt>
      <trkpt lat="48.24842" lon="-3.43034">
        <ele>146.7</ele>
        <time>2022-06-12T14:43:22Z</time>
      </trkpt>
      <trkpt lat="48.24842" lon="-3.43034">
        <ele>146.7</ele>
        <time>2022-06-12T14:43:23Z</time>
      </trkpt>
      <trkpt lat="48.24842" lon="-3.43034">
        <ele>146.7</ele>
        <time>2022-06-12T14:43:24Z</time>
      </trkpt>
      <trkpt lat="48.24842" lon="-3.43034">
        <ele>146.7</ele>
        <time>2022-06-12T14:43:25Z</time>
      </trkpt>
      <trkpt lat="48.24842" lon="-3.43034">
        <ele>146.7</ele>
        <time>2022-06-12T14:43:26Z</time>
      </trkpt>
      <trkpt lat="48.24842" lon="-3.43034">
        <ele>146.7</ele>
        <time>2022-06-12T14:43:27Z</time>
      </trkpt>
      <trkpt lat="48.24842" lon="-3.43034">
        <ele>146.7</ele>
        <time>2022-06-12T14:43:28Z</time>
      </trkpt>
      <trkpt lat="48.24842" lon="-3.43034">
        <ele>146.7</ele>
        <time>2022-06-12T14:43:29Z</time>
      </trkpt>
      <trkpt lat="48.24842" lon="-3.43034">
        <ele>146.7</ele>
        <time>2022-06-12T14:43:30Z</time>
      </trkpt>
      <trkpt lat="48.24842" lon="-3.43034">
        <ele>146.7</ele>
        <time>2022-06-12T14:43:31Z</time>
      </trkpt>
      <trkpt lat="48.24842" lon="-3.43034">
        <ele>146.7</ele>
        <time>2022-06-12T14:43:32Z</time>
      </trkpt>
      <trkpt lat="48.24842" lon="-3.43034">
        <ele>146.7</ele>
        <time>2022-06-12T14:43:33Z</time>
      </trkpt>
      <trkpt lat="48.24842" lon="-3.43034">
        <ele>146.7</ele>
        <time>2022-06-12T14:43:34Z</time>
      </trkpt>
      <trkpt lat="48.24842" lon="-3.43034">
        <ele>146.7</ele>
        <time>2022-06-12T14:43:35Z</time>
      </trkpt>
      <trkpt lat="48.24842" lon="-3.43034">
        <ele>146.7</ele>
        <time>2022-06-12T14:43:36Z</time>
      </trkpt>
      <trkpt lat="48.24842" lon="-3.43034">
        <ele>146.7</ele>
        <time>2022-06-12T14:43:37Z</time>
      </trkpt>
      <trkpt lat="48.24842" lon="-3.43034">
        <ele>146.7</ele>
        <time>2022-06-12T14:43:38Z</time>
      </trkpt>
      <trkpt lat="48.24842" lon="-3.43034">
        <ele>146.7</ele>
        <time>2022-06-12T14:43:39Z</time>
      </trkpt>
      <trkpt lat="48.24842" lon="-3.43034">
        <ele>146.7</ele>
        <time>2022-06-12T14:43:40Z</time>
      </trkpt>
      <trkpt lat="48.24842" lon="-3.43034">
        <ele>146.7</ele>
        <time>2022-06-12T14:43:41Z</time>
      </trkpt>
      <trkpt lat="48.24842" lon="-3.43034">
        <ele>146.7</ele>
        <time>2022-06-12T14:43:42Z</time>
      </trkpt>
      <trkpt lat="48.24842" lon="-3.43034">
        <ele>146.7</ele>
        <time>2022-06-12T14:43:43Z</time>
      </trkpt>
      <trkpt lat="48.24842" lon="-3.43034">
        <ele>146.7</ele>
        <time>2022-06-12T14:43:44Z</time>
      </trkpt>
      <trkpt lat="48.24842" lon="-3.43034">
        <ele>146.7</ele>
        <time>2022-06-12T14:43:45Z</time>
      </trkpt>
      <trkpt lat="48.24842" lon="-3.43034">
        <ele>146.7</ele>
        <time>2022-06-12T14:43:46Z</time>
      </trkpt>
      <trkpt lat="48.24842" lon="-3.43034">
        <ele>146.7</ele>
        <time>2022-06-12T14:43:47Z</time>
      </trkpt>
      <trkpt lat="48.24842" lon="-3.43034">
        <ele>146.7</ele>
        <time>2022-06-12T14:43:48Z</time>
      </trkpt>
      <trkpt lat="48.24842" lon="-3.43034">
        <ele>146.7</ele>
        <time>2022-06-12T14:43:49Z</time>
      </trkpt>
      <trkpt lat="48.24842" lon="-3.43034">
        <ele>146.7</ele>
        <time>2022-06-12T14:43:50Z</time>
      </trkpt>
      <trkpt lat="48.24842" lon="-3.43034">
        <ele>146.7</ele>
        <time>2022-06-12T14:43:51Z</time>
      </trkpt>
      <trkpt lat="48.24842" lon="-3.43034">
        <ele>146.7</ele>
        <time>2022-06-12T14:43:52Z</time>
      </trkpt>
      <trkpt lat="48.24842" lon="-3.43034">
        <ele>146.7</ele>
        <time>2022-06-12T14:43:53Z</time>
      </trkpt>
      <trkpt lat="48.24842" lon="-3.43034">
        <ele>146.7</ele>
        <time>2022-06-12T14:43:54Z</time>
      </trkpt>
      <trkpt lat="48.24842" lon="-3.43034">
        <ele>146.7</ele>
        <time>2022-06-12T14:43:55Z</time>
      </trkpt>
      <trkpt lat="48.24842" lon="-3.43034">
        <ele>146.7</ele>
        <time>2022-06-12T14:43:56Z</time>
      </trkpt>
      <trkpt lat="48.24842" lon="-3.43034">
        <ele>146.7</ele>
        <time>2022-06-12T14:43:57Z</time>
      </trkpt>
      <trkpt lat="48.24842" lon="-3.43034">
        <ele>146.7</ele>
        <time>2022-06-12T14:43:58Z</time>
      </trkpt>
      <trkpt lat="48.24842" lon="-3.43034">
        <ele>146.7</ele>
        <time>2022-06-12T14:43:59Z</time>
      </trkpt>
      <trkpt lat="48.24842" lon="-3.43034">
        <ele>146.7</ele>
        <time>2022-06-12T14:44:00Z</time>
      </trkpt>
      <trkpt lat="48.24842" lon="-3.43034">
        <ele>146.7</ele>
        <time>2022-06-12T14:44:01Z</time>
      </trkpt>
      <trkpt lat="48.24842" lon="-3.43034">
        <ele>146.7</ele>
        <time>2022-06-12T14:44:02Z</time>
      </trkpt>
      <trkpt lat="48.24842" lon="-3.43034">
        <ele>146.7</ele>
        <time>2022-06-12T14:44:03Z</time>
      </trkpt>
      <trkpt lat="48.24842" lon="-3.43034">
        <ele>146.7</ele>
        <time>2022-06-12T14:44:04Z</time>
      </trkpt>
      <trkpt lat="48.24842" lon="-3.43034">
        <ele>146.7</ele>
        <time>2022-06-12T14:44:05Z</time>
      </trkpt>
      <trkpt lat="48.24842" lon="-3.43034">
        <ele>146.7</ele>
        <time>2022-06-12T14:44:06Z</time>
      </trkpt>
      <trkpt lat="48.24842" lon="-3.43034">
        <ele>146.7</ele>
        <time>2022-06-12T14:44:07Z</time>
      </trkpt>
      <trkpt lat="48.24842" lon="-3.43034">
        <ele>146.7</ele>
        <time>2022-06-12T14:44:08Z</time>
      </trkpt>
      <trkpt lat="48.24842" lon="-3.43034">
        <ele>146.7</ele>
        <time>2022-06-12T14:44:09Z</time>
      </trkpt>
      <trkpt lat="48.24842" lon="-3.43034">
        <ele>146.7</ele>
        <time>2022-06-12T14:44:10Z</time>
      </trkpt>
      <trkpt lat="48.24842" lon="-3.43034">
        <ele>146.7</ele>
        <time>2022-06-12T14:44:11Z</time>
      </trkpt>
      <trkpt lat="48.24842" lon="-3.43034">
        <ele>146.7</ele>
        <time>2022-06-12T14:44:12Z</time>
      </trkpt>
      <trkpt lat="48.24842" lon="-3.43034">
        <ele>146.7</ele>
        <time>2022-06-12T14:44:13Z</time>
      </trkpt>
      <trkpt lat="48.24842" lon="-3.43034">
        <ele>146.7</ele>
        <time>2022-06-12T14:44:14Z</time>
      </trkpt>
      <trkpt lat="48.24842" lon="-3.43034">
        <ele>146.7</ele>
        <time>2022-06-12T14:44:15Z</time>
      </trkpt>
      <trkpt lat="48.24842" lon="-3.43034">
        <ele>146.7</ele>
        <time>2022-06-12T14:44:16Z</time>
      </trkpt>
      <trkpt lat="48.24842" lon="-3.43034">
        <ele>146.7</ele>
        <time>2022-06-12T14:44:17Z</time>
      </trkpt>
      <trkpt lat="48.24842" lon="-3.43034">
        <ele>146.7</ele>
        <time>2022-06-12T14:44:18Z</time>
      </trkpt>
      <trkpt lat="48.24842" lon="-3.43034">
        <ele>146.7</ele>
        <time>2022-06-12T14:44:19Z</time>
      </trkpt>
      <trkpt lat="48.24842" lon="-3.43034">
        <ele>146.7</ele>
        <time>2022-06-12T14:44:20Z</time>
      </trkpt>
      <trkpt lat="48.24842" lon="-3.43034">
        <ele>146.7</ele>
        <time>2022-06-12T14:44:21Z</time>
      </trkpt>
      <trkpt lat="48.24842" lon="-3.43033">
        <ele>146.7</ele>
        <time>2022-06-12T14:44:22Z</time>
      </trkpt>
      <trkpt lat="48.24842" lon="-3.43033">
        <ele>146.7</ele>
        <time>2022-06-12T14:44:23Z</time>
      </trkpt>
      <trkpt lat="48.24842" lon="-3.43033">
        <ele>146.7</ele>
        <time>2022-06-12T14:44:24Z</time>
      </trkpt>
      <trkpt lat="48.24842" lon="-3.43033">
        <ele>146.8</ele>
        <time>2022-06-12T14:44:25Z</time>
      </trkpt>
      <trkpt lat="48.24842" lon="-3.43033">
        <ele>146.8</ele>
        <time>2022-06-12T14:44:26Z</time>
      </trkpt>
      <trkpt lat="48.24842" lon="-3.43033">
        <ele>146.8</ele>
        <time>2022-06-12T14:44:27Z</time>
      </trkpt>
      <trkpt lat="48.24842" lon="-3.43033">
        <ele>146.8</ele>
        <time>2022-06-12T14:44:28Z</time>
      </trkpt>
      <trkpt lat="48.24842" lon="-3.43033">
        <ele>146.8</ele>
        <time>2022-06-12T14:44:29Z</time>
      </trkpt>
      <trkpt lat="48.24842" lon="-3.43033">
        <ele>146.8</ele>
        <time>2022-06-12T14:44:30Z</time>
      </trkpt>
      <trkpt lat="48.24842" lon="-3.43033">
        <ele>146.8</ele>
        <time>2022-06-12T14:44:31Z</time>
      </trkpt>
      <trkpt lat="48.24842" lon="-3.43033">
        <ele>146.8</ele>
        <time>2022-06-12T14:44:32Z</time>
      </trkpt>
      <trkpt lat="48.24842" lon="-3.43033">
        <ele>146.8</ele>
        <time>2022-06-12T14:44:33Z</time>
      </trkpt>
      <trkpt lat="48.24842" lon="-3.43033">
        <ele>146.8</ele>
        <time>2022-06-12T14:44:34Z</time>
      </trkpt>
      <trkpt lat="48.24842" lon="-3.43033">
        <ele>146.8</ele>
        <time>2022-06-12T14:44:35Z</time>
      </trkpt>
      <trkpt lat="48.24843" lon="-3.43033">
        <ele>146.8</ele>
        <time>2022-06-12T14:44:36Z</time>
      </trkpt>
      <trkpt lat="48.24843" lon="-3.43033">
        <ele>146.8</ele>
        <time>2022-06-12T14:44:37Z</time>
      </trkpt>
      <trkpt lat="48.24843" lon="-3.43033">
        <ele>146.8</ele>
        <time>2022-06-12T14:44:38Z</time>
      </trkpt>
      <trkpt lat="48.24843" lon="-3.43033">
        <ele>146.8</ele>
        <time>2022-06-12T14:44:39Z</time>
      </trkpt>
      <trkpt lat="48.24843" lon="-3.43033">
        <ele>146.8</ele>
        <time>2022-06-12T14:44:40Z</time>
      </trkpt>
      <trkpt lat="48.24843" lon="-3.43033">
        <ele>146.8</ele>
        <time>2022-06-12T14:44:41Z</time>
      </trkpt>
      <trkpt lat="48.24843" lon="-3.43033">
        <ele>146.8</ele>
        <time>2022-06-12T14:44:42Z</time>
      </trkpt>
      <trkpt lat="48.24843" lon="-3.43033">
        <ele>146.8</ele>
        <time>2022-06-12T14:44:43Z</time>
      </trkpt>
      <trkpt lat="48.24843" lon="-3.43033">
        <ele>146.8</ele>
        <time>2022-06-12T14:44:44Z</time>
      </trkpt>
      <trkpt lat="48.24843" lon="-3.43033">
        <ele>146.8</ele>
        <time>2022-06-12T14:44:45Z</time>
      </trkpt>
      <trkpt lat="48.24843" lon="-3.43033">
        <ele>146.8</ele>
        <time>2022-06-12T14:44:46Z</time>
      </trkpt>
      <trkpt lat="48.24843" lon="-3.43033">
        <ele>146.8</ele>
        <time>2022-06-12T14:44:47Z</time>
      </trkpt>
      <trkpt lat="48.24843" lon="-3.43033">
        <ele>146.8</ele>
        <time>2022-06-12T14:44:48Z</time>
      </trkpt>
      <trkpt lat="48.24843" lon="-3.43033">
        <ele>146.8</ele>
        <time>2022-06-12T14:44:49Z</time>
      </trkpt>
      <trkpt lat="48.24843" lon="-3.43033">
        <ele>146.8</ele>
        <time>2022-06-12T14:44:50Z</time>
      </trkpt>
      <trkpt lat="48.24843" lon="-3.43033">
        <ele>146.8</ele>
        <time>2022-06-12T14:44:51Z</time>
      </trkpt>
      <trkpt lat="48.24843" lon="-3.43033">
        <ele>146.8</ele>
        <time>2022-06-12T14:44:52Z</time>
      </trkpt>
      <trkpt lat="48.24843" lon="-3.43033">
        <ele>146.8</ele>
        <time>2022-06-12T14:44:53Z</time>
      </trkpt>
      <trkpt lat="48.24843" lon="-3.43033">
        <ele>146.8</ele>
        <time>2022-06-12T14:44:54Z</time>
      </trkpt>
      <trkpt lat="48.24843" lon="-3.43033">
        <ele>146.8</ele>
        <time>2022-06-12T14:44:55Z</time>
      </trkpt>
      <trkpt lat="48.24843" lon="-3.43033">
        <ele>146.8</ele>
        <time>2022-06-12T14:44:56Z</time>
      </trkpt>
      <trkpt lat="48.24843" lon="-3.43033">
        <ele>146.8</ele>
        <time>2022-06-12T14:44:57Z</time>
      </trkpt>
      <trkpt lat="48.24843" lon="-3.43033">
        <ele>146.8</ele>
        <time>2022-06-12T14:44:58Z</time>
      </trkpt>
      <trkpt lat="48.24843" lon="-3.43033">
        <ele>146.8</ele>
        <time>2022-06-12T14:44:59Z</time>
      </trkpt>
      <trkpt lat="48.24843" lon="-3.43033">
        <ele>146.8</ele>
        <time>2022-06-12T14:45:00Z</time>
      </trkpt>
      <trkpt lat="48.24843" lon="-3.43033">
        <ele>146.8</ele>
        <time>2022-06-12T14:45:01Z</time>
      </trkpt>
      <trkpt lat="48.24843" lon="-3.43033">
        <ele>146.8</ele>
        <time>2022-06-12T14:45:02Z</time>
      </trkpt>
      <trkpt lat="48.24843" lon="-3.43033">
        <ele>146.8</ele>
        <time>2022-06-12T14:45:03Z</time>
      </trkpt>
      <trkpt lat="48.24843" lon="-3.43033">
        <ele>146.8</ele>
        <time>2022-06-12T14:45:04Z</time>
      </trkpt>
      <trkpt lat="48.24843" lon="-3.43033">
        <ele>146.8</ele>
        <time>2022-06-12T14:45:05Z</time>
      </trkpt>
      <trkpt lat="48.24843" lon="-3.43033">
        <ele>146.8</ele>
        <time>2022-06-12T14:45:06Z</time>
      </trkpt>
      <trkpt lat="48.24843" lon="-3.43033">
        <ele>146.8</ele>
        <time>2022-06-12T14:45:07Z</time>
      </trkpt>
      <trkpt lat="48.24843" lon="-3.43033">
        <ele>146.8</ele>
        <time>2022-06-12T14:45:08Z</time>
      </trkpt>
      <trkpt lat="48.24843" lon="-3.43033">
        <ele>146.8</ele>
        <time>2022-06-12T14:45:09Z</time>
      </trkpt>
      <trkpt lat="48.24843" lon="-3.43033">
        <ele>146.8</ele>
        <time>2022-06-12T14:45:10Z</time>
      </trkpt>
      <trkpt lat="48.24843" lon="-3.43033">
        <ele>146.8</ele>
        <time>2022-06-12T14:45:11Z</time>
      </trkpt>
      <trkpt lat="48.24843" lon="-3.43033">
        <ele>146.8</ele>
        <time>2022-06-12T14:45:12Z</time>
      </trkpt>
      <trkpt lat="48.24843" lon="-3.43033">
        <ele>146.8</ele>
        <time>2022-06-12T14:45:13Z</time>
      </trkpt>
      <trkpt lat="48.24843" lon="-3.43033">
        <ele>146.8</ele>
        <time>2022-06-12T14:45:14Z</time>
      </trkpt>
      <trkpt lat="48.24843" lon="-3.43033">
        <ele>146.8</ele>
        <time>2022-06-12T14:45:15Z</time>
      </trkpt>
      <trkpt lat="48.24843" lon="-3.43033">
        <ele>146.8</ele>
        <time>2022-06-12T14:45:16Z</time>
      </trkpt>
      <trkpt lat="48.24843" lon="-3.43033">
        <ele>146.8</ele>
        <time>2022-06-12T14:45:17Z</time>
      </trkpt>
      <trkpt lat="48.24843" lon="-3.43033">
        <ele>146.8</ele>
        <time>2022-06-12T14:45:18Z</time>
      </trkpt>
      <trkpt lat="48.24843" lon="-3.43033">
        <ele>146.8</ele>
        <time>2022-06-12T14:45:19Z</time>
      </trkpt>
      <trkpt lat="48.24843" lon="-3.43033">
        <ele>146.8</ele>
        <time>2022-06-12T14:45:20Z</time>
      </trkpt>
      <trkpt lat="48.24843" lon="-3.43033">
        <ele>146.8</ele>
        <time>2022-06-12T14:45:21Z</time>
      </trkpt>
      <trkpt lat="48.24843" lon="-3.43033">
        <ele>146.8</ele>
        <time>2022-06-12T14:45:22Z</time>
      </trkpt>
      <trkpt lat="48.24843" lon="-3.43033">
        <ele>146.8</ele>
        <time>2022-06-12T14:45:23Z</time>
      </trkpt>
      <trkpt lat="48.24843" lon="-3.43033">
        <ele>146.8</ele>
        <time>2022-06-12T14:45:24Z</time>
      </trkpt>
      <trkpt lat="48.24843" lon="-3.43033">
        <ele>146.8</ele>
        <time>2022-06-12T14:45:25Z</time>
      </trkpt>
      <trkpt lat="48.24843" lon="-3.43033">
        <ele>146.8</ele>
        <time>2022-06-12T14:45:26Z</time>
      </trkpt>
      <trkpt lat="48.24843" lon="-3.43033">
        <ele>146.8</ele>
        <time>2022-06-12T14:45:27Z</time>
      </trkpt>
      <trkpt lat="48.24843" lon="-3.43033">
        <ele>146.8</ele>
        <time>2022-06-12T14:45:28Z</time>
      </trkpt>
      <trkpt lat="48.24843" lon="-3.43033">
        <ele>146.8</ele>
        <time>2022-06-12T14:45:29Z</time>
      </trkpt>
      <trkpt lat="48.24843" lon="-3.43033">
        <ele>146.8</ele>
        <time>2022-06-12T14:45:30Z</time>
      </trkpt>
      <trkpt lat="48.24843" lon="-3.43033">
        <ele>146.8</ele>
        <time>2022-06-12T14:45:31Z</time>
      </trkpt>
      <trkpt lat="48.24843" lon="-3.43033">
        <ele>146.8</ele>
        <time>2022-06-12T14:45:32Z</time>
      </trkpt>
      <trkpt lat="48.24843" lon="-3.43033">
        <ele>146.8</ele>
        <time>2022-06-12T14:45:33Z</time>
      </trkpt>
      <trkpt lat="48.24843" lon="-3.43033">
        <ele>146.8</ele>
        <time>2022-06-12T14:45:34Z</time>
      </trkpt>
      <trkpt lat="48.24843" lon="-3.43033">
        <ele>146.8</ele>
        <time>2022-06-12T14:45:35Z</time>
      </trkpt>
      <trkpt lat="48.24843" lon="-3.43033">
        <ele>146.8</ele>
        <time>2022-06-12T14:45:36Z</time>
      </trkpt>
      <trkpt lat="48.24843" lon="-3.43033">
        <ele>146.8</ele>
        <time>2022-06-12T14:45:37Z</time>
      </trkpt>
      <trkpt lat="48.24843" lon="-3.43033">
        <ele>146.8</ele>
        <time>2022-06-12T14:45:38Z</time>
      </trkpt>
      <trkpt lat="48.24843" lon="-3.43033">
        <ele>146.8</ele>
        <time>2022-06-12T14:45:39Z</time>
      </trkpt>
      <trkpt lat="48.24843" lon="-3.43033">
        <ele>146.8</ele>
        <time>2022-06-12T14:45:40Z</time>
      </trkpt>
      <trkpt lat="48.24843" lon="-3.43033">
        <ele>146.8</ele>
        <time>2022-06-12T14:45:41Z</time>
      </trkpt>
      <trkpt lat="48.24843" lon="-3.43033">
        <ele>146.8</ele>
        <time>2022-06-12T14:45:42Z</time>
      </trkpt>
      <trkpt lat="48.24843" lon="-3.43033">
        <ele>146.8</ele>
        <time>2022-06-12T14:45:43Z</time>
      </trkpt>
      <trkpt lat="48.24843" lon="-3.43033">
        <ele>146.8</ele>
        <time>2022-06-12T14:45:44Z</time>
      </trkpt>
      <trkpt lat="48.24843" lon="-3.43033">
        <ele>146.8</ele>
        <time>2022-06-12T14:45:45Z</time>
      </trkpt>
      <trkpt lat="48.24843" lon="-3.43033">
        <ele>146.8</ele>
        <time>2022-06-12T14:45:46Z</time>
      </trkpt>
      <trkpt lat="48.24843" lon="-3.43033">
        <ele>146.8</ele>
        <time>2022-06-12T14:45:47Z</time>
      </trkpt>
      <trkpt lat="48.24843" lon="-3.43033">
        <ele>146.8</ele>
        <time>2022-06-12T14:45:48Z</time>
      </trkpt>
      <trkpt lat="48.24843" lon="-3.43033">
        <ele>146.8</ele>
        <time>2022-06-12T14:45:49Z</time>
      </trkpt>
      <trkpt lat="48.24843" lon="-3.43033">
        <ele>146.8</ele>
        <time>2022-06-12T14:45:50Z</time>
      </trkpt>
      <trkpt lat="48.24843" lon="-3.43033">
        <ele>146.8</ele>
        <time>2022-06-12T14:45:51Z</time>
      </trkpt>
      <trkpt lat="48.24843" lon="-3.43033">
        <ele>146.8</ele>
        <time>2022-06-12T14:45:52Z</time>
      </trkpt>
      <trkpt lat="48.24843" lon="-3.43033">
        <ele>146.8</ele>
        <time>2022-06-12T14:45:53Z</time>
      </trkpt>
      <trkpt lat="48.24843" lon="-3.43033">
        <ele>146.8</ele>
        <time>2022-06-12T14:45:54Z</time>
      </trkpt>
      <trkpt lat="48.24843" lon="-3.43033">
        <ele>146.8</ele>
        <time>2022-06-12T14:45:55Z</time>
      </trkpt>
      <trkpt lat="48.24843" lon="-3.43033">
        <ele>146.8</ele>
        <time>2022-06-12T14:45:56Z</time>
      </trkpt>
      <trkpt lat="48.24843" lon="-3.43033">
        <ele>146.8</ele>
        <time>2022-06-12T14:45:57Z</time>
      </trkpt>
      <trkpt lat="48.24843" lon="-3.43033">
        <ele>146.8</ele>
        <time>2022-06-12T14:45:58Z</time>
      </trkpt>
      <trkpt lat="48.24843" lon="-3.43033">
        <ele>146.8</ele>
        <time>2022-06-12T14:45:59Z</time>
      </trkpt>
      <trkpt lat="48.24843" lon="-3.43033">
        <ele>146.8</ele>
        <time>2022-06-12T14:46:00Z</time>
      </trkpt>
      <trkpt lat="48.24843" lon="-3.43033">
        <ele>146.8</ele>
        <time>2022-06-12T14:46:01Z</time>
      </trkpt>
      <trkpt lat="48.24843" lon="-3.43033">
        <ele>146.8</ele>
        <time>2022-06-12T14:46:02Z</time>
      </trkpt>
      <trkpt lat="48.24843" lon="-3.43033">
        <ele>146.8</ele>
        <time>2022-06-12T14:46:03Z</time>
      </trkpt>
      <trkpt lat="48.24843" lon="-3.43033">
        <ele>146.8</ele>
        <time>2022-06-12T14:46:04Z</time>
      </trkpt>
      <trkpt lat="48.24843" lon="-3.43033">
        <ele>146.8</ele>
        <time>2022-06-12T14:46:05Z</time>
      </trkpt>
      <trkpt lat="48.24843" lon="-3.43033">
        <ele>146.8</ele>
        <time>2022-06-12T14:46:06Z</time>
      </trkpt>
      <trkpt lat="48.24843" lon="-3.43033">
        <ele>146.8</ele>
        <time>2022-06-12T14:46:07Z</time>
      </trkpt>
      <trkpt lat="48.24843" lon="-3.43033">
        <ele>146.8</ele>
        <time>2022-06-12T14:46:08Z</time>
      </trkpt>
      <trkpt lat="48.24843" lon="-3.43033">
        <ele>146.8</ele>
        <time>2022-06-12T14:46:09Z</time>
      </trkpt>
      <trkpt lat="48.24843" lon="-3.43033">
        <ele>146.8</ele>
        <time>2022-06-12T14:46:10Z</time>
      </trkpt>
      <trkpt lat="48.24843" lon="-3.43033">
        <ele>146.8</ele>
        <time>2022-06-12T14:46:11Z</time>
      </trkpt>
      <trkpt lat="48.24843" lon="-3.43033">
        <ele>146.8</ele>
        <time>2022-06-12T14:46:12Z</time>
      </trkpt>
      <trkpt lat="48.24843" lon="-3.43033">
        <ele>146.8</ele>
        <time>2022-06-12T14:46:13Z</time>
      </trkpt>
      <trkpt lat="48.24843" lon="-3.43033">
        <ele>146.8</ele>
        <time>2022-06-12T14:46:14Z</time>
      </trkpt>
      <trkpt lat="48.24843" lon="-3.43033">
        <ele>146.8</ele>
        <time>2022-06-12T14:46:15Z</time>
      </trkpt>
      <trkpt lat="48.24843" lon="-3.43033">
        <ele>146.8</ele>
        <time>2022-06-12T14:46:16Z</time>
      </trkpt>
      <trkpt lat="48.24843" lon="-3.43033">
        <ele>146.8</ele>
        <time>2022-06-12T14:46:17Z</time>
      </trkpt>
      <trkpt lat="48.24843" lon="-3.43033">
        <ele>146.8</ele>
        <time>2022-06-12T14:46:18Z</time>
      </trkpt>
      <trkpt lat="48.24843" lon="-3.43033">
        <ele>146.8</ele>
        <time>2022-06-12T14:46:19Z</time>
      </trkpt>
      <trkpt lat="48.24843" lon="-3.43033">
        <ele>146.8</ele>
        <time>2022-06-12T14:46:20Z</time>
      </trkpt>
      <trkpt lat="48.24843" lon="-3.43033">
        <ele>146.8</ele>
        <time>2022-06-12T14:46:21Z</time>
      </trkpt>
      <trkpt lat="48.24843" lon="-3.43033">
        <ele>146.8</ele>
        <time>2022-06-12T14:46:22Z</time>
      </trkpt>
      <trkpt lat="48.24843" lon="-3.43033">
        <ele>146.8</ele>
        <time>2022-06-12T14:46:23Z</time>
      </trkpt>
      <trkpt lat="48.24843" lon="-3.43033">
        <ele>146.8</ele>
        <time>2022-06-12T14:46:24Z</time>
      </trkpt>
      <trkpt lat="48.24843" lon="-3.43033">
        <ele>146.8</ele>
        <time>2022-06-12T14:46:25Z</time>
      </trkpt>
      <trkpt lat="48.24843" lon="-3.43033">
        <ele>146.8</ele>
        <time>2022-06-12T14:46:26Z</time>
      </trkpt>
      <trkpt lat="48.24843" lon="-3.43033">
        <ele>146.8</ele>
        <time>2022-06-12T14:46:27Z</time>
      </trkpt>
      <trkpt lat="48.24843" lon="-3.43033">
        <ele>146.8</ele>
        <time>2022-06-12T14:46:28Z</time>
      </trkpt>
      <trkpt lat="48.24843" lon="-3.43033">
        <ele>146.8</ele>
        <time>2022-06-12T14:46:29Z</time>
      </trkpt>
      <trkpt lat="48.24844" lon="-3.43033">
        <ele>146.8</ele>
        <time>2022-06-12T14:46:30Z</time>
      </trkpt>
      <trkpt lat="48.24844" lon="-3.43033">
        <ele>146.8</ele>
        <time>2022-06-12T14:46:31Z</time>
      </trkpt>
      <trkpt lat="48.24844" lon="-3.43033">
        <ele>146.8</ele>
        <time>2022-06-12T14:46:32Z</time>
      </trkpt>
      <trkpt lat="48.24844" lon="-3.43033">
        <ele>146.8</ele>
        <time>2022-06-12T14:46:33Z</time>
      </trkpt>
      <trkpt lat="48.24844" lon="-3.43033">
        <ele>146.8</ele>
        <time>2022-06-12T14:46:34Z</time>
      </trkpt>
      <trkpt lat="48.24844" lon="-3.43033">
        <ele>146.8</ele>
        <time>2022-06-12T14:46:35Z</time>
      </trkpt>
      <trkpt lat="48.24844" lon="-3.43033">
        <ele>146.8</ele>
        <time>2022-06-12T14:46:36Z</time>
      </trkpt>
      <trkpt lat="48.24844" lon="-3.43033">
        <ele>146.8</ele>
        <time>2022-06-12T14:46:37Z</time>
      </trkpt>
      <trkpt lat="48.24844" lon="-3.43033">
        <ele>146.8</ele>
        <time>2022-06-12T14:46:38Z</time>
      </trkpt>
      <trkpt lat="48.24844" lon="-3.43033">
        <ele>146.8</ele>
        <time>2022-06-12T14:46:39Z</time>
      </trkpt>
      <trkpt lat="48.24844" lon="-3.43033">
        <ele>146.8</ele>
        <time>2022-06-12T14:46:40Z</time>
      </trkpt>
      <trkpt lat="48.24844" lon="-3.43033">
        <ele>146.8</ele>
        <time>2022-06-12T14:46:41Z</time>
      </trkpt>
      <trkpt lat="48.24844" lon="-3.43033">
        <ele>146.8</ele>
        <time>2022-06-12T14:46:42Z</time>
      </trkpt>
      <trkpt lat="48.24844" lon="-3.43033">
        <ele>146.8</ele>
        <time>2022-06-12T14:46:43Z</time>
      </trkpt>
      <trkpt lat="48.24844" lon="-3.43033">
        <ele>146.8</ele>
        <time>2022-06-12T14:46:44Z</time>
      </trkpt>
      <trkpt lat="48.24844" lon="-3.43033">
        <ele>146.8</ele>
        <time>2022-06-12T14:46:45Z</time>
      </trkpt>
      <trkpt lat="48.24844" lon="-3.43033">
        <ele>146.8</ele>
        <time>2022-06-12T14:46:46Z</time>
      </trkpt>
      <trkpt lat="48.24844" lon="-3.43033">
        <ele>146.8</ele>
        <time>2022-06-12T14:46:47Z</time>
      </trkpt>
      <trkpt lat="48.24844" lon="-3.43033">
        <ele>146.8</ele>
        <time>2022-06-12T14:46:48Z</time>
      </trkpt>
      <trkpt lat="48.24844" lon="-3.43033">
        <ele>146.8</ele>
        <time>2022-06-12T14:46:49Z</time>
      </trkpt>
      <trkpt lat="48.24844" lon="-3.43033">
        <ele>146.8</ele>
        <time>2022-06-12T14:46:50Z</time>
      </trkpt>
      <trkpt lat="48.24844" lon="-3.43033">
        <ele>146.8</ele>
        <time>2022-06-12T14:46:51Z</time>
      </trkpt>
      <trkpt lat="48.24844" lon="-3.43033">
        <ele>146.8</ele>
        <time>2022-06-12T14:46:52Z</time>
      </trkpt>
      <trkpt lat="48.24844" lon="-3.43033">
        <ele>146.8</ele>
        <time>2022-06-12T14:46:53Z</time>
      </trkpt>
      <trkpt lat="48.24844" lon="-3.43033">
        <ele>146.8</ele>
        <time>2022-06-12T14:46:54Z</time>
      </trkpt>
      <trkpt lat="48.24844" lon="-3.43033">
        <ele>146.8</ele>
        <time>2022-06-12T14:46:55Z</time>
      </trkpt>
      <trkpt lat="48.24844" lon="-3.43033">
        <ele>146.8</ele>
        <time>2022-06-12T14:46:56Z</time>
      </trkpt>
      <trkpt lat="48.24844" lon="-3.43033">
        <ele>146.8</ele>
        <time>2022-06-12T14:46:57Z</time>
      </trkpt>
      <trkpt lat="48.24844" lon="-3.43033">
        <ele>146.8</ele>
        <time>2022-06-12T14:46:58Z</time>
      </trkpt>
      <trkpt lat="48.24844" lon="-3.43033">
        <ele>146.8</ele>
        <time>2022-06-12T14:46:59Z</time>
      </trkpt>
      <trkpt lat="48.24844" lon="-3.43033">
        <ele>146.8</ele>
        <time>2022-06-12T14:47:00Z</time>
      </trkpt>
      <trkpt lat="48.24844" lon="-3.43033">
        <ele>146.8</ele>
        <time>2022-06-12T14:47:01Z</time>
      </trkpt>
      <trkpt lat="48.24844" lon="-3.43033">
        <ele>146.8</ele>
        <time>2022-06-12T14:47:02Z</time>
      </trkpt>
      <trkpt lat="48.24844" lon="-3.43033">
        <ele>146.8</ele>
        <time>2022-06-12T14:47:03Z</time>
      </trkpt>
      <trkpt lat="48.24844" lon="-3.43033">
        <ele>146.8</ele>
        <time>2022-06-12T14:47:04Z</time>
      </trkpt>
      <trkpt lat="48.24844" lon="-3.43033">
        <ele>146.8</ele>
        <time>2022-06-12T14:47:05Z</time>
      </trkpt>
      <trkpt lat="48.24844" lon="-3.43033">
        <ele>146.8</ele>
        <time>2022-06-12T14:47:06Z</time>
      </trkpt>
      <trkpt lat="48.24844" lon="-3.43033">
        <ele>146.8</ele>
        <time>2022-06-12T14:47:07Z</time>
      </trkpt>
      <trkpt lat="48.24844" lon="-3.43032">
        <ele>146.8</ele>
        <time>2022-06-12T14:47:08Z</time>
      </trkpt>
      <trkpt lat="48.24844" lon="-3.43032">
        <ele>146.8</ele>
        <time>2022-06-12T14:47:09Z</time>
      </trkpt>
      <trkpt lat="48.24844" lon="-3.43032">
        <ele>146.8</ele>
        <time>2022-06-12T14:47:10Z</time>
      </trkpt>
      <trkpt lat="48.24844" lon="-3.43032">
        <ele>146.8</ele>
        <time>2022-06-12T14:47:11Z</time>
      </trkpt>
      <trkpt lat="48.24844" lon="-3.43032">
        <ele>146.8</ele>
        <time>2022-06-12T14:47:12Z</time>
      </trkpt>
      <trkpt lat="48.24844" lon="-3.43032">
        <ele>146.8</ele>
        <time>2022-06-12T14:47:13Z</time>
      </trkpt>
      <trkpt lat="48.24844" lon="-3.43032">
        <ele>146.8</ele>
        <time>2022-06-12T14:47:14Z</time>
      </trkpt>
      <trkpt lat="48.24844" lon="-3.43032">
        <ele>146.8</ele>
        <time>2022-06-12T14:47:15Z</time>
      </trkpt>
      <trkpt lat="48.24844" lon="-3.43032">
        <ele>146.8</ele>
        <time>2022-06-12T14:47:16Z</time>
      </trkpt>
      <trkpt lat="48.24844" lon="-3.43032">
        <ele>146.8</ele>
        <time>2022-06-12T14:47:17Z</time>
      </trkpt>
      <trkpt lat="48.24844" lon="-3.43032">
        <ele>146.8</ele>
        <time>2022-06-12T14:47:18Z</time>
      </trkpt>
      <trkpt lat="48.24844" lon="-3.43032">
        <ele>146.8</ele>
        <time>2022-06-12T14:47:19Z</time>
      </trkpt>
      <trkpt lat="48.24844" lon="-3.43032">
        <ele>146.8</ele>
        <time>2022-06-12T14:47:20Z</time>
      </trkpt>
      <trkpt lat="48.24844" lon="-3.43032">
        <ele>146.8</ele>
        <time>2022-06-12T14:47:21Z</time>
      </trkpt>
      <trkpt lat="48.24844" lon="-3.43032">
        <ele>146.8</ele>
        <time>2022-06-12T14:47:22Z</time>
      </trkpt>
      <trkpt lat="48.24844" lon="-3.43032">
        <ele>146.8</ele>
        <time>2022-06-12T14:47:23Z</time>
      </trkpt>
      <trkpt lat="48.24844" lon="-3.43032">
        <ele>146.8</ele>
        <time>2022-06-12T14:47:24Z</time>
      </trkpt>
      <trkpt lat="48.24844" lon="-3.43032">
        <ele>146.8</ele>
        <time>2022-06-12T14:47:25Z</time>
      </trkpt>
      <trkpt lat="48.24844" lon="-3.43032">
        <ele>146.8</ele>
        <time>2022-06-12T14:47:26Z</time>
      </trkpt>
      <trkpt lat="48.24844" lon="-3.43032">
        <ele>146.8</ele>
        <time>2022-06-12T14:47:27Z</time>
      </trkpt>
      <trkpt lat="48.24844" lon="-3.43032">
        <ele>146.8</ele>
        <time>2022-06-12T14:47:28Z</time>
      </trkpt>
      <trkpt lat="48.24844" lon="-3.43032">
        <ele>146.8</ele>
        <time>2022-06-12T14:47:29Z</time>
      </trkpt>
      <trkpt lat="48.24844" lon="-3.43032">
        <ele>146.8</ele>
        <time>2022-06-12T14:47:30Z</time>
      </trkpt>
      <trkpt lat="48.24844" lon="-3.43032">
        <ele>146.8</ele>
        <time>2022-06-12T14:47:31Z</time>
      </trkpt>
      <trkpt lat="48.24844" lon="-3.43032">
        <ele>146.8</ele>
        <time>2022-06-12T14:47:32Z</time>
      </trkpt>
      <trkpt lat="48.24844" lon="-3.43032">
        <ele>146.8</ele>
        <time>2022-06-12T14:47:33Z</time>
      </trkpt>
      <trkpt lat="48.24844" lon="-3.43032">
        <ele>146.8</ele>
        <time>2022-06-12T14:47:34Z</time>
      </trkpt>
      <trkpt lat="48.24844" lon="-3.43032">
        <ele>146.8</ele>
        <time>2022-06-12T14:47:35Z</time>
      </trkpt>
      <trkpt lat="48.24844" lon="-3.43032">
        <ele>146.8</ele>
        <time>2022-06-12T14:47:36Z</time>
      </trkpt>
      <trkpt lat="48.24844" lon="-3.43032">
        <ele>146.8</ele>
        <time>2022-06-12T14:47:37Z</time>
      </trkpt>
      <trkpt lat="48.24844" lon="-3.43032">
        <ele>146.8</ele>
        <time>2022-06-12T14:47:38Z</time>
      </trkpt>
      <trkpt lat="48.24844" lon="-3.43032">
        <ele>146.8</ele>
        <time>2022-06-12T14:47:39Z</time>
      </trkpt>
      <trkpt lat="48.24844" lon="-3.43032">
        <ele>146.8</ele>
        <time>2022-06-12T14:47:40Z</time>
      </trkpt>
      <trkpt lat="48.24844" lon="-3.43032">
        <ele>146.8</ele>
        <time>2022-06-12T14:47:41Z</time>
      </trkpt>
      <trkpt lat="48.24844" lon="-3.43032">
        <ele>146.8</ele>
        <time>2022-06-12T14:47:42Z</time>
      </trkpt>
      <trkpt lat="48.24844" lon="-3.43032">
        <ele>146.8</ele>
        <time>2022-06-12T14:47:43Z</time>
      </trkpt>
      <trkpt lat="48.24844" lon="-3.43032">
        <ele>146.8</ele>
        <time>2022-06-12T14:47:44Z</time>
      </trkpt>
      <trkpt lat="48.24844" lon="-3.43032">
        <ele>146.8</ele>
        <time>2022-06-12T14:47:45Z</time>
      </trkpt>
      <trkpt lat="48.24844" lon="-3.43032">
        <ele>146.8</ele>
        <time>2022-06-12T14:47:46Z</time>
      </trkpt>
      <trkpt lat="48.24844" lon="-3.43032">
        <ele>146.8</ele>
        <time>2022-06-12T14:47:47Z</time>
      </trkpt>
      <trkpt lat="48.24844" lon="-3.43032">
        <ele>146.8</ele>
        <time>2022-06-12T14:47:48Z</time>
      </trkpt>
      <trkpt lat="48.24844" lon="-3.43032">
        <ele>146.8</ele>
        <time>2022-06-12T14:47:49Z</time>
      </trkpt>
      <trkpt lat="48.24844" lon="-3.43032">
        <ele>146.8</ele>
        <time>2022-06-12T14:47:50Z</time>
      </trkpt>
      <trkpt lat="48.24844" lon="-3.43032">
        <ele>146.8</ele>
        <time>2022-06-12T14:47:51Z</time>
      </trkpt>
      <trkpt lat="48.24844" lon="-3.43032">
        <ele>146.8</ele>
        <time>2022-06-12T14:47:52Z</time>
      </trkpt>
      <trkpt lat="48.24844" lon="-3.43032">
        <ele>146.8</ele>
        <time>2022-06-12T14:47:53Z</time>
      </trkpt>
      <trkpt lat="48.24844" lon="-3.43032">
        <ele>146.8</ele>
        <time>2022-06-12T14:47:54Z</time>
      </trkpt>
      <trkpt lat="48.24844" lon="-3.43032">
        <ele>146.8</ele>
        <time>2022-06-12T14:47:55Z</time>
      </trkpt>
      <trkpt lat="48.24844" lon="-3.43032">
        <ele>146.8</ele>
        <time>2022-06-12T14:47:56Z</time>
      </trkpt>
      <trkpt lat="48.24844" lon="-3.43032">
        <ele>146.8</ele>
        <time>2022-06-12T14:47:57Z</time>
      </trkpt>
      <trkpt lat="48.24844" lon="-3.43032">
        <ele>146.8</ele>
        <time>2022-06-12T14:47:58Z</time>
      </trkpt>
      <trkpt lat="48.24844" lon="-3.43032">
        <ele>146.8</ele>
        <time>2022-06-12T14:47:59Z</time>
      </trkpt>
      <trkpt lat="48.24844" lon="-3.43032">
        <ele>146.8</ele>
        <time>2022-06-12T14:48:00Z</time>
      </trkpt>
      <trkpt lat="48.24844" lon="-3.43032">
        <ele>146.8</ele>
        <time>2022-06-12T14:48:01Z</time>
      </trkpt>
      <trkpt lat="48.24844" lon="-3.43032">
        <ele>146.8</ele>
        <time>2022-06-12T14:48:02Z</time>
      </trkpt>
      <trkpt lat="48.24844" lon="-3.43032">
        <ele>146.8</ele>
        <time>2022-06-12T14:48:03Z</time>
      </trkpt>
      <trkpt lat="48.24844" lon="-3.43032">
        <ele>146.8</ele>
        <time>2022-06-12T14:48:04Z</time>
      </trkpt>
      <trkpt lat="48.24844" lon="-3.43032">
        <ele>146.8</ele>
        <time>2022-06-12T14:48:05Z</time>
      </trkpt>
      <trkpt lat="48.24844" lon="-3.43032">
        <ele>146.8</ele>
        <time>2022-06-12T14:48:06Z</time>
      </trkpt>
      <trkpt lat="48.24844" lon="-3.43032">
        <ele>146.8</ele>
        <time>2022-06-12T14:48:07Z</time>
      </trkpt>
      <trkpt lat="48.24844" lon="-3.43032">
        <ele>146.8</ele>
        <time>2022-06-12T14:48:08Z</time>
      </trkpt>
      <trkpt lat="48.24844" lon="-3.43032">
        <ele>146.8</ele>
        <time>2022-06-12T14:48:09Z</time>
      </trkpt>
      <trkpt lat="48.24844" lon="-3.43032">
        <ele>146.8</ele>
        <time>2022-06-12T14:48:10Z</time>
      </trkpt>
      <trkpt lat="48.24844" lon="-3.43032">
        <ele>146.8</ele>
        <time>2022-06-12T14:48:11Z</time>
      </trkpt>
      <trkpt lat="48.24844" lon="-3.43032">
        <ele>146.8</ele>
        <time>2022-06-12T14:48:12Z</time>
      </trkpt>
      <trkpt lat="48.24844" lon="-3.43032">
        <ele>146.8</ele>
        <time>2022-06-12T14:48:13Z</time>
      </trkpt>
      <trkpt lat="48.24844" lon="-3.43032">
        <ele>146.8</ele>
        <time>2022-06-12T14:48:14Z</time>
      </trkpt>
      <trkpt lat="48.24844" lon="-3.43032">
        <ele>146.8</ele>
        <time>2022-06-12T14:48:15Z</time>
      </trkpt>
      <trkpt lat="48.24844" lon="-3.43032">
        <ele>146.8</ele>
        <time>2022-06-12T14:48:16Z</time>
      </trkpt>
      <trkpt lat="48.24844" lon="-3.43032">
        <ele>146.8</ele>
        <time>2022-06-12T14:48:17Z</time>
      </trkpt>
      <trkpt lat="48.24844" lon="-3.43032">
        <ele>146.8</ele>
        <time>2022-06-12T14:48:18Z</time>
      </trkpt>
      <trkpt lat="48.24844" lon="-3.43032">
        <ele>146.8</ele>
        <time>2022-06-12T14:48:19Z</time>
      </trkpt>
      <trkpt lat="48.24844" lon="-3.43032">
        <ele>146.8</ele>
        <time>2022-06-12T14:48:20Z</time>
      </trkpt>
      <trkpt lat="48.24844" lon="-3.43032">
        <ele>146.8</ele>
        <time>2022-06-12T14:48:21Z</time>
      </trkpt>
      <trkpt lat="48.24844" lon="-3.43032">
        <ele>146.8</ele>
        <time>2022-06-12T14:48:22Z</time>
      </trkpt>
      <trkpt lat="48.24845" lon="-3.43032">
        <ele>146.8</ele>
        <time>2022-06-12T14:48:23Z</time>
      </trkpt>
      <trkpt lat="48.24845" lon="-3.43032">
        <ele>146.8</ele>
        <time>2022-06-12T14:48:24Z</time>
      </trkpt>
      <trkpt lat="48.24845" lon="-3.43032">
        <ele>146.8</ele>
        <time>2022-06-12T14:48:25Z</time>
      </trkpt>
      <trkpt lat="48.24845" lon="-3.43032">
        <ele>146.8</ele>
        <time>2022-06-12T14:48:26Z</time>
      </trkpt>
      <trkpt lat="48.24845" lon="-3.43032">
        <ele>146.8</ele>
        <time>2022-06-12T14:48:27Z</time>
      </trkpt>
      <trkpt lat="48.24845" lon="-3.43032">
        <ele>146.8</ele>
        <time>2022-06-12T14:48:28Z</time>
      </trkpt>
      <trkpt lat="48.24845" lon="-3.43032">
        <ele>146.8</ele>
        <time>2022-06-12T14:48:29Z</time>
      </trkpt>
      <trkpt lat="48.24845" lon="-3.43032">
        <ele>146.8</ele>
        <time>2022-06-12T14:48:30Z</time>
      </trkpt>
      <trkpt lat="48.24845" lon="-3.43032">
        <ele>146.8</ele>
        <time>2022-06-12T14:48:31Z</time>
      </trkpt>
      <trkpt lat="48.24845" lon="-3.43032">
        <ele>146.8</ele>
        <time>2022-06-12T14:48:32Z</time>
      </trkpt>
      <trkpt lat="48.24845" lon="-3.43032">
        <ele>146.8</ele>
        <time>2022-06-12T14:48:33Z</time>
      </trkpt>
      <trkpt lat="48.24845" lon="-3.43032">
        <ele>146.8</ele>
        <time>2022-06-12T14:48:34Z</time>
      </trkpt>
      <trkpt lat="48.24845" lon="-3.43032">
        <ele>146.8</ele>
        <time>2022-06-12T14:48:35Z</time>
      </trkpt>
      <trkpt lat="48.24845" lon="-3.43032">
        <ele>146.8</ele>
        <time>2022-06-12T14:48:36Z</time>
      </trkpt>
      <trkpt lat="48.24845" lon="-3.43032">
        <ele>146.8</ele>
        <time>2022-06-12T14:48:37Z</time>
      </trkpt>
      <trkpt lat="48.24845" lon="-3.43032">
        <ele>146.8</ele>
        <time>2022-06-12T14:48:38Z</time>
      </trkpt>
      <trkpt lat="48.24845" lon="-3.43032">
        <ele>146.8</ele>
        <time>2022-06-12T14:48:39Z</time>
      </trkpt>
      <trkpt lat="48.24845" lon="-3.43032">
        <ele>146.8</ele>
        <time>2022-06-12T14:48:40Z</time>
      </trkpt>
      <trkpt lat="48.24845" lon="-3.43032">
        <ele>146.8</ele>
        <time>2022-06-12T14:48:41Z</time>
      </trkpt>
      <trkpt lat="48.24845" lon="-3.43032">
        <ele>146.8</ele>
        <time>2022-06-12T14:48:42Z</time>
      </trkpt>
      <trkpt lat="48.24845" lon="-3.43032">
        <ele>146.8</ele>
        <time>2022-06-12T14:48:43Z</time>
      </trkpt>
      <trkpt lat="48.24845" lon="-3.43032">
        <ele>146.8</ele>
        <time>2022-06-12T14:48:44Z</time>
      </trkpt>
      <trkpt lat="48.24845" lon="-3.43032">
        <ele>146.8</ele>
        <time>2022-06-12T14:48:45Z</time>
      </trkpt>
      <trkpt lat="48.24845" lon="-3.43032">
        <ele>146.8</ele>
        <time>2022-06-12T14:48:46Z</time>
      </trkpt>
      <trkpt lat="48.24845" lon="-3.43032">
        <ele>146.8</ele>
        <time>2022-06-12T14:48:47Z</time>
      </trkpt>
      <trkpt lat="48.24845" lon="-3.43032">
        <ele>146.8</ele>
        <time>2022-06-12T14:48:48Z</time>
      </trkpt>
      <trkpt lat="48.24845" lon="-3.43032">
        <ele>146.8</ele>
        <time>2022-06-12T14:48:49Z</time>
      </trkpt>
      <trkpt lat="48.24845" lon="-3.43032">
        <ele>146.8</ele>
        <time>2022-06-12T14:48:50Z</time>
      </trkpt>
      <trkpt lat="48.24845" lon="-3.43032">
        <ele>146.8</ele>
        <time>2022-06-12T14:48:51Z</time>
      </trkpt>
      <trkpt lat="48.24845" lon="-3.43032">
        <ele>146.8</ele>
        <time>2022-06-12T14:48:52Z</time>
      </trkpt>
      <trkpt lat="48.24845" lon="-3.43032">
        <ele>146.8</ele>
        <time>2022-06-12T14:48:53Z</time>
      </trkpt>
      <trkpt lat="48.24845" lon="-3.43032">
        <ele>146.8</ele>
        <time>2022-06-12T14:48:54Z</time>
      </trkpt>
      <trkpt lat="48.24845" lon="-3.43032">
        <ele>146.8</ele>
        <time>2022-06-12T14:48:55Z</time>
      </trkpt>
      <trkpt lat="48.24845" lon="-3.43032">
        <ele>146.8</ele>
        <time>2022-06-12T14:48:56Z</time>
      </trkpt>
      <trkpt lat="48.24845" lon="-3.43032">
        <ele>146.8</ele>
        <time>2022-06-12T14:48:57Z</time>
      </trkpt>
      <trkpt lat="48.24845" lon="-3.43032">
        <ele>146.8</ele>
        <time>2022-06-12T14:48:58Z</time>
      </trkpt>
      <trkpt lat="48.24845" lon="-3.43032">
        <ele>146.8</ele>
        <time>2022-06-12T14:48:59Z</time>
      </trkpt>
      <trkpt lat="48.24845" lon="-3.43032">
        <ele>146.8</ele>
        <time>2022-06-12T14:49:00Z</time>
      </trkpt>
      <trkpt lat="48.24845" lon="-3.43032">
        <ele>146.8</ele>
        <time>2022-06-12T14:49:01Z</time>
      </trkpt>
      <trkpt lat="48.24845" lon="-3.43032">
        <ele>146.8</ele>
        <time>2022-06-12T14:49:02Z</time>
      </trkpt>
      <trkpt lat="48.24845" lon="-3.43032">
        <ele>146.8</ele>
        <time>2022-06-12T14:49:03Z</time>
      </trkpt>
      <trkpt lat="48.24845" lon="-3.43032">
        <ele>146.8</ele>
        <time>2022-06-12T14:49:04Z</time>
      </trkpt>
      <trkpt lat="48.24845" lon="-3.43032">
        <ele>146.8</ele>
        <time>2022-06-12T14:49:05Z</time>
      </trkpt>
      <trkpt lat="48.24845" lon="-3.43032">
        <ele>146.8</ele>
        <time>2022-06-12T14:49:06Z</time>
      </trkpt>
      <trkpt lat="48.24845" lon="-3.43032">
        <ele>146.8</ele>
        <time>2022-06-12T14:49:07Z</time>
      </trkpt>
      <trkpt lat="48.24845" lon="-3.43032">
        <ele>146.8</ele>
        <time>2022-06-12T14:49:08Z</time>
      </trkpt>
      <trkpt lat="48.24845" lon="-3.43032">
        <ele>146.8</ele>
        <time>2022-06-12T14:49:09Z</time>
      </trkpt>
      <trkpt lat="48.24845" lon="-3.43032">
        <ele>146.8</ele>
        <time>2022-06-12T14:49:10Z</time>
      </trkpt>
      <trkpt lat="48.24845" lon="-3.43032">
        <ele>146.8</ele>
        <time>2022-06-12T14:49:11Z</time>
      </trkpt>
      <trkpt lat="48.24845" lon="-3.43032">
        <ele>146.8</ele>
        <time>2022-06-12T14:49:12Z</time>
      </trkpt>
      <trkpt lat="48.24845" lon="-3.43032">
        <ele>146.8</ele>
        <time>2022-06-12T14:49:13Z</time>
      </trkpt>
      <trkpt lat="48.24845" lon="-3.43032">
        <ele>146.8</ele>
        <time>2022-06-12T14:49:14Z</time>
      </trkpt>
      <trkpt lat="48.24845" lon="-3.43032">
        <ele>146.8</ele>
        <time>2022-06-12T14:49:15Z</time>
      </trkpt>
      <trkpt lat="48.24845" lon="-3.43032">
        <ele>146.8</ele>
        <time>2022-06-12T14:49:16Z</time>
      </trkpt>
      <trkpt lat="48.24845" lon="-3.43032">
        <ele>146.8</ele>
        <time>2022-06-12T14:49:17Z</time>
      </trkpt>
      <trkpt lat="48.24845" lon="-3.43032">
        <ele>146.8</ele>
        <time>2022-06-12T14:49:18Z</time>
      </trkpt>
      <trkpt lat="48.24845" lon="-3.43032">
        <ele>146.8</ele>
        <time>2022-06-12T14:49:19Z</time>
      </trkpt>
      <trkpt lat="48.24845" lon="-3.43032">
        <ele>146.8</ele>
        <time>2022-06-12T14:49:20Z</time>
      </trkpt>
      <trkpt lat="48.24845" lon="-3.43032">
        <ele>146.8</ele>
        <time>2022-06-12T14:49:21Z</time>
      </trkpt>
      <trkpt lat="48.24845" lon="-3.43032">
        <ele>146.8</ele>
        <time>2022-06-12T14:49:22Z</time>
      </trkpt>
      <trkpt lat="48.24845" lon="-3.43032">
        <ele>146.8</ele>
        <time>2022-06-12T14:49:23Z</time>
      </trkpt>
      <trkpt lat="48.24845" lon="-3.43032">
        <ele>146.8</ele>
        <time>2022-06-12T14:49:24Z</time>
      </trkpt>
      <trkpt lat="48.24845" lon="-3.43032">
        <ele>146.8</ele>
        <time>2022-06-12T14:49:25Z</time>
      </trkpt>
      <trkpt lat="48.24845" lon="-3.43032">
        <ele>146.8</ele>
        <time>2022-06-12T14:49:26Z</time>
      </trkpt>
      <trkpt lat="48.24845" lon="-3.43032">
        <ele>146.8</ele>
        <time>2022-06-12T14:49:27Z</time>
      </trkpt>
      <trkpt lat="48.24845" lon="-3.43032">
        <ele>146.8</ele>
        <time>2022-06-12T14:49:28Z</time>
      </trkpt>
      <trkpt lat="48.24845" lon="-3.43032">
        <ele>146.8</ele>
        <time>2022-06-12T14:49:29Z</time>
      </trkpt>
      <trkpt lat="48.24845" lon="-3.43032">
        <ele>146.8</ele>
        <time>2022-06-12T14:49:30Z</time>
      </trkpt>
      <trkpt lat="48.24845" lon="-3.43032">
        <ele>146.8</ele>
        <time>2022-06-12T14:49:31Z</time>
      </trkpt>
      <trkpt lat="48.24845" lon="-3.43032">
        <ele>146.8</ele>
        <time>2022-06-12T14:49:32Z</time>
      </trkpt>
      <trkpt lat="48.24845" lon="-3.43032">
        <ele>146.8</ele>
        <time>2022-06-12T14:49:33Z</time>
      </trkpt>
      <trkpt lat="48.24845" lon="-3.43032">
        <ele>146.8</ele>
        <time>2022-06-12T14:49:34Z</time>
      </trkpt>
      <trkpt lat="48.24845" lon="-3.43032">
        <ele>146.8</ele>
        <time>2022-06-12T14:49:35Z</time>
      </trkpt>
      <trkpt lat="48.24845" lon="-3.43032">
        <ele>146.8</ele>
        <time>2022-06-12T14:49:36Z</time>
      </trkpt>
      <trkpt lat="48.24845" lon="-3.43032">
        <ele>146.8</ele>
        <time>2022-06-12T14:49:37Z</time>
      </trkpt>
      <trkpt lat="48.24845" lon="-3.43032">
        <ele>146.8</ele>
        <time>2022-06-12T14:49:38Z</time>
      </trkpt>
      <trkpt lat="48.24845" lon="-3.43032">
        <ele>146.8</ele>
        <time>2022-06-12T14:49:39Z</time>
      </trkpt>
      <trkpt lat="48.24845" lon="-3.43032">
        <ele>146.8</ele>
        <time>2022-06-12T14:49:40Z</time>
      </trkpt>
      <trkpt lat="48.24845" lon="-3.43032">
        <ele>146.8</ele>
        <time>2022-06-12T14:49:41Z</time>
      </trkpt>
      <trkpt lat="48.24845" lon="-3.43032">
        <ele>146.8</ele>
        <time>2022-06-12T14:49:42Z</time>
      </trkpt>
      <trkpt lat="48.24845" lon="-3.43032">
        <ele>146.8</ele>
        <time>2022-06-12T14:49:43Z</time>
      </trkpt>
      <trkpt lat="48.24845" lon="-3.43032">
        <ele>146.8</ele>
        <time>2022-06-12T14:49:44Z</time>
      </trkpt>
      <trkpt lat="48.24845" lon="-3.43032">
        <ele>146.8</ele>
        <time>2022-06-12T14:49:45Z</time>
      </trkpt>
      <trkpt lat="48.24845" lon="-3.43032">
        <ele>146.8</ele>
        <time>2022-06-12T14:49:46Z</time>
      </trkpt>
      <trkpt lat="48.24845" lon="-3.43032">
        <ele>146.8</ele>
        <time>2022-06-12T14:49:47Z</time>
      </trkpt>
      <trkpt lat="48.24845" lon="-3.43032">
        <ele>146.8</ele>
        <time>2022-06-12T14:49:48Z</time>
      </trkpt>
      <trkpt lat="48.24845" lon="-3.43032">
        <ele>146.8</ele>
        <time>2022-06-12T14:49:49Z</time>
      </trkpt>
      <trkpt lat="48.24845" lon="-3.43032">
        <ele>146.8</ele>
        <time>2022-06-12T14:49:50Z</time>
      </trkpt>
      <trkpt lat="48.24845" lon="-3.43032">
        <ele>146.8</ele>
        <time>2022-06-12T14:49:51Z</time>
      </trkpt>
      <trkpt lat="48.24845" lon="-3.43032">
        <ele>146.8</ele>
        <time>2022-06-12T14:49:52Z</time>
      </trkpt>
      <trkpt lat="48.24845" lon="-3.43032">
        <ele>146.8</ele>
        <time>2022-06-12T14:49:53Z</time>
      </trkpt>
      <trkpt lat="48.24845" lon="-3.43031">
        <ele>146.8</ele>
        <time>2022-06-12T14:49:54Z</time>
      </trkpt>
      <trkpt lat="48.24845" lon="-3.43031">
        <ele>146.8</ele>
        <time>2022-06-12T14:49:55Z</time>
      </trkpt>
      <trkpt lat="48.24845" lon="-3.43031">
        <ele>146.8</ele>
        <time>2022-06-12T14:49:56Z</time>
      </trkpt>
      <trkpt lat="48.24845" lon="-3.43031">
        <ele>146.8</ele>
        <time>2022-06-12T14:49:57Z</time>
      </trkpt>
      <trkpt lat="48.24845" lon="-3.43031">
        <ele>146.8</ele>
        <time>2022-06-12T14:49:58Z</time>
      </trkpt>
      <trkpt lat="48.24845" lon="-3.43031">
        <ele>146.8</ele>
        <time>2022-06-12T14:49:59Z</time>
      </trkpt>
      <trkpt lat="48.24845" lon="-3.43031">
        <ele>146.8</ele>
        <time>2022-06-12T14:50:00Z</time>
      </trkpt>
      <trkpt lat="48.24845" lon="-3.43031">
        <ele>146.8</ele>
        <time>2022-06-12T14:50:01Z</time>
      </trkpt>
      <trkpt lat="48.24845" lon="-3.43031">
        <ele>146.8</ele>
        <time>2022-06-12T14:50:02Z</time>
      </trkpt>
      <trkpt lat="48.24845" lon="-3.43031">
        <ele>146.8</ele>
        <time>2022-06-12T14:50:03Z</time>
      </trkpt>
      <trkpt lat="48.24845" lon="-3.43031">
        <ele>146.8</ele>
        <time>2022-06-12T14:50:04Z</time>
      </trkpt>
      <trkpt lat="48.24845" lon="-3.43031">
        <ele>146.8</ele>
        <time>2022-06-12T14:50:05Z</time>
      </trkpt>
      <trkpt lat="48.24845" lon="-3.43031">
        <ele>146.8</ele>
        <time>2022-06-12T14:50:06Z</time>
      </trkpt>
      <trkpt lat="48.24845" lon="-3.43031">
        <ele>146.8</ele>
        <time>2022-06-12T14:50:07Z</time>
      </trkpt>
      <trkpt lat="48.24845" lon="-3.43031">
        <ele>146.8</ele>
        <time>2022-06-12T14:50:08Z</time>
      </trkpt>
      <trkpt lat="48.24845" lon="-3.43031">
        <ele>146.8</ele>
        <time>2022-06-12T14:50:09Z</time>
      </trkpt>
      <trkpt lat="48.24845" lon="-3.43031">
        <ele>146.8</ele>
        <time>2022-06-12T14:50:10Z</time>
      </trkpt>
      <trkpt lat="48.24845" lon="-3.43031">
        <ele>146.8</ele>
        <time>2022-06-12T14:50:11Z</time>
      </trkpt>
      <trkpt lat="48.24845" lon="-3.43031">
        <ele>146.8</ele>
        <time>2022-06-12T14:50:12Z</time>
      </trkpt>
      <trkpt lat="48.24845" lon="-3.43031">
        <ele>146.8</ele>
        <time>2022-06-12T14:50:13Z</time>
      </trkpt>
      <trkpt lat="48.24845" lon="-3.43031">
        <ele>146.8</ele>
        <time>2022-06-12T14:50:14Z</time>
      </trkpt>
      <trkpt lat="48.24845" lon="-3.43031">
        <ele>146.8</ele>
        <time>2022-06-12T14:50:15Z</time>
      </trkpt>
      <trkpt lat="48.24845" lon="-3.43031">
        <ele>146.8</ele>
        <time>2022-06-12T14:50:16Z</time>
      </trkpt>
      <trkpt lat="48.24846" lon="-3.43031">
        <ele>146.8</ele>
        <time>2022-06-12T14:50:17Z</time>
      </trkpt>
      <trkpt lat="48.24846" lon="-3.43031">
        <ele>146.8</ele>
        <time>2022-06-12T14:50:18Z</time>
      </trkpt>
      <trkpt lat="48.24846" lon="-3.43031">
        <ele>146.8</ele>
        <time>2022-06-12T14:50:19Z</time>
      </trkpt>
      <trkpt lat="48.24846" lon="-3.43031">
        <ele>146.8</ele>
        <time>2022-06-12T14:50:20Z</time>
      </trkpt>
      <trkpt lat="48.24846" lon="-3.43031">
        <ele>146.8</ele>
        <time>2022-06-12T14:50:21Z</time>
      </trkpt>
      <trkpt lat="48.24846" lon="-3.43031">
        <ele>146.8</ele>
        <time>2022-06-12T14:50:22Z</time>
      </trkpt>
      <trkpt lat="48.24846" lon="-3.43031">
        <ele>146.8</ele>
        <time>2022-06-12T14:50:23Z</time>
      </trkpt>
      <trkpt lat="48.24846" lon="-3.43031">
        <ele>146.8</ele>
        <time>2022-06-12T14:50:24Z</time>
      </trkpt>
      <trkpt lat="48.24846" lon="-3.43031">
        <ele>146.8</ele>
        <time>2022-06-12T14:50:25Z</time>
      </trkpt>
      <trkpt lat="48.24846" lon="-3.43031">
        <ele>146.8</ele>
        <time>2022-06-12T14:50:26Z</time>
      </trkpt>
      <trkpt lat="48.24846" lon="-3.43031">
        <ele>146.8</ele>
        <time>2022-06-12T14:50:27Z</time>
      </trkpt>
      <trkpt lat="48.24846" lon="-3.43031">
        <ele>146.8</ele>
        <time>2022-06-12T14:50:28Z</time>
      </trkpt>
      <trkpt lat="48.24846" lon="-3.43031">
        <ele>146.8</ele>
        <time>2022-06-12T14:50:29Z</time>
      </trkpt>
      <trkpt lat="48.24846" lon="-3.43031">
        <ele>146.8</ele>
        <time>2022-06-12T14:50:30Z</time>
      </trkpt>
      <trkpt lat="48.24846" lon="-3.43031">
        <ele>146.8</ele>
        <time>2022-06-12T14:50:31Z</time>
      </trkpt>
      <trkpt lat="48.24846" lon="-3.43031">
        <ele>146.8</ele>
        <time>2022-06-12T14:50:32Z</time>
      </trkpt>
      <trkpt lat="48.24846" lon="-3.43031">
        <ele>146.8</ele>
        <time>2022-06-12T14:50:33Z</time>
      </trkpt>
      <trkpt lat="48.24846" lon="-3.43031">
        <ele>146.8</ele>
        <time>2022-06-12T14:50:34Z</time>
      </trkpt>
      <trkpt lat="48.24846" lon="-3.43031">
        <ele>146.8</ele>
        <time>2022-06-12T14:50:35Z</time>
      </trkpt>
      <trkpt lat="48.24846" lon="-3.43031">
        <ele>146.8</ele>
        <time>2022-06-12T14:50:36Z</time>
      </trkpt>
      <trkpt lat="48.24846" lon="-3.43031">
        <ele>146.8</ele>
        <time>2022-06-12T14:50:37Z</time>
      </trkpt>
      <trkpt lat="48.24846" lon="-3.43031">
        <ele>146.8</ele>
        <time>2022-06-12T14:50:38Z</time>
      </trkpt>
      <trkpt lat="48.24846" lon="-3.43031">
        <ele>146.8</ele>
        <time>2022-06-12T14:50:39Z</time>
      </trkpt>
      <trkpt lat="48.24846" lon="-3.43031">
        <ele>146.8</ele>
        <time>2022-06-12T14:50:40Z</time>
      </trkpt>
      <trkpt lat="48.24846" lon="-3.43031">
        <ele>146.8</ele>
        <time>2022-06-12T14:50:41Z</time>
      </trkpt>
      <trkpt lat="48.24846" lon="-3.43031">
        <ele>146.8</ele>
        <time>2022-06-12T14:50:42Z</time>
      </trkpt>
      <trkpt lat="48.24846" lon="-3.43031">
        <ele>146.8</ele>
        <time>2022-06-12T14:50:43Z</time>
      </trkpt>
      <trkpt lat="48.24846" lon="-3.43031">
        <ele>146.8</ele>
        <time>2022-06-12T14:50:44Z</time>
      </trkpt>
      <trkpt lat="48.24846" lon="-3.43031">
        <ele>146.8</ele>
        <time>2022-06-12T14:50:45Z</time>
      </trkpt>
      <trkpt lat="48.24846" lon="-3.43031">
        <ele>146.8</ele>
        <time>2022-06-12T14:50:46Z</time>
      </trkpt>
      <trkpt lat="48.24846" lon="-3.43031">
        <ele>146.8</ele>
        <time>2022-06-12T14:50:47Z</time>
      </trkpt>
      <trkpt lat="48.24846" lon="-3.43031">
        <ele>146.8</ele>
        <time>2022-06-12T14:50:48Z</time>
      </trkpt>
      <trkpt lat="48.24846" lon="-3.43031">
        <ele>146.8</ele>
        <time>2022-06-12T14:50:49Z</time>
      </trkpt>
      <trkpt lat="48.24846" lon="-3.43031">
        <ele>146.8</ele>
        <time>2022-06-12T14:50:50Z</time>
      </trkpt>
      <trkpt lat="48.24846" lon="-3.43031">
        <ele>146.8</ele>
        <time>2022-06-12T14:50:51Z</time>
      </trkpt>
      <trkpt lat="48.24846" lon="-3.43031">
        <ele>146.8</ele>
        <time>2022-06-12T14:50:52Z</time>
      </trkpt>
      <trkpt lat="48.24846" lon="-3.43031">
        <ele>146.8</ele>
        <time>2022-06-12T14:50:53Z</time>
      </trkpt>
      <trkpt lat="48.24846" lon="-3.43031">
        <ele>146.8</ele>
        <time>2022-06-12T14:50:54Z</time>
      </trkpt>
      <trkpt lat="48.24846" lon="-3.43031">
        <ele>146.8</ele>
        <time>2022-06-12T14:50:55Z</time>
      </trkpt>
      <trkpt lat="48.24846" lon="-3.43031">
        <ele>146.8</ele>
        <time>2022-06-12T14:50:56Z</time>
      </trkpt>
      <trkpt lat="48.24846" lon="-3.43031">
        <ele>146.8</ele>
        <time>2022-06-12T14:50:57Z</time>
      </trkpt>
      <trkpt lat="48.24846" lon="-3.43031">
        <ele>146.8</ele>
        <time>2022-06-12T14:50:58Z</time>
      </trkpt>
      <trkpt lat="48.24846" lon="-3.43031">
        <ele>146.8</ele>
        <time>2022-06-12T14:50:59Z</time>
      </trkpt>
      <trkpt lat="48.24846" lon="-3.43031">
        <ele>146.8</ele>
        <time>2022-06-12T14:51:00Z</time>
      </trkpt>
      <trkpt lat="48.24846" lon="-3.43031">
        <ele>146.8</ele>
        <time>2022-06-12T14:51:01Z</time>
      </trkpt>
      <trkpt lat="48.24846" lon="-3.43031">
        <ele>146.8</ele>
        <time>2022-06-12T14:51:02Z</time>
      </trkpt>
      <trkpt lat="48.24846" lon="-3.43031">
        <ele>146.8</ele>
        <time>2022-06-12T14:51:03Z</time>
      </trkpt>
      <trkpt lat="48.24846" lon="-3.43031">
        <ele>146.8</ele>
        <time>2022-06-12T14:51:04Z</time>
      </trkpt>
      <trkpt lat="48.24846" lon="-3.43031">
        <ele>146.8</ele>
        <time>2022-06-12T14:51:05Z</time>
      </trkpt>
      <trkpt lat="48.24846" lon="-3.43031">
        <ele>146.8</ele>
        <time>2022-06-12T14:51:06Z</time>
      </trkpt>
      <trkpt lat="48.24846" lon="-3.43031">
        <ele>146.8</ele>
        <time>2022-06-12T14:51:07Z</time>
      </trkpt>
      <trkpt lat="48.24846" lon="-3.43031">
        <ele>146.8</ele>
        <time>2022-06-12T14:51:08Z</time>
      </trkpt>
      <trkpt lat="48.24846" lon="-3.43031">
        <ele>146.8</ele>
        <time>2022-06-12T14:51:09Z</time>
      </trkpt>
      <trkpt lat="48.24846" lon="-3.43031">
        <ele>146.8</ele>
        <time>2022-06-12T14:51:10Z</time>
      </trkpt>
      <trkpt lat="48.24846" lon="-3.43031">
        <ele>146.8</ele>
        <time>2022-06-12T14:51:11Z</time>
      </trkpt>
      <trkpt lat="48.24846" lon="-3.43031">
        <ele>146.8</ele>
        <time>2022-06-12T14:51:12Z</time>
      </trkpt>
      <trkpt lat="48.24846" lon="-3.43031">
        <ele>146.8</ele>
        <time>2022-06-12T14:51:13Z</time>
      </trkpt>
      <trkpt lat="48.24846" lon="-3.43031">
        <ele>146.8</ele>
        <time>2022-06-12T14:51:14Z</time>
      </trkpt>
      <trkpt lat="48.24846" lon="-3.43031">
        <ele>146.8</ele>
        <time>2022-06-12T14:51:15Z</time>
      </trkpt>
      <trkpt lat="48.24846" lon="-3.43031">
        <ele>146.8</ele>
        <time>2022-06-12T14:51:16Z</time>
      </trkpt>
      <trkpt lat="48.24846" lon="-3.43031">
        <ele>146.8</ele>
        <time>2022-06-12T14:51:17Z</time>
      </trkpt>
      <trkpt lat="48.24846" lon="-3.43031">
        <ele>146.8</ele>
        <time>2022-06-12T14:51:18Z</time>
      </trkpt>
      <trkpt lat="48.24846" lon="-3.43031">
        <ele>146.8</ele>
        <time>2022-06-12T14:51:19Z</time>
      </trkpt>
      <trkpt lat="48.24846" lon="-3.43031">
        <ele>146.8</ele>
        <time>2022-06-12T14:51:20Z</time>
      </trkpt>
      <trkpt lat="48.24846" lon="-3.43031">
        <ele>146.8</ele>
        <time>2022-06-12T14:51:21Z</time>
      </trkpt>
      <trkpt lat="48.24846" lon="-3.43031">
        <ele>146.8</ele>
        <time>2022-06-12T14:51:22Z</time>
      </trkpt>
      <trkpt lat="48.24846" lon="-3.43031">
        <ele>146.8</ele>
        <time>2022-06-12T14:51:23Z</time>
      </trkpt>
      <trkpt lat="48.24846" lon="-3.43031">
        <ele>146.8</ele>
        <time>2022-06-12T14:51:24Z</time>
      </trkpt>
      <trkpt lat="48.24846" lon="-3.43031">
        <ele>146.8</ele>
        <time>2022-06-12T14:51:25Z</time>
      </trkpt>
      <trkpt lat="48.24846" lon="-3.43031">
        <ele>146.8</ele>
        <time>2022-06-12T14:51:26Z</time>
      </trkpt>
      <trkpt lat="48.24846" lon="-3.43031">
        <ele>146.8</ele>
        <time>2022-06-12T14:51:27Z</time>
      </trkpt>
      <trkpt lat="48.24846" lon="-3.43031">
        <ele>146.8</ele>
        <time>2022-06-12T14:51:28Z</time>
      </trkpt>
      <trkpt lat="48.24846" lon="-3.43031">
        <ele>146.8</ele>
        <time>2022-06-12T14:51:29Z</time>
      </trkpt>
      <trkpt lat="48.24846" lon="-3.43031">
        <ele>146.8</ele>
        <time>2022-06-12T14:51:30Z</time>
      </trkpt>
      <trkpt lat="48.24846" lon="-3.43031">
        <ele>146.8</ele>
        <time>2022-06-12T14:51:31Z</time>
      </trkpt>
      <trkpt lat="48.24846" lon="-3.43031">
        <ele>146.8</ele>
        <time>2022-06-12T14:51:32Z</time>
      </trkpt>
      <trkpt lat="48.24846" lon="-3.43031">
        <ele>146.8</ele>
        <time>2022-06-12T14:51:33Z</time>
      </trkpt>
      <trkpt lat="48.24846" lon="-3.43031">
        <ele>146.8</ele>
        <time>2022-06-12T14:51:34Z</time>
      </trkpt>
      <trkpt lat="48.24846" lon="-3.43031">
        <ele>146.8</ele>
        <time>2022-06-12T14:51:35Z</time>
      </trkpt>
      <trkpt lat="48.24846" lon="-3.43031">
        <ele>146.8</ele>
        <time>2022-06-12T14:51:36Z</time>
      </trkpt>
      <trkpt lat="48.24846" lon="-3.43031">
        <ele>146.8</ele>
        <time>2022-06-12T14:51:37Z</time>
      </trkpt>
      <trkpt lat="48.24846" lon="-3.43031">
        <ele>146.8</ele>
        <time>2022-06-12T14:51:38Z</time>
      </trkpt>
      <trkpt lat="48.24846" lon="-3.43031">
        <ele>146.8</ele>
        <time>2022-06-12T14:51:39Z</time>
      </trkpt>
      <trkpt lat="48.24846" lon="-3.43031">
        <ele>146.8</ele>
        <time>2022-06-12T14:51:40Z</time>
      </trkpt>
      <trkpt lat="48.24846" lon="-3.43031">
        <ele>146.8</ele>
        <time>2022-06-12T14:51:41Z</time>
      </trkpt>
      <trkpt lat="48.24846" lon="-3.43031">
        <ele>146.8</ele>
        <time>2022-06-12T14:51:42Z</time>
      </trkpt>
      <trkpt lat="48.24846" lon="-3.43031">
        <ele>146.8</ele>
        <time>2022-06-12T14:51:43Z</time>
      </trkpt>
      <trkpt lat="48.24846" lon="-3.43031">
        <ele>146.8</ele>
        <time>2022-06-12T14:51:44Z</time>
      </trkpt>
      <trkpt lat="48.24846" lon="-3.43031">
        <ele>146.8</ele>
        <time>2022-06-12T14:51:45Z</time>
      </trkpt>
      <trkpt lat="48.24846" lon="-3.43031">
        <ele>146.8</ele>
        <time>2022-06-12T14:51:46Z</time>
      </trkpt>
      <trkpt lat="48.24846" lon="-3.43031">
        <ele>146.8</ele>
        <time>2022-06-12T14:51:47Z</time>
      </trkpt>
      <trkpt lat="48.24846" lon="-3.43031">
        <ele>146.8</ele>
        <time>2022-06-12T14:51:48Z</time>
      </trkpt>
      <trkpt lat="48.24846" lon="-3.43031">
        <ele>146.8</ele>
        <time>2022-06-12T14:51:49Z</time>
      </trkpt>
      <trkpt lat="48.24846" lon="-3.43031">
        <ele>146.8</ele>
        <time>2022-06-12T14:51:50Z</time>
      </trkpt>
      <trkpt lat="48.24846" lon="-3.43031">
        <ele>146.8</ele>
        <time>2022-06-12T14:51:51Z</time>
      </trkpt>
      <trkpt lat="48.24846" lon="-3.43031">
        <ele>146.8</ele>
        <time>2022-06-12T14:51:52Z</time>
      </trkpt>
      <trkpt lat="48.24846" lon="-3.43031">
        <ele>146.8</ele>
        <time>2022-06-12T14:51:53Z</time>
      </trkpt>
      <trkpt lat="48.24846" lon="-3.43031">
        <ele>146.8</ele>
        <time>2022-06-12T14:51:54Z</time>
      </trkpt>
      <trkpt lat="48.24846" lon="-3.43031">
        <ele>146.8</ele>
        <time>2022-06-12T14:51:55Z</time>
      </trkpt>
      <trkpt lat="48.24846" lon="-3.43031">
        <ele>146.8</ele>
        <time>2022-06-12T14:51:56Z</time>
      </trkpt>
      <trkpt lat="48.24846" lon="-3.43031">
        <ele>146.8</ele>
        <time>2022-06-12T14:51:57Z</time>
      </trkpt>
      <trkpt lat="48.24846" lon="-3.43031">
        <ele>146.8</ele>
        <time>2022-06-12T14:51:58Z</time>
      </trkpt>
      <trkpt lat="48.24846" lon="-3.43031">
        <ele>146.8</ele>
        <time>2022-06-12T14:51:59Z</time>
      </trkpt>
      <trkpt lat="48.24846" lon="-3.43031">
        <ele>146.8</ele>
        <time>2022-06-12T14:52:00Z</time>
      </trkpt>
      <trkpt lat="48.24846" lon="-3.43031">
        <ele>146.8</ele>
        <time>2022-06-12T14:52:01Z</time>
      </trkpt>
      <trkpt lat="48.24846" lon="-3.43031">
        <ele>146.8</ele>
        <time>2022-06-12T14:52:02Z</time>
      </trkpt>
      <trkpt lat="48.24846" lon="-3.43031">
        <ele>146.8</ele>
        <time>2022-06-12T14:52:03Z</time>
      </trkpt>
      <trkpt lat="48.24846" lon="-3.43031">
        <ele>146.8</ele>
        <time>2022-06-12T14:52:04Z</time>
      </trkpt>
      <trkpt lat="48.24846" lon="-3.43031">
        <ele>146.8</ele>
        <time>2022-06-12T14:52:05Z</time>
      </trkpt>
      <trkpt lat="48.24846" lon="-3.43031">
        <ele>146.8</ele>
        <time>2022-06-12T14:52:06Z</time>
      </trkpt>
      <trkpt lat="48.24846" lon="-3.43031">
        <ele>146.8</ele>
        <time>2022-06-12T14:52:07Z</time>
      </trkpt>
      <trkpt lat="48.24846" lon="-3.43031">
        <ele>146.8</ele>
        <time>2022-06-12T14:52:08Z</time>
      </trkpt>
      <trkpt lat="48.24846" lon="-3.43031">
        <ele>146.8</ele>
        <time>2022-06-12T14:52:09Z</time>
      </trkpt>
      <trkpt lat="48.24846" lon="-3.43031">
        <ele>146.8</ele>
        <time>2022-06-12T14:52:10Z</time>
      </trkpt>
      <trkpt lat="48.24847" lon="-3.43031">
        <ele>146.8</ele>
        <time>2022-06-12T14:52:11Z</time>
      </trkpt>
      <trkpt lat="48.24847" lon="-3.43031">
        <ele>146.8</ele>
        <time>2022-06-12T14:52:12Z</time>
      </trkpt>
      <trkpt lat="48.24847" lon="-3.43031">
        <ele>146.8</ele>
        <time>2022-06-12T14:52:13Z</time>
      </trkpt>
      <trkpt lat="48.24847" lon="-3.43031">
        <ele>146.8</ele>
        <time>2022-06-12T14:52:14Z</time>
      </trkpt>
      <trkpt lat="48.24847" lon="-3.43031">
        <ele>146.8</ele>
        <time>2022-06-12T14:52:15Z</time>
      </trkpt>
      <trkpt lat="48.24847" lon="-3.43031">
        <ele>146.8</ele>
        <time>2022-06-12T14:52:16Z</time>
      </trkpt>
      <trkpt lat="48.24847" lon="-3.43031">
        <ele>146.8</ele>
        <time>2022-06-12T14:52:17Z</time>
      </trkpt>
      <trkpt lat="48.24847" lon="-3.43031">
        <ele>146.8</ele>
        <time>2022-06-12T14:52:18Z</time>
      </trkpt>
      <trkpt lat="48.24847" lon="-3.43031">
        <ele>146.8</ele>
        <time>2022-06-12T14:52:19Z</time>
      </trkpt>
      <trkpt lat="48.24847" lon="-3.43031">
        <ele>146.8</ele>
        <time>2022-06-12T14:52:20Z</time>
      </trkpt>
      <trkpt lat="48.24847" lon="-3.43031">
        <ele>146.8</ele>
        <time>2022-06-12T14:52:21Z</time>
      </trkpt>
      <trkpt lat="48.24847" lon="-3.43031">
        <ele>146.8</ele>
        <time>2022-06-12T14:52:22Z</time>
      </trkpt>
      <trkpt lat="48.24847" lon="-3.43031">
        <ele>146.8</ele>
        <time>2022-06-12T14:52:23Z</time>
      </trkpt>
      <trkpt lat="48.24847" lon="-3.43031">
        <ele>146.8</ele>
        <time>2022-06-12T14:52:24Z</time>
      </trkpt>
      <trkpt lat="48.24847" lon="-3.43031">
        <ele>146.8</ele>
        <time>2022-06-12T14:52:25Z</time>
      </trkpt>
      <trkpt lat="48.24847" lon="-3.43031">
        <ele>146.8</ele>
        <time>2022-06-12T14:52:26Z</time>
      </trkpt>
      <trkpt lat="48.24847" lon="-3.43031">
        <ele>146.8</ele>
        <time>2022-06-12T14:52:27Z</time>
      </trkpt>
      <trkpt lat="48.24847" lon="-3.43031">
        <ele>146.8</ele>
        <time>2022-06-12T14:52:28Z</time>
      </trkpt>
      <trkpt lat="48.24847" lon="-3.43031">
        <ele>146.8</ele>
        <time>2022-06-12T14:52:29Z</time>
      </trkpt>
      <trkpt lat="48.24847" lon="-3.43031">
        <ele>146.8</ele>
        <time>2022-06-12T14:52:30Z</time>
      </trkpt>
      <trkpt lat="48.24847" lon="-3.43031">
        <ele>146.8</ele>
        <time>2022-06-12T14:52:31Z</time>
      </trkpt>
      <trkpt lat="48.24847" lon="-3.43031">
        <ele>146.8</ele>
        <time>2022-06-12T14:52:32Z</time>
      </trkpt>
      <trkpt lat="48.24847" lon="-3.43031">
        <ele>146.8</ele>
        <time>2022-06-12T14:52:33Z</time>
      </trkpt>
      <trkpt lat="48.24847" lon="-3.43031">
        <ele>146.8</ele>
        <time>2022-06-12T14:52:34Z</time>
      </trkpt>
      <trkpt lat="48.24847" lon="-3.43031">
        <ele>146.8</ele>
        <time>2022-06-12T14:52:35Z</time>
      </trkpt>
      <trkpt lat="48.24847" lon="-3.43031">
        <ele>146.8</ele>
        <time>2022-06-12T14:52:36Z</time>
      </trkpt>
      <trkpt lat="48.24847" lon="-3.43031">
        <ele>146.8</ele>
        <time>2022-06-12T14:52:37Z</time>
      </trkpt>
      <trkpt lat="48.24847" lon="-3.43031">
        <ele>146.8</ele>
        <time>2022-06-12T14:52:38Z</time>
      </trkpt>
      <trkpt lat="48.24847" lon="-3.43031">
        <ele>146.8</ele>
        <time>2022-06-12T14:52:39Z</time>
      </trkpt>
      <trkpt lat="48.24847" lon="-3.4303">
        <ele>146.8</ele>
        <time>2022-06-12T14:52:40Z</time>
      </trkpt>
      <trkpt lat="48.24847" lon="-3.4303">
        <ele>146.8</ele>
        <time>2022-06-12T14:52:41Z</time>
      </trkpt>
      <trkpt lat="48.24847" lon="-3.4303">
        <ele>146.8</ele>
        <time>2022-06-12T14:52:42Z</time>
      </trkpt>
      <trkpt lat="48.24847" lon="-3.4303">
        <ele>146.8</ele>
        <time>2022-06-12T14:52:43Z</time>
      </trkpt>
      <trkpt lat="48.24847" lon="-3.4303">
        <ele>146.8</ele>
        <time>2022-06-12T14:52:44Z</time>
      </trkpt>
      <trkpt lat="48.24847" lon="-3.4303">
        <ele>146.8</ele>
        <time>2022-06-12T14:52:45Z</time>
      </trkpt>
      <trkpt lat="48.24847" lon="-3.4303">
        <ele>146.8</ele>
        <time>2022-06-12T14:52:46Z</time>
      </trkpt>
      <trkpt lat="48.24847" lon="-3.4303">
        <ele>146.8</ele>
        <time>2022-06-12T14:52:47Z</time>
      </trkpt>
      <trkpt lat="48.24847" lon="-3.4303">
        <ele>146.8</ele>
        <time>2022-06-12T14:52:48Z</time>
      </trkpt>
      <trkpt lat="48.24847" lon="-3.4303">
        <ele>146.8</ele>
        <time>2022-06-12T14:52:49Z</time>
      </trkpt>
      <trkpt lat="48.24847" lon="-3.4303">
        <ele>146.8</ele>
        <time>2022-06-12T14:52:50Z</time>
      </trkpt>
      <trkpt lat="48.24847" lon="-3.4303">
        <ele>146.8</ele>
        <time>2022-06-12T14:52:51Z</time>
      </trkpt>
      <trkpt lat="48.24847" lon="-3.4303">
        <ele>146.8</ele>
        <time>2022-06-12T14:52:52Z</time>
      </trkpt>
      <trkpt lat="48.24847" lon="-3.4303">
        <ele>146.8</ele>
        <time>2022-06-12T14:52:53Z</time>
      </trkpt>
      <trkpt lat="48.24847" lon="-3.4303">
        <ele>146.8</ele>
        <time>2022-06-12T14:52:54Z</time>
      </trkpt>
      <trkpt lat="48.24847" lon="-3.4303">
        <ele>146.8</ele>
        <time>2022-06-12T14:52:55Z</time>
      </trkpt>
      <trkpt lat="48.24847" lon="-3.4303">
        <ele>146.8</ele>
        <time>2022-06-12T14:52:56Z</time>
      </trkpt>
      <trkpt lat="48.24847" lon="-3.4303">
        <ele>146.8</ele>
        <time>2022-06-12T14:52:57Z</time>
      </trkpt>
      <trkpt lat="48.24847" lon="-3.4303">
        <ele>146.8</ele>
        <time>2022-06-12T14:52:58Z</time>
      </trkpt>
      <trkpt lat="48.24847" lon="-3.4303">
        <ele>146.8</ele>
        <time>2022-06-12T14:52:59Z</time>
      </trkpt>
      <trkpt lat="48.24847" lon="-3.4303">
        <ele>146.8</ele>
        <time>2022-06-12T14:53:00Z</time>
      </trkpt>
      <trkpt lat="48.24847" lon="-3.4303">
        <ele>146.8</ele>
        <time>2022-06-12T14:53:01Z</time>
      </trkpt>
      <trkpt lat="48.24847" lon="-3.4303">
        <ele>146.8</ele>
        <time>2022-06-12T14:53:02Z</time>
      </trkpt>
      <trkpt lat="48.24847" lon="-3.4303">
        <ele>146.8</ele>
        <time>2022-06-12T14:53:03Z</time>
      </trkpt>
      <trkpt lat="48.24847" lon="-3.4303">
        <ele>146.8</ele>
        <time>2022-06-12T14:53:04Z</time>
      </trkpt>
      <trkpt lat="48.24847" lon="-3.4303">
        <ele>146.8</ele>
        <time>2022-06-12T14:53:05Z</time>
      </trkpt>
      <trkpt lat="48.24847" lon="-3.4303">
        <ele>146.8</ele>
        <time>2022-06-12T14:53:06Z</time>
      </trkpt>
      <trkpt lat="48.24847" lon="-3.4303">
        <ele>146.8</ele>
        <time>2022-06-12T14:53:07Z</time>
      </trkpt>
      <trkpt lat="48.24847" lon="-3.4303">
        <ele>146.8</ele>
        <time>2022-06-12T14:53:08Z</time>
      </trkpt>
      <trkpt lat="48.24847" lon="-3.4303">
        <ele>146.8</ele>
        <time>2022-06-12T14:53:09Z</time>
      </trkpt>
      <trkpt lat="48.24847" lon="-3.4303">
        <ele>146.8</ele>
        <time>2022-06-12T14:53:10Z</time>
      </trkpt>
      <trkpt lat="48.24847" lon="-3.4303">
        <ele>146.8</ele>
        <time>2022-06-12T14:53:11Z</time>
      </trkpt>
      <trkpt lat="48.24847" lon="-3.4303">
        <ele>146.8</ele>
        <time>2022-06-12T14:53:12Z</time>
      </trkpt>
      <trkpt lat="48.24847" lon="-3.4303">
        <ele>146.8</ele>
        <time>2022-06-12T14:53:13Z</time>
      </trkpt>
      <trkpt lat="48.24847" lon="-3.4303">
        <ele>146.8</ele>
        <time>2022-06-12T14:53:14Z</time>
      </trkpt>
      <trkpt lat="48.24847" lon="-3.4303">
        <ele>146.8</ele>
        <time>2022-06-12T14:53:15Z</time>
      </trkpt>
      <trkpt lat="48.24847" lon="-3.4303">
        <ele>146.8</ele>
        <time>2022-06-12T14:53:16Z</time>
      </trkpt>
      <trkpt lat="48.24847" lon="-3.4303">
        <ele>146.8</ele>
        <time>2022-06-12T14:53:17Z</time>
      </trkpt>
      <trkpt lat="48.24847" lon="-3.4303">
        <ele>146.8</ele>
        <time>2022-06-12T14:53:18Z</time>
      </trkpt>
      <trkpt lat="48.24847" lon="-3.4303">
        <ele>146.8</ele>
        <time>2022-06-12T14:53:19Z</time>
      </trkpt>
      <trkpt lat="48.24847" lon="-3.4303">
        <ele>146.8</ele>
        <time>2022-06-12T14:53:20Z</time>
      </trkpt>
      <trkpt lat="48.24847" lon="-3.4303">
        <ele>146.8</ele>
        <time>2022-06-12T14:53:21Z</time>
      </trkpt>
      <trkpt lat="48.24847" lon="-3.4303">
        <ele>146.8</ele>
        <time>2022-06-12T14:53:22Z</time>
      </trkpt>
      <trkpt lat="48.24847" lon="-3.4303">
        <ele>146.8</ele>
        <time>2022-06-12T14:53:23Z</time>
      </trkpt>
      <trkpt lat="48.24847" lon="-3.4303">
        <ele>146.8</ele>
        <time>2022-06-12T14:53:24Z</time>
      </trkpt>
      <trkpt lat="48.24847" lon="-3.4303">
        <ele>146.8</ele>
        <time>2022-06-12T14:53:25Z</time>
      </trkpt>
      <trkpt lat="48.24847" lon="-3.4303">
        <ele>146.8</ele>
        <time>2022-06-12T14:53:26Z</time>
      </trkpt>
      <trkpt lat="48.24847" lon="-3.4303">
        <ele>146.8</ele>
        <time>2022-06-12T14:53:27Z</time>
      </trkpt>
      <trkpt lat="48.24847" lon="-3.4303">
        <ele>146.8</ele>
        <time>2022-06-12T14:53:28Z</time>
      </trkpt>
      <trkpt lat="48.24847" lon="-3.4303">
        <ele>146.8</ele>
        <time>2022-06-12T14:53:29Z</time>
      </trkpt>
      <trkpt lat="48.24847" lon="-3.4303">
        <ele>146.8</ele>
        <time>2022-06-12T14:53:30Z</time>
      </trkpt>
      <trkpt lat="48.24847" lon="-3.4303">
        <ele>146.8</ele>
        <time>2022-06-12T14:53:31Z</time>
      </trkpt>
      <trkpt lat="48.24847" lon="-3.4303">
        <ele>146.8</ele>
        <time>2022-06-12T14:53:32Z</time>
      </trkpt>
      <trkpt lat="48.24847" lon="-3.4303">
        <ele>146.8</ele>
        <time>2022-06-12T14:53:33Z</time>
      </trkpt>
      <trkpt lat="48.24847" lon="-3.4303">
        <ele>146.8</ele>
        <time>2022-06-12T14:53:34Z</time>
      </trkpt>
      <trkpt lat="48.24847" lon="-3.4303">
        <ele>146.8</ele>
        <time>2022-06-12T14:53:35Z</time>
      </trkpt>
      <trkpt lat="48.24847" lon="-3.4303">
        <ele>146.8</ele>
        <time>2022-06-12T14:53:36Z</time>
      </trkpt>
      <trkpt lat="48.24847" lon="-3.4303">
        <ele>146.8</ele>
        <time>2022-06-12T14:53:37Z</time>
      </trkpt>
      <trkpt lat="48.24847" lon="-3.4303">
        <ele>146.8</ele>
        <time>2022-06-12T14:53:38Z</time>
      </trkpt>
      <trkpt lat="48.24847" lon="-3.4303">
        <ele>146.8</ele>
        <time>2022-06-12T14:53:39Z</time>
      </trkpt>
      <trkpt lat="48.24847" lon="-3.4303">
        <ele>146.8</ele>
        <time>2022-06-12T14:53:40Z</time>
      </trkpt>
      <trkpt lat="48.24847" lon="-3.4303">
        <ele>146.8</ele>
        <time>2022-06-12T14:53:41Z</time>
      </trkpt>
      <trkpt lat="48.24847" lon="-3.4303">
        <ele>146.8</ele>
        <time>2022-06-12T14:53:42Z</time>
      </trkpt>
      <trkpt lat="48.24847" lon="-3.4303">
        <ele>146.8</ele>
        <time>2022-06-12T14:53:43Z</time>
      </trkpt>
      <trkpt lat="48.24847" lon="-3.4303">
        <ele>146.8</ele>
        <time>2022-06-12T14:53:44Z</time>
      </trkpt>
      <trkpt lat="48.24847" lon="-3.4303">
        <ele>146.8</ele>
        <time>2022-06-12T14:53:45Z</time>
      </trkpt>
      <trkpt lat="48.24847" lon="-3.4303">
        <ele>146.8</ele>
        <time>2022-06-12T14:53:46Z</time>
      </trkpt>
      <trkpt lat="48.24847" lon="-3.4303">
        <ele>146.8</ele>
        <time>2022-06-12T14:53:47Z</time>
      </trkpt>
      <trkpt lat="48.24847" lon="-3.4303">
        <ele>146.8</ele>
        <time>2022-06-12T14:53:48Z</time>
      </trkpt>
      <trkpt lat="48.24847" lon="-3.4303">
        <ele>146.8</ele>
        <time>2022-06-12T14:53:49Z</time>
      </trkpt>
      <trkpt lat="48.24847" lon="-3.4303">
        <ele>146.8</ele>
        <time>2022-06-12T14:53:50Z</time>
      </trkpt>
      <trkpt lat="48.24847" lon="-3.4303">
        <ele>146.8</ele>
        <time>2022-06-12T14:53:51Z</time>
      </trkpt>
      <trkpt lat="48.24847" lon="-3.4303">
        <ele>146.8</ele>
        <time>2022-06-12T14:53:52Z</time>
      </trkpt>
      <trkpt lat="48.24847" lon="-3.4303">
        <ele>146.8</ele>
        <time>2022-06-12T14:53:53Z</time>
      </trkpt>
      <trkpt lat="48.24847" lon="-3.4303">
        <ele>146.8</ele>
        <time>2022-06-12T14:53:54Z</time>
      </trkpt>
      <trkpt lat="48.24847" lon="-3.4303">
        <ele>146.8</ele>
        <time>2022-06-12T14:53:55Z</time>
      </trkpt>
      <trkpt lat="48.24847" lon="-3.4303">
        <ele>146.8</ele>
        <time>2022-06-12T14:53:56Z</time>
      </trkpt>
      <trkpt lat="48.24847" lon="-3.4303">
        <ele>146.8</ele>
        <time>2022-06-12T14:53:57Z</time>
      </trkpt>
      <trkpt lat="48.24847" lon="-3.4303">
        <ele>146.8</ele>
        <time>2022-06-12T14:53:58Z</time>
      </trkpt>
      <trkpt lat="48.24847" lon="-3.4303">
        <ele>146.8</ele>
        <time>2022-06-12T14:53:59Z</time>
      </trkpt>
      <trkpt lat="48.24847" lon="-3.4303">
        <ele>146.8</ele>
        <time>2022-06-12T14:54:00Z</time>
      </trkpt>
      <trkpt lat="48.24847" lon="-3.4303">
        <ele>146.8</ele>
        <time>2022-06-12T14:54:01Z</time>
      </trkpt>
      <trkpt lat="48.24847" lon="-3.4303">
        <ele>146.8</ele>
        <time>2022-06-12T14:54:02Z</time>
      </trkpt>
      <trkpt lat="48.24847" lon="-3.4303">
        <ele>146.8</ele>
        <time>2022-06-12T14:54:03Z</time>
      </trkpt>
      <trkpt lat="48.24848" lon="-3.4303">
        <ele>146.8</ele>
        <time>2022-06-12T14:54:04Z</time>
      </trkpt>
      <trkpt lat="48.24848" lon="-3.4303">
        <ele>146.8</ele>
        <time>2022-06-12T14:54:05Z</time>
      </trkpt>
      <trkpt lat="48.24848" lon="-3.4303">
        <ele>146.8</ele>
        <time>2022-06-12T14:54:06Z</time>
      </trkpt>
      <trkpt lat="48.24848" lon="-3.4303">
        <ele>146.8</ele>
        <time>2022-06-12T14:54:07Z</time>
      </trkpt>
      <trkpt lat="48.24848" lon="-3.4303">
        <ele>146.8</ele>
        <time>2022-06-12T14:54:08Z</time>
      </trkpt>
      <trkpt lat="48.24848" lon="-3.4303">
        <ele>146.8</ele>
        <time>2022-06-12T14:54:09Z</time>
      </trkpt>
      <trkpt lat="48.24848" lon="-3.4303">
        <ele>146.8</ele>
        <time>2022-06-12T14:54:10Z</time>
      </trkpt>
      <trkpt lat="48.24848" lon="-3.4303">
        <ele>146.8</ele>
        <time>2022-06-12T14:54:11Z</time>
      </trkpt>
      <trkpt lat="48.24848" lon="-3.4303">
        <ele>146.8</ele>
        <time>2022-06-12T14:54:12Z</time>
      </trkpt>
      <trkpt lat="48.24848" lon="-3.4303">
        <ele>146.8</ele>
        <time>2022-06-12T14:54:13Z</time>
      </trkpt>
      <trkpt lat="48.24848" lon="-3.4303">
        <ele>146.8</ele>
        <time>2022-06-12T14:54:14Z</time>
      </trkpt>
      <trkpt lat="48.24848" lon="-3.4303">
        <ele>146.8</ele>
        <time>2022-06-12T14:54:15Z</time>
      </trkpt>
      <trkpt lat="48.24848" lon="-3.4303">
        <ele>146.8</ele>
        <time>2022-06-12T14:54:16Z</time>
      </trkpt>
      <trkpt lat="48.24848" lon="-3.4303">
        <ele>146.8</ele>
        <time>2022-06-12T14:54:17Z</time>
      </trkpt>
      <trkpt lat="48.24848" lon="-3.4303">
        <ele>146.8</ele>
        <time>2022-06-12T14:54:18Z</time>
      </trkpt>
      <trkpt lat="48.24848" lon="-3.4303">
        <ele>146.8</ele>
        <time>2022-06-12T14:54:19Z</time>
      </trkpt>
      <trkpt lat="48.24848" lon="-3.4303">
        <ele>146.8</ele>
        <time>2022-06-12T14:54:20Z</time>
      </trkpt>
      <trkpt lat="48.24848" lon="-3.4303">
        <ele>146.8</ele>
        <time>2022-06-12T14:54:21Z</time>
      </trkpt>
      <trkpt lat="48.24848" lon="-3.4303">
        <ele>146.8</ele>
        <time>2022-06-12T14:54:22Z</time>
      </trkpt>
      <trkpt lat="48.24848" lon="-3.4303">
        <ele>146.8</ele>
        <time>2022-06-12T14:54:23Z</time>
      </trkpt>
      <trkpt lat="48.24848" lon="-3.4303">
        <ele>146.8</ele>
        <time>2022-06-12T14:54:24Z</time>
      </trkpt>
      <trkpt lat="48.24848" lon="-3.4303">
        <ele>146.8</ele>
        <time>2022-06-12T14:54:25Z</time>
      </trkpt>
      <trkpt lat="48.24848" lon="-3.4303">
        <ele>146.8</ele>
        <time>2022-06-12T14:54:26Z</time>
      </trkpt>
      <trkpt lat="48.24848" lon="-3.4303">
        <ele>146.8</ele>
        <time>2022-06-12T14:54:27Z</time>
      </trkpt>
      <trkpt lat="48.24848" lon="-3.4303">
        <ele>146.8</ele>
        <time>2022-06-12T14:54:28Z</time>
      </trkpt>
      <trkpt lat="48.24848" lon="-3.4303">
        <ele>146.8</ele>
        <time>2022-06-12T14:54:29Z</time>
      </trkpt>
      <trkpt lat="48.24848" lon="-3.4303">
        <ele>146.8</ele>
        <time>2022-06-12T14:54:30Z</time>
      </trkpt>
      <trkpt lat="48.24848" lon="-3.4303">
        <ele>146.8</ele>
        <time>2022-06-12T14:54:31Z</time>
      </trkpt>
      <trkpt lat="48.24848" lon="-3.4303">
        <ele>146.8</ele>
        <time>2022-06-12T14:54:32Z</time>
      </trkpt>
      <trkpt lat="48.24848" lon="-3.4303">
        <ele>146.8</ele>
        <time>2022-06-12T14:54:33Z</time>
      </trkpt>
      <trkpt lat="48.24848" lon="-3.4303">
        <ele>146.8</ele>
        <time>2022-06-12T14:54:34Z</time>
      </trkpt>
      <trkpt lat="48.24848" lon="-3.4303">
        <ele>146.8</ele>
        <time>2022-06-12T14:54:35Z</time>
      </trkpt>
      <trkpt lat="48.24848" lon="-3.4303">
        <ele>146.8</ele>
        <time>2022-06-12T14:54:36Z</time>
      </trkpt>
      <trkpt lat="48.24848" lon="-3.4303">
        <ele>146.8</ele>
        <time>2022-06-12T14:54:37Z</time>
      </trkpt>
      <trkpt lat="48.24848" lon="-3.4303">
        <ele>146.8</ele>
        <time>2022-06-12T14:54:38Z</time>
      </trkpt>
      <trkpt lat="48.24848" lon="-3.4303">
        <ele>146.8</ele>
        <time>2022-06-12T14:54:39Z</time>
      </trkpt>
      <trkpt lat="48.24848" lon="-3.4303">
        <ele>146.8</ele>
        <time>2022-06-12T14:54:40Z</time>
      </trkpt>
      <trkpt lat="48.24848" lon="-3.4303">
        <ele>146.8</ele>
        <time>2022-06-12T14:54:41Z</time>
      </trkpt>
      <trkpt lat="48.24848" lon="-3.4303">
        <ele>146.8</ele>
        <time>2022-06-12T14:54:42Z</time>
      </trkpt>
      <trkpt lat="48.24848" lon="-3.4303">
        <ele>146.8</ele>
        <time>2022-06-12T14:54:43Z</time>
      </trkpt>
      <trkpt lat="48.24848" lon="-3.4303">
        <ele>146.8</ele>
        <time>2022-06-12T14:54:44Z</time>
      </trkpt>
      <trkpt lat="48.24848" lon="-3.4303">
        <ele>146.8</ele>
        <time>2022-06-12T14:54:45Z</time>
      </trkpt>
      <trkpt lat="48.24848" lon="-3.4303">
        <ele>146.8</ele>
        <time>2022-06-12T14:54:46Z</time>
      </trkpt>
      <trkpt lat="48.24848" lon="-3.4303">
        <ele>146.8</ele>
        <time>2022-06-12T14:54:47Z</time>
      </trkpt>
      <trkpt lat="48.24848" lon="-3.4303">
        <ele>146.8</ele>
        <time>2022-06-12T14:54:48Z</time>
      </trkpt>
      <trkpt lat="48.24848" lon="-3.4303">
        <ele>146.8</ele>
        <time>2022-06-12T14:54:49Z</time>
      </trkpt>
      <trkpt lat="48.24848" lon="-3.4303">
        <ele>146.8</ele>
        <time>2022-06-12T14:54:50Z</time>
      </trkpt>
      <trkpt lat="48.24848" lon="-3.4303">
        <ele>146.8</ele>
        <time>2022-06-12T14:54:51Z</time>
      </trkpt>
      <trkpt lat="48.24848" lon="-3.4303">
        <ele>146.8</ele>
        <time>2022-06-12T14:54:52Z</time>
      </trkpt>
      <trkpt lat="48.24848" lon="-3.4303">
        <ele>146.8</ele>
        <time>2022-06-12T14:54:53Z</time>
      </trkpt>
      <trkpt lat="48.24848" lon="-3.4303">
        <ele>146.8</ele>
        <time>2022-06-12T14:54:54Z</time>
      </trkpt>
      <trkpt lat="48.24848" lon="-3.4303">
        <ele>146.8</ele>
        <time>2022-06-12T14:54:55Z</time>
      </trkpt>
      <trkpt lat="48.24848" lon="-3.4303">
        <ele>146.8</ele>
        <time>2022-06-12T14:54:56Z</time>
      </trkpt>
      <trkpt lat="48.24848" lon="-3.4303">
        <ele>146.8</ele>
        <time>2022-06-12T14:54:57Z</time>
      </trkpt>
      <trkpt lat="48.24848" lon="-3.4303">
        <ele>146.8</ele>
        <time>2022-06-12T14:54:58Z</time>
      </trkpt>
      <trkpt lat="48.24848" lon="-3.4303">
        <ele>146.8</ele>
        <time>2022-06-12T14:54:59Z</time>
      </trkpt>
      <trkpt lat="48.24848" lon="-3.4303">
        <ele>146.8</ele>
        <time>2022-06-12T14:55:00Z</time>
      </trkpt>
      <trkpt lat="48.24848" lon="-3.4303">
        <ele>146.8</ele>
        <time>2022-06-12T14:55:01Z</time>
      </trkpt>
      <trkpt lat="48.24848" lon="-3.4303">
        <ele>146.8</ele>
        <time>2022-06-12T14:55:02Z</time>
      </trkpt>
      <trkpt lat="48.24848" lon="-3.4303">
        <ele>146.8</ele>
        <time>2022-06-12T14:55:03Z</time>
      </trkpt>
      <trkpt lat="48.24848" lon="-3.4303">
        <ele>146.8</ele>
        <time>2022-06-12T14:55:05Z</time>
      </trkpt>
      <trkpt lat="48.24848" lon="-3.4303">
        <ele>146.8</ele>
        <time>2022-06-12T14:55:06Z</time>
      </trkpt>
      <trkpt lat="48.24848" lon="-3.4303">
        <ele>146.8</ele>
        <time>2022-06-12T14:55:07Z</time>
      </trkpt>
      <trkpt lat="48.24848" lon="-3.4303">
        <ele>146.8</ele>
        <time>2022-06-12T14:55:08Z</time>
      </trkpt>
      <trkpt lat="48.24848" lon="-3.4303">
        <ele>146.8</ele>
        <time>2022-06-12T14:55:09Z</time>
      </trkpt>
      <trkpt lat="48.24851" lon="-3.43028">
        <ele>146.8</ele>
        <time>2022-06-12T14:55:10Z</time>
      </trkpt>
      <trkpt lat="48.24852" lon="-3.43027">
        <ele>146.8</ele>
        <time>2022-06-12T14:55:11Z</time>
      </trkpt>
      <trkpt lat="48.24852" lon="-3.43027">
        <ele>146.8</ele>
        <time>2022-06-12T14:55:12Z</time>
      </trkpt>
      <trkpt lat="48.24853" lon="-3.43026">
        <ele>146.8</ele>
        <time>2022-06-12T14:55:13Z</time>
      </trkpt>
      <trkpt lat="48.24852" lon="-3.43027">
        <ele>146.8</ele>
        <time>2022-06-12T14:55:14Z</time>
      </trkpt>
      <trkpt lat="48.24852" lon="-3.43027">
        <ele>146.8</ele>
        <time>2022-06-12T14:55:15Z</time>
      </trkpt>
      <trkpt lat="48.24852" lon="-3.43027">
        <ele>146.8</ele>
        <time>2022-06-12T14:55:16Z</time>
      </trkpt>
      <trkpt lat="48.24852" lon="-3.43027">
        <ele>146.8</ele>
        <time>2022-06-12T14:55:17Z</time>
      </trkpt>
      <trkpt lat="48.24852" lon="-3.43027">
        <ele>146.8</ele>
        <time>2022-06-12T14:55:19Z</time>
      </trkpt>
      <trkpt lat="48.24852" lon="-3.43027">
        <ele>146.8</ele>
        <time>2022-06-12T14:55:20Z</time>
      </trkpt>
      <trkpt lat="48.24852" lon="-3.43027">
        <ele>146.8</ele>
        <time>2022-06-12T14:55:21Z</time>
      </trkpt>
      <trkpt lat="48.24852" lon="-3.43027">
        <ele>146.8</ele>
        <time>2022-06-12T14:55:22Z</time>
      </trkpt>
      <trkpt lat="48.24852" lon="-3.43027">
        <ele>146.8</ele>
        <time>2022-06-12T14:55:23Z</time>
      </trkpt>
      <trkpt lat="48.24852" lon="-3.43027">
        <ele>146.8</ele>
        <time>2022-06-12T14:55:24Z</time>
      </trkpt>
      <trkpt lat="48.24852" lon="-3.43027">
        <ele>146.8</ele>
        <time>2022-06-12T14:55:25Z</time>
      </trkpt>
      <trkpt lat="48.24852" lon="-3.43027">
        <ele>146.8</ele>
        <time>2022-06-12T14:55:26Z</time>
      </trkpt>
      <trkpt lat="48.24852" lon="-3.43027">
        <ele>146.8</ele>
        <time>2022-06-12T14:55:27Z</time>
      </trkpt>
      <trkpt lat="48.24852" lon="-3.43027">
        <ele>146.8</ele>
        <time>2022-06-12T14:55:28Z</time>
      </trkpt>
      <trkpt lat="48.24851" lon="-3.43027">
        <ele>146.8</ele>
        <time>2022-06-12T14:55:29Z</time>
      </trkpt>
      <trkpt lat="48.24851" lon="-3.43028">
        <ele>146.8</ele>
        <time>2022-06-12T14:55:30Z</time>
      </trkpt>
      <trkpt lat="48.2485" lon="-3.43028">
        <ele>146.8</ele>
        <time>2022-06-12T14:55:31Z</time>
      </trkpt>
      <trkpt lat="48.2485" lon="-3.43029">
        <ele>146.8</ele>
        <time>2022-06-12T14:55:32Z</time>
      </trkpt>
      <trkpt lat="48.2485" lon="-3.43029">
        <ele>146.8</ele>
        <time>2022-06-12T14:55:33Z</time>
      </trkpt>
      <trkpt lat="48.2485" lon="-3.43029">
        <ele>146.8</ele>
        <time>2022-06-12T14:55:34Z</time>
      </trkpt>
      <trkpt lat="48.2485" lon="-3.43029">
        <ele>146.8</ele>
        <time>2022-06-12T14:55:35Z</time>
      </trkpt>
      <trkpt lat="48.2485" lon="-3.43029">
        <ele>146.8</ele>
        <time>2022-06-12T14:55:36Z</time>
      </trkpt>
      <trkpt lat="48.2485" lon="-3.43029">
        <ele>146.8</ele>
        <time>2022-06-12T14:55:37Z</time>
      </trkpt>
      <trkpt lat="48.2485" lon="-3.43029">
        <ele>146.8</ele>
        <time>2022-06-12T14:55:38Z</time>
      </trkpt>
      <trkpt lat="48.2485" lon="-3.43029">
        <ele>146.8</ele>
        <time>2022-06-12T14:55:39Z</time>
      </trkpt>
      <trkpt lat="48.2485" lon="-3.43029">
        <ele>146.8</ele>
        <time>2022-06-12T14:55:40Z</time>
      </trkpt>
      <trkpt lat="48.2485" lon="-3.43029">
        <ele>146.8</ele>
        <time>2022-06-12T14:55:41Z</time>
      </trkpt>
      <trkpt lat="48.24849" lon="-3.4303">
        <ele>146.8</ele>
        <time>2022-06-12T14:55:42Z</time>
      </trkpt>
      <trkpt lat="48.24849" lon="-3.4303">
        <ele>146.8</ele>
        <time>2022-06-12T14:55:43Z</time>
      </trkpt>
      <trkpt lat="48.24849" lon="-3.43031">
        <ele>146.8</ele>
        <time>2022-06-12T14:55:44Z</time>
      </trkpt>
      <trkpt lat="48.24849" lon="-3.43031">
        <ele>146.8</ele>
        <time>2022-06-12T14:55:45Z</time>
      </trkpt>
      <trkpt lat="48.24849" lon="-3.43032">
        <ele>146.8</ele>
        <time>2022-06-12T14:55:46Z</time>
      </trkpt>
      <trkpt lat="48.24849" lon="-3.43031">
        <ele>146.8</ele>
        <time>2022-06-12T14:55:47Z</time>
      </trkpt>
      <trkpt lat="48.24849" lon="-3.43031">
        <ele>146.8</ele>
        <time>2022-06-12T14:55:48Z</time>
      </trkpt>
      <trkpt lat="48.24849" lon="-3.43032">
        <ele>146.8</ele>
        <time>2022-06-12T14:55:49Z</time>
      </trkpt>
      <trkpt lat="48.24849" lon="-3.43033">
        <ele>146.8</ele>
        <time>2022-06-12T14:55:50Z</time>
      </trkpt>
      <trkpt lat="48.24849" lon="-3.43033">
        <ele>146.8</ele>
        <time>2022-06-12T14:55:51Z</time>
      </trkpt>
      <trkpt lat="48.24849" lon="-3.43033">
        <ele>146.8</ele>
        <time>2022-06-12T14:55:52Z</time>
      </trkpt>
      <trkpt lat="48.24849" lon="-3.43034">
        <ele>146.8</ele>
        <time>2022-06-12T14:55:53Z</time>
      </trkpt>
      <trkpt lat="48.24849" lon="-3.43034">
        <ele>146.8</ele>
        <time>2022-06-12T14:55:54Z</time>
      </trkpt>
      <trkpt lat="48.24849" lon="-3.43035">
        <ele>146.8</ele>
        <time>2022-06-12T14:55:55Z</time>
      </trkpt>
      <trkpt lat="48.24849" lon="-3.43035">
        <ele>146.8</ele>
        <time>2022-06-12T14:55:56Z</time>
      </trkpt>
      <trkpt lat="48.24848" lon="-3.43035">
        <ele>146.8</ele>
        <time>2022-06-12T14:55:57Z</time>
      </trkpt>
      <trkpt lat="48.24848" lon="-3.43035">
        <ele>146.8</ele>
        <time>2022-06-12T14:55:58Z</time>
      </trkpt>
      <trkpt lat="48.24848" lon="-3.43035">
        <ele>146.8</ele>
        <time>2022-06-12T14:55:59Z</time>
      </trkpt>
      <trkpt lat="48.24848" lon="-3.43035">
        <ele>146.8</ele>
        <time>2022-06-12T14:56:00Z</time>
      </trkpt>
      <trkpt lat="48.24848" lon="-3.43035">
        <ele>146.8</ele>
        <time>2022-06-12T14:56:01Z</time>
      </trkpt>
      <trkpt lat="48.24848" lon="-3.43035">
        <ele>146.8</ele>
        <time>2022-06-12T14:56:02Z</time>
      </trkpt>
      <trkpt lat="48.24848" lon="-3.43035">
        <ele>146.8</ele>
        <time>2022-06-12T14:56:03Z</time>
      </trkpt>
      <trkpt lat="48.24849" lon="-3.43035">
        <ele>146.8</ele>
        <time>2022-06-12T14:56:04Z</time>
      </trkpt>
      <trkpt lat="48.24849" lon="-3.43035">
        <ele>146.8</ele>
        <time>2022-06-12T14:56:05Z</time>
      </trkpt>
      <trkpt lat="48.24849" lon="-3.43035">
        <ele>146.8</ele>
        <time>2022-06-12T14:56:06Z</time>
      </trkpt>
      <trkpt lat="48.24849" lon="-3.43035">
        <ele>146.8</ele>
        <time>2022-06-12T14:56:07Z</time>
      </trkpt>
      <trkpt lat="48.24849" lon="-3.43035">
        <ele>146.8</ele>
        <time>2022-06-12T14:56:08Z</time>
      </trkpt>
      <trkpt lat="48.24849" lon="-3.43035">
        <ele>146.8</ele>
        <time>2022-06-12T14:56:09Z</time>
      </trkpt>
      <trkpt lat="48.24849" lon="-3.43035">
        <ele>146.8</ele>
        <time>2022-06-12T14:56:11Z</time>
      </trkpt>
      <trkpt lat="48.24849" lon="-3.43035">
        <ele>146.8</ele>
        <time>2022-06-12T14:56:12Z</time>
      </trkpt>
      <trkpt lat="48.24849" lon="-3.43035">
        <ele>146.8</ele>
        <time>2022-06-12T14:56:13Z</time>
      </trkpt>
      <trkpt lat="48.24849" lon="-3.43035">
        <ele>146.8</ele>
        <time>2022-06-12T14:56:14Z</time>
      </trkpt>
      <trkpt lat="48.24849" lon="-3.43035">
        <ele>146.8</ele>
        <time>2022-06-12T14:56:15Z</time>
      </trkpt>
      <trkpt lat="48.24849" lon="-3.43035">
        <ele>146.8</ele>
        <time>2022-06-12T14:56:16Z</time>
      </trkpt>
      <trkpt lat="48.24849" lon="-3.43035">
        <ele>146.8</ele>
        <time>2022-06-12T14:56:17Z</time>
      </trkpt>
      <trkpt lat="48.24849" lon="-3.43035">
        <ele>146.8</ele>
        <time>2022-06-12T14:56:18Z</time>
      </trkpt>
      <trkpt lat="48.24849" lon="-3.43035">
        <ele>146.8</ele>
        <time>2022-06-12T14:56:19Z</time>
      </trkpt>
      <trkpt lat="48.24849" lon="-3.43035">
        <ele>146.8</ele>
        <time>2022-06-12T14:56:20Z</time>
      </trkpt>
      <trkpt lat="48.24849" lon="-3.43034">
        <ele>146.8</ele>
        <time>2022-06-12T14:56:21Z</time>
      </trkpt>
      <trkpt lat="48.24849" lon="-3.43034">
        <ele>146.8</ele>
        <time>2022-06-12T14:56:22Z</time>
      </trkpt>
      <trkpt lat="48.24849" lon="-3.43034">
        <ele>146.8</ele>
        <time>2022-06-12T14:56:23Z</time>
      </trkpt>
      <trkpt lat="48.24849" lon="-3.43034">
        <ele>146.8</ele>
        <time>2022-06-12T14:56:24Z</time>
      </trkpt>
      <trkpt lat="48.24849" lon="-3.43034">
        <ele>146.8</ele>
        <time>2022-06-12T14:56:25Z</time>
      </trkpt>
      <trkpt lat="48.24849" lon="-3.43034">
        <ele>146.8</ele>
        <time>2022-06-12T14:56:26Z</time>
      </trkpt>
      <trkpt lat="48.24849" lon="-3.43034">
        <ele>146.8</ele>
        <time>2022-06-12T14:56:27Z</time>
      </trkpt>
      <trkpt lat="48.24849" lon="-3.43034">
        <ele>146.8</ele>
        <time>2022-06-12T14:56:28Z</time>
      </trkpt>
      <trkpt lat="48.24849" lon="-3.43034">
        <ele>146.8</ele>
        <time>2022-06-12T14:56:29Z</time>
      </trkpt>
      <trkpt lat="48.24849" lon="-3.43034">
        <ele>146.8</ele>
        <time>2022-06-12T14:56:30Z</time>
      </trkpt>
      <trkpt lat="48.24849" lon="-3.43034">
        <ele>146.8</ele>
        <time>2022-06-12T14:56:31Z</time>
      </trkpt>
      <trkpt lat="48.24849" lon="-3.43034">
        <ele>146.8</ele>
        <time>2022-06-12T14:56:32Z</time>
      </trkpt>
      <trkpt lat="48.24849" lon="-3.43034">
        <ele>146.8</ele>
        <time>2022-06-12T14:56:33Z</time>
      </trkpt>
      <trkpt lat="48.24849" lon="-3.43034">
        <ele>146.8</ele>
        <time>2022-06-12T14:56:34Z</time>
      </trkpt>
      <trkpt lat="48.24849" lon="-3.43034">
        <ele>146.8</ele>
        <time>2022-06-12T14:56:35Z</time>
      </trkpt>
      <trkpt lat="48.24849" lon="-3.43034">
        <ele>146.8</ele>
        <time>2022-06-12T14:56:36Z</time>
      </trkpt>
      <trkpt lat="48.24849" lon="-3.43034">
        <ele>146.8</ele>
        <time>2022-06-12T14:56:37Z</time>
      </trkpt>
      <trkpt lat="48.24849" lon="-3.43034">
        <ele>146.8</ele>
        <time>2022-06-12T14:56:38Z</time>
      </trkpt>
      <trkpt lat="48.24849" lon="-3.43034">
        <ele>146.8</ele>
        <time>2022-06-12T14:56:39Z</time>
      </trkpt>
      <trkpt lat="48.24849" lon="-3.43034">
        <ele>146.8</ele>
        <time>2022-06-12T14:56:40Z</time>
      </trkpt>
      <trkpt lat="48.24849" lon="-3.43034">
        <ele>146.8</ele>
        <time>2022-06-12T14:56:41Z</time>
      </trkpt>
      <trkpt lat="48.24849" lon="-3.43034">
        <ele>146.8</ele>
        <time>2022-06-12T14:56:42Z</time>
      </trkpt>
      <trkpt lat="48.24849" lon="-3.43034">
        <ele>146.8</ele>
        <time>2022-06-12T14:56:43Z</time>
      </trkpt>
      <trkpt lat="48.24849" lon="-3.43034">
        <ele>146.8</ele>
        <time>2022-06-12T14:56:44Z</time>
      </trkpt>
      <trkpt lat="48.24849" lon="-3.43034">
        <ele>146.8</ele>
        <time>2022-06-12T14:56:45Z</time>
      </trkpt>
      <trkpt lat="48.24849" lon="-3.43034">
        <ele>146.8</ele>
        <time>2022-06-12T14:56:46Z</time>
      </trkpt>
      <trkpt lat="48.24849" lon="-3.43034">
        <ele>146.8</ele>
        <time>2022-06-12T14:56:47Z</time>
      </trkpt>
      <trkpt lat="48.24849" lon="-3.43034">
        <ele>146.8</ele>
        <time>2022-06-12T14:56:48Z</time>
      </trkpt>
      <trkpt lat="48.24849" lon="-3.43034">
        <ele>146.8</ele>
        <time>2022-06-12T14:56:49Z</time>
      </trkpt>
      <trkpt lat="48.24849" lon="-3.43034">
        <ele>146.8</ele>
        <time>2022-06-12T14:56:50Z</time>
      </trkpt>
      <trkpt lat="48.24849" lon="-3.43034">
        <ele>146.8</ele>
        <time>2022-06-12T14:56:51Z</time>
      </trkpt>
      <trkpt lat="48.24849" lon="-3.43034">
        <ele>146.8</ele>
        <time>2022-06-12T14:56:52Z</time>
      </trkpt>
      <trkpt lat="48.24849" lon="-3.43034">
        <ele>146.8</ele>
        <time>2022-06-12T14:56:53Z</time>
      </trkpt>
      <trkpt lat="48.24849" lon="-3.43034">
        <ele>146.8</ele>
        <time>2022-06-12T14:56:54Z</time>
      </trkpt>
      <trkpt lat="48.24849" lon="-3.43034">
        <ele>146.8</ele>
        <time>2022-06-12T14:56:55Z</time>
      </trkpt>
      <trkpt lat="48.24849" lon="-3.43034">
        <ele>146.8</ele>
        <time>2022-06-12T14:56:56Z</time>
      </trkpt>
      <trkpt lat="48.24849" lon="-3.43034">
        <ele>146.8</ele>
        <time>2022-06-12T14:56:57Z</time>
      </trkpt>
      <trkpt lat="48.24849" lon="-3.43034">
        <ele>146.8</ele>
        <time>2022-06-12T14:56:58Z</time>
      </trkpt>
      <trkpt lat="48.24849" lon="-3.43034">
        <ele>146.8</ele>
        <time>2022-06-12T14:56:59Z</time>
      </trkpt>
      <trkpt lat="48.24849" lon="-3.43034">
        <ele>146.8</ele>
        <time>2022-06-12T14:57:00Z</time>
      </trkpt>
      <trkpt lat="48.24849" lon="-3.43034">
        <ele>146.8</ele>
        <time>2022-06-12T14:57:01Z</time>
      </trkpt>
      <trkpt lat="48.24849" lon="-3.43034">
        <ele>146.8</ele>
        <time>2022-06-12T14:57:02Z</time>
      </trkpt>
      <trkpt lat="48.24849" lon="-3.43034">
        <ele>146.8</ele>
        <time>2022-06-12T14:57:03Z</time>
      </trkpt>
      <trkpt lat="48.24849" lon="-3.43034">
        <ele>146.8</ele>
        <time>2022-06-12T14:57:04Z</time>
      </trkpt>
      <trkpt lat="48.24849" lon="-3.43034">
        <ele>146.8</ele>
        <time>2022-06-12T14:57:05Z</time>
      </trkpt>
      <trkpt lat="48.24849" lon="-3.43034">
        <ele>146.8</ele>
        <time>2022-06-12T14:57:06Z</time>
      </trkpt>
      <trkpt lat="48.24849" lon="-3.43034">
        <ele>146.8</ele>
        <time>2022-06-12T14:57:07Z</time>
      </trkpt>
      <trkpt lat="48.24849" lon="-3.43034">
        <ele>146.8</ele>
        <time>2022-06-12T14:57:08Z</time>
      </trkpt>
      <trkpt lat="48.24849" lon="-3.43034">
        <ele>146.8</ele>
        <time>2022-06-12T14:57:09Z</time>
      </trkpt>
      <trkpt lat="48.24849" lon="-3.43034">
        <ele>146.8</ele>
        <time>2022-06-12T14:57:10Z</time>
      </trkpt>
      <trkpt lat="48.24849" lon="-3.43034">
        <ele>146.8</ele>
        <time>2022-06-12T14:57:11Z</time>
      </trkpt>
      <trkpt lat="48.24849" lon="-3.43034">
        <ele>146.8</ele>
        <time>2022-06-12T14:57:12Z</time>
      </trkpt>
      <trkpt lat="48.24849" lon="-3.43034">
        <ele>146.8</ele>
        <time>2022-06-12T14:57:13Z</time>
      </trkpt>
      <trkpt lat="48.24849" lon="-3.43034">
        <ele>146.8</ele>
        <time>2022-06-12T14:57:14Z</time>
      </trkpt>
      <trkpt lat="48.24849" lon="-3.43034">
        <ele>146.8</ele>
        <time>2022-06-12T14:57:15Z</time>
      </trkpt>
      <trkpt lat="48.24849" lon="-3.43033">
        <ele>146.8</ele>
        <time>2022-06-12T14:57:16Z</time>
      </trkpt>
      <trkpt lat="48.24849" lon="-3.43033">
        <ele>146.8</ele>
        <time>2022-06-12T14:57:17Z</time>
      </trkpt>
      <trkpt lat="48.24849" lon="-3.43033">
        <ele>146.8</ele>
        <time>2022-06-12T14:57:18Z</time>
      </trkpt>
      <trkpt lat="48.24849" lon="-3.43033">
        <ele>146.8</ele>
        <time>2022-06-12T14:57:19Z</time>
      </trkpt>
      <trkpt lat="48.24849" lon="-3.43033">
        <ele>146.8</ele>
        <time>2022-06-12T14:57:20Z</time>
      </trkpt>
      <trkpt lat="48.24849" lon="-3.43033">
        <ele>146.8</ele>
        <time>2022-06-12T14:57:21Z</time>
      </trkpt>
      <trkpt lat="48.24849" lon="-3.43033">
        <ele>146.8</ele>
        <time>2022-06-12T14:57:22Z</time>
      </trkpt>
      <trkpt lat="48.24849" lon="-3.43033">
        <ele>146.8</ele>
        <time>2022-06-12T14:57:23Z</time>
      </trkpt>
      <trkpt lat="48.24849" lon="-3.43033">
        <ele>146.8</ele>
        <time>2022-06-12T14:57:24Z</time>
      </trkpt>
      <trkpt lat="48.24849" lon="-3.43033">
        <ele>146.8</ele>
        <time>2022-06-12T14:57:25Z</time>
      </trkpt>
      <trkpt lat="48.24849" lon="-3.43033">
        <ele>146.8</ele>
        <time>2022-06-12T14:57:26Z</time>
      </trkpt>
      <trkpt lat="48.24849" lon="-3.43033">
        <ele>146.8</ele>
        <time>2022-06-12T14:57:27Z</time>
      </trkpt>
      <trkpt lat="48.24849" lon="-3.43033">
        <ele>146.8</ele>
        <time>2022-06-12T14:57:28Z</time>
      </trkpt>
      <trkpt lat="48.24849" lon="-3.43033">
        <ele>146.8</ele>
        <time>2022-06-12T14:57:29Z</time>
      </trkpt>
      <trkpt lat="48.24849" lon="-3.43033">
        <ele>146.8</ele>
        <time>2022-06-12T14:57:30Z</time>
      </trkpt>
      <trkpt lat="48.24849" lon="-3.43033">
        <ele>146.8</ele>
        <time>2022-06-12T14:57:31Z</time>
      </trkpt>
      <trkpt lat="48.24849" lon="-3.43033">
        <ele>146.8</ele>
        <time>2022-06-12T14:57:32Z</time>
      </trkpt>
      <trkpt lat="48.24849" lon="-3.43033">
        <ele>146.8</ele>
        <time>2022-06-12T14:57:33Z</time>
      </trkpt>
      <trkpt lat="48.24849" lon="-3.43033">
        <ele>146.8</ele>
        <time>2022-06-12T14:57:34Z</time>
      </trkpt>
      <trkpt lat="48.24849" lon="-3.43033">
        <ele>146.8</ele>
        <time>2022-06-12T14:57:35Z</time>
      </trkpt>
      <trkpt lat="48.24849" lon="-3.43033">
        <ele>146.8</ele>
        <time>2022-06-12T14:57:36Z</time>
      </trkpt>
      <trkpt lat="48.24849" lon="-3.43033">
        <ele>146.8</ele>
        <time>2022-06-12T14:57:37Z</time>
      </trkpt>
      <trkpt lat="48.24849" lon="-3.43033">
        <ele>146.8</ele>
        <time>2022-06-12T14:57:38Z</time>
      </trkpt>
      <trkpt lat="48.24849" lon="-3.43033">
        <ele>146.8</ele>
        <time>2022-06-12T14:57:39Z</time>
      </trkpt>
      <trkpt lat="48.24849" lon="-3.43033">
        <ele>146.8</ele>
        <time>2022-06-12T14:57:40Z</time>
      </trkpt>
      <trkpt lat="48.24849" lon="-3.43033">
        <ele>146.8</ele>
        <time>2022-06-12T14:57:41Z</time>
      </trkpt>
      <trkpt lat="48.24849" lon="-3.43033">
        <ele>146.8</ele>
        <time>2022-06-12T14:57:42Z</time>
      </trkpt>
      <trkpt lat="48.24849" lon="-3.43033">
        <ele>146.8</ele>
        <time>2022-06-12T14:57:43Z</time>
      </trkpt>
      <trkpt lat="48.24849" lon="-3.43033">
        <ele>146.8</ele>
        <time>2022-06-12T14:57:44Z</time>
      </trkpt>
      <trkpt lat="48.24849" lon="-3.43033">
        <ele>146.8</ele>
        <time>2022-06-12T14:57:45Z</time>
      </trkpt>
      <trkpt lat="48.24849" lon="-3.43033">
        <ele>146.8</ele>
        <time>2022-06-12T14:57:46Z</time>
      </trkpt>
      <trkpt lat="48.24849" lon="-3.43033">
        <ele>146.8</ele>
        <time>2022-06-12T14:57:47Z</time>
      </trkpt>
      <trkpt lat="48.24849" lon="-3.43033">
        <ele>146.8</ele>
        <time>2022-06-12T14:57:48Z</time>
      </trkpt>
      <trkpt lat="48.24849" lon="-3.43033">
        <ele>146.8</ele>
        <time>2022-06-12T14:57:49Z</time>
      </trkpt>
      <trkpt lat="48.24849" lon="-3.43033">
        <ele>146.8</ele>
        <time>2022-06-12T14:57:50Z</time>
      </trkpt>
      <trkpt lat="48.24849" lon="-3.43033">
        <ele>146.8</ele>
        <time>2022-06-12T14:57:51Z</time>
      </trkpt>
      <trkpt lat="48.24849" lon="-3.43033">
        <ele>146.8</ele>
        <time>2022-06-12T14:57:52Z</time>
      </trkpt>
      <trkpt lat="48.24849" lon="-3.43033">
        <ele>146.8</ele>
        <time>2022-06-12T14:57:53Z</time>
      </trkpt>
      <trkpt lat="48.24849" lon="-3.43033">
        <ele>146.8</ele>
        <time>2022-06-12T14:57:54Z</time>
      </trkpt>
      <trkpt lat="48.24849" lon="-3.43033">
        <ele>146.8</ele>
        <time>2022-06-12T14:57:55Z</time>
      </trkpt>
      <trkpt lat="48.24849" lon="-3.43033">
        <ele>146.8</ele>
        <time>2022-06-12T14:57:56Z</time>
      </trkpt>
      <trkpt lat="48.24849" lon="-3.43033">
        <ele>146.8</ele>
        <time>2022-06-12T14:57:57Z</time>
      </trkpt>
      <trkpt lat="48.24849" lon="-3.43033">
        <ele>146.8</ele>
        <time>2022-06-12T14:57:58Z</time>
      </trkpt>
      <trkpt lat="48.24849" lon="-3.43033">
        <ele>146.8</ele>
        <time>2022-06-12T14:57:59Z</time>
      </trkpt>
      <trkpt lat="48.24849" lon="-3.43033">
        <ele>146.8</ele>
        <time>2022-06-12T14:58:00Z</time>
      </trkpt>
      <trkpt lat="48.24849" lon="-3.43033">
        <ele>146.8</ele>
        <time>2022-06-12T14:58:01Z</time>
      </trkpt>
      <trkpt lat="48.24849" lon="-3.43033">
        <ele>146.8</ele>
        <time>2022-06-12T14:58:02Z</time>
      </trkpt>
      <trkpt lat="48.24849" lon="-3.43033">
        <ele>146.8</ele>
        <time>2022-06-12T14:58:03Z</time>
      </trkpt>
      <trkpt lat="48.24849" lon="-3.43033">
        <ele>146.8</ele>
        <time>2022-06-12T14:58:04Z</time>
      </trkpt>
      <trkpt lat="48.24849" lon="-3.43033">
        <ele>146.8</ele>
        <time>2022-06-12T14:58:05Z</time>
      </trkpt>
      <trkpt lat="48.24849" lon="-3.43033">
        <ele>146.8</ele>
        <time>2022-06-12T14:58:06Z</time>
      </trkpt>
      <trkpt lat="48.24849" lon="-3.43033">
        <ele>146.8</ele>
        <time>2022-06-12T14:58:07Z</time>
      </trkpt>
      <trkpt lat="48.24849" lon="-3.43033">
        <ele>146.8</ele>
        <time>2022-06-12T14:58:08Z</time>
      </trkpt>
      <trkpt lat="48.24849" lon="-3.43033">
        <ele>146.8</ele>
        <time>2022-06-12T14:58:09Z</time>
      </trkpt>
      <trkpt lat="48.24849" lon="-3.43033">
        <ele>146.8</ele>
        <time>2022-06-12T14:58:10Z</time>
      </trkpt>
      <trkpt lat="48.24849" lon="-3.43032">
        <ele>146.8</ele>
        <time>2022-06-12T14:58:11Z</time>
      </trkpt>
      <trkpt lat="48.24849" lon="-3.43032">
        <ele>146.8</ele>
        <time>2022-06-12T14:58:12Z</time>
      </trkpt>
      <trkpt lat="48.24849" lon="-3.43032">
        <ele>146.8</ele>
        <time>2022-06-12T14:58:13Z</time>
      </trkpt>
      <trkpt lat="48.24849" lon="-3.43032">
        <ele>146.8</ele>
        <time>2022-06-12T14:58:14Z</time>
      </trkpt>
      <trkpt lat="48.24849" lon="-3.43032">
        <ele>146.8</ele>
        <time>2022-06-12T14:58:15Z</time>
      </trkpt>
      <trkpt lat="48.24849" lon="-3.43032">
        <ele>146.8</ele>
        <time>2022-06-12T14:58:16Z</time>
      </trkpt>
      <trkpt lat="48.24849" lon="-3.43032">
        <ele>146.8</ele>
        <time>2022-06-12T14:58:17Z</time>
      </trkpt>
      <trkpt lat="48.24849" lon="-3.43032">
        <ele>146.8</ele>
        <time>2022-06-12T14:58:18Z</time>
      </trkpt>
      <trkpt lat="48.24849" lon="-3.43032">
        <ele>146.8</ele>
        <time>2022-06-12T14:58:19Z</time>
      </trkpt>
      <trkpt lat="48.24849" lon="-3.43032">
        <ele>146.8</ele>
        <time>2022-06-12T14:58:20Z</time>
      </trkpt>
      <trkpt lat="48.24849" lon="-3.43032">
        <ele>146.8</ele>
        <time>2022-06-12T14:58:21Z</time>
      </trkpt>
      <trkpt lat="48.24849" lon="-3.43032">
        <ele>146.8</ele>
        <time>2022-06-12T14:58:22Z</time>
      </trkpt>
      <trkpt lat="48.24849" lon="-3.43032">
        <ele>146.8</ele>
        <time>2022-06-12T14:58:23Z</time>
      </trkpt>
      <trkpt lat="48.24849" lon="-3.43032">
        <ele>146.8</ele>
        <time>2022-06-12T14:58:24Z</time>
      </trkpt>
      <trkpt lat="48.24849" lon="-3.43032">
        <ele>146.8</ele>
        <time>2022-06-12T14:58:25Z</time>
      </trkpt>
      <trkpt lat="48.24849" lon="-3.43032">
        <ele>146.8</ele>
        <time>2022-06-12T14:58:26Z</time>
      </trkpt>
      <trkpt lat="48.24849" lon="-3.43032">
        <ele>146.8</ele>
        <time>2022-06-12T14:58:27Z</time>
      </trkpt>
      <trkpt lat="48.24849" lon="-3.43032">
        <ele>146.8</ele>
        <time>2022-06-12T14:58:28Z</time>
      </trkpt>
      <trkpt lat="48.24849" lon="-3.43032">
        <ele>146.8</ele>
        <time>2022-06-12T14:58:29Z</time>
      </trkpt>
      <trkpt lat="48.24849" lon="-3.43032">
        <ele>146.8</ele>
        <time>2022-06-12T14:58:30Z</time>
      </trkpt>
      <trkpt lat="48.24849" lon="-3.43032">
        <ele>146.8</ele>
        <time>2022-06-12T14:58:31Z</time>
      </trkpt>
      <trkpt lat="48.24849" lon="-3.43032">
        <ele>146.8</ele>
        <time>2022-06-12T14:58:32Z</time>
      </trkpt>
      <trkpt lat="48.24849" lon="-3.43032">
        <ele>146.8</ele>
        <time>2022-06-12T14:58:33Z</time>
      </trkpt>
      <trkpt lat="48.24849" lon="-3.43032">
        <ele>146.8</ele>
        <time>2022-06-12T14:58:34Z</time>
      </trkpt>
      <trkpt lat="48.24849" lon="-3.43032">
        <ele>146.8</ele>
        <time>2022-06-12T14:58:35Z</time>
      </trkpt>
      <trkpt lat="48.24849" lon="-3.43032">
        <ele>146.8</ele>
        <time>2022-06-12T14:58:36Z</time>
      </trkpt>
      <trkpt lat="48.24849" lon="-3.43032">
        <ele>146.8</ele>
        <time>2022-06-12T14:58:37Z</time>
      </trkpt>
      <trkpt lat="48.24849" lon="-3.43032">
        <ele>146.8</ele>
        <time>2022-06-12T14:58:38Z</time>
      </trkpt>
      <trkpt lat="48.24849" lon="-3.43032">
        <ele>146.8</ele>
        <time>2022-06-12T14:58:39Z</time>
      </trkpt>
      <trkpt lat="48.24849" lon="-3.43032">
        <ele>146.8</ele>
        <time>2022-06-12T14:58:40Z</time>
      </trkpt>
      <trkpt lat="48.24849" lon="-3.43032">
        <ele>146.8</ele>
        <time>2022-06-12T14:58:41Z</time>
      </trkpt>
      <trkpt lat="48.24849" lon="-3.43032">
        <ele>146.8</ele>
        <time>2022-06-12T14:58:42Z</time>
      </trkpt>
      <trkpt lat="48.24849" lon="-3.43032">
        <ele>146.8</ele>
        <time>2022-06-12T14:58:43Z</time>
      </trkpt>
      <trkpt lat="48.24849" lon="-3.43032">
        <ele>146.8</ele>
        <time>2022-06-12T14:58:44Z</time>
      </trkpt>
      <trkpt lat="48.24849" lon="-3.43032">
        <ele>146.8</ele>
        <time>2022-06-12T14:58:45Z</time>
      </trkpt>
      <trkpt lat="48.24849" lon="-3.43032">
        <ele>146.8</ele>
        <time>2022-06-12T14:58:46Z</time>
      </trkpt>
      <trkpt lat="48.24849" lon="-3.43032">
        <ele>146.8</ele>
        <time>2022-06-12T14:58:47Z</time>
      </trkpt>
      <trkpt lat="48.24849" lon="-3.43032">
        <ele>146.8</ele>
        <time>2022-06-12T14:58:48Z</time>
      </trkpt>
      <trkpt lat="48.24849" lon="-3.43032">
        <ele>146.8</ele>
        <time>2022-06-12T14:58:49Z</time>
      </trkpt>
      <trkpt lat="48.24849" lon="-3.43032">
        <ele>146.8</ele>
        <time>2022-06-12T14:58:50Z</time>
      </trkpt>
      <trkpt lat="48.24849" lon="-3.43032">
        <ele>146.8</ele>
        <time>2022-06-12T14:58:51Z</time>
      </trkpt>
      <trkpt lat="48.24849" lon="-3.43032">
        <ele>146.8</ele>
        <time>2022-06-12T14:58:52Z</time>
      </trkpt>
      <trkpt lat="48.24849" lon="-3.43032">
        <ele>146.8</ele>
        <time>2022-06-12T14:58:53Z</time>
      </trkpt>
      <trkpt lat="48.24849" lon="-3.43032">
        <ele>146.8</ele>
        <time>2022-06-12T14:58:54Z</time>
      </trkpt>
      <trkpt lat="48.24849" lon="-3.43032">
        <ele>146.8</ele>
        <time>2022-06-12T14:58:55Z</time>
      </trkpt>
      <trkpt lat="48.24849" lon="-3.43032">
        <ele>146.8</ele>
        <time>2022-06-12T14:58:56Z</time>
      </trkpt>
      <trkpt lat="48.24849" lon="-3.43032">
        <ele>146.8</ele>
        <time>2022-06-12T14:58:57Z</time>
      </trkpt>
      <trkpt lat="48.24849" lon="-3.43032">
        <ele>146.8</ele>
        <time>2022-06-12T14:58:58Z</time>
      </trkpt>
      <trkpt lat="48.24849" lon="-3.43032">
        <ele>146.8</ele>
        <time>2022-06-12T14:58:59Z</time>
      </trkpt>
      <trkpt lat="48.24849" lon="-3.43032">
        <ele>146.8</ele>
        <time>2022-06-12T14:59:00Z</time>
      </trkpt>
      <trkpt lat="48.24849" lon="-3.43032">
        <ele>146.8</ele>
        <time>2022-06-12T14:59:01Z</time>
      </trkpt>
      <trkpt lat="48.24849" lon="-3.43032">
        <ele>146.8</ele>
        <time>2022-06-12T14:59:02Z</time>
      </trkpt>
      <trkpt lat="48.24849" lon="-3.43032">
        <ele>146.8</ele>
        <time>2022-06-12T14:59:03Z</time>
      </trkpt>
      <trkpt lat="48.24849" lon="-3.43032">
        <ele>146.8</ele>
        <time>2022-06-12T14:59:04Z</time>
      </trkpt>
      <trkpt lat="48.24849" lon="-3.43032">
        <ele>146.8</ele>
        <time>2022-06-12T14:59:05Z</time>
      </trkpt>
      <trkpt lat="48.24849" lon="-3.43031">
        <ele>146.8</ele>
        <time>2022-06-12T14:59:06Z</time>
      </trkpt>
      <trkpt lat="48.24849" lon="-3.43031">
        <ele>146.8</ele>
        <time>2022-06-12T14:59:07Z</time>
      </trkpt>
      <trkpt lat="48.24849" lon="-3.43031">
        <ele>146.8</ele>
        <time>2022-06-12T14:59:08Z</time>
      </trkpt>
      <trkpt lat="48.24849" lon="-3.43031">
        <ele>146.8</ele>
        <time>2022-06-12T14:59:09Z</time>
      </trkpt>
      <trkpt lat="48.24849" lon="-3.43031">
        <ele>146.8</ele>
        <time>2022-06-12T14:59:10Z</time>
      </trkpt>
      <trkpt lat="48.24849" lon="-3.43031">
        <ele>146.8</ele>
        <time>2022-06-12T14:59:11Z</time>
      </trkpt>
      <trkpt lat="48.24849" lon="-3.43031">
        <ele>146.8</ele>
        <time>2022-06-12T14:59:12Z</time>
      </trkpt>
      <trkpt lat="48.24849" lon="-3.43031">
        <ele>146.8</ele>
        <time>2022-06-12T14:59:13Z</time>
      </trkpt>
      <trkpt lat="48.24849" lon="-3.43031">
        <ele>146.8</ele>
        <time>2022-06-12T14:59:14Z</time>
      </trkpt>
      <trkpt lat="48.24849" lon="-3.43031">
        <ele>146.8</ele>
        <time>2022-06-12T14:59:15Z</time>
      </trkpt>
      <trkpt lat="48.24849" lon="-3.43031">
        <ele>146.8</ele>
        <time>2022-06-12T14:59:16Z</time>
      </trkpt>
      <trkpt lat="48.24849" lon="-3.43031">
        <ele>146.8</ele>
        <time>2022-06-12T14:59:17Z</time>
      </trkpt>
      <trkpt lat="48.24849" lon="-3.43031">
        <ele>146.8</ele>
        <time>2022-06-12T14:59:18Z</time>
      </trkpt>
      <trkpt lat="48.24849" lon="-3.43031">
        <ele>146.8</ele>
        <time>2022-06-12T14:59:19Z</time>
      </trkpt>
      <trkpt lat="48.24849" lon="-3.43031">
        <ele>146.8</ele>
        <time>2022-06-12T14:59:20Z</time>
      </trkpt>
      <trkpt lat="48.24849" lon="-3.43031">
        <ele>146.8</ele>
        <time>2022-06-12T14:59:21Z</time>
      </trkpt>
      <trkpt lat="48.24849" lon="-3.43031">
        <ele>146.8</ele>
        <time>2022-06-12T14:59:22Z</time>
      </trkpt>
      <trkpt lat="48.24849" lon="-3.43031">
        <ele>146.8</ele>
        <time>2022-06-12T14:59:23Z</time>
      </trkpt>
      <trkpt lat="48.24849" lon="-3.43031">
        <ele>146.8</ele>
        <time>2022-06-12T14:59:24Z</time>
      </trkpt>
      <trkpt lat="48.24849" lon="-3.43031">
        <ele>146.8</ele>
        <time>2022-06-12T14:59:25Z</time>
      </trkpt>
      <trkpt lat="48.24849" lon="-3.43031">
        <ele>146.8</ele>
        <time>2022-06-12T14:59:26Z</time>
      </trkpt>
      <trkpt lat="48.24849" lon="-3.43031">
        <ele>146.8</ele>
        <time>2022-06-12T14:59:27Z</time>
      </trkpt>
      <trkpt lat="48.24849" lon="-3.43031">
        <ele>146.8</ele>
        <time>2022-06-12T14:59:28Z</time>
      </trkpt>
      <trkpt lat="48.24849" lon="-3.43031">
        <ele>146.8</ele>
        <time>2022-06-12T14:59:29Z</time>
      </trkpt>
      <trkpt lat="48.24849" lon="-3.43031">
        <ele>146.8</ele>
        <time>2022-06-12T14:59:30Z</time>
      </trkpt>
      <trkpt lat="48.24849" lon="-3.43031">
        <ele>146.8</ele>
        <time>2022-06-12T14:59:31Z</time>
      </trkpt>
      <trkpt lat="48.24849" lon="-3.43031">
        <ele>146.8</ele>
        <time>2022-06-12T14:59:32Z</time>
      </trkpt>
      <trkpt lat="48.24849" lon="-3.43031">
        <ele>146.8</ele>
        <time>2022-06-12T14:59:33Z</time>
      </trkpt>
      <trkpt lat="48.24849" lon="-3.43031">
        <ele>146.8</ele>
        <time>2022-06-12T14:59:34Z</time>
      </trkpt>
      <trkpt lat="48.24849" lon="-3.43031">
        <ele>146.8</ele>
        <time>2022-06-12T14:59:35Z</time>
      </trkpt>
      <trkpt lat="48.24849" lon="-3.43031">
        <ele>146.8</ele>
        <time>2022-06-12T14:59:36Z</time>
      </trkpt>
      <trkpt lat="48.24849" lon="-3.43031">
        <ele>146.8</ele>
        <time>2022-06-12T14:59:37Z</time>
      </trkpt>
      <trkpt lat="48.24849" lon="-3.43031">
        <ele>146.8</ele>
        <time>2022-06-12T14:59:38Z</time>
      </trkpt>
      <trkpt lat="48.24849" lon="-3.43031">
        <ele>146.8</ele>
        <time>2022-06-12T14:59:39Z</time>
      </trkpt>
      <trkpt lat="48.24849" lon="-3.43031">
        <ele>146.8</ele>
        <time>2022-06-12T14:59:40Z</time>
      </trkpt>
      <trkpt lat="48.24849" lon="-3.43031">
        <ele>146.8</ele>
        <time>2022-06-12T14:59:41Z</time>
      </trkpt>
      <trkpt lat="48.24849" lon="-3.43031">
        <ele>146.8</ele>
        <time>2022-06-12T14:59:42Z</time>
      </trkpt>
      <trkpt lat="48.24849" lon="-3.43031">
        <ele>146.8</ele>
        <time>2022-06-12T14:59:43Z</time>
      </trkpt>
      <trkpt lat="48.24849" lon="-3.43031">
        <ele>146.8</ele>
        <time>2022-06-12T14:59:44Z</time>
      </trkpt>
      <trkpt lat="48.24849" lon="-3.43031">
        <ele>146.8</ele>
        <time>2022-06-12T14:59:45Z</time>
      </trkpt>
      <trkpt lat="48.24849" lon="-3.43031">
        <ele>146.8</ele>
        <time>2022-06-12T14:59:46Z</time>
      </trkpt>
      <trkpt lat="48.24849" lon="-3.43031">
        <ele>146.8</ele>
        <time>2022-06-12T14:59:47Z</time>
      </trkpt>
      <trkpt lat="48.24849" lon="-3.43031">
        <ele>146.8</ele>
        <time>2022-06-12T14:59:48Z</time>
      </trkpt>
      <trkpt lat="48.24849" lon="-3.43031">
        <ele>146.8</ele>
        <time>2022-06-12T14:59:49Z</time>
      </trkpt>
      <trkpt lat="48.24849" lon="-3.43031">
        <ele>146.8</ele>
        <time>2022-06-12T14:59:50Z</time>
      </trkpt>
      <trkpt lat="48.24849" lon="-3.43031">
        <ele>146.8</ele>
        <time>2022-06-12T14:59:51Z</time>
      </trkpt>
      <trkpt lat="48.24849" lon="-3.43031">
        <ele>146.8</ele>
        <time>2022-06-12T14:59:52Z</time>
      </trkpt>
      <trkpt lat="48.24849" lon="-3.43031">
        <ele>146.8</ele>
        <time>2022-06-12T14:59:53Z</time>
      </trkpt>
      <trkpt lat="48.24849" lon="-3.43031">
        <ele>146.8</ele>
        <time>2022-06-12T14:59:54Z</time>
      </trkpt>
      <trkpt lat="48.24849" lon="-3.43031">
        <ele>146.8</ele>
        <time>2022-06-12T14:59:55Z</time>
      </trkpt>
      <trkpt lat="48.24849" lon="-3.43031">
        <ele>146.8</ele>
        <time>2022-06-12T14:59:56Z</time>
      </trkpt>
      <trkpt lat="48.24849" lon="-3.43031">
        <ele>146.8</ele>
        <time>2022-06-12T14:59:57Z</time>
      </trkpt>
      <trkpt lat="48.24849" lon="-3.43031">
        <ele>146.8</ele>
        <time>2022-06-12T14:59:58Z</time>
      </trkpt>
      <trkpt lat="48.24849" lon="-3.43031">
        <ele>146.8</ele>
        <time>2022-06-12T14:59:59Z</time>
      </trkpt>
      <trkpt lat="48.24849" lon="-3.4303">
        <ele>146.8</ele>
        <time>2022-06-12T15:00:00Z</time>
      </trkpt>
      <trkpt lat="48.24849" lon="-3.4303">
        <ele>146.8</ele>
        <time>2022-06-12T15:00:01Z</time>
      </trkpt>
      <trkpt lat="48.24849" lon="-3.4303">
        <ele>146.8</ele>
        <time>2022-06-12T15:00:02Z</time>
      </trkpt>
      <trkpt lat="48.24849" lon="-3.4303">
        <ele>146.8</ele>
        <time>2022-06-12T15:00:03Z</time>
      </trkpt>
      <trkpt lat="48.24849" lon="-3.4303">
        <ele>146.8</ele>
        <time>2022-06-12T15:00:04Z</time>
      </trkpt>
      <trkpt lat="48.24849" lon="-3.4303">
        <ele>146.8</ele>
        <time>2022-06-12T15:00:05Z</time>
      </trkpt>
      <trkpt lat="48.24849" lon="-3.4303">
        <ele>146.8</ele>
        <time>2022-06-12T15:00:06Z</time>
      </trkpt>
      <trkpt lat="48.24849" lon="-3.4303">
        <ele>146.8</ele>
        <time>2022-06-12T15:00:07Z</time>
      </trkpt>
      <trkpt lat="48.24849" lon="-3.4303">
        <ele>146.8</ele>
        <time>2022-06-12T15:00:08Z</time>
      </trkpt>
      <trkpt lat="48.24849" lon="-3.4303">
        <ele>146.8</ele>
        <time>2022-06-12T15:00:09Z</time>
      </trkpt>
      <trkpt lat="48.24849" lon="-3.4303">
        <ele>146.8</ele>
        <time>2022-06-12T15:00:10Z</time>
      </trkpt>
      <trkpt lat="48.24849" lon="-3.4303">
        <ele>146.8</ele>
        <time>2022-06-12T15:00:11Z</time>
      </trkpt>
      <trkpt lat="48.24849" lon="-3.4303">
        <ele>146.8</ele>
        <time>2022-06-12T15:00:12Z</time>
      </trkpt>
      <trkpt lat="48.24849" lon="-3.4303">
        <ele>146.8</ele>
        <time>2022-06-12T15:00:13Z</time>
      </trkpt>
      <trkpt lat="48.24849" lon="-3.4303">
        <ele>146.8</ele>
        <time>2022-06-12T15:00:14Z</time>
      </trkpt>
      <trkpt lat="48.24849" lon="-3.4303">
        <ele>146.8</ele>
        <time>2022-06-12T15:00:15Z</time>
      </trkpt>
      <trkpt lat="48.24849" lon="-3.4303">
        <ele>146.8</ele>
        <time>2022-06-12T15:00:16Z</time>
      </trkpt>
      <trkpt lat="48.24849" lon="-3.4303">
        <ele>146.8</ele>
        <time>2022-06-12T15:00:17Z</time>
      </trkpt>
      <trkpt lat="48.24849" lon="-3.4303">
        <ele>146.8</ele>
        <time>2022-06-12T15:00:18Z</time>
      </trkpt>
      <trkpt lat="48.24849" lon="-3.4303">
        <ele>146.8</ele>
        <time>2022-06-12T15:00:19Z</time>
      </trkpt>
      <trkpt lat="48.24849" lon="-3.4303">
        <ele>146.8</ele>
        <time>2022-06-12T15:00:20Z</time>
      </trkpt>
      <trkpt lat="48.24849" lon="-3.4303">
        <ele>146.8</ele>
        <time>2022-06-12T15:00:21Z</time>
      </trkpt>
      <trkpt lat="48.24849" lon="-3.4303">
        <ele>146.8</ele>
        <time>2022-06-12T15:00:22Z</time>
      </trkpt>
      <trkpt lat="48.24849" lon="-3.4303">
        <ele>146.8</ele>
        <time>2022-06-12T15:00:23Z</time>
      </trkpt>
      <trkpt lat="48.24849" lon="-3.4303">
        <ele>146.8</ele>
        <time>2022-06-12T15:00:24Z</time>
      </trkpt>
      <trkpt lat="48.24849" lon="-3.4303">
        <ele>146.8</ele>
        <time>2022-06-12T15:00:25Z</time>
      </trkpt>
      <trkpt lat="48.24849" lon="-3.4303">
        <ele>146.8</ele>
        <time>2022-06-12T15:00:26Z</time>
      </trkpt>
      <trkpt lat="48.24849" lon="-3.4303">
        <ele>146.8</ele>
        <time>2022-06-12T15:00:27Z</time>
      </trkpt>
      <trkpt lat="48.24849" lon="-3.4303">
        <ele>146.8</ele>
        <time>2022-06-12T15:00:28Z</time>
      </trkpt>
      <trkpt lat="48.24849" lon="-3.4303">
        <ele>146.8</ele>
        <time>2022-06-12T15:00:29Z</time>
      </trkpt>
      <trkpt lat="48.24849" lon="-3.4303">
        <ele>146.8</ele>
        <time>2022-06-12T15:00:30Z</time>
      </trkpt>
      <trkpt lat="48.24849" lon="-3.4303">
        <ele>146.8</ele>
        <time>2022-06-12T15:00:31Z</time>
      </trkpt>
      <trkpt lat="48.24849" lon="-3.4303">
        <ele>146.8</ele>
        <time>2022-06-12T15:00:32Z</time>
      </trkpt>
      <trkpt lat="48.24849" lon="-3.4303">
        <ele>146.8</ele>
        <time>2022-06-12T15:00:33Z</time>
      </trkpt>
      <trkpt lat="48.24849" lon="-3.4303">
        <ele>146.8</ele>
        <time>2022-06-12T15:00:34Z</time>
      </trkpt>
      <trkpt lat="48.24849" lon="-3.4303">
        <ele>146.8</ele>
        <time>2022-06-12T15:00:35Z</time>
      </trkpt>
      <trkpt lat="48.24849" lon="-3.4303">
        <ele>146.8</ele>
        <time>2022-06-12T15:00:36Z</time>
      </trkpt>
      <trkpt lat="48.24849" lon="-3.4303">
        <ele>146.8</ele>
        <time>2022-06-12T15:00:37Z</time>
      </trkpt>
      <trkpt lat="48.24849" lon="-3.4303">
        <ele>146.8</ele>
        <time>2022-06-12T15:00:38Z</time>
      </trkpt>
      <trkpt lat="48.24849" lon="-3.4303">
        <ele>146.8</ele>
        <time>2022-06-12T15:00:39Z</time>
      </trkpt>
      <trkpt lat="48.24849" lon="-3.4303">
        <ele>146.8</ele>
        <time>2022-06-12T15:00:40Z</time>
      </trkpt>
      <trkpt lat="48.24849" lon="-3.4303">
        <ele>146.8</ele>
        <time>2022-06-12T15:00:41Z</time>
      </trkpt>
      <trkpt lat="48.24849" lon="-3.4303">
        <ele>146.8</ele>
        <time>2022-06-12T15:00:42Z</time>
      </trkpt>
      <trkpt lat="48.24849" lon="-3.4303">
        <ele>146.8</ele>
        <time>2022-06-12T15:00:43Z</time>
      </trkpt>
      <trkpt lat="48.24849" lon="-3.4303">
        <ele>146.8</ele>
        <time>2022-06-12T15:00:44Z</time>
      </trkpt>
      <trkpt lat="48.24849" lon="-3.4303">
        <ele>146.8</ele>
        <time>2022-06-12T15:00:45Z</time>
      </trkpt>
      <trkpt lat="48.24849" lon="-3.4303">
        <ele>146.8</ele>
        <time>2022-06-12T15:00:46Z</time>
      </trkpt>
      <trkpt lat="48.24849" lon="-3.4303">
        <ele>146.8</ele>
        <time>2022-06-12T15:00:47Z</time>
      </trkpt>
      <trkpt lat="48.24849" lon="-3.4303">
        <ele>146.8</ele>
        <time>2022-06-12T15:00:48Z</time>
      </trkpt>
      <trkpt lat="48.24849" lon="-3.4303">
        <ele>146.8</ele>
        <time>2022-06-12T15:00:49Z</time>
      </trkpt>
      <trkpt lat="48.24849" lon="-3.4303">
        <ele>146.8</ele>
        <time>2022-06-12T15:00:50Z</time>
      </trkpt>
      <trkpt lat="48.24849" lon="-3.4303">
        <ele>146.8</ele>
        <time>2022-06-12T15:00:51Z</time>
      </trkpt>
      <trkpt lat="48.24849" lon="-3.4303">
        <ele>146.8</ele>
        <time>2022-06-12T15:00:52Z</time>
      </trkpt>
      <trkpt lat="48.24849" lon="-3.4303">
        <ele>146.8</ele>
        <time>2022-06-12T15:00:53Z</time>
      </trkpt>
      <trkpt lat="48.24849" lon="-3.4303">
        <ele>146.8</ele>
        <time>2022-06-12T15:00:54Z</time>
      </trkpt>
      <trkpt lat="48.24849" lon="-3.43029">
        <ele>146.8</ele>
        <time>2022-06-12T15:00:55Z</time>
      </trkpt>
      <trkpt lat="48.24849" lon="-3.43029">
        <ele>146.8</ele>
        <time>2022-06-12T15:00:56Z</time>
      </trkpt>
      <trkpt lat="48.24849" lon="-3.43029">
        <ele>146.8</ele>
        <time>2022-06-12T15:00:57Z</time>
      </trkpt>
      <trkpt lat="48.24849" lon="-3.43029">
        <ele>146.8</ele>
        <time>2022-06-12T15:00:58Z</time>
      </trkpt>
      <trkpt lat="48.24849" lon="-3.43029">
        <ele>146.8</ele>
        <time>2022-06-12T15:00:59Z</time>
      </trkpt>
      <trkpt lat="48.24849" lon="-3.43029">
        <ele>146.8</ele>
        <time>2022-06-12T15:01:00Z</time>
      </trkpt>
      <trkpt lat="48.24849" lon="-3.43029">
        <ele>146.8</ele>
        <time>2022-06-12T15:01:01Z</time>
      </trkpt>
      <trkpt lat="48.24849" lon="-3.43029">
        <ele>146.8</ele>
        <time>2022-06-12T15:01:02Z</time>
      </trkpt>
      <trkpt lat="48.24849" lon="-3.43029">
        <ele>146.8</ele>
        <time>2022-06-12T15:01:03Z</time>
      </trkpt>
      <trkpt lat="48.24849" lon="-3.43029">
        <ele>146.8</ele>
        <time>2022-06-12T15:01:04Z</time>
      </trkpt>
      <trkpt lat="48.24849" lon="-3.43029">
        <ele>146.8</ele>
        <time>2022-06-12T15:01:05Z</time>
      </trkpt>
      <trkpt lat="48.24849" lon="-3.43029">
        <ele>146.8</ele>
        <time>2022-06-12T15:01:06Z</time>
      </trkpt>
      <trkpt lat="48.24849" lon="-3.43029">
        <ele>146.8</ele>
        <time>2022-06-12T15:01:07Z</time>
      </trkpt>
      <trkpt lat="48.24849" lon="-3.43029">
        <ele>146.8</ele>
        <time>2022-06-12T15:01:08Z</time>
      </trkpt>
      <trkpt lat="48.24849" lon="-3.43029">
        <ele>146.8</ele>
        <time>2022-06-12T15:01:09Z</time>
      </trkpt>
      <trkpt lat="48.24849" lon="-3.43029">
        <ele>146.8</ele>
        <time>2022-06-12T15:01:10Z</time>
      </trkpt>
      <trkpt lat="48.24849" lon="-3.43029">
        <ele>146.8</ele>
        <time>2022-06-12T15:01:11Z</time>
      </trkpt>
      <trkpt lat="48.24849" lon="-3.43029">
        <ele>146.8</ele>
        <time>2022-06-12T15:01:12Z</time>
      </trkpt>
      <trkpt lat="48.24849" lon="-3.43029">
        <ele>146.8</ele>
        <time>2022-06-12T15:01:13Z</time>
      </trkpt>
      <trkpt lat="48.24849" lon="-3.43029">
        <ele>146.8</ele>
        <time>2022-06-12T15:01:14Z</time>
      </trkpt>
      <trkpt lat="48.24849" lon="-3.43029">
        <ele>146.8</ele>
        <time>2022-06-12T15:01:15Z</time>
      </trkpt>
      <trkpt lat="48.24849" lon="-3.43029">
        <ele>146.8</ele>
        <time>2022-06-12T15:01:16Z</time>
      </trkpt>
      <trkpt lat="48.24849" lon="-3.43029">
        <ele>146.8</ele>
        <time>2022-06-12T15:01:17Z</time>
      </trkpt>
      <trkpt lat="48.24849" lon="-3.43028">
        <ele>146.8</ele>
        <time>2022-06-12T15:01:18Z</time>
      </trkpt>
      <trkpt lat="48.24849" lon="-3.43028">
        <ele>146.8</ele>
        <time>2022-06-12T15:01:19Z</time>
      </trkpt>
      <trkpt lat="48.24848" lon="-3.43028">
        <ele>146.8</ele>
        <time>2022-06-12T15:01:20Z</time>
      </trkpt>
      <trkpt lat="48.24848" lon="-3.43028">
        <ele>146.8</ele>
        <time>2022-06-12T15:01:21Z</time>
      </trkpt>
      <trkpt lat="48.24849" lon="-3.43028">
        <ele>146.8</ele>
        <time>2022-06-12T15:01:22Z</time>
      </trkpt>
      <trkpt lat="48.24849" lon="-3.43027">
        <ele>146.8</ele>
        <time>2022-06-12T15:01:24Z</time>
      </trkpt>
      <trkpt lat="48.24849" lon="-3.43027">
        <ele>146.8</ele>
        <time>2022-06-12T15:01:25Z</time>
      </trkpt>
      <trkpt lat="48.24848" lon="-3.43026">
        <ele>146.8</ele>
        <time>2022-06-12T15:01:26Z</time>
      </trkpt>
      <trkpt lat="48.24848" lon="-3.43026">
        <ele>146.8</ele>
        <time>2022-06-12T15:01:27Z</time>
      </trkpt>
      <trkpt lat="48.24848" lon="-3.43025">
        <ele>146.8</ele>
        <time>2022-06-12T15:01:28Z</time>
      </trkpt>
      <trkpt lat="48.24847" lon="-3.43025">
        <ele>146.8</ele>
        <time>2022-06-12T15:01:29Z</time>
      </trkpt>
      <trkpt lat="48.24848" lon="-3.43025">
        <ele>146.8</ele>
        <time>2022-06-12T15:01:30Z</time>
      </trkpt>
      <trkpt lat="48.24847" lon="-3.43026">
        <ele>146.8</ele>
        <time>2022-06-12T15:01:31Z</time>
      </trkpt>
      <trkpt lat="48.24844" lon="-3.43026">
        <ele>146.8</ele>
        <time>2022-06-12T15:01:33Z</time>
      </trkpt>
      <trkpt lat="48.24843" lon="-3.43026">
        <ele>146.8</ele>
        <time>2022-06-12T15:01:34Z</time>
      </trkpt>
      <trkpt lat="48.24841" lon="-3.43026">
        <ele>146.8</ele>
        <time>2022-06-12T15:01:35Z</time>
      </trkpt>
      <trkpt lat="48.24838" lon="-3.43026">
        <ele>146.8</ele>
        <time>2022-06-12T15:01:36Z</time>
      </trkpt>
      <trkpt lat="48.24837" lon="-3.43026">
        <ele>146.8</ele>
        <time>2022-06-12T15:01:37Z</time>
      </trkpt>
      <trkpt lat="48.24836" lon="-3.43025">
        <ele>146.8</ele>
        <time>2022-06-12T15:01:38Z</time>
      </trkpt>
      <trkpt lat="48.24835" lon="-3.43025">
        <ele>146.8</ele>
        <time>2022-06-12T15:01:39Z</time>
      </trkpt>
      <trkpt lat="48.24834" lon="-3.43025">
        <ele>146.8</ele>
        <time>2022-06-12T15:01:40Z</time>
      </trkpt>
      <trkpt lat="48.24833" lon="-3.43024">
        <ele>146.8</ele>
        <time>2022-06-12T15:01:41Z</time>
      </trkpt>
      <trkpt lat="48.24833" lon="-3.43024">
        <ele>146.8</ele>
        <time>2022-06-12T15:01:42Z</time>
      </trkpt>
      <trkpt lat="48.24833" lon="-3.43024">
        <ele>146.8</ele>
        <time>2022-06-12T15:01:43Z</time>
      </trkpt>
      <trkpt lat="48.24833" lon="-3.43025">
        <ele>146.8</ele>
        <time>2022-06-12T15:01:44Z</time>
      </trkpt>
      <trkpt lat="48.24833" lon="-3.43025">
        <ele>146.8</ele>
        <time>2022-06-12T15:01:45Z</time>
      </trkpt>
      <trkpt lat="48.24833" lon="-3.43024">
        <ele>146.8</ele>
        <time>2022-06-12T15:01:46Z</time>
      </trkpt>
      <trkpt lat="48.24832" lon="-3.43024">
        <ele>146.8</ele>
        <time>2022-06-12T15:01:47Z</time>
      </trkpt>
      <trkpt lat="48.24832" lon="-3.43024">
        <ele>146.8</ele>
        <time>2022-06-12T15:01:48Z</time>
      </trkpt>
      <trkpt lat="48.24832" lon="-3.43023">
        <ele>146.8</ele>
        <time>2022-06-12T15:01:49Z</time>
      </trkpt>
      <trkpt lat="48.24832" lon="-3.43022">
        <ele>146.8</ele>
        <time>2022-06-12T15:01:50Z</time>
      </trkpt>
      <trkpt lat="48.24832" lon="-3.43022">
        <ele>146.8</ele>
        <time>2022-06-12T15:01:51Z</time>
      </trkpt>
      <trkpt lat="48.24832" lon="-3.43021">
        <ele>146.8</ele>
        <time>2022-06-12T15:01:52Z</time>
      </trkpt>
      <trkpt lat="48.24832" lon="-3.43021">
        <ele>146.8</ele>
        <time>2022-06-12T15:01:53Z</time>
      </trkpt>
      <trkpt lat="48.24832" lon="-3.43021">
        <ele>146.8</ele>
        <time>2022-06-12T15:01:54Z</time>
      </trkpt>
      <trkpt lat="48.24832" lon="-3.43021">
        <ele>146.8</ele>
        <time>2022-06-12T15:01:55Z</time>
      </trkpt>
      <trkpt lat="48.24832" lon="-3.43021">
        <ele>146.8</ele>
        <time>2022-06-12T15:01:56Z</time>
      </trkpt>
      <trkpt lat="48.24832" lon="-3.43021">
        <ele>146.8</ele>
        <time>2022-06-12T15:01:57Z</time>
      </trkpt>
      <trkpt lat="48.24832" lon="-3.43021">
        <ele>146.8</ele>
        <time>2022-06-12T15:01:58Z</time>
      </trkpt>
      <trkpt lat="48.24832" lon="-3.43021">
        <ele>146.8</ele>
        <time>2022-06-12T15:01:59Z</time>
      </trkpt>
      <trkpt lat="48.24832" lon="-3.43021">
        <ele>146.8</ele>
        <time>2022-06-12T15:02:00Z</time>
      </trkpt>
      <trkpt lat="48.24832" lon="-3.43021">
        <ele>146.8</ele>
        <time>2022-06-12T15:02:01Z</time>
      </trkpt>
      <trkpt lat="48.24832" lon="-3.43021">
        <ele>146.8</ele>
        <time>2022-06-12T15:02:02Z</time>
      </trkpt>
      <trkpt lat="48.24832" lon="-3.43021">
        <ele>146.8</ele>
        <time>2022-06-12T15:02:03Z</time>
      </trkpt>
      <trkpt lat="48.24832" lon="-3.43021">
        <ele>146.8</ele>
        <time>2022-06-12T15:02:04Z</time>
      </trkpt>
      <trkpt lat="48.24832" lon="-3.43021">
        <ele>146.8</ele>
        <time>2022-06-12T15:02:05Z</time>
      </trkpt>
      <trkpt lat="48.24832" lon="-3.43021">
        <ele>146.8</ele>
        <time>2022-06-12T15:02:06Z</time>
      </trkpt>
      <trkpt lat="48.24832" lon="-3.43021">
        <ele>146.8</ele>
        <time>2022-06-12T15:02:07Z</time>
      </trkpt>
      <trkpt lat="48.24832" lon="-3.43021">
        <ele>146.8</ele>
        <time>2022-06-12T15:02:08Z</time>
      </trkpt>
      <trkpt lat="48.24832" lon="-3.43021">
        <ele>146.8</ele>
        <time>2022-06-12T15:02:09Z</time>
      </trkpt>
      <trkpt lat="48.24832" lon="-3.43021">
        <ele>146.8</ele>
        <time>2022-06-12T15:02:10Z</time>
      </trkpt>
      <trkpt lat="48.24832" lon="-3.43021">
        <ele>146.8</ele>
        <time>2022-06-12T15:02:11Z</time>
      </trkpt>
      <trkpt lat="48.24832" lon="-3.43021">
        <ele>146.8</ele>
        <time>2022-06-12T15:02:12Z</time>
      </trkpt>
      <trkpt lat="48.24832" lon="-3.43021">
        <ele>146.8</ele>
        <time>2022-06-12T15:02:13Z</time>
      </trkpt>
      <trkpt lat="48.24832" lon="-3.43021">
        <ele>146.8</ele>
        <time>2022-06-12T15:02:14Z</time>
      </trkpt>
      <trkpt lat="48.24832" lon="-3.43021">
        <ele>146.8</ele>
        <time>2022-06-12T15:02:15Z</time>
      </trkpt>
      <trkpt lat="48.24832" lon="-3.43021">
        <ele>146.8</ele>
        <time>2022-06-12T15:02:16Z</time>
      </trkpt>
      <trkpt lat="48.24832" lon="-3.43021">
        <ele>146.8</ele>
        <time>2022-06-12T15:02:17Z</time>
      </trkpt>
      <trkpt lat="48.24832" lon="-3.43021">
        <ele>146.8</ele>
        <time>2022-06-12T15:02:18Z</time>
      </trkpt>
      <trkpt lat="48.24832" lon="-3.43021">
        <ele>146.8</ele>
        <time>2022-06-12T15:02:19Z</time>
      </trkpt>
      <trkpt lat="48.24832" lon="-3.43021">
        <ele>146.8</ele>
        <time>2022-06-12T15:02:20Z</time>
      </trkpt>
      <trkpt lat="48.24832" lon="-3.43021">
        <ele>146.8</ele>
        <time>2022-06-12T15:02:21Z</time>
      </trkpt>
      <trkpt lat="48.24832" lon="-3.43021">
        <ele>146.8</ele>
        <time>2022-06-12T15:02:22Z</time>
      </trkpt>
      <trkpt lat="48.24832" lon="-3.43021">
        <ele>146.8</ele>
        <time>2022-06-12T15:02:23Z</time>
      </trkpt>
      <trkpt lat="48.24832" lon="-3.43021">
        <ele>146.8</ele>
        <time>2022-06-12T15:02:24Z</time>
      </trkpt>
      <trkpt lat="48.24832" lon="-3.43021">
        <ele>146.8</ele>
        <time>2022-06-12T15:02:25Z</time>
      </trkpt>
      <trkpt lat="48.24832" lon="-3.43021">
        <ele>146.8</ele>
        <time>2022-06-12T15:02:26Z</time>
      </trkpt>
      <trkpt lat="48.24832" lon="-3.43021">
        <ele>146.8</ele>
        <time>2022-06-12T15:02:27Z</time>
      </trkpt>
      <trkpt lat="48.24832" lon="-3.43021">
        <ele>146.8</ele>
        <time>2022-06-12T15:02:28Z</time>
      </trkpt>
      <trkpt lat="48.24832" lon="-3.43021">
        <ele>146.8</ele>
        <time>2022-06-12T15:02:29Z</time>
      </trkpt>
      <trkpt lat="48.24832" lon="-3.43021">
        <ele>146.8</ele>
        <time>2022-06-12T15:02:30Z</time>
      </trkpt>
      <trkpt lat="48.24832" lon="-3.43021">
        <ele>146.8</ele>
        <time>2022-06-12T15:02:31Z</time>
      </trkpt>
      <trkpt lat="48.24832" lon="-3.43021">
        <ele>146.8</ele>
        <time>2022-06-12T15:02:32Z</time>
      </trkpt>
      <trkpt lat="48.24832" lon="-3.43021">
        <ele>146.8</ele>
        <time>2022-06-12T15:02:33Z</time>
      </trkpt>
      <trkpt lat="48.24832" lon="-3.43021">
        <ele>146.8</ele>
        <time>2022-06-12T15:02:34Z</time>
      </trkpt>
      <trkpt lat="48.24832" lon="-3.43021">
        <ele>146.8</ele>
        <time>2022-06-12T15:02:35Z</time>
      </trkpt>
      <trkpt lat="48.24832" lon="-3.43021">
        <ele>146.8</ele>
        <time>2022-06-12T15:02:36Z</time>
      </trkpt>
      <trkpt lat="48.24832" lon="-3.43021">
        <ele>146.8</ele>
        <time>2022-06-12T15:02:37Z</time>
      </trkpt>
      <trkpt lat="48.24832" lon="-3.43021">
        <ele>146.8</ele>
        <time>2022-06-12T15:02:38Z</time>
      </trkpt>
      <trkpt lat="48.24832" lon="-3.43021">
        <ele>146.8</ele>
        <time>2022-06-12T15:02:39Z</time>
      </trkpt>
      <trkpt lat="48.24832" lon="-3.43021">
        <ele>146.8</ele>
        <time>2022-06-12T15:02:40Z</time>
      </trkpt>
      <trkpt lat="48.24832" lon="-3.43021">
        <ele>146.8</ele>
        <time>2022-06-12T15:02:41Z</time>
      </trkpt>
      <trkpt lat="48.24832" lon="-3.43021">
        <ele>146.8</ele>
        <time>2022-06-12T15:02:42Z</time>
      </trkpt>
      <trkpt lat="48.24832" lon="-3.43021">
        <ele>146.8</ele>
        <time>2022-06-12T15:02:43Z</time>
      </trkpt>
      <trkpt lat="48.24832" lon="-3.43021">
        <ele>146.8</ele>
        <time>2022-06-12T15:02:44Z</time>
      </trkpt>
      <trkpt lat="48.24832" lon="-3.43021">
        <ele>146.8</ele>
        <time>2022-06-12T15:02:45Z</time>
      </trkpt>
      <trkpt lat="48.24832" lon="-3.43021">
        <ele>146.8</ele>
        <time>2022-06-12T15:02:46Z</time>
      </trkpt>
      <trkpt lat="48.24832" lon="-3.43021">
        <ele>146.8</ele>
        <time>2022-06-12T15:02:47Z</time>
      </trkpt>
      <trkpt lat="48.24832" lon="-3.43021">
        <ele>146.8</ele>
        <time>2022-06-12T15:02:48Z</time>
      </trkpt>
      <trkpt lat="48.24832" lon="-3.43021">
        <ele>146.8</ele>
        <time>2022-06-12T15:02:49Z</time>
      </trkpt>
      <trkpt lat="48.24832" lon="-3.43021">
        <ele>146.8</ele>
        <time>2022-06-12T15:02:50Z</time>
      </trkpt>
      <trkpt lat="48.24832" lon="-3.43021">
        <ele>146.8</ele>
        <time>2022-06-12T15:02:51Z</time>
      </trkpt>
      <trkpt lat="48.24832" lon="-3.43021">
        <ele>146.8</ele>
        <time>2022-06-12T15:02:52Z</time>
      </trkpt>
      <trkpt lat="48.24832" lon="-3.43021">
        <ele>146.8</ele>
        <time>2022-06-12T15:02:53Z</time>
      </trkpt>
      <trkpt lat="48.24832" lon="-3.43021">
        <ele>146.8</ele>
        <time>2022-06-12T15:02:54Z</time>
      </trkpt>
      <trkpt lat="48.24832" lon="-3.43021">
        <ele>146.8</ele>
        <time>2022-06-12T15:02:55Z</time>
      </trkpt>
      <trkpt lat="48.24832" lon="-3.43021">
        <ele>146.8</ele>
        <time>2022-06-12T15:02:56Z</time>
      </trkpt>
      <trkpt lat="48.24832" lon="-3.43021">
        <ele>146.8</ele>
        <time>2022-06-12T15:02:57Z</time>
      </trkpt>
      <trkpt lat="48.24832" lon="-3.43021">
        <ele>146.8</ele>
        <time>2022-06-12T15:02:58Z</time>
      </trkpt>
      <trkpt lat="48.24832" lon="-3.43021">
        <ele>146.8</ele>
        <time>2022-06-12T15:02:59Z</time>
      </trkpt>
      <trkpt lat="48.24832" lon="-3.43021">
        <ele>146.8</ele>
        <time>2022-06-12T15:03:00Z</time>
      </trkpt>
      <trkpt lat="48.24832" lon="-3.43021">
        <ele>146.8</ele>
        <time>2022-06-12T15:03:01Z</time>
      </trkpt>
      <trkpt lat="48.24832" lon="-3.43021">
        <ele>146.8</ele>
        <time>2022-06-12T15:03:02Z</time>
      </trkpt>
      <trkpt lat="48.24832" lon="-3.43021">
        <ele>146.8</ele>
        <time>2022-06-12T15:03:03Z</time>
      </trkpt>
      <trkpt lat="48.24832" lon="-3.43021">
        <ele>146.8</ele>
        <time>2022-06-12T15:03:04Z</time>
      </trkpt>
      <trkpt lat="48.24832" lon="-3.43021">
        <ele>146.8</ele>
        <time>2022-06-12T15:03:05Z</time>
      </trkpt>
      <trkpt lat="48.24832" lon="-3.43021">
        <ele>146.8</ele>
        <time>2022-06-12T15:03:06Z</time>
      </trkpt>
      <trkpt lat="48.24832" lon="-3.43021">
        <ele>146.8</ele>
        <time>2022-06-12T15:03:07Z</time>
      </trkpt>
      <trkpt lat="48.24832" lon="-3.43021">
        <ele>146.8</ele>
        <time>2022-06-12T15:03:08Z</time>
      </trkpt>
      <trkpt lat="48.24832" lon="-3.43021">
        <ele>146.8</ele>
        <time>2022-06-12T15:03:09Z</time>
      </trkpt>
      <trkpt lat="48.24832" lon="-3.43021">
        <ele>146.8</ele>
        <time>2022-06-12T15:03:10Z</time>
      </trkpt>
      <trkpt lat="48.24832" lon="-3.43021">
        <ele>146.8</ele>
        <time>2022-06-12T15:03:11Z</time>
      </trkpt>
      <trkpt lat="48.24832" lon="-3.43021">
        <ele>146.8</ele>
        <time>2022-06-12T15:03:12Z</time>
      </trkpt>
      <trkpt lat="48.24832" lon="-3.43021">
        <ele>146.8</ele>
        <time>2022-06-12T15:03:13Z</time>
      </trkpt>
      <trkpt lat="48.24832" lon="-3.43021">
        <ele>146.8</ele>
        <time>2022-06-12T15:03:14Z</time>
      </trkpt>
      <trkpt lat="48.24832" lon="-3.43021">
        <ele>146.8</ele>
        <time>2022-06-12T15:03:15Z</time>
      </trkpt>
      <trkpt lat="48.24832" lon="-3.43021">
        <ele>146.8</ele>
        <time>2022-06-12T15:03:16Z</time>
      </trkpt>
      <trkpt lat="48.24832" lon="-3.43021">
        <ele>146.8</ele>
        <time>2022-06-12T15:03:17Z</time>
      </trkpt>
      <trkpt lat="48.24832" lon="-3.43021">
        <ele>146.8</ele>
        <time>2022-06-12T15:03:18Z</time>
      </trkpt>
      <trkpt lat="48.24832" lon="-3.43021">
        <ele>146.8</ele>
        <time>2022-06-12T15:03:19Z</time>
      </trkpt>
      <trkpt lat="48.24832" lon="-3.43021">
        <ele>146.8</ele>
        <time>2022-06-12T15:03:20Z</time>
      </trkpt>
      <trkpt lat="48.24832" lon="-3.43021">
        <ele>146.8</ele>
        <time>2022-06-12T15:03:21Z</time>
      </trkpt>
      <trkpt lat="48.24832" lon="-3.43021">
        <ele>146.8</ele>
        <time>2022-06-12T15:03:22Z</time>
      </trkpt>
      <trkpt lat="48.24832" lon="-3.43021">
        <ele>146.8</ele>
        <time>2022-06-12T15:03:23Z</time>
      </trkpt>
      <trkpt lat="48.24832" lon="-3.43021">
        <ele>146.8</ele>
        <time>2022-06-12T15:03:24Z</time>
      </trkpt>
      <trkpt lat="48.24832" lon="-3.43021">
        <ele>146.8</ele>
        <time>2022-06-12T15:03:25Z</time>
      </trkpt>
      <trkpt lat="48.24832" lon="-3.43021">
        <ele>146.8</ele>
        <time>2022-06-12T15:03:26Z</time>
      </trkpt>
      <trkpt lat="48.24832" lon="-3.43021">
        <ele>146.8</ele>
        <time>2022-06-12T15:03:27Z</time>
      </trkpt>
      <trkpt lat="48.24832" lon="-3.43021">
        <ele>146.8</ele>
        <time>2022-06-12T15:03:28Z</time>
      </trkpt>
      <trkpt lat="48.24832" lon="-3.43021">
        <ele>146.8</ele>
        <time>2022-06-12T15:03:29Z</time>
      </trkpt>
      <trkpt lat="48.24832" lon="-3.43021">
        <ele>146.8</ele>
        <time>2022-06-12T15:03:30Z</time>
      </trkpt>
      <trkpt lat="48.24832" lon="-3.43021">
        <ele>146.8</ele>
        <time>2022-06-12T15:03:31Z</time>
      </trkpt>
      <trkpt lat="48.24832" lon="-3.43021">
        <ele>146.8</ele>
        <time>2022-06-12T15:03:32Z</time>
      </trkpt>
      <trkpt lat="48.24832" lon="-3.43021">
        <ele>146.8</ele>
        <time>2022-06-12T15:03:33Z</time>
      </trkpt>
      <trkpt lat="48.24832" lon="-3.43021">
        <ele>146.8</ele>
        <time>2022-06-12T15:03:34Z</time>
      </trkpt>
      <trkpt lat="48.24832" lon="-3.43021">
        <ele>146.8</ele>
        <time>2022-06-12T15:03:35Z</time>
      </trkpt>
      <trkpt lat="48.24832" lon="-3.43021">
        <ele>146.8</ele>
        <time>2022-06-12T15:03:36Z</time>
      </trkpt>
      <trkpt lat="48.24832" lon="-3.43021">
        <ele>146.8</ele>
        <time>2022-06-12T15:03:37Z</time>
      </trkpt>
      <trkpt lat="48.24832" lon="-3.43021">
        <ele>146.8</ele>
        <time>2022-06-12T15:03:38Z</time>
      </trkpt>
      <trkpt lat="48.24832" lon="-3.43021">
        <ele>146.8</ele>
        <time>2022-06-12T15:03:39Z</time>
      </trkpt>
      <trkpt lat="48.24832" lon="-3.43021">
        <ele>146.8</ele>
        <time>2022-06-12T15:03:40Z</time>
      </trkpt>
      <trkpt lat="48.24832" lon="-3.43021">
        <ele>146.8</ele>
        <time>2022-06-12T15:03:41Z</time>
      </trkpt>
      <trkpt lat="48.24832" lon="-3.43021">
        <ele>146.8</ele>
        <time>2022-06-12T15:03:42Z</time>
      </trkpt>
      <trkpt lat="48.24832" lon="-3.43021">
        <ele>146.8</ele>
        <time>2022-06-12T15:03:43Z</time>
      </trkpt>
      <trkpt lat="48.24832" lon="-3.43021">
        <ele>146.8</ele>
        <time>2022-06-12T15:03:44Z</time>
      </trkpt>
      <trkpt lat="48.24832" lon="-3.43021">
        <ele>146.8</ele>
        <time>2022-06-12T15:03:45Z</time>
      </trkpt>
      <trkpt lat="48.24832" lon="-3.43021">
        <ele>146.8</ele>
        <time>2022-06-12T15:03:46Z</time>
      </trkpt>
      <trkpt lat="48.24832" lon="-3.43021">
        <ele>146.8</ele>
        <time>2022-06-12T15:03:47Z</time>
      </trkpt>
      <trkpt lat="48.24832" lon="-3.43021">
        <ele>146.8</ele>
        <time>2022-06-12T15:03:48Z</time>
      </trkpt>
      <trkpt lat="48.24832" lon="-3.43021">
        <ele>146.8</ele>
        <time>2022-06-12T15:03:49Z</time>
      </trkpt>
      <trkpt lat="48.24832" lon="-3.43021">
        <ele>146.8</ele>
        <time>2022-06-12T15:03:50Z</time>
      </trkpt>
      <trkpt lat="48.24832" lon="-3.43021">
        <ele>146.8</ele>
        <time>2022-06-12T15:03:51Z</time>
      </trkpt>
      <trkpt lat="48.24832" lon="-3.43021">
        <ele>146.8</ele>
        <time>2022-06-12T15:03:52Z</time>
      </trkpt>
      <trkpt lat="48.24832" lon="-3.43021">
        <ele>146.8</ele>
        <time>2022-06-12T15:03:53Z</time>
      </trkpt>
      <trkpt lat="48.24832" lon="-3.43021">
        <ele>146.8</ele>
        <time>2022-06-12T15:03:54Z</time>
      </trkpt>
      <trkpt lat="48.24832" lon="-3.43021">
        <ele>146.8</ele>
        <time>2022-06-12T15:03:55Z</time>
      </trkpt>
      <trkpt lat="48.24832" lon="-3.43021">
        <ele>146.8</ele>
        <time>2022-06-12T15:03:56Z</time>
      </trkpt>
      <trkpt lat="48.24832" lon="-3.43021">
        <ele>146.8</ele>
        <time>2022-06-12T15:03:57Z</time>
      </trkpt>
      <trkpt lat="48.24832" lon="-3.43021">
        <ele>146.8</ele>
        <time>2022-06-12T15:03:58Z</time>
      </trkpt>
      <trkpt lat="48.24832" lon="-3.43021">
        <ele>146.8</ele>
        <time>2022-06-12T15:03:59Z</time>
      </trkpt>
      <trkpt lat="48.24832" lon="-3.43021">
        <ele>146.8</ele>
        <time>2022-06-12T15:04:00Z</time>
      </trkpt>
      <trkpt lat="48.24832" lon="-3.43021">
        <ele>146.8</ele>
        <time>2022-06-12T15:04:01Z</time>
      </trkpt>
      <trkpt lat="48.24832" lon="-3.43021">
        <ele>146.8</ele>
        <time>2022-06-12T15:04:02Z</time>
      </trkpt>
      <trkpt lat="48.24832" lon="-3.43021">
        <ele>146.8</ele>
        <time>2022-06-12T15:04:03Z</time>
      </trkpt>
      <trkpt lat="48.24832" lon="-3.43021">
        <ele>146.8</ele>
        <time>2022-06-12T15:04:04Z</time>
      </trkpt>
      <trkpt lat="48.24832" lon="-3.43021">
        <ele>146.8</ele>
        <time>2022-06-12T15:04:05Z</time>
      </trkpt>
      <trkpt lat="48.24832" lon="-3.43021">
        <ele>146.8</ele>
        <time>2022-06-12T15:04:06Z</time>
      </trkpt>
      <trkpt lat="48.24832" lon="-3.43021">
        <ele>146.8</ele>
        <time>2022-06-12T15:04:07Z</time>
      </trkpt>
      <trkpt lat="48.24832" lon="-3.43021">
        <ele>146.8</ele>
        <time>2022-06-12T15:04:08Z</time>
      </trkpt>
      <trkpt lat="48.24832" lon="-3.43021">
        <ele>146.8</ele>
        <time>2022-06-12T15:04:09Z</time>
      </trkpt>
      <trkpt lat="48.24832" lon="-3.43021">
        <ele>146.8</ele>
        <time>2022-06-12T15:04:10Z</time>
      </trkpt>
      <trkpt lat="48.24832" lon="-3.43021">
        <ele>146.8</ele>
        <time>2022-06-12T15:04:11Z</time>
      </trkpt>
      <trkpt lat="48.24832" lon="-3.43021">
        <ele>146.8</ele>
        <time>2022-06-12T15:04:12Z</time>
      </trkpt>
      <trkpt lat="48.24832" lon="-3.43021">
        <ele>146.8</ele>
        <time>2022-06-12T15:04:13Z</time>
      </trkpt>
      <trkpt lat="48.24829" lon="-3.43023">
        <ele>146.8</ele>
        <time>2022-06-12T15:04:14Z</time>
      </trkpt>
      <trkpt lat="48.24826" lon="-3.43024">
        <ele>146.8</ele>
        <time>2022-06-12T15:04:15Z</time>
      </trkpt>
      <trkpt lat="48.24825" lon="-3.43024">
        <ele>146.8</ele>
        <time>2022-06-12T15:04:16Z</time>
      </trkpt>
      <trkpt lat="48.24824" lon="-3.43024">
        <ele>146.8</ele>
        <time>2022-06-12T15:04:17Z</time>
      </trkpt>
      <trkpt lat="48.24824" lon="-3.43024">
        <ele>146.8</ele>
        <time>2022-06-12T15:04:18Z</time>
      </trkpt>
      <trkpt lat="48.24824" lon="-3.43023">
        <ele>146.8</ele>
        <time>2022-06-12T15:04:19Z</time>
      </trkpt>
      <trkpt lat="48.24824" lon="-3.43023">
        <ele>146.8</ele>
        <time>2022-06-12T15:04:20Z</time>
      </trkpt>
      <trkpt lat="48.24824" lon="-3.43022">
        <ele>146.8</ele>
        <time>2022-06-12T15:04:21Z</time>
      </trkpt>
      <trkpt lat="48.24823" lon="-3.43019">
        <ele>146.8</ele>
        <time>2022-06-12T15:04:23Z</time>
      </trkpt>
      <trkpt lat="48.24823" lon="-3.43018">
        <ele>146.8</ele>
        <time>2022-06-12T15:04:24Z</time>
      </trkpt>
      <trkpt lat="48.24822" lon="-3.43016">
        <ele>146.8</ele>
        <time>2022-06-12T15:04:25Z</time>
      </trkpt>
      <trkpt lat="48.24821" lon="-3.43014">
        <ele>146.8</ele>
        <time>2022-06-12T15:04:26Z</time>
      </trkpt>
      <trkpt lat="48.2482" lon="-3.43012">
        <ele>146.9</ele>
        <time>2022-06-12T15:04:28Z</time>
      </trkpt>
      <trkpt lat="48.24818" lon="-3.43011">
        <ele>146.9</ele>
        <time>2022-06-12T15:04:29Z</time>
      </trkpt>
      <trkpt lat="48.24817" lon="-3.4301">
        <ele>146.9</ele>
        <time>2022-06-12T15:04:30Z</time>
      </trkpt>
      <trkpt lat="48.24816" lon="-3.43009">
        <ele>146.9</ele>
        <time>2022-06-12T15:04:31Z</time>
      </trkpt>
      <trkpt lat="48.24815" lon="-3.43008">
        <ele>146.9</ele>
        <time>2022-06-12T15:04:32Z</time>
      </trkpt>
      <trkpt lat="48.24814" lon="-3.43005">
        <ele>146.9</ele>
        <time>2022-06-12T15:04:34Z</time>
      </trkpt>
      <trkpt lat="48.24812" lon="-3.43004">
        <ele>146.9</ele>
        <time>2022-06-12T15:04:35Z</time>
      </trkpt>
      <trkpt lat="48.2481" lon="-3.43002">
        <ele>146.9</ele>
        <time>2022-06-12T15:04:37Z</time>
      </trkpt>
      <trkpt lat="48.24809" lon="-3.43002">
        <ele>146.9</ele>
        <time>2022-06-12T15:04:38Z</time>
      </trkpt>
      <trkpt lat="48.24807" lon="-3.43001">
        <ele>146.9</ele>
        <time>2022-06-12T15:04:39Z</time>
      </trkpt>
      <trkpt lat="48.24806" lon="-3.43">
        <ele>146.9</ele>
        <time>2022-06-12T15:04:40Z</time>
      </trkpt>
      <trkpt lat="48.24804" lon="-3.42998">
        <ele>146.9</ele>
        <time>2022-06-12T15:04:42Z</time>
      </trkpt>
      <trkpt lat="48.24803" lon="-3.42998">
        <ele>146.9</ele>
        <time>2022-06-12T15:04:43Z</time>
      </trkpt>
      <trkpt lat="48.24804" lon="-3.43">
        <ele>146.9</ele>
        <time>2022-06-12T15:04:44Z</time>
      </trkpt>
      <trkpt lat="48.24802" lon="-3.43001">
        <ele>146.9</ele>
        <time>2022-06-12T15:04:46Z</time>
      </trkpt>
      <trkpt lat="48.24801" lon="-3.43">
        <ele>146.9</ele>
        <time>2022-06-12T15:04:47Z</time>
      </trkpt>
      <trkpt lat="48.248" lon="-3.43">
        <ele>146.9</ele>
        <time>2022-06-12T15:04:48Z</time>
      </trkpt>
      <trkpt lat="48.24799" lon="-3.42999">
        <ele>146.9</ele>
        <time>2022-06-12T15:04:49Z</time>
      </trkpt>
      <trkpt lat="48.24799" lon="-3.42998">
        <ele>146.9</ele>
        <time>2022-06-12T15:04:50Z</time>
      </trkpt>
      <trkpt lat="48.24799" lon="-3.42997">
        <ele>146.9</ele>
        <time>2022-06-12T15:04:51Z</time>
      </trkpt>
      <trkpt lat="48.24798" lon="-3.42996">
        <ele>146.9</ele>
        <time>2022-06-12T15:04:53Z</time>
      </trkpt>
      <trkpt lat="48.24797" lon="-3.42995">
        <ele>146.9</ele>
        <time>2022-06-12T15:04:54Z</time>
      </trkpt>
      <trkpt lat="48.24795" lon="-3.42993">
        <ele>146.9</ele>
        <time>2022-06-12T15:04:56Z</time>
      </trkpt>
      <trkpt lat="48.24794" lon="-3.42992">
        <ele>146.9</ele>
        <time>2022-06-12T15:04:57Z</time>
      </trkpt>
      <trkpt lat="48.24793" lon="-3.42991">
        <ele>146.9</ele>
        <time>2022-06-12T15:04:58Z</time>
      </trkpt>
      <trkpt lat="48.24792" lon="-3.4299">
        <ele>146.9</ele>
        <time>2022-06-12T15:04:59Z</time>
      </trkpt>
      <trkpt lat="48.24792" lon="-3.42989">
        <ele>146.9</ele>
        <time>2022-06-12T15:05:01Z</time>
      </trkpt>
      <trkpt lat="48.24791" lon="-3.42987">
        <ele>146.9</ele>
        <time>2022-06-12T15:05:02Z</time>
      </trkpt>
      <trkpt lat="48.2479" lon="-3.42986">
        <ele>147</ele>
        <time>2022-06-12T15:05:03Z</time>
      </trkpt>
      <trkpt lat="48.24789" lon="-3.42985">
        <ele>147</ele>
        <time>2022-06-12T15:05:04Z</time>
      </trkpt>
      <trkpt lat="48.24789" lon="-3.42984">
        <ele>147</ele>
        <time>2022-06-12T15:05:05Z</time>
      </trkpt>
      <trkpt lat="48.24788" lon="-3.42983">
        <ele>147</ele>
        <time>2022-06-12T15:05:06Z</time>
      </trkpt>
      <trkpt lat="48.24788" lon="-3.42982">
        <ele>147</ele>
        <time>2022-06-12T15:05:07Z</time>
      </trkpt>
      <trkpt lat="48.24787" lon="-3.4298">
        <ele>147</ele>
        <time>2022-06-12T15:05:09Z</time>
      </trkpt>
      <trkpt lat="48.24786" lon="-3.42979">
        <ele>147</ele>
        <time>2022-06-12T15:05:10Z</time>
      </trkpt>
      <trkpt lat="48.24785" lon="-3.42978">
        <ele>147</ele>
        <time>2022-06-12T15:05:11Z</time>
      </trkpt>
      <trkpt lat="48.24784" lon="-3.42976">
        <ele>147</ele>
        <time>2022-06-12T15:05:12Z</time>
      </trkpt>
      <trkpt lat="48.24783" lon="-3.42975">
        <ele>147</ele>
        <time>2022-06-12T15:05:13Z</time>
      </trkpt>
      <trkpt lat="48.24782" lon="-3.42973">
        <ele>147</ele>
        <time>2022-06-12T15:05:14Z</time>
      </trkpt>
      <trkpt lat="48.24782" lon="-3.4297">
        <ele>147</ele>
        <time>2022-06-12T15:05:16Z</time>
      </trkpt>
      <trkpt lat="48.24782" lon="-3.42968">
        <ele>147</ele>
        <time>2022-06-12T15:05:17Z</time>
      </trkpt>
      <trkpt lat="48.24781" lon="-3.42966">
        <ele>147</ele>
        <time>2022-06-12T15:05:18Z</time>
      </trkpt>
      <trkpt lat="48.2478" lon="-3.42963">
        <ele>147</ele>
        <time>2022-06-12T15:05:19Z</time>
      </trkpt>
      <trkpt lat="48.2478" lon="-3.42961">
        <ele>147</ele>
        <time>2022-06-12T15:05:20Z</time>
      </trkpt>
      <trkpt lat="48.24779" lon="-3.42959">
        <ele>147</ele>
        <time>2022-06-12T15:05:21Z</time>
      </trkpt>
      <trkpt lat="48.24778" lon="-3.42958">
        <ele>147</ele>
        <time>2022-06-12T15:05:22Z</time>
      </trkpt>
      <trkpt lat="48.24777" lon="-3.42957">
        <ele>147</ele>
        <time>2022-06-12T15:05:23Z</time>
      </trkpt>
      <trkpt lat="48.24776" lon="-3.42957">
        <ele>147</ele>
        <time>2022-06-12T15:05:24Z</time>
      </trkpt>
      <trkpt lat="48.24774" lon="-3.42957">
        <ele>147</ele>
        <time>2022-06-12T15:05:25Z</time>
      </trkpt>
      <trkpt lat="48.24774" lon="-3.42956">
        <ele>147</ele>
        <time>2022-06-12T15:05:26Z</time>
      </trkpt>
      <trkpt lat="48.24773" lon="-3.42955">
        <ele>147</ele>
        <time>2022-06-12T15:05:27Z</time>
      </trkpt>
      <trkpt lat="48.24772" lon="-3.42954">
        <ele>147</ele>
        <time>2022-06-12T15:05:28Z</time>
      </trkpt>
      <trkpt lat="48.24771" lon="-3.42953">
        <ele>147</ele>
        <time>2022-06-12T15:05:29Z</time>
      </trkpt>
      <trkpt lat="48.24771" lon="-3.42951">
        <ele>147</ele>
        <time>2022-06-12T15:05:30Z</time>
      </trkpt>
      <trkpt lat="48.24769" lon="-3.42949">
        <ele>147</ele>
        <time>2022-06-12T15:05:31Z</time>
      </trkpt>
      <trkpt lat="48.24769" lon="-3.42948">
        <ele>147</ele>
        <time>2022-06-12T15:05:32Z</time>
      </trkpt>
      <trkpt lat="48.24768" lon="-3.42947">
        <ele>147</ele>
        <time>2022-06-12T15:05:33Z</time>
      </trkpt>
      <trkpt lat="48.24767" lon="-3.42946">
        <ele>146.9</ele>
        <time>2022-06-12T15:05:35Z</time>
      </trkpt>
      <trkpt lat="48.24766" lon="-3.42944">
        <ele>146.9</ele>
        <time>2022-06-12T15:05:36Z</time>
      </trkpt>
      <trkpt lat="48.24764" lon="-3.42942">
        <ele>146.9</ele>
        <time>2022-06-12T15:05:37Z</time>
      </trkpt>
      <trkpt lat="48.24764" lon="-3.42941">
        <ele>146.9</ele>
        <time>2022-06-12T15:05:38Z</time>
      </trkpt>
      <trkpt lat="48.24763" lon="-3.42941">
        <ele>147</ele>
        <time>2022-06-12T15:05:39Z</time>
      </trkpt>
      <trkpt lat="48.24762" lon="-3.42938">
        <ele>147</ele>
        <time>2022-06-12T15:05:40Z</time>
      </trkpt>
      <trkpt lat="48.24761" lon="-3.42937">
        <ele>147</ele>
        <time>2022-06-12T15:05:41Z</time>
      </trkpt>
      <trkpt lat="48.2476" lon="-3.42936">
        <ele>147</ele>
        <time>2022-06-12T15:05:42Z</time>
      </trkpt>
      <trkpt lat="48.24758" lon="-3.42933">
        <ele>147</ele>
        <time>2022-06-12T15:05:44Z</time>
      </trkpt>
      <trkpt lat="48.24757" lon="-3.42932">
        <ele>147</ele>
        <time>2022-06-12T15:05:45Z</time>
      </trkpt>
      <trkpt lat="48.24756" lon="-3.42929">
        <ele>147</ele>
        <time>2022-06-12T15:05:46Z</time>
      </trkpt>
      <trkpt lat="48.24755" lon="-3.42928">
        <ele>147</ele>
        <time>2022-06-12T15:05:48Z</time>
      </trkpt>
      <trkpt lat="48.24754" lon="-3.42927">
        <ele>147</ele>
        <time>2022-06-12T15:05:49Z</time>
      </trkpt>
      <trkpt lat="48.24753" lon="-3.42925">
        <ele>147</ele>
        <time>2022-06-12T15:05:50Z</time>
      </trkpt>
      <trkpt lat="48.24753" lon="-3.42924">
        <ele>147</ele>
        <time>2022-06-12T15:05:51Z</time>
      </trkpt>
      <trkpt lat="48.24752" lon="-3.42922">
        <ele>147</ele>
        <time>2022-06-12T15:05:52Z</time>
      </trkpt>
      <trkpt lat="48.24751" lon="-3.4292">
        <ele>147</ele>
        <time>2022-06-12T15:05:53Z</time>
      </trkpt>
      <trkpt lat="48.2475" lon="-3.42919">
        <ele>147</ele>
        <time>2022-06-12T15:05:54Z</time>
      </trkpt>
      <trkpt lat="48.24749" lon="-3.42917">
        <ele>147</ele>
        <time>2022-06-12T15:05:55Z</time>
      </trkpt>
      <trkpt lat="48.24748" lon="-3.42913">
        <ele>147</ele>
        <time>2022-06-12T15:05:56Z</time>
      </trkpt>
      <trkpt lat="48.24748" lon="-3.42911">
        <ele>147</ele>
        <time>2022-06-12T15:05:57Z</time>
      </trkpt>
      <trkpt lat="48.24746" lon="-3.42905">
        <ele>147</ele>
        <time>2022-06-12T15:05:59Z</time>
      </trkpt>
      <trkpt lat="48.24746" lon="-3.42903">
        <ele>147</ele>
        <time>2022-06-12T15:06:00Z</time>
      </trkpt>
      <trkpt lat="48.24745" lon="-3.42901">
        <ele>147</ele>
        <time>2022-06-12T15:06:01Z</time>
      </trkpt>
      <trkpt lat="48.24745" lon="-3.42899">
        <ele>147</ele>
        <time>2022-06-12T15:06:02Z</time>
      </trkpt>
      <trkpt lat="48.24744" lon="-3.42897">
        <ele>147</ele>
        <time>2022-06-12T15:06:03Z</time>
      </trkpt>
      <trkpt lat="48.24743" lon="-3.42893">
        <ele>147</ele>
        <time>2022-06-12T15:06:05Z</time>
      </trkpt>
      <trkpt lat="48.24742" lon="-3.42892">
        <ele>147</ele>
        <time>2022-06-12T15:06:06Z</time>
      </trkpt>
      <trkpt lat="48.24742" lon="-3.4289">
        <ele>146.9</ele>
        <time>2022-06-12T15:06:07Z</time>
      </trkpt>
      <trkpt lat="48.24741" lon="-3.42888">
        <ele>146.9</ele>
        <time>2022-06-12T15:06:08Z</time>
      </trkpt>
      <trkpt lat="48.2474" lon="-3.42885">
        <ele>146.9</ele>
        <time>2022-06-12T15:06:10Z</time>
      </trkpt>
      <trkpt lat="48.24739" lon="-3.42883">
        <ele>146.9</ele>
        <time>2022-06-12T15:06:11Z</time>
      </trkpt>
      <trkpt lat="48.24738" lon="-3.42881">
        <ele>146.9</ele>
        <time>2022-06-12T15:06:12Z</time>
      </trkpt>
      <trkpt lat="48.24737" lon="-3.42879">
        <ele>146.9</ele>
        <time>2022-06-12T15:06:13Z</time>
      </trkpt>
      <trkpt lat="48.24736" lon="-3.42876">
        <ele>146.9</ele>
        <time>2022-06-12T15:06:14Z</time>
      </trkpt>
      <trkpt lat="48.24736" lon="-3.42875">
        <ele>146.9</ele>
        <time>2022-06-12T15:06:15Z</time>
      </trkpt>
      <trkpt lat="48.24736" lon="-3.42873">
        <ele>146.9</ele>
        <time>2022-06-12T15:06:16Z</time>
      </trkpt>
      <trkpt lat="48.24735" lon="-3.42871">
        <ele>146.9</ele>
        <time>2022-06-12T15:06:17Z</time>
      </trkpt>
      <trkpt lat="48.24734" lon="-3.42869">
        <ele>146.9</ele>
        <time>2022-06-12T15:06:18Z</time>
      </trkpt>
      <trkpt lat="48.24734" lon="-3.42867">
        <ele>146.9</ele>
        <time>2022-06-12T15:06:20Z</time>
      </trkpt>
      <trkpt lat="48.24733" lon="-3.42866">
        <ele>146.9</ele>
        <time>2022-06-12T15:06:21Z</time>
      </trkpt>
      <trkpt lat="48.24732" lon="-3.42864">
        <ele>146.9</ele>
        <time>2022-06-12T15:06:22Z</time>
      </trkpt>
      <trkpt lat="48.24731" lon="-3.42862">
        <ele>146.9</ele>
        <time>2022-06-12T15:06:23Z</time>
      </trkpt>
      <trkpt lat="48.2473" lon="-3.42858">
        <ele>146.9</ele>
        <time>2022-06-12T15:06:25Z</time>
      </trkpt>
      <trkpt lat="48.24729" lon="-3.42857">
        <ele>146.9</ele>
        <time>2022-06-12T15:06:26Z</time>
      </trkpt>
      <trkpt lat="48.24728" lon="-3.42855">
        <ele>146.9</ele>
        <time>2022-06-12T15:06:27Z</time>
      </trkpt>
      <trkpt lat="48.24728" lon="-3.42854">
        <ele>146.9</ele>
        <time>2022-06-12T15:06:28Z</time>
      </trkpt>
      <trkpt lat="48.24727" lon="-3.42853">
        <ele>146.9</ele>
        <time>2022-06-12T15:06:29Z</time>
      </trkpt>
      <trkpt lat="48.24726" lon="-3.42851">
        <ele>147</ele>
        <time>2022-06-12T15:06:30Z</time>
      </trkpt>
      <trkpt lat="48.24725" lon="-3.42849">
        <ele>147</ele>
        <time>2022-06-12T15:06:31Z</time>
      </trkpt>
      <trkpt lat="48.24725" lon="-3.42848">
        <ele>147</ele>
        <time>2022-06-12T15:06:32Z</time>
      </trkpt>
      <trkpt lat="48.24724" lon="-3.42846">
        <ele>147</ele>
        <time>2022-06-12T15:06:33Z</time>
      </trkpt>
      <trkpt lat="48.24723" lon="-3.42845">
        <ele>147</ele>
        <time>2022-06-12T15:06:35Z</time>
      </trkpt>
      <trkpt lat="48.24722" lon="-3.42842">
        <ele>147</ele>
        <time>2022-06-12T15:06:36Z</time>
      </trkpt>
      <trkpt lat="48.2472" lon="-3.4284">
        <ele>147</ele>
        <time>2022-06-12T15:06:37Z</time>
      </trkpt>
      <trkpt lat="48.2472" lon="-3.42839">
        <ele>147</ele>
        <time>2022-06-12T15:06:38Z</time>
      </trkpt>
      <trkpt lat="48.24719" lon="-3.42838">
        <ele>147</ele>
        <time>2022-06-12T15:06:39Z</time>
      </trkpt>
      <trkpt lat="48.24719" lon="-3.42837">
        <ele>147</ele>
        <time>2022-06-12T15:06:40Z</time>
      </trkpt>
      <trkpt lat="48.24718" lon="-3.42836">
        <ele>147</ele>
        <time>2022-06-12T15:06:41Z</time>
      </trkpt>
      <trkpt lat="48.24717" lon="-3.42834">
        <ele>147</ele>
        <time>2022-06-12T15:06:43Z</time>
      </trkpt>
      <trkpt lat="48.24715" lon="-3.42832">
        <ele>147</ele>
        <time>2022-06-12T15:06:44Z</time>
      </trkpt>
      <trkpt lat="48.24715" lon="-3.42831">
        <ele>147</ele>
        <time>2022-06-12T15:06:45Z</time>
      </trkpt>
      <trkpt lat="48.24714" lon="-3.4283">
        <ele>147</ele>
        <time>2022-06-12T15:06:46Z</time>
      </trkpt>
      <trkpt lat="48.24713" lon="-3.42828">
        <ele>147</ele>
        <time>2022-06-12T15:06:47Z</time>
      </trkpt>
      <trkpt lat="48.24712" lon="-3.42827">
        <ele>147</ele>
        <time>2022-06-12T15:06:49Z</time>
      </trkpt>
      <trkpt lat="48.24712" lon="-3.42825">
        <ele>147</ele>
        <time>2022-06-12T15:06:50Z</time>
      </trkpt>
      <trkpt lat="48.24711" lon="-3.42824">
        <ele>147.1</ele>
        <time>2022-06-12T15:06:51Z</time>
      </trkpt>
      <trkpt lat="48.2471" lon="-3.42822">
        <ele>147.1</ele>
        <time>2022-06-12T15:06:52Z</time>
      </trkpt>
      <trkpt lat="48.2471" lon="-3.4282">
        <ele>147.1</ele>
        <time>2022-06-12T15:06:53Z</time>
      </trkpt>
      <trkpt lat="48.24709" lon="-3.42818">
        <ele>147.1</ele>
        <time>2022-06-12T15:06:54Z</time>
      </trkpt>
      <trkpt lat="48.24709" lon="-3.42817">
        <ele>147.1</ele>
        <time>2022-06-12T15:06:55Z</time>
      </trkpt>
      <trkpt lat="48.24708" lon="-3.42814">
        <ele>147.1</ele>
        <time>2022-06-12T15:06:56Z</time>
      </trkpt>
      <trkpt lat="48.24707" lon="-3.42813">
        <ele>147.1</ele>
        <time>2022-06-12T15:06:57Z</time>
      </trkpt>
      <trkpt lat="48.24707" lon="-3.42812">
        <ele>147.1</ele>
        <time>2022-06-12T15:06:58Z</time>
      </trkpt>
      <trkpt lat="48.24706" lon="-3.4281">
        <ele>147.1</ele>
        <time>2022-06-12T15:07:00Z</time>
      </trkpt>
      <trkpt lat="48.24706" lon="-3.42808">
        <ele>147.1</ele>
        <time>2022-06-12T15:07:01Z</time>
      </trkpt>
      <trkpt lat="48.24705" lon="-3.42806">
        <ele>147.1</ele>
        <time>2022-06-12T15:07:02Z</time>
      </trkpt>
      <trkpt lat="48.24704" lon="-3.42804">
        <ele>147.1</ele>
        <time>2022-06-12T15:07:03Z</time>
      </trkpt>
      <trkpt lat="48.24704" lon="-3.42803">
        <ele>147.1</ele>
        <time>2022-06-12T15:07:04Z</time>
      </trkpt>
      <trkpt lat="48.24703" lon="-3.42802">
        <ele>147.1</ele>
        <time>2022-06-12T15:07:05Z</time>
      </trkpt>
      <trkpt lat="48.24703" lon="-3.428">
        <ele>147.1</ele>
        <time>2022-06-12T15:07:06Z</time>
      </trkpt>
      <trkpt lat="48.24702" lon="-3.42798">
        <ele>147.1</ele>
        <time>2022-06-12T15:07:08Z</time>
      </trkpt>
      <trkpt lat="48.24702" lon="-3.42797">
        <ele>147.2</ele>
        <time>2022-06-12T15:07:09Z</time>
      </trkpt>
      <trkpt lat="48.24701" lon="-3.42794">
        <ele>147.2</ele>
        <time>2022-06-12T15:07:10Z</time>
      </trkpt>
      <trkpt lat="48.247" lon="-3.42792">
        <ele>147.2</ele>
        <time>2022-06-12T15:07:11Z</time>
      </trkpt>
      <trkpt lat="48.247" lon="-3.4279">
        <ele>147.2</ele>
        <time>2022-06-12T15:07:12Z</time>
      </trkpt>
      <trkpt lat="48.24699" lon="-3.42789">
        <ele>147.2</ele>
        <time>2022-06-12T15:07:13Z</time>
      </trkpt>
      <trkpt lat="48.24698" lon="-3.42787">
        <ele>147.2</ele>
        <time>2022-06-12T15:07:15Z</time>
      </trkpt>
      <trkpt lat="48.24698" lon="-3.42785">
        <ele>147.2</ele>
        <time>2022-06-12T15:07:16Z</time>
      </trkpt>
      <trkpt lat="48.24697" lon="-3.42784">
        <ele>147.2</ele>
        <time>2022-06-12T15:07:17Z</time>
      </trkpt>
      <trkpt lat="48.24697" lon="-3.42782">
        <ele>147.3</ele>
        <time>2022-06-12T15:07:18Z</time>
      </trkpt>
      <trkpt lat="48.24696" lon="-3.42781">
        <ele>147.3</ele>
        <time>2022-06-12T15:07:19Z</time>
      </trkpt>
      <trkpt lat="48.24695" lon="-3.42778">
        <ele>147.3</ele>
        <time>2022-06-12T15:07:20Z</time>
      </trkpt>
      <trkpt lat="48.24695" lon="-3.42777">
        <ele>147.3</ele>
        <time>2022-06-12T15:07:21Z</time>
      </trkpt>
      <trkpt lat="48.24694" lon="-3.42776">
        <ele>147.3</ele>
        <time>2022-06-12T15:07:22Z</time>
      </trkpt>
      <trkpt lat="48.24694" lon="-3.42774">
        <ele>147.3</ele>
        <time>2022-06-12T15:07:23Z</time>
      </trkpt>
      <trkpt lat="48.24693" lon="-3.42772">
        <ele>147.4</ele>
        <time>2022-06-12T15:07:24Z</time>
      </trkpt>
      <trkpt lat="48.24692" lon="-3.4277">
        <ele>147.4</ele>
        <time>2022-06-12T15:07:25Z</time>
      </trkpt>
      <trkpt lat="48.24691" lon="-3.42769">
        <ele>147.4</ele>
        <time>2022-06-12T15:07:27Z</time>
      </trkpt>
      <trkpt lat="48.24691" lon="-3.42768">
        <ele>147.4</ele>
        <time>2022-06-12T15:07:28Z</time>
      </trkpt>
      <trkpt lat="48.2469" lon="-3.42766">
        <ele>147.4</ele>
        <time>2022-06-12T15:07:29Z</time>
      </trkpt>
      <trkpt lat="48.24689" lon="-3.42764">
        <ele>147.5</ele>
        <time>2022-06-12T15:07:30Z</time>
      </trkpt>
      <trkpt lat="48.24688" lon="-3.42763">
        <ele>147.5</ele>
        <time>2022-06-12T15:07:31Z</time>
      </trkpt>
      <trkpt lat="48.24688" lon="-3.42761">
        <ele>147.5</ele>
        <time>2022-06-12T15:07:32Z</time>
      </trkpt>
      <trkpt lat="48.24688" lon="-3.4276">
        <ele>147.5</ele>
        <time>2022-06-12T15:07:33Z</time>
      </trkpt>
      <trkpt lat="48.24687" lon="-3.42758">
        <ele>147.5</ele>
        <time>2022-06-12T15:07:34Z</time>
      </trkpt>
      <trkpt lat="48.24686" lon="-3.42756">
        <ele>147.5</ele>
        <time>2022-06-12T15:07:35Z</time>
      </trkpt>
      <trkpt lat="48.24686" lon="-3.42755">
        <ele>147.6</ele>
        <time>2022-06-12T15:07:36Z</time>
      </trkpt>
      <trkpt lat="48.24685" lon="-3.42753">
        <ele>147.6</ele>
        <time>2022-06-12T15:07:37Z</time>
      </trkpt>
      <trkpt lat="48.24685" lon="-3.42752">
        <ele>147.6</ele>
        <time>2022-06-12T15:07:39Z</time>
      </trkpt>
      <trkpt lat="48.24685" lon="-3.4275">
        <ele>147.6</ele>
        <time>2022-06-12T15:07:40Z</time>
      </trkpt>
      <trkpt lat="48.24684" lon="-3.42748">
        <ele>147.6</ele>
        <time>2022-06-12T15:07:41Z</time>
      </trkpt>
      <trkpt lat="48.24685" lon="-3.42746">
        <ele>147.6</ele>
        <time>2022-06-12T15:07:42Z</time>
      </trkpt>
      <trkpt lat="48.24685" lon="-3.42744">
        <ele>147.7</ele>
        <time>2022-06-12T15:07:43Z</time>
      </trkpt>
      <trkpt lat="48.24685" lon="-3.42743">
        <ele>147.7</ele>
        <time>2022-06-12T15:07:44Z</time>
      </trkpt>
      <trkpt lat="48.24684" lon="-3.42741">
        <ele>147.7</ele>
        <time>2022-06-12T15:07:45Z</time>
      </trkpt>
      <trkpt lat="48.24684" lon="-3.4274">
        <ele>147.7</ele>
        <time>2022-06-12T15:07:46Z</time>
      </trkpt>
      <trkpt lat="48.24683" lon="-3.42738">
        <ele>147.7</ele>
        <time>2022-06-12T15:07:47Z</time>
      </trkpt>
      <trkpt lat="48.24682" lon="-3.42736">
        <ele>147.8</ele>
        <time>2022-06-12T15:07:49Z</time>
      </trkpt>
      <trkpt lat="48.24681" lon="-3.42734">
        <ele>147.8</ele>
        <time>2022-06-12T15:07:50Z</time>
      </trkpt>
      <trkpt lat="48.2468" lon="-3.42732">
        <ele>147.8</ele>
        <time>2022-06-12T15:07:51Z</time>
      </trkpt>
      <trkpt lat="48.2468" lon="-3.42731">
        <ele>147.8</ele>
        <time>2022-06-12T15:07:52Z</time>
      </trkpt>
      <trkpt lat="48.24679" lon="-3.42729">
        <ele>147.8</ele>
        <time>2022-06-12T15:07:53Z</time>
      </trkpt>
      <trkpt lat="48.24678" lon="-3.42727">
        <ele>147.9</ele>
        <time>2022-06-12T15:07:55Z</time>
      </trkpt>
      <trkpt lat="48.24677" lon="-3.42725">
        <ele>147.9</ele>
        <time>2022-06-12T15:07:56Z</time>
      </trkpt>
      <trkpt lat="48.24676" lon="-3.42723">
        <ele>147.9</ele>
        <time>2022-06-12T15:07:57Z</time>
      </trkpt>
      <trkpt lat="48.24676" lon="-3.42722">
        <ele>147.9</ele>
        <time>2022-06-12T15:07:58Z</time>
      </trkpt>
      <trkpt lat="48.24675" lon="-3.4272">
        <ele>148</ele>
        <time>2022-06-12T15:07:59Z</time>
      </trkpt>
      <trkpt lat="48.24675" lon="-3.42719">
        <ele>148</ele>
        <time>2022-06-12T15:08:00Z</time>
      </trkpt>
      <trkpt lat="48.24673" lon="-3.42716">
        <ele>148</ele>
        <time>2022-06-12T15:08:01Z</time>
      </trkpt>
      <trkpt lat="48.24673" lon="-3.42715">
        <ele>148</ele>
        <time>2022-06-12T15:08:02Z</time>
      </trkpt>
      <trkpt lat="48.24671" lon="-3.42712">
        <ele>148.1</ele>
        <time>2022-06-12T15:08:03Z</time>
      </trkpt>
      <trkpt lat="48.24671" lon="-3.4271">
        <ele>148.1</ele>
        <time>2022-06-12T15:08:05Z</time>
      </trkpt>
      <trkpt lat="48.2467" lon="-3.42709">
        <ele>148.1</ele>
        <time>2022-06-12T15:08:06Z</time>
      </trkpt>
      <trkpt lat="48.2467" lon="-3.42707">
        <ele>148.1</ele>
        <time>2022-06-12T15:08:07Z</time>
      </trkpt>
      <trkpt lat="48.24669" lon="-3.42706">
        <ele>148.1</ele>
        <time>2022-06-12T15:08:08Z</time>
      </trkpt>
      <trkpt lat="48.24669" lon="-3.42704">
        <ele>148.2</ele>
        <time>2022-06-12T15:08:09Z</time>
      </trkpt>
      <trkpt lat="48.24668" lon="-3.42699">
        <ele>148.2</ele>
        <time>2022-06-12T15:08:11Z</time>
      </trkpt>
      <trkpt lat="48.24668" lon="-3.42698">
        <ele>148.2</ele>
        <time>2022-06-12T15:08:12Z</time>
      </trkpt>
      <trkpt lat="48.24668" lon="-3.42698">
        <ele>148.2</ele>
        <time>2022-06-12T15:08:13Z</time>
      </trkpt>
      <trkpt lat="48.24668" lon="-3.42698">
        <ele>148.2</ele>
        <time>2022-06-12T15:08:14Z</time>
      </trkpt>
      <trkpt lat="48.24668" lon="-3.42698">
        <ele>148.2</ele>
        <time>2022-06-12T15:08:15Z</time>
      </trkpt>
      <trkpt lat="48.24668" lon="-3.42698">
        <ele>148.2</ele>
        <time>2022-06-12T15:08:16Z</time>
      </trkpt>
      <trkpt lat="48.24668" lon="-3.42698">
        <ele>148.2</ele>
        <time>2022-06-12T15:08:17Z</time>
      </trkpt>
      <trkpt lat="48.24668" lon="-3.42698">
        <ele>148.2</ele>
        <time>2022-06-12T15:08:18Z</time>
      </trkpt>
      <trkpt lat="48.24668" lon="-3.42699">
        <ele>148.2</ele>
        <time>2022-06-12T15:08:19Z</time>
      </trkpt>
      <trkpt lat="48.24668" lon="-3.42699">
        <ele>148.2</ele>
        <time>2022-06-12T15:08:20Z</time>
      </trkpt>
      <trkpt lat="48.24668" lon="-3.42699">
        <ele>148.2</ele>
        <time>2022-06-12T15:08:21Z</time>
      </trkpt>
      <trkpt lat="48.24669" lon="-3.42699">
        <ele>148.2</ele>
        <time>2022-06-12T15:08:22Z</time>
      </trkpt>
      <trkpt lat="48.24669" lon="-3.42699">
        <ele>148.2</ele>
        <time>2022-06-12T15:08:23Z</time>
      </trkpt>
      <trkpt lat="48.24669" lon="-3.42699">
        <ele>148.2</ele>
        <time>2022-06-12T15:08:24Z</time>
      </trkpt>
      <trkpt lat="48.24669" lon="-3.42699">
        <ele>148.2</ele>
        <time>2022-06-12T15:08:25Z</time>
      </trkpt>
      <trkpt lat="48.24669" lon="-3.42699">
        <ele>148.3</ele>
        <time>2022-06-12T15:08:26Z</time>
      </trkpt>
      <trkpt lat="48.24669" lon="-3.42699">
        <ele>148.3</ele>
        <time>2022-06-12T15:08:27Z</time>
      </trkpt>
      <trkpt lat="48.24669" lon="-3.42699">
        <ele>148.3</ele>
        <time>2022-06-12T15:08:28Z</time>
      </trkpt>
      <trkpt lat="48.24669" lon="-3.42699">
        <ele>148.3</ele>
        <time>2022-06-12T15:08:29Z</time>
      </trkpt>
      <trkpt lat="48.24669" lon="-3.42699">
        <ele>148.3</ele>
        <time>2022-06-12T15:08:30Z</time>
      </trkpt>
      <trkpt lat="48.24669" lon="-3.42699">
        <ele>148.3</ele>
        <time>2022-06-12T15:08:31Z</time>
      </trkpt>
      <trkpt lat="48.2467" lon="-3.42699">
        <ele>148.3</ele>
        <time>2022-06-12T15:08:32Z</time>
      </trkpt>
      <trkpt lat="48.2467" lon="-3.427">
        <ele>148.3</ele>
        <time>2022-06-12T15:08:33Z</time>
      </trkpt>
      <trkpt lat="48.2467" lon="-3.427">
        <ele>148.3</ele>
        <time>2022-06-12T15:08:34Z</time>
      </trkpt>
      <trkpt lat="48.2467" lon="-3.427">
        <ele>148.3</ele>
        <time>2022-06-12T15:08:35Z</time>
      </trkpt>
      <trkpt lat="48.2467" lon="-3.427">
        <ele>148.3</ele>
        <time>2022-06-12T15:08:36Z</time>
      </trkpt>
      <trkpt lat="48.2467" lon="-3.427">
        <ele>148.3</ele>
        <time>2022-06-12T15:08:37Z</time>
      </trkpt>
      <trkpt lat="48.2467" lon="-3.427">
        <ele>148.3</ele>
        <time>2022-06-12T15:08:38Z</time>
      </trkpt>
      <trkpt lat="48.2467" lon="-3.427">
        <ele>148.3</ele>
        <time>2022-06-12T15:08:39Z</time>
      </trkpt>
      <trkpt lat="48.2467" lon="-3.427">
        <ele>148.3</ele>
        <time>2022-06-12T15:08:40Z</time>
      </trkpt>
      <trkpt lat="48.2467" lon="-3.427">
        <ele>148.3</ele>
        <time>2022-06-12T15:08:41Z</time>
      </trkpt>
      <trkpt lat="48.2467" lon="-3.427">
        <ele>148.3</ele>
        <time>2022-06-12T15:08:42Z</time>
      </trkpt>
      <trkpt lat="48.24671" lon="-3.427">
        <ele>148.3</ele>
        <time>2022-06-12T15:08:43Z</time>
      </trkpt>
      <trkpt lat="48.24671" lon="-3.427">
        <ele>148.3</ele>
        <time>2022-06-12T15:08:44Z</time>
      </trkpt>
      <trkpt lat="48.24671" lon="-3.427">
        <ele>148.3</ele>
        <time>2022-06-12T15:08:45Z</time>
      </trkpt>
      <trkpt lat="48.24671" lon="-3.42701">
        <ele>148.3</ele>
        <time>2022-06-12T15:08:46Z</time>
      </trkpt>
      <trkpt lat="48.24671" lon="-3.42701">
        <ele>148.3</ele>
        <time>2022-06-12T15:08:47Z</time>
      </trkpt>
      <trkpt lat="48.24671" lon="-3.42701">
        <ele>148.3</ele>
        <time>2022-06-12T15:08:48Z</time>
      </trkpt>
      <trkpt lat="48.24671" lon="-3.42701">
        <ele>148.3</ele>
        <time>2022-06-12T15:08:49Z</time>
      </trkpt>
      <trkpt lat="48.24671" lon="-3.42701">
        <ele>148.3</ele>
        <time>2022-06-12T15:08:50Z</time>
      </trkpt>
      <trkpt lat="48.24671" lon="-3.42701">
        <ele>148.3</ele>
        <time>2022-06-12T15:08:51Z</time>
      </trkpt>
      <trkpt lat="48.24673" lon="-3.42701">
        <ele>148.3</ele>
        <time>2022-06-12T15:08:52Z</time>
      </trkpt>
      <trkpt lat="48.24674" lon="-3.42702">
        <ele>148.3</ele>
        <time>2022-06-12T15:08:53Z</time>
      </trkpt>
      <trkpt lat="48.24674" lon="-3.42702">
        <ele>148.4</ele>
        <time>2022-06-12T15:08:54Z</time>
      </trkpt>
      <trkpt lat="48.24675" lon="-3.42702">
        <ele>148.4</ele>
        <time>2022-06-12T15:08:55Z</time>
      </trkpt>
      <trkpt lat="48.24675" lon="-3.42702">
        <ele>148.4</ele>
        <time>2022-06-12T15:08:56Z</time>
      </trkpt>
      <trkpt lat="48.24676" lon="-3.42702">
        <ele>148.4</ele>
        <time>2022-06-12T15:08:57Z</time>
      </trkpt>
      <trkpt lat="48.24676" lon="-3.42703">
        <ele>148.4</ele>
        <time>2022-06-12T15:08:58Z</time>
      </trkpt>
      <trkpt lat="48.24676" lon="-3.42703">
        <ele>148.4</ele>
        <time>2022-06-12T15:08:59Z</time>
      </trkpt>
      <trkpt lat="48.24676" lon="-3.42704">
        <ele>148.4</ele>
        <time>2022-06-12T15:09:00Z</time>
      </trkpt>
      <trkpt lat="48.24677" lon="-3.42704">
        <ele>148.4</ele>
        <time>2022-06-12T15:09:01Z</time>
      </trkpt>
      <trkpt lat="48.24677" lon="-3.42704">
        <ele>148.4</ele>
        <time>2022-06-12T15:09:02Z</time>
      </trkpt>
      <trkpt lat="48.24677" lon="-3.42705">
        <ele>148.4</ele>
        <time>2022-06-12T15:09:03Z</time>
      </trkpt>
      <trkpt lat="48.24678" lon="-3.42705">
        <ele>148.4</ele>
        <time>2022-06-12T15:09:04Z</time>
      </trkpt>
      <trkpt lat="48.24678" lon="-3.42705">
        <ele>148.4</ele>
        <time>2022-06-12T15:09:05Z</time>
      </trkpt>
      <trkpt lat="48.24678" lon="-3.42705">
        <ele>148.4</ele>
        <time>2022-06-12T15:09:06Z</time>
      </trkpt>
      <trkpt lat="48.24678" lon="-3.42705">
        <ele>148.4</ele>
        <time>2022-06-12T15:09:07Z</time>
      </trkpt>
      <trkpt lat="48.24678" lon="-3.42705">
        <ele>148.4</ele>
        <time>2022-06-12T15:09:08Z</time>
      </trkpt>
      <trkpt lat="48.24678" lon="-3.42705">
        <ele>148.4</ele>
        <time>2022-06-12T15:09:09Z</time>
      </trkpt>
      <trkpt lat="48.24678" lon="-3.42705">
        <ele>148.4</ele>
        <time>2022-06-12T15:09:10Z</time>
      </trkpt>
      <trkpt lat="48.24678" lon="-3.42705">
        <ele>148.4</ele>
        <time>2022-06-12T15:09:11Z</time>
      </trkpt>
      <trkpt lat="48.24678" lon="-3.42705">
        <ele>148.4</ele>
        <time>2022-06-12T15:09:12Z</time>
      </trkpt>
      <trkpt lat="48.24678" lon="-3.42705">
        <ele>148.4</ele>
        <time>2022-06-12T15:09:13Z</time>
      </trkpt>
      <trkpt lat="48.24678" lon="-3.42705">
        <ele>148.4</ele>
        <time>2022-06-12T15:09:14Z</time>
      </trkpt>
      <trkpt lat="48.24678" lon="-3.42705">
        <ele>148.4</ele>
        <time>2022-06-12T15:09:15Z</time>
      </trkpt>
      <trkpt lat="48.24678" lon="-3.42705">
        <ele>148.4</ele>
        <time>2022-06-12T15:09:16Z</time>
      </trkpt>
      <trkpt lat="48.24678" lon="-3.42705">
        <ele>148.4</ele>
        <time>2022-06-12T15:09:17Z</time>
      </trkpt>
      <trkpt lat="48.24678" lon="-3.42705">
        <ele>148.4</ele>
        <time>2022-06-12T15:09:18Z</time>
      </trkpt>
      <trkpt lat="48.24678" lon="-3.42705">
        <ele>148.4</ele>
        <time>2022-06-12T15:09:19Z</time>
      </trkpt>
      <trkpt lat="48.24678" lon="-3.42705">
        <ele>148.4</ele>
        <time>2022-06-12T15:09:20Z</time>
      </trkpt>
      <trkpt lat="48.24678" lon="-3.42705">
        <ele>148.4</ele>
        <time>2022-06-12T15:09:21Z</time>
      </trkpt>
      <trkpt lat="48.24678" lon="-3.42705">
        <ele>148.4</ele>
        <time>2022-06-12T15:09:22Z</time>
      </trkpt>
      <trkpt lat="48.24678" lon="-3.42705">
        <ele>148.4</ele>
        <time>2022-06-12T15:09:23Z</time>
      </trkpt>
      <trkpt lat="48.24678" lon="-3.42705">
        <ele>148.4</ele>
        <time>2022-06-12T15:09:24Z</time>
      </trkpt>
      <trkpt lat="48.24678" lon="-3.42705">
        <ele>148.4</ele>
        <time>2022-06-12T15:09:25Z</time>
      </trkpt>
      <trkpt lat="48.24678" lon="-3.42705">
        <ele>148.4</ele>
        <time>2022-06-12T15:09:26Z</time>
      </trkpt>
      <trkpt lat="48.24678" lon="-3.42705">
        <ele>148.4</ele>
        <time>2022-06-12T15:09:27Z</time>
      </trkpt>
      <trkpt lat="48.24678" lon="-3.42705">
        <ele>148.4</ele>
        <time>2022-06-12T15:09:28Z</time>
      </trkpt>
      <trkpt lat="48.24678" lon="-3.42705">
        <ele>148.4</ele>
        <time>2022-06-12T15:09:29Z</time>
      </trkpt>
      <trkpt lat="48.24678" lon="-3.42705">
        <ele>148.4</ele>
        <time>2022-06-12T15:09:30Z</time>
      </trkpt>
      <trkpt lat="48.24679" lon="-3.42703">
        <ele>148.5</ele>
        <time>2022-06-12T15:09:31Z</time>
      </trkpt>
      <trkpt lat="48.2468" lon="-3.42703">
        <ele>148.5</ele>
        <time>2022-06-12T15:09:32Z</time>
      </trkpt>
      <trkpt lat="48.2468" lon="-3.42703">
        <ele>148.5</ele>
        <time>2022-06-12T15:09:33Z</time>
      </trkpt>
      <trkpt lat="48.2468" lon="-3.42703">
        <ele>148.5</ele>
        <time>2022-06-12T15:09:34Z</time>
      </trkpt>
      <trkpt lat="48.2468" lon="-3.42703">
        <ele>148.5</ele>
        <time>2022-06-12T15:09:35Z</time>
      </trkpt>
      <trkpt lat="48.2468" lon="-3.42703">
        <ele>148.5</ele>
        <time>2022-06-12T15:09:36Z</time>
      </trkpt>
      <trkpt lat="48.2468" lon="-3.42703">
        <ele>148.5</ele>
        <time>2022-06-12T15:09:37Z</time>
      </trkpt>
      <trkpt lat="48.2468" lon="-3.42703">
        <ele>148.5</ele>
        <time>2022-06-12T15:09:38Z</time>
      </trkpt>
      <trkpt lat="48.2468" lon="-3.42703">
        <ele>148.5</ele>
        <time>2022-06-12T15:09:39Z</time>
      </trkpt>
      <trkpt lat="48.2468" lon="-3.42703">
        <ele>148.5</ele>
        <time>2022-06-12T15:09:40Z</time>
      </trkpt>
      <trkpt lat="48.2468" lon="-3.42703">
        <ele>148.5</ele>
        <time>2022-06-12T15:09:41Z</time>
      </trkpt>
      <trkpt lat="48.2468" lon="-3.42703">
        <ele>148.5</ele>
        <time>2022-06-12T15:09:42Z</time>
      </trkpt>
      <trkpt lat="48.2468" lon="-3.42703">
        <ele>148.5</ele>
        <time>2022-06-12T15:09:43Z</time>
      </trkpt>
      <trkpt lat="48.2468" lon="-3.42703">
        <ele>148.5</ele>
        <time>2022-06-12T15:09:44Z</time>
      </trkpt>
      <trkpt lat="48.2468" lon="-3.42703">
        <ele>148.5</ele>
        <time>2022-06-12T15:09:45Z</time>
      </trkpt>
      <trkpt lat="48.2468" lon="-3.42703">
        <ele>148.5</ele>
        <time>2022-06-12T15:09:46Z</time>
      </trkpt>
      <trkpt lat="48.2468" lon="-3.42703">
        <ele>148.5</ele>
        <time>2022-06-12T15:09:47Z</time>
      </trkpt>
      <trkpt lat="48.2468" lon="-3.42703">
        <ele>148.5</ele>
        <time>2022-06-12T15:09:48Z</time>
      </trkpt>
      <trkpt lat="48.2468" lon="-3.42703">
        <ele>148.5</ele>
        <time>2022-06-12T15:09:50Z</time>
      </trkpt>
      <trkpt lat="48.24681" lon="-3.42703">
        <ele>148.5</ele>
        <time>2022-06-12T15:09:51Z</time>
      </trkpt>
      <trkpt lat="48.24681" lon="-3.42703">
        <ele>148.5</ele>
        <time>2022-06-12T15:09:52Z</time>
      </trkpt>
      <trkpt lat="48.24681" lon="-3.42704">
        <ele>148.5</ele>
        <time>2022-06-12T15:09:53Z</time>
      </trkpt>
      <trkpt lat="48.24681" lon="-3.42704">
        <ele>148.5</ele>
        <time>2022-06-12T15:09:54Z</time>
      </trkpt>
      <trkpt lat="48.24681" lon="-3.42704">
        <ele>148.5</ele>
        <time>2022-06-12T15:09:55Z</time>
      </trkpt>
      <trkpt lat="48.24681" lon="-3.42704">
        <ele>148.5</ele>
        <time>2022-06-12T15:09:56Z</time>
      </trkpt>
      <trkpt lat="48.24682" lon="-3.42703">
        <ele>148.5</ele>
        <time>2022-06-12T15:09:57Z</time>
      </trkpt>
      <trkpt lat="48.24682" lon="-3.42703">
        <ele>148.5</ele>
        <time>2022-06-12T15:09:58Z</time>
      </trkpt>
      <trkpt lat="48.24682" lon="-3.42702">
        <ele>148.5</ele>
        <time>2022-06-12T15:09:59Z</time>
      </trkpt>
      <trkpt lat="48.24682" lon="-3.42702">
        <ele>148.5</ele>
        <time>2022-06-12T15:10:00Z</time>
      </trkpt>
      <trkpt lat="48.24682" lon="-3.42702">
        <ele>148.5</ele>
        <time>2022-06-12T15:10:02Z</time>
      </trkpt>
      <trkpt lat="48.24681" lon="-3.42702">
        <ele>148.5</ele>
        <time>2022-06-12T15:10:03Z</time>
      </trkpt>
      <trkpt lat="48.24681" lon="-3.42702">
        <ele>148.5</ele>
        <time>2022-06-12T15:10:04Z</time>
      </trkpt>
      <trkpt lat="48.24681" lon="-3.42703">
        <ele>148.6</ele>
        <time>2022-06-12T15:10:06Z</time>
      </trkpt>
      <trkpt lat="48.24681" lon="-3.42703">
        <ele>148.6</ele>
        <time>2022-06-12T15:10:07Z</time>
      </trkpt>
      <trkpt lat="48.24681" lon="-3.42704">
        <ele>148.6</ele>
        <time>2022-06-12T15:10:08Z</time>
      </trkpt>
      <trkpt lat="48.24681" lon="-3.42704">
        <ele>148.6</ele>
        <time>2022-06-12T15:10:09Z</time>
      </trkpt>
      <trkpt lat="48.24681" lon="-3.42704">
        <ele>148.6</ele>
        <time>2022-06-12T15:10:10Z</time>
      </trkpt>
      <trkpt lat="48.2468" lon="-3.42702">
        <ele>148.6</ele>
        <time>2022-06-12T15:10:12Z</time>
      </trkpt>
      <trkpt lat="48.24677" lon="-3.42698">
        <ele>148.7</ele>
        <time>2022-06-12T15:10:14Z</time>
      </trkpt>
      <trkpt lat="48.24676" lon="-3.42696">
        <ele>148.7</ele>
        <time>2022-06-12T15:10:15Z</time>
      </trkpt>
      <trkpt lat="48.24675" lon="-3.42694">
        <ele>148.7</ele>
        <time>2022-06-12T15:10:16Z</time>
      </trkpt>
      <trkpt lat="48.24673" lon="-3.42692">
        <ele>148.8</ele>
        <time>2022-06-12T15:10:17Z</time>
      </trkpt>
      <trkpt lat="48.24672" lon="-3.42691">
        <ele>148.8</ele>
        <time>2022-06-12T15:10:18Z</time>
      </trkpt>
      <trkpt lat="48.24672" lon="-3.4269">
        <ele>148.8</ele>
        <time>2022-06-12T15:10:19Z</time>
      </trkpt>
      <trkpt lat="48.24671" lon="-3.4269">
        <ele>148.8</ele>
        <time>2022-06-12T15:10:20Z</time>
      </trkpt>
      <trkpt lat="48.24671" lon="-3.4269">
        <ele>148.8</ele>
        <time>2022-06-12T15:10:21Z</time>
      </trkpt>
      <trkpt lat="48.24671" lon="-3.4269">
        <ele>148.8</ele>
        <time>2022-06-12T15:10:22Z</time>
      </trkpt>
      <trkpt lat="48.24671" lon="-3.4269">
        <ele>148.8</ele>
        <time>2022-06-12T15:10:23Z</time>
      </trkpt>
      <trkpt lat="48.24671" lon="-3.42689">
        <ele>148.8</ele>
        <time>2022-06-12T15:10:24Z</time>
      </trkpt>
      <trkpt lat="48.24671" lon="-3.42689">
        <ele>148.8</ele>
        <time>2022-06-12T15:10:25Z</time>
      </trkpt>
      <trkpt lat="48.24671" lon="-3.42688">
        <ele>148.8</ele>
        <time>2022-06-12T15:10:26Z</time>
      </trkpt>
      <trkpt lat="48.24671" lon="-3.42688">
        <ele>148.8</ele>
        <time>2022-06-12T15:10:27Z</time>
      </trkpt>
      <trkpt lat="48.24671" lon="-3.42688">
        <ele>148.8</ele>
        <time>2022-06-12T15:10:28Z</time>
      </trkpt>
      <trkpt lat="48.24671" lon="-3.42688">
        <ele>148.8</ele>
        <time>2022-06-12T15:10:29Z</time>
      </trkpt>
      <trkpt lat="48.24671" lon="-3.42687">
        <ele>148.9</ele>
        <time>2022-06-12T15:10:30Z</time>
      </trkpt>
      <trkpt lat="48.24671" lon="-3.42687">
        <ele>148.9</ele>
        <time>2022-06-12T15:10:31Z</time>
      </trkpt>
      <trkpt lat="48.24671" lon="-3.42687">
        <ele>148.9</ele>
        <time>2022-06-12T15:10:32Z</time>
      </trkpt>
      <trkpt lat="48.24671" lon="-3.42686">
        <ele>148.9</ele>
        <time>2022-06-12T15:10:33Z</time>
      </trkpt>
      <trkpt lat="48.2467" lon="-3.42686">
        <ele>148.9</ele>
        <time>2022-06-12T15:10:34Z</time>
      </trkpt>
      <trkpt lat="48.2467" lon="-3.42685">
        <ele>148.9</ele>
        <time>2022-06-12T15:10:35Z</time>
      </trkpt>
      <trkpt lat="48.2467" lon="-3.42685">
        <ele>148.9</ele>
        <time>2022-06-12T15:10:36Z</time>
      </trkpt>
      <trkpt lat="48.2467" lon="-3.42685">
        <ele>148.9</ele>
        <time>2022-06-12T15:10:37Z</time>
      </trkpt>
      <trkpt lat="48.2467" lon="-3.42685">
        <ele>148.9</ele>
        <time>2022-06-12T15:10:38Z</time>
      </trkpt>
      <trkpt lat="48.2467" lon="-3.42685">
        <ele>148.9</ele>
        <time>2022-06-12T15:10:39Z</time>
      </trkpt>
      <trkpt lat="48.2467" lon="-3.42685">
        <ele>148.9</ele>
        <time>2022-06-12T15:10:40Z</time>
      </trkpt>
      <trkpt lat="48.2467" lon="-3.42685">
        <ele>148.9</ele>
        <time>2022-06-12T15:10:41Z</time>
      </trkpt>
      <trkpt lat="48.2467" lon="-3.42685">
        <ele>148.9</ele>
        <time>2022-06-12T15:10:42Z</time>
      </trkpt>
      <trkpt lat="48.2467" lon="-3.42685">
        <ele>148.9</ele>
        <time>2022-06-12T15:10:43Z</time>
      </trkpt>
      <trkpt lat="48.2467" lon="-3.42685">
        <ele>148.9</ele>
        <time>2022-06-12T15:10:44Z</time>
      </trkpt>
      <trkpt lat="48.2467" lon="-3.42685">
        <ele>148.9</ele>
        <time>2022-06-12T15:10:45Z</time>
      </trkpt>
      <trkpt lat="48.2467" lon="-3.42685">
        <ele>148.9</ele>
        <time>2022-06-12T15:10:46Z</time>
      </trkpt>
      <trkpt lat="48.2467" lon="-3.42685">
        <ele>148.9</ele>
        <time>2022-06-12T15:10:47Z</time>
      </trkpt>
      <trkpt lat="48.2467" lon="-3.42685">
        <ele>148.9</ele>
        <time>2022-06-12T15:10:48Z</time>
      </trkpt>
      <trkpt lat="48.2467" lon="-3.42685">
        <ele>148.9</ele>
        <time>2022-06-12T15:10:49Z</time>
      </trkpt>
      <trkpt lat="48.2467" lon="-3.42685">
        <ele>148.9</ele>
        <time>2022-06-12T15:10:50Z</time>
      </trkpt>
      <trkpt lat="48.2467" lon="-3.42685">
        <ele>148.9</ele>
        <time>2022-06-12T15:10:51Z</time>
      </trkpt>
      <trkpt lat="48.2467" lon="-3.42685">
        <ele>148.9</ele>
        <time>2022-06-12T15:10:52Z</time>
      </trkpt>
      <trkpt lat="48.2467" lon="-3.42685">
        <ele>148.9</ele>
        <time>2022-06-12T15:10:53Z</time>
      </trkpt>
      <trkpt lat="48.2467" lon="-3.42685">
        <ele>148.9</ele>
        <time>2022-06-12T15:10:54Z</time>
      </trkpt>
      <trkpt lat="48.2467" lon="-3.42685">
        <ele>148.9</ele>
        <time>2022-06-12T15:10:55Z</time>
      </trkpt>
      <trkpt lat="48.2467" lon="-3.42685">
        <ele>148.9</ele>
        <time>2022-06-12T15:10:56Z</time>
      </trkpt>
      <trkpt lat="48.2467" lon="-3.42685">
        <ele>148.9</ele>
        <time>2022-06-12T15:10:57Z</time>
      </trkpt>
      <trkpt lat="48.2467" lon="-3.42685">
        <ele>148.9</ele>
        <time>2022-06-12T15:10:58Z</time>
      </trkpt>
      <trkpt lat="48.2467" lon="-3.42685">
        <ele>148.9</ele>
        <time>2022-06-12T15:10:59Z</time>
      </trkpt>
      <trkpt lat="48.2467" lon="-3.42685">
        <ele>148.9</ele>
        <time>2022-06-12T15:11:00Z</time>
      </trkpt>
      <trkpt lat="48.2467" lon="-3.42685">
        <ele>148.9</ele>
        <time>2022-06-12T15:11:01Z</time>
      </trkpt>
      <trkpt lat="48.2467" lon="-3.42685">
        <ele>148.9</ele>
        <time>2022-06-12T15:11:02Z</time>
      </trkpt>
      <trkpt lat="48.2467" lon="-3.42685">
        <ele>148.9</ele>
        <time>2022-06-12T15:11:03Z</time>
      </trkpt>
      <trkpt lat="48.2467" lon="-3.42685">
        <ele>148.9</ele>
        <time>2022-06-12T15:11:04Z</time>
      </trkpt>
      <trkpt lat="48.2467" lon="-3.42687">
        <ele>148.9</ele>
        <time>2022-06-12T15:11:05Z</time>
      </trkpt>
      <trkpt lat="48.24671" lon="-3.42688">
        <ele>148.9</ele>
        <time>2022-06-12T15:11:06Z</time>
      </trkpt>
      <trkpt lat="48.24671" lon="-3.42689">
        <ele>148.9</ele>
        <time>2022-06-12T15:11:07Z</time>
      </trkpt>
      <trkpt lat="48.24671" lon="-3.4269">
        <ele>148.9</ele>
        <time>2022-06-12T15:11:09Z</time>
      </trkpt>
      <trkpt lat="48.24672" lon="-3.42691">
        <ele>149</ele>
        <time>2022-06-12T15:11:10Z</time>
      </trkpt>
      <trkpt lat="48.24672" lon="-3.42692">
        <ele>149</ele>
        <time>2022-06-12T15:11:11Z</time>
      </trkpt>
      <trkpt lat="48.24672" lon="-3.42694">
        <ele>149</ele>
        <time>2022-06-12T15:11:12Z</time>
      </trkpt>
      <trkpt lat="48.24672" lon="-3.42696">
        <ele>149</ele>
        <time>2022-06-12T15:11:13Z</time>
      </trkpt>
      <trkpt lat="48.24672" lon="-3.42697">
        <ele>149</ele>
        <time>2022-06-12T15:11:14Z</time>
      </trkpt>
      <trkpt lat="48.24672" lon="-3.42698">
        <ele>149</ele>
        <time>2022-06-12T15:11:15Z</time>
      </trkpt>
      <trkpt lat="48.24673" lon="-3.427">
        <ele>149</ele>
        <time>2022-06-12T15:11:16Z</time>
      </trkpt>
      <trkpt lat="48.24674" lon="-3.42702">
        <ele>149.1</ele>
        <time>2022-06-12T15:11:17Z</time>
      </trkpt>
      <trkpt lat="48.24675" lon="-3.42704">
        <ele>149</ele>
        <time>2022-06-12T15:11:18Z</time>
      </trkpt>
      <trkpt lat="48.24677" lon="-3.42707">
        <ele>149</ele>
        <time>2022-06-12T15:11:20Z</time>
      </trkpt>
      <trkpt lat="48.24678" lon="-3.42708">
        <ele>149</ele>
        <time>2022-06-12T15:11:21Z</time>
      </trkpt>
      <trkpt lat="48.24679" lon="-3.4271">
        <ele>149</ele>
        <time>2022-06-12T15:11:23Z</time>
      </trkpt>
      <trkpt lat="48.2468" lon="-3.42712">
        <ele>148.9</ele>
        <time>2022-06-12T15:11:24Z</time>
      </trkpt>
      <trkpt lat="48.24681" lon="-3.42713">
        <ele>148.9</ele>
        <time>2022-06-12T15:11:25Z</time>
      </trkpt>
      <trkpt lat="48.24682" lon="-3.42715">
        <ele>148.9</ele>
        <time>2022-06-12T15:11:26Z</time>
      </trkpt>
      <trkpt lat="48.24683" lon="-3.42716">
        <ele>148.9</ele>
        <time>2022-06-12T15:11:27Z</time>
      </trkpt>
      <trkpt lat="48.24685" lon="-3.42718">
        <ele>148.8</ele>
        <time>2022-06-12T15:11:28Z</time>
      </trkpt>
      <trkpt lat="48.24685" lon="-3.42719">
        <ele>148.8</ele>
        <time>2022-06-12T15:11:29Z</time>
      </trkpt>
      <trkpt lat="48.24686" lon="-3.42721">
        <ele>148.8</ele>
        <time>2022-06-12T15:11:30Z</time>
      </trkpt>
      <trkpt lat="48.24687" lon="-3.42722">
        <ele>148.8</ele>
        <time>2022-06-12T15:11:31Z</time>
      </trkpt>
      <trkpt lat="48.24688" lon="-3.42723">
        <ele>148.8</ele>
        <time>2022-06-12T15:11:32Z</time>
      </trkpt>
      <trkpt lat="48.24689" lon="-3.42723">
        <ele>148.7</ele>
        <time>2022-06-12T15:11:33Z</time>
      </trkpt>
      <trkpt lat="48.24689" lon="-3.42723">
        <ele>148.7</ele>
        <time>2022-06-12T15:11:34Z</time>
      </trkpt>
      <trkpt lat="48.2469" lon="-3.42723">
        <ele>148.7</ele>
        <time>2022-06-12T15:11:35Z</time>
      </trkpt>
      <trkpt lat="48.24688" lon="-3.4272">
        <ele>148.7</ele>
        <time>2022-06-12T15:11:36Z</time>
      </trkpt>
      <trkpt lat="48.24688" lon="-3.42719">
        <ele>148.7</ele>
        <time>2022-06-12T15:11:37Z</time>
      </trkpt>
      <trkpt lat="48.24688" lon="-3.42718">
        <ele>148.7</ele>
        <time>2022-06-12T15:11:39Z</time>
      </trkpt>
      <trkpt lat="48.24688" lon="-3.42717">
        <ele>148.6</ele>
        <time>2022-06-12T15:11:40Z</time>
      </trkpt>
      <trkpt lat="48.24688" lon="-3.42717">
        <ele>148.6</ele>
        <time>2022-06-12T15:11:41Z</time>
      </trkpt>
      <trkpt lat="48.24688" lon="-3.42717">
        <ele>148.6</ele>
        <time>2022-06-12T15:11:42Z</time>
      </trkpt>
      <trkpt lat="48.24688" lon="-3.42717">
        <ele>148.6</ele>
        <time>2022-06-12T15:11:43Z</time>
      </trkpt>
      <trkpt lat="48.24688" lon="-3.42717">
        <ele>148.6</ele>
        <time>2022-06-12T15:11:44Z</time>
      </trkpt>
      <trkpt lat="48.24688" lon="-3.42718">
        <ele>148.6</ele>
        <time>2022-06-12T15:11:45Z</time>
      </trkpt>
      <trkpt lat="48.24688" lon="-3.42718">
        <ele>148.6</ele>
        <time>2022-06-12T15:11:46Z</time>
      </trkpt>
      <trkpt lat="48.24687" lon="-3.42718">
        <ele>148.6</ele>
        <time>2022-06-12T15:11:47Z</time>
      </trkpt>
      <trkpt lat="48.24687" lon="-3.42718">
        <ele>148.6</ele>
        <time>2022-06-12T15:11:48Z</time>
      </trkpt>
      <trkpt lat="48.24687" lon="-3.42718">
        <ele>148.6</ele>
        <time>2022-06-12T15:11:49Z</time>
      </trkpt>
      <trkpt lat="48.24687" lon="-3.42719">
        <ele>148.6</ele>
        <time>2022-06-12T15:11:50Z</time>
      </trkpt>
      <trkpt lat="48.24687" lon="-3.42719">
        <ele>148.6</ele>
        <time>2022-06-12T15:11:51Z</time>
      </trkpt>
      <trkpt lat="48.24687" lon="-3.4272">
        <ele>148.6</ele>
        <time>2022-06-12T15:11:52Z</time>
      </trkpt>
      <trkpt lat="48.24688" lon="-3.42721">
        <ele>148.6</ele>
        <time>2022-06-12T15:11:53Z</time>
      </trkpt>
      <trkpt lat="48.24688" lon="-3.42723">
        <ele>148.6</ele>
        <time>2022-06-12T15:11:54Z</time>
      </trkpt>
      <trkpt lat="48.24689" lon="-3.42723">
        <ele>148.6</ele>
        <time>2022-06-12T15:11:55Z</time>
      </trkpt>
      <trkpt lat="48.24689" lon="-3.42723">
        <ele>148.6</ele>
        <time>2022-06-12T15:11:56Z</time>
      </trkpt>
      <trkpt lat="48.24689" lon="-3.42723">
        <ele>148.6</ele>
        <time>2022-06-12T15:11:57Z</time>
      </trkpt>
      <trkpt lat="48.24689" lon="-3.42723">
        <ele>148.6</ele>
        <time>2022-06-12T15:11:58Z</time>
      </trkpt>
      <trkpt lat="48.24689" lon="-3.42724">
        <ele>148.5</ele>
        <time>2022-06-12T15:11:59Z</time>
      </trkpt>
      <trkpt lat="48.24689" lon="-3.42724">
        <ele>148.5</ele>
        <time>2022-06-12T15:12:00Z</time>
      </trkpt>
      <trkpt lat="48.24689" lon="-3.42724">
        <ele>148.5</ele>
        <time>2022-06-12T15:12:01Z</time>
      </trkpt>
      <trkpt lat="48.24689" lon="-3.42724">
        <ele>148.5</ele>
        <time>2022-06-12T15:12:02Z</time>
      </trkpt>
      <trkpt lat="48.24689" lon="-3.42724">
        <ele>148.5</ele>
        <time>2022-06-12T15:12:03Z</time>
      </trkpt>
      <trkpt lat="48.24689" lon="-3.42724">
        <ele>148.5</ele>
        <time>2022-06-12T15:12:04Z</time>
      </trkpt>
      <trkpt lat="48.24689" lon="-3.42724">
        <ele>148.5</ele>
        <time>2022-06-12T15:12:05Z</time>
      </trkpt>
      <trkpt lat="48.24689" lon="-3.42724">
        <ele>148.5</ele>
        <time>2022-06-12T15:12:06Z</time>
      </trkpt>
      <trkpt lat="48.24689" lon="-3.42724">
        <ele>148.5</ele>
        <time>2022-06-12T15:12:07Z</time>
      </trkpt>
      <trkpt lat="48.24689" lon="-3.42724">
        <ele>148.5</ele>
        <time>2022-06-12T15:12:08Z</time>
      </trkpt>
      <trkpt lat="48.24689" lon="-3.42724">
        <ele>148.5</ele>
        <time>2022-06-12T15:12:09Z</time>
      </trkpt>
      <trkpt lat="48.24689" lon="-3.42724">
        <ele>148.5</ele>
        <time>2022-06-12T15:12:10Z</time>
      </trkpt>
      <trkpt lat="48.24689" lon="-3.42724">
        <ele>148.5</ele>
        <time>2022-06-12T15:12:11Z</time>
      </trkpt>
      <trkpt lat="48.24689" lon="-3.42724">
        <ele>148.5</ele>
        <time>2022-06-12T15:12:12Z</time>
      </trkpt>
      <trkpt lat="48.24689" lon="-3.42724">
        <ele>148.5</ele>
        <time>2022-06-12T15:12:13Z</time>
      </trkpt>
      <trkpt lat="48.24689" lon="-3.42724">
        <ele>148.5</ele>
        <time>2022-06-12T15:12:14Z</time>
      </trkpt>
      <trkpt lat="48.24688" lon="-3.42724">
        <ele>148.5</ele>
        <time>2022-06-12T15:12:15Z</time>
      </trkpt>
      <trkpt lat="48.24688" lon="-3.42724">
        <ele>148.5</ele>
        <time>2022-06-12T15:12:16Z</time>
      </trkpt>
      <trkpt lat="48.24688" lon="-3.42723">
        <ele>148.5</ele>
        <time>2022-06-12T15:12:17Z</time>
      </trkpt>
      <trkpt lat="48.24689" lon="-3.42723">
        <ele>148.5</ele>
        <time>2022-06-12T15:12:18Z</time>
      </trkpt>
      <trkpt lat="48.2469" lon="-3.42723">
        <ele>148.5</ele>
        <time>2022-06-12T15:12:19Z</time>
      </trkpt>
      <trkpt lat="48.2469" lon="-3.42726">
        <ele>148.5</ele>
        <time>2022-06-12T15:12:20Z</time>
      </trkpt>
      <trkpt lat="48.2469" lon="-3.42729">
        <ele>148.4</ele>
        <time>2022-06-12T15:12:21Z</time>
      </trkpt>
      <trkpt lat="48.2469" lon="-3.42731">
        <ele>148.4</ele>
        <time>2022-06-12T15:12:22Z</time>
      </trkpt>
      <trkpt lat="48.2469" lon="-3.42733">
        <ele>148.4</ele>
        <time>2022-06-12T15:12:23Z</time>
      </trkpt>
      <trkpt lat="48.2469" lon="-3.42735">
        <ele>148.3</ele>
        <time>2022-06-12T15:12:25Z</time>
      </trkpt>
      <trkpt lat="48.2469" lon="-3.42738">
        <ele>148.3</ele>
        <time>2022-06-12T15:12:26Z</time>
      </trkpt>
      <trkpt lat="48.24691" lon="-3.4274">
        <ele>148.3</ele>
        <time>2022-06-12T15:12:27Z</time>
      </trkpt>
      <trkpt lat="48.24691" lon="-3.42742">
        <ele>148.3</ele>
        <time>2022-06-12T15:12:28Z</time>
      </trkpt>
      <trkpt lat="48.24692" lon="-3.42744">
        <ele>148.2</ele>
        <time>2022-06-12T15:12:29Z</time>
      </trkpt>
      <trkpt lat="48.24693" lon="-3.42747">
        <ele>148.2</ele>
        <time>2022-06-12T15:12:30Z</time>
      </trkpt>
      <trkpt lat="48.24694" lon="-3.4275">
        <ele>148.2</ele>
        <time>2022-06-12T15:12:32Z</time>
      </trkpt>
      <trkpt lat="48.24695" lon="-3.42752">
        <ele>148.1</ele>
        <time>2022-06-12T15:12:33Z</time>
      </trkpt>
      <trkpt lat="48.24696" lon="-3.42753">
        <ele>148.1</ele>
        <time>2022-06-12T15:12:34Z</time>
      </trkpt>
      <trkpt lat="48.24696" lon="-3.42755">
        <ele>148.1</ele>
        <time>2022-06-12T15:12:35Z</time>
      </trkpt>
      <trkpt lat="48.24697" lon="-3.42756">
        <ele>148.1</ele>
        <time>2022-06-12T15:12:36Z</time>
      </trkpt>
      <trkpt lat="48.24698" lon="-3.42758">
        <ele>148.1</ele>
        <time>2022-06-12T15:12:37Z</time>
      </trkpt>
      <trkpt lat="48.24698" lon="-3.4276">
        <ele>148</ele>
        <time>2022-06-12T15:12:38Z</time>
      </trkpt>
      <trkpt lat="48.24699" lon="-3.42762">
        <ele>148</ele>
        <time>2022-06-12T15:12:39Z</time>
      </trkpt>
      <trkpt lat="48.24701" lon="-3.42763">
        <ele>148</ele>
        <time>2022-06-12T15:12:40Z</time>
      </trkpt>
      <trkpt lat="48.24701" lon="-3.42764">
        <ele>148</ele>
        <time>2022-06-12T15:12:41Z</time>
      </trkpt>
      <trkpt lat="48.24702" lon="-3.42765">
        <ele>147.9</ele>
        <time>2022-06-12T15:12:42Z</time>
      </trkpt>
      <trkpt lat="48.24702" lon="-3.42766">
        <ele>147.9</ele>
        <time>2022-06-12T15:12:44Z</time>
      </trkpt>
      <trkpt lat="48.24703" lon="-3.42767">
        <ele>147.9</ele>
        <time>2022-06-12T15:12:45Z</time>
      </trkpt>
      <trkpt lat="48.24704" lon="-3.42768">
        <ele>147.9</ele>
        <time>2022-06-12T15:12:46Z</time>
      </trkpt>
      <trkpt lat="48.24704" lon="-3.42768">
        <ele>147.9</ele>
        <time>2022-06-12T15:12:47Z</time>
      </trkpt>
      <trkpt lat="48.24705" lon="-3.4277">
        <ele>147.9</ele>
        <time>2022-06-12T15:12:48Z</time>
      </trkpt>
      <trkpt lat="48.24706" lon="-3.42771">
        <ele>147.9</ele>
        <time>2022-06-12T15:12:49Z</time>
      </trkpt>
      <trkpt lat="48.24706" lon="-3.42772">
        <ele>147.8</ele>
        <time>2022-06-12T15:12:50Z</time>
      </trkpt>
      <trkpt lat="48.24707" lon="-3.42774">
        <ele>147.8</ele>
        <time>2022-06-12T15:12:52Z</time>
      </trkpt>
      <trkpt lat="48.24708" lon="-3.42776">
        <ele>147.8</ele>
        <time>2022-06-12T15:12:53Z</time>
      </trkpt>
      <trkpt lat="48.2471" lon="-3.42777">
        <ele>147.8</ele>
        <time>2022-06-12T15:12:54Z</time>
      </trkpt>
      <trkpt lat="48.24711" lon="-3.42778">
        <ele>147.8</ele>
        <time>2022-06-12T15:12:55Z</time>
      </trkpt>
      <trkpt lat="48.24712" lon="-3.42779">
        <ele>147.7</ele>
        <time>2022-06-12T15:12:56Z</time>
      </trkpt>
      <trkpt lat="48.24713" lon="-3.42779">
        <ele>147.7</ele>
        <time>2022-06-12T15:12:57Z</time>
      </trkpt>
      <trkpt lat="48.24716" lon="-3.42782">
        <ele>147.7</ele>
        <time>2022-06-12T15:12:58Z</time>
      </trkpt>
      <trkpt lat="48.24717" lon="-3.42783">
        <ele>147.6</ele>
        <time>2022-06-12T15:12:59Z</time>
      </trkpt>
      <trkpt lat="48.2472" lon="-3.42786">
        <ele>147.6</ele>
        <time>2022-06-12T15:13:01Z</time>
      </trkpt>
      <trkpt lat="48.2472" lon="-3.42787">
        <ele>147.6</ele>
        <time>2022-06-12T15:13:02Z</time>
      </trkpt>
      <trkpt lat="48.24722" lon="-3.4279">
        <ele>147.5</ele>
        <time>2022-06-12T15:13:04Z</time>
      </trkpt>
      <trkpt lat="48.24722" lon="-3.42792">
        <ele>147.5</ele>
        <time>2022-06-12T15:13:05Z</time>
      </trkpt>
      <trkpt lat="48.24722" lon="-3.42796">
        <ele>147.5</ele>
        <time>2022-06-12T15:13:06Z</time>
      </trkpt>
      <trkpt lat="48.24722" lon="-3.42797">
        <ele>147.5</ele>
        <time>2022-06-12T15:13:07Z</time>
      </trkpt>
      <trkpt lat="48.24721" lon="-3.42802">
        <ele>147.4</ele>
        <time>2022-06-12T15:13:08Z</time>
      </trkpt>
      <trkpt lat="48.24721" lon="-3.42804">
        <ele>147.4</ele>
        <time>2022-06-12T15:13:09Z</time>
      </trkpt>
      <trkpt lat="48.24721" lon="-3.42806">
        <ele>147.4</ele>
        <time>2022-06-12T15:13:10Z</time>
      </trkpt>
      <trkpt lat="48.24722" lon="-3.42808">
        <ele>147.4</ele>
        <time>2022-06-12T15:13:11Z</time>
      </trkpt>
      <trkpt lat="48.24722" lon="-3.4281">
        <ele>147.3</ele>
        <time>2022-06-12T15:13:12Z</time>
      </trkpt>
      <trkpt lat="48.24722" lon="-3.42811">
        <ele>147.3</ele>
        <time>2022-06-12T15:13:13Z</time>
      </trkpt>
      <trkpt lat="48.24722" lon="-3.42814">
        <ele>147.3</ele>
        <time>2022-06-12T15:13:14Z</time>
      </trkpt>
      <trkpt lat="48.24722" lon="-3.42818">
        <ele>147.3</ele>
        <time>2022-06-12T15:13:15Z</time>
      </trkpt>
      <trkpt lat="48.24723" lon="-3.42819">
        <ele>147.3</ele>
        <time>2022-06-12T15:13:16Z</time>
      </trkpt>
      <trkpt lat="48.24723" lon="-3.42821">
        <ele>147.2</ele>
        <time>2022-06-12T15:13:18Z</time>
      </trkpt>
      <trkpt lat="48.24723" lon="-3.42823">
        <ele>147.2</ele>
        <time>2022-06-12T15:13:19Z</time>
      </trkpt>
      <trkpt lat="48.24724" lon="-3.42825">
        <ele>147.2</ele>
        <time>2022-06-12T15:13:20Z</time>
      </trkpt>
      <trkpt lat="48.24724" lon="-3.42827">
        <ele>147.2</ele>
        <time>2022-06-12T15:13:21Z</time>
      </trkpt>
      <trkpt lat="48.24724" lon="-3.42829">
        <ele>147.2</ele>
        <time>2022-06-12T15:13:22Z</time>
      </trkpt>
      <trkpt lat="48.24725" lon="-3.4283">
        <ele>147.2</ele>
        <time>2022-06-12T15:13:23Z</time>
      </trkpt>
      <trkpt lat="48.24725" lon="-3.42833">
        <ele>147.2</ele>
        <time>2022-06-12T15:13:24Z</time>
      </trkpt>
      <trkpt lat="48.24726" lon="-3.42834">
        <ele>147.2</ele>
        <time>2022-06-12T15:13:25Z</time>
      </trkpt>
      <trkpt lat="48.24726" lon="-3.42835">
        <ele>147.1</ele>
        <time>2022-06-12T15:13:26Z</time>
      </trkpt>
      <trkpt lat="48.24726" lon="-3.42836">
        <ele>147.1</ele>
        <time>2022-06-12T15:13:27Z</time>
      </trkpt>
      <trkpt lat="48.24725" lon="-3.42835">
        <ele>147.1</ele>
        <time>2022-06-12T15:13:28Z</time>
      </trkpt>
      <trkpt lat="48.24725" lon="-3.42835">
        <ele>147.1</ele>
        <time>2022-06-12T15:13:29Z</time>
      </trkpt>
      <trkpt lat="48.24725" lon="-3.42835">
        <ele>147.1</ele>
        <time>2022-06-12T15:13:30Z</time>
      </trkpt>
      <trkpt lat="48.24725" lon="-3.42835">
        <ele>147.1</ele>
        <time>2022-06-12T15:13:31Z</time>
      </trkpt>
      <trkpt lat="48.24725" lon="-3.42835">
        <ele>147.1</ele>
        <time>2022-06-12T15:13:32Z</time>
      </trkpt>
      <trkpt lat="48.24725" lon="-3.42835">
        <ele>147.1</ele>
        <time>2022-06-12T15:13:33Z</time>
      </trkpt>
      <trkpt lat="48.24725" lon="-3.42835">
        <ele>147.1</ele>
        <time>2022-06-12T15:13:34Z</time>
      </trkpt>
      <trkpt lat="48.24725" lon="-3.42835">
        <ele>147.1</ele>
        <time>2022-06-12T15:13:35Z</time>
      </trkpt>
      <trkpt lat="48.24725" lon="-3.42834">
        <ele>147.1</ele>
        <time>2022-06-12T15:13:36Z</time>
      </trkpt>
      <trkpt lat="48.24725" lon="-3.42834">
        <ele>147.1</ele>
        <time>2022-06-12T15:13:37Z</time>
      </trkpt>
      <trkpt lat="48.24725" lon="-3.42834">
        <ele>147.1</ele>
        <time>2022-06-12T15:13:38Z</time>
      </trkpt>
      <trkpt lat="48.24725" lon="-3.42834">
        <ele>147.1</ele>
        <time>2022-06-12T15:13:39Z</time>
      </trkpt>
      <trkpt lat="48.24725" lon="-3.42834">
        <ele>147.1</ele>
        <time>2022-06-12T15:13:40Z</time>
      </trkpt>
      <trkpt lat="48.24725" lon="-3.42834">
        <ele>147.1</ele>
        <time>2022-06-12T15:13:41Z</time>
      </trkpt>
      <trkpt lat="48.24725" lon="-3.42834">
        <ele>147.1</ele>
        <time>2022-06-12T15:13:42Z</time>
      </trkpt>
      <trkpt lat="48.24725" lon="-3.42833">
        <ele>147.1</ele>
        <time>2022-06-12T15:13:43Z</time>
      </trkpt>
      <trkpt lat="48.24724" lon="-3.42833">
        <ele>147.1</ele>
        <time>2022-06-12T15:13:44Z</time>
      </trkpt>
      <trkpt lat="48.24724" lon="-3.42833">
        <ele>147.1</ele>
        <time>2022-06-12T15:13:45Z</time>
      </trkpt>
      <trkpt lat="48.24724" lon="-3.42833">
        <ele>147.1</ele>
        <time>2022-06-12T15:13:46Z</time>
      </trkpt>
      <trkpt lat="48.24724" lon="-3.42833">
        <ele>147.1</ele>
        <time>2022-06-12T15:13:47Z</time>
      </trkpt>
      <trkpt lat="48.24724" lon="-3.42833">
        <ele>147.1</ele>
        <time>2022-06-12T15:13:48Z</time>
      </trkpt>
      <trkpt lat="48.24724" lon="-3.42833">
        <ele>147.1</ele>
        <time>2022-06-12T15:13:49Z</time>
      </trkpt>
      <trkpt lat="48.24724" lon="-3.42833">
        <ele>147.1</ele>
        <time>2022-06-12T15:13:50Z</time>
      </trkpt>
      <trkpt lat="48.24724" lon="-3.42833">
        <ele>147.1</ele>
        <time>2022-06-12T15:13:51Z</time>
      </trkpt>
      <trkpt lat="48.24724" lon="-3.42833">
        <ele>147.1</ele>
        <time>2022-06-12T15:13:52Z</time>
      </trkpt>
      <trkpt lat="48.24724" lon="-3.42833">
        <ele>147.1</ele>
        <time>2022-06-12T15:13:53Z</time>
      </trkpt>
      <trkpt lat="48.24724" lon="-3.42833">
        <ele>147.1</ele>
        <time>2022-06-12T15:13:54Z</time>
      </trkpt>
      <trkpt lat="48.24724" lon="-3.42833">
        <ele>147.1</ele>
        <time>2022-06-12T15:13:55Z</time>
      </trkpt>
      <trkpt lat="48.24724" lon="-3.42833">
        <ele>147.1</ele>
        <time>2022-06-12T15:13:56Z</time>
      </trkpt>
      <trkpt lat="48.24724" lon="-3.42833">
        <ele>147.1</ele>
        <time>2022-06-12T15:13:57Z</time>
      </trkpt>
      <trkpt lat="48.24724" lon="-3.42833">
        <ele>147.1</ele>
        <time>2022-06-12T15:13:58Z</time>
      </trkpt>
      <trkpt lat="48.24724" lon="-3.42833">
        <ele>147.1</ele>
        <time>2022-06-12T15:13:59Z</time>
      </trkpt>
      <trkpt lat="48.24724" lon="-3.42833">
        <ele>147.1</ele>
        <time>2022-06-12T15:14:00Z</time>
      </trkpt>
      <trkpt lat="48.24724" lon="-3.42833">
        <ele>147.1</ele>
        <time>2022-06-12T15:14:01Z</time>
      </trkpt>
      <trkpt lat="48.24724" lon="-3.42833">
        <ele>147.1</ele>
        <time>2022-06-12T15:14:02Z</time>
      </trkpt>
      <trkpt lat="48.24724" lon="-3.42833">
        <ele>147.1</ele>
        <time>2022-06-12T15:14:03Z</time>
      </trkpt>
      <trkpt lat="48.24724" lon="-3.42833">
        <ele>147.1</ele>
        <time>2022-06-12T15:14:04Z</time>
      </trkpt>
      <trkpt lat="48.24724" lon="-3.42833">
        <ele>147.1</ele>
        <time>2022-06-12T15:14:05Z</time>
      </trkpt>
      <trkpt lat="48.24724" lon="-3.42833">
        <ele>147.1</ele>
        <time>2022-06-12T15:14:06Z</time>
      </trkpt>
      <trkpt lat="48.24724" lon="-3.42833">
        <ele>147.1</ele>
        <time>2022-06-12T15:14:07Z</time>
      </trkpt>
      <trkpt lat="48.24724" lon="-3.42833">
        <ele>147.1</ele>
        <time>2022-06-12T15:14:08Z</time>
      </trkpt>
      <trkpt lat="48.24724" lon="-3.42833">
        <ele>147.1</ele>
        <time>2022-06-12T15:14:09Z</time>
      </trkpt>
      <trkpt lat="48.24724" lon="-3.42833">
        <ele>147.1</ele>
        <time>2022-06-12T15:14:10Z</time>
      </trkpt>
      <trkpt lat="48.24724" lon="-3.42833">
        <ele>147.1</ele>
        <time>2022-06-12T15:14:11Z</time>
      </trkpt>
      <trkpt lat="48.24724" lon="-3.42833">
        <ele>147.1</ele>
        <time>2022-06-12T15:14:12Z</time>
      </trkpt>
      <trkpt lat="48.24724" lon="-3.42833">
        <ele>147.1</ele>
        <time>2022-06-12T15:14:13Z</time>
      </trkpt>
      <trkpt lat="48.24724" lon="-3.42833">
        <ele>147.1</ele>
        <time>2022-06-12T15:14:14Z</time>
      </trkpt>
      <trkpt lat="48.24724" lon="-3.42833">
        <ele>147.1</ele>
        <time>2022-06-12T15:14:15Z</time>
      </trkpt>
      <trkpt lat="48.24724" lon="-3.42833">
        <ele>147.1</ele>
        <time>2022-06-12T15:14:16Z</time>
      </trkpt>
      <trkpt lat="48.24724" lon="-3.42833">
        <ele>147.1</ele>
        <time>2022-06-12T15:14:17Z</time>
      </trkpt>
      <trkpt lat="48.24724" lon="-3.42833">
        <ele>147.1</ele>
        <time>2022-06-12T15:14:18Z</time>
      </trkpt>
      <trkpt lat="48.24725" lon="-3.42834">
        <ele>147.1</ele>
        <time>2022-06-12T15:14:19Z</time>
      </trkpt>
      <trkpt lat="48.24725" lon="-3.42835">
        <ele>147.1</ele>
        <time>2022-06-12T15:14:20Z</time>
      </trkpt>
      <trkpt lat="48.24725" lon="-3.42836">
        <ele>147.1</ele>
        <time>2022-06-12T15:14:21Z</time>
      </trkpt>
      <trkpt lat="48.24726" lon="-3.42837">
        <ele>147.1</ele>
        <time>2022-06-12T15:14:22Z</time>
      </trkpt>
      <trkpt lat="48.24726" lon="-3.42837">
        <ele>147.1</ele>
        <time>2022-06-12T15:14:23Z</time>
      </trkpt>
      <trkpt lat="48.24727" lon="-3.42838">
        <ele>147.1</ele>
        <time>2022-06-12T15:14:24Z</time>
      </trkpt>
      <trkpt lat="48.24727" lon="-3.42839">
        <ele>147.1</ele>
        <time>2022-06-12T15:14:25Z</time>
      </trkpt>
      <trkpt lat="48.24728" lon="-3.4284">
        <ele>147.1</ele>
        <time>2022-06-12T15:14:26Z</time>
      </trkpt>
      <trkpt lat="48.24729" lon="-3.42841">
        <ele>147.1</ele>
        <time>2022-06-12T15:14:27Z</time>
      </trkpt>
      <trkpt lat="48.2473" lon="-3.42842">
        <ele>147.1</ele>
        <time>2022-06-12T15:14:28Z</time>
      </trkpt>
      <trkpt lat="48.24732" lon="-3.42843">
        <ele>147.1</ele>
        <time>2022-06-12T15:14:29Z</time>
      </trkpt>
      <trkpt lat="48.24732" lon="-3.42844">
        <ele>147.1</ele>
        <time>2022-06-12T15:14:31Z</time>
      </trkpt>
      <trkpt lat="48.24733" lon="-3.42846">
        <ele>147.1</ele>
        <time>2022-06-12T15:14:32Z</time>
      </trkpt>
      <trkpt lat="48.24734" lon="-3.42847">
        <ele>147.1</ele>
        <time>2022-06-12T15:14:33Z</time>
      </trkpt>
      <trkpt lat="48.24735" lon="-3.42847">
        <ele>147.1</ele>
        <time>2022-06-12T15:14:34Z</time>
      </trkpt>
      <trkpt lat="48.24735" lon="-3.42847">
        <ele>147</ele>
        <time>2022-06-12T15:14:35Z</time>
      </trkpt>
      <trkpt lat="48.24736" lon="-3.42847">
        <ele>147</ele>
        <time>2022-06-12T15:14:36Z</time>
      </trkpt>
      <trkpt lat="48.24738" lon="-3.4285">
        <ele>147</ele>
        <time>2022-06-12T15:14:37Z</time>
      </trkpt>
      <trkpt lat="48.24738" lon="-3.42852">
        <ele>147</ele>
        <time>2022-06-12T15:14:39Z</time>
      </trkpt>
      <trkpt lat="48.24739" lon="-3.42853">
        <ele>147</ele>
        <time>2022-06-12T15:14:40Z</time>
      </trkpt>
      <trkpt lat="48.2474" lon="-3.42855">
        <ele>147</ele>
        <time>2022-06-12T15:14:41Z</time>
      </trkpt>
      <trkpt lat="48.2474" lon="-3.42856">
        <ele>147</ele>
        <time>2022-06-12T15:14:42Z</time>
      </trkpt>
      <trkpt lat="48.24741" lon="-3.42858">
        <ele>147</ele>
        <time>2022-06-12T15:14:43Z</time>
      </trkpt>
      <trkpt lat="48.24742" lon="-3.4286">
        <ele>147</ele>
        <time>2022-06-12T15:14:44Z</time>
      </trkpt>
      <trkpt lat="48.24742" lon="-3.42862">
        <ele>147</ele>
        <time>2022-06-12T15:14:45Z</time>
      </trkpt>
      <trkpt lat="48.24743" lon="-3.42863">
        <ele>147</ele>
        <time>2022-06-12T15:14:46Z</time>
      </trkpt>
      <trkpt lat="48.24744" lon="-3.42865">
        <ele>147</ele>
        <time>2022-06-12T15:14:48Z</time>
      </trkpt>
      <trkpt lat="48.24745" lon="-3.42868">
        <ele>147</ele>
        <time>2022-06-12T15:14:49Z</time>
      </trkpt>
      <trkpt lat="48.24745" lon="-3.42869">
        <ele>147</ele>
        <time>2022-06-12T15:14:50Z</time>
      </trkpt>
      <trkpt lat="48.24745" lon="-3.42871">
        <ele>147</ele>
        <time>2022-06-12T15:14:51Z</time>
      </trkpt>
      <trkpt lat="48.24744" lon="-3.42872">
        <ele>147</ele>
        <time>2022-06-12T15:14:52Z</time>
      </trkpt>
      <trkpt lat="48.24744" lon="-3.42873">
        <ele>147</ele>
        <time>2022-06-12T15:14:53Z</time>
      </trkpt>
      <trkpt lat="48.24744" lon="-3.42873">
        <ele>147</ele>
        <time>2022-06-12T15:14:54Z</time>
      </trkpt>
      <trkpt lat="48.24744" lon="-3.42871">
        <ele>147</ele>
        <time>2022-06-12T15:14:55Z</time>
      </trkpt>
      <trkpt lat="48.24745" lon="-3.4287">
        <ele>146.9</ele>
        <time>2022-06-12T15:14:56Z</time>
      </trkpt>
      <trkpt lat="48.24745" lon="-3.4287">
        <ele>146.9</ele>
        <time>2022-06-12T15:14:57Z</time>
      </trkpt>
      <trkpt lat="48.24746" lon="-3.4287">
        <ele>146.9</ele>
        <time>2022-06-12T15:14:58Z</time>
      </trkpt>
      <trkpt lat="48.24746" lon="-3.42871">
        <ele>146.9</ele>
        <time>2022-06-12T15:15:00Z</time>
      </trkpt>
      <trkpt lat="48.24747" lon="-3.42872">
        <ele>146.9</ele>
        <time>2022-06-12T15:15:01Z</time>
      </trkpt>
      <trkpt lat="48.24748" lon="-3.42874">
        <ele>146.9</ele>
        <time>2022-06-12T15:15:02Z</time>
      </trkpt>
      <trkpt lat="48.24748" lon="-3.42875">
        <ele>146.9</ele>
        <time>2022-06-12T15:15:03Z</time>
      </trkpt>
      <trkpt lat="48.24749" lon="-3.42877">
        <ele>146.9</ele>
        <time>2022-06-12T15:15:04Z</time>
      </trkpt>
      <trkpt lat="48.2475" lon="-3.42879">
        <ele>146.9</ele>
        <time>2022-06-12T15:15:05Z</time>
      </trkpt>
      <trkpt lat="48.24751" lon="-3.42881">
        <ele>146.9</ele>
        <time>2022-06-12T15:15:06Z</time>
      </trkpt>
      <trkpt lat="48.24752" lon="-3.42883">
        <ele>146.9</ele>
        <time>2022-06-12T15:15:08Z</time>
      </trkpt>
      <trkpt lat="48.24753" lon="-3.42885">
        <ele>146.9</ele>
        <time>2022-06-12T15:15:09Z</time>
      </trkpt>
      <trkpt lat="48.24754" lon="-3.42887">
        <ele>146.9</ele>
        <time>2022-06-12T15:15:10Z</time>
      </trkpt>
      <trkpt lat="48.24755" lon="-3.42889">
        <ele>146.9</ele>
        <time>2022-06-12T15:15:11Z</time>
      </trkpt>
      <trkpt lat="48.24755" lon="-3.4289">
        <ele>146.9</ele>
        <time>2022-06-12T15:15:12Z</time>
      </trkpt>
      <trkpt lat="48.24755" lon="-3.42891">
        <ele>146.9</ele>
        <time>2022-06-12T15:15:13Z</time>
      </trkpt>
      <trkpt lat="48.24755" lon="-3.42893">
        <ele>146.9</ele>
        <time>2022-06-12T15:15:14Z</time>
      </trkpt>
      <trkpt lat="48.24756" lon="-3.42896">
        <ele>146.9</ele>
        <time>2022-06-12T15:15:15Z</time>
      </trkpt>
      <trkpt lat="48.24757" lon="-3.42897">
        <ele>146.9</ele>
        <time>2022-06-12T15:15:16Z</time>
      </trkpt>
      <trkpt lat="48.24757" lon="-3.42899">
        <ele>146.9</ele>
        <time>2022-06-12T15:15:17Z</time>
      </trkpt>
      <trkpt lat="48.24758" lon="-3.429">
        <ele>146.9</ele>
        <time>2022-06-12T15:15:18Z</time>
      </trkpt>
      <trkpt lat="48.24759" lon="-3.42902">
        <ele>146.9</ele>
        <time>2022-06-12T15:15:19Z</time>
      </trkpt>
      <trkpt lat="48.24759" lon="-3.42904">
        <ele>146.9</ele>
        <time>2022-06-12T15:15:20Z</time>
      </trkpt>
      <trkpt lat="48.2476" lon="-3.42906">
        <ele>146.9</ele>
        <time>2022-06-12T15:15:21Z</time>
      </trkpt>
      <trkpt lat="48.24761" lon="-3.42909">
        <ele>147</ele>
        <time>2022-06-12T15:15:22Z</time>
      </trkpt>
      <trkpt lat="48.24761" lon="-3.42911">
        <ele>147</ele>
        <time>2022-06-12T15:15:24Z</time>
      </trkpt>
      <trkpt lat="48.24762" lon="-3.42912">
        <ele>147</ele>
        <time>2022-06-12T15:15:25Z</time>
      </trkpt>
      <trkpt lat="48.24763" lon="-3.42914">
        <ele>147</ele>
        <time>2022-06-12T15:15:26Z</time>
      </trkpt>
      <trkpt lat="48.24764" lon="-3.42916">
        <ele>147</ele>
        <time>2022-06-12T15:15:27Z</time>
      </trkpt>
      <trkpt lat="48.24764" lon="-3.42918">
        <ele>147</ele>
        <time>2022-06-12T15:15:28Z</time>
      </trkpt>
      <trkpt lat="48.24765" lon="-3.4292">
        <ele>147</ele>
        <time>2022-06-12T15:15:29Z</time>
      </trkpt>
      <trkpt lat="48.24766" lon="-3.42922">
        <ele>147</ele>
        <time>2022-06-12T15:15:30Z</time>
      </trkpt>
      <trkpt lat="48.24766" lon="-3.42924">
        <ele>147</ele>
        <time>2022-06-12T15:15:31Z</time>
      </trkpt>
      <trkpt lat="48.24767" lon="-3.42926">
        <ele>147</ele>
        <time>2022-06-12T15:15:32Z</time>
      </trkpt>
      <trkpt lat="48.24768" lon="-3.42929">
        <ele>147</ele>
        <time>2022-06-12T15:15:33Z</time>
      </trkpt>
      <trkpt lat="48.24768" lon="-3.4293">
        <ele>147</ele>
        <time>2022-06-12T15:15:34Z</time>
      </trkpt>
      <trkpt lat="48.24768" lon="-3.42931">
        <ele>147</ele>
        <time>2022-06-12T15:15:35Z</time>
      </trkpt>
      <trkpt lat="48.24769" lon="-3.42934">
        <ele>147</ele>
        <time>2022-06-12T15:15:36Z</time>
      </trkpt>
      <trkpt lat="48.2477" lon="-3.42935">
        <ele>147</ele>
        <time>2022-06-12T15:15:37Z</time>
      </trkpt>
      <trkpt lat="48.24771" lon="-3.42938">
        <ele>147</ele>
        <time>2022-06-12T15:15:38Z</time>
      </trkpt>
      <trkpt lat="48.24771" lon="-3.42939">
        <ele>147</ele>
        <time>2022-06-12T15:15:39Z</time>
      </trkpt>
      <trkpt lat="48.24772" lon="-3.4294">
        <ele>147</ele>
        <time>2022-06-12T15:15:40Z</time>
      </trkpt>
      <trkpt lat="48.24773" lon="-3.42942">
        <ele>147</ele>
        <time>2022-06-12T15:15:41Z</time>
      </trkpt>
      <trkpt lat="48.24774" lon="-3.42945">
        <ele>147</ele>
        <time>2022-06-12T15:15:43Z</time>
      </trkpt>
      <trkpt lat="48.24775" lon="-3.42946">
        <ele>147</ele>
        <time>2022-06-12T15:15:44Z</time>
      </trkpt>
      <trkpt lat="48.24775" lon="-3.42948">
        <ele>147</ele>
        <time>2022-06-12T15:15:45Z</time>
      </trkpt>
      <trkpt lat="48.24776" lon="-3.4295">
        <ele>147</ele>
        <time>2022-06-12T15:15:46Z</time>
      </trkpt>
      <trkpt lat="48.24777" lon="-3.42952">
        <ele>147</ele>
        <time>2022-06-12T15:15:47Z</time>
      </trkpt>
      <trkpt lat="48.24777" lon="-3.42953">
        <ele>147</ele>
        <time>2022-06-12T15:15:48Z</time>
      </trkpt>
      <trkpt lat="48.24778" lon="-3.42956">
        <ele>147</ele>
        <time>2022-06-12T15:15:50Z</time>
      </trkpt>
      <trkpt lat="48.24779" lon="-3.42957">
        <ele>147</ele>
        <time>2022-06-12T15:15:51Z</time>
      </trkpt>
      <trkpt lat="48.2478" lon="-3.4296">
        <ele>146.9</ele>
        <time>2022-06-12T15:15:52Z</time>
      </trkpt>
      <trkpt lat="48.2478" lon="-3.42961">
        <ele>146.9</ele>
        <time>2022-06-12T15:15:53Z</time>
      </trkpt>
      <trkpt lat="48.2478" lon="-3.42963">
        <ele>146.9</ele>
        <time>2022-06-12T15:15:54Z</time>
      </trkpt>
      <trkpt lat="48.24781" lon="-3.42966">
        <ele>146.9</ele>
        <time>2022-06-12T15:15:55Z</time>
      </trkpt>
      <trkpt lat="48.24782" lon="-3.42967">
        <ele>146.9</ele>
        <time>2022-06-12T15:15:56Z</time>
      </trkpt>
      <trkpt lat="48.24782" lon="-3.42968">
        <ele>146.9</ele>
        <time>2022-06-12T15:15:57Z</time>
      </trkpt>
      <trkpt lat="48.24783" lon="-3.4297">
        <ele>146.9</ele>
        <time>2022-06-12T15:15:58Z</time>
      </trkpt>
      <trkpt lat="48.24784" lon="-3.42971">
        <ele>146.9</ele>
        <time>2022-06-12T15:15:59Z</time>
      </trkpt>
      <trkpt lat="48.24785" lon="-3.42972">
        <ele>146.9</ele>
        <time>2022-06-12T15:16:00Z</time>
      </trkpt>
      <trkpt lat="48.24786" lon="-3.42974">
        <ele>146.9</ele>
        <time>2022-06-12T15:16:01Z</time>
      </trkpt>
      <trkpt lat="48.24787" lon="-3.42975">
        <ele>146.9</ele>
        <time>2022-06-12T15:16:02Z</time>
      </trkpt>
      <trkpt lat="48.24788" lon="-3.42977">
        <ele>146.9</ele>
        <time>2022-06-12T15:16:03Z</time>
      </trkpt>
      <trkpt lat="48.24789" lon="-3.42979">
        <ele>146.9</ele>
        <time>2022-06-12T15:16:04Z</time>
      </trkpt>
      <trkpt lat="48.2479" lon="-3.42981">
        <ele>146.9</ele>
        <time>2022-06-12T15:16:06Z</time>
      </trkpt>
      <trkpt lat="48.24791" lon="-3.42983">
        <ele>146.9</ele>
        <time>2022-06-12T15:16:07Z</time>
      </trkpt>
      <trkpt lat="48.24792" lon="-3.42984">
        <ele>146.9</ele>
        <time>2022-06-12T15:16:08Z</time>
      </trkpt>
      <trkpt lat="48.24793" lon="-3.42986">
        <ele>146.9</ele>
        <time>2022-06-12T15:16:09Z</time>
      </trkpt>
      <trkpt lat="48.24795" lon="-3.42989">
        <ele>146.9</ele>
        <time>2022-06-12T15:16:10Z</time>
      </trkpt>
      <trkpt lat="48.24795" lon="-3.4299">
        <ele>146.9</ele>
        <time>2022-06-12T15:16:11Z</time>
      </trkpt>
      <trkpt lat="48.24796" lon="-3.42991">
        <ele>146.9</ele>
        <time>2022-06-12T15:16:12Z</time>
      </trkpt>
      <trkpt lat="48.24797" lon="-3.42993">
        <ele>146.9</ele>
        <time>2022-06-12T15:16:13Z</time>
      </trkpt>
      <trkpt lat="48.24797" lon="-3.42994">
        <ele>146.9</ele>
        <time>2022-06-12T15:16:14Z</time>
      </trkpt>
      <trkpt lat="48.24798" lon="-3.42995">
        <ele>146.9</ele>
        <time>2022-06-12T15:16:15Z</time>
      </trkpt>
      <trkpt lat="48.24799" lon="-3.42996">
        <ele>146.9</ele>
        <time>2022-06-12T15:16:16Z</time>
      </trkpt>
      <trkpt lat="48.24799" lon="-3.42998">
        <ele>146.9</ele>
        <time>2022-06-12T15:16:17Z</time>
      </trkpt>
      <trkpt lat="48.248" lon="-3.42999">
        <ele>146.9</ele>
        <time>2022-06-12T15:16:18Z</time>
      </trkpt>
      <trkpt lat="48.248" lon="-3.43">
        <ele>146.9</ele>
        <time>2022-06-12T15:16:19Z</time>
      </trkpt>
      <trkpt lat="48.24801" lon="-3.43001">
        <ele>146.9</ele>
        <time>2022-06-12T15:16:20Z</time>
      </trkpt>
      <trkpt lat="48.24802" lon="-3.43002">
        <ele>146.9</ele>
        <time>2022-06-12T15:16:21Z</time>
      </trkpt>
      <trkpt lat="48.24803" lon="-3.43003">
        <ele>146.9</ele>
        <time>2022-06-12T15:16:22Z</time>
      </trkpt>
      <trkpt lat="48.24805" lon="-3.43003">
        <ele>146.9</ele>
        <time>2022-06-12T15:16:24Z</time>
      </trkpt>
      <trkpt lat="48.24806" lon="-3.43003">
        <ele>146.8</ele>
        <time>2022-06-12T15:16:25Z</time>
      </trkpt>
      <trkpt lat="48.24807" lon="-3.43005">
        <ele>146.8</ele>
        <time>2022-06-12T15:16:26Z</time>
      </trkpt>
      <trkpt lat="48.24808" lon="-3.43006">
        <ele>146.8</ele>
        <time>2022-06-12T15:16:27Z</time>
      </trkpt>
      <trkpt lat="48.24809" lon="-3.43006">
        <ele>146.8</ele>
        <time>2022-06-12T15:16:28Z</time>
      </trkpt>
      <trkpt lat="48.2481" lon="-3.43008">
        <ele>146.8</ele>
        <time>2022-06-12T15:16:29Z</time>
      </trkpt>
      <trkpt lat="48.24811" lon="-3.43009">
        <ele>146.8</ele>
        <time>2022-06-12T15:16:30Z</time>
      </trkpt>
      <trkpt lat="48.24813" lon="-3.4301">
        <ele>146.8</ele>
        <time>2022-06-12T15:16:31Z</time>
      </trkpt>
      <trkpt lat="48.24814" lon="-3.4301">
        <ele>146.8</ele>
        <time>2022-06-12T15:16:32Z</time>
      </trkpt>
      <trkpt lat="48.24815" lon="-3.43011">
        <ele>146.8</ele>
        <time>2022-06-12T15:16:33Z</time>
      </trkpt>
      <trkpt lat="48.24816" lon="-3.43011">
        <ele>146.8</ele>
        <time>2022-06-12T15:16:34Z</time>
      </trkpt>
      <trkpt lat="48.24817" lon="-3.4301">
        <ele>146.8</ele>
        <time>2022-06-12T15:16:35Z</time>
      </trkpt>
      <trkpt lat="48.24818" lon="-3.43011">
        <ele>146.8</ele>
        <time>2022-06-12T15:16:36Z</time>
      </trkpt>
      <trkpt lat="48.24819" lon="-3.43011">
        <ele>146.8</ele>
        <time>2022-06-12T15:16:37Z</time>
      </trkpt>
      <trkpt lat="48.2482" lon="-3.43011">
        <ele>146.8</ele>
        <time>2022-06-12T15:16:38Z</time>
      </trkpt>
      <trkpt lat="48.24821" lon="-3.43011">
        <ele>146.8</ele>
        <time>2022-06-12T15:16:40Z</time>
      </trkpt>
      <trkpt lat="48.24823" lon="-3.43011">
        <ele>146.8</ele>
        <time>2022-06-12T15:16:41Z</time>
      </trkpt>
      <trkpt lat="48.24824" lon="-3.43012">
        <ele>146.8</ele>
        <time>2022-06-12T15:16:42Z</time>
      </trkpt>
      <trkpt lat="48.24825" lon="-3.43012">
        <ele>146.8</ele>
        <time>2022-06-12T15:16:43Z</time>
      </trkpt>
      <trkpt lat="48.24827" lon="-3.43014">
        <ele>146.8</ele>
        <time>2022-06-12T15:16:44Z</time>
      </trkpt>
      <trkpt lat="48.24827" lon="-3.43014">
        <ele>146.8</ele>
        <time>2022-06-12T15:16:45Z</time>
      </trkpt>
      <trkpt lat="48.24828" lon="-3.43015">
        <ele>146.8</ele>
        <time>2022-06-12T15:16:46Z</time>
      </trkpt>
      <trkpt lat="48.24829" lon="-3.43016">
        <ele>146.8</ele>
        <time>2022-06-12T15:16:47Z</time>
      </trkpt>
      <trkpt lat="48.2483" lon="-3.43017">
        <ele>146.8</ele>
        <time>2022-06-12T15:16:48Z</time>
      </trkpt>
      <trkpt lat="48.24831" lon="-3.43018">
        <ele>146.8</ele>
        <time>2022-06-12T15:16:49Z</time>
      </trkpt>
      <trkpt lat="48.24832" lon="-3.43018">
        <ele>146.8</ele>
        <time>2022-06-12T15:16:51Z</time>
      </trkpt>
      <trkpt lat="48.24833" lon="-3.43019">
        <ele>146.8</ele>
        <time>2022-06-12T15:16:52Z</time>
      </trkpt>
      <trkpt lat="48.24834" lon="-3.4302">
        <ele>146.8</ele>
        <time>2022-06-12T15:16:53Z</time>
      </trkpt>
      <trkpt lat="48.24836" lon="-3.43021">
        <ele>146.8</ele>
        <time>2022-06-12T15:16:54Z</time>
      </trkpt>
      <trkpt lat="48.24837" lon="-3.43022">
        <ele>146.8</ele>
        <time>2022-06-12T15:16:55Z</time>
      </trkpt>
      <trkpt lat="48.24838" lon="-3.43023">
        <ele>146.8</ele>
        <time>2022-06-12T15:16:56Z</time>
      </trkpt>
      <trkpt lat="48.24839" lon="-3.43024">
        <ele>146.8</ele>
        <time>2022-06-12T15:16:57Z</time>
      </trkpt>
      <trkpt lat="48.2484" lon="-3.43025">
        <ele>146.8</ele>
        <time>2022-06-12T15:16:58Z</time>
      </trkpt>
      <trkpt lat="48.24841" lon="-3.43026">
        <ele>146.8</ele>
        <time>2022-06-12T15:16:59Z</time>
      </trkpt>
      <trkpt lat="48.24843" lon="-3.43028">
        <ele>146.8</ele>
        <time>2022-06-12T15:17:01Z</time>
      </trkpt>
      <trkpt lat="48.24844" lon="-3.43029">
        <ele>146.8</ele>
        <time>2022-06-12T15:17:02Z</time>
      </trkpt>
      <trkpt lat="48.24845" lon="-3.4303">
        <ele>146.8</ele>
        <time>2022-06-12T15:17:03Z</time>
      </trkpt>
      <trkpt lat="48.24846" lon="-3.43031">
        <ele>146.8</ele>
        <time>2022-06-12T15:17:05Z</time>
      </trkpt>
      <trkpt lat="48.24847" lon="-3.43032">
        <ele>146.8</ele>
        <time>2022-06-12T15:17:06Z</time>
      </trkpt>
      <trkpt lat="48.24848" lon="-3.43032">
        <ele>146.8</ele>
        <time>2022-06-12T15:17:07Z</time>
      </trkpt>
      <trkpt lat="48.24849" lon="-3.43033">
        <ele>146.8</ele>
        <time>2022-06-12T15:17:08Z</time>
      </trkpt>
      <trkpt lat="48.24851" lon="-3.43034">
        <ele>146.8</ele>
        <time>2022-06-12T15:17:09Z</time>
      </trkpt>
      <trkpt lat="48.24853" lon="-3.43034">
        <ele>146.8</ele>
        <time>2022-06-12T15:17:10Z</time>
      </trkpt>
      <trkpt lat="48.24854" lon="-3.43034">
        <ele>146.8</ele>
        <time>2022-06-12T15:17:11Z</time>
      </trkpt>
      <trkpt lat="48.24854" lon="-3.43034">
        <ele>146.8</ele>
        <time>2022-06-12T15:17:12Z</time>
      </trkpt>
      <trkpt lat="48.24855" lon="-3.43035">
        <ele>146.8</ele>
        <time>2022-06-12T15:17:13Z</time>
      </trkpt>
      <trkpt lat="48.24856" lon="-3.43035">
        <ele>146.8</ele>
        <time>2022-06-12T15:17:14Z</time>
      </trkpt>
      <trkpt lat="48.24858" lon="-3.43035">
        <ele>146.8</ele>
        <time>2022-06-12T15:17:15Z</time>
      </trkpt>
      <trkpt lat="48.24859" lon="-3.43036">
        <ele>146.8</ele>
        <time>2022-06-12T15:17:16Z</time>
      </trkpt>
      <trkpt lat="48.2486" lon="-3.43036">
        <ele>146.8</ele>
        <time>2022-06-12T15:17:18Z</time>
      </trkpt>
      <trkpt lat="48.24862" lon="-3.43037">
        <ele>146.8</ele>
        <time>2022-06-12T15:17:19Z</time>
      </trkpt>
      <trkpt lat="48.24863" lon="-3.43038">
        <ele>146.8</ele>
        <time>2022-06-12T15:17:20Z</time>
      </trkpt>
      <trkpt lat="48.24864" lon="-3.43038">
        <ele>146.8</ele>
        <time>2022-06-12T15:17:21Z</time>
      </trkpt>
      <trkpt lat="48.24866" lon="-3.43039">
        <ele>146.8</ele>
        <time>2022-06-12T15:17:22Z</time>
      </trkpt>
      <trkpt lat="48.24867" lon="-3.4304">
        <ele>146.8</ele>
        <time>2022-06-12T15:17:23Z</time>
      </trkpt>
      <trkpt lat="48.2487" lon="-3.43041">
        <ele>146.8</ele>
        <time>2022-06-12T15:17:25Z</time>
      </trkpt>
      <trkpt lat="48.24871" lon="-3.43041">
        <ele>146.8</ele>
        <time>2022-06-12T15:17:26Z</time>
      </trkpt>
      <trkpt lat="48.24872" lon="-3.4304">
        <ele>146.8</ele>
        <time>2022-06-12T15:17:27Z</time>
      </trkpt>
      <trkpt lat="48.24872" lon="-3.4304">
        <ele>146.8</ele>
        <time>2022-06-12T15:17:28Z</time>
      </trkpt>
      <trkpt lat="48.24873" lon="-3.4304">
        <ele>146.8</ele>
        <time>2022-06-12T15:17:29Z</time>
      </trkpt>
      <trkpt lat="48.24873" lon="-3.4304">
        <ele>146.8</ele>
        <time>2022-06-12T15:17:30Z</time>
      </trkpt>
      <trkpt lat="48.24875" lon="-3.4304">
        <ele>146.7</ele>
        <time>2022-06-12T15:17:32Z</time>
      </trkpt>
      <trkpt lat="48.24876" lon="-3.43039">
        <ele>146.7</ele>
        <time>2022-06-12T15:17:33Z</time>
      </trkpt>
      <trkpt lat="48.24877" lon="-3.4304">
        <ele>146.7</ele>
        <time>2022-06-12T15:17:34Z</time>
      </trkpt>
      <trkpt lat="48.24879" lon="-3.4304">
        <ele>146.7</ele>
        <time>2022-06-12T15:17:36Z</time>
      </trkpt>
      <trkpt lat="48.2488" lon="-3.43041">
        <ele>146.7</ele>
        <time>2022-06-12T15:17:37Z</time>
      </trkpt>
      <trkpt lat="48.24882" lon="-3.43042">
        <ele>146.7</ele>
        <time>2022-06-12T15:17:38Z</time>
      </trkpt>
      <trkpt lat="48.24883" lon="-3.43045">
        <ele>146.7</ele>
        <time>2022-06-12T15:17:39Z</time>
      </trkpt>
      <trkpt lat="48.24883" lon="-3.43046">
        <ele>146.7</ele>
        <time>2022-06-12T15:17:40Z</time>
      </trkpt>
      <trkpt lat="48.24883" lon="-3.43048">
        <ele>146.7</ele>
        <time>2022-06-12T15:17:41Z</time>
      </trkpt>
      <trkpt lat="48.24885" lon="-3.43049">
        <ele>146.7</ele>
        <time>2022-06-12T15:17:42Z</time>
      </trkpt>
      <trkpt lat="48.24886" lon="-3.4305">
        <ele>146.7</ele>
        <time>2022-06-12T15:17:44Z</time>
      </trkpt>
      <trkpt lat="48.24886" lon="-3.4305">
        <ele>146.7</ele>
        <time>2022-06-12T15:17:45Z</time>
      </trkpt>
      <trkpt lat="48.24886" lon="-3.43051">
        <ele>146.7</ele>
        <time>2022-06-12T15:17:46Z</time>
      </trkpt>
      <trkpt lat="48.24886" lon="-3.43052">
        <ele>146.7</ele>
        <time>2022-06-12T15:17:47Z</time>
      </trkpt>
      <trkpt lat="48.24886" lon="-3.43053">
        <ele>146.7</ele>
        <time>2022-06-12T15:17:48Z</time>
      </trkpt>
      <trkpt lat="48.24886" lon="-3.43054">
        <ele>146.7</ele>
        <time>2022-06-12T15:17:49Z</time>
      </trkpt>
      <trkpt lat="48.24886" lon="-3.43055">
        <ele>146.7</ele>
        <time>2022-06-12T15:17:50Z</time>
      </trkpt>
      <trkpt lat="48.24886" lon="-3.43055">
        <ele>146.7</ele>
        <time>2022-06-12T15:17:51Z</time>
      </trkpt>
      <trkpt lat="48.24885" lon="-3.43056">
        <ele>146.7</ele>
        <time>2022-06-12T15:17:52Z</time>
      </trkpt>
      <trkpt lat="48.24885" lon="-3.43056">
        <ele>146.7</ele>
        <time>2022-06-12T15:17:53Z</time>
      </trkpt>
      <trkpt lat="48.24885" lon="-3.43056">
        <ele>146.7</ele>
        <time>2022-06-12T15:17:54Z</time>
      </trkpt>
      <trkpt lat="48.24885" lon="-3.43057">
        <ele>146.7</ele>
        <time>2022-06-12T15:17:55Z</time>
      </trkpt>
      <trkpt lat="48.24885" lon="-3.43057">
        <ele>146.7</ele>
        <time>2022-06-12T15:17:57Z</time>
      </trkpt>
      <trkpt lat="48.24885" lon="-3.43057">
        <ele>146.7</ele>
        <time>2022-06-12T15:17:58Z</time>
      </trkpt>
      <trkpt lat="48.24884" lon="-3.43057">
        <ele>146.7</ele>
        <time>2022-06-12T15:17:59Z</time>
      </trkpt>
      <trkpt lat="48.24884" lon="-3.43058">
        <ele>146.7</ele>
        <time>2022-06-12T15:18:00Z</time>
      </trkpt>
      <trkpt lat="48.24884" lon="-3.43058">
        <ele>146.7</ele>
        <time>2022-06-12T15:18:01Z</time>
      </trkpt>
      <trkpt lat="48.24884" lon="-3.43058">
        <ele>146.7</ele>
        <time>2022-06-12T15:18:02Z</time>
      </trkpt>
      <trkpt lat="48.24884" lon="-3.43058">
        <ele>146.7</ele>
        <time>2022-06-12T15:18:03Z</time>
      </trkpt>
      <trkpt lat="48.24884" lon="-3.43058">
        <ele>146.7</ele>
        <time>2022-06-12T15:18:04Z</time>
      </trkpt>
      <trkpt lat="48.24884" lon="-3.43058">
        <ele>146.7</ele>
        <time>2022-06-12T15:18:05Z</time>
      </trkpt>
      <trkpt lat="48.24885" lon="-3.43059">
        <ele>146.7</ele>
        <time>2022-06-12T15:18:06Z</time>
      </trkpt>
      <trkpt lat="48.24886" lon="-3.43059">
        <ele>146.7</ele>
        <time>2022-06-12T15:18:07Z</time>
      </trkpt>
      <trkpt lat="48.24886" lon="-3.43059">
        <ele>146.7</ele>
        <time>2022-06-12T15:18:08Z</time>
      </trkpt>
      <trkpt lat="48.24887" lon="-3.4306">
        <ele>146.7</ele>
        <time>2022-06-12T15:18:09Z</time>
      </trkpt>
      <trkpt lat="48.24887" lon="-3.4306">
        <ele>146.7</ele>
        <time>2022-06-12T15:18:10Z</time>
      </trkpt>
      <trkpt lat="48.24889" lon="-3.43061">
        <ele>146.7</ele>
        <time>2022-06-12T15:18:11Z</time>
      </trkpt>
      <trkpt lat="48.24889" lon="-3.43061">
        <ele>146.7</ele>
        <time>2022-06-12T15:18:12Z</time>
      </trkpt>
      <trkpt lat="48.24889" lon="-3.43061">
        <ele>146.7</ele>
        <time>2022-06-12T15:18:13Z</time>
      </trkpt>
      <trkpt lat="48.24889" lon="-3.43061">
        <ele>146.7</ele>
        <time>2022-06-12T15:18:14Z</time>
      </trkpt>
      <trkpt lat="48.24889" lon="-3.43061">
        <ele>146.7</ele>
        <time>2022-06-12T15:18:15Z</time>
      </trkpt>
      <trkpt lat="48.24889" lon="-3.43061">
        <ele>146.7</ele>
        <time>2022-06-12T15:18:16Z</time>
      </trkpt>
      <trkpt lat="48.24889" lon="-3.43061">
        <ele>146.7</ele>
        <time>2022-06-12T15:18:17Z</time>
      </trkpt>
      <trkpt lat="48.24889" lon="-3.43061">
        <ele>146.7</ele>
        <time>2022-06-12T15:18:18Z</time>
      </trkpt>
      <trkpt lat="48.24889" lon="-3.43061">
        <ele>146.7</ele>
        <time>2022-06-12T15:18:19Z</time>
      </trkpt>
      <trkpt lat="48.24889" lon="-3.43061">
        <ele>146.7</ele>
        <time>2022-06-12T15:18:20Z</time>
      </trkpt>
      <trkpt lat="48.24889" lon="-3.43061">
        <ele>146.7</ele>
        <time>2022-06-12T15:18:21Z</time>
      </trkpt>
      <trkpt lat="48.24889" lon="-3.43061">
        <ele>146.7</ele>
        <time>2022-06-12T15:18:22Z</time>
      </trkpt>
      <trkpt lat="48.24889" lon="-3.43061">
        <ele>146.7</ele>
        <time>2022-06-12T15:18:23Z</time>
      </trkpt>
      <trkpt lat="48.24889" lon="-3.43061">
        <ele>146.7</ele>
        <time>2022-06-12T15:18:24Z</time>
      </trkpt>
      <trkpt lat="48.24889" lon="-3.43061">
        <ele>146.7</ele>
        <time>2022-06-12T15:18:25Z</time>
      </trkpt>
      <trkpt lat="48.24889" lon="-3.43061">
        <ele>146.7</ele>
        <time>2022-06-12T15:18:26Z</time>
      </trkpt>
      <trkpt lat="48.24889" lon="-3.43061">
        <ele>146.7</ele>
        <time>2022-06-12T15:18:27Z</time>
      </trkpt>
      <trkpt lat="48.24889" lon="-3.43061">
        <ele>146.7</ele>
        <time>2022-06-12T15:18:28Z</time>
      </trkpt>
      <trkpt lat="48.24889" lon="-3.43061">
        <ele>146.7</ele>
        <time>2022-06-12T15:18:29Z</time>
      </trkpt>
      <trkpt lat="48.24889" lon="-3.43061">
        <ele>146.7</ele>
        <time>2022-06-12T15:18:30Z</time>
      </trkpt>
      <trkpt lat="48.24889" lon="-3.43061">
        <ele>146.7</ele>
        <time>2022-06-12T15:18:31Z</time>
      </trkpt>
      <trkpt lat="48.24889" lon="-3.43061">
        <ele>146.7</ele>
        <time>2022-06-12T15:18:32Z</time>
      </trkpt>
      <trkpt lat="48.24889" lon="-3.43061">
        <ele>146.7</ele>
        <time>2022-06-12T15:18:33Z</time>
      </trkpt>
      <trkpt lat="48.24889" lon="-3.43061">
        <ele>146.7</ele>
        <time>2022-06-12T15:18:34Z</time>
      </trkpt>
      <trkpt lat="48.24889" lon="-3.43061">
        <ele>146.7</ele>
        <time>2022-06-12T15:18:35Z</time>
      </trkpt>
      <trkpt lat="48.24889" lon="-3.43061">
        <ele>146.7</ele>
        <time>2022-06-12T15:18:36Z</time>
      </trkpt>
      <trkpt lat="48.24889" lon="-3.43061">
        <ele>146.7</ele>
        <time>2022-06-12T15:18:37Z</time>
      </trkpt>
      <trkpt lat="48.24889" lon="-3.43061">
        <ele>146.7</ele>
        <time>2022-06-12T15:18:38Z</time>
      </trkpt>
      <trkpt lat="48.24889" lon="-3.43061">
        <ele>146.7</ele>
        <time>2022-06-12T15:18:39Z</time>
      </trkpt>
      <trkpt lat="48.24889" lon="-3.43061">
        <ele>146.7</ele>
        <time>2022-06-12T15:18:40Z</time>
      </trkpt>
      <trkpt lat="48.24889" lon="-3.43061">
        <ele>146.7</ele>
        <time>2022-06-12T15:18:41Z</time>
      </trkpt>
      <trkpt lat="48.24889" lon="-3.43061">
        <ele>146.7</ele>
        <time>2022-06-12T15:18:42Z</time>
      </trkpt>
      <trkpt lat="48.24889" lon="-3.43061">
        <ele>146.7</ele>
        <time>2022-06-12T15:18:43Z</time>
      </trkpt>
      <trkpt lat="48.24889" lon="-3.43061">
        <ele>146.7</ele>
        <time>2022-06-12T15:18:44Z</time>
      </trkpt>
      <trkpt lat="48.24889" lon="-3.43061">
        <ele>146.7</ele>
        <time>2022-06-12T15:18:45Z</time>
      </trkpt>
      <trkpt lat="48.24889" lon="-3.43061">
        <ele>146.7</ele>
        <time>2022-06-12T15:18:46Z</time>
      </trkpt>
      <trkpt lat="48.24889" lon="-3.43061">
        <ele>146.7</ele>
        <time>2022-06-12T15:18:47Z</time>
      </trkpt>
      <trkpt lat="48.24889" lon="-3.43061">
        <ele>146.7</ele>
        <time>2022-06-12T15:18:48Z</time>
      </trkpt>
      <trkpt lat="48.24889" lon="-3.43061">
        <ele>146.7</ele>
        <time>2022-06-12T15:18:49Z</time>
      </trkpt>
      <trkpt lat="48.24889" lon="-3.43061">
        <ele>146.7</ele>
        <time>2022-06-12T15:18:50Z</time>
      </trkpt>
      <trkpt lat="48.24889" lon="-3.43061">
        <ele>146.7</ele>
        <time>2022-06-12T15:18:51Z</time>
      </trkpt>
      <trkpt lat="48.24889" lon="-3.43061">
        <ele>146.7</ele>
        <time>2022-06-12T15:18:52Z</time>
      </trkpt>
      <trkpt lat="48.24889" lon="-3.43061">
        <ele>146.7</ele>
        <time>2022-06-12T15:18:53Z</time>
      </trkpt>
      <trkpt lat="48.24889" lon="-3.43061">
        <ele>146.7</ele>
        <time>2022-06-12T15:18:54Z</time>
      </trkpt>
      <trkpt lat="48.24889" lon="-3.43061">
        <ele>146.7</ele>
        <time>2022-06-12T15:18:55Z</time>
      </trkpt>
      <trkpt lat="48.24889" lon="-3.43061">
        <ele>146.7</ele>
        <time>2022-06-12T15:18:56Z</time>
      </trkpt>
      <trkpt lat="48.24889" lon="-3.43061">
        <ele>146.7</ele>
        <time>2022-06-12T15:18:57Z</time>
      </trkpt>
      <trkpt lat="48.24889" lon="-3.43061">
        <ele>146.7</ele>
        <time>2022-06-12T15:18:58Z</time>
      </trkpt>
      <trkpt lat="48.24889" lon="-3.43061">
        <ele>146.7</ele>
        <time>2022-06-12T15:18:59Z</time>
      </trkpt>
      <trkpt lat="48.24889" lon="-3.43061">
        <ele>146.7</ele>
        <time>2022-06-12T15:19:00Z</time>
      </trkpt>
      <trkpt lat="48.24889" lon="-3.43061">
        <ele>146.7</ele>
        <time>2022-06-12T15:19:01Z</time>
      </trkpt>
      <trkpt lat="48.24889" lon="-3.43061">
        <ele>146.7</ele>
        <time>2022-06-12T15:19:02Z</time>
      </trkpt>
      <trkpt lat="48.24889" lon="-3.43061">
        <ele>146.7</ele>
        <time>2022-06-12T15:19:03Z</time>
      </trkpt>
      <trkpt lat="48.24889" lon="-3.43061">
        <ele>146.7</ele>
        <time>2022-06-12T15:19:04Z</time>
      </trkpt>
      <trkpt lat="48.24889" lon="-3.43061">
        <ele>146.7</ele>
        <time>2022-06-12T15:19:05Z</time>
      </trkpt>
      <trkpt lat="48.24889" lon="-3.43061">
        <ele>146.7</ele>
        <time>2022-06-12T15:19:06Z</time>
      </trkpt>
      <trkpt lat="48.24889" lon="-3.43061">
        <ele>146.7</ele>
        <time>2022-06-12T15:19:07Z</time>
      </trkpt>
      <trkpt lat="48.24889" lon="-3.43061">
        <ele>146.7</ele>
        <time>2022-06-12T15:19:08Z</time>
      </trkpt>
      <trkpt lat="48.24889" lon="-3.43061">
        <ele>146.7</ele>
        <time>2022-06-12T15:19:09Z</time>
      </trkpt>
      <trkpt lat="48.24889" lon="-3.43061">
        <ele>146.7</ele>
        <time>2022-06-12T15:19:10Z</time>
      </trkpt>
      <trkpt lat="48.24889" lon="-3.43061">
        <ele>146.7</ele>
        <time>2022-06-12T15:19:11Z</time>
      </trkpt>
      <trkpt lat="48.24889" lon="-3.43061">
        <ele>146.7</ele>
        <time>2022-06-12T15:19:12Z</time>
      </trkpt>
      <trkpt lat="48.24889" lon="-3.43061">
        <ele>146.7</ele>
        <time>2022-06-12T15:19:13Z</time>
      </trkpt>
      <trkpt lat="48.24889" lon="-3.43061">
        <ele>146.7</ele>
        <time>2022-06-12T15:19:14Z</time>
      </trkpt>
      <trkpt lat="48.24889" lon="-3.43061">
        <ele>146.7</ele>
        <time>2022-06-12T15:19:15Z</time>
      </trkpt>
      <trkpt lat="48.24889" lon="-3.43061">
        <ele>146.7</ele>
        <time>2022-06-12T15:19:16Z</time>
      </trkpt>
      <trkpt lat="48.24889" lon="-3.43061">
        <ele>146.7</ele>
        <time>2022-06-12T15:19:17Z</time>
      </trkpt>
      <trkpt lat="48.24889" lon="-3.43061">
        <ele>146.7</ele>
        <time>2022-06-12T15:19:18Z</time>
      </trkpt>
      <trkpt lat="48.24889" lon="-3.43061">
        <ele>146.7</ele>
        <time>2022-06-12T15:19:19Z</time>
      </trkpt>
      <trkpt lat="48.24889" lon="-3.43061">
        <ele>146.7</ele>
        <time>2022-06-12T15:19:20Z</time>
      </trkpt>
      <trkpt lat="48.24889" lon="-3.43061">
        <ele>146.7</ele>
        <time>2022-06-12T15:19:21Z</time>
      </trkpt>
      <trkpt lat="48.24889" lon="-3.43061">
        <ele>146.7</ele>
        <time>2022-06-12T15:19:22Z</time>
      </trkpt>
      <trkpt lat="48.24889" lon="-3.43061">
        <ele>146.7</ele>
        <time>2022-06-12T15:19:23Z</time>
      </trkpt>
      <trkpt lat="48.24889" lon="-3.43061">
        <ele>146.7</ele>
        <time>2022-06-12T15:19:24Z</time>
      </trkpt>
      <trkpt lat="48.2489" lon="-3.43061">
        <ele>146.7</ele>
        <time>2022-06-12T15:19:25Z</time>
      </trkpt>
      <trkpt lat="48.24891" lon="-3.4306">
        <ele>146.7</ele>
        <time>2022-06-12T15:19:26Z</time>
      </trkpt>
      <trkpt lat="48.24891" lon="-3.4306">
        <ele>146.7</ele>
        <time>2022-06-12T15:19:27Z</time>
      </trkpt>
      <trkpt lat="48.24891" lon="-3.4306">
        <ele>146.7</ele>
        <time>2022-06-12T15:19:28Z</time>
      </trkpt>
      <trkpt lat="48.24891" lon="-3.43059">
        <ele>146.7</ele>
        <time>2022-06-12T15:19:29Z</time>
      </trkpt>
      <trkpt lat="48.24891" lon="-3.43059">
        <ele>146.7</ele>
        <time>2022-06-12T15:19:30Z</time>
      </trkpt>
      <trkpt lat="48.24891" lon="-3.43059">
        <ele>146.7</ele>
        <time>2022-06-12T15:19:31Z</time>
      </trkpt>
      <trkpt lat="48.24891" lon="-3.43059">
        <ele>146.7</ele>
        <time>2022-06-12T15:19:32Z</time>
      </trkpt>
      <trkpt lat="48.24891" lon="-3.43059">
        <ele>146.7</ele>
        <time>2022-06-12T15:19:33Z</time>
      </trkpt>
      <trkpt lat="48.24891" lon="-3.43059">
        <ele>146.7</ele>
        <time>2022-06-12T15:19:34Z</time>
      </trkpt>
      <trkpt lat="48.24891" lon="-3.4306">
        <ele>146.7</ele>
        <time>2022-06-12T15:19:35Z</time>
      </trkpt>
      <trkpt lat="48.24891" lon="-3.4306">
        <ele>146.7</ele>
        <time>2022-06-12T15:19:36Z</time>
      </trkpt>
      <trkpt lat="48.24891" lon="-3.4306">
        <ele>146.7</ele>
        <time>2022-06-12T15:19:37Z</time>
      </trkpt>
      <trkpt lat="48.24891" lon="-3.4306">
        <ele>146.7</ele>
        <time>2022-06-12T15:19:38Z</time>
      </trkpt>
      <trkpt lat="48.24891" lon="-3.4306">
        <ele>146.7</ele>
        <time>2022-06-12T15:19:39Z</time>
      </trkpt>
      <trkpt lat="48.24891" lon="-3.4306">
        <ele>146.7</ele>
        <time>2022-06-12T15:19:40Z</time>
      </trkpt>
      <trkpt lat="48.24891" lon="-3.4306">
        <ele>146.7</ele>
        <time>2022-06-12T15:19:41Z</time>
      </trkpt>
      <trkpt lat="48.24891" lon="-3.4306">
        <ele>146.7</ele>
        <time>2022-06-12T15:19:42Z</time>
      </trkpt>
      <trkpt lat="48.24891" lon="-3.4306">
        <ele>146.7</ele>
        <time>2022-06-12T15:19:43Z</time>
      </trkpt>
      <trkpt lat="48.24891" lon="-3.4306">
        <ele>146.7</ele>
        <time>2022-06-12T15:19:44Z</time>
      </trkpt>
      <trkpt lat="48.24891" lon="-3.4306">
        <ele>146.7</ele>
        <time>2022-06-12T15:19:45Z</time>
      </trkpt>
      <trkpt lat="48.24891" lon="-3.4306">
        <ele>146.7</ele>
        <time>2022-06-12T15:19:46Z</time>
      </trkpt>
      <trkpt lat="48.24891" lon="-3.4306">
        <ele>146.7</ele>
        <time>2022-06-12T15:19:47Z</time>
      </trkpt>
      <trkpt lat="48.24891" lon="-3.4306">
        <ele>146.7</ele>
        <time>2022-06-12T15:19:48Z</time>
      </trkpt>
      <trkpt lat="48.24891" lon="-3.4306">
        <ele>146.7</ele>
        <time>2022-06-12T15:19:49Z</time>
      </trkpt>
      <trkpt lat="48.24891" lon="-3.4306">
        <ele>146.7</ele>
        <time>2022-06-12T15:19:50Z</time>
      </trkpt>
      <trkpt lat="48.24891" lon="-3.4306">
        <ele>146.7</ele>
        <time>2022-06-12T15:19:51Z</time>
      </trkpt>
      <trkpt lat="48.24891" lon="-3.4306">
        <ele>146.7</ele>
        <time>2022-06-12T15:19:52Z</time>
      </trkpt>
      <trkpt lat="48.24891" lon="-3.4306">
        <ele>146.7</ele>
        <time>2022-06-12T15:19:53Z</time>
      </trkpt>
      <trkpt lat="48.24891" lon="-3.4306">
        <ele>146.7</ele>
        <time>2022-06-12T15:19:54Z</time>
      </trkpt>
      <trkpt lat="48.24891" lon="-3.4306">
        <ele>146.7</ele>
        <time>2022-06-12T15:19:55Z</time>
      </trkpt>
      <trkpt lat="48.24891" lon="-3.4306">
        <ele>146.7</ele>
        <time>2022-06-12T15:19:56Z</time>
      </trkpt>
      <trkpt lat="48.24891" lon="-3.4306">
        <ele>146.7</ele>
        <time>2022-06-12T15:19:57Z</time>
      </trkpt>
      <trkpt lat="48.24891" lon="-3.4306">
        <ele>146.7</ele>
        <time>2022-06-12T15:19:58Z</time>
      </trkpt>
      <trkpt lat="48.24891" lon="-3.4306">
        <ele>146.7</ele>
        <time>2022-06-12T15:19:59Z</time>
      </trkpt>
      <trkpt lat="48.24891" lon="-3.4306">
        <ele>146.7</ele>
        <time>2022-06-12T15:20:00Z</time>
      </trkpt>
      <trkpt lat="48.24891" lon="-3.4306">
        <ele>146.7</ele>
        <time>2022-06-12T15:20:01Z</time>
      </trkpt>
      <trkpt lat="48.24891" lon="-3.4306">
        <ele>146.7</ele>
        <time>2022-06-12T15:20:02Z</time>
      </trkpt>
      <trkpt lat="48.24891" lon="-3.4306">
        <ele>146.7</ele>
        <time>2022-06-12T15:20:03Z</time>
      </trkpt>
      <trkpt lat="48.24891" lon="-3.4306">
        <ele>146.7</ele>
        <time>2022-06-12T15:20:04Z</time>
      </trkpt>
      <trkpt lat="48.24891" lon="-3.4306">
        <ele>146.7</ele>
        <time>2022-06-12T15:20:05Z</time>
      </trkpt>
      <trkpt lat="48.24891" lon="-3.4306">
        <ele>146.7</ele>
        <time>2022-06-12T15:20:06Z</time>
      </trkpt>
      <trkpt lat="48.24891" lon="-3.4306">
        <ele>146.7</ele>
        <time>2022-06-12T15:20:07Z</time>
      </trkpt>
      <trkpt lat="48.24891" lon="-3.4306">
        <ele>146.7</ele>
        <time>2022-06-12T15:20:08Z</time>
      </trkpt>
      <trkpt lat="48.24891" lon="-3.4306">
        <ele>146.7</ele>
        <time>2022-06-12T15:20:09Z</time>
      </trkpt>
      <trkpt lat="48.24891" lon="-3.4306">
        <ele>146.7</ele>
        <time>2022-06-12T15:20:10Z</time>
      </trkpt>
      <trkpt lat="48.24891" lon="-3.4306">
        <ele>146.7</ele>
        <time>2022-06-12T15:20:11Z</time>
      </trkpt>
      <trkpt lat="48.24891" lon="-3.4306">
        <ele>146.7</ele>
        <time>2022-06-12T15:20:12Z</time>
      </trkpt>
      <trkpt lat="48.24891" lon="-3.4306">
        <ele>146.7</ele>
        <time>2022-06-12T15:20:13Z</time>
      </trkpt>
      <trkpt lat="48.24891" lon="-3.43059">
        <ele>146.7</ele>
        <time>2022-06-12T15:20:14Z</time>
      </trkpt>
      <trkpt lat="48.24891" lon="-3.43059">
        <ele>146.7</ele>
        <time>2022-06-12T15:20:15Z</time>
      </trkpt>
      <trkpt lat="48.24891" lon="-3.43059">
        <ele>146.7</ele>
        <time>2022-06-12T15:20:16Z</time>
      </trkpt>
      <trkpt lat="48.24891" lon="-3.43059">
        <ele>146.7</ele>
        <time>2022-06-12T15:20:17Z</time>
      </trkpt>
      <trkpt lat="48.24891" lon="-3.4306">
        <ele>146.7</ele>
        <time>2022-06-12T15:20:18Z</time>
      </trkpt>
      <trkpt lat="48.24891" lon="-3.4306">
        <ele>146.7</ele>
        <time>2022-06-12T15:20:19Z</time>
      </trkpt>
      <trkpt lat="48.24891" lon="-3.4306">
        <ele>146.7</ele>
        <time>2022-06-12T15:20:20Z</time>
      </trkpt>
      <trkpt lat="48.24891" lon="-3.4306">
        <ele>146.7</ele>
        <time>2022-06-12T15:20:21Z</time>
      </trkpt>
      <trkpt lat="48.24891" lon="-3.4306">
        <ele>146.7</ele>
        <time>2022-06-12T15:20:22Z</time>
      </trkpt>
      <trkpt lat="48.24891" lon="-3.4306">
        <ele>146.7</ele>
        <time>2022-06-12T15:20:23Z</time>
      </trkpt>
      <trkpt lat="48.24891" lon="-3.4306">
        <ele>146.7</ele>
        <time>2022-06-12T15:20:24Z</time>
      </trkpt>
      <trkpt lat="48.24891" lon="-3.4306">
        <ele>146.7</ele>
        <time>2022-06-12T15:20:25Z</time>
      </trkpt>
      <trkpt lat="48.24891" lon="-3.4306">
        <ele>146.7</ele>
        <time>2022-06-12T15:20:26Z</time>
      </trkpt>
      <trkpt lat="48.24891" lon="-3.4306">
        <ele>146.7</ele>
        <time>2022-06-12T15:20:27Z</time>
      </trkpt>
      <trkpt lat="48.24891" lon="-3.4306">
        <ele>146.7</ele>
        <time>2022-06-12T15:20:28Z</time>
      </trkpt>
      <trkpt lat="48.24891" lon="-3.4306">
        <ele>146.7</ele>
        <time>2022-06-12T15:20:29Z</time>
      </trkpt>
      <trkpt lat="48.24891" lon="-3.4306">
        <ele>146.7</ele>
        <time>2022-06-12T15:20:30Z</time>
      </trkpt>
      <trkpt lat="48.24891" lon="-3.4306">
        <ele>146.7</ele>
        <time>2022-06-12T15:20:31Z</time>
      </trkpt>
      <trkpt lat="48.24891" lon="-3.4306">
        <ele>146.7</ele>
        <time>2022-06-12T15:20:32Z</time>
      </trkpt>
      <trkpt lat="48.24891" lon="-3.4306">
        <ele>146.7</ele>
        <time>2022-06-12T15:20:33Z</time>
      </trkpt>
      <trkpt lat="48.24891" lon="-3.4306">
        <ele>146.7</ele>
        <time>2022-06-12T15:20:34Z</time>
      </trkpt>
      <trkpt lat="48.24891" lon="-3.4306">
        <ele>146.7</ele>
        <time>2022-06-12T15:20:35Z</time>
      </trkpt>
      <trkpt lat="48.24891" lon="-3.4306">
        <ele>146.7</ele>
        <time>2022-06-12T15:20:36Z</time>
      </trkpt>
      <trkpt lat="48.24891" lon="-3.4306">
        <ele>146.7</ele>
        <time>2022-06-12T15:20:37Z</time>
      </trkpt>
      <trkpt lat="48.24891" lon="-3.4306">
        <ele>146.7</ele>
        <time>2022-06-12T15:20:38Z</time>
      </trkpt>
      <trkpt lat="48.24891" lon="-3.4306">
        <ele>146.7</ele>
        <time>2022-06-12T15:20:39Z</time>
      </trkpt>
      <trkpt lat="48.24891" lon="-3.4306">
        <ele>146.7</ele>
        <time>2022-06-12T15:20:40Z</time>
      </trkpt>
      <trkpt lat="48.24891" lon="-3.4306">
        <ele>146.7</ele>
        <time>2022-06-12T15:20:41Z</time>
      </trkpt>
      <trkpt lat="48.24891" lon="-3.4306">
        <ele>146.7</ele>
        <time>2022-06-12T15:20:42Z</time>
      </trkpt>
      <trkpt lat="48.24891" lon="-3.4306">
        <ele>146.7</ele>
        <time>2022-06-12T15:20:43Z</time>
      </trkpt>
      <trkpt lat="48.24891" lon="-3.4306">
        <ele>146.7</ele>
        <time>2022-06-12T15:20:44Z</time>
      </trkpt>
      <trkpt lat="48.24891" lon="-3.4306">
        <ele>146.7</ele>
        <time>2022-06-12T15:20:45Z</time>
      </trkpt>
      <trkpt lat="48.24891" lon="-3.4306">
        <ele>146.7</ele>
        <time>2022-06-12T15:20:46Z</time>
      </trkpt>
      <trkpt lat="48.24891" lon="-3.4306">
        <ele>146.7</ele>
        <time>2022-06-12T15:20:47Z</time>
      </trkpt>
      <trkpt lat="48.24891" lon="-3.4306">
        <ele>146.7</ele>
        <time>2022-06-12T15:20:48Z</time>
      </trkpt>
      <trkpt lat="48.24891" lon="-3.4306">
        <ele>146.7</ele>
        <time>2022-06-12T15:20:49Z</time>
      </trkpt>
      <trkpt lat="48.24891" lon="-3.4306">
        <ele>146.7</ele>
        <time>2022-06-12T15:20:50Z</time>
      </trkpt>
      <trkpt lat="48.24891" lon="-3.4306">
        <ele>146.7</ele>
        <time>2022-06-12T15:20:51Z</time>
      </trkpt>
      <trkpt lat="48.24891" lon="-3.4306">
        <ele>146.7</ele>
        <time>2022-06-12T15:20:52Z</time>
      </trkpt>
      <trkpt lat="48.24891" lon="-3.4306">
        <ele>146.7</ele>
        <time>2022-06-12T15:20:53Z</time>
      </trkpt>
      <trkpt lat="48.24891" lon="-3.4306">
        <ele>146.7</ele>
        <time>2022-06-12T15:20:54Z</time>
      </trkpt>
      <trkpt lat="48.24891" lon="-3.4306">
        <ele>146.7</ele>
        <time>2022-06-12T15:20:55Z</time>
      </trkpt>
      <trkpt lat="48.24891" lon="-3.4306">
        <ele>146.7</ele>
        <time>2022-06-12T15:20:56Z</time>
      </trkpt>
      <trkpt lat="48.24891" lon="-3.4306">
        <ele>146.7</ele>
        <time>2022-06-12T15:20:57Z</time>
      </trkpt>
      <trkpt lat="48.24891" lon="-3.4306">
        <ele>146.7</ele>
        <time>2022-06-12T15:20:58Z</time>
      </trkpt>
      <trkpt lat="48.24891" lon="-3.4306">
        <ele>146.7</ele>
        <time>2022-06-12T15:20:59Z</time>
      </trkpt>
      <trkpt lat="48.24891" lon="-3.4306">
        <ele>146.7</ele>
        <time>2022-06-12T15:21:00Z</time>
      </trkpt>
      <trkpt lat="48.24891" lon="-3.4306">
        <ele>146.7</ele>
        <time>2022-06-12T15:21:01Z</time>
      </trkpt>
      <trkpt lat="48.24891" lon="-3.4306">
        <ele>146.7</ele>
        <time>2022-06-12T15:21:02Z</time>
      </trkpt>
      <trkpt lat="48.24891" lon="-3.4306">
        <ele>146.7</ele>
        <time>2022-06-12T15:21:03Z</time>
      </trkpt>
      <trkpt lat="48.24891" lon="-3.4306">
        <ele>146.7</ele>
        <time>2022-06-12T15:21:04Z</time>
      </trkpt>
      <trkpt lat="48.24891" lon="-3.4306">
        <ele>146.7</ele>
        <time>2022-06-12T15:21:05Z</time>
      </trkpt>
      <trkpt lat="48.24891" lon="-3.4306">
        <ele>146.7</ele>
        <time>2022-06-12T15:21:06Z</time>
      </trkpt>
      <trkpt lat="48.24891" lon="-3.4306">
        <ele>146.7</ele>
        <time>2022-06-12T15:21:07Z</time>
      </trkpt>
      <trkpt lat="48.24891" lon="-3.4306">
        <ele>146.7</ele>
        <time>2022-06-12T15:21:08Z</time>
      </trkpt>
      <trkpt lat="48.24891" lon="-3.4306">
        <ele>146.7</ele>
        <time>2022-06-12T15:21:09Z</time>
      </trkpt>
      <trkpt lat="48.24891" lon="-3.4306">
        <ele>146.7</ele>
        <time>2022-06-12T15:21:10Z</time>
      </trkpt>
      <trkpt lat="48.24891" lon="-3.4306">
        <ele>146.7</ele>
        <time>2022-06-12T15:21:11Z</time>
      </trkpt>
      <trkpt lat="48.24891" lon="-3.4306">
        <ele>146.7</ele>
        <time>2022-06-12T15:21:12Z</time>
      </trkpt>
      <trkpt lat="48.24891" lon="-3.4306">
        <ele>146.7</ele>
        <time>2022-06-12T15:21:13Z</time>
      </trkpt>
      <trkpt lat="48.24891" lon="-3.4306">
        <ele>146.7</ele>
        <time>2022-06-12T15:21:14Z</time>
      </trkpt>
      <trkpt lat="48.24891" lon="-3.4306">
        <ele>146.7</ele>
        <time>2022-06-12T15:21:15Z</time>
      </trkpt>
      <trkpt lat="48.24891" lon="-3.4306">
        <ele>146.7</ele>
        <time>2022-06-12T15:21:16Z</time>
      </trkpt>
      <trkpt lat="48.24891" lon="-3.4306">
        <ele>146.7</ele>
        <time>2022-06-12T15:21:17Z</time>
      </trkpt>
      <trkpt lat="48.24891" lon="-3.4306">
        <ele>146.7</ele>
        <time>2022-06-12T15:21:18Z</time>
      </trkpt>
      <trkpt lat="48.24891" lon="-3.4306">
        <ele>146.7</ele>
        <time>2022-06-12T15:21:19Z</time>
      </trkpt>
      <trkpt lat="48.24891" lon="-3.4306">
        <ele>146.7</ele>
        <time>2022-06-12T15:21:20Z</time>
      </trkpt>
      <trkpt lat="48.24891" lon="-3.4306">
        <ele>146.7</ele>
        <time>2022-06-12T15:21:21Z</time>
      </trkpt>
      <trkpt lat="48.24891" lon="-3.4306">
        <ele>146.7</ele>
        <time>2022-06-12T15:21:22Z</time>
      </trkpt>
      <trkpt lat="48.24891" lon="-3.4306">
        <ele>146.7</ele>
        <time>2022-06-12T15:21:23Z</time>
      </trkpt>
      <trkpt lat="48.24891" lon="-3.4306">
        <ele>146.7</ele>
        <time>2022-06-12T15:21:24Z</time>
      </trkpt>
      <trkpt lat="48.24891" lon="-3.4306">
        <ele>146.7</ele>
        <time>2022-06-12T15:21:25Z</time>
      </trkpt>
      <trkpt lat="48.24891" lon="-3.4306">
        <ele>146.7</ele>
        <time>2022-06-12T15:21:26Z</time>
      </trkpt>
      <trkpt lat="48.24891" lon="-3.4306">
        <ele>146.7</ele>
        <time>2022-06-12T15:21:27Z</time>
      </trkpt>
      <trkpt lat="48.24891" lon="-3.4306">
        <ele>146.7</ele>
        <time>2022-06-12T15:21:28Z</time>
      </trkpt>
      <trkpt lat="48.24891" lon="-3.4306">
        <ele>146.7</ele>
        <time>2022-06-12T15:21:29Z</time>
      </trkpt>
      <trkpt lat="48.24891" lon="-3.43059">
        <ele>146.7</ele>
        <time>2022-06-12T15:21:30Z</time>
      </trkpt>
      <trkpt lat="48.24891" lon="-3.43059">
        <ele>146.7</ele>
        <time>2022-06-12T15:21:31Z</time>
      </trkpt>
      <trkpt lat="48.24891" lon="-3.43059">
        <ele>146.7</ele>
        <time>2022-06-12T15:21:32Z</time>
      </trkpt>
      <trkpt lat="48.24891" lon="-3.43059">
        <ele>146.7</ele>
        <time>2022-06-12T15:21:33Z</time>
      </trkpt>
      <trkpt lat="48.24891" lon="-3.43059">
        <ele>146.7</ele>
        <time>2022-06-12T15:21:34Z</time>
      </trkpt>
      <trkpt lat="48.24891" lon="-3.43059">
        <ele>146.7</ele>
        <time>2022-06-12T15:21:35Z</time>
      </trkpt>
      <trkpt lat="48.24891" lon="-3.43059">
        <ele>146.7</ele>
        <time>2022-06-12T15:21:36Z</time>
      </trkpt>
      <trkpt lat="48.24891" lon="-3.43059">
        <ele>146.7</ele>
        <time>2022-06-12T15:21:37Z</time>
      </trkpt>
      <trkpt lat="48.24891" lon="-3.43059">
        <ele>146.7</ele>
        <time>2022-06-12T15:21:38Z</time>
      </trkpt>
      <trkpt lat="48.24891" lon="-3.4306">
        <ele>146.7</ele>
        <time>2022-06-12T15:21:39Z</time>
      </trkpt>
      <trkpt lat="48.24891" lon="-3.4306">
        <ele>146.7</ele>
        <time>2022-06-12T15:21:40Z</time>
      </trkpt>
      <trkpt lat="48.24891" lon="-3.4306">
        <ele>146.7</ele>
        <time>2022-06-12T15:21:41Z</time>
      </trkpt>
      <trkpt lat="48.24891" lon="-3.4306">
        <ele>146.7</ele>
        <time>2022-06-12T15:21:42Z</time>
      </trkpt>
      <trkpt lat="48.24891" lon="-3.4306">
        <ele>146.7</ele>
        <time>2022-06-12T15:21:43Z</time>
      </trkpt>
      <trkpt lat="48.24891" lon="-3.4306">
        <ele>146.7</ele>
        <time>2022-06-12T15:21:44Z</time>
      </trkpt>
      <trkpt lat="48.24891" lon="-3.4306">
        <ele>146.7</ele>
        <time>2022-06-12T15:21:45Z</time>
      </trkpt>
      <trkpt lat="48.24891" lon="-3.4306">
        <ele>146.7</ele>
        <time>2022-06-12T15:21:46Z</time>
      </trkpt>
      <trkpt lat="48.24891" lon="-3.4306">
        <ele>146.7</ele>
        <time>2022-06-12T15:21:47Z</time>
      </trkpt>
      <trkpt lat="48.24891" lon="-3.4306">
        <ele>146.7</ele>
        <time>2022-06-12T15:21:48Z</time>
      </trkpt>
      <trkpt lat="48.24891" lon="-3.4306">
        <ele>146.7</ele>
        <time>2022-06-12T15:21:49Z</time>
      </trkpt>
      <trkpt lat="48.24891" lon="-3.4306">
        <ele>146.7</ele>
        <time>2022-06-12T15:21:50Z</time>
      </trkpt>
      <trkpt lat="48.24891" lon="-3.43061">
        <ele>146.7</ele>
        <time>2022-06-12T15:21:52Z</time>
      </trkpt>
      <trkpt lat="48.24891" lon="-3.43061">
        <ele>146.7</ele>
        <time>2022-06-12T15:21:53Z</time>
      </trkpt>
      <trkpt lat="48.24891" lon="-3.43061">
        <ele>146.7</ele>
        <time>2022-06-12T15:21:54Z</time>
      </trkpt>
      <trkpt lat="48.24891" lon="-3.43061">
        <ele>146.7</ele>
        <time>2022-06-12T15:21:55Z</time>
      </trkpt>
      <trkpt lat="48.24891" lon="-3.43061">
        <ele>146.7</ele>
        <time>2022-06-12T15:21:56Z</time>
      </trkpt>
      <trkpt lat="48.24891" lon="-3.43061">
        <ele>146.7</ele>
        <time>2022-06-12T15:21:57Z</time>
      </trkpt>
      <trkpt lat="48.24891" lon="-3.43061">
        <ele>146.7</ele>
        <time>2022-06-12T15:21:58Z</time>
      </trkpt>
      <trkpt lat="48.24891" lon="-3.43061">
        <ele>146.7</ele>
        <time>2022-06-12T15:21:59Z</time>
      </trkpt>
      <trkpt lat="48.24891" lon="-3.43061">
        <ele>146.7</ele>
        <time>2022-06-12T15:22:00Z</time>
      </trkpt>
      <trkpt lat="48.24891" lon="-3.43062">
        <ele>146.7</ele>
        <time>2022-06-12T15:22:01Z</time>
      </trkpt>
      <trkpt lat="48.24891" lon="-3.43062">
        <ele>146.7</ele>
        <time>2022-06-12T15:22:02Z</time>
      </trkpt>
      <trkpt lat="48.24891" lon="-3.43063">
        <ele>146.6</ele>
        <time>2022-06-12T15:22:04Z</time>
      </trkpt>
      <trkpt lat="48.24891" lon="-3.43063">
        <ele>146.6</ele>
        <time>2022-06-12T15:22:05Z</time>
      </trkpt>
      <trkpt lat="48.24892" lon="-3.43063">
        <ele>146.6</ele>
        <time>2022-06-12T15:22:06Z</time>
      </trkpt>
      <trkpt lat="48.24892" lon="-3.43063">
        <ele>146.6</ele>
        <time>2022-06-12T15:22:07Z</time>
      </trkpt>
      <trkpt lat="48.24893" lon="-3.43063">
        <ele>146.6</ele>
        <time>2022-06-12T15:22:08Z</time>
      </trkpt>
      <trkpt lat="48.24893" lon="-3.43064">
        <ele>146.6</ele>
        <time>2022-06-12T15:22:10Z</time>
      </trkpt>
      <trkpt lat="48.24893" lon="-3.43065">
        <ele>146.6</ele>
        <time>2022-06-12T15:22:11Z</time>
      </trkpt>
      <trkpt lat="48.24893" lon="-3.43066">
        <ele>146.6</ele>
        <time>2022-06-12T15:22:12Z</time>
      </trkpt>
      <trkpt lat="48.24893" lon="-3.43067">
        <ele>146.6</ele>
        <time>2022-06-12T15:22:13Z</time>
      </trkpt>
      <trkpt lat="48.24892" lon="-3.43068">
        <ele>146.6</ele>
        <time>2022-06-12T15:22:14Z</time>
      </trkpt>
      <trkpt lat="48.24891" lon="-3.43068">
        <ele>146.6</ele>
        <time>2022-06-12T15:22:15Z</time>
      </trkpt>
      <trkpt lat="48.24891" lon="-3.43069">
        <ele>146.6</ele>
        <time>2022-06-12T15:22:16Z</time>
      </trkpt>
      <trkpt lat="48.24891" lon="-3.43069">
        <ele>146.6</ele>
        <time>2022-06-12T15:22:17Z</time>
      </trkpt>
      <trkpt lat="48.24891" lon="-3.43069">
        <ele>146.6</ele>
        <time>2022-06-12T15:22:18Z</time>
      </trkpt>
      <trkpt lat="48.24891" lon="-3.43069">
        <ele>146.6</ele>
        <time>2022-06-12T15:22:19Z</time>
      </trkpt>
      <trkpt lat="48.24891" lon="-3.43069">
        <ele>146.6</ele>
        <time>2022-06-12T15:22:20Z</time>
      </trkpt>
      <trkpt lat="48.24891" lon="-3.43069">
        <ele>146.6</ele>
        <time>2022-06-12T15:22:21Z</time>
      </trkpt>
      <trkpt lat="48.2489" lon="-3.43068">
        <ele>146.6</ele>
        <time>2022-06-12T15:22:22Z</time>
      </trkpt>
      <trkpt lat="48.2489" lon="-3.43068">
        <ele>146.6</ele>
        <time>2022-06-12T15:22:23Z</time>
      </trkpt>
      <trkpt lat="48.2489" lon="-3.43068">
        <ele>146.6</ele>
        <time>2022-06-12T15:22:24Z</time>
      </trkpt>
      <trkpt lat="48.2489" lon="-3.43068">
        <ele>146.6</ele>
        <time>2022-06-12T15:22:25Z</time>
      </trkpt>
      <trkpt lat="48.2489" lon="-3.43068">
        <ele>146.6</ele>
        <time>2022-06-12T15:22:26Z</time>
      </trkpt>
      <trkpt lat="48.2489" lon="-3.43068">
        <ele>146.6</ele>
        <time>2022-06-12T15:22:27Z</time>
      </trkpt>
      <trkpt lat="48.2489" lon="-3.43068">
        <ele>146.6</ele>
        <time>2022-06-12T15:22:28Z</time>
      </trkpt>
      <trkpt lat="48.2489" lon="-3.43068">
        <ele>146.6</ele>
        <time>2022-06-12T15:22:29Z</time>
      </trkpt>
      <trkpt lat="48.2489" lon="-3.43068">
        <ele>146.6</ele>
        <time>2022-06-12T15:22:30Z</time>
      </trkpt>
      <trkpt lat="48.2489" lon="-3.43068">
        <ele>146.6</ele>
        <time>2022-06-12T15:22:31Z</time>
      </trkpt>
      <trkpt lat="48.2489" lon="-3.43067">
        <ele>146.6</ele>
        <time>2022-06-12T15:22:32Z</time>
      </trkpt>
      <trkpt lat="48.2489" lon="-3.43067">
        <ele>146.6</ele>
        <time>2022-06-12T15:22:33Z</time>
      </trkpt>
      <trkpt lat="48.2489" lon="-3.43067">
        <ele>146.6</ele>
        <time>2022-06-12T15:22:34Z</time>
      </trkpt>
      <trkpt lat="48.2489" lon="-3.43067">
        <ele>146.6</ele>
        <time>2022-06-12T15:22:35Z</time>
      </trkpt>
      <trkpt lat="48.2489" lon="-3.43067">
        <ele>146.6</ele>
        <time>2022-06-12T15:22:36Z</time>
      </trkpt>
      <trkpt lat="48.2489" lon="-3.43067">
        <ele>146.6</ele>
        <time>2022-06-12T15:22:37Z</time>
      </trkpt>
      <trkpt lat="48.2489" lon="-3.43067">
        <ele>146.6</ele>
        <time>2022-06-12T15:22:38Z</time>
      </trkpt>
      <trkpt lat="48.2489" lon="-3.43067">
        <ele>146.6</ele>
        <time>2022-06-12T15:22:39Z</time>
      </trkpt>
      <trkpt lat="48.2489" lon="-3.43067">
        <ele>146.6</ele>
        <time>2022-06-12T15:22:40Z</time>
      </trkpt>
      <trkpt lat="48.2489" lon="-3.43067">
        <ele>146.6</ele>
        <time>2022-06-12T15:22:41Z</time>
      </trkpt>
      <trkpt lat="48.2489" lon="-3.43067">
        <ele>146.6</ele>
        <time>2022-06-12T15:22:42Z</time>
      </trkpt>
      <trkpt lat="48.2489" lon="-3.43067">
        <ele>146.6</ele>
        <time>2022-06-12T15:22:43Z</time>
      </trkpt>
      <trkpt lat="48.2489" lon="-3.43067">
        <ele>146.6</ele>
        <time>2022-06-12T15:22:44Z</time>
      </trkpt>
      <trkpt lat="48.2489" lon="-3.43067">
        <ele>146.6</ele>
        <time>2022-06-12T15:22:45Z</time>
      </trkpt>
      <trkpt lat="48.2489" lon="-3.43067">
        <ele>146.6</ele>
        <time>2022-06-12T15:22:46Z</time>
      </trkpt>
      <trkpt lat="48.2489" lon="-3.43067">
        <ele>146.6</ele>
        <time>2022-06-12T15:22:47Z</time>
      </trkpt>
      <trkpt lat="48.2489" lon="-3.43067">
        <ele>146.6</ele>
        <time>2022-06-12T15:22:48Z</time>
      </trkpt>
      <trkpt lat="48.2489" lon="-3.43067">
        <ele>146.6</ele>
        <time>2022-06-12T15:22:49Z</time>
      </trkpt>
      <trkpt lat="48.2489" lon="-3.43067">
        <ele>146.6</ele>
        <time>2022-06-12T15:22:50Z</time>
      </trkpt>
      <trkpt lat="48.2489" lon="-3.43067">
        <ele>146.6</ele>
        <time>2022-06-12T15:22:51Z</time>
      </trkpt>
      <trkpt lat="48.2489" lon="-3.43067">
        <ele>146.6</ele>
        <time>2022-06-12T15:22:52Z</time>
      </trkpt>
      <trkpt lat="48.2489" lon="-3.43067">
        <ele>146.6</ele>
        <time>2022-06-12T15:22:53Z</time>
      </trkpt>
      <trkpt lat="48.2489" lon="-3.43067">
        <ele>146.6</ele>
        <time>2022-06-12T15:22:54Z</time>
      </trkpt>
      <trkpt lat="48.2489" lon="-3.43067">
        <ele>146.6</ele>
        <time>2022-06-12T15:22:55Z</time>
      </trkpt>
      <trkpt lat="48.2489" lon="-3.43067">
        <ele>146.6</ele>
        <time>2022-06-12T15:22:56Z</time>
      </trkpt>
      <trkpt lat="48.2489" lon="-3.43067">
        <ele>146.6</ele>
        <time>2022-06-12T15:22:57Z</time>
      </trkpt>
      <trkpt lat="48.2489" lon="-3.43067">
        <ele>146.6</ele>
        <time>2022-06-12T15:22:58Z</time>
      </trkpt>
      <trkpt lat="48.2489" lon="-3.43067">
        <ele>146.6</ele>
        <time>2022-06-12T15:22:59Z</time>
      </trkpt>
      <trkpt lat="48.2489" lon="-3.43067">
        <ele>146.6</ele>
        <time>2022-06-12T15:23:00Z</time>
      </trkpt>
      <trkpt lat="48.2489" lon="-3.43067">
        <ele>146.6</ele>
        <time>2022-06-12T15:23:01Z</time>
      </trkpt>
      <trkpt lat="48.2489" lon="-3.43067">
        <ele>146.6</ele>
        <time>2022-06-12T15:23:02Z</time>
      </trkpt>
      <trkpt lat="48.2489" lon="-3.43067">
        <ele>146.6</ele>
        <time>2022-06-12T15:23:03Z</time>
      </trkpt>
      <trkpt lat="48.2489" lon="-3.43067">
        <ele>146.6</ele>
        <time>2022-06-12T15:23:04Z</time>
      </trkpt>
      <trkpt lat="48.2489" lon="-3.43067">
        <ele>146.6</ele>
        <time>2022-06-12T15:23:05Z</time>
      </trkpt>
      <trkpt lat="48.2489" lon="-3.43067">
        <ele>146.6</ele>
        <time>2022-06-12T15:23:06Z</time>
      </trkpt>
      <trkpt lat="48.2489" lon="-3.43067">
        <ele>146.6</ele>
        <time>2022-06-12T15:23:07Z</time>
      </trkpt>
      <trkpt lat="48.2489" lon="-3.43067">
        <ele>146.6</ele>
        <time>2022-06-12T15:23:08Z</time>
      </trkpt>
      <trkpt lat="48.2489" lon="-3.43067">
        <ele>146.6</ele>
        <time>2022-06-12T15:23:09Z</time>
      </trkpt>
      <trkpt lat="48.2489" lon="-3.43067">
        <ele>146.6</ele>
        <time>2022-06-12T15:23:10Z</time>
      </trkpt>
      <trkpt lat="48.2489" lon="-3.43067">
        <ele>146.6</ele>
        <time>2022-06-12T15:23:11Z</time>
      </trkpt>
      <trkpt lat="48.2489" lon="-3.43067">
        <ele>146.6</ele>
        <time>2022-06-12T15:23:12Z</time>
      </trkpt>
      <trkpt lat="48.2489" lon="-3.43067">
        <ele>146.6</ele>
        <time>2022-06-12T15:23:13Z</time>
      </trkpt>
      <trkpt lat="48.2489" lon="-3.43067">
        <ele>146.6</ele>
        <time>2022-06-12T15:23:14Z</time>
      </trkpt>
      <trkpt lat="48.2489" lon="-3.43067">
        <ele>146.6</ele>
        <time>2022-06-12T15:23:15Z</time>
      </trkpt>
      <trkpt lat="48.2489" lon="-3.43067">
        <ele>146.6</ele>
        <time>2022-06-12T15:23:16Z</time>
      </trkpt>
      <trkpt lat="48.2489" lon="-3.43067">
        <ele>146.6</ele>
        <time>2022-06-12T15:23:17Z</time>
      </trkpt>
      <trkpt lat="48.2489" lon="-3.43067">
        <ele>146.6</ele>
        <time>2022-06-12T15:23:18Z</time>
      </trkpt>
      <trkpt lat="48.2489" lon="-3.43067">
        <ele>146.6</ele>
        <time>2022-06-12T15:23:19Z</time>
      </trkpt>
      <trkpt lat="48.2489" lon="-3.43067">
        <ele>146.6</ele>
        <time>2022-06-12T15:23:20Z</time>
      </trkpt>
      <trkpt lat="48.2489" lon="-3.43067">
        <ele>146.6</ele>
        <time>2022-06-12T15:23:21Z</time>
      </trkpt>
      <trkpt lat="48.2489" lon="-3.43067">
        <ele>146.6</ele>
        <time>2022-06-12T15:23:22Z</time>
      </trkpt>
      <trkpt lat="48.2489" lon="-3.43067">
        <ele>146.6</ele>
        <time>2022-06-12T15:23:23Z</time>
      </trkpt>
      <trkpt lat="48.2489" lon="-3.43067">
        <ele>146.6</ele>
        <time>2022-06-12T15:23:24Z</time>
      </trkpt>
      <trkpt lat="48.2489" lon="-3.43068">
        <ele>146.6</ele>
        <time>2022-06-12T15:23:26Z</time>
      </trkpt>
      <trkpt lat="48.2489" lon="-3.43067">
        <ele>146.6</ele>
        <time>2022-06-12T15:23:27Z</time>
      </trkpt>
      <trkpt lat="48.2489" lon="-3.43067">
        <ele>146.6</ele>
        <time>2022-06-12T15:23:28Z</time>
      </trkpt>
      <trkpt lat="48.24891" lon="-3.43066">
        <ele>146.6</ele>
        <time>2022-06-12T15:23:30Z</time>
      </trkpt>
      <trkpt lat="48.24891" lon="-3.43065">
        <ele>146.6</ele>
        <time>2022-06-12T15:23:31Z</time>
      </trkpt>
      <trkpt lat="48.24891" lon="-3.43064">
        <ele>146.6</ele>
        <time>2022-06-12T15:23:32Z</time>
      </trkpt>
      <trkpt lat="48.2489" lon="-3.43063">
        <ele>146.6</ele>
        <time>2022-06-12T15:23:34Z</time>
      </trkpt>
      <trkpt lat="48.24891" lon="-3.43064">
        <ele>146.6</ele>
        <time>2022-06-12T15:23:35Z</time>
      </trkpt>
      <trkpt lat="48.24892" lon="-3.43067">
        <ele>146.5</ele>
        <time>2022-06-12T15:23:36Z</time>
      </trkpt>
      <trkpt lat="48.24892" lon="-3.43069">
        <ele>146.5</ele>
        <time>2022-06-12T15:23:38Z</time>
      </trkpt>
      <trkpt lat="48.24892" lon="-3.4307">
        <ele>146.5</ele>
        <time>2022-06-12T15:23:39Z</time>
      </trkpt>
      <trkpt lat="48.24893" lon="-3.4307">
        <ele>146.5</ele>
        <time>2022-06-12T15:23:40Z</time>
      </trkpt>
      <trkpt lat="48.24893" lon="-3.43071">
        <ele>146.5</ele>
        <time>2022-06-12T15:23:41Z</time>
      </trkpt>
      <trkpt lat="48.24893" lon="-3.43071">
        <ele>146.5</ele>
        <time>2022-06-12T15:23:42Z</time>
      </trkpt>
      <trkpt lat="48.24893" lon="-3.43071">
        <ele>146.5</ele>
        <time>2022-06-12T15:23:43Z</time>
      </trkpt>
      <trkpt lat="48.24893" lon="-3.43071">
        <ele>146.5</ele>
        <time>2022-06-12T15:23:44Z</time>
      </trkpt>
      <trkpt lat="48.24892" lon="-3.4307">
        <ele>146.5</ele>
        <time>2022-06-12T15:23:45Z</time>
      </trkpt>
      <trkpt lat="48.24892" lon="-3.4307">
        <ele>146.5</ele>
        <time>2022-06-12T15:23:46Z</time>
      </trkpt>
      <trkpt lat="48.24892" lon="-3.4307">
        <ele>146.5</ele>
        <time>2022-06-12T15:23:47Z</time>
      </trkpt>
      <trkpt lat="48.24892" lon="-3.4307">
        <ele>146.5</ele>
        <time>2022-06-12T15:23:48Z</time>
      </trkpt>
      <trkpt lat="48.24892" lon="-3.4307">
        <ele>146.5</ele>
        <time>2022-06-12T15:23:49Z</time>
      </trkpt>
      <trkpt lat="48.24891" lon="-3.4307">
        <ele>146.5</ele>
        <time>2022-06-12T15:23:50Z</time>
      </trkpt>
      <trkpt lat="48.24892" lon="-3.4307">
        <ele>146.5</ele>
        <time>2022-06-12T15:23:51Z</time>
      </trkpt>
      <trkpt lat="48.24892" lon="-3.4307">
        <ele>146.5</ele>
        <time>2022-06-12T15:23:52Z</time>
      </trkpt>
      <trkpt lat="48.24892" lon="-3.4307">
        <ele>146.5</ele>
        <time>2022-06-12T15:23:53Z</time>
      </trkpt>
      <trkpt lat="48.24892" lon="-3.4307">
        <ele>146.5</ele>
        <time>2022-06-12T15:23:54Z</time>
      </trkpt>
      <trkpt lat="48.24891" lon="-3.4307">
        <ele>146.5</ele>
        <time>2022-06-12T15:23:55Z</time>
      </trkpt>
      <trkpt lat="48.24891" lon="-3.4307">
        <ele>146.5</ele>
        <time>2022-06-12T15:23:56Z</time>
      </trkpt>
      <trkpt lat="48.24891" lon="-3.4307">
        <ele>146.5</ele>
        <time>2022-06-12T15:23:57Z</time>
      </trkpt>
      <trkpt lat="48.24891" lon="-3.43069">
        <ele>146.5</ele>
        <time>2022-06-12T15:23:58Z</time>
      </trkpt>
      <trkpt lat="48.24891" lon="-3.43069">
        <ele>146.5</ele>
        <time>2022-06-12T15:23:59Z</time>
      </trkpt>
      <trkpt lat="48.2489" lon="-3.43069">
        <ele>146.5</ele>
        <time>2022-06-12T15:24:00Z</time>
      </trkpt>
      <trkpt lat="48.2489" lon="-3.43069">
        <ele>146.5</ele>
        <time>2022-06-12T15:24:01Z</time>
      </trkpt>
      <trkpt lat="48.2489" lon="-3.43069">
        <ele>146.5</ele>
        <time>2022-06-12T15:24:02Z</time>
      </trkpt>
      <trkpt lat="48.2489" lon="-3.43068">
        <ele>146.5</ele>
        <time>2022-06-12T15:24:03Z</time>
      </trkpt>
      <trkpt lat="48.2489" lon="-3.43068">
        <ele>146.5</ele>
        <time>2022-06-12T15:24:04Z</time>
      </trkpt>
      <trkpt lat="48.2489" lon="-3.43068">
        <ele>146.5</ele>
        <time>2022-06-12T15:24:05Z</time>
      </trkpt>
      <trkpt lat="48.2489" lon="-3.43068">
        <ele>146.5</ele>
        <time>2022-06-12T15:24:06Z</time>
      </trkpt>
      <trkpt lat="48.2489" lon="-3.43068">
        <ele>146.5</ele>
        <time>2022-06-12T15:24:07Z</time>
      </trkpt>
      <trkpt lat="48.2489" lon="-3.43068">
        <ele>146.5</ele>
        <time>2022-06-12T15:24:08Z</time>
      </trkpt>
      <trkpt lat="48.2489" lon="-3.43068">
        <ele>146.5</ele>
        <time>2022-06-12T15:24:09Z</time>
      </trkpt>
      <trkpt lat="48.2489" lon="-3.43068">
        <ele>146.5</ele>
        <time>2022-06-12T15:24:10Z</time>
      </trkpt>
      <trkpt lat="48.2489" lon="-3.43068">
        <ele>146.5</ele>
        <time>2022-06-12T15:24:11Z</time>
      </trkpt>
      <trkpt lat="48.2489" lon="-3.43068">
        <ele>146.5</ele>
        <time>2022-06-12T15:24:12Z</time>
      </trkpt>
      <trkpt lat="48.2489" lon="-3.43068">
        <ele>146.5</ele>
        <time>2022-06-12T15:24:13Z</time>
      </trkpt>
      <trkpt lat="48.2489" lon="-3.43068">
        <ele>146.5</ele>
        <time>2022-06-12T15:24:14Z</time>
      </trkpt>
      <trkpt lat="48.2489" lon="-3.43068">
        <ele>146.5</ele>
        <time>2022-06-12T15:24:15Z</time>
      </trkpt>
      <trkpt lat="48.2489" lon="-3.43068">
        <ele>146.5</ele>
        <time>2022-06-12T15:24:16Z</time>
      </trkpt>
      <trkpt lat="48.2489" lon="-3.43068">
        <ele>146.5</ele>
        <time>2022-06-12T15:24:17Z</time>
      </trkpt>
      <trkpt lat="48.2489" lon="-3.43068">
        <ele>146.5</ele>
        <time>2022-06-12T15:24:18Z</time>
      </trkpt>
      <trkpt lat="48.2489" lon="-3.43068">
        <ele>146.5</ele>
        <time>2022-06-12T15:24:19Z</time>
      </trkpt>
      <trkpt lat="48.2489" lon="-3.43068">
        <ele>146.5</ele>
        <time>2022-06-12T15:24:20Z</time>
      </trkpt>
      <trkpt lat="48.2489" lon="-3.43068">
        <ele>146.5</ele>
        <time>2022-06-12T15:24:21Z</time>
      </trkpt>
      <trkpt lat="48.2489" lon="-3.43068">
        <ele>146.5</ele>
        <time>2022-06-12T15:24:22Z</time>
      </trkpt>
      <trkpt lat="48.2489" lon="-3.43068">
        <ele>146.5</ele>
        <time>2022-06-12T15:24:23Z</time>
      </trkpt>
      <trkpt lat="48.2489" lon="-3.43068">
        <ele>146.5</ele>
        <time>2022-06-12T15:24:24Z</time>
      </trkpt>
      <trkpt lat="48.2489" lon="-3.43068">
        <ele>146.5</ele>
        <time>2022-06-12T15:24:25Z</time>
      </trkpt>
      <trkpt lat="48.2489" lon="-3.43068">
        <ele>146.5</ele>
        <time>2022-06-12T15:24:26Z</time>
      </trkpt>
      <trkpt lat="48.2489" lon="-3.43068">
        <ele>146.5</ele>
        <time>2022-06-12T15:24:27Z</time>
      </trkpt>
      <trkpt lat="48.2489" lon="-3.43068">
        <ele>146.5</ele>
        <time>2022-06-12T15:24:28Z</time>
      </trkpt>
      <trkpt lat="48.2489" lon="-3.43068">
        <ele>146.5</ele>
        <time>2022-06-12T15:24:29Z</time>
      </trkpt>
      <trkpt lat="48.2489" lon="-3.43068">
        <ele>146.5</ele>
        <time>2022-06-12T15:24:30Z</time>
      </trkpt>
      <trkpt lat="48.2489" lon="-3.43068">
        <ele>146.5</ele>
        <time>2022-06-12T15:24:31Z</time>
      </trkpt>
      <trkpt lat="48.2489" lon="-3.43068">
        <ele>146.5</ele>
        <time>2022-06-12T15:24:32Z</time>
      </trkpt>
      <trkpt lat="48.2489" lon="-3.43068">
        <ele>146.5</ele>
        <time>2022-06-12T15:24:33Z</time>
      </trkpt>
      <trkpt lat="48.2489" lon="-3.43068">
        <ele>146.5</ele>
        <time>2022-06-12T15:24:34Z</time>
      </trkpt>
      <trkpt lat="48.2489" lon="-3.43068">
        <ele>146.5</ele>
        <time>2022-06-12T15:24:35Z</time>
      </trkpt>
      <trkpt lat="48.2489" lon="-3.43068">
        <ele>146.5</ele>
        <time>2022-06-12T15:24:36Z</time>
      </trkpt>
      <trkpt lat="48.2489" lon="-3.43068">
        <ele>146.5</ele>
        <time>2022-06-12T15:24:37Z</time>
      </trkpt>
      <trkpt lat="48.2489" lon="-3.43068">
        <ele>146.5</ele>
        <time>2022-06-12T15:24:38Z</time>
      </trkpt>
      <trkpt lat="48.2489" lon="-3.43068">
        <ele>146.5</ele>
        <time>2022-06-12T15:24:39Z</time>
      </trkpt>
      <trkpt lat="48.2489" lon="-3.43068">
        <ele>146.5</ele>
        <time>2022-06-12T15:24:40Z</time>
      </trkpt>
      <trkpt lat="48.2489" lon="-3.43068">
        <ele>146.5</ele>
        <time>2022-06-12T15:24:41Z</time>
      </trkpt>
      <trkpt lat="48.2489" lon="-3.43067">
        <ele>146.5</ele>
        <time>2022-06-12T15:24:42Z</time>
      </trkpt>
      <trkpt lat="48.2489" lon="-3.43067">
        <ele>146.5</ele>
        <time>2022-06-12T15:24:43Z</time>
      </trkpt>
      <trkpt lat="48.2489" lon="-3.43067">
        <ele>146.4</ele>
        <time>2022-06-12T15:24:44Z</time>
      </trkpt>
      <trkpt lat="48.2489" lon="-3.43067">
        <ele>146.4</ele>
        <time>2022-06-12T15:24:45Z</time>
      </trkpt>
      <trkpt lat="48.2489" lon="-3.43068">
        <ele>146.4</ele>
        <time>2022-06-12T15:24:46Z</time>
      </trkpt>
      <trkpt lat="48.2489" lon="-3.43068">
        <ele>146.4</ele>
        <time>2022-06-12T15:24:47Z</time>
      </trkpt>
      <trkpt lat="48.2489" lon="-3.43068">
        <ele>146.4</ele>
        <time>2022-06-12T15:24:48Z</time>
      </trkpt>
      <trkpt lat="48.2489" lon="-3.43068">
        <ele>146.4</ele>
        <time>2022-06-12T15:24:49Z</time>
      </trkpt>
      <trkpt lat="48.2489" lon="-3.43068">
        <ele>146.4</ele>
        <time>2022-06-12T15:24:50Z</time>
      </trkpt>
      <trkpt lat="48.2489" lon="-3.43068">
        <ele>146.4</ele>
        <time>2022-06-12T15:24:51Z</time>
      </trkpt>
      <trkpt lat="48.2489" lon="-3.43068">
        <ele>146.4</ele>
        <time>2022-06-12T15:24:52Z</time>
      </trkpt>
      <trkpt lat="48.2489" lon="-3.43068">
        <ele>146.4</ele>
        <time>2022-06-12T15:24:53Z</time>
      </trkpt>
      <trkpt lat="48.2489" lon="-3.43068">
        <ele>146.4</ele>
        <time>2022-06-12T15:24:54Z</time>
      </trkpt>
      <trkpt lat="48.2489" lon="-3.43068">
        <ele>146.4</ele>
        <time>2022-06-12T15:24:55Z</time>
      </trkpt>
      <trkpt lat="48.2489" lon="-3.43068">
        <ele>146.4</ele>
        <time>2022-06-12T15:24:56Z</time>
      </trkpt>
      <trkpt lat="48.2489" lon="-3.43068">
        <ele>146.4</ele>
        <time>2022-06-12T15:24:57Z</time>
      </trkpt>
      <trkpt lat="48.2489" lon="-3.43068">
        <ele>146.4</ele>
        <time>2022-06-12T15:24:58Z</time>
      </trkpt>
      <trkpt lat="48.2489" lon="-3.43068">
        <ele>146.4</ele>
        <time>2022-06-12T15:24:59Z</time>
      </trkpt>
      <trkpt lat="48.2489" lon="-3.43068">
        <ele>146.4</ele>
        <time>2022-06-12T15:25:00Z</time>
      </trkpt>
      <trkpt lat="48.2489" lon="-3.43068">
        <ele>146.4</ele>
        <time>2022-06-12T15:25:01Z</time>
      </trkpt>
      <trkpt lat="48.2489" lon="-3.43068">
        <ele>146.4</ele>
        <time>2022-06-12T15:25:02Z</time>
      </trkpt>
      <trkpt lat="48.2489" lon="-3.43068">
        <ele>146.4</ele>
        <time>2022-06-12T15:25:03Z</time>
      </trkpt>
      <trkpt lat="48.2489" lon="-3.43068">
        <ele>146.4</ele>
        <time>2022-06-12T15:25:04Z</time>
      </trkpt>
      <trkpt lat="48.2489" lon="-3.43068">
        <ele>146.4</ele>
        <time>2022-06-12T15:25:05Z</time>
      </trkpt>
      <trkpt lat="48.2489" lon="-3.43068">
        <ele>146.4</ele>
        <time>2022-06-12T15:25:06Z</time>
      </trkpt>
      <trkpt lat="48.2489" lon="-3.43068">
        <ele>146.4</ele>
        <time>2022-06-12T15:25:07Z</time>
      </trkpt>
      <trkpt lat="48.2489" lon="-3.43068">
        <ele>146.4</ele>
        <time>2022-06-12T15:25:08Z</time>
      </trkpt>
      <trkpt lat="48.2489" lon="-3.43068">
        <ele>146.4</ele>
        <time>2022-06-12T15:25:09Z</time>
      </trkpt>
      <trkpt lat="48.2489" lon="-3.43068">
        <ele>146.4</ele>
        <time>2022-06-12T15:25:10Z</time>
      </trkpt>
      <trkpt lat="48.2489" lon="-3.43068">
        <ele>146.4</ele>
        <time>2022-06-12T15:25:11Z</time>
      </trkpt>
      <trkpt lat="48.2489" lon="-3.43068">
        <ele>146.4</ele>
        <time>2022-06-12T15:25:12Z</time>
      </trkpt>
      <trkpt lat="48.2489" lon="-3.43068">
        <ele>146.4</ele>
        <time>2022-06-12T15:25:13Z</time>
      </trkpt>
      <trkpt lat="48.2489" lon="-3.43068">
        <ele>146.4</ele>
        <time>2022-06-12T15:25:14Z</time>
      </trkpt>
      <trkpt lat="48.2489" lon="-3.43068">
        <ele>146.4</ele>
        <time>2022-06-12T15:25:15Z</time>
      </trkpt>
      <trkpt lat="48.2489" lon="-3.43068">
        <ele>146.4</ele>
        <time>2022-06-12T15:25:16Z</time>
      </trkpt>
      <trkpt lat="48.2489" lon="-3.43068">
        <ele>146.4</ele>
        <time>2022-06-12T15:25:17Z</time>
      </trkpt>
      <trkpt lat="48.2489" lon="-3.43068">
        <ele>146.4</ele>
        <time>2022-06-12T15:25:18Z</time>
      </trkpt>
      <trkpt lat="48.2489" lon="-3.43068">
        <ele>146.4</ele>
        <time>2022-06-12T15:25:19Z</time>
      </trkpt>
      <trkpt lat="48.2489" lon="-3.43068">
        <ele>146.4</ele>
        <time>2022-06-12T15:25:20Z</time>
      </trkpt>
      <trkpt lat="48.2489" lon="-3.43068">
        <ele>146.4</ele>
        <time>2022-06-12T15:25:21Z</time>
      </trkpt>
      <trkpt lat="48.2489" lon="-3.43068">
        <ele>146.4</ele>
        <time>2022-06-12T15:25:22Z</time>
      </trkpt>
      <trkpt lat="48.2489" lon="-3.43068">
        <ele>146.4</ele>
        <time>2022-06-12T15:25:23Z</time>
      </trkpt>
      <trkpt lat="48.2489" lon="-3.43068">
        <ele>146.4</ele>
        <time>2022-06-12T15:25:24Z</time>
      </trkpt>
      <trkpt lat="48.2489" lon="-3.43068">
        <ele>146.4</ele>
        <time>2022-06-12T15:25:25Z</time>
      </trkpt>
      <trkpt lat="48.2489" lon="-3.43068">
        <ele>146.4</ele>
        <time>2022-06-12T15:25:26Z</time>
      </trkpt>
      <trkpt lat="48.2489" lon="-3.43068">
        <ele>146.4</ele>
        <time>2022-06-12T15:25:27Z</time>
      </trkpt>
      <trkpt lat="48.2489" lon="-3.43068">
        <ele>146.4</ele>
        <time>2022-06-12T15:25:28Z</time>
      </trkpt>
      <trkpt lat="48.2489" lon="-3.43068">
        <ele>146.4</ele>
        <time>2022-06-12T15:25:29Z</time>
      </trkpt>
      <trkpt lat="48.2489" lon="-3.43068">
        <ele>146.4</ele>
        <time>2022-06-12T15:25:30Z</time>
      </trkpt>
      <trkpt lat="48.2489" lon="-3.43068">
        <ele>146.4</ele>
        <time>2022-06-12T15:25:31Z</time>
      </trkpt>
      <trkpt lat="48.2489" lon="-3.43068">
        <ele>146.4</ele>
        <time>2022-06-12T15:25:32Z</time>
      </trkpt>
      <trkpt lat="48.2489" lon="-3.43068">
        <ele>146.4</ele>
        <time>2022-06-12T15:25:33Z</time>
      </trkpt>
      <trkpt lat="48.2489" lon="-3.43068">
        <ele>146.4</ele>
        <time>2022-06-12T15:25:34Z</time>
      </trkpt>
      <trkpt lat="48.2489" lon="-3.43068">
        <ele>146.4</ele>
        <time>2022-06-12T15:25:35Z</time>
      </trkpt>
      <trkpt lat="48.2489" lon="-3.43068">
        <ele>146.4</ele>
        <time>2022-06-12T15:25:36Z</time>
      </trkpt>
      <trkpt lat="48.2489" lon="-3.43068">
        <ele>146.4</ele>
        <time>2022-06-12T15:25:37Z</time>
      </trkpt>
      <trkpt lat="48.2489" lon="-3.43068">
        <ele>146.4</ele>
        <time>2022-06-12T15:25:38Z</time>
      </trkpt>
      <trkpt lat="48.2489" lon="-3.43068">
        <ele>146.4</ele>
        <time>2022-06-12T15:25:39Z</time>
      </trkpt>
      <trkpt lat="48.2489" lon="-3.43068">
        <ele>146.4</ele>
        <time>2022-06-12T15:25:40Z</time>
      </trkpt>
      <trkpt lat="48.2489" lon="-3.43068">
        <ele>146.4</ele>
        <time>2022-06-12T15:25:41Z</time>
      </trkpt>
      <trkpt lat="48.2489" lon="-3.43068">
        <ele>146.4</ele>
        <time>2022-06-12T15:25:42Z</time>
      </trkpt>
      <trkpt lat="48.2489" lon="-3.43068">
        <ele>146.4</ele>
        <time>2022-06-12T15:25:43Z</time>
      </trkpt>
      <trkpt lat="48.2489" lon="-3.43068">
        <ele>146.4</ele>
        <time>2022-06-12T15:25:44Z</time>
      </trkpt>
      <trkpt lat="48.2489" lon="-3.43068">
        <ele>146.4</ele>
        <time>2022-06-12T15:25:45Z</time>
      </trkpt>
      <trkpt lat="48.2489" lon="-3.43068">
        <ele>146.4</ele>
        <time>2022-06-12T15:25:46Z</time>
      </trkpt>
      <trkpt lat="48.2489" lon="-3.43068">
        <ele>146.4</ele>
        <time>2022-06-12T15:25:47Z</time>
      </trkpt>
    </trkseg>
  </trk>
</gpx>